<?xml version='1.0' encoding='UTF-8'?><gpx version="1.1" creator="JPX - https://github.com/jenetics/jpx" xmlns="http://www.topografix.com/GPX/1/1"><trk><trkseg><trkpt lat="43.6547079" lon="12.3772595"><ele>380.0</ele><time>2026-04-19T11:55:01.737Z</time></trkpt><trkpt lat="43.6546462" lon="12.3772269"><ele>380.0</ele><time>2026-04-19T11:55:05.762Z</time></trkpt><trkpt lat="43.6545929" lon="12.3771748"><ele>380.0</ele><time>2026-04-19T11:55:09.747Z</time></trkpt><trkpt lat="43.654548" lon="12.3770889"><ele>380.0</ele><time>2026-04-19T11:55:12.748Z</time></trkpt><trkpt lat="43.6545259" lon="12.3769786"><ele>380.0</ele><time>2026-04-19T11:55:15.748Z</time></trkpt><trkpt lat="43.6545613" lon="12.3768044"><ele>380.0</ele><time>2026-04-19T11:55:17.742Z</time></trkpt><trkpt lat="43.6545724" lon="12.3766695"><ele>380.4</ele><time>2026-04-19T11:55:18.735Z</time></trkpt><trkpt lat="43.6545746" lon="12.3765356"><ele>380.8</ele><time>2026-04-19T11:55:19.739Z</time></trkpt><trkpt lat="43.6545689" lon="12.3763905"><ele>381.20000000000005</ele><time>2026-04-19T11:55:20.739Z</time></trkpt><trkpt lat="43.6545525" lon="12.3762354"><ele>381.6</ele><time>2026-04-19T11:55:21.735Z</time></trkpt><trkpt lat="43.654522" lon="12.3760673"><ele>382.0</ele><time>2026-04-19T11:55:22.738Z</time></trkpt><trkpt lat="43.6544741" lon="12.3758919"><ele>382.0</ele><time>2026-04-19T11:55:23.742Z</time></trkpt><trkpt lat="43.6544142" lon="12.3757165"><ele>382.0</ele><time>2026-04-19T11:55:24.736Z</time></trkpt><trkpt lat="43.6543464" lon="12.375555"><ele>382.0</ele><time>2026-04-19T11:55:25.744Z</time></trkpt><trkpt lat="43.6542687" lon="12.3754129"><ele>382.0</ele><time>2026-04-19T11:55:26.744Z</time></trkpt><trkpt lat="43.6541791" lon="12.3753141"><ele>382.0</ele><time>2026-04-19T11:55:27.735Z</time></trkpt><trkpt lat="43.6540722" lon="12.3752367"><ele>382.0</ele><time>2026-04-19T11:55:28.743Z</time></trkpt><trkpt lat="43.6539511" lon="12.3751854"><ele>382.0</ele><time>2026-04-19T11:55:29.77Z</time></trkpt><trkpt lat="43.6538298" lon="12.3751787"><ele>382.0</ele><time>2026-04-19T11:55:30.741Z</time></trkpt><trkpt lat="43.6537178" lon="12.3751954"><ele>381.20000000000005</ele><time>2026-04-19T11:55:31.739Z</time></trkpt><trkpt lat="43.6536141" lon="12.3752125"><ele>380.4</ele><time>2026-04-19T11:55:32.733Z</time></trkpt><trkpt lat="43.6535049" lon="12.3752315"><ele>379.6</ele><time>2026-04-19T11:55:33.733Z</time></trkpt><trkpt lat="43.6533994" lon="12.3752542"><ele>378.79999999999995</ele><time>2026-04-19T11:55:34.737Z</time></trkpt><trkpt lat="43.6532954" lon="12.3752771"><ele>378.0</ele><time>2026-04-19T11:55:35.736Z</time></trkpt><trkpt lat="43.6531788" lon="12.3753014"><ele>378.0</ele><time>2026-04-19T11:55:36.741Z</time></trkpt><trkpt lat="43.6530608" lon="12.3753295"><ele>378.0</ele><time>2026-04-19T11:55:37.735Z</time></trkpt><trkpt lat="43.6529547" lon="12.3753486"><ele>378.0</ele><time>2026-04-19T11:55:38.733Z</time></trkpt><trkpt lat="43.652859" lon="12.375366"><ele>378.0</ele><time>2026-04-19T11:55:39.733Z</time></trkpt><trkpt lat="43.6527738" lon="12.3753745"><ele>378.0</ele><time>2026-04-19T11:55:40.735Z</time></trkpt><trkpt lat="43.652689" lon="12.3753978"><ele>379.4</ele><time>2026-04-19T11:55:41.736Z</time></trkpt><trkpt lat="43.6526052" lon="12.3754151"><ele>380.79999999999995</ele><time>2026-04-19T11:55:42.724Z</time></trkpt><trkpt lat="43.6525346" lon="12.3754241"><ele>382.2</ele><time>2026-04-19T11:55:43.74Z</time></trkpt><trkpt lat="43.6524677" lon="12.3754079"><ele>383.6</ele><time>2026-04-19T11:55:45.727Z</time></trkpt><trkpt lat="43.6524197" lon="12.3752465"><ele>385.0</ele><time>2026-04-19T11:55:47.734Z</time></trkpt><trkpt lat="43.6524124" lon="12.3750938"><ele>385.0</ele><time>2026-04-19T11:55:48.725Z</time></trkpt><trkpt lat="43.6524114" lon="12.3749259"><ele>385.0</ele><time>2026-04-19T11:55:49.73Z</time></trkpt><trkpt lat="43.6524096" lon="12.374745"><ele>385.0</ele><time>2026-04-19T11:55:50.729Z</time></trkpt><trkpt lat="43.6524034" lon="12.3745527"><ele>385.0</ele><time>2026-04-19T11:55:51.73Z</time></trkpt><trkpt lat="43.6523989" lon="12.3743476"><ele>385.0</ele><time>2026-04-19T11:55:52.737Z</time></trkpt><trkpt lat="43.652393" lon="12.3741403"><ele>385.0</ele><time>2026-04-19T11:55:53.736Z</time></trkpt><trkpt lat="43.6523873" lon="12.3739095"><ele>385.0</ele><time>2026-04-19T11:55:54.737Z</time></trkpt><trkpt lat="43.652378" lon="12.3736745"><ele>385.6666666666667</ele><time>2026-04-19T11:55:55.74Z</time></trkpt><trkpt lat="43.6523654" lon="12.3734462"><ele>386.33333333333337</ele><time>2026-04-19T11:55:56.72Z</time></trkpt><trkpt lat="43.6523529" lon="12.3732021"><ele>387.0</ele><time>2026-04-19T11:55:57.721Z</time></trkpt><trkpt lat="43.6523382" lon="12.3729709"><ele>387.66666666666663</ele><time>2026-04-19T11:55:58.725Z</time></trkpt><trkpt lat="43.6523045" lon="12.3727449"><ele>388.3333333333333</ele><time>2026-04-19T11:55:59.71Z</time></trkpt><trkpt lat="43.6522474" lon="12.3725094"><ele>389.0</ele><time>2026-04-19T11:56:00.737Z</time></trkpt><trkpt lat="43.6521755" lon="12.3722836"><ele>389.0</ele><time>2026-04-19T11:56:01.709Z</time></trkpt><trkpt lat="43.6521012" lon="12.3720608"><ele>389.0</ele><time>2026-04-19T11:56:02.701Z</time></trkpt><trkpt lat="43.6520408" lon="12.3718254"><ele>389.0</ele><time>2026-04-19T11:56:03.709Z</time></trkpt><trkpt lat="43.6519745" lon="12.3715798"><ele>390.66666666666663</ele><time>2026-04-19T11:56:04.704Z</time></trkpt><trkpt lat="43.651905" lon="12.3713422"><ele>392.33333333333337</ele><time>2026-04-19T11:56:05.71Z</time></trkpt><trkpt lat="43.6518394" lon="12.3711071"><ele>394.0</ele><time>2026-04-19T11:56:06.707Z</time></trkpt><trkpt lat="43.6517783" lon="12.3708738"><ele>394.0</ele><time>2026-04-19T11:56:07.713Z</time></trkpt><trkpt lat="43.6517187" lon="12.3706335"><ele>394.0</ele><time>2026-04-19T11:56:08.711Z</time></trkpt><trkpt lat="43.6516551" lon="12.3704003"><ele>394.0</ele><time>2026-04-19T11:56:09.716Z</time></trkpt><trkpt lat="43.6515845" lon="12.370159"><ele>393.33333333333337</ele><time>2026-04-19T11:56:10.711Z</time></trkpt><trkpt lat="43.6515189" lon="12.3699304"><ele>392.66666666666663</ele><time>2026-04-19T11:56:11.715Z</time></trkpt><trkpt lat="43.651454" lon="12.369708"><ele>392.0</ele><time>2026-04-19T11:56:12.714Z</time></trkpt><trkpt lat="43.6513881" lon="12.3694853"><ele>392.0</ele><time>2026-04-19T11:56:13.713Z</time></trkpt><trkpt lat="43.6513174" lon="12.369275"><ele>392.0</ele><time>2026-04-19T11:56:14.714Z</time></trkpt><trkpt lat="43.6512362" lon="12.3690675"><ele>392.0</ele><time>2026-04-19T11:56:15.71Z</time></trkpt><trkpt lat="43.6511484" lon="12.3688568"><ele>392.66666666666663</ele><time>2026-04-19T11:56:16.716Z</time></trkpt><trkpt lat="43.6510593" lon="12.3686385"><ele>393.33333333333337</ele><time>2026-04-19T11:56:17.709Z</time></trkpt><trkpt lat="43.6509743" lon="12.3684233"><ele>394.0</ele><time>2026-04-19T11:56:18.714Z</time></trkpt><trkpt lat="43.6508832" lon="12.368198"><ele>393.6666666666667</ele><time>2026-04-19T11:56:19.713Z</time></trkpt><trkpt lat="43.6507942" lon="12.367969"><ele>393.33333333333337</ele><time>2026-04-19T11:56:20.713Z</time></trkpt><trkpt lat="43.6506983" lon="12.367736"><ele>393.0</ele><time>2026-04-19T11:56:21.72Z</time></trkpt><trkpt lat="43.6506084" lon="12.3675089"><ele>393.0</ele><time>2026-04-19T11:56:22.712Z</time></trkpt><trkpt lat="43.6505235" lon="12.3672956"><ele>393.0</ele><time>2026-04-19T11:56:23.714Z</time></trkpt><trkpt lat="43.6504405" lon="12.3670835"><ele>393.0</ele><time>2026-04-19T11:56:24.721Z</time></trkpt><trkpt lat="43.6503578" lon="12.3668768"><ele>393.33333333333337</ele><time>2026-04-19T11:56:25.72Z</time></trkpt><trkpt lat="43.6502726" lon="12.3666612"><ele>393.6666666666667</ele><time>2026-04-19T11:56:26.715Z</time></trkpt><trkpt lat="43.6501881" lon="12.3664466"><ele>394.0</ele><time>2026-04-19T11:56:27.714Z</time></trkpt><trkpt lat="43.6501057" lon="12.36622"><ele>394.0</ele><time>2026-04-19T11:56:28.714Z</time></trkpt><trkpt lat="43.6500311" lon="12.3659753"><ele>394.0</ele><time>2026-04-19T11:56:29.716Z</time></trkpt><trkpt lat="43.6499596" lon="12.365721"><ele>394.0</ele><time>2026-04-19T11:56:30.724Z</time></trkpt><trkpt lat="43.6498954" lon="12.3654583"><ele>392.33333333333337</ele><time>2026-04-19T11:56:31.727Z</time></trkpt><trkpt lat="43.6498322" lon="12.3652026"><ele>390.66666666666663</ele><time>2026-04-19T11:56:32.717Z</time></trkpt><trkpt lat="43.6497715" lon="12.3649546"><ele>389.0</ele><time>2026-04-19T11:56:33.713Z</time></trkpt><trkpt lat="43.6497103" lon="12.3647027"><ele>389.3333333333333</ele><time>2026-04-19T11:56:34.71Z</time></trkpt><trkpt lat="43.6496482" lon="12.364452"><ele>389.66666666666663</ele><time>2026-04-19T11:56:35.713Z</time></trkpt><trkpt lat="43.6495868" lon="12.3642058"><ele>390.0</ele><time>2026-04-19T11:56:36.713Z</time></trkpt><trkpt lat="43.6495237" lon="12.3639581"><ele>390.0</ele><time>2026-04-19T11:56:37.716Z</time></trkpt><trkpt lat="43.6494608" lon="12.363716"><ele>390.0</ele><time>2026-04-19T11:56:38.712Z</time></trkpt><trkpt lat="43.6493986" lon="12.363473"><ele>390.0</ele><time>2026-04-19T11:56:39.716Z</time></trkpt><trkpt lat="43.6493373" lon="12.3632284"><ele>392.0</ele><time>2026-04-19T11:56:40.713Z</time></trkpt><trkpt lat="43.6492734" lon="12.3629812"><ele>394.0</ele><time>2026-04-19T11:56:41.709Z</time></trkpt><trkpt lat="43.6492137" lon="12.3627378"><ele>396.0</ele><time>2026-04-19T11:56:42.713Z</time></trkpt><trkpt lat="43.6491533" lon="12.3624922"><ele>396.0</ele><time>2026-04-19T11:56:43.712Z</time></trkpt><trkpt lat="43.6490902" lon="12.3622544"><ele>396.0</ele><time>2026-04-19T11:56:44.716Z</time></trkpt><trkpt lat="43.6490233" lon="12.3620238"><ele>396.0</ele><time>2026-04-19T11:56:45.709Z</time></trkpt><trkpt lat="43.6489457" lon="12.3617923"><ele>395.66666666666663</ele><time>2026-04-19T11:56:46.716Z</time></trkpt><trkpt lat="43.648857" lon="12.3615662"><ele>395.3333333333333</ele><time>2026-04-19T11:56:47.714Z</time></trkpt><trkpt lat="43.6487514" lon="12.3613588"><ele>395.0</ele><time>2026-04-19T11:56:48.71Z</time></trkpt><trkpt lat="43.6486737" lon="12.3611601"><ele>395.3333333333333</ele><time>2026-04-19T11:56:49.714Z</time></trkpt><trkpt lat="43.6486228" lon="12.3609541"><ele>395.66666666666663</ele><time>2026-04-19T11:56:50.716Z</time></trkpt><trkpt lat="43.6485922" lon="12.3607054"><ele>396.0</ele><time>2026-04-19T11:56:51.708Z</time></trkpt><trkpt lat="43.6485796" lon="12.3604595"><ele>396.0</ele><time>2026-04-19T11:56:52.72Z</time></trkpt><trkpt lat="43.6485677" lon="12.3601898"><ele>396.0</ele><time>2026-04-19T11:56:53.714Z</time></trkpt><trkpt lat="43.6485448" lon="12.359909"><ele>396.0</ele><time>2026-04-19T11:56:54.717Z</time></trkpt><trkpt lat="43.6485061" lon="12.359636"><ele>396.0</ele><time>2026-04-19T11:56:55.719Z</time></trkpt><trkpt lat="43.6484618" lon="12.3593628"><ele>396.0</ele><time>2026-04-19T11:56:56.712Z</time></trkpt><trkpt lat="43.6484155" lon="12.3590794"><ele>396.0</ele><time>2026-04-19T11:56:57.717Z</time></trkpt><trkpt lat="43.6483698" lon="12.3588"><ele>396.33333333333337</ele><time>2026-04-19T11:56:58.717Z</time></trkpt><trkpt lat="43.6483245" lon="12.3585373"><ele>396.6666666666667</ele><time>2026-04-19T11:56:59.713Z</time></trkpt><trkpt lat="43.6482831" lon="12.3582968"><ele>397.0</ele><time>2026-04-19T11:57:00.726Z</time></trkpt><trkpt lat="43.6482422" lon="12.3580464"><ele>397.6666666666667</ele><time>2026-04-19T11:57:01.715Z</time></trkpt><trkpt lat="43.6481958" lon="12.3577903"><ele>398.33333333333337</ele><time>2026-04-19T11:57:02.73Z</time></trkpt><trkpt lat="43.6481555" lon="12.3575362"><ele>399.0</ele><time>2026-04-19T11:57:03.71Z</time></trkpt><trkpt lat="43.6481174" lon="12.3572805"><ele>399.0</ele><time>2026-04-19T11:57:04.713Z</time></trkpt><trkpt lat="43.648083" lon="12.3570351"><ele>399.0</ele><time>2026-04-19T11:57:05.711Z</time></trkpt><trkpt lat="43.648043" lon="12.3567878"><ele>399.0</ele><time>2026-04-19T11:57:06.712Z</time></trkpt><trkpt lat="43.6480021" lon="12.3565454"><ele>399.33333333333337</ele><time>2026-04-19T11:57:07.721Z</time></trkpt><trkpt lat="43.647961" lon="12.3563052"><ele>399.6666666666667</ele><time>2026-04-19T11:57:08.718Z</time></trkpt><trkpt lat="43.6479179" lon="12.3560598"><ele>400.0</ele><time>2026-04-19T11:57:09.715Z</time></trkpt><trkpt lat="43.6478768" lon="12.3558166"><ele>400.0</ele><time>2026-04-19T11:57:10.714Z</time></trkpt><trkpt lat="43.6478354" lon="12.3555726"><ele>400.0</ele><time>2026-04-19T11:57:11.722Z</time></trkpt><trkpt lat="43.6478005" lon="12.3553285"><ele>400.0</ele><time>2026-04-19T11:57:12.716Z</time></trkpt><trkpt lat="43.64776" lon="12.3550746"><ele>400.6666666666667</ele><time>2026-04-19T11:57:13.706Z</time></trkpt><trkpt lat="43.647722" lon="12.3548206"><ele>401.33333333333337</ele><time>2026-04-19T11:57:14.72Z</time></trkpt><trkpt lat="43.647692" lon="12.3545638"><ele>402.0</ele><time>2026-04-19T11:57:15.708Z</time></trkpt><trkpt lat="43.6476738" lon="12.3543048"><ele>402.66666666666663</ele><time>2026-04-19T11:57:16.718Z</time></trkpt><trkpt lat="43.6476623" lon="12.3540424"><ele>403.3333333333333</ele><time>2026-04-19T11:57:17.717Z</time></trkpt><trkpt lat="43.6476442" lon="12.3537836"><ele>404.0</ele><time>2026-04-19T11:57:18.716Z</time></trkpt><trkpt lat="43.6476323" lon="12.35352"><ele>404.0</ele><time>2026-04-19T11:57:19.72Z</time></trkpt><trkpt lat="43.6476145" lon="12.3532537"><ele>404.0</ele><time>2026-04-19T11:57:20.716Z</time></trkpt><trkpt lat="43.6475966" lon="12.3529911"><ele>404.0</ele><time>2026-04-19T11:57:21.722Z</time></trkpt><trkpt lat="43.6475745" lon="12.3527349"><ele>404.0</ele><time>2026-04-19T11:57:22.719Z</time></trkpt><trkpt lat="43.6475546" lon="12.3524701"><ele>404.0</ele><time>2026-04-19T11:57:23.725Z</time></trkpt><trkpt lat="43.6475329" lon="12.3522014"><ele>404.0</ele><time>2026-04-19T11:57:24.72Z</time></trkpt><trkpt lat="43.6475154" lon="12.3519263"><ele>404.0</ele><time>2026-04-19T11:57:25.718Z</time></trkpt><trkpt lat="43.6475007" lon="12.3516596"><ele>404.0</ele><time>2026-04-19T11:57:26.717Z</time></trkpt><trkpt lat="43.6474795" lon="12.3513991"><ele>404.0</ele><time>2026-04-19T11:57:27.726Z</time></trkpt><trkpt lat="43.6474584" lon="12.3511482"><ele>404.0</ele><time>2026-04-19T11:57:28.722Z</time></trkpt><trkpt lat="43.6474387" lon="12.3508964"><ele>404.0</ele><time>2026-04-19T11:57:29.728Z</time></trkpt><trkpt lat="43.6474166" lon="12.3506441"><ele>404.0</ele><time>2026-04-19T11:57:30.731Z</time></trkpt><trkpt lat="43.6473792" lon="12.3504206"><ele>403.3333333333333</ele><time>2026-04-19T11:57:31.725Z</time></trkpt><trkpt lat="43.6473181" lon="12.3502022"><ele>402.66666666666663</ele><time>2026-04-19T11:57:32.725Z</time></trkpt><trkpt lat="43.6472461" lon="12.3499831"><ele>402.0</ele><time>2026-04-19T11:57:33.746Z</time></trkpt><trkpt lat="43.6471639" lon="12.3497521"><ele>401.66666666666663</ele><time>2026-04-19T11:57:34.726Z</time></trkpt><trkpt lat="43.6470822" lon="12.3495163"><ele>401.3333333333333</ele><time>2026-04-19T11:57:35.725Z</time></trkpt><trkpt lat="43.6469903" lon="12.3492781"><ele>401.0</ele><time>2026-04-19T11:57:36.724Z</time></trkpt><trkpt lat="43.6469025" lon="12.3490368"><ele>403.0</ele><time>2026-04-19T11:57:37.712Z</time></trkpt><trkpt lat="43.6468325" lon="12.3488044"><ele>405.0</ele><time>2026-04-19T11:57:38.718Z</time></trkpt><trkpt lat="43.6467719" lon="12.3485764"><ele>407.0</ele><time>2026-04-19T11:57:39.708Z</time></trkpt><trkpt lat="43.6467353" lon="12.3483475"><ele>407.0</ele><time>2026-04-19T11:57:40.712Z</time></trkpt><trkpt lat="43.6467122" lon="12.3481038"><ele>407.0</ele><time>2026-04-19T11:57:41.712Z</time></trkpt><trkpt lat="43.6466969" lon="12.3478445"><ele>407.0</ele><time>2026-04-19T11:57:42.706Z</time></trkpt><trkpt lat="43.6466827" lon="12.3475759"><ele>407.0</ele><time>2026-04-19T11:57:43.709Z</time></trkpt><trkpt lat="43.6466841" lon="12.3473022"><ele>407.0</ele><time>2026-04-19T11:57:44.711Z</time></trkpt><trkpt lat="43.6466844" lon="12.3470216"><ele>407.0</ele><time>2026-04-19T11:57:45.717Z</time></trkpt><trkpt lat="43.6466812" lon="12.3467571"><ele>406.3333333333333</ele><time>2026-04-19T11:57:46.715Z</time></trkpt><trkpt lat="43.6466786" lon="12.3465137"><ele>405.66666666666663</ele><time>2026-04-19T11:57:47.717Z</time></trkpt><trkpt lat="43.6466709" lon="12.3462884"><ele>405.0</ele><time>2026-04-19T11:57:48.719Z</time></trkpt><trkpt lat="43.646682" lon="12.3460633"><ele>404.66666666666663</ele><time>2026-04-19T11:57:49.713Z</time></trkpt><trkpt lat="43.6467167" lon="12.3458492"><ele>404.3333333333333</ele><time>2026-04-19T11:57:50.719Z</time></trkpt><trkpt lat="43.6467777" lon="12.3456455"><ele>404.0</ele><time>2026-04-19T11:57:51.716Z</time></trkpt><trkpt lat="43.6468614" lon="12.3454561"><ele>405.0</ele><time>2026-04-19T11:57:52.722Z</time></trkpt><trkpt lat="43.646957" lon="12.3452729"><ele>406.0</ele><time>2026-04-19T11:57:53.717Z</time></trkpt><trkpt lat="43.6470556" lon="12.3450964"><ele>407.0</ele><time>2026-04-19T11:57:54.724Z</time></trkpt><trkpt lat="43.6471508" lon="12.34492"><ele>407.0</ele><time>2026-04-19T11:57:55.722Z</time></trkpt><trkpt lat="43.6472371" lon="12.3447516"><ele>407.0</ele><time>2026-04-19T11:57:56.72Z</time></trkpt><trkpt lat="43.6473061" lon="12.3446111"><ele>407.0</ele><time>2026-04-19T11:57:57.715Z</time></trkpt><trkpt lat="43.647361" lon="12.3444846"><ele>407.0</ele><time>2026-04-19T11:57:58.716Z</time></trkpt><trkpt lat="43.6474132" lon="12.3443664"><ele>406.49999999999994</ele><time>2026-04-19T11:57:59.722Z</time></trkpt><trkpt lat="43.6474604" lon="12.3442748"><ele>406.0</ele><time>2026-04-19T11:58:00.723Z</time></trkpt><trkpt lat="43.6475096" lon="12.3442187"><ele>405.5</ele><time>2026-04-19T11:58:01.713Z</time></trkpt><trkpt lat="43.6475821" lon="12.3442263"><ele>405.0</ele><time>2026-04-19T11:58:02.722Z</time></trkpt><trkpt lat="43.6476701" lon="12.3442491"><ele>404.49999999999994</ele><time>2026-04-19T11:58:03.715Z</time></trkpt><trkpt lat="43.6477544" lon="12.3442739"><ele>404.0</ele><time>2026-04-19T11:58:04.733Z</time></trkpt><trkpt lat="43.6478546" lon="12.3443152"><ele>404.0</ele><time>2026-04-19T11:58:05.725Z</time></trkpt><trkpt lat="43.6479716" lon="12.344373"><ele>404.0</ele><time>2026-04-19T11:58:06.713Z</time></trkpt><trkpt lat="43.6481014" lon="12.3444383"><ele>404.0</ele><time>2026-04-19T11:58:07.711Z</time></trkpt><trkpt lat="43.6482348" lon="12.344517"><ele>404.0</ele><time>2026-04-19T11:58:08.719Z</time></trkpt><trkpt lat="43.6483668" lon="12.3446002"><ele>404.0</ele><time>2026-04-19T11:58:09.717Z</time></trkpt><trkpt lat="43.6484886" lon="12.3446892"><ele>404.0</ele><time>2026-04-19T11:58:10.717Z</time></trkpt><trkpt lat="43.6485982" lon="12.3447903"><ele>404.0</ele><time>2026-04-19T11:58:11.718Z</time></trkpt><trkpt lat="43.6486705" lon="12.3448898"><ele>404.0</ele><time>2026-04-19T11:58:12.721Z</time></trkpt><trkpt lat="43.6486942" lon="12.3450289"><ele>404.25</ele><time>2026-04-19T11:58:13.72Z</time></trkpt><trkpt lat="43.6486803" lon="12.3451732"><ele>404.5</ele><time>2026-04-19T11:58:14.715Z</time></trkpt><trkpt lat="43.6486486" lon="12.3453328"><ele>404.75</ele><time>2026-04-19T11:58:15.703Z</time></trkpt><trkpt lat="43.6486078" lon="12.3455074"><ele>405.0</ele><time>2026-04-19T11:58:16.711Z</time></trkpt><trkpt lat="43.6485867" lon="12.345681"><ele>405.5</ele><time>2026-04-19T11:58:17.706Z</time></trkpt><trkpt lat="43.6485849" lon="12.3458423"><ele>406.0</ele><time>2026-04-19T11:58:18.705Z</time></trkpt><trkpt lat="43.6485877" lon="12.3459784"><ele>406.5</ele><time>2026-04-19T11:58:19.712Z</time></trkpt><trkpt lat="43.6486087" lon="12.3460726"><ele>407.0</ele><time>2026-04-19T11:58:20.713Z</time></trkpt><trkpt lat="43.6486366" lon="12.3461974"><ele>407.5</ele><time>2026-04-19T11:58:22.706Z</time></trkpt><trkpt lat="43.6486414" lon="12.3462902"><ele>408.0</ele><time>2026-04-19T11:58:23.705Z</time></trkpt><trkpt lat="43.6486572" lon="12.346422"><ele>410.5</ele><time>2026-04-19T11:58:24.708Z</time></trkpt><trkpt lat="43.6486835" lon="12.3465938"><ele>413.0</ele><time>2026-04-19T11:58:25.705Z</time></trkpt><trkpt lat="43.6487144" lon="12.3467901"><ele>415.5</ele><time>2026-04-19T11:58:26.702Z</time></trkpt><trkpt lat="43.6487431" lon="12.3469902"><ele>418.0</ele><time>2026-04-19T11:58:27.703Z</time></trkpt><trkpt lat="43.6487775" lon="12.3472446"><ele>418.0</ele><time>2026-04-19T11:58:28.702Z</time></trkpt><trkpt lat="43.6488026" lon="12.3474935"><ele>418.0</ele><time>2026-04-19T11:58:29.714Z</time></trkpt><trkpt lat="43.6488138" lon="12.347727"><ele>418.0</ele><time>2026-04-19T11:58:30.721Z</time></trkpt><trkpt lat="43.6488434" lon="12.3479456"><ele>416.33333333333337</ele><time>2026-04-19T11:58:31.709Z</time></trkpt><trkpt lat="43.648892" lon="12.3481596"><ele>414.66666666666663</ele><time>2026-04-19T11:58:32.713Z</time></trkpt><trkpt lat="43.6489549" lon="12.3483806"><ele>413.0</ele><time>2026-04-19T11:58:33.713Z</time></trkpt><trkpt lat="43.6490282" lon="12.3486158"><ele>413.0</ele><time>2026-04-19T11:58:34.711Z</time></trkpt><trkpt lat="43.649097" lon="12.3488653"><ele>413.0</ele><time>2026-04-19T11:58:35.728Z</time></trkpt><trkpt lat="43.649155" lon="12.3490876"><ele>413.0</ele><time>2026-04-19T11:58:36.709Z</time></trkpt><trkpt lat="43.6492141" lon="12.3493014"><ele>411.75</ele><time>2026-04-19T11:58:37.708Z</time></trkpt><trkpt lat="43.6492725" lon="12.3494919"><ele>410.5</ele><time>2026-04-19T11:58:38.706Z</time></trkpt><trkpt lat="43.6493432" lon="12.3496433"><ele>409.25</ele><time>2026-04-19T11:58:39.708Z</time></trkpt><trkpt lat="43.6494127" lon="12.3497265"><ele>408.0</ele><time>2026-04-19T11:58:40.708Z</time></trkpt><trkpt lat="43.6495016" lon="12.3497778"><ele>411.0</ele><time>2026-04-19T11:58:41.715Z</time></trkpt><trkpt lat="43.6496114" lon="12.3498609"><ele>414.0</ele><time>2026-04-19T11:58:42.702Z</time></trkpt><trkpt lat="43.6497489" lon="12.3499304"><ele>417.0</ele><time>2026-04-19T11:58:43.71Z</time></trkpt><trkpt lat="43.6498862" lon="12.3500159"><ele>420.0</ele><time>2026-04-19T11:58:44.71Z</time></trkpt><trkpt lat="43.6500157" lon="12.3501445"><ele>420.0</ele><time>2026-04-19T11:58:45.711Z</time></trkpt><trkpt lat="43.650111" lon="12.3503017"><ele>420.0</ele><time>2026-04-19T11:58:46.712Z</time></trkpt><trkpt lat="43.6502042" lon="12.3504804"><ele>420.0</ele><time>2026-04-19T11:58:47.71Z</time></trkpt><trkpt lat="43.6502906" lon="12.3507005"><ele>426.0</ele><time>2026-04-19T11:58:48.708Z</time></trkpt><trkpt lat="43.6503779" lon="12.3509358"><ele>432.0</ele><time>2026-04-19T11:58:49.712Z</time></trkpt><trkpt lat="43.6504696" lon="12.3511738"><ele>438.0</ele><time>2026-04-19T11:58:50.708Z</time></trkpt><trkpt lat="43.6505329" lon="12.3514068"><ele>438.33333333333337</ele><time>2026-04-19T11:58:51.709Z</time></trkpt><trkpt lat="43.6505745" lon="12.3516163"><ele>438.6666666666667</ele><time>2026-04-19T11:58:52.7Z</time></trkpt><trkpt lat="43.650611" lon="12.3518405"><ele>439.0</ele><time>2026-04-19T11:58:53.704Z</time></trkpt><trkpt lat="43.6506332" lon="12.3520708"><ele>437.33333333333337</ele><time>2026-04-19T11:58:54.714Z</time></trkpt><trkpt lat="43.6506624" lon="12.3523071"><ele>435.66666666666663</ele><time>2026-04-19T11:58:55.709Z</time></trkpt><trkpt lat="43.6506961" lon="12.3525384"><ele>434.0</ele><time>2026-04-19T11:58:56.711Z</time></trkpt><trkpt lat="43.6507258" lon="12.3527748"><ele>434.0</ele><time>2026-04-19T11:58:57.712Z</time></trkpt><trkpt lat="43.6507645" lon="12.3530123"><ele>434.0</ele><time>2026-04-19T11:58:58.705Z</time></trkpt><trkpt lat="43.6508021" lon="12.3532626"><ele>434.0</ele><time>2026-04-19T11:58:59.707Z</time></trkpt><trkpt lat="43.6508263" lon="12.3535246"><ele>434.0</ele><time>2026-04-19T11:59:00.718Z</time></trkpt><trkpt lat="43.6508482" lon="12.3537881"><ele>434.0</ele><time>2026-04-19T11:59:01.702Z</time></trkpt><trkpt lat="43.6508655" lon="12.3540453"><ele>434.0</ele><time>2026-04-19T11:59:02.71Z</time></trkpt><trkpt lat="43.6508737" lon="12.3542745"><ele>433.75</ele><time>2026-04-19T11:59:03.712Z</time></trkpt><trkpt lat="43.6508892" lon="12.3544645"><ele>433.5</ele><time>2026-04-19T11:59:04.706Z</time></trkpt><trkpt lat="43.6509039" lon="12.3546268"><ele>433.25</ele><time>2026-04-19T11:59:05.708Z</time></trkpt><trkpt lat="43.6509359" lon="12.3547605"><ele>433.0</ele><time>2026-04-19T11:59:06.725Z</time></trkpt><trkpt lat="43.6509919" lon="12.3548828"><ele>430.5</ele><time>2026-04-19T11:59:07.705Z</time></trkpt><trkpt lat="43.6510664" lon="12.354969"><ele>428.0</ele><time>2026-04-19T11:59:08.714Z</time></trkpt><trkpt lat="43.6511598" lon="12.3550184"><ele>425.5</ele><time>2026-04-19T11:59:09.699Z</time></trkpt><trkpt lat="43.6512805" lon="12.3550669"><ele>423.0</ele><time>2026-04-19T11:59:10.704Z</time></trkpt><trkpt lat="43.6514185" lon="12.3551051"><ele>431.33333333333337</ele><time>2026-04-19T11:59:11.704Z</time></trkpt><trkpt lat="43.6515677" lon="12.3551591"><ele>439.6666666666667</ele><time>2026-04-19T11:59:12.705Z</time></trkpt><trkpt lat="43.6517251" lon="12.3552449"><ele>448.0</ele><time>2026-04-19T11:59:13.71Z</time></trkpt><trkpt lat="43.6518773" lon="12.3553662"><ele>447.0</ele><time>2026-04-19T11:59:14.698Z</time></trkpt><trkpt lat="43.6520322" lon="12.3554801"><ele>446.0</ele><time>2026-04-19T11:59:15.701Z</time></trkpt><trkpt lat="43.6521933" lon="12.3555994"><ele>445.0</ele><time>2026-04-19T11:59:16.703Z</time></trkpt><trkpt lat="43.6523665" lon="12.3556966"><ele>445.0</ele><time>2026-04-19T11:59:17.697Z</time></trkpt><trkpt lat="43.6525329" lon="12.3557737"><ele>445.0</ele><time>2026-04-19T11:59:18.695Z</time></trkpt><trkpt lat="43.6526913" lon="12.3558326"><ele>445.0</ele><time>2026-04-19T11:59:19.712Z</time></trkpt><trkpt lat="43.6528273" lon="12.3558717"><ele>445.2</ele><time>2026-04-19T11:59:20.716Z</time></trkpt><trkpt lat="43.652933" lon="12.3558956"><ele>445.4</ele><time>2026-04-19T11:59:21.714Z</time></trkpt><trkpt lat="43.6530181" lon="12.3558669"><ele>445.6</ele><time>2026-04-19T11:59:22.71Z</time></trkpt><trkpt lat="43.6531048" lon="12.3557982"><ele>445.8</ele><time>2026-04-19T11:59:23.718Z</time></trkpt><trkpt lat="43.6531949" lon="12.35569"><ele>446.0</ele><time>2026-04-19T11:59:24.71Z</time></trkpt><trkpt lat="43.6532849" lon="12.3555602"><ele>450.5</ele><time>2026-04-19T11:59:25.71Z</time></trkpt><trkpt lat="43.6533751" lon="12.3553951"><ele>455.0</ele><time>2026-04-19T11:59:26.711Z</time></trkpt><trkpt lat="43.653464" lon="12.3552336"><ele>459.5</ele><time>2026-04-19T11:59:27.706Z</time></trkpt><trkpt lat="43.6535559" lon="12.3550847"><ele>464.0</ele><time>2026-04-19T11:59:28.712Z</time></trkpt><trkpt lat="43.653651" lon="12.3549345"><ele>464.0</ele><time>2026-04-19T11:59:29.71Z</time></trkpt><trkpt lat="43.6537543" lon="12.3547952"><ele>464.0</ele><time>2026-04-19T11:59:30.718Z</time></trkpt><trkpt lat="43.653864" lon="12.3546413"><ele>464.0</ele><time>2026-04-19T11:59:31.707Z</time></trkpt><trkpt lat="43.6539829" lon="12.3544731"><ele>470.0</ele><time>2026-04-19T11:59:32.699Z</time></trkpt><trkpt lat="43.6540903" lon="12.3542881"><ele>476.0</ele><time>2026-04-19T11:59:33.71Z</time></trkpt><trkpt lat="43.6541863" lon="12.3540683"><ele>482.0</ele><time>2026-04-19T11:59:34.706Z</time></trkpt><trkpt lat="43.6542711" lon="12.3538433"><ele>484.0</ele><time>2026-04-19T11:59:35.708Z</time></trkpt><trkpt lat="43.6543355" lon="12.3536639"><ele>486.0</ele><time>2026-04-19T11:59:36.704Z</time></trkpt><trkpt lat="43.6543946" lon="12.3535544"><ele>488.0</ele><time>2026-04-19T11:59:37.731Z</time></trkpt><trkpt lat="43.654499" lon="12.3534778"><ele>490.0</ele><time>2026-04-19T11:59:38.713Z</time></trkpt><trkpt lat="43.6546193" lon="12.3534209"><ele>490.0</ele><time>2026-04-19T11:59:39.72Z</time></trkpt><trkpt lat="43.6547471" lon="12.3534139"><ele>490.0</ele><time>2026-04-19T11:59:40.722Z</time></trkpt><trkpt lat="43.6548854" lon="12.353446"><ele>490.0</ele><time>2026-04-19T11:59:41.709Z</time></trkpt><trkpt lat="43.6550064" lon="12.3535154"><ele>490.0</ele><time>2026-04-19T11:59:42.721Z</time></trkpt><trkpt lat="43.655118" lon="12.3536041"><ele>490.0</ele><time>2026-04-19T11:59:43.719Z</time></trkpt><trkpt lat="43.6552021" lon="12.3537245"><ele>490.0</ele><time>2026-04-19T11:59:44.715Z</time></trkpt><trkpt lat="43.6552672" lon="12.3538707"><ele>490.0</ele><time>2026-04-19T11:59:45.712Z</time></trkpt><trkpt lat="43.6553226" lon="12.3540046"><ele>490.0</ele><time>2026-04-19T11:59:46.719Z</time></trkpt><trkpt lat="43.6553693" lon="12.3541167"><ele>489.8</ele><time>2026-04-19T11:59:47.723Z</time></trkpt><trkpt lat="43.6554106" lon="12.3541853"><ele>489.6</ele><time>2026-04-19T11:59:48.725Z</time></trkpt><trkpt lat="43.6555128" lon="12.3542602"><ele>489.4</ele><time>2026-04-19T11:59:50.729Z</time></trkpt><trkpt lat="43.6556071" lon="12.3541989"><ele>489.2</ele><time>2026-04-19T11:59:52.705Z</time></trkpt><trkpt lat="43.6556706" lon="12.3541223"><ele>489.0</ele><time>2026-04-19T11:59:53.722Z</time></trkpt><trkpt lat="43.6557456" lon="12.3540133"><ele>489.0</ele><time>2026-04-19T11:59:54.714Z</time></trkpt><trkpt lat="43.6558211" lon="12.3539003"><ele>489.0</ele><time>2026-04-19T11:59:55.726Z</time></trkpt><trkpt lat="43.6558945" lon="12.3538069"><ele>489.0</ele><time>2026-04-19T11:59:56.717Z</time></trkpt><trkpt lat="43.6559751" lon="12.3537331"><ele>489.0</ele><time>2026-04-19T11:59:57.719Z</time></trkpt><trkpt lat="43.6560581" lon="12.3536909"><ele>489.0</ele><time>2026-04-19T11:59:58.709Z</time></trkpt><trkpt lat="43.6561405" lon="12.3536934"><ele>491.5</ele><time>2026-04-19T11:59:59.706Z</time></trkpt><trkpt lat="43.6562248" lon="12.3537345"><ele>494.0</ele><time>2026-04-19T12:00:00.72Z</time></trkpt><trkpt lat="43.6563145" lon="12.3538096"><ele>496.5</ele><time>2026-04-19T12:00:01.715Z</time></trkpt><trkpt lat="43.6564037" lon="12.3539345"><ele>499.0</ele><time>2026-04-19T12:00:02.718Z</time></trkpt><trkpt lat="43.6564836" lon="12.3540822"><ele>499.0</ele><time>2026-04-19T12:00:03.706Z</time></trkpt><trkpt lat="43.6565618" lon="12.3542508"><ele>499.0</ele><time>2026-04-19T12:00:04.711Z</time></trkpt><trkpt lat="43.6566204" lon="12.3544191"><ele>499.0</ele><time>2026-04-19T12:00:05.712Z</time></trkpt><trkpt lat="43.656662" lon="12.3545691"><ele>499.0</ele><time>2026-04-19T12:00:06.714Z</time></trkpt><trkpt lat="43.6566897" lon="12.3547023"><ele>499.4</ele><time>2026-04-19T12:00:07.708Z</time></trkpt><trkpt lat="43.6567226" lon="12.3548166"><ele>499.79999999999995</ele><time>2026-04-19T12:00:08.737Z</time></trkpt><trkpt lat="43.6567809" lon="12.3549175"><ele>500.20000000000005</ele><time>2026-04-19T12:00:09.715Z</time></trkpt><trkpt lat="43.6568576" lon="12.3550027"><ele>500.6</ele><time>2026-04-19T12:00:10.717Z</time></trkpt><trkpt lat="43.6569472" lon="12.3550648"><ele>501.0</ele><time>2026-04-19T12:00:11.712Z</time></trkpt><trkpt lat="43.6570492" lon="12.3551077"><ele>501.0</ele><time>2026-04-19T12:00:12.718Z</time></trkpt><trkpt lat="43.6571808" lon="12.3551357"><ele>501.0</ele><time>2026-04-19T12:00:13.706Z</time></trkpt><trkpt lat="43.6573272" lon="12.3551493"><ele>501.0</ele><time>2026-04-19T12:00:14.714Z</time></trkpt><trkpt lat="43.657463" lon="12.3551526"><ele>501.0</ele><time>2026-04-19T12:00:15.714Z</time></trkpt><trkpt lat="43.6575884" lon="12.3551454"><ele>501.0</ele><time>2026-04-19T12:00:16.708Z</time></trkpt><trkpt lat="43.6577109" lon="12.355118"><ele>501.0</ele><time>2026-04-19T12:00:17.723Z</time></trkpt><trkpt lat="43.6578297" lon="12.3550453"><ele>501.0</ele><time>2026-04-19T12:00:18.711Z</time></trkpt><trkpt lat="43.6579403" lon="12.3549371"><ele>501.0</ele><time>2026-04-19T12:00:19.71Z</time></trkpt><trkpt lat="43.6580493" lon="12.3548223"><ele>501.75</ele><time>2026-04-19T12:00:20.713Z</time></trkpt><trkpt lat="43.6581676" lon="12.354742"><ele>502.5</ele><time>2026-04-19T12:00:21.711Z</time></trkpt><trkpt lat="43.6583046" lon="12.3546993"><ele>503.25</ele><time>2026-04-19T12:00:22.708Z</time></trkpt><trkpt lat="43.6584654" lon="12.3546837"><ele>504.0</ele><time>2026-04-19T12:00:23.708Z</time></trkpt><trkpt lat="43.6586379" lon="12.3546806"><ele>508.75</ele><time>2026-04-19T12:00:24.703Z</time></trkpt><trkpt lat="43.6587914" lon="12.3546822"><ele>513.5</ele><time>2026-04-19T12:00:25.711Z</time></trkpt><trkpt lat="43.658934" lon="12.3547011"><ele>518.25</ele><time>2026-04-19T12:00:26.717Z</time></trkpt><trkpt lat="43.6590725" lon="12.3547043"><ele>523.0</ele><time>2026-04-19T12:00:27.712Z</time></trkpt><trkpt lat="43.6592011" lon="12.3546925"><ele>523.0</ele><time>2026-04-19T12:00:28.714Z</time></trkpt><trkpt lat="43.6593061" lon="12.3546601"><ele>523.0</ele><time>2026-04-19T12:00:29.713Z</time></trkpt><trkpt lat="43.6593969" lon="12.3546148"><ele>523.0</ele><time>2026-04-19T12:00:30.729Z</time></trkpt><trkpt lat="43.6594703" lon="12.3545089"><ele>523.0</ele><time>2026-04-19T12:00:31.718Z</time></trkpt><trkpt lat="43.6595369" lon="12.3543709"><ele>523.0</ele><time>2026-04-19T12:00:32.713Z</time></trkpt><trkpt lat="43.6596213" lon="12.3542565"><ele>522.25</ele><time>2026-04-19T12:00:33.719Z</time></trkpt><trkpt lat="43.6597447" lon="12.354206"><ele>521.5</ele><time>2026-04-19T12:00:34.713Z</time></trkpt><trkpt lat="43.6598766" lon="12.3541621"><ele>520.75</ele><time>2026-04-19T12:00:35.705Z</time></trkpt><trkpt lat="43.6599905" lon="12.3541003"><ele>520.0</ele><time>2026-04-19T12:00:36.703Z</time></trkpt><trkpt lat="43.6600975" lon="12.3540068"><ele>520.0</ele><time>2026-04-19T12:00:37.701Z</time></trkpt><trkpt lat="43.6601996" lon="12.3539004"><ele>520.0</ele><time>2026-04-19T12:00:38.704Z</time></trkpt><trkpt lat="43.6603003" lon="12.3537986"><ele>520.0</ele><time>2026-04-19T12:00:39.736Z</time></trkpt><trkpt lat="43.6604029" lon="12.3536948"><ele>520.0</ele><time>2026-04-19T12:00:40.697Z</time></trkpt><trkpt lat="43.6604962" lon="12.3535701"><ele>521.25</ele><time>2026-04-19T12:00:41.697Z</time></trkpt><trkpt lat="43.6605766" lon="12.353419"><ele>522.5</ele><time>2026-04-19T12:00:42.698Z</time></trkpt><trkpt lat="43.66066" lon="12.3532656"><ele>523.75</ele><time>2026-04-19T12:00:43.695Z</time></trkpt><trkpt lat="43.6607566" lon="12.3531305"><ele>525.0</ele><time>2026-04-19T12:00:44.709Z</time></trkpt><trkpt lat="43.660883" lon="12.3530331"><ele>523.75</ele><time>2026-04-19T12:00:45.705Z</time></trkpt><trkpt lat="43.6610288" lon="12.3529636"><ele>522.5</ele><time>2026-04-19T12:00:46.698Z</time></trkpt><trkpt lat="43.6611802" lon="12.3529153"><ele>521.25</ele><time>2026-04-19T12:00:47.707Z</time></trkpt><trkpt lat="43.661303" lon="12.3528698"><ele>520.0</ele><time>2026-04-19T12:00:48.707Z</time></trkpt><trkpt lat="43.661415" lon="12.3528311"><ele>520.0</ele><time>2026-04-19T12:00:49.704Z</time></trkpt><trkpt lat="43.6614904" lon="12.3527906"><ele>520.0</ele><time>2026-04-19T12:00:50.702Z</time></trkpt><trkpt lat="43.6615437" lon="12.3526575"><ele>520.0</ele><time>2026-04-19T12:00:52.71Z</time></trkpt><trkpt lat="43.6615421" lon="12.3525654"><ele>520.0</ele><time>2026-04-19T12:00:53.703Z</time></trkpt><trkpt lat="43.6615248" lon="12.3524593"><ele>520.0</ele><time>2026-04-19T12:00:54.709Z</time></trkpt><trkpt lat="43.6614877" lon="12.3523468"><ele>520.0</ele><time>2026-04-19T12:00:55.712Z</time></trkpt><trkpt lat="43.661434" lon="12.3522428"><ele>521.3333333333334</ele><time>2026-04-19T12:00:56.707Z</time></trkpt><trkpt lat="43.6613778" lon="12.3521353"><ele>522.6666666666667</ele><time>2026-04-19T12:00:57.708Z</time></trkpt><trkpt lat="43.6613595" lon="12.3520285"><ele>524.0</ele><time>2026-04-19T12:00:58.71Z</time></trkpt><trkpt lat="43.6613794" lon="12.3519223"><ele>525.3333333333334</ele><time>2026-04-19T12:00:59.706Z</time></trkpt><trkpt lat="43.6614105" lon="12.351794"><ele>526.6666666666666</ele><time>2026-04-19T12:01:00.713Z</time></trkpt><trkpt lat="43.6614239" lon="12.3516614"><ele>528.0</ele><time>2026-04-19T12:01:01.703Z</time></trkpt><trkpt lat="43.6614324" lon="12.3515244"><ele>528.0</ele><time>2026-04-19T12:01:02.712Z</time></trkpt><trkpt lat="43.6614272" lon="12.3513786"><ele>528.0</ele><time>2026-04-19T12:01:03.707Z</time></trkpt><trkpt lat="43.6614305" lon="12.3512499"><ele>528.0</ele><time>2026-04-19T12:01:04.707Z</time></trkpt><trkpt lat="43.6614413" lon="12.3511412"><ele>528.0</ele><time>2026-04-19T12:01:05.713Z</time></trkpt><trkpt lat="43.6615748" lon="12.3510422"><ele>528.0</ele><time>2026-04-19T12:01:07.707Z</time></trkpt><trkpt lat="43.6617027" lon="12.3510435"><ele>532.5</ele><time>2026-04-19T12:01:08.702Z</time></trkpt><trkpt lat="43.6618401" lon="12.3510632"><ele>537.0</ele><time>2026-04-19T12:01:09.715Z</time></trkpt><trkpt lat="43.6619629" lon="12.3511011"><ele>541.5</ele><time>2026-04-19T12:01:10.7Z</time></trkpt><trkpt lat="43.6620691" lon="12.3511793"><ele>546.0</ele><time>2026-04-19T12:01:11.7Z</time></trkpt><trkpt lat="43.662171" lon="12.3512544"><ele>548.25</ele><time>2026-04-19T12:01:12.707Z</time></trkpt><trkpt lat="43.6622705" lon="12.3513559"><ele>550.5</ele><time>2026-04-19T12:01:13.71Z</time></trkpt><trkpt lat="43.662361" lon="12.3514886"><ele>552.75</ele><time>2026-04-19T12:01:14.701Z</time></trkpt><trkpt lat="43.6624477" lon="12.3516246"><ele>555.0</ele><time>2026-04-19T12:01:15.704Z</time></trkpt><trkpt lat="43.6625496" lon="12.3517339"><ele>552.0</ele><time>2026-04-19T12:01:16.706Z</time></trkpt><trkpt lat="43.6626626" lon="12.3518237"><ele>549.0</ele><time>2026-04-19T12:01:17.706Z</time></trkpt><trkpt lat="43.6627795" lon="12.3519008"><ele>546.0</ele><time>2026-04-19T12:01:18.707Z</time></trkpt><trkpt lat="43.6629034" lon="12.3519601"><ele>543.0</ele><time>2026-04-19T12:01:19.708Z</time></trkpt><trkpt lat="43.6630299" lon="12.3520019"><ele>543.0</ele><time>2026-04-19T12:01:20.701Z</time></trkpt><trkpt lat="43.6631528" lon="12.3520127"><ele>543.0</ele><time>2026-04-19T12:01:21.695Z</time></trkpt><trkpt lat="43.6632751" lon="12.3520041"><ele>543.0</ele><time>2026-04-19T12:01:22.692Z</time></trkpt><trkpt lat="43.6633887" lon="12.3519989"><ele>543.0</ele><time>2026-04-19T12:01:23.694Z</time></trkpt><trkpt lat="43.6635051" lon="12.3519973"><ele>539.5</ele><time>2026-04-19T12:01:24.695Z</time></trkpt><trkpt lat="43.6636233" lon="12.351993"><ele>536.0</ele><time>2026-04-19T12:01:25.695Z</time></trkpt><trkpt lat="43.6637407" lon="12.3519828"><ele>532.5</ele><time>2026-04-19T12:01:26.69Z</time></trkpt><trkpt lat="43.663863" lon="12.3519476"><ele>529.0</ele><time>2026-04-19T12:01:27.693Z</time></trkpt><trkpt lat="43.6639939" lon="12.3518925"><ele>529.0</ele><time>2026-04-19T12:01:28.693Z</time></trkpt><trkpt lat="43.6641179" lon="12.3518458"><ele>529.0</ele><time>2026-04-19T12:01:29.695Z</time></trkpt><trkpt lat="43.6642449" lon="12.3518308"><ele>529.0</ele><time>2026-04-19T12:01:30.709Z</time></trkpt><trkpt lat="43.6643797" lon="12.3518682"><ele>529.0</ele><time>2026-04-19T12:01:31.698Z</time></trkpt><trkpt lat="43.6645208" lon="12.351934"><ele>525.0</ele><time>2026-04-19T12:01:32.691Z</time></trkpt><trkpt lat="43.6646508" lon="12.3519853"><ele>521.0</ele><time>2026-04-19T12:01:33.69Z</time></trkpt><trkpt lat="43.6647726" lon="12.352003"><ele>517.0</ele><time>2026-04-19T12:01:34.698Z</time></trkpt><trkpt lat="43.6648989" lon="12.3519725"><ele>513.0</ele><time>2026-04-19T12:01:35.7Z</time></trkpt><trkpt lat="43.6650433" lon="12.351916"><ele>513.0</ele><time>2026-04-19T12:01:36.691Z</time></trkpt><trkpt lat="43.6651907" lon="12.3518431"><ele>513.0</ele><time>2026-04-19T12:01:37.69Z</time></trkpt><trkpt lat="43.6653165" lon="12.3517903"><ele>513.0</ele><time>2026-04-19T12:01:38.697Z</time></trkpt><trkpt lat="43.6654195" lon="12.3517516"><ele>513.0</ele><time>2026-04-19T12:01:39.695Z</time></trkpt><trkpt lat="43.665516" lon="12.3517446"><ele>512.8</ele><time>2026-04-19T12:01:40.709Z</time></trkpt><trkpt lat="43.6656117" lon="12.3518114"><ele>512.5999999999999</ele><time>2026-04-19T12:01:41.694Z</time></trkpt><trkpt lat="43.6656722" lon="12.3519331"><ele>512.4000000000001</ele><time>2026-04-19T12:01:42.692Z</time></trkpt><trkpt lat="43.6657023" lon="12.3520754"><ele>512.2</ele><time>2026-04-19T12:01:43.693Z</time></trkpt><trkpt lat="43.665701" lon="12.3522284"><ele>512.0</ele><time>2026-04-19T12:01:44.705Z</time></trkpt><trkpt lat="43.6656697" lon="12.352405"><ele>512.0</ele><time>2026-04-19T12:01:45.705Z</time></trkpt><trkpt lat="43.6656263" lon="12.3526075"><ele>512.0</ele><time>2026-04-19T12:01:46.707Z</time></trkpt><trkpt lat="43.6655919" lon="12.3528167"><ele>512.0</ele><time>2026-04-19T12:01:47.711Z</time></trkpt><trkpt lat="43.6655879" lon="12.3530199"><ele>511.0</ele><time>2026-04-19T12:01:48.712Z</time></trkpt><trkpt lat="43.6655892" lon="12.3531547"><ele>510.00000000000006</ele><time>2026-04-19T12:01:49.703Z</time></trkpt><trkpt lat="43.6655427" lon="12.3532565"><ele>509.00000000000006</ele><time>2026-04-19T12:01:50.702Z</time></trkpt><trkpt lat="43.6654617" lon="12.3533446"><ele>508.0</ele><time>2026-04-19T12:01:51.715Z</time></trkpt><trkpt lat="43.6653486" lon="12.3534161"><ele>507.0</ele><time>2026-04-19T12:01:52.707Z</time></trkpt><trkpt lat="43.6652276" lon="12.3534736"><ele>507.0</ele><time>2026-04-19T12:01:53.7Z</time></trkpt><trkpt lat="43.6650958" lon="12.3535062"><ele>507.00000000000006</ele><time>2026-04-19T12:01:54.706Z</time></trkpt><trkpt lat="43.6649761" lon="12.3535218"><ele>507.00000000000006</ele><time>2026-04-19T12:01:55.706Z</time></trkpt><trkpt lat="43.6648786" lon="12.3535387"><ele>507.0</ele><time>2026-04-19T12:01:56.705Z</time></trkpt><trkpt lat="43.6648028" lon="12.3535706"><ele>507.0</ele><time>2026-04-19T12:01:57.707Z</time></trkpt><trkpt lat="43.6647502" lon="12.3536285"><ele>507.0</ele><time>2026-04-19T12:01:58.708Z</time></trkpt><trkpt lat="43.6647207" lon="12.3537154"><ele>507.00000000000006</ele><time>2026-04-19T12:01:59.706Z</time></trkpt><trkpt lat="43.6647034" lon="12.3538241"><ele>507.00000000000006</ele><time>2026-04-19T12:02:00.713Z</time></trkpt><trkpt lat="43.6646873" lon="12.3539564"><ele>507.0</ele><time>2026-04-19T12:02:01.705Z</time></trkpt><trkpt lat="43.6646753" lon="12.354104"><ele>507.0</ele><time>2026-04-19T12:02:02.711Z</time></trkpt><trkpt lat="43.6646598" lon="12.3542525"><ele>510.3333333333333</ele><time>2026-04-19T12:02:03.71Z</time></trkpt><trkpt lat="43.6646361" lon="12.3544008"><ele>513.6666666666666</ele><time>2026-04-19T12:02:04.704Z</time></trkpt><trkpt lat="43.6646093" lon="12.3545375"><ele>517.0</ele><time>2026-04-19T12:02:05.71Z</time></trkpt><trkpt lat="43.6645681" lon="12.3546369"><ele>520.3333333333333</ele><time>2026-04-19T12:02:06.71Z</time></trkpt><trkpt lat="43.6645114" lon="12.3547042"><ele>523.6666666666666</ele><time>2026-04-19T12:02:07.706Z</time></trkpt><trkpt lat="43.6644479" lon="12.3547425"><ele>527.0</ele><time>2026-04-19T12:02:08.711Z</time></trkpt><trkpt lat="43.664377" lon="12.354722"><ele>528.2</ele><time>2026-04-19T12:02:09.709Z</time></trkpt><trkpt lat="43.6643004" lon="12.3546525"><ele>529.4000000000001</ele><time>2026-04-19T12:02:10.7Z</time></trkpt><trkpt lat="43.6642129" lon="12.3545792"><ele>530.5999999999999</ele><time>2026-04-19T12:02:11.73Z</time></trkpt><trkpt lat="43.6641263" lon="12.3545501"><ele>531.8</ele><time>2026-04-19T12:02:12.7Z</time></trkpt><trkpt lat="43.664065" lon="12.3545863"><ele>533.0</ele><time>2026-04-19T12:02:13.705Z</time></trkpt><trkpt lat="43.6640115" lon="12.3547646"><ele>533.0</ele><time>2026-04-19T12:02:15.714Z</time></trkpt><trkpt lat="43.6640156" lon="12.3549012"><ele>533.0</ele><time>2026-04-19T12:02:16.713Z</time></trkpt><trkpt lat="43.6640383" lon="12.3550962"><ele>533.0</ele><time>2026-04-19T12:02:17.709Z</time></trkpt><trkpt lat="43.664067" lon="12.355305"><ele>533.0</ele><time>2026-04-19T12:02:18.706Z</time></trkpt><trkpt lat="43.6640785" lon="12.3554965"><ele>536.0</ele><time>2026-04-19T12:02:19.711Z</time></trkpt><trkpt lat="43.6640658" lon="12.3556322"><ele>539.0</ele><time>2026-04-19T12:02:20.708Z</time></trkpt><trkpt lat="43.6640158" lon="12.3557338"><ele>542.0</ele><time>2026-04-19T12:02:21.702Z</time></trkpt><trkpt lat="43.6639244" lon="12.3558079"><ele>545.0</ele><time>2026-04-19T12:02:22.706Z</time></trkpt><trkpt lat="43.6638146" lon="12.3558638"><ele>548.0</ele><time>2026-04-19T12:02:23.708Z</time></trkpt><trkpt lat="43.6637249" lon="12.3559426"><ele>548.0</ele><time>2026-04-19T12:02:24.697Z</time></trkpt><trkpt lat="43.6636522" lon="12.3560472"><ele>548.0</ele><time>2026-04-19T12:02:25.707Z</time></trkpt><trkpt lat="43.6635962" lon="12.3561931"><ele>548.0</ele><time>2026-04-19T12:02:26.71Z</time></trkpt><trkpt lat="43.6635504" lon="12.3563717"><ele>548.0</ele><time>2026-04-19T12:02:27.708Z</time></trkpt><trkpt lat="43.6634915" lon="12.3565656"><ele>546.5</ele><time>2026-04-19T12:02:28.716Z</time></trkpt><trkpt lat="43.663425" lon="12.3567694"><ele>545.0</ele><time>2026-04-19T12:02:29.714Z</time></trkpt><trkpt lat="43.6633743" lon="12.356941"><ele>543.5</ele><time>2026-04-19T12:02:30.721Z</time></trkpt><trkpt lat="43.6633396" lon="12.3570899"><ele>542.0</ele><time>2026-04-19T12:02:31.709Z</time></trkpt><trkpt lat="43.6633138" lon="12.3572327"><ele>546.6666666666666</ele><time>2026-04-19T12:02:32.714Z</time></trkpt><trkpt lat="43.6633047" lon="12.3574154"><ele>551.3333333333334</ele><time>2026-04-19T12:02:33.709Z</time></trkpt><trkpt lat="43.6632959" lon="12.3576302"><ele>556.0</ele><time>2026-04-19T12:02:34.715Z</time></trkpt><trkpt lat="43.6632663" lon="12.3578695"><ele>558.25</ele><time>2026-04-19T12:02:35.71Z</time></trkpt><trkpt lat="43.6632392" lon="12.3580977"><ele>560.5</ele><time>2026-04-19T12:02:36.709Z</time></trkpt><trkpt lat="43.6632124" lon="12.358274"><ele>562.75</ele><time>2026-04-19T12:02:37.709Z</time></trkpt><trkpt lat="43.663203" lon="12.3583981"><ele>565.0</ele><time>2026-04-19T12:02:38.721Z</time></trkpt><trkpt lat="43.6632064" lon="12.3585019"><ele>565.0</ele><time>2026-04-19T12:02:39.714Z</time></trkpt><trkpt lat="43.6632638" lon="12.358623"><ele>565.0</ele><time>2026-04-19T12:02:40.713Z</time></trkpt><trkpt lat="43.6633366" lon="12.3587719"><ele>565.0</ele><time>2026-04-19T12:02:41.702Z</time></trkpt><trkpt lat="43.6634213" lon="12.3589275"><ele>565.0</ele><time>2026-04-19T12:02:42.735Z</time></trkpt><trkpt lat="43.6634952" lon="12.3590695"><ele>563.25</ele><time>2026-04-19T12:02:43.713Z</time></trkpt><trkpt lat="43.6635696" lon="12.3591899"><ele>561.5</ele><time>2026-04-19T12:02:44.709Z</time></trkpt><trkpt lat="43.6636503" lon="12.3592991"><ele>559.75</ele><time>2026-04-19T12:02:45.72Z</time></trkpt><trkpt lat="43.6637717" lon="12.3593846"><ele>558.0</ele><time>2026-04-19T12:02:46.708Z</time></trkpt><trkpt lat="43.6639043" lon="12.3594793"><ele>563.75</ele><time>2026-04-19T12:02:47.727Z</time></trkpt><trkpt lat="43.6640152" lon="12.3595873"><ele>569.5</ele><time>2026-04-19T12:02:48.71Z</time></trkpt><trkpt lat="43.664092" lon="12.3597237"><ele>575.25</ele><time>2026-04-19T12:02:49.708Z</time></trkpt><trkpt lat="43.6641409" lon="12.3598691"><ele>581.0</ele><time>2026-04-19T12:02:50.712Z</time></trkpt><trkpt lat="43.6641609" lon="12.360032"><ele>581.0</ele><time>2026-04-19T12:02:51.713Z</time></trkpt><trkpt lat="43.6641485" lon="12.3601881"><ele>581.0</ele><time>2026-04-19T12:02:52.706Z</time></trkpt><trkpt lat="43.6641174" lon="12.3603555"><ele>581.0</ele><time>2026-04-19T12:02:53.709Z</time></trkpt><trkpt lat="43.6640725" lon="12.3605349"><ele>581.0</ele><time>2026-04-19T12:02:54.717Z</time></trkpt><trkpt lat="43.6640361" lon="12.3606981"><ele>581.6</ele><time>2026-04-19T12:02:55.711Z</time></trkpt><trkpt lat="43.6640255" lon="12.3608144"><ele>582.2</ele><time>2026-04-19T12:02:56.718Z</time></trkpt><trkpt lat="43.6640514" lon="12.3609265"><ele>582.8</ele><time>2026-04-19T12:02:57.712Z</time></trkpt><trkpt lat="43.6641038" lon="12.3610281"><ele>583.4</ele><time>2026-04-19T12:02:58.721Z</time></trkpt><trkpt lat="43.6641854" lon="12.3611183"><ele>584.0</ele><time>2026-04-19T12:02:59.718Z</time></trkpt><trkpt lat="43.664289" lon="12.3612096"><ele>584.0</ele><time>2026-04-19T12:03:00.724Z</time></trkpt><trkpt lat="43.6644028" lon="12.3613183"><ele>584.0</ele><time>2026-04-19T12:03:01.715Z</time></trkpt><trkpt lat="43.6645215" lon="12.3614393"><ele>584.0</ele><time>2026-04-19T12:03:02.716Z</time></trkpt><trkpt lat="43.6646331" lon="12.3615735"><ele>584.0</ele><time>2026-04-19T12:03:03.715Z</time></trkpt><trkpt lat="43.6647359" lon="12.3617309"><ele>591.3333333333333</ele><time>2026-04-19T12:03:04.717Z</time></trkpt><trkpt lat="43.6648341" lon="12.3619296"><ele>598.6666666666666</ele><time>2026-04-19T12:03:05.716Z</time></trkpt><trkpt lat="43.6649154" lon="12.3621279"><ele>606.0</ele><time>2026-04-19T12:03:06.712Z</time></trkpt><trkpt lat="43.6649796" lon="12.3623016"><ele>606.0</ele><time>2026-04-19T12:03:07.716Z</time></trkpt><trkpt lat="43.6650359" lon="12.3624578"><ele>606.0</ele><time>2026-04-19T12:03:08.716Z</time></trkpt><trkpt lat="43.665075" lon="12.3625937"><ele>606.0</ele><time>2026-04-19T12:03:09.708Z</time></trkpt><trkpt lat="43.6650926" lon="12.3627323"><ele>606.0</ele><time>2026-04-19T12:03:10.718Z</time></trkpt><trkpt lat="43.6650832" lon="12.3628851"><ele>606.0</ele><time>2026-04-19T12:03:11.702Z</time></trkpt><trkpt lat="43.6650557" lon="12.3630436"><ele>607.75</ele><time>2026-04-19T12:03:12.703Z</time></trkpt><trkpt lat="43.6650191" lon="12.3631729"><ele>609.5</ele><time>2026-04-19T12:03:13.725Z</time></trkpt><trkpt lat="43.6649693" lon="12.3633088"><ele>611.25</ele><time>2026-04-19T12:03:14.71Z</time></trkpt><trkpt lat="43.6649056" lon="12.3634606"><ele>613.0</ele><time>2026-04-19T12:03:15.712Z</time></trkpt><trkpt lat="43.6648403" lon="12.3636217"><ele>613.0</ele><time>2026-04-19T12:03:16.706Z</time></trkpt><trkpt lat="43.6647659" lon="12.3637629"><ele>613.0</ele><time>2026-04-19T12:03:17.706Z</time></trkpt><trkpt lat="43.6646801" lon="12.3639038"><ele>613.0</ele><time>2026-04-19T12:03:18.712Z</time></trkpt><trkpt lat="43.6645922" lon="12.3640246"><ele>613.0</ele><time>2026-04-19T12:03:19.716Z</time></trkpt><trkpt lat="43.6645173" lon="12.3641197"><ele>611.1999999999999</ele><time>2026-04-19T12:03:20.714Z</time></trkpt><trkpt lat="43.6644645" lon="12.3641812"><ele>609.4</ele><time>2026-04-19T12:03:21.712Z</time></trkpt><trkpt lat="43.6644078" lon="12.3643096"><ele>607.5999999999999</ele><time>2026-04-19T12:03:23.708Z</time></trkpt><trkpt lat="43.6644229" lon="12.364414"><ele>605.8</ele><time>2026-04-19T12:03:25.716Z</time></trkpt><trkpt lat="43.6645661" lon="12.3643861"><ele>604.0</ele><time>2026-04-19T12:03:27.715Z</time></trkpt><trkpt lat="43.6646741" lon="12.3643376"><ele>609.0</ele><time>2026-04-19T12:03:28.711Z</time></trkpt><trkpt lat="43.6648008" lon="12.3642856"><ele>614.0</ele><time>2026-04-19T12:03:29.709Z</time></trkpt><trkpt lat="43.6649317" lon="12.3642414"><ele>619.0</ele><time>2026-04-19T12:03:30.722Z</time></trkpt><trkpt lat="43.6650783" lon="12.364212"><ele>624.0</ele><time>2026-04-19T12:03:31.71Z</time></trkpt><trkpt lat="43.6652364" lon="12.3641906"><ele>627.5</ele><time>2026-04-19T12:03:32.713Z</time></trkpt><trkpt lat="43.6654005" lon="12.3641753"><ele>631.0</ele><time>2026-04-19T12:03:33.71Z</time></trkpt><trkpt lat="43.6655366" lon="12.3641427"><ele>634.5</ele><time>2026-04-19T12:03:34.705Z</time></trkpt><trkpt lat="43.6656541" lon="12.3640794"><ele>638.0</ele><time>2026-04-19T12:03:35.712Z</time></trkpt><trkpt lat="43.665755" lon="12.3639914"><ele>638.0</ele><time>2026-04-19T12:03:36.704Z</time></trkpt><trkpt lat="43.6658774" lon="12.3639068"><ele>638.0</ele><time>2026-04-19T12:03:37.703Z</time></trkpt><trkpt lat="43.6659882" lon="12.3638307"><ele>638.0</ele><time>2026-04-19T12:03:38.704Z</time></trkpt><trkpt lat="43.6660742" lon="12.3637603"><ele>638.0</ele><time>2026-04-19T12:03:39.709Z</time></trkpt><trkpt lat="43.6661264" lon="12.3636995"><ele>638.0</ele><time>2026-04-19T12:03:40.717Z</time></trkpt><trkpt lat="43.6661587" lon="12.3635444"><ele>637.4</ele><time>2026-04-19T12:03:42.715Z</time></trkpt><trkpt lat="43.6661398" lon="12.363422"><ele>636.8</ele><time>2026-04-19T12:03:43.706Z</time></trkpt><trkpt lat="43.666116" lon="12.363277"><ele>636.2</ele><time>2026-04-19T12:03:44.729Z</time></trkpt><trkpt lat="43.6660926" lon="12.3631233"><ele>635.6</ele><time>2026-04-19T12:03:45.717Z</time></trkpt><trkpt lat="43.6660658" lon="12.3629516"><ele>635.0</ele><time>2026-04-19T12:03:46.713Z</time></trkpt><trkpt lat="43.6660431" lon="12.3628014"><ele>635.0</ele><time>2026-04-19T12:03:47.718Z</time></trkpt><trkpt lat="43.6660349" lon="12.3626826"><ele>635.0</ele><time>2026-04-19T12:03:48.718Z</time></trkpt><trkpt lat="43.6660401" lon="12.3625658"><ele>635.0</ele><time>2026-04-19T12:03:49.723Z</time></trkpt><trkpt lat="43.6660753" lon="12.3624631"><ele>635.0</ele><time>2026-04-19T12:03:50.722Z</time></trkpt><trkpt lat="43.6661404" lon="12.3623957"><ele>635.0</ele><time>2026-04-19T12:03:51.736Z</time></trkpt><trkpt lat="43.6662265" lon="12.3623664"><ele>635.0</ele><time>2026-04-19T12:03:52.712Z</time></trkpt><trkpt lat="43.6663229" lon="12.3623591"><ele>640.0</ele><time>2026-04-19T12:03:53.726Z</time></trkpt><trkpt lat="43.6664154" lon="12.3623946"><ele>645.0</ele><time>2026-04-19T12:03:54.729Z</time></trkpt><trkpt lat="43.6664956" lon="12.3624657"><ele>650.0</ele><time>2026-04-19T12:03:55.728Z</time></trkpt><trkpt lat="43.666556" lon="12.3625506"><ele>655.0</ele><time>2026-04-19T12:03:56.727Z</time></trkpt><trkpt lat="43.6665901" lon="12.3626625"><ele>660.0</ele><time>2026-04-19T12:03:57.726Z</time></trkpt><trkpt lat="43.6665963" lon="12.362799"><ele>660.0</ele><time>2026-04-19T12:03:58.725Z</time></trkpt><trkpt lat="43.666605" lon="12.3629411"><ele>660.0</ele><time>2026-04-19T12:03:59.71Z</time></trkpt><trkpt lat="43.6666194" lon="12.3630799"><ele>660.0</ele><time>2026-04-19T12:04:00.733Z</time></trkpt><trkpt lat="43.666643" lon="12.3632206"><ele>660.0</ele><time>2026-04-19T12:04:01.708Z</time></trkpt><trkpt lat="43.666673" lon="12.3633597"><ele>660.0</ele><time>2026-04-19T12:04:02.705Z</time></trkpt><trkpt lat="43.6667167" lon="12.3634959"><ele>659.4</ele><time>2026-04-19T12:04:03.708Z</time></trkpt><trkpt lat="43.6667695" lon="12.363605"><ele>658.8</ele><time>2026-04-19T12:04:04.718Z</time></trkpt><trkpt lat="43.6668393" lon="12.3636758"><ele>658.2</ele><time>2026-04-19T12:04:05.712Z</time></trkpt><trkpt lat="43.6669244" lon="12.3637475"><ele>657.6</ele><time>2026-04-19T12:04:06.706Z</time></trkpt><trkpt lat="43.6670335" lon="12.3638196"><ele>657.0</ele><time>2026-04-19T12:04:07.714Z</time></trkpt><trkpt lat="43.667154" lon="12.3639039"><ele>659.5</ele><time>2026-04-19T12:04:08.712Z</time></trkpt><trkpt lat="43.6672773" lon="12.3639936"><ele>662.0</ele><time>2026-04-19T12:04:09.711Z</time></trkpt><trkpt lat="43.6673958" lon="12.3640724"><ele>664.5</ele><time>2026-04-19T12:04:10.708Z</time></trkpt><trkpt lat="43.6675109" lon="12.3641215"><ele>667.0</ele><time>2026-04-19T12:04:11.716Z</time></trkpt><trkpt lat="43.6676091" lon="12.3641345"><ele>667.0</ele><time>2026-04-19T12:04:12.717Z</time></trkpt><trkpt lat="43.6676858" lon="12.3641061"><ele>667.0</ele><time>2026-04-19T12:04:13.725Z</time></trkpt><trkpt lat="43.667753" lon="12.3640483"><ele>667.0</ele><time>2026-04-19T12:04:14.723Z</time></trkpt><trkpt lat="43.6678218" lon="12.3639564"><ele>667.0</ele><time>2026-04-19T12:04:15.737Z</time></trkpt><trkpt lat="43.6678944" lon="12.3638366"><ele>667.0</ele><time>2026-04-19T12:04:16.709Z</time></trkpt><trkpt lat="43.6679765" lon="12.3637087"><ele>669.5</ele><time>2026-04-19T12:04:17.712Z</time></trkpt><trkpt lat="43.6680616" lon="12.3635717"><ele>672.0</ele><time>2026-04-19T12:04:18.723Z</time></trkpt><trkpt lat="43.6681605" lon="12.3634253"><ele>674.5</ele><time>2026-04-19T12:04:19.718Z</time></trkpt><trkpt lat="43.6682621" lon="12.3633071"><ele>677.0</ele><time>2026-04-19T12:04:20.713Z</time></trkpt><trkpt lat="43.6683628" lon="12.3632279"><ele>677.0</ele><time>2026-04-19T12:04:21.718Z</time></trkpt><trkpt lat="43.6684593" lon="12.3632053"><ele>677.0</ele><time>2026-04-19T12:04:22.71Z</time></trkpt><trkpt lat="43.6685708" lon="12.3632289"><ele>677.0</ele><time>2026-04-19T12:04:23.71Z</time></trkpt><trkpt lat="43.6686779" lon="12.3632577"><ele>677.0</ele><time>2026-04-19T12:04:24.706Z</time></trkpt><trkpt lat="43.6687678" lon="12.3632641"><ele>677.0</ele><time>2026-04-19T12:04:25.704Z</time></trkpt><trkpt lat="43.6688496" lon="12.3632279"><ele>677.5</ele><time>2026-04-19T12:04:26.721Z</time></trkpt><trkpt lat="43.6689197" lon="12.363141"><ele>678.0</ele><time>2026-04-19T12:04:27.714Z</time></trkpt><trkpt lat="43.6689883" lon="12.36301"><ele>678.5</ele><time>2026-04-19T12:04:28.722Z</time></trkpt><trkpt lat="43.6690666" lon="12.3628459"><ele>679.0</ele><time>2026-04-19T12:04:29.722Z</time></trkpt><trkpt lat="43.669153" lon="12.362678"><ele>679.0</ele><time>2026-04-19T12:04:30.732Z</time></trkpt><trkpt lat="43.6692486" lon="12.3625316"><ele>679.0</ele><time>2026-04-19T12:04:31.718Z</time></trkpt><trkpt lat="43.6693439" lon="12.3624148"><ele>679.0</ele><time>2026-04-19T12:04:32.714Z</time></trkpt><trkpt lat="43.6694442" lon="12.362333"><ele>679.0</ele><time>2026-04-19T12:04:33.722Z</time></trkpt><trkpt lat="43.6695435" lon="12.3622706"><ele>679.75</ele><time>2026-04-19T12:04:34.726Z</time></trkpt><trkpt lat="43.6696555" lon="12.3622177"><ele>680.5</ele><time>2026-04-19T12:04:35.72Z</time></trkpt><trkpt lat="43.66978" lon="12.3621508"><ele>681.25</ele><time>2026-04-19T12:04:36.72Z</time></trkpt><trkpt lat="43.6699306" lon="12.3620823"><ele>682.0</ele><time>2026-04-19T12:04:37.715Z</time></trkpt><trkpt lat="43.6700708" lon="12.3620317"><ele>682.75</ele><time>2026-04-19T12:04:38.722Z</time></trkpt><trkpt lat="43.6701961" lon="12.3619892"><ele>683.5</ele><time>2026-04-19T12:04:39.723Z</time></trkpt><trkpt lat="43.6703177" lon="12.3619379"><ele>684.25</ele><time>2026-04-19T12:04:40.718Z</time></trkpt><trkpt lat="43.6704353" lon="12.361873"><ele>685.0</ele><time>2026-04-19T12:04:41.722Z</time></trkpt><trkpt lat="43.6705406" lon="12.3617926"><ele>685.5</ele><time>2026-04-19T12:04:42.707Z</time></trkpt><trkpt lat="43.670648" lon="12.361704"><ele>686.0</ele><time>2026-04-19T12:04:43.708Z</time></trkpt><trkpt lat="43.6707644" lon="12.3616029"><ele>686.5</ele><time>2026-04-19T12:04:44.709Z</time></trkpt><trkpt lat="43.6708775" lon="12.3615232"><ele>687.0</ele><time>2026-04-19T12:04:45.708Z</time></trkpt><trkpt lat="43.6709866" lon="12.3614696"><ele>687.0</ele><time>2026-04-19T12:04:46.724Z</time></trkpt><trkpt lat="43.6710968" lon="12.361443"><ele>687.0</ele><time>2026-04-19T12:04:47.712Z</time></trkpt><trkpt lat="43.6711911" lon="12.3614437"><ele>687.0</ele><time>2026-04-19T12:04:48.706Z</time></trkpt><trkpt lat="43.6712672" lon="12.3614481"><ele>687.0</ele><time>2026-04-19T12:04:49.709Z</time></trkpt><trkpt lat="43.6713309" lon="12.36145"><ele>687.0</ele><time>2026-04-19T12:04:50.706Z</time></trkpt><trkpt lat="43.6714544" lon="12.3614184"><ele>687.25</ele><time>2026-04-19T12:04:52.707Z</time></trkpt><trkpt lat="43.6715465" lon="12.3613929"><ele>687.5</ele><time>2026-04-19T12:04:53.71Z</time></trkpt><trkpt lat="43.6716609" lon="12.3613729"><ele>687.75</ele><time>2026-04-19T12:04:54.707Z</time></trkpt><trkpt lat="43.6717891" lon="12.3613439"><ele>688.0</ele><time>2026-04-19T12:04:55.712Z</time></trkpt><trkpt lat="43.6719151" lon="12.3613074"><ele>690.5999999999999</ele><time>2026-04-19T12:04:56.71Z</time></trkpt><trkpt lat="43.6720339" lon="12.361264"><ele>693.1999999999999</ele><time>2026-04-19T12:04:57.712Z</time></trkpt><trkpt lat="43.6721349" lon="12.361224"><ele>695.8</ele><time>2026-04-19T12:04:58.721Z</time></trkpt><trkpt lat="43.6722056" lon="12.3611908"><ele>698.4</ele><time>2026-04-19T12:04:59.711Z</time></trkpt><trkpt lat="43.6722991" lon="12.3611428"><ele>701.0</ele><time>2026-04-19T12:05:01.704Z</time></trkpt><trkpt lat="43.6723762" lon="12.3611325"><ele>701.0</ele><time>2026-04-19T12:05:16.733Z</time></trkpt><trkpt lat="43.6724428" lon="12.3611366"><ele>701.0</ele><time>2026-04-19T12:05:17.748Z</time></trkpt><trkpt lat="43.6725164" lon="12.3611518"><ele>701.0</ele><time>2026-04-19T12:05:18.716Z</time></trkpt><trkpt lat="43.6725918" lon="12.3611639"><ele>701.0</ele><time>2026-04-19T12:05:19.716Z</time></trkpt><trkpt lat="43.6726771" lon="12.3611891"><ele>701.0</ele><time>2026-04-19T12:05:20.711Z</time></trkpt><trkpt lat="43.6727695" lon="12.3612222"><ele>701.0</ele><time>2026-04-19T12:05:21.707Z</time></trkpt><trkpt lat="43.6728634" lon="12.36126"><ele>700.0</ele><time>2026-04-19T12:05:22.706Z</time></trkpt><trkpt lat="43.6729616" lon="12.3613072"><ele>699.0</ele><time>2026-04-19T12:05:23.709Z</time></trkpt><trkpt lat="43.6730609" lon="12.3613609"><ele>698.0</ele><time>2026-04-19T12:05:24.708Z</time></trkpt><trkpt lat="43.6731574" lon="12.3614242"><ele>697.0</ele><time>2026-04-19T12:05:25.693Z</time></trkpt><trkpt lat="43.6732434" lon="12.3615074"><ele>696.0</ele><time>2026-04-19T12:05:26.707Z</time></trkpt><trkpt lat="43.6733313" lon="12.3615941"><ele>696.0</ele><time>2026-04-19T12:05:27.704Z</time></trkpt><trkpt lat="43.6734159" lon="12.3616886"><ele>696.0</ele><time>2026-04-19T12:05:28.697Z</time></trkpt><trkpt lat="43.6734924" lon="12.3617807"><ele>696.0</ele><time>2026-04-19T12:05:29.703Z</time></trkpt><trkpt lat="43.6735625" lon="12.3618755"><ele>696.0</ele><time>2026-04-19T12:05:30.712Z</time></trkpt><trkpt lat="43.6736192" lon="12.3619759"><ele>696.0</ele><time>2026-04-19T12:05:31.704Z</time></trkpt><trkpt lat="43.6736695" lon="12.3620954"><ele>697.0</ele><time>2026-04-19T12:05:32.698Z</time></trkpt><trkpt lat="43.6737155" lon="12.3622326"><ele>698.0</ele><time>2026-04-19T12:05:33.698Z</time></trkpt><trkpt lat="43.6737597" lon="12.3623858"><ele>699.0</ele><time>2026-04-19T12:05:34.702Z</time></trkpt><trkpt lat="43.6738182" lon="12.3625348"><ele>700.0</ele><time>2026-04-19T12:05:35.7Z</time></trkpt><trkpt lat="43.6738798" lon="12.3626678"><ele>700.0</ele><time>2026-04-19T12:05:36.699Z</time></trkpt><trkpt lat="43.6739309" lon="12.3627947"><ele>700.0</ele><time>2026-04-19T12:05:37.702Z</time></trkpt><trkpt lat="43.6739799" lon="12.362904"><ele>700.0</ele><time>2026-04-19T12:05:38.7Z</time></trkpt><trkpt lat="43.6740256" lon="12.3629898"><ele>700.0</ele><time>2026-04-19T12:05:39.717Z</time></trkpt><trkpt lat="43.6741138" lon="12.3630621"><ele>700.0</ele><time>2026-04-19T12:05:41.714Z</time></trkpt><trkpt lat="43.6742176" lon="12.3630338"><ele>700.0</ele><time>2026-04-19T12:05:43.715Z</time></trkpt><trkpt lat="43.6742799" lon="12.3629694"><ele>700.0</ele><time>2026-04-19T12:05:44.714Z</time></trkpt><trkpt lat="43.6743431" lon="12.3628776"><ele>700.0</ele><time>2026-04-19T12:05:45.709Z</time></trkpt><trkpt lat="43.6744076" lon="12.3627743"><ele>700.0</ele><time>2026-04-19T12:05:46.709Z</time></trkpt><trkpt lat="43.6744617" lon="12.3626716"><ele>700.0</ele><time>2026-04-19T12:05:47.714Z</time></trkpt><trkpt lat="43.6744991" lon="12.3625486"><ele>697.0</ele><time>2026-04-19T12:05:48.731Z</time></trkpt><trkpt lat="43.6745303" lon="12.3623882"><ele>694.0</ele><time>2026-04-19T12:05:49.704Z</time></trkpt><trkpt lat="43.6745732" lon="12.3622058"><ele>691.0</ele><time>2026-04-19T12:05:50.709Z</time></trkpt><trkpt lat="43.6746168" lon="12.3620189"><ele>688.0</ele><time>2026-04-19T12:05:51.702Z</time></trkpt><trkpt lat="43.6746642" lon="12.3618234"><ele>688.0</ele><time>2026-04-19T12:05:52.705Z</time></trkpt><trkpt lat="43.6747149" lon="12.3616128"><ele>688.0</ele><time>2026-04-19T12:05:53.706Z</time></trkpt><trkpt lat="43.6747537" lon="12.3614136"><ele>688.0</ele><time>2026-04-19T12:05:54.703Z</time></trkpt><trkpt lat="43.6747756" lon="12.3612381"><ele>688.0</ele><time>2026-04-19T12:05:55.707Z</time></trkpt><trkpt lat="43.6748015" lon="12.3610727"><ele>689.4</ele><time>2026-04-19T12:05:56.706Z</time></trkpt><trkpt lat="43.6748327" lon="12.3609036"><ele>690.8</ele><time>2026-04-19T12:05:57.707Z</time></trkpt><trkpt lat="43.674866" lon="12.3607485"><ele>692.2</ele><time>2026-04-19T12:05:58.7Z</time></trkpt><trkpt lat="43.6748907" lon="12.3606088"><ele>693.6</ele><time>2026-04-19T12:05:59.704Z</time></trkpt><trkpt lat="43.6749154" lon="12.3604778"><ele>695.0</ele><time>2026-04-19T12:06:00.711Z</time></trkpt><trkpt lat="43.6749458" lon="12.3603516"><ele>697.6</ele><time>2026-04-19T12:06:01.703Z</time></trkpt><trkpt lat="43.6749824" lon="12.3602413"><ele>700.2</ele><time>2026-04-19T12:06:02.704Z</time></trkpt><trkpt lat="43.6750238" lon="12.3601178"><ele>702.8</ele><time>2026-04-19T12:06:03.709Z</time></trkpt><trkpt lat="43.6750592" lon="12.3599663"><ele>705.4</ele><time>2026-04-19T12:06:04.707Z</time></trkpt><trkpt lat="43.6750912" lon="12.3598148"><ele>708.0</ele><time>2026-04-19T12:06:05.697Z</time></trkpt><trkpt lat="43.6751325" lon="12.3596818"><ele>708.0</ele><time>2026-04-19T12:06:06.707Z</time></trkpt><trkpt lat="43.6751908" lon="12.3595709"><ele>708.0</ele><time>2026-04-19T12:06:07.708Z</time></trkpt><trkpt lat="43.6752622" lon="12.3594815"><ele>708.0</ele><time>2026-04-19T12:06:08.704Z</time></trkpt><trkpt lat="43.6753246" lon="12.3594053"><ele>708.0</ele><time>2026-04-19T12:06:09.695Z</time></trkpt><trkpt lat="43.6753858" lon="12.3593453"><ele>708.0</ele><time>2026-04-19T12:06:10.696Z</time></trkpt><trkpt lat="43.6754587" lon="12.3592976"><ele>708.0</ele><time>2026-04-19T12:06:11.697Z</time></trkpt><trkpt lat="43.6755587" lon="12.3592478"><ele>708.0</ele><time>2026-04-19T12:06:12.696Z</time></trkpt><trkpt lat="43.6756697" lon="12.359192"><ele>708.0</ele><time>2026-04-19T12:06:13.689Z</time></trkpt><trkpt lat="43.675785" lon="12.3591395"><ele>708.0</ele><time>2026-04-19T12:06:14.692Z</time></trkpt><trkpt lat="43.6759047" lon="12.3590928"><ele>708.0</ele><time>2026-04-19T12:06:15.693Z</time></trkpt><trkpt lat="43.6760305" lon="12.3590442"><ele>706.8333333333334</ele><time>2026-04-19T12:06:16.7Z</time></trkpt><trkpt lat="43.6761373" lon="12.3589819"><ele>705.6666666666666</ele><time>2026-04-19T12:06:17.704Z</time></trkpt><trkpt lat="43.6762291" lon="12.3589241"><ele>704.5</ele><time>2026-04-19T12:06:18.697Z</time></trkpt><trkpt lat="43.6763053" lon="12.3588816"><ele>703.3333333333333</ele><time>2026-04-19T12:06:19.723Z</time></trkpt><trkpt lat="43.6763697" lon="12.3588661"><ele>702.1666666666666</ele><time>2026-04-19T12:06:20.705Z</time></trkpt><trkpt lat="43.6764455" lon="12.3588768"><ele>701.0</ele><time>2026-04-19T12:06:21.703Z</time></trkpt><trkpt lat="43.6765211" lon="12.3589207"><ele>701.0</ele><time>2026-04-19T12:06:22.699Z</time></trkpt><trkpt lat="43.6765825" lon="12.3589518"><ele>701.0</ele><time>2026-04-19T12:06:23.707Z</time></trkpt><trkpt lat="43.6766475" lon="12.3589646"><ele>701.0</ele><time>2026-04-19T12:06:24.708Z</time></trkpt><trkpt lat="43.6767247" lon="12.3589556"><ele>701.0</ele><time>2026-04-19T12:06:25.713Z</time></trkpt><trkpt lat="43.6768124" lon="12.3589458"><ele>701.0</ele><time>2026-04-19T12:06:26.708Z</time></trkpt><trkpt lat="43.6769107" lon="12.3589406"><ele>701.0</ele><time>2026-04-19T12:06:27.714Z</time></trkpt><trkpt lat="43.6770088" lon="12.358944"><ele>700.0</ele><time>2026-04-19T12:06:28.709Z</time></trkpt><trkpt lat="43.6770997" lon="12.3589499"><ele>699.0</ele><time>2026-04-19T12:06:29.715Z</time></trkpt><trkpt lat="43.6771817" lon="12.3589568"><ele>698.0</ele><time>2026-04-19T12:06:30.722Z</time></trkpt><trkpt lat="43.6772602" lon="12.358958"><ele>697.0</ele><time>2026-04-19T12:06:31.707Z</time></trkpt><trkpt lat="43.6773338" lon="12.3589453"><ele>696.0</ele><time>2026-04-19T12:06:32.714Z</time></trkpt><trkpt lat="43.677401" lon="12.3589067"><ele>695.0</ele><time>2026-04-19T12:06:33.706Z</time></trkpt><trkpt lat="43.6774738" lon="12.3588429"><ele>695.0</ele><time>2026-04-19T12:06:34.706Z</time></trkpt><trkpt lat="43.6775485" lon="12.3587641"><ele>695.0</ele><time>2026-04-19T12:06:35.705Z</time></trkpt><trkpt lat="43.6776278" lon="12.3586719"><ele>695.0</ele><time>2026-04-19T12:06:36.706Z</time></trkpt><trkpt lat="43.677712" lon="12.3585639"><ele>695.0</ele><time>2026-04-19T12:06:37.709Z</time></trkpt><trkpt lat="43.6777988" lon="12.358428"><ele>695.0</ele><time>2026-04-19T12:06:38.709Z</time></trkpt><trkpt lat="43.6778954" lon="12.3582735"><ele>695.0</ele><time>2026-04-19T12:06:39.706Z</time></trkpt><trkpt lat="43.6779895" lon="12.3581337"><ele>695.0</ele><time>2026-04-19T12:06:40.709Z</time></trkpt><trkpt lat="43.6780771" lon="12.3580107"><ele>695.0</ele><time>2026-04-19T12:06:41.709Z</time></trkpt><trkpt lat="43.6781634" lon="12.3578978"><ele>695.0</ele><time>2026-04-19T12:06:42.712Z</time></trkpt><trkpt lat="43.6782491" lon="12.3577988"><ele>697.75</ele><time>2026-04-19T12:06:43.711Z</time></trkpt><trkpt lat="43.6783343" lon="12.3576922"><ele>700.5</ele><time>2026-04-19T12:06:44.713Z</time></trkpt><trkpt lat="43.6784086" lon="12.3575677"><ele>703.25</ele><time>2026-04-19T12:06:45.71Z</time></trkpt><trkpt lat="43.6784722" lon="12.3574367"><ele>706.0</ele><time>2026-04-19T12:06:46.709Z</time></trkpt><trkpt lat="43.6785192" lon="12.3573028"><ele>705.6666666666667</ele><time>2026-04-19T12:06:47.714Z</time></trkpt><trkpt lat="43.6785583" lon="12.3571768"><ele>705.3333333333334</ele><time>2026-04-19T12:06:48.708Z</time></trkpt><trkpt lat="43.6785852" lon="12.3570507"><ele>705.0</ele><time>2026-04-19T12:06:49.71Z</time></trkpt><trkpt lat="43.6785983" lon="12.3569216"><ele>704.6666666666666</ele><time>2026-04-19T12:06:50.728Z</time></trkpt><trkpt lat="43.6786192" lon="12.3568182"><ele>704.3333333333333</ele><time>2026-04-19T12:06:51.706Z</time></trkpt><trkpt lat="43.678661" lon="12.3567224"><ele>704.0</ele><time>2026-04-19T12:06:52.709Z</time></trkpt><trkpt lat="43.6787364" lon="12.3566578"><ele>704.0</ele><time>2026-04-19T12:06:53.709Z</time></trkpt><trkpt lat="43.6788417" lon="12.3566292"><ele>704.0</ele><time>2026-04-19T12:06:54.701Z</time></trkpt><trkpt lat="43.6789753" lon="12.3566239"><ele>704.0</ele><time>2026-04-19T12:06:55.695Z</time></trkpt><trkpt lat="43.6791302" lon="12.3566169"><ele>704.0</ele><time>2026-04-19T12:06:56.7Z</time></trkpt><trkpt lat="43.6792604" lon="12.3566066"><ele>704.0</ele><time>2026-04-19T12:06:57.699Z</time></trkpt><trkpt lat="43.6793848" lon="12.3565844"><ele>704.0</ele><time>2026-04-19T12:06:58.697Z</time></trkpt><trkpt lat="43.6795008" lon="12.3565578"><ele>704.0</ele><time>2026-04-19T12:06:59.701Z</time></trkpt><trkpt lat="43.6796055" lon="12.3565327"><ele>704.0</ele><time>2026-04-19T12:07:00.708Z</time></trkpt><trkpt lat="43.6797112" lon="12.3565168"><ele>703.3333333333333</ele><time>2026-04-19T12:07:01.699Z</time></trkpt><trkpt lat="43.6798082" lon="12.3565198"><ele>702.6666666666666</ele><time>2026-04-19T12:07:02.698Z</time></trkpt><trkpt lat="43.6799003" lon="12.3565353"><ele>702.0</ele><time>2026-04-19T12:07:03.698Z</time></trkpt><trkpt lat="43.6799863" lon="12.356559"><ele>701.3333333333334</ele><time>2026-04-19T12:07:04.691Z</time></trkpt><trkpt lat="43.6800684" lon="12.3565816"><ele>700.6666666666667</ele><time>2026-04-19T12:07:05.692Z</time></trkpt><trkpt lat="43.6801511" lon="12.3566196"><ele>700.0</ele><time>2026-04-19T12:07:06.687Z</time></trkpt><trkpt lat="43.6802232" lon="12.356666"><ele>700.0</ele><time>2026-04-19T12:07:07.689Z</time></trkpt><trkpt lat="43.6802635" lon="12.3567559"><ele>700.0</ele><time>2026-04-19T12:07:09.69Z</time></trkpt><trkpt lat="43.6801869" lon="12.3568307"><ele>700.0</ele><time>2026-04-19T12:07:17.699Z</time></trkpt><trkpt lat="43.6801148" lon="12.3568458"><ele>700.0</ele><time>2026-04-19T12:07:19.699Z</time></trkpt><trkpt lat="43.6800284" lon="12.3568719"><ele>700.0</ele><time>2026-04-19T12:07:21.72Z</time></trkpt><trkpt lat="43.6799287" lon="12.3568978"><ele>700.0</ele><time>2026-04-19T12:07:23.7Z</time></trkpt><trkpt lat="43.6798256" lon="12.3568963"><ele>700.0</ele><time>2026-04-19T12:07:25.696Z</time></trkpt><trkpt lat="43.6797709" lon="12.3569858"><ele>700.0</ele><time>2026-04-19T12:07:27.717Z</time></trkpt><trkpt lat="43.6798431" lon="12.3570881"><ele>700.0</ele><time>2026-04-19T12:07:29.72Z</time></trkpt><trkpt lat="43.6799723" lon="12.3570858"><ele>700.0</ele><time>2026-04-19T12:07:31.705Z</time></trkpt><trkpt lat="43.6800582" lon="12.3570763"><ele>700.0</ele><time>2026-04-19T12:07:32.705Z</time></trkpt><trkpt lat="43.6801568" lon="12.3570785"><ele>700.0</ele><time>2026-04-19T12:07:33.708Z</time></trkpt><trkpt lat="43.680262" lon="12.3571071"><ele>700.0</ele><time>2026-04-19T12:07:34.709Z</time></trkpt><trkpt lat="43.6803725" lon="12.3571535"><ele>700.0</ele><time>2026-04-19T12:07:35.707Z</time></trkpt><trkpt lat="43.6804804" lon="12.3572186"><ele>700.0</ele><time>2026-04-19T12:07:36.705Z</time></trkpt><trkpt lat="43.6805827" lon="12.3573012"><ele>696.5</ele><time>2026-04-19T12:07:37.703Z</time></trkpt><trkpt lat="43.6806888" lon="12.3573936"><ele>693.0</ele><time>2026-04-19T12:07:38.7Z</time></trkpt><trkpt lat="43.6808001" lon="12.3574915"><ele>689.5</ele><time>2026-04-19T12:07:39.708Z</time></trkpt><trkpt lat="43.680922" lon="12.3575908"><ele>686.0</ele><time>2026-04-19T12:07:40.699Z</time></trkpt><trkpt lat="43.6810384" lon="12.3576837"><ele>683.8</ele><time>2026-04-19T12:07:41.702Z</time></trkpt><trkpt lat="43.6811476" lon="12.3577559"><ele>681.5999999999999</ele><time>2026-04-19T12:07:42.706Z</time></trkpt><trkpt lat="43.6812483" lon="12.3577974"><ele>679.4</ele><time>2026-04-19T12:07:43.708Z</time></trkpt><trkpt lat="43.6813276" lon="12.3578163"><ele>677.2</ele><time>2026-04-19T12:07:44.71Z</time></trkpt><trkpt lat="43.6814368" lon="12.3577324"><ele>675.0</ele><time>2026-04-19T12:07:46.714Z</time></trkpt><trkpt lat="43.6814848" lon="12.3576536"><ele>675.0</ele><time>2026-04-19T12:07:47.706Z</time></trkpt><trkpt lat="43.6815461" lon="12.3575655"><ele>675.0</ele><time>2026-04-19T12:07:48.708Z</time></trkpt><trkpt lat="43.6816" lon="12.3574695"><ele>675.0</ele><time>2026-04-19T12:07:49.705Z</time></trkpt><trkpt lat="43.6816625" lon="12.3573748"><ele>675.0</ele><time>2026-04-19T12:07:50.709Z</time></trkpt><trkpt lat="43.6817326" lon="12.3572749"><ele>675.0</ele><time>2026-04-19T12:07:51.71Z</time></trkpt><trkpt lat="43.6817972" lon="12.3571755"><ele>677.2</ele><time>2026-04-19T12:07:52.722Z</time></trkpt><trkpt lat="43.6818562" lon="12.3570659"><ele>679.4</ele><time>2026-04-19T12:07:53.703Z</time></trkpt><trkpt lat="43.6819041" lon="12.3569575"><ele>681.5999999999999</ele><time>2026-04-19T12:07:54.702Z</time></trkpt><trkpt lat="43.6819357" lon="12.3568485"><ele>683.8</ele><time>2026-04-19T12:07:55.699Z</time></trkpt><trkpt lat="43.6819753" lon="12.3567626"><ele>686.0</ele><time>2026-04-19T12:07:56.704Z</time></trkpt><trkpt lat="43.6820703" lon="12.3566488"><ele>679.6666666666666</ele><time>2026-04-19T12:07:58.702Z</time></trkpt><trkpt lat="43.6821433" lon="12.35653"><ele>673.3333333333333</ele><time>2026-04-19T12:08:00.708Z</time></trkpt><trkpt lat="43.6821858" lon="12.3564344"><ele>667.0</ele><time>2026-04-19T12:08:02.707Z</time></trkpt><trkpt lat="43.6822577" lon="12.3564971"><ele>660.6666666666666</ele><time>2026-04-19T12:08:04.722Z</time></trkpt><trkpt lat="43.6822827" lon="12.3565933"><ele>654.3333333333334</ele><time>2026-04-19T12:08:05.701Z</time></trkpt><trkpt lat="43.6822926" lon="12.3566919"><ele>648.0</ele><time>2026-04-19T12:08:06.703Z</time></trkpt><trkpt lat="43.6822777" lon="12.3567938"><ele>648.0</ele><time>2026-04-19T12:08:07.703Z</time></trkpt><trkpt lat="43.6822495" lon="12.3568997"><ele>648.0</ele><time>2026-04-19T12:08:08.709Z</time></trkpt><trkpt lat="43.6822246" lon="12.3570065"><ele>648.0</ele><time>2026-04-19T12:08:09.703Z</time></trkpt><trkpt lat="43.682201" lon="12.3571147"><ele>648.0</ele><time>2026-04-19T12:08:10.705Z</time></trkpt><trkpt lat="43.6821764" lon="12.3572156"><ele>648.0</ele><time>2026-04-19T12:08:11.701Z</time></trkpt><trkpt lat="43.6821593" lon="12.3573158"><ele>648.0</ele><time>2026-04-19T12:08:12.701Z</time></trkpt><trkpt lat="43.6821468" lon="12.3574192"><ele>647.0</ele><time>2026-04-19T12:08:13.7Z</time></trkpt><trkpt lat="43.6821429" lon="12.3575222"><ele>646.0</ele><time>2026-04-19T12:08:14.7Z</time></trkpt><trkpt lat="43.6821416" lon="12.3576253"><ele>645.0</ele><time>2026-04-19T12:08:15.704Z</time></trkpt><trkpt lat="43.6821362" lon="12.3577403"><ele>644.0</ele><time>2026-04-19T12:08:16.7Z</time></trkpt><trkpt lat="43.682133" lon="12.3578712"><ele>643.0</ele><time>2026-04-19T12:08:17.702Z</time></trkpt><trkpt lat="43.68213" lon="12.3580103"><ele>642.0</ele><time>2026-04-19T12:08:18.706Z</time></trkpt><trkpt lat="43.6821222" lon="12.3581497"><ele>640.0</ele><time>2026-04-19T12:08:19.702Z</time></trkpt><trkpt lat="43.6821065" lon="12.3582791"><ele>638.0</ele><time>2026-04-19T12:08:20.703Z</time></trkpt><trkpt lat="43.6820866" lon="12.3583825"><ele>636.0</ele><time>2026-04-19T12:08:21.705Z</time></trkpt><trkpt lat="43.682065" lon="12.3584754"><ele>634.0</ele><time>2026-04-19T12:08:22.702Z</time></trkpt><trkpt lat="43.6820593" lon="12.3585704"><ele>632.0</ele><time>2026-04-19T12:08:23.73Z</time></trkpt><trkpt lat="43.6820805" lon="12.3586829"><ele>630.0</ele><time>2026-04-19T12:08:24.698Z</time></trkpt><trkpt lat="43.6821247" lon="12.3588117"><ele>629.3333333333334</ele><time>2026-04-19T12:08:25.711Z</time></trkpt><trkpt lat="43.6821546" lon="12.3589301"><ele>628.6666666666666</ele><time>2026-04-19T12:08:26.706Z</time></trkpt><trkpt lat="43.682158" lon="12.3590508"><ele>628.0</ele><time>2026-04-19T12:08:27.704Z</time></trkpt><trkpt lat="43.6821457" lon="12.3591697"><ele>627.3333333333333</ele><time>2026-04-19T12:08:28.707Z</time></trkpt><trkpt lat="43.6821298" lon="12.3592756"><ele>626.6666666666666</ele><time>2026-04-19T12:08:29.709Z</time></trkpt><trkpt lat="43.6821263" lon="12.3593778"><ele>626.0</ele><time>2026-04-19T12:08:30.717Z</time></trkpt><trkpt lat="43.6821456" lon="12.3594752"><ele>626.0</ele><time>2026-04-19T12:08:31.71Z</time></trkpt><trkpt lat="43.6821929" lon="12.3595728"><ele>626.0</ele><time>2026-04-19T12:08:32.714Z</time></trkpt><trkpt lat="43.6822705" lon="12.359671"><ele>626.0</ele><time>2026-04-19T12:08:33.708Z</time></trkpt><trkpt lat="43.6823545" lon="12.3597697"><ele>626.0</ele><time>2026-04-19T12:08:34.712Z</time></trkpt><trkpt lat="43.6824382" lon="12.3598776"><ele>626.0</ele><time>2026-04-19T12:08:35.708Z</time></trkpt><trkpt lat="43.6825228" lon="12.3599814"><ele>626.0</ele><time>2026-04-19T12:08:36.701Z</time></trkpt><trkpt lat="43.6826067" lon="12.3600656"><ele>626.0</ele><time>2026-04-19T12:08:37.707Z</time></trkpt><trkpt lat="43.6826779" lon="12.3601409"><ele>626.0</ele><time>2026-04-19T12:08:38.707Z</time></trkpt><trkpt lat="43.6827352" lon="12.3602188"><ele>626.0</ele><time>2026-04-19T12:08:39.713Z</time></trkpt><trkpt lat="43.6827806" lon="12.3603081"><ele>626.0</ele><time>2026-04-19T12:08:40.714Z</time></trkpt><trkpt lat="43.68281" lon="12.3604189"><ele>626.0</ele><time>2026-04-19T12:08:41.714Z</time></trkpt><trkpt lat="43.6828354" lon="12.3605518"><ele>622.6</ele><time>2026-04-19T12:08:42.712Z</time></trkpt><trkpt lat="43.6828514" lon="12.360694"><ele>619.2</ele><time>2026-04-19T12:08:43.709Z</time></trkpt><trkpt lat="43.6828593" lon="12.3608367"><ele>615.8</ele><time>2026-04-19T12:08:44.71Z</time></trkpt><trkpt lat="43.6828532" lon="12.3609901"><ele>612.4</ele><time>2026-04-19T12:08:45.709Z</time></trkpt><trkpt lat="43.6828337" lon="12.3611384"><ele>609.0</ele><time>2026-04-19T12:08:46.709Z</time></trkpt><trkpt lat="43.6828023" lon="12.3612851"><ele>610.3333333333334</ele><time>2026-04-19T12:08:47.705Z</time></trkpt><trkpt lat="43.6827571" lon="12.3614283"><ele>611.6666666666666</ele><time>2026-04-19T12:08:48.706Z</time></trkpt><trkpt lat="43.6827103" lon="12.3615457"><ele>613.0</ele><time>2026-04-19T12:08:49.704Z</time></trkpt><trkpt lat="43.6826573" lon="12.3616439"><ele>614.3333333333333</ele><time>2026-04-19T12:08:50.705Z</time></trkpt><trkpt lat="43.6826243" lon="12.3617357"><ele>615.6666666666666</ele><time>2026-04-19T12:08:51.698Z</time></trkpt><trkpt lat="43.6826179" lon="12.3618319"><ele>617.0</ele><time>2026-04-19T12:08:52.706Z</time></trkpt><trkpt lat="43.6826422" lon="12.3619571"><ele>617.0</ele><time>2026-04-19T12:08:53.707Z</time></trkpt><trkpt lat="43.6826893" lon="12.3620906"><ele>617.0</ele><time>2026-04-19T12:08:54.726Z</time></trkpt><trkpt lat="43.6827556" lon="12.3621987"><ele>617.0</ele><time>2026-04-19T12:08:55.716Z</time></trkpt><trkpt lat="43.6828301" lon="12.3622889"><ele>617.0</ele><time>2026-04-19T12:08:56.713Z</time></trkpt><trkpt lat="43.6829014" lon="12.3623593"><ele>617.0</ele><time>2026-04-19T12:08:57.717Z</time></trkpt><trkpt lat="43.6829975" lon="12.3624138"><ele>615.6666666666666</ele><time>2026-04-19T12:08:58.707Z</time></trkpt><trkpt lat="43.6830971" lon="12.3624472"><ele>614.3333333333333</ele><time>2026-04-19T12:08:59.712Z</time></trkpt><trkpt lat="43.6831879" lon="12.3624683"><ele>613.0</ele><time>2026-04-19T12:09:00.72Z</time></trkpt><trkpt lat="43.6832707" lon="12.3625173"><ele>611.6666666666666</ele><time>2026-04-19T12:09:01.71Z</time></trkpt><trkpt lat="43.6833384" lon="12.3625947"><ele>610.3333333333334</ele><time>2026-04-19T12:09:02.702Z</time></trkpt><trkpt lat="43.6833858" lon="12.3626765"><ele>609.0</ele><time>2026-04-19T12:09:03.703Z</time></trkpt><trkpt lat="43.6834212" lon="12.3627661"><ele>609.0</ele><time>2026-04-19T12:09:04.702Z</time></trkpt><trkpt lat="43.6834578" lon="12.362852"><ele>609.0</ele><time>2026-04-19T12:09:05.7Z</time></trkpt><trkpt lat="43.683494" lon="12.3629269"><ele>609.0</ele><time>2026-04-19T12:09:06.707Z</time></trkpt><trkpt lat="43.6835748" lon="12.3630586"><ele>609.0</ele><time>2026-04-19T12:09:08.701Z</time></trkpt><trkpt lat="43.6836274" lon="12.3631088"><ele>609.0</ele><time>2026-04-19T12:09:09.701Z</time></trkpt><trkpt lat="43.6836928" lon="12.3631493"><ele>609.0</ele><time>2026-04-19T12:09:10.71Z</time></trkpt><trkpt lat="43.683768" lon="12.3631768"><ele>608.1666666666666</ele><time>2026-04-19T12:09:11.708Z</time></trkpt><trkpt lat="43.6838588" lon="12.3632077"><ele>607.3333333333334</ele><time>2026-04-19T12:09:12.71Z</time></trkpt><trkpt lat="43.6839514" lon="12.3632372"><ele>606.5</ele><time>2026-04-19T12:09:13.708Z</time></trkpt><trkpt lat="43.6840331" lon="12.3632734"><ele>605.6666666666667</ele><time>2026-04-19T12:09:14.703Z</time></trkpt><trkpt lat="43.6840954" lon="12.3633286"><ele>604.8333333333334</ele><time>2026-04-19T12:09:15.709Z</time></trkpt><trkpt lat="43.6841436" lon="12.3634194"><ele>604.0</ele><time>2026-04-19T12:09:16.706Z</time></trkpt><trkpt lat="43.6841734" lon="12.3635249"><ele>604.0</ele><time>2026-04-19T12:09:17.708Z</time></trkpt><trkpt lat="43.6841843" lon="12.3636387"><ele>604.0</ele><time>2026-04-19T12:09:18.705Z</time></trkpt><trkpt lat="43.6841936" lon="12.3637757"><ele>604.0</ele><time>2026-04-19T12:09:19.703Z</time></trkpt><trkpt lat="43.6842106" lon="12.3639454"><ele>604.0</ele><time>2026-04-19T12:09:20.704Z</time></trkpt><trkpt lat="43.6842349" lon="12.3641142"><ele>604.0</ele><time>2026-04-19T12:09:21.703Z</time></trkpt><trkpt lat="43.6842555" lon="12.3642659"><ele>604.2</ele><time>2026-04-19T12:09:22.702Z</time></trkpt><trkpt lat="43.6842846" lon="12.3644031"><ele>604.4</ele><time>2026-04-19T12:09:23.703Z</time></trkpt><trkpt lat="43.6843277" lon="12.3645337"><ele>604.6</ele><time>2026-04-19T12:09:24.703Z</time></trkpt><trkpt lat="43.6843777" lon="12.3646752"><ele>604.8</ele><time>2026-04-19T12:09:25.723Z</time></trkpt><trkpt lat="43.6844292" lon="12.3648217"><ele>605.0</ele><time>2026-04-19T12:09:26.705Z</time></trkpt><trkpt lat="43.6844695" lon="12.3649649"><ele>607.2</ele><time>2026-04-19T12:09:27.709Z</time></trkpt><trkpt lat="43.6844945" lon="12.3651007"><ele>609.4</ele><time>2026-04-19T12:09:28.699Z</time></trkpt><trkpt lat="43.6845095" lon="12.3652403"><ele>611.6</ele><time>2026-04-19T12:09:29.704Z</time></trkpt><trkpt lat="43.6845344" lon="12.3653669"><ele>613.8</ele><time>2026-04-19T12:09:30.709Z</time></trkpt><trkpt lat="43.6845719" lon="12.3654956"><ele>616.0</ele><time>2026-04-19T12:09:31.704Z</time></trkpt><trkpt lat="43.6846141" lon="12.3656142"><ele>616.0</ele><time>2026-04-19T12:09:32.701Z</time></trkpt><trkpt lat="43.6846683" lon="12.3657297"><ele>616.0</ele><time>2026-04-19T12:09:33.693Z</time></trkpt><trkpt lat="43.684731" lon="12.3658472"><ele>616.0</ele><time>2026-04-19T12:09:34.696Z</time></trkpt><trkpt lat="43.6848022" lon="12.3659527"><ele>616.0</ele><time>2026-04-19T12:09:35.706Z</time></trkpt><trkpt lat="43.6848962" lon="12.3660434"><ele>616.0</ele><time>2026-04-19T12:09:36.702Z</time></trkpt><trkpt lat="43.6849918" lon="12.3661098"><ele>616.0</ele><time>2026-04-19T12:09:37.701Z</time></trkpt><trkpt lat="43.6851006" lon="12.3661648"><ele>616.0</ele><time>2026-04-19T12:09:38.702Z</time></trkpt><trkpt lat="43.6852372" lon="12.3661972"><ele>616.0</ele><time>2026-04-19T12:09:39.701Z</time></trkpt><trkpt lat="43.6853853" lon="12.3662232"><ele>616.0</ele><time>2026-04-19T12:09:40.704Z</time></trkpt><trkpt lat="43.6855092" lon="12.3662681"><ele>615.0</ele><time>2026-04-19T12:09:41.711Z</time></trkpt><trkpt lat="43.6856089" lon="12.3663268"><ele>614.0</ele><time>2026-04-19T12:09:42.702Z</time></trkpt><trkpt lat="43.6856958" lon="12.366384"><ele>613.0</ele><time>2026-04-19T12:09:43.715Z</time></trkpt><trkpt lat="43.685792" lon="12.3664363"><ele>612.0</ele><time>2026-04-19T12:09:44.715Z</time></trkpt><trkpt lat="43.685904" lon="12.3664929"><ele>611.0</ele><time>2026-04-19T12:09:45.707Z</time></trkpt><trkpt lat="43.6860061" lon="12.3665509"><ele>610.2</ele><time>2026-04-19T12:09:46.706Z</time></trkpt><trkpt lat="43.6861007" lon="12.3666124"><ele>609.4000000000001</ele><time>2026-04-19T12:09:47.714Z</time></trkpt><trkpt lat="43.686175" lon="12.3666957"><ele>608.6</ele><time>2026-04-19T12:09:48.709Z</time></trkpt><trkpt lat="43.6862184" lon="12.366802"><ele>607.8000000000001</ele><time>2026-04-19T12:09:49.715Z</time></trkpt><trkpt lat="43.6862451" lon="12.3669373"><ele>607.0</ele><time>2026-04-19T12:09:50.712Z</time></trkpt><trkpt lat="43.6862589" lon="12.3670986"><ele>608.75</ele><time>2026-04-19T12:09:51.705Z</time></trkpt><trkpt lat="43.6862796" lon="12.3672763"><ele>610.5</ele><time>2026-04-19T12:09:52.709Z</time></trkpt><trkpt lat="43.6863179" lon="12.3674551"><ele>612.25</ele><time>2026-04-19T12:09:53.706Z</time></trkpt><trkpt lat="43.6863663" lon="12.367625"><ele>614.0</ele><time>2026-04-19T12:09:54.729Z</time></trkpt><trkpt lat="43.6864303" lon="12.36778"><ele>614.0</ele><time>2026-04-19T12:09:55.703Z</time></trkpt><trkpt lat="43.6864996" lon="12.3679259"><ele>614.0</ele><time>2026-04-19T12:09:56.755Z</time></trkpt><trkpt lat="43.6865834" lon="12.3680653"><ele>614.0</ele><time>2026-04-19T12:09:57.712Z</time></trkpt><trkpt lat="43.6866697" lon="12.3682173"><ele>614.0</ele><time>2026-04-19T12:09:58.706Z</time></trkpt><trkpt lat="43.6867514" lon="12.3683599"><ele>613.2</ele><time>2026-04-19T12:09:59.713Z</time></trkpt><trkpt lat="43.6868372" lon="12.3684972"><ele>612.4</ele><time>2026-04-19T12:10:00.716Z</time></trkpt><trkpt lat="43.6869203" lon="12.3686242"><ele>611.6</ele><time>2026-04-19T12:10:01.701Z</time></trkpt><trkpt lat="43.6869944" lon="12.3687297"><ele>610.8</ele><time>2026-04-19T12:10:02.714Z</time></trkpt><trkpt lat="43.6870628" lon="12.3687988"><ele>610.0</ele><time>2026-04-19T12:10:03.703Z</time></trkpt><trkpt lat="43.6871427" lon="12.3688416"><ele>608.6666666666667</ele><time>2026-04-19T12:10:04.708Z</time></trkpt><trkpt lat="43.6872272" lon="12.3688595"><ele>607.3333333333334</ele><time>2026-04-19T12:10:05.711Z</time></trkpt><trkpt lat="43.6873194" lon="12.3688601"><ele>606.0</ele><time>2026-04-19T12:10:06.704Z</time></trkpt><trkpt lat="43.6874067" lon="12.3688644"><ele>604.6666666666666</ele><time>2026-04-19T12:10:07.717Z</time></trkpt><trkpt lat="43.687482" lon="12.3688875"><ele>603.3333333333333</ele><time>2026-04-19T12:10:08.714Z</time></trkpt><trkpt lat="43.6875571" lon="12.3689441"><ele>602.0</ele><time>2026-04-19T12:10:09.704Z</time></trkpt><trkpt lat="43.6876361" lon="12.369028"><ele>602.0</ele><time>2026-04-19T12:10:10.707Z</time></trkpt><trkpt lat="43.6877287" lon="12.3691143"><ele>602.0</ele><time>2026-04-19T12:10:11.709Z</time></trkpt><trkpt lat="43.6878358" lon="12.3691785"><ele>602.0</ele><time>2026-04-19T12:10:12.712Z</time></trkpt><trkpt lat="43.687955" lon="12.3692385"><ele>602.0</ele><time>2026-04-19T12:10:13.706Z</time></trkpt><trkpt lat="43.6880746" lon="12.3693004"><ele>600.0</ele><time>2026-04-19T12:10:14.704Z</time></trkpt><trkpt lat="43.6881923" lon="12.3693762"><ele>598.0</ele><time>2026-04-19T12:10:15.709Z</time></trkpt><trkpt lat="43.6883048" lon="12.3694724"><ele>596.0</ele><time>2026-04-19T12:10:16.713Z</time></trkpt><trkpt lat="43.6883982" lon="12.3696096"><ele>594.0</ele><time>2026-04-19T12:10:17.712Z</time></trkpt><trkpt lat="43.6885043" lon="12.3697614"><ele>593.8</ele><time>2026-04-19T12:10:18.71Z</time></trkpt><trkpt lat="43.6886092" lon="12.3699017"><ele>593.5999999999999</ele><time>2026-04-19T12:10:19.709Z</time></trkpt><trkpt lat="43.6886619" lon="12.3700284"><ele>593.4</ele><time>2026-04-19T12:10:20.707Z</time></trkpt><trkpt lat="43.6886956" lon="12.370145"><ele>593.1999999999999</ele><time>2026-04-19T12:10:21.708Z</time></trkpt><trkpt lat="43.6887132" lon="12.370289"><ele>593.0</ele><time>2026-04-19T12:10:22.706Z</time></trkpt><trkpt lat="43.6887303" lon="12.3704602"><ele>593.4</ele><time>2026-04-19T12:10:23.701Z</time></trkpt><trkpt lat="43.6887425" lon="12.3706336"><ele>593.8</ele><time>2026-04-19T12:10:24.698Z</time></trkpt><trkpt lat="43.6887449" lon="12.3707973"><ele>594.2</ele><time>2026-04-19T12:10:25.691Z</time></trkpt><trkpt lat="43.6887512" lon="12.3709317"><ele>594.6</ele><time>2026-04-19T12:10:26.716Z</time></trkpt><trkpt lat="43.6887545" lon="12.3710481"><ele>595.0</ele><time>2026-04-19T12:10:27.698Z</time></trkpt><trkpt lat="43.6887548" lon="12.3711568"><ele>595.0</ele><time>2026-04-19T12:10:28.703Z</time></trkpt><trkpt lat="43.6887513" lon="12.3712717"><ele>595.0</ele><time>2026-04-19T12:10:29.699Z</time></trkpt><trkpt lat="43.6887462" lon="12.3713874"><ele>595.0</ele><time>2026-04-19T12:10:30.713Z</time></trkpt><trkpt lat="43.6887332" lon="12.3715013"><ele>595.0</ele><time>2026-04-19T12:10:31.702Z</time></trkpt><trkpt lat="43.6887023" lon="12.3716158"><ele>595.0</ele><time>2026-04-19T12:10:32.695Z</time></trkpt><trkpt lat="43.6886684" lon="12.3717361"><ele>595.0</ele><time>2026-04-19T12:10:33.695Z</time></trkpt><trkpt lat="43.6886259" lon="12.3718427"><ele>593.5</ele><time>2026-04-19T12:10:34.7Z</time></trkpt><trkpt lat="43.6885864" lon="12.3719427"><ele>592.0</ele><time>2026-04-19T12:10:35.704Z</time></trkpt><trkpt lat="43.688575" lon="12.3720583"><ele>590.5</ele><time>2026-04-19T12:10:36.71Z</time></trkpt><trkpt lat="43.6885788" lon="12.3721747"><ele>589.0</ele><time>2026-04-19T12:10:37.701Z</time></trkpt><trkpt lat="43.6886003" lon="12.3722851"><ele>587.5</ele><time>2026-04-19T12:10:38.705Z</time></trkpt><trkpt lat="43.6886546" lon="12.3723976"><ele>586.0</ele><time>2026-04-19T12:10:39.703Z</time></trkpt><trkpt lat="43.6887234" lon="12.3725029"><ele>586.0</ele><time>2026-04-19T12:10:40.701Z</time></trkpt><trkpt lat="43.6887988" lon="12.3726028"><ele>586.0</ele><time>2026-04-19T12:10:41.703Z</time></trkpt><trkpt lat="43.6888634" lon="12.3727134"><ele>586.0</ele><time>2026-04-19T12:10:42.703Z</time></trkpt><trkpt lat="43.6889218" lon="12.3728298"><ele>586.0</ele><time>2026-04-19T12:10:43.698Z</time></trkpt><trkpt lat="43.6889808" lon="12.3729506"><ele>586.0</ele><time>2026-04-19T12:10:44.701Z</time></trkpt><trkpt lat="43.6890405" lon="12.373064"><ele>583.2</ele><time>2026-04-19T12:10:45.706Z</time></trkpt><trkpt lat="43.6891032" lon="12.3731785"><ele>580.4000000000001</ele><time>2026-04-19T12:10:46.704Z</time></trkpt><trkpt lat="43.689151" lon="12.3732916"><ele>577.6</ele><time>2026-04-19T12:10:47.709Z</time></trkpt><trkpt lat="43.6891839" lon="12.3734139"><ele>574.8000000000001</ele><time>2026-04-19T12:10:48.71Z</time></trkpt><trkpt lat="43.6891987" lon="12.3735335"><ele>572.0</ele><time>2026-04-19T12:10:49.716Z</time></trkpt><trkpt lat="43.6891907" lon="12.3736333"><ele>572.0</ele><time>2026-04-19T12:10:50.714Z</time></trkpt><trkpt lat="43.6891882" lon="12.3737407"><ele>572.0</ele><time>2026-04-19T12:10:51.708Z</time></trkpt><trkpt lat="43.689194" lon="12.3738468"><ele>572.0</ele><time>2026-04-19T12:10:52.701Z</time></trkpt><trkpt lat="43.6891974" lon="12.3739623"><ele>572.0</ele><time>2026-04-19T12:10:53.709Z</time></trkpt><trkpt lat="43.6892136" lon="12.3740875"><ele>572.0</ele><time>2026-04-19T12:10:54.71Z</time></trkpt><trkpt lat="43.6892541" lon="12.3742551"><ele>572.0</ele><time>2026-04-19T12:10:55.716Z</time></trkpt><trkpt lat="43.6893141" lon="12.3744438"><ele>572.0</ele><time>2026-04-19T12:10:56.709Z</time></trkpt><trkpt lat="43.689366" lon="12.3746233"><ele>572.0</ele><time>2026-04-19T12:10:57.73Z</time></trkpt><trkpt lat="43.6894042" lon="12.3747893"><ele>572.0</ele><time>2026-04-19T12:10:58.708Z</time></trkpt><trkpt lat="43.6894495" lon="12.374951"><ele>570.5</ele><time>2026-04-19T12:10:59.71Z</time></trkpt><trkpt lat="43.6894928" lon="12.3751308"><ele>569.0</ele><time>2026-04-19T12:11:00.723Z</time></trkpt><trkpt lat="43.6895433" lon="12.375337"><ele>567.5</ele><time>2026-04-19T12:11:01.709Z</time></trkpt><trkpt lat="43.6895917" lon="12.3755303"><ele>566.0</ele><time>2026-04-19T12:11:02.706Z</time></trkpt><trkpt lat="43.6896396" lon="12.3757029"><ele>566.0</ele><time>2026-04-19T12:11:03.708Z</time></trkpt><trkpt lat="43.6896807" lon="12.3758774"><ele>566.0</ele><time>2026-04-19T12:11:04.705Z</time></trkpt><trkpt lat="43.6897159" lon="12.3760614"><ele>566.0</ele><time>2026-04-19T12:11:05.7Z</time></trkpt><trkpt lat="43.6897385" lon="12.3762558"><ele>566.0</ele><time>2026-04-19T12:11:06.707Z</time></trkpt><trkpt lat="43.689771" lon="12.3764564"><ele>568.0</ele><time>2026-04-19T12:11:07.702Z</time></trkpt><trkpt lat="43.6898073" lon="12.376617"><ele>570.0</ele><time>2026-04-19T12:11:08.704Z</time></trkpt><trkpt lat="43.6898631" lon="12.3767908"><ele>572.0</ele><time>2026-04-19T12:11:09.708Z</time></trkpt><trkpt lat="43.689921" lon="12.3769645"><ele>574.0</ele><time>2026-04-19T12:11:10.706Z</time></trkpt><trkpt lat="43.6900157" lon="12.3771325"><ele>573.75</ele><time>2026-04-19T12:11:11.697Z</time></trkpt><trkpt lat="43.6901242" lon="12.3772822"><ele>573.5</ele><time>2026-04-19T12:11:12.693Z</time></trkpt><trkpt lat="43.6902056" lon="12.3774272"><ele>573.25</ele><time>2026-04-19T12:11:13.704Z</time></trkpt><trkpt lat="43.6902795" lon="12.3775814"><ele>573.0</ele><time>2026-04-19T12:11:14.705Z</time></trkpt><trkpt lat="43.6903366" lon="12.3777459"><ele>572.5</ele><time>2026-04-19T12:11:15.703Z</time></trkpt><trkpt lat="43.690394" lon="12.3779171"><ele>572.0</ele><time>2026-04-19T12:11:16.702Z</time></trkpt><trkpt lat="43.6904562" lon="12.3780898"><ele>571.5</ele><time>2026-04-19T12:11:17.697Z</time></trkpt><trkpt lat="43.6905163" lon="12.3782622"><ele>571.0</ele><time>2026-04-19T12:11:18.71Z</time></trkpt><trkpt lat="43.6905818" lon="12.3784409"><ele>569.5</ele><time>2026-04-19T12:11:19.711Z</time></trkpt><trkpt lat="43.6906476" lon="12.3786285"><ele>568.0</ele><time>2026-04-19T12:11:20.709Z</time></trkpt><trkpt lat="43.690718" lon="12.3788155"><ele>566.5</ele><time>2026-04-19T12:11:21.711Z</time></trkpt><trkpt lat="43.6907846" lon="12.3789923"><ele>565.0</ele><time>2026-04-19T12:11:22.711Z</time></trkpt><trkpt lat="43.6908606" lon="12.3791703"><ele>561.0</ele><time>2026-04-19T12:11:23.712Z</time></trkpt><trkpt lat="43.6909436" lon="12.3793462"><ele>557.0</ele><time>2026-04-19T12:11:24.71Z</time></trkpt><trkpt lat="43.6910265" lon="12.3795356"><ele>553.0</ele><time>2026-04-19T12:11:25.717Z</time></trkpt><trkpt lat="43.6910973" lon="12.3797423"><ele>548.3333333333334</ele><time>2026-04-19T12:11:26.708Z</time></trkpt><trkpt lat="43.6911721" lon="12.3799538"><ele>543.6666666666666</ele><time>2026-04-19T12:11:27.708Z</time></trkpt><trkpt lat="43.6912564" lon="12.3801687"><ele>539.0</ele><time>2026-04-19T12:11:28.729Z</time></trkpt><trkpt lat="43.6913446" lon="12.3803791"><ele>544.3333333333333</ele><time>2026-04-19T12:11:29.713Z</time></trkpt><trkpt lat="43.6914243" lon="12.3805804"><ele>549.6666666666666</ele><time>2026-04-19T12:11:30.724Z</time></trkpt><trkpt lat="43.6915092" lon="12.3807789"><ele>555.0</ele><time>2026-04-19T12:11:31.712Z</time></trkpt><trkpt lat="43.6915856" lon="12.3809783"><ele>555.0</ele><time>2026-04-19T12:11:32.708Z</time></trkpt><trkpt lat="43.6916574" lon="12.3811878"><ele>555.0</ele><time>2026-04-19T12:11:33.708Z</time></trkpt><trkpt lat="43.6917233" lon="12.3813833"><ele>555.0</ele><time>2026-04-19T12:11:34.706Z</time></trkpt><trkpt lat="43.6917861" lon="12.381577"><ele>558.5</ele><time>2026-04-19T12:11:35.707Z</time></trkpt><trkpt lat="43.691833" lon="12.3817663"><ele>562.0</ele><time>2026-04-19T12:11:36.704Z</time></trkpt><trkpt lat="43.6918756" lon="12.3819512"><ele>565.5</ele><time>2026-04-19T12:11:37.712Z</time></trkpt><trkpt lat="43.6919079" lon="12.382122"><ele>569.0</ele><time>2026-04-19T12:11:38.712Z</time></trkpt><trkpt lat="43.6919531" lon="12.3822823"><ele>571.5</ele><time>2026-04-19T12:11:39.704Z</time></trkpt><trkpt lat="43.6920041" lon="12.3824311"><ele>574.0</ele><time>2026-04-19T12:11:40.702Z</time></trkpt><trkpt lat="43.6920747" lon="12.3825523"><ele>576.5</ele><time>2026-04-19T12:11:41.705Z</time></trkpt><trkpt lat="43.6921689" lon="12.3826631"><ele>579.0</ele><time>2026-04-19T12:11:42.703Z</time></trkpt><trkpt lat="43.6922872" lon="12.3828024"><ele>579.0</ele><time>2026-04-19T12:11:43.714Z</time></trkpt><trkpt lat="43.6923986" lon="12.3829153"><ele>579.0</ele><time>2026-04-19T12:11:44.712Z</time></trkpt><trkpt lat="43.6924663" lon="12.3829744"><ele>579.0</ele><time>2026-04-19T12:11:45.71Z</time></trkpt><trkpt lat="43.6925257" lon="12.3830217"><ele>579.0</ele><time>2026-04-19T12:11:46.704Z</time></trkpt><trkpt lat="43.6925979" lon="12.3830738"><ele>579.0</ele><time>2026-04-19T12:11:47.703Z</time></trkpt><trkpt lat="43.6926778" lon="12.3831195"><ele>576.75</ele><time>2026-04-19T12:11:48.705Z</time></trkpt><trkpt lat="43.6927737" lon="12.383161"><ele>574.5</ele><time>2026-04-19T12:11:49.705Z</time></trkpt><trkpt lat="43.6928879" lon="12.3832011"><ele>572.25</ele><time>2026-04-19T12:11:50.705Z</time></trkpt><trkpt lat="43.6930177" lon="12.3832309"><ele>570.0</ele><time>2026-04-19T12:11:51.709Z</time></trkpt><trkpt lat="43.6931531" lon="12.3832695"><ele>570.0</ele><time>2026-04-19T12:11:52.705Z</time></trkpt><trkpt lat="43.6932892" lon="12.3833126"><ele>570.0</ele><time>2026-04-19T12:11:53.711Z</time></trkpt><trkpt lat="43.6933976" lon="12.3833901"><ele>570.0</ele><time>2026-04-19T12:11:54.71Z</time></trkpt><trkpt lat="43.6934865" lon="12.3834951"><ele>570.0</ele><time>2026-04-19T12:11:55.711Z</time></trkpt><trkpt lat="43.6935717" lon="12.3836451"><ele>567.25</ele><time>2026-04-19T12:11:56.707Z</time></trkpt><trkpt lat="43.6936483" lon="12.383804"><ele>564.5</ele><time>2026-04-19T12:11:57.71Z</time></trkpt><trkpt lat="43.6937305" lon="12.3839403"><ele>561.75</ele><time>2026-04-19T12:11:58.707Z</time></trkpt><trkpt lat="43.6938368" lon="12.3840604"><ele>559.0</ele><time>2026-04-19T12:11:59.735Z</time></trkpt><trkpt lat="43.6939642" lon="12.3841593"><ele>559.0</ele><time>2026-04-19T12:12:00.72Z</time></trkpt><trkpt lat="43.6941201" lon="12.3842308"><ele>559.0</ele><time>2026-04-19T12:12:01.703Z</time></trkpt><trkpt lat="43.6942992" lon="12.3843253"><ele>559.0</ele><time>2026-04-19T12:12:02.71Z</time></trkpt><trkpt lat="43.6944697" lon="12.3844209"><ele>557.6666666666667</ele><time>2026-04-19T12:12:03.711Z</time></trkpt><trkpt lat="43.6946313" lon="12.3844988"><ele>556.3333333333334</ele><time>2026-04-19T12:12:04.714Z</time></trkpt><trkpt lat="43.6947775" lon="12.3845631"><ele>555.0</ele><time>2026-04-19T12:12:05.712Z</time></trkpt><trkpt lat="43.6949435" lon="12.3846394"><ele>555.0</ele><time>2026-04-19T12:12:06.704Z</time></trkpt><trkpt lat="43.6951158" lon="12.3847132"><ele>555.0</ele><time>2026-04-19T12:12:07.705Z</time></trkpt><trkpt lat="43.6953064" lon="12.3847947"><ele>555.0</ele><time>2026-04-19T12:12:08.711Z</time></trkpt><trkpt lat="43.695498" lon="12.3848852"><ele>555.6666666666666</ele><time>2026-04-19T12:12:09.71Z</time></trkpt><trkpt lat="43.69568" lon="12.3849867"><ele>556.3333333333333</ele><time>2026-04-19T12:12:10.713Z</time></trkpt><trkpt lat="43.6958486" lon="12.3850619"><ele>557.0</ele><time>2026-04-19T12:12:11.709Z</time></trkpt><trkpt lat="43.6960042" lon="12.3851301"><ele>557.0</ele><time>2026-04-19T12:12:12.711Z</time></trkpt><trkpt lat="43.6961274" lon="12.385193"><ele>557.0</ele><time>2026-04-19T12:12:13.712Z</time></trkpt><trkpt lat="43.6962289" lon="12.3852575"><ele>557.0</ele><time>2026-04-19T12:12:14.709Z</time></trkpt><trkpt lat="43.6963077" lon="12.38533"><ele>557.0</ele><time>2026-04-19T12:12:15.711Z</time></trkpt><trkpt lat="43.6963627" lon="12.3854283"><ele>557.0</ele><time>2026-04-19T12:12:16.71Z</time></trkpt><trkpt lat="43.696404" lon="12.3855701"><ele>557.0</ele><time>2026-04-19T12:12:17.71Z</time></trkpt><trkpt lat="43.6964385" lon="12.3857394"><ele>557.0</ele><time>2026-04-19T12:12:18.706Z</time></trkpt><trkpt lat="43.6964816" lon="12.3859335"><ele>557.0</ele><time>2026-04-19T12:12:19.706Z</time></trkpt><trkpt lat="43.6965488" lon="12.3861409"><ele>557.0</ele><time>2026-04-19T12:12:20.708Z</time></trkpt><trkpt lat="43.6966284" lon="12.3863431"><ele>558.5</ele><time>2026-04-19T12:12:21.708Z</time></trkpt><trkpt lat="43.6967079" lon="12.3865252"><ele>560.0</ele><time>2026-04-19T12:12:22.704Z</time></trkpt><trkpt lat="43.6967598" lon="12.386687"><ele>561.5</ele><time>2026-04-19T12:12:23.709Z</time></trkpt><trkpt lat="43.6968148" lon="12.3868518"><ele>563.0</ele><time>2026-04-19T12:12:24.711Z</time></trkpt><trkpt lat="43.6968575" lon="12.3870358"><ele>562.0</ele><time>2026-04-19T12:12:25.714Z</time></trkpt><trkpt lat="43.6968967" lon="12.3872523"><ele>561.0</ele><time>2026-04-19T12:12:26.715Z</time></trkpt><trkpt lat="43.6969398" lon="12.3874939"><ele>560.0</ele><time>2026-04-19T12:12:27.724Z</time></trkpt><trkpt lat="43.6969904" lon="12.3877506"><ele>561.0</ele><time>2026-04-19T12:12:28.712Z</time></trkpt><trkpt lat="43.6970462" lon="12.387999"><ele>562.0</ele><time>2026-04-19T12:12:29.711Z</time></trkpt><trkpt lat="43.6970947" lon="12.388238"><ele>563.0</ele><time>2026-04-19T12:12:30.744Z</time></trkpt><trkpt lat="43.6971385" lon="12.3884406"><ele>563.0</ele><time>2026-04-19T12:12:31.711Z</time></trkpt><trkpt lat="43.6971901" lon="12.3886237"><ele>563.0</ele><time>2026-04-19T12:12:32.704Z</time></trkpt><trkpt lat="43.6972365" lon="12.38881"><ele>563.0</ele><time>2026-04-19T12:12:33.71Z</time></trkpt><trkpt lat="43.6972991" lon="12.3889965"><ele>563.0</ele><time>2026-04-19T12:12:34.702Z</time></trkpt><trkpt lat="43.6973759" lon="12.3891897"><ele>566.0</ele><time>2026-04-19T12:12:35.704Z</time></trkpt><trkpt lat="43.6974637" lon="12.3894016"><ele>569.0</ele><time>2026-04-19T12:12:36.695Z</time></trkpt><trkpt lat="43.6975462" lon="12.3895855"><ele>572.0</ele><time>2026-04-19T12:12:37.703Z</time></trkpt><trkpt lat="43.6976167" lon="12.3897248"><ele>572.0</ele><time>2026-04-19T12:12:38.702Z</time></trkpt><trkpt lat="43.6976809" lon="12.3898499"><ele>572.0</ele><time>2026-04-19T12:12:39.702Z</time></trkpt><trkpt lat="43.6977329" lon="12.3899723"><ele>572.0</ele><time>2026-04-19T12:12:40.7Z</time></trkpt><trkpt lat="43.6977729" lon="12.3901131"><ele>572.0</ele><time>2026-04-19T12:12:41.699Z</time></trkpt><trkpt lat="43.6977916" lon="12.3902635"><ele>572.0</ele><time>2026-04-19T12:12:42.698Z</time></trkpt><trkpt lat="43.6977886" lon="12.3904025"><ele>571.6</ele><time>2026-04-19T12:12:43.702Z</time></trkpt><trkpt lat="43.6977549" lon="12.3905281"><ele>571.2</ele><time>2026-04-19T12:12:44.699Z</time></trkpt><trkpt lat="43.6976982" lon="12.3906416"><ele>570.8</ele><time>2026-04-19T12:12:45.701Z</time></trkpt><trkpt lat="43.6976331" lon="12.390734"><ele>570.4</ele><time>2026-04-19T12:12:46.695Z</time></trkpt><trkpt lat="43.6975713" lon="12.3908086"><ele>570.0</ele><time>2026-04-19T12:12:47.698Z</time></trkpt><trkpt lat="43.6975199" lon="12.3908894"><ele>570.0</ele><time>2026-04-19T12:12:48.697Z</time></trkpt><trkpt lat="43.697497" lon="12.3909821"><ele>570.0</ele><time>2026-04-19T12:12:49.691Z</time></trkpt><trkpt lat="43.6975099" lon="12.3910932"><ele>570.0</ele><time>2026-04-19T12:12:50.706Z</time></trkpt><trkpt lat="43.6975512" lon="12.3912151"><ele>570.0</ele><time>2026-04-19T12:12:51.7Z</time></trkpt><trkpt lat="43.6976046" lon="12.3913403"><ele>570.0</ele><time>2026-04-19T12:12:52.702Z</time></trkpt><trkpt lat="43.6976473" lon="12.3914849"><ele>568.4</ele><time>2026-04-19T12:12:53.693Z</time></trkpt><trkpt lat="43.6976762" lon="12.3916379"><ele>566.8</ele><time>2026-04-19T12:12:54.694Z</time></trkpt><trkpt lat="43.6976924" lon="12.3917814"><ele>565.2</ele><time>2026-04-19T12:12:55.689Z</time></trkpt><trkpt lat="43.6976968" lon="12.3919107"><ele>563.6</ele><time>2026-04-19T12:12:56.687Z</time></trkpt><trkpt lat="43.6976972" lon="12.3920319"><ele>562.0</ele><time>2026-04-19T12:12:57.69Z</time></trkpt><trkpt lat="43.6976935" lon="12.3921391"><ele>560.3333333333334</ele><time>2026-04-19T12:12:58.686Z</time></trkpt><trkpt lat="43.6976857" lon="12.3922383"><ele>558.6666666666667</ele><time>2026-04-19T12:12:59.696Z</time></trkpt><trkpt lat="43.6976678" lon="12.3923345"><ele>557.0</ele><time>2026-04-19T12:13:00.71Z</time></trkpt><trkpt lat="43.6976418" lon="12.3924171"><ele>555.3333333333334</ele><time>2026-04-19T12:13:01.712Z</time></trkpt><trkpt lat="43.6976183" lon="12.3924982"><ele>553.6666666666666</ele><time>2026-04-19T12:13:02.698Z</time></trkpt><trkpt lat="43.6975872" lon="12.3926371"><ele>552.0</ele><time>2026-04-19T12:13:04.704Z</time></trkpt><trkpt lat="43.697606" lon="12.3927728"><ele>552.0</ele><time>2026-04-19T12:13:06.701Z</time></trkpt><trkpt lat="43.6976877" lon="12.3928941"><ele>552.0</ele><time>2026-04-19T12:13:08.7Z</time></trkpt><trkpt lat="43.6977538" lon="12.3929533"><ele>552.0</ele><time>2026-04-19T12:13:09.709Z</time></trkpt><trkpt lat="43.6978388" lon="12.3930282"><ele>552.0</ele><time>2026-04-19T12:13:10.701Z</time></trkpt><trkpt lat="43.6979211" lon="12.3931123"><ele>552.0</ele><time>2026-04-19T12:13:11.7Z</time></trkpt><trkpt lat="43.6979937" lon="12.3932196"><ele>551.0</ele><time>2026-04-19T12:13:12.698Z</time></trkpt><trkpt lat="43.6980628" lon="12.3933331"><ele>550.0</ele><time>2026-04-19T12:13:13.695Z</time></trkpt><trkpt lat="43.6981298" lon="12.3934548"><ele>549.0</ele><time>2026-04-19T12:13:14.693Z</time></trkpt><trkpt lat="43.6981986" lon="12.3935861"><ele>548.0</ele><time>2026-04-19T12:13:15.703Z</time></trkpt><trkpt lat="43.6982662" lon="12.39371"><ele>547.0</ele><time>2026-04-19T12:13:16.703Z</time></trkpt><trkpt lat="43.6983218" lon="12.3938155"><ele>544.6</ele><time>2026-04-19T12:13:17.708Z</time></trkpt><trkpt lat="43.6983678" lon="12.3938905"><ele>542.2</ele><time>2026-04-19T12:13:18.702Z</time></trkpt><trkpt lat="43.6984569" lon="12.393934"><ele>539.8</ele><time>2026-04-19T12:13:20.709Z</time></trkpt><trkpt lat="43.6985306" lon="12.3939218"><ele>537.4</ele><time>2026-04-19T12:13:21.707Z</time></trkpt><trkpt lat="43.6986334" lon="12.3938884"><ele>535.0</ele><time>2026-04-19T12:13:22.7Z</time></trkpt><trkpt lat="43.6987551" lon="12.3938467"><ele>535.0</ele><time>2026-04-19T12:13:23.704Z</time></trkpt><trkpt lat="43.698885" lon="12.3938251"><ele>535.0</ele><time>2026-04-19T12:13:24.703Z</time></trkpt><trkpt lat="43.6990196" lon="12.3938439"><ele>535.0</ele><time>2026-04-19T12:13:25.699Z</time></trkpt><trkpt lat="43.6991396" lon="12.3938734"><ele>535.0</ele><time>2026-04-19T12:13:26.692Z</time></trkpt><trkpt lat="43.6992535" lon="12.3939169"><ele>535.0</ele><time>2026-04-19T12:13:27.694Z</time></trkpt><trkpt lat="43.6993552" lon="12.3939669"><ele>535.0</ele><time>2026-04-19T12:13:28.694Z</time></trkpt><trkpt lat="43.6994486" lon="12.3940184"><ele>535.0</ele><time>2026-04-19T12:13:29.699Z</time></trkpt><trkpt lat="43.6995433" lon="12.394079"><ele>535.0</ele><time>2026-04-19T12:13:30.708Z</time></trkpt><trkpt lat="43.6996441" lon="12.3941601"><ele>535.0</ele><time>2026-04-19T12:13:31.698Z</time></trkpt><trkpt lat="43.6997375" lon="12.3942777"><ele>532.5</ele><time>2026-04-19T12:13:32.723Z</time></trkpt><trkpt lat="43.69983" lon="12.3944204"><ele>530.0</ele><time>2026-04-19T12:13:33.697Z</time></trkpt><trkpt lat="43.6999359" lon="12.3945684"><ele>527.5</ele><time>2026-04-19T12:13:34.707Z</time></trkpt><trkpt lat="43.7000528" lon="12.3947162"><ele>525.0</ele><time>2026-04-19T12:13:35.709Z</time></trkpt><trkpt lat="43.7001846" lon="12.394821"><ele>523.5</ele><time>2026-04-19T12:13:36.704Z</time></trkpt><trkpt lat="43.7003215" lon="12.3948954"><ele>522.0</ele><time>2026-04-19T12:13:37.706Z</time></trkpt><trkpt lat="43.7004535" lon="12.3949576"><ele>520.5</ele><time>2026-04-19T12:13:38.705Z</time></trkpt><trkpt lat="43.700571" lon="12.3949887"><ele>519.0</ele><time>2026-04-19T12:13:39.708Z</time></trkpt><trkpt lat="43.7006687" lon="12.3949815"><ele>519.0</ele><time>2026-04-19T12:13:40.713Z</time></trkpt><trkpt lat="43.7007562" lon="12.3949335"><ele>519.0</ele><time>2026-04-19T12:13:41.712Z</time></trkpt><trkpt lat="43.7008293" lon="12.3948544"><ele>519.0</ele><time>2026-04-19T12:13:42.71Z</time></trkpt><trkpt lat="43.700904" lon="12.3947164"><ele>519.0</ele><time>2026-04-19T12:13:43.7Z</time></trkpt><trkpt lat="43.7009836" lon="12.3945603"><ele>517.75</ele><time>2026-04-19T12:13:44.712Z</time></trkpt><trkpt lat="43.701053" lon="12.3943934"><ele>516.5</ele><time>2026-04-19T12:13:45.706Z</time></trkpt><trkpt lat="43.7011195" lon="12.3942237"><ele>515.25</ele><time>2026-04-19T12:13:46.707Z</time></trkpt><trkpt lat="43.7011708" lon="12.3940443"><ele>514.0</ele><time>2026-04-19T12:13:47.71Z</time></trkpt><trkpt lat="43.7012046" lon="12.3938301"><ele>514.0</ele><time>2026-04-19T12:13:48.714Z</time></trkpt><trkpt lat="43.7012262" lon="12.393588"><ele>514.0</ele><time>2026-04-19T12:13:49.709Z</time></trkpt><trkpt lat="43.7012331" lon="12.3933457"><ele>514.0</ele><time>2026-04-19T12:13:50.708Z</time></trkpt><trkpt lat="43.7012148" lon="12.3931087"><ele>512.25</ele><time>2026-04-19T12:13:51.708Z</time></trkpt><trkpt lat="43.7011956" lon="12.3929138"><ele>510.5</ele><time>2026-04-19T12:13:52.711Z</time></trkpt><trkpt lat="43.7011811" lon="12.3927346"><ele>508.75</ele><time>2026-04-19T12:13:53.719Z</time></trkpt><trkpt lat="43.7011514" lon="12.3925555"><ele>507.0</ele><time>2026-04-19T12:13:54.719Z</time></trkpt><trkpt lat="43.7011119" lon="12.3923702"><ele>508.75</ele><time>2026-04-19T12:13:55.709Z</time></trkpt><trkpt lat="43.701071" lon="12.3921831"><ele>510.5</ele><time>2026-04-19T12:13:56.712Z</time></trkpt><trkpt lat="43.701" lon="12.392027"><ele>512.25</ele><time>2026-04-19T12:13:57.718Z</time></trkpt><trkpt lat="43.7008931" lon="12.3918953"><ele>514.0</ele><time>2026-04-19T12:13:58.713Z</time></trkpt><trkpt lat="43.7007715" lon="12.3917887"><ele>514.0</ele><time>2026-04-19T12:13:59.704Z</time></trkpt><trkpt lat="43.7006385" lon="12.3916669"><ele>514.0</ele><time>2026-04-19T12:14:00.72Z</time></trkpt><trkpt lat="43.7004852" lon="12.3915572"><ele>514.0</ele><time>2026-04-19T12:14:01.692Z</time></trkpt><trkpt lat="43.7003655" lon="12.3914063"><ele>511.33333333333337</ele><time>2026-04-19T12:14:02.707Z</time></trkpt><trkpt lat="43.7002699" lon="12.3912355"><ele>508.66666666666663</ele><time>2026-04-19T12:14:03.719Z</time></trkpt><trkpt lat="43.7002451" lon="12.3910115"><ele>506.0</ele><time>2026-04-19T12:14:04.708Z</time></trkpt><trkpt lat="43.7002415" lon="12.3907729"><ele>506.0</ele><time>2026-04-19T12:14:05.71Z</time></trkpt><trkpt lat="43.7002483" lon="12.3905258"><ele>506.0</ele><time>2026-04-19T12:14:06.707Z</time></trkpt><trkpt lat="43.7002667" lon="12.3903033"><ele>506.0</ele><time>2026-04-19T12:14:07.712Z</time></trkpt><trkpt lat="43.7003153" lon="12.3900846"><ele>506.0</ele><time>2026-04-19T12:14:08.716Z</time></trkpt><trkpt lat="43.7004027" lon="12.389877"><ele>506.0</ele><time>2026-04-19T12:14:09.714Z</time></trkpt><trkpt lat="43.7005163" lon="12.3896675"><ele>506.0</ele><time>2026-04-19T12:14:10.713Z</time></trkpt><trkpt lat="43.7006523" lon="12.3894793"><ele>507.0</ele><time>2026-04-19T12:14:11.706Z</time></trkpt><trkpt lat="43.7008164" lon="12.3893178"><ele>508.0</ele><time>2026-04-19T12:14:12.706Z</time></trkpt><trkpt lat="43.700974" lon="12.3891749"><ele>509.0</ele><time>2026-04-19T12:14:13.706Z</time></trkpt><trkpt lat="43.701135" lon="12.389075"><ele>509.0</ele><time>2026-04-19T12:14:14.711Z</time></trkpt><trkpt lat="43.7012858" lon="12.3890299"><ele>509.0</ele><time>2026-04-19T12:14:15.716Z</time></trkpt><trkpt lat="43.7014562" lon="12.3890444"><ele>509.0</ele><time>2026-04-19T12:14:16.715Z</time></trkpt><trkpt lat="43.701638" lon="12.3890478"><ele>509.0</ele><time>2026-04-19T12:14:17.708Z</time></trkpt><trkpt lat="43.7018126" lon="12.3890492"><ele>509.0</ele><time>2026-04-19T12:14:18.709Z</time></trkpt><trkpt lat="43.701983" lon="12.3890008"><ele>509.0</ele><time>2026-04-19T12:14:19.717Z</time></trkpt><trkpt lat="43.7021304" lon="12.3888943"><ele>512.3333333333333</ele><time>2026-04-19T12:14:20.714Z</time></trkpt><trkpt lat="43.70228" lon="12.3887518"><ele>515.6666666666666</ele><time>2026-04-19T12:14:21.703Z</time></trkpt><trkpt lat="43.7024373" lon="12.3886018"><ele>519.0</ele><time>2026-04-19T12:14:22.707Z</time></trkpt><trkpt lat="43.7025971" lon="12.3884547"><ele>519.0</ele><time>2026-04-19T12:14:23.712Z</time></trkpt><trkpt lat="43.702746" lon="12.3883174"><ele>519.0</ele><time>2026-04-19T12:14:24.72Z</time></trkpt><trkpt lat="43.7028827" lon="12.388164"><ele>519.0</ele><time>2026-04-19T12:14:25.701Z</time></trkpt><trkpt lat="43.7030189" lon="12.388024"><ele>519.6666666666666</ele><time>2026-04-19T12:14:26.713Z</time></trkpt><trkpt lat="43.7031514" lon="12.3878975"><ele>520.3333333333333</ele><time>2026-04-19T12:14:27.707Z</time></trkpt><trkpt lat="43.7032852" lon="12.3877871"><ele>521.0</ele><time>2026-04-19T12:14:28.713Z</time></trkpt><trkpt lat="43.7034283" lon="12.3877052"><ele>521.0</ele><time>2026-04-19T12:14:29.709Z</time></trkpt><trkpt lat="43.7035785" lon="12.3876179"><ele>521.0</ele><time>2026-04-19T12:14:30.72Z</time></trkpt><trkpt lat="43.703724" lon="12.3875095"><ele>521.0</ele><time>2026-04-19T12:14:31.712Z</time></trkpt><trkpt lat="43.7038669" lon="12.3873519"><ele>519.3333333333333</ele><time>2026-04-19T12:14:32.713Z</time></trkpt><trkpt lat="43.7039999" lon="12.3871804"><ele>517.6666666666666</ele><time>2026-04-19T12:14:33.703Z</time></trkpt><trkpt lat="43.7041375" lon="12.3869918"><ele>516.0</ele><time>2026-04-19T12:14:34.746Z</time></trkpt><trkpt lat="43.7042786" lon="12.3868277"><ele>516.6666666666666</ele><time>2026-04-19T12:14:35.707Z</time></trkpt><trkpt lat="43.7044342" lon="12.3866906"><ele>517.3333333333333</ele><time>2026-04-19T12:14:36.709Z</time></trkpt><trkpt lat="43.7045967" lon="12.3865968"><ele>518.0</ele><time>2026-04-19T12:14:37.709Z</time></trkpt><trkpt lat="43.7047543" lon="12.3865397"><ele>518.0</ele><time>2026-04-19T12:14:38.71Z</time></trkpt><trkpt lat="43.7049114" lon="12.3864742"><ele>518.0</ele><time>2026-04-19T12:14:39.71Z</time></trkpt><trkpt lat="43.7050663" lon="12.3864134"><ele>518.0</ele><time>2026-04-19T12:14:40.709Z</time></trkpt><trkpt lat="43.7052195" lon="12.3863594"><ele>526.6666666666666</ele><time>2026-04-19T12:14:41.705Z</time></trkpt><trkpt lat="43.7053816" lon="12.3863191"><ele>535.3333333333334</ele><time>2026-04-19T12:14:42.699Z</time></trkpt><trkpt lat="43.7055644" lon="12.3862944"><ele>544.0</ele><time>2026-04-19T12:14:43.697Z</time></trkpt><trkpt lat="43.7057448" lon="12.3863048"><ele>540.6666666666667</ele><time>2026-04-19T12:14:44.698Z</time></trkpt><trkpt lat="43.7059176" lon="12.3863458"><ele>537.3333333333334</ele><time>2026-04-19T12:14:45.688Z</time></trkpt><trkpt lat="43.7060818" lon="12.3863869"><ele>534.0</ele><time>2026-04-19T12:14:46.693Z</time></trkpt><trkpt lat="43.7062402" lon="12.3864476"><ele>534.0</ele><time>2026-04-19T12:14:47.693Z</time></trkpt><trkpt lat="43.7063951" lon="12.3865526"><ele>534.0</ele><time>2026-04-19T12:14:48.695Z</time></trkpt><trkpt lat="43.7065325" lon="12.3866809"><ele>534.0</ele><time>2026-04-19T12:14:49.695Z</time></trkpt><trkpt lat="43.706658" lon="12.3867915"><ele>534.0</ele><time>2026-04-19T12:14:50.703Z</time></trkpt><trkpt lat="43.7067673" lon="12.3868629"><ele>534.0</ele><time>2026-04-19T12:14:51.699Z</time></trkpt><trkpt lat="43.7068585" lon="12.3869457"><ele>534.0</ele><time>2026-04-19T12:14:52.71Z</time></trkpt><trkpt lat="43.7069053" lon="12.387068"><ele>534.0</ele><time>2026-04-19T12:14:53.708Z</time></trkpt><trkpt lat="43.7069184" lon="12.3872444"><ele>534.0</ele><time>2026-04-19T12:14:54.709Z</time></trkpt><trkpt lat="43.7069297" lon="12.3874545"><ele>534.0</ele><time>2026-04-19T12:14:55.71Z</time></trkpt><trkpt lat="43.7069582" lon="12.387661"><ele>534.0</ele><time>2026-04-19T12:14:56.704Z</time></trkpt><trkpt lat="43.7069861" lon="12.3878688"><ele>532.25</ele><time>2026-04-19T12:14:57.712Z</time></trkpt><trkpt lat="43.7070315" lon="12.3880536"><ele>530.5</ele><time>2026-04-19T12:14:58.711Z</time></trkpt><trkpt lat="43.7071094" lon="12.3882058"><ele>528.75</ele><time>2026-04-19T12:14:59.71Z</time></trkpt><trkpt lat="43.7072166" lon="12.3883351"><ele>527.0</ele><time>2026-04-19T12:15:00.712Z</time></trkpt><trkpt lat="43.7073306" lon="12.3884844"><ele>527.0</ele><time>2026-04-19T12:15:01.706Z</time></trkpt><trkpt lat="43.7074499" lon="12.388629"><ele>527.0</ele><time>2026-04-19T12:15:02.707Z</time></trkpt><trkpt lat="43.7075463" lon="12.3887601"><ele>527.0</ele><time>2026-04-19T12:15:03.71Z</time></trkpt><trkpt lat="43.7076493" lon="12.388879"><ele>527.0</ele><time>2026-04-19T12:15:04.728Z</time></trkpt><trkpt lat="43.7077444" lon="12.3889672"><ele>527.25</ele><time>2026-04-19T12:15:05.709Z</time></trkpt><trkpt lat="43.7078462" lon="12.3889815"><ele>527.5</ele><time>2026-04-19T12:15:06.708Z</time></trkpt><trkpt lat="43.7079519" lon="12.3889535"><ele>527.75</ele><time>2026-04-19T12:15:07.712Z</time></trkpt><trkpt lat="43.7080642" lon="12.3888819"><ele>528.0</ele><time>2026-04-19T12:15:08.707Z</time></trkpt><trkpt lat="43.7081985" lon="12.3888232"><ele>528.0</ele><time>2026-04-19T12:15:09.702Z</time></trkpt><trkpt lat="43.708323" lon="12.3888007"><ele>528.0</ele><time>2026-04-19T12:15:10.713Z</time></trkpt><trkpt lat="43.7084398" lon="12.3888178"><ele>528.0</ele><time>2026-04-19T12:15:11.709Z</time></trkpt><trkpt lat="43.7085408" lon="12.3888715"><ele>528.0</ele><time>2026-04-19T12:15:12.71Z</time></trkpt><trkpt lat="43.708618" lon="12.3889486"><ele>528.0</ele><time>2026-04-19T12:15:13.712Z</time></trkpt><trkpt lat="43.7086616" lon="12.3890613"><ele>524.4</ele><time>2026-04-19T12:15:14.71Z</time></trkpt><trkpt lat="43.7086749" lon="12.3891832"><ele>520.8</ele><time>2026-04-19T12:15:15.702Z</time></trkpt><trkpt lat="43.7086878" lon="12.3893005"><ele>517.2</ele><time>2026-04-19T12:15:16.706Z</time></trkpt><trkpt lat="43.7087096" lon="12.3894205"><ele>513.6</ele><time>2026-04-19T12:15:17.71Z</time></trkpt><trkpt lat="43.7087439" lon="12.3895454"><ele>510.0</ele><time>2026-04-19T12:15:18.71Z</time></trkpt><trkpt lat="43.7087835" lon="12.3896604"><ele>510.0</ele><time>2026-04-19T12:15:19.712Z</time></trkpt><trkpt lat="43.7088285" lon="12.3897461"><ele>510.0</ele><time>2026-04-19T12:15:20.713Z</time></trkpt><trkpt lat="43.7089424" lon="12.3897464"><ele>510.0</ele><time>2026-04-19T12:15:22.719Z</time></trkpt><trkpt lat="43.7089933" lon="12.3896741"><ele>510.0</ele><time>2026-04-19T12:15:23.718Z</time></trkpt><trkpt lat="43.7090251" lon="12.3895674"><ele>510.0</ele><time>2026-04-19T12:15:24.722Z</time></trkpt><trkpt lat="43.7090264" lon="12.3894441"><ele>510.0</ele><time>2026-04-19T12:15:25.72Z</time></trkpt><trkpt lat="43.7090113" lon="12.3892973"><ele>510.0</ele><time>2026-04-19T12:15:26.712Z</time></trkpt><trkpt lat="43.7090142" lon="12.389146"><ele>510.0</ele><time>2026-04-19T12:15:27.711Z</time></trkpt><trkpt lat="43.7090336" lon="12.388983"><ele>510.0</ele><time>2026-04-19T12:15:28.719Z</time></trkpt><trkpt lat="43.7090881" lon="12.3888194"><ele>510.0</ele><time>2026-04-19T12:15:29.716Z</time></trkpt><trkpt lat="43.709172" lon="12.3886576"><ele>511.0</ele><time>2026-04-19T12:15:30.723Z</time></trkpt><trkpt lat="43.7092559" lon="12.3884914"><ele>512.0</ele><time>2026-04-19T12:15:31.703Z</time></trkpt><trkpt lat="43.7093409" lon="12.388326"><ele>513.0</ele><time>2026-04-19T12:15:32.709Z</time></trkpt><trkpt lat="43.7094226" lon="12.3881718"><ele>514.0</ele><time>2026-04-19T12:15:33.702Z</time></trkpt><trkpt lat="43.7095059" lon="12.3880263"><ele>507.25</ele><time>2026-04-19T12:15:34.706Z</time></trkpt><trkpt lat="43.7095941" lon="12.3878915"><ele>500.5</ele><time>2026-04-19T12:15:35.72Z</time></trkpt><trkpt lat="43.709687" lon="12.3877561"><ele>493.75</ele><time>2026-04-19T12:15:36.702Z</time></trkpt><trkpt lat="43.7097779" lon="12.3876105"><ele>487.0</ele><time>2026-04-19T12:15:37.71Z</time></trkpt><trkpt lat="43.7098633" lon="12.3874531"><ele>487.0</ele><time>2026-04-19T12:15:38.709Z</time></trkpt><trkpt lat="43.7099426" lon="12.3872911"><ele>487.0</ele><time>2026-04-19T12:15:39.706Z</time></trkpt><trkpt lat="43.710039" lon="12.3871387"><ele>487.0</ele><time>2026-04-19T12:15:40.702Z</time></trkpt><trkpt lat="43.7101431" lon="12.3870108"><ele>487.0</ele><time>2026-04-19T12:15:41.706Z</time></trkpt><trkpt lat="43.7102709" lon="12.3869127"><ele>484.0</ele><time>2026-04-19T12:15:42.71Z</time></trkpt><trkpt lat="43.7104304" lon="12.3868462"><ele>481.0</ele><time>2026-04-19T12:15:43.712Z</time></trkpt><trkpt lat="43.7106047" lon="12.3867861"><ele>478.0</ele><time>2026-04-19T12:15:44.709Z</time></trkpt><trkpt lat="43.7107797" lon="12.3867158"><ele>478.0</ele><time>2026-04-19T12:15:45.712Z</time></trkpt><trkpt lat="43.710971" lon="12.3866395"><ele>478.0</ele><time>2026-04-19T12:15:46.714Z</time></trkpt><trkpt lat="43.7111507" lon="12.3865672"><ele>478.0</ele><time>2026-04-19T12:15:47.716Z</time></trkpt><trkpt lat="43.7113214" lon="12.3864858"><ele>475.6666666666667</ele><time>2026-04-19T12:15:48.716Z</time></trkpt><trkpt lat="43.7114805" lon="12.3864104"><ele>473.33333333333337</ele><time>2026-04-19T12:15:49.716Z</time></trkpt><trkpt lat="43.7116294" lon="12.3863416"><ele>471.0</ele><time>2026-04-19T12:15:50.713Z</time></trkpt><trkpt lat="43.711771" lon="12.3862812"><ele>470.5</ele><time>2026-04-19T12:15:51.71Z</time></trkpt><trkpt lat="43.7119056" lon="12.3862298"><ele>470.0</ele><time>2026-04-19T12:15:52.712Z</time></trkpt><trkpt lat="43.7120371" lon="12.3862109"><ele>469.5</ele><time>2026-04-19T12:15:53.712Z</time></trkpt><trkpt lat="43.7121826" lon="12.3862161"><ele>469.0</ele><time>2026-04-19T12:15:54.711Z</time></trkpt><trkpt lat="43.7123177" lon="12.386243"><ele>468.2</ele><time>2026-04-19T12:15:55.713Z</time></trkpt><trkpt lat="43.7124472" lon="12.3862829"><ele>467.4</ele><time>2026-04-19T12:15:56.709Z</time></trkpt><trkpt lat="43.712558" lon="12.386312"><ele>466.6</ele><time>2026-04-19T12:15:57.714Z</time></trkpt><trkpt lat="43.7126526" lon="12.3863141"><ele>465.8</ele><time>2026-04-19T12:15:58.712Z</time></trkpt><trkpt lat="43.7127188" lon="12.3862698"><ele>465.0</ele><time>2026-04-19T12:15:59.713Z</time></trkpt><trkpt lat="43.7127789" lon="12.3861823"><ele>462.8</ele><time>2026-04-19T12:16:00.723Z</time></trkpt><trkpt lat="43.7128146" lon="12.3860379"><ele>460.6</ele><time>2026-04-19T12:16:01.71Z</time></trkpt><trkpt lat="43.7128189" lon="12.385878"><ele>458.4</ele><time>2026-04-19T12:16:02.705Z</time></trkpt><trkpt lat="43.7128247" lon="12.3857332"><ele>456.2</ele><time>2026-04-19T12:16:03.706Z</time></trkpt><trkpt lat="43.7128005" lon="12.3856011"><ele>454.0</ele><time>2026-04-19T12:16:04.71Z</time></trkpt><trkpt lat="43.7127392" lon="12.3854933"><ele>454.0</ele><time>2026-04-19T12:16:05.712Z</time></trkpt><trkpt lat="43.7126289" lon="12.3854189"><ele>454.0</ele><time>2026-04-19T12:16:06.725Z</time></trkpt><trkpt lat="43.7124968" lon="12.3853955"><ele>454.0</ele><time>2026-04-19T12:16:07.703Z</time></trkpt><trkpt lat="43.7123793" lon="12.3854026"><ele>454.0</ele><time>2026-04-19T12:16:08.696Z</time></trkpt><trkpt lat="43.7122891" lon="12.3853823"><ele>454.0</ele><time>2026-04-19T12:16:09.707Z</time></trkpt><trkpt lat="43.7122478" lon="12.3853"><ele>454.0</ele><time>2026-04-19T12:16:10.701Z</time></trkpt><trkpt lat="43.712273" lon="12.3852047"><ele>454.0</ele><time>2026-04-19T12:16:11.702Z</time></trkpt><trkpt lat="43.7123552" lon="12.3851296"><ele>454.0</ele><time>2026-04-19T12:16:12.7Z</time></trkpt><trkpt lat="43.7124796" lon="12.3850802"><ele>454.0</ele><time>2026-04-19T12:16:13.701Z</time></trkpt><trkpt lat="43.7126173" lon="12.3850381"><ele>452.6666666666667</ele><time>2026-04-19T12:16:14.704Z</time></trkpt><trkpt lat="43.7127615" lon="12.3849939"><ele>451.33333333333337</ele><time>2026-04-19T12:16:15.706Z</time></trkpt><trkpt lat="43.712913" lon="12.3849502"><ele>450.0</ele><time>2026-04-19T12:16:16.705Z</time></trkpt><trkpt lat="43.7130652" lon="12.3849323"><ele>450.0</ele><time>2026-04-19T12:16:17.711Z</time></trkpt><trkpt lat="43.7132102" lon="12.3849662"><ele>450.0</ele><time>2026-04-19T12:16:18.711Z</time></trkpt><trkpt lat="43.7133464" lon="12.3850345"><ele>450.0</ele><time>2026-04-19T12:16:19.709Z</time></trkpt><trkpt lat="43.7134772" lon="12.385148"><ele>450.0</ele><time>2026-04-19T12:16:20.717Z</time></trkpt><trkpt lat="43.7136024" lon="12.3852709"><ele>445.0</ele><time>2026-04-19T12:16:21.708Z</time></trkpt><trkpt lat="43.713748" lon="12.3853825"><ele>440.0</ele><time>2026-04-19T12:16:22.715Z</time></trkpt><trkpt lat="43.7138962" lon="12.3854959"><ele>435.0</ele><time>2026-04-19T12:16:23.708Z</time></trkpt><trkpt lat="43.7140229" lon="12.3856082"><ele>434.2</ele><time>2026-04-19T12:16:24.715Z</time></trkpt><trkpt lat="43.7141244" lon="12.3856857"><ele>433.4</ele><time>2026-04-19T12:16:25.712Z</time></trkpt><trkpt lat="43.7142185" lon="12.3857423"><ele>432.6</ele><time>2026-04-19T12:16:26.711Z</time></trkpt><trkpt lat="43.7142835" lon="12.3857562"><ele>431.8</ele><time>2026-04-19T12:16:27.712Z</time></trkpt><trkpt lat="43.714356" lon="12.3856529"><ele>431.0</ele><time>2026-04-19T12:16:29.711Z</time></trkpt><trkpt lat="43.7143461" lon="12.3855335"><ele>432.0</ele><time>2026-04-19T12:16:30.721Z</time></trkpt><trkpt lat="43.7143179" lon="12.3853785"><ele>433.0</ele><time>2026-04-19T12:16:31.709Z</time></trkpt><trkpt lat="43.7142873" lon="12.3852075"><ele>434.0</ele><time>2026-04-19T12:16:32.701Z</time></trkpt><trkpt lat="43.7142705" lon="12.3850189"><ele>435.0</ele><time>2026-04-19T12:16:33.708Z</time></trkpt><trkpt lat="43.7142764" lon="12.3847981"><ele>433.66666666666663</ele><time>2026-04-19T12:16:34.708Z</time></trkpt><trkpt lat="43.7143232" lon="12.3845592"><ele>432.3333333333333</ele><time>2026-04-19T12:16:35.702Z</time></trkpt><trkpt lat="43.7143839" lon="12.3843532"><ele>431.0</ele><time>2026-04-19T12:16:36.709Z</time></trkpt><trkpt lat="43.7144446" lon="12.3841718"><ele>428.5</ele><time>2026-04-19T12:16:37.721Z</time></trkpt><trkpt lat="43.714486" lon="12.3840142"><ele>426.0</ele><time>2026-04-19T12:16:38.702Z</time></trkpt><trkpt lat="43.7144908" lon="12.3838622"><ele>423.5</ele><time>2026-04-19T12:16:39.693Z</time></trkpt><trkpt lat="43.7144471" lon="12.3837144"><ele>421.0</ele><time>2026-04-19T12:16:40.71Z</time></trkpt><trkpt lat="43.7143675" lon="12.3835676"><ele>421.0</ele><time>2026-04-19T12:16:41.711Z</time></trkpt><trkpt lat="43.7142548" lon="12.3834083"><ele>421.0</ele><time>2026-04-19T12:16:42.707Z</time></trkpt><trkpt lat="43.7141274" lon="12.3832428"><ele>421.0</ele><time>2026-04-19T12:16:43.71Z</time></trkpt><trkpt lat="43.7139878" lon="12.3830735"><ele>418.0</ele><time>2026-04-19T12:16:44.698Z</time></trkpt><trkpt lat="43.7138399" lon="12.3829048"><ele>415.0</ele><time>2026-04-19T12:16:45.709Z</time></trkpt><trkpt lat="43.7136925" lon="12.3827402"><ele>412.0</ele><time>2026-04-19T12:16:46.704Z</time></trkpt><trkpt lat="43.71354" lon="12.3825829"><ele>412.0</ele><time>2026-04-19T12:16:47.708Z</time></trkpt><trkpt lat="43.7133955" lon="12.3824507"><ele>412.0</ele><time>2026-04-19T12:16:48.706Z</time></trkpt><trkpt lat="43.7132681" lon="12.3823409"><ele>412.0</ele><time>2026-04-19T12:16:49.71Z</time></trkpt><trkpt lat="43.7131529" lon="12.3822522"><ele>409.6</ele><time>2026-04-19T12:16:50.701Z</time></trkpt><trkpt lat="43.7130354" lon="12.3821784"><ele>407.20000000000005</ele><time>2026-04-19T12:16:51.7Z</time></trkpt><trkpt lat="43.7129511" lon="12.3820905"><ele>404.8</ele><time>2026-04-19T12:16:52.711Z</time></trkpt><trkpt lat="43.7129205" lon="12.3819979"><ele>402.4</ele><time>2026-04-19T12:16:53.708Z</time></trkpt><trkpt lat="43.7129269" lon="12.3818942"><ele>400.0</ele><time>2026-04-19T12:16:54.711Z</time></trkpt><trkpt lat="43.7129757" lon="12.3818055"><ele>400.0</ele><time>2026-04-19T12:16:55.713Z</time></trkpt><trkpt lat="43.7130558" lon="12.3817307"><ele>400.0</ele><time>2026-04-19T12:16:56.71Z</time></trkpt><trkpt lat="43.7131597" lon="12.3816841"><ele>400.0</ele><time>2026-04-19T12:16:57.708Z</time></trkpt><trkpt lat="43.7132827" lon="12.3816658"><ele>400.0</ele><time>2026-04-19T12:16:58.708Z</time></trkpt><trkpt lat="43.7134002" lon="12.3816489"><ele>400.0</ele><time>2026-04-19T12:16:59.702Z</time></trkpt><trkpt lat="43.7135119" lon="12.3816106"><ele>399.25</ele><time>2026-04-19T12:17:00.721Z</time></trkpt><trkpt lat="43.7136363" lon="12.3815343"><ele>398.5</ele><time>2026-04-19T12:17:01.71Z</time></trkpt><trkpt lat="43.7137644" lon="12.3814274"><ele>397.75</ele><time>2026-04-19T12:17:02.709Z</time></trkpt><trkpt lat="43.7138901" lon="12.3812994"><ele>397.0</ele><time>2026-04-19T12:17:03.704Z</time></trkpt><trkpt lat="43.714008" lon="12.3811846"><ele>394.5</ele><time>2026-04-19T12:17:04.706Z</time></trkpt><trkpt lat="43.7141256" lon="12.381076"><ele>392.0</ele><time>2026-04-19T12:17:05.703Z</time></trkpt><trkpt lat="43.7142382" lon="12.3809637"><ele>389.5</ele><time>2026-04-19T12:17:06.703Z</time></trkpt><trkpt lat="43.7143459" lon="12.3808633"><ele>387.0</ele><time>2026-04-19T12:17:07.704Z</time></trkpt><trkpt lat="43.7144557" lon="12.380763"><ele>382.75</ele><time>2026-04-19T12:17:08.721Z</time></trkpt><trkpt lat="43.7145522" lon="12.3806568"><ele>378.5</ele><time>2026-04-19T12:17:09.702Z</time></trkpt><trkpt lat="43.7146342" lon="12.3805422"><ele>374.25</ele><time>2026-04-19T12:17:10.706Z</time></trkpt><trkpt lat="43.7146967" lon="12.3804163"><ele>370.0</ele><time>2026-04-19T12:17:11.703Z</time></trkpt><trkpt lat="43.7147338" lon="12.3802813"><ele>368.8</ele><time>2026-04-19T12:17:12.708Z</time></trkpt><trkpt lat="43.7147092" lon="12.3801665"><ele>367.6</ele><time>2026-04-19T12:17:13.711Z</time></trkpt><trkpt lat="43.7146578" lon="12.3800656"><ele>366.4</ele><time>2026-04-19T12:17:14.707Z</time></trkpt><trkpt lat="43.7145763" lon="12.3799973"><ele>365.2</ele><time>2026-04-19T12:17:15.707Z</time></trkpt><trkpt lat="43.7144714" lon="12.3799696"><ele>364.0</ele><time>2026-04-19T12:17:16.709Z</time></trkpt><trkpt lat="43.7143478" lon="12.3800069"><ele>366.79999999999995</ele><time>2026-04-19T12:17:17.705Z</time></trkpt><trkpt lat="43.7142395" lon="12.3800894"><ele>369.59999999999997</ele><time>2026-04-19T12:17:18.703Z</time></trkpt><trkpt lat="43.7141372" lon="12.3801577"><ele>372.4</ele><time>2026-04-19T12:17:19.703Z</time></trkpt><trkpt lat="43.7140369" lon="12.380181"><ele>375.2</ele><time>2026-04-19T12:17:20.702Z</time></trkpt><trkpt lat="43.7139447" lon="12.3801429"><ele>378.0</ele><time>2026-04-19T12:17:21.702Z</time></trkpt><trkpt lat="43.7138691" lon="12.3800389"><ele>378.0</ele><time>2026-04-19T12:17:22.705Z</time></trkpt><trkpt lat="43.7138171" lon="12.3798791"><ele>378.0</ele><time>2026-04-19T12:17:23.707Z</time></trkpt><trkpt lat="43.7137869" lon="12.3797059"><ele>378.0</ele><time>2026-04-19T12:17:24.707Z</time></trkpt><trkpt lat="43.713788" lon="12.3795273"><ele>378.0</ele><time>2026-04-19T12:17:25.703Z</time></trkpt><trkpt lat="43.7138323" lon="12.3793567"><ele>376.0</ele><time>2026-04-19T12:17:26.704Z</time></trkpt><trkpt lat="43.7139131" lon="12.3792106"><ele>374.0</ele><time>2026-04-19T12:17:27.708Z</time></trkpt><trkpt lat="43.7140078" lon="12.3790763"><ele>372.0</ele><time>2026-04-19T12:17:28.704Z</time></trkpt><trkpt lat="43.7141059" lon="12.3789433"><ele>370.0</ele><time>2026-04-19T12:17:29.702Z</time></trkpt><trkpt lat="43.7142107" lon="12.3788221"><ele>368.5</ele><time>2026-04-19T12:17:30.712Z</time></trkpt><trkpt lat="43.714316" lon="12.37871"><ele>367.0</ele><time>2026-04-19T12:17:31.703Z</time></trkpt><trkpt lat="43.7144205" lon="12.3786148"><ele>365.5</ele><time>2026-04-19T12:17:32.711Z</time></trkpt><trkpt lat="43.7145279" lon="12.3785506"><ele>364.0</ele><time>2026-04-19T12:17:33.71Z</time></trkpt><trkpt lat="43.7146371" lon="12.3785338"><ele>362.75</ele><time>2026-04-19T12:17:34.707Z</time></trkpt><trkpt lat="43.7147387" lon="12.3785749"><ele>361.5</ele><time>2026-04-19T12:17:35.706Z</time></trkpt><trkpt lat="43.7148203" lon="12.3786704"><ele>360.25</ele><time>2026-04-19T12:17:36.704Z</time></trkpt><trkpt lat="43.7148853" lon="12.3788137"><ele>359.0</ele><time>2026-04-19T12:17:37.702Z</time></trkpt><trkpt lat="43.7149296" lon="12.3790031"><ele>359.0</ele><time>2026-04-19T12:17:38.697Z</time></trkpt><trkpt lat="43.7149617" lon="12.3791961"><ele>359.0</ele><time>2026-04-19T12:17:39.715Z</time></trkpt><trkpt lat="43.7150047" lon="12.3793284"><ele>359.0</ele><time>2026-04-19T12:17:40.706Z</time></trkpt><trkpt lat="43.7150998" lon="12.3793763"><ele>359.0</ele><time>2026-04-19T12:17:42.7Z</time></trkpt><trkpt lat="43.7151657" lon="12.3792125"><ele>359.0</ele><time>2026-04-19T12:17:44.702Z</time></trkpt><trkpt lat="43.7151552" lon="12.3790757"><ele>359.0</ele><time>2026-04-19T12:17:45.702Z</time></trkpt><trkpt lat="43.7151047" lon="12.3789206"><ele>359.0</ele><time>2026-04-19T12:17:46.704Z</time></trkpt><trkpt lat="43.715041" lon="12.3787501"><ele>359.0</ele><time>2026-04-19T12:17:47.697Z</time></trkpt><trkpt lat="43.7150089" lon="12.3785403"><ele>356.33333333333337</ele><time>2026-04-19T12:17:48.701Z</time></trkpt><trkpt lat="43.7150085" lon="12.3783159"><ele>353.6666666666667</ele><time>2026-04-19T12:17:49.697Z</time></trkpt><trkpt lat="43.7150034" lon="12.3780874"><ele>351.0</ele><time>2026-04-19T12:17:50.698Z</time></trkpt><trkpt lat="43.7149779" lon="12.3778875"><ele>348.75</ele><time>2026-04-19T12:17:51.702Z</time></trkpt><trkpt lat="43.7149226" lon="12.3776947"><ele>346.5</ele><time>2026-04-19T12:17:52.703Z</time></trkpt><trkpt lat="43.7148535" lon="12.3775138"><ele>344.25</ele><time>2026-04-19T12:17:53.703Z</time></trkpt><trkpt lat="43.714797" lon="12.3773454"><ele>342.0</ele><time>2026-04-19T12:17:54.701Z</time></trkpt><trkpt lat="43.7147787" lon="12.3771931"><ele>342.0</ele><time>2026-04-19T12:17:55.706Z</time></trkpt><trkpt lat="43.7147969" lon="12.3770561"><ele>342.0</ele><time>2026-04-19T12:17:56.704Z</time></trkpt><trkpt lat="43.7148538" lon="12.3769403"><ele>342.0</ele><time>2026-04-19T12:17:57.698Z</time></trkpt><trkpt lat="43.7149094" lon="12.3768541"><ele>342.0</ele><time>2026-04-19T12:17:58.701Z</time></trkpt><trkpt lat="43.714996" lon="12.376803"><ele>342.0</ele><time>2026-04-19T12:17:59.703Z</time></trkpt><trkpt lat="43.7150941" lon="12.3767696"><ele>342.0</ele><time>2026-04-19T12:18:00.707Z</time></trkpt><trkpt lat="43.7151863" lon="12.3767202"><ele>342.0</ele><time>2026-04-19T12:18:01.7Z</time></trkpt><trkpt lat="43.7152835" lon="12.3766667"><ele>342.0</ele><time>2026-04-19T12:18:02.7Z</time></trkpt><trkpt lat="43.7153827" lon="12.376609"><ele>342.0</ele><time>2026-04-19T12:18:03.697Z</time></trkpt><trkpt lat="43.715492" lon="12.3765756"><ele>342.0</ele><time>2026-04-19T12:18:04.687Z</time></trkpt><trkpt lat="43.7156147" lon="12.3765574"><ele>342.40000000000003</ele><time>2026-04-19T12:18:05.697Z</time></trkpt><trkpt lat="43.7157371" lon="12.3765324"><ele>342.8</ele><time>2026-04-19T12:18:06.696Z</time></trkpt><trkpt lat="43.7158518" lon="12.3765155"><ele>343.2</ele><time>2026-04-19T12:18:07.698Z</time></trkpt><trkpt lat="43.7159531" lon="12.3765007"><ele>343.6</ele><time>2026-04-19T12:18:08.7Z</time></trkpt><trkpt lat="43.7160439" lon="12.3764918"><ele>344.0</ele><time>2026-04-19T12:18:09.697Z</time></trkpt><trkpt lat="43.7161205" lon="12.3764783"><ele>344.0</ele><time>2026-04-19T12:18:10.715Z</time></trkpt><trkpt lat="43.716226" lon="12.3764562"><ele>344.0</ele><time>2026-04-19T12:18:12.696Z</time></trkpt><trkpt lat="43.7163084" lon="12.3764681"><ele>344.0</ele><time>2026-04-19T12:18:14.698Z</time></trkpt><trkpt lat="43.7163753" lon="12.3765766"><ele>344.0</ele><time>2026-04-19T12:18:16.697Z</time></trkpt><trkpt lat="43.7164083" lon="12.3766637"><ele>344.0</ele><time>2026-04-19T12:18:17.695Z</time></trkpt><trkpt lat="43.7164424" lon="12.3767518"><ele>344.0</ele><time>2026-04-19T12:18:18.694Z</time></trkpt><trkpt lat="43.7164796" lon="12.3768365"><ele>344.0</ele><time>2026-04-19T12:18:19.706Z</time></trkpt><trkpt lat="43.7165242" lon="12.3769316"><ele>344.0</ele><time>2026-04-19T12:18:20.695Z</time></trkpt><trkpt lat="43.716583" lon="12.3770205"><ele>344.0</ele><time>2026-04-19T12:18:21.699Z</time></trkpt><trkpt lat="43.7166444" lon="12.3771149"><ele>344.0</ele><time>2026-04-19T12:18:22.701Z</time></trkpt><trkpt lat="43.716703" lon="12.3772104"><ele>344.0</ele><time>2026-04-19T12:18:23.7Z</time></trkpt><trkpt lat="43.7167562" lon="12.3772988"><ele>344.0</ele><time>2026-04-19T12:18:24.702Z</time></trkpt><trkpt lat="43.7168061" lon="12.3773703"><ele>343.83333333333337</ele><time>2026-04-19T12:18:25.698Z</time></trkpt><trkpt lat="43.7168806" lon="12.3774468"><ele>343.6666666666667</ele><time>2026-04-19T12:18:27.7Z</time></trkpt><trkpt lat="43.7169586" lon="12.3774071"><ele>343.5</ele><time>2026-04-19T12:18:30.72Z</time></trkpt><trkpt lat="43.7169598" lon="12.377267"><ele>343.3333333333333</ele><time>2026-04-19T12:18:32.712Z</time></trkpt><trkpt lat="43.7169451" lon="12.3771695"><ele>343.16666666666663</ele><time>2026-04-19T12:18:33.698Z</time></trkpt><trkpt lat="43.7169347" lon="12.3770695"><ele>343.0</ele><time>2026-04-19T12:18:34.701Z</time></trkpt><trkpt lat="43.7169248" lon="12.3769628"><ele>343.16666666666663</ele><time>2026-04-19T12:18:35.705Z</time></trkpt><trkpt lat="43.7169202" lon="12.3768578"><ele>343.3333333333333</ele><time>2026-04-19T12:18:36.702Z</time></trkpt><trkpt lat="43.716913" lon="12.3767509"><ele>343.5</ele><time>2026-04-19T12:18:37.703Z</time></trkpt><trkpt lat="43.7168931" lon="12.3766404"><ele>343.6666666666667</ele><time>2026-04-19T12:18:41.725Z</time></trkpt><trkpt lat="43.7168707" lon="12.376526"><ele>343.83333333333337</ele><time>2026-04-19T12:18:44.708Z</time></trkpt><trkpt lat="43.7168691" lon="12.3763925"><ele>344.0</ele><time>2026-04-19T12:18:51.713Z</time></trkpt><trkpt lat="43.7168677" lon="12.376301"><ele>344.33333333333337</ele><time>2026-04-19T12:18:52.7Z</time></trkpt><trkpt lat="43.7168685" lon="12.376199"><ele>344.6666666666667</ele><time>2026-04-19T12:18:53.698Z</time></trkpt><trkpt lat="43.7168819" lon="12.3760984"><ele>345.0</ele><time>2026-04-19T12:18:54.708Z</time></trkpt><trkpt lat="43.7169182" lon="12.3760157"><ele>345.3333333333333</ele><time>2026-04-19T12:18:55.704Z</time></trkpt><trkpt lat="43.7169911" lon="12.3759459"><ele>345.66666666666663</ele><time>2026-04-19T12:18:56.699Z</time></trkpt><trkpt lat="43.7170749" lon="12.3758824"><ele>346.0</ele><time>2026-04-19T12:18:57.699Z</time></trkpt><trkpt lat="43.7171756" lon="12.3758238"><ele>347.25</ele><time>2026-04-19T12:18:58.702Z</time></trkpt><trkpt lat="43.7172829" lon="12.3757529"><ele>348.5</ele><time>2026-04-19T12:18:59.703Z</time></trkpt><trkpt lat="43.7173982" lon="12.3756857"><ele>349.75</ele><time>2026-04-19T12:19:00.715Z</time></trkpt><trkpt lat="43.7175201" lon="12.3756064"><ele>351.0</ele><time>2026-04-19T12:19:01.703Z</time></trkpt><trkpt lat="43.7176391" lon="12.3755275"><ele>352.75</ele><time>2026-04-19T12:19:02.706Z</time></trkpt><trkpt lat="43.7177581" lon="12.3754496"><ele>354.5</ele><time>2026-04-19T12:19:03.703Z</time></trkpt><trkpt lat="43.7178868" lon="12.3753684"><ele>356.25</ele><time>2026-04-19T12:19:04.704Z</time></trkpt><trkpt lat="43.7180206" lon="12.3752866"><ele>358.0</ele><time>2026-04-19T12:19:05.705Z</time></trkpt><trkpt lat="43.7181565" lon="12.3752036"><ele>358.0</ele><time>2026-04-19T12:19:06.707Z</time></trkpt><trkpt lat="43.7182826" lon="12.3751181"><ele>358.0</ele><time>2026-04-19T12:19:07.704Z</time></trkpt><trkpt lat="43.7184057" lon="12.3750391"><ele>358.0</ele><time>2026-04-19T12:19:08.705Z</time></trkpt><trkpt lat="43.7185348" lon="12.3749736"><ele>358.0</ele><time>2026-04-19T12:19:09.707Z</time></trkpt><trkpt lat="43.7186715" lon="12.3748941"><ele>359.3333333333333</ele><time>2026-04-19T12:19:10.708Z</time></trkpt><trkpt lat="43.7188098" lon="12.3748032"><ele>360.6666666666667</ele><time>2026-04-19T12:19:11.707Z</time></trkpt><trkpt lat="43.7189589" lon="12.3747102"><ele>362.0</ele><time>2026-04-19T12:19:12.741Z</time></trkpt><trkpt lat="43.7191149" lon="12.3746147"><ele>362.0</ele><time>2026-04-19T12:19:13.71Z</time></trkpt><trkpt lat="43.7192733" lon="12.374514"><ele>362.0</ele><time>2026-04-19T12:19:14.709Z</time></trkpt><trkpt lat="43.7194338" lon="12.3744245"><ele>362.0</ele><time>2026-04-19T12:19:15.709Z</time></trkpt><trkpt lat="43.7195927" lon="12.3743378"><ele>363.0</ele><time>2026-04-19T12:19:16.708Z</time></trkpt><trkpt lat="43.7197507" lon="12.374253"><ele>364.0</ele><time>2026-04-19T12:19:17.706Z</time></trkpt><trkpt lat="43.7199055" lon="12.3741746"><ele>365.0</ele><time>2026-04-19T12:19:18.704Z</time></trkpt><trkpt lat="43.7200711" lon="12.3741234"><ele>365.6666666666667</ele><time>2026-04-19T12:19:19.708Z</time></trkpt><trkpt lat="43.7202564" lon="12.3740908"><ele>366.3333333333333</ele><time>2026-04-19T12:19:20.708Z</time></trkpt><trkpt lat="43.7204383" lon="12.374065"><ele>367.0</ele><time>2026-04-19T12:19:21.706Z</time></trkpt><trkpt lat="43.720619" lon="12.3740456"><ele>367.0</ele><time>2026-04-19T12:19:22.709Z</time></trkpt><trkpt lat="43.7207958" lon="12.3740253"><ele>367.0</ele><time>2026-04-19T12:19:23.702Z</time></trkpt><trkpt lat="43.7209672" lon="12.3740024"><ele>367.0</ele><time>2026-04-19T12:19:24.71Z</time></trkpt><trkpt lat="43.7211333" lon="12.3739871"><ele>366.66666666666663</ele><time>2026-04-19T12:19:25.706Z</time></trkpt><trkpt lat="43.721302" lon="12.3739595"><ele>366.3333333333333</ele><time>2026-04-19T12:19:26.709Z</time></trkpt><trkpt lat="43.7214704" lon="12.3739218"><ele>366.0</ele><time>2026-04-19T12:19:27.701Z</time></trkpt><trkpt lat="43.7216428" lon="12.3738847"><ele>368.0</ele><time>2026-04-19T12:19:28.707Z</time></trkpt><trkpt lat="43.7218207" lon="12.3738434"><ele>370.0</ele><time>2026-04-19T12:19:29.708Z</time></trkpt><trkpt lat="43.722011" lon="12.3738098"><ele>372.0</ele><time>2026-04-19T12:19:30.711Z</time></trkpt><trkpt lat="43.7222042" lon="12.3737556"><ele>372.3333333333333</ele><time>2026-04-19T12:19:31.701Z</time></trkpt><trkpt lat="43.7224015" lon="12.3737137"><ele>372.66666666666663</ele><time>2026-04-19T12:19:32.703Z</time></trkpt><trkpt lat="43.7226046" lon="12.3736777"><ele>373.0</ele><time>2026-04-19T12:19:33.705Z</time></trkpt><trkpt lat="43.7228009" lon="12.3736294"><ele>373.3333333333333</ele><time>2026-04-19T12:19:34.7Z</time></trkpt><trkpt lat="43.7229964" lon="12.3735684"><ele>373.6666666666667</ele><time>2026-04-19T12:19:35.702Z</time></trkpt><trkpt lat="43.7231961" lon="12.3735089"><ele>374.0</ele><time>2026-04-19T12:19:36.704Z</time></trkpt><trkpt lat="43.7234002" lon="12.3734603"><ele>375.0</ele><time>2026-04-19T12:19:37.707Z</time></trkpt><trkpt lat="43.7236126" lon="12.3734226"><ele>376.0</ele><time>2026-04-19T12:19:38.703Z</time></trkpt><trkpt lat="43.7238266" lon="12.3733816"><ele>377.0</ele><time>2026-04-19T12:19:39.703Z</time></trkpt><trkpt lat="43.7240376" lon="12.3733436"><ele>377.0</ele><time>2026-04-19T12:19:40.71Z</time></trkpt><trkpt lat="43.7242184" lon="12.3732993"><ele>377.0</ele><time>2026-04-19T12:19:41.708Z</time></trkpt><trkpt lat="43.7243946" lon="12.3732493"><ele>377.0</ele><time>2026-04-19T12:19:42.722Z</time></trkpt><trkpt lat="43.7245647" lon="12.3731666"><ele>376.0</ele><time>2026-04-19T12:19:43.703Z</time></trkpt><trkpt lat="43.7247275" lon="12.3730924"><ele>375.0</ele><time>2026-04-19T12:19:44.708Z</time></trkpt><trkpt lat="43.7248874" lon="12.3730051"><ele>374.0</ele><time>2026-04-19T12:19:45.705Z</time></trkpt><trkpt lat="43.7250401" lon="12.3729261"><ele>376.0</ele><time>2026-04-19T12:19:46.707Z</time></trkpt><trkpt lat="43.7251743" lon="12.3728588"><ele>378.0</ele><time>2026-04-19T12:19:47.705Z</time></trkpt><trkpt lat="43.7252861" lon="12.3728063"><ele>380.0</ele><time>2026-04-19T12:19:48.706Z</time></trkpt><trkpt lat="43.7253989" lon="12.3727813"><ele>382.0</ele><time>2026-04-19T12:19:49.699Z</time></trkpt><trkpt lat="43.7255421" lon="12.3727462"><ele>382.0</ele><time>2026-04-19T12:19:50.7Z</time></trkpt><trkpt lat="43.7257116" lon="12.3727252"><ele>382.0</ele><time>2026-04-19T12:19:51.699Z</time></trkpt><trkpt lat="43.7258964" lon="12.3726898"><ele>382.0</ele><time>2026-04-19T12:19:52.703Z</time></trkpt><trkpt lat="43.7260882" lon="12.3726485"><ele>379.66666666666663</ele><time>2026-04-19T12:19:53.706Z</time></trkpt><trkpt lat="43.7262792" lon="12.372615"><ele>377.3333333333333</ele><time>2026-04-19T12:19:54.707Z</time></trkpt><trkpt lat="43.7264681" lon="12.3725813"><ele>375.0</ele><time>2026-04-19T12:19:55.707Z</time></trkpt><trkpt lat="43.7266501" lon="12.3725424"><ele>375.0</ele><time>2026-04-19T12:19:56.696Z</time></trkpt><trkpt lat="43.726833" lon="12.3724973"><ele>375.0</ele><time>2026-04-19T12:19:57.701Z</time></trkpt><trkpt lat="43.7269989" lon="12.3724712"><ele>375.0</ele><time>2026-04-19T12:19:58.7Z</time></trkpt><trkpt lat="43.7271522" lon="12.3724451"><ele>373.6666666666667</ele><time>2026-04-19T12:19:59.692Z</time></trkpt><trkpt lat="43.7273151" lon="12.3724256"><ele>372.33333333333337</ele><time>2026-04-19T12:20:00.703Z</time></trkpt><trkpt lat="43.727466" lon="12.372411"><ele>371.0</ele><time>2026-04-19T12:20:01.697Z</time></trkpt><trkpt lat="43.7276262" lon="12.3724376"><ele>373.6666666666667</ele><time>2026-04-19T12:20:02.699Z</time></trkpt><trkpt lat="43.7277956" lon="12.3724878"><ele>376.3333333333333</ele><time>2026-04-19T12:20:03.698Z</time></trkpt><trkpt lat="43.7279767" lon="12.3725465"><ele>379.0</ele><time>2026-04-19T12:20:04.697Z</time></trkpt><trkpt lat="43.7281625" lon="12.3726103"><ele>379.0</ele><time>2026-04-19T12:20:05.693Z</time></trkpt><trkpt lat="43.7283483" lon="12.3726777"><ele>379.0</ele><time>2026-04-19T12:20:06.693Z</time></trkpt><trkpt lat="43.728541" lon="12.3727367"><ele>379.0</ele><time>2026-04-19T12:20:07.693Z</time></trkpt><trkpt lat="43.728744" lon="12.3727849"><ele>382.3333333333333</ele><time>2026-04-19T12:20:08.693Z</time></trkpt><trkpt lat="43.7289484" lon="12.3728464"><ele>385.66666666666663</ele><time>2026-04-19T12:20:09.693Z</time></trkpt><trkpt lat="43.7291295" lon="12.3729009"><ele>389.0</ele><time>2026-04-19T12:20:10.692Z</time></trkpt><trkpt lat="43.7293098" lon="12.372957"><ele>388.3333333333333</ele><time>2026-04-19T12:20:11.693Z</time></trkpt><trkpt lat="43.7294829" lon="12.3730038"><ele>387.66666666666663</ele><time>2026-04-19T12:20:12.694Z</time></trkpt><trkpt lat="43.7296469" lon="12.373048"><ele>387.0</ele><time>2026-04-19T12:20:13.714Z</time></trkpt><trkpt lat="43.7298072" lon="12.3730853"><ele>387.0</ele><time>2026-04-19T12:20:14.697Z</time></trkpt><trkpt lat="43.7299668" lon="12.3731355"><ele>387.0</ele><time>2026-04-19T12:20:15.699Z</time></trkpt><trkpt lat="43.7301207" lon="12.3732042"><ele>387.0</ele><time>2026-04-19T12:20:16.7Z</time></trkpt><trkpt lat="43.7302657" lon="12.3733082"><ele>389.25</ele><time>2026-04-19T12:20:17.697Z</time></trkpt><trkpt lat="43.730399" lon="12.3734197"><ele>391.5</ele><time>2026-04-19T12:20:18.704Z</time></trkpt><trkpt lat="43.730521" lon="12.3735121"><ele>393.75</ele><time>2026-04-19T12:20:19.711Z</time></trkpt><trkpt lat="43.7306476" lon="12.3735561"><ele>396.0</ele><time>2026-04-19T12:20:20.708Z</time></trkpt><trkpt lat="43.730787" lon="12.3735685"><ele>396.0</ele><time>2026-04-19T12:20:21.707Z</time></trkpt><trkpt lat="43.7309331" lon="12.3735489"><ele>396.0</ele><time>2026-04-19T12:20:22.7Z</time></trkpt><trkpt lat="43.7310736" lon="12.3735395"><ele>396.0</ele><time>2026-04-19T12:20:23.703Z</time></trkpt><trkpt lat="43.7312102" lon="12.3735481"><ele>396.0</ele><time>2026-04-19T12:20:24.699Z</time></trkpt><trkpt lat="43.731344" lon="12.373579"><ele>396.75</ele><time>2026-04-19T12:20:25.703Z</time></trkpt><trkpt lat="43.7314814" lon="12.3736377"><ele>397.5</ele><time>2026-04-19T12:20:26.696Z</time></trkpt><trkpt lat="43.7316085" lon="12.3737126"><ele>398.25</ele><time>2026-04-19T12:20:27.702Z</time></trkpt><trkpt lat="43.731716" lon="12.3737715"><ele>399.0</ele><time>2026-04-19T12:20:28.697Z</time></trkpt><trkpt lat="43.7318168" lon="12.3738225"><ele>398.2</ele><time>2026-04-19T12:20:29.696Z</time></trkpt><trkpt lat="43.7319098" lon="12.3738748"><ele>397.4</ele><time>2026-04-19T12:20:30.707Z</time></trkpt><trkpt lat="43.7319863" lon="12.373948"><ele>396.6</ele><time>2026-04-19T12:20:31.703Z</time></trkpt><trkpt lat="43.7320495" lon="12.3740456"><ele>395.8</ele><time>2026-04-19T12:20:32.701Z</time></trkpt><trkpt lat="43.7321026" lon="12.3741781"><ele>395.0</ele><time>2026-04-19T12:20:33.707Z</time></trkpt><trkpt lat="43.7321383" lon="12.3743335"><ele>395.0</ele><time>2026-04-19T12:20:34.707Z</time></trkpt><trkpt lat="43.7321622" lon="12.3745252"><ele>395.0</ele><time>2026-04-19T12:20:35.703Z</time></trkpt><trkpt lat="43.7322003" lon="12.3747329"><ele>395.0</ele><time>2026-04-19T12:20:36.696Z</time></trkpt><trkpt lat="43.7322404" lon="12.3749601"><ele>393.3333333333333</ele><time>2026-04-19T12:20:37.7Z</time></trkpt><trkpt lat="43.7322938" lon="12.3751776"><ele>391.66666666666663</ele><time>2026-04-19T12:20:38.7Z</time></trkpt><trkpt lat="43.7323367" lon="12.3753828"><ele>390.0</ele><time>2026-04-19T12:20:39.695Z</time></trkpt><trkpt lat="43.732378" lon="12.3755856"><ele>390.0</ele><time>2026-04-19T12:20:40.696Z</time></trkpt><trkpt lat="43.7324299" lon="12.3757785"><ele>390.0</ele><time>2026-04-19T12:20:41.696Z</time></trkpt><trkpt lat="43.7324888" lon="12.3759337"><ele>390.0</ele><time>2026-04-19T12:20:42.691Z</time></trkpt><trkpt lat="43.7325855" lon="12.3760449"><ele>390.0</ele><time>2026-04-19T12:20:43.693Z</time></trkpt><trkpt lat="43.7326901" lon="12.3761348"><ele>393.25</ele><time>2026-04-19T12:20:44.705Z</time></trkpt><trkpt lat="43.7328109" lon="12.3762208"><ele>396.5</ele><time>2026-04-19T12:20:45.69Z</time></trkpt><trkpt lat="43.7329344" lon="12.3763319"><ele>399.75</ele><time>2026-04-19T12:20:46.692Z</time></trkpt><trkpt lat="43.733049" lon="12.3764792"><ele>403.0</ele><time>2026-04-19T12:20:47.694Z</time></trkpt><trkpt lat="43.7331592" lon="12.3766661"><ele>404.33333333333337</ele><time>2026-04-19T12:20:48.69Z</time></trkpt><trkpt lat="43.7332717" lon="12.3768679"><ele>405.66666666666663</ele><time>2026-04-19T12:20:49.69Z</time></trkpt><trkpt lat="43.7333866" lon="12.3770744"><ele>407.0</ele><time>2026-04-19T12:20:50.684Z</time></trkpt><trkpt lat="43.7334996" lon="12.3772763"><ele>409.66666666666663</ele><time>2026-04-19T12:20:51.687Z</time></trkpt><trkpt lat="43.7336174" lon="12.3774681"><ele>412.33333333333337</ele><time>2026-04-19T12:20:52.683Z</time></trkpt><trkpt lat="43.7337413" lon="12.3776567"><ele>415.0</ele><time>2026-04-19T12:20:53.689Z</time></trkpt><trkpt lat="43.7338603" lon="12.3778525"><ele>415.0</ele><time>2026-04-19T12:20:54.686Z</time></trkpt><trkpt lat="43.7339747" lon="12.3780495"><ele>415.0</ele><time>2026-04-19T12:20:55.685Z</time></trkpt><trkpt lat="43.7340916" lon="12.3782431"><ele>415.0</ele><time>2026-04-19T12:20:56.684Z</time></trkpt><trkpt lat="43.7342007" lon="12.3784451"><ele>415.0</ele><time>2026-04-19T12:20:57.685Z</time></trkpt><trkpt lat="43.7343163" lon="12.3786459"><ele>415.0</ele><time>2026-04-19T12:20:58.685Z</time></trkpt><trkpt lat="43.7344164" lon="12.378848"><ele>415.0</ele><time>2026-04-19T12:20:59.683Z</time></trkpt><trkpt lat="43.734502" lon="12.3790563"><ele>417.5</ele><time>2026-04-19T12:21:00.687Z</time></trkpt><trkpt lat="43.7345819" lon="12.3792501"><ele>420.0</ele><time>2026-04-19T12:21:01.681Z</time></trkpt><trkpt lat="43.7346426" lon="12.3794234"><ele>422.5</ele><time>2026-04-19T12:21:02.681Z</time></trkpt><trkpt lat="43.7346998" lon="12.3795618"><ele>425.0</ele><time>2026-04-19T12:21:03.681Z</time></trkpt><trkpt lat="43.7347784" lon="12.3796741"><ele>425.75</ele><time>2026-04-19T12:21:04.681Z</time></trkpt><trkpt lat="43.7348856" lon="12.3797718"><ele>426.5</ele><time>2026-04-19T12:21:05.681Z</time></trkpt><trkpt lat="43.7350131" lon="12.3798617"><ele>427.25</ele><time>2026-04-19T12:21:06.683Z</time></trkpt><trkpt lat="43.735142" lon="12.3799582"><ele>428.0</ele><time>2026-04-19T12:21:07.684Z</time></trkpt><trkpt lat="43.7352765" lon="12.3800554"><ele>430.3333333333333</ele><time>2026-04-19T12:21:08.684Z</time></trkpt><trkpt lat="43.7354135" lon="12.3801544"><ele>432.66666666666663</ele><time>2026-04-19T12:21:09.685Z</time></trkpt><trkpt lat="43.7355615" lon="12.3802301"><ele>435.0</ele><time>2026-04-19T12:21:10.691Z</time></trkpt><trkpt lat="43.7357369" lon="12.3802832"><ele>435.0</ele><time>2026-04-19T12:21:11.691Z</time></trkpt><trkpt lat="43.7359045" lon="12.3803251"><ele>435.0</ele><time>2026-04-19T12:21:12.687Z</time></trkpt><trkpt lat="43.7360801" lon="12.3803485"><ele>435.0</ele><time>2026-04-19T12:21:13.691Z</time></trkpt><trkpt lat="43.736248" lon="12.3803812"><ele>438.33333333333337</ele><time>2026-04-19T12:21:14.691Z</time></trkpt><trkpt lat="43.7364111" lon="12.3804205"><ele>441.6666666666667</ele><time>2026-04-19T12:21:15.709Z</time></trkpt><trkpt lat="43.7365646" lon="12.3804622"><ele>445.0</ele><time>2026-04-19T12:21:16.692Z</time></trkpt><trkpt lat="43.7367005" lon="12.3805233"><ele>445.0</ele><time>2026-04-19T12:21:17.694Z</time></trkpt><trkpt lat="43.736808" lon="12.3806297"><ele>445.0</ele><time>2026-04-19T12:21:18.701Z</time></trkpt><trkpt lat="43.7369009" lon="12.3807717"><ele>445.0</ele><time>2026-04-19T12:21:19.7Z</time></trkpt><trkpt lat="43.7369869" lon="12.3809242"><ele>445.0</ele><time>2026-04-19T12:21:20.696Z</time></trkpt><trkpt lat="43.7370761" lon="12.3811027"><ele>450.0</ele><time>2026-04-19T12:21:21.698Z</time></trkpt><trkpt lat="43.7371519" lon="12.3812789"><ele>455.0</ele><time>2026-04-19T12:21:22.697Z</time></trkpt><trkpt lat="43.7372159" lon="12.3814805"><ele>460.0</ele><time>2026-04-19T12:21:23.693Z</time></trkpt><trkpt lat="43.7372684" lon="12.3816975"><ele>460.0</ele><time>2026-04-19T12:21:24.699Z</time></trkpt><trkpt lat="43.7373232" lon="12.3819146"><ele>460.0</ele><time>2026-04-19T12:21:25.704Z</time></trkpt><trkpt lat="43.7373863" lon="12.3821261"><ele>460.0</ele><time>2026-04-19T12:21:26.699Z</time></trkpt><trkpt lat="43.7374525" lon="12.3823418"><ele>460.6666666666667</ele><time>2026-04-19T12:21:27.704Z</time></trkpt><trkpt lat="43.737515" lon="12.3825452"><ele>461.33333333333337</ele><time>2026-04-19T12:21:28.7Z</time></trkpt><trkpt lat="43.7375835" lon="12.3827479"><ele>462.0</ele><time>2026-04-19T12:21:29.699Z</time></trkpt><trkpt lat="43.737662" lon="12.3829426"><ele>465.6</ele><time>2026-04-19T12:21:30.7Z</time></trkpt><trkpt lat="43.7377337" lon="12.3831066"><ele>469.20000000000005</ele><time>2026-04-19T12:21:31.693Z</time></trkpt><trkpt lat="43.737798" lon="12.3832429"><ele>472.8</ele><time>2026-04-19T12:21:32.695Z</time></trkpt><trkpt lat="43.737871" lon="12.3833232"><ele>476.4</ele><time>2026-04-19T12:21:33.691Z</time></trkpt><trkpt lat="43.7379541" lon="12.3833694"><ele>480.0</ele><time>2026-04-19T12:21:34.692Z</time></trkpt><trkpt lat="43.7380434" lon="12.3833667"><ele>480.0</ele><time>2026-04-19T12:21:35.69Z</time></trkpt><trkpt lat="43.7381346" lon="12.3833252"><ele>480.0</ele><time>2026-04-19T12:21:36.687Z</time></trkpt><trkpt lat="43.7382167" lon="12.3832545"><ele>480.0</ele><time>2026-04-19T12:21:37.69Z</time></trkpt><trkpt lat="43.7382879" lon="12.3831502"><ele>480.0</ele><time>2026-04-19T12:21:38.693Z</time></trkpt><trkpt lat="43.7383335" lon="12.3830114"><ele>480.0</ele><time>2026-04-19T12:21:39.693Z</time></trkpt><trkpt lat="43.7383502" lon="12.3828485"><ele>480.75</ele><time>2026-04-19T12:21:40.695Z</time></trkpt><trkpt lat="43.7383249" lon="12.3826886"><ele>481.5</ele><time>2026-04-19T12:21:41.701Z</time></trkpt><trkpt lat="43.7382789" lon="12.3825041"><ele>482.25</ele><time>2026-04-19T12:21:42.698Z</time></trkpt><trkpt lat="43.7382465" lon="12.3823186"><ele>483.0</ele><time>2026-04-19T12:21:43.702Z</time></trkpt><trkpt lat="43.7382495" lon="12.3821177"><ele>484.33333333333337</ele><time>2026-04-19T12:21:44.706Z</time></trkpt><trkpt lat="43.7382768" lon="12.3819034"><ele>485.6666666666667</ele><time>2026-04-19T12:21:45.697Z</time></trkpt><trkpt lat="43.7383157" lon="12.3816441"><ele>487.0</ele><time>2026-04-19T12:21:46.721Z</time></trkpt><trkpt lat="43.7383348" lon="12.3813995"><ele>489.0</ele><time>2026-04-19T12:21:47.696Z</time></trkpt><trkpt lat="43.7383176" lon="12.3811688"><ele>491.0</ele><time>2026-04-19T12:21:48.7Z</time></trkpt><trkpt lat="43.7382465" lon="12.3809436"><ele>493.0</ele><time>2026-04-19T12:21:49.702Z</time></trkpt><trkpt lat="43.7381684" lon="12.3807119"><ele>494.33333333333337</ele><time>2026-04-19T12:21:50.698Z</time></trkpt><trkpt lat="43.7380832" lon="12.3804801"><ele>495.66666666666663</ele><time>2026-04-19T12:21:51.702Z</time></trkpt><trkpt lat="43.7379896" lon="12.3802651"><ele>497.0</ele><time>2026-04-19T12:21:52.703Z</time></trkpt><trkpt lat="43.7379041" lon="12.3800936"><ele>497.0</ele><time>2026-04-19T12:21:53.717Z</time></trkpt><trkpt lat="43.7378411" lon="12.3799586"><ele>497.00000000000006</ele><time>2026-04-19T12:21:54.709Z</time></trkpt><trkpt lat="43.7378167" lon="12.3798589"><ele>497.00000000000006</ele><time>2026-04-19T12:21:55.709Z</time></trkpt><trkpt lat="43.7378665" lon="12.3797024"><ele>497.0</ele><time>2026-04-19T12:21:57.714Z</time></trkpt><trkpt lat="43.7379423" lon="12.3796893"><ele>497.0</ele><time>2026-04-19T12:21:58.711Z</time></trkpt><trkpt lat="43.7380255" lon="12.3797284"><ele>497.0</ele><time>2026-04-19T12:21:59.711Z</time></trkpt><trkpt lat="43.738092" lon="12.3798138"><ele>497.00000000000006</ele><time>2026-04-19T12:22:00.717Z</time></trkpt><trkpt lat="43.7381568" lon="12.379924"><ele>497.00000000000006</ele><time>2026-04-19T12:22:01.712Z</time></trkpt><trkpt lat="43.7382187" lon="12.3800609"><ele>497.0</ele><time>2026-04-19T12:22:02.704Z</time></trkpt><trkpt lat="43.7382861" lon="12.3802048"><ele>497.0</ele><time>2026-04-19T12:22:03.71Z</time></trkpt><trkpt lat="43.7383566" lon="12.3803618"><ele>495.66666666666663</ele><time>2026-04-19T12:22:04.712Z</time></trkpt><trkpt lat="43.7384412" lon="12.3805289"><ele>494.33333333333337</ele><time>2026-04-19T12:22:05.705Z</time></trkpt><trkpt lat="43.7385378" lon="12.3807025"><ele>493.0</ele><time>2026-04-19T12:22:06.709Z</time></trkpt><trkpt lat="43.7386384" lon="12.380887"><ele>491.6666666666667</ele><time>2026-04-19T12:22:07.705Z</time></trkpt><trkpt lat="43.7387296" lon="12.381072"><ele>490.33333333333337</ele><time>2026-04-19T12:22:08.71Z</time></trkpt><trkpt lat="43.7388028" lon="12.3812646"><ele>489.0</ele><time>2026-04-19T12:22:09.71Z</time></trkpt><trkpt lat="43.7388383" lon="12.3814641"><ele>492.0</ele><time>2026-04-19T12:22:10.707Z</time></trkpt><trkpt lat="43.7388473" lon="12.3816599"><ele>495.0</ele><time>2026-04-19T12:22:11.711Z</time></trkpt><trkpt lat="43.7388549" lon="12.3818607"><ele>498.0</ele><time>2026-04-19T12:22:12.706Z</time></trkpt><trkpt lat="43.7388626" lon="12.3820688"><ele>501.0</ele><time>2026-04-19T12:22:13.712Z</time></trkpt><trkpt lat="43.7388782" lon="12.3822638"><ele>503.25</ele><time>2026-04-19T12:22:14.709Z</time></trkpt><trkpt lat="43.7389044" lon="12.3824333"><ele>505.5</ele><time>2026-04-19T12:22:15.707Z</time></trkpt><trkpt lat="43.7389417" lon="12.3825831"><ele>507.75</ele><time>2026-04-19T12:22:16.717Z</time></trkpt><trkpt lat="43.739007" lon="12.3827405"><ele>510.0</ele><time>2026-04-19T12:22:17.726Z</time></trkpt><trkpt lat="43.7390744" lon="12.3829111"><ele>509.33333333333337</ele><time>2026-04-19T12:22:18.706Z</time></trkpt><trkpt lat="43.7391524" lon="12.3830943"><ele>508.6666666666667</ele><time>2026-04-19T12:22:19.705Z</time></trkpt><trkpt lat="43.7392415" lon="12.3832949"><ele>508.0</ele><time>2026-04-19T12:22:20.697Z</time></trkpt><trkpt lat="43.7393379" lon="12.3835025"><ele>506.33333333333337</ele><time>2026-04-19T12:22:21.7Z</time></trkpt><trkpt lat="43.7394357" lon="12.383721"><ele>504.66666666666663</ele><time>2026-04-19T12:22:22.702Z</time></trkpt><trkpt lat="43.7395227" lon="12.3839395"><ele>503.0</ele><time>2026-04-19T12:22:23.703Z</time></trkpt><trkpt lat="43.7396049" lon="12.3841243"><ele>506.25</ele><time>2026-04-19T12:22:24.713Z</time></trkpt><trkpt lat="43.7396845" lon="12.3842881"><ele>509.5</ele><time>2026-04-19T12:22:25.711Z</time></trkpt><trkpt lat="43.7397641" lon="12.384409"><ele>512.75</ele><time>2026-04-19T12:22:26.71Z</time></trkpt><trkpt lat="43.7398739" lon="12.3844956"><ele>516.0</ele><time>2026-04-19T12:22:27.71Z</time></trkpt><trkpt lat="43.740015" lon="12.3845629"><ele>516.0</ele><time>2026-04-19T12:22:28.716Z</time></trkpt><trkpt lat="43.7401561" lon="12.3846364"><ele>516.0</ele><time>2026-04-19T12:22:29.715Z</time></trkpt><trkpt lat="43.7402931" lon="12.3847107"><ele>516.0</ele><time>2026-04-19T12:22:30.715Z</time></trkpt><trkpt lat="43.7404177" lon="12.3847831"><ele>516.0</ele><time>2026-04-19T12:22:31.709Z</time></trkpt><trkpt lat="43.7405454" lon="12.3848629"><ele>520.0</ele><time>2026-04-19T12:22:32.712Z</time></trkpt><trkpt lat="43.7406706" lon="12.3849204"><ele>524.0</ele><time>2026-04-19T12:22:33.714Z</time></trkpt><trkpt lat="43.7408116" lon="12.384937"><ele>528.0</ele><time>2026-04-19T12:22:34.708Z</time></trkpt><trkpt lat="43.7409565" lon="12.3849059"><ele>532.0</ele><time>2026-04-19T12:22:35.711Z</time></trkpt><trkpt lat="43.7410788" lon="12.3848597"><ele>532.0</ele><time>2026-04-19T12:22:36.71Z</time></trkpt><trkpt lat="43.7411895" lon="12.3848214"><ele>532.0</ele><time>2026-04-19T12:22:37.709Z</time></trkpt><trkpt lat="43.7412692" lon="12.384747"><ele>532.0</ele><time>2026-04-19T12:22:38.705Z</time></trkpt><trkpt lat="43.7413551" lon="12.3846565"><ele>532.0</ele><time>2026-04-19T12:22:39.708Z</time></trkpt><trkpt lat="43.741427" lon="12.3845195"><ele>532.0</ele><time>2026-04-19T12:22:40.704Z</time></trkpt><trkpt lat="43.7415049" lon="12.3843414"><ele>531.0</ele><time>2026-04-19T12:22:41.701Z</time></trkpt><trkpt lat="43.7415789" lon="12.3841539"><ele>530.0</ele><time>2026-04-19T12:22:42.705Z</time></trkpt><trkpt lat="43.7416544" lon="12.3839597"><ele>529.0</ele><time>2026-04-19T12:22:43.709Z</time></trkpt><trkpt lat="43.7417383" lon="12.3837605"><ele>527.0</ele><time>2026-04-19T12:22:44.704Z</time></trkpt><trkpt lat="43.7418245" lon="12.3835641"><ele>525.0</ele><time>2026-04-19T12:22:45.707Z</time></trkpt><trkpt lat="43.7419107" lon="12.3833795"><ele>523.0</ele><time>2026-04-19T12:22:46.709Z</time></trkpt><trkpt lat="43.7419965" lon="12.3832042"><ele>523.5</ele><time>2026-04-19T12:22:47.71Z</time></trkpt><trkpt lat="43.742075" lon="12.3830338"><ele>524.0</ele><time>2026-04-19T12:22:48.732Z</time></trkpt><trkpt lat="43.7421554" lon="12.3828789"><ele>524.5</ele><time>2026-04-19T12:22:49.708Z</time></trkpt><trkpt lat="43.7422445" lon="12.3827308"><ele>525.0</ele><time>2026-04-19T12:22:50.709Z</time></trkpt><trkpt lat="43.7423365" lon="12.3826051"><ele>525.0</ele><time>2026-04-19T12:22:51.713Z</time></trkpt><trkpt lat="43.7424459" lon="12.3825448"><ele>525.0</ele><time>2026-04-19T12:22:52.709Z</time></trkpt><trkpt lat="43.7425763" lon="12.3824838"><ele>525.0</ele><time>2026-04-19T12:22:53.71Z</time></trkpt><trkpt lat="43.7427132" lon="12.3823927"><ele>525.0</ele><time>2026-04-19T12:22:54.702Z</time></trkpt><trkpt lat="43.7428414" lon="12.3823046"><ele>523.25</ele><time>2026-04-19T12:22:55.703Z</time></trkpt><trkpt lat="43.7429614" lon="12.3822089"><ele>521.5</ele><time>2026-04-19T12:22:56.701Z</time></trkpt><trkpt lat="43.7430614" lon="12.3821131"><ele>519.75</ele><time>2026-04-19T12:22:57.71Z</time></trkpt><trkpt lat="43.7431381" lon="12.3819872"><ele>518.0</ele><time>2026-04-19T12:22:58.702Z</time></trkpt><trkpt lat="43.7431959" lon="12.3818454"><ele>518.0</ele><time>2026-04-19T12:22:59.697Z</time></trkpt><trkpt lat="43.743239" lon="12.3816884"><ele>518.0</ele><time>2026-04-19T12:23:00.708Z</time></trkpt><trkpt lat="43.7432994" lon="12.3815305"><ele>518.0</ele><time>2026-04-19T12:23:01.693Z</time></trkpt><trkpt lat="43.7433763" lon="12.3813809"><ele>518.0</ele><time>2026-04-19T12:23:02.709Z</time></trkpt><trkpt lat="43.7434775" lon="12.3812548"><ele>517.3333333333333</ele><time>2026-04-19T12:23:03.709Z</time></trkpt><trkpt lat="43.7436074" lon="12.3811492"><ele>516.6666666666666</ele><time>2026-04-19T12:23:04.708Z</time></trkpt><trkpt lat="43.7437729" lon="12.3810619"><ele>516.0</ele><time>2026-04-19T12:23:05.701Z</time></trkpt><trkpt lat="43.7439459" lon="12.3809693"><ele>516.0</ele><time>2026-04-19T12:23:06.706Z</time></trkpt><trkpt lat="43.7441123" lon="12.3808692"><ele>516.0</ele><time>2026-04-19T12:23:07.705Z</time></trkpt><trkpt lat="43.7442685" lon="12.3807761"><ele>516.0</ele><time>2026-04-19T12:23:08.702Z</time></trkpt><trkpt lat="43.7444201" lon="12.3806986"><ele>514.0</ele><time>2026-04-19T12:23:09.712Z</time></trkpt><trkpt lat="43.7445805" lon="12.3806548"><ele>512.0</ele><time>2026-04-19T12:23:10.708Z</time></trkpt><trkpt lat="43.7447464" lon="12.3806268"><ele>510.0</ele><time>2026-04-19T12:23:11.702Z</time></trkpt><trkpt lat="43.7449154" lon="12.3806132"><ele>510.0</ele><time>2026-04-19T12:23:12.71Z</time></trkpt><trkpt lat="43.7450907" lon="12.3806072"><ele>510.0</ele><time>2026-04-19T12:23:13.711Z</time></trkpt><trkpt lat="43.7452579" lon="12.3805928"><ele>510.0</ele><time>2026-04-19T12:23:14.715Z</time></trkpt><trkpt lat="43.7454031" lon="12.3805761"><ele>510.5</ele><time>2026-04-19T12:23:15.712Z</time></trkpt><trkpt lat="43.7455408" lon="12.3805495"><ele>511.0</ele><time>2026-04-19T12:23:16.711Z</time></trkpt><trkpt lat="43.7456741" lon="12.3805154"><ele>511.5</ele><time>2026-04-19T12:23:17.709Z</time></trkpt><trkpt lat="43.745796" lon="12.3804439"><ele>512.0</ele><time>2026-04-19T12:23:18.721Z</time></trkpt><trkpt lat="43.7458879" lon="12.3803171"><ele>512.6666666666666</ele><time>2026-04-19T12:23:19.734Z</time></trkpt><trkpt lat="43.7459627" lon="12.3801487"><ele>513.3333333333334</ele><time>2026-04-19T12:23:20.714Z</time></trkpt><trkpt lat="43.746048" lon="12.3799676"><ele>514.0</ele><time>2026-04-19T12:23:21.71Z</time></trkpt><trkpt lat="43.7461257" lon="12.3797612"><ele>516.2</ele><time>2026-04-19T12:23:22.705Z</time></trkpt><trkpt lat="43.7462052" lon="12.3795702"><ele>518.4</ele><time>2026-04-19T12:23:23.71Z</time></trkpt><trkpt lat="43.7462672" lon="12.3794418"><ele>520.6</ele><time>2026-04-19T12:23:24.712Z</time></trkpt><trkpt lat="43.7463385" lon="12.3793663"><ele>522.8</ele><time>2026-04-19T12:23:25.713Z</time></trkpt><trkpt lat="43.7464196" lon="12.3793181"><ele>525.0</ele><time>2026-04-19T12:23:26.705Z</time></trkpt><trkpt lat="43.7465321" lon="12.3792842"><ele>525.0</ele><time>2026-04-19T12:23:27.721Z</time></trkpt><trkpt lat="43.7466589" lon="12.3792589"><ele>525.0</ele><time>2026-04-19T12:23:28.72Z</time></trkpt><trkpt lat="43.746788" lon="12.3792386"><ele>525.0</ele><time>2026-04-19T12:23:29.707Z</time></trkpt><trkpt lat="43.746921" lon="12.3792162"><ele>525.0</ele><time>2026-04-19T12:23:30.709Z</time></trkpt><trkpt lat="43.7470519" lon="12.3791833"><ele>519.3333333333334</ele><time>2026-04-19T12:23:31.711Z</time></trkpt><trkpt lat="43.7471803" lon="12.379143"><ele>513.6666666666667</ele><time>2026-04-19T12:23:32.699Z</time></trkpt><trkpt lat="43.7473199" lon="12.3790715"><ele>508.0</ele><time>2026-04-19T12:23:33.711Z</time></trkpt><trkpt lat="43.7474812" lon="12.3789471"><ele>512.3333333333334</ele><time>2026-04-19T12:23:34.701Z</time></trkpt><trkpt lat="43.7476308" lon="12.3788342"><ele>516.6666666666666</ele><time>2026-04-19T12:23:35.702Z</time></trkpt><trkpt lat="43.7477671" lon="12.3787362"><ele>521.0</ele><time>2026-04-19T12:23:36.706Z</time></trkpt><trkpt lat="43.7479009" lon="12.3786504"><ele>521.0</ele><time>2026-04-19T12:23:37.701Z</time></trkpt><trkpt lat="43.7480519" lon="12.3785968"><ele>521.0</ele><time>2026-04-19T12:23:38.717Z</time></trkpt><trkpt lat="43.7482103" lon="12.3785936"><ele>521.0</ele><time>2026-04-19T12:23:39.714Z</time></trkpt><trkpt lat="43.7483543" lon="12.3786114"><ele>521.0</ele><time>2026-04-19T12:23:40.713Z</time></trkpt><trkpt lat="43.7484929" lon="12.3786463"><ele>521.0</ele><time>2026-04-19T12:23:41.709Z</time></trkpt><trkpt lat="43.7486237" lon="12.3787333"><ele>521.0</ele><time>2026-04-19T12:23:42.706Z</time></trkpt><trkpt lat="43.7487469" lon="12.378868"><ele>521.0</ele><time>2026-04-19T12:23:43.71Z</time></trkpt><trkpt lat="43.7488772" lon="12.3790458"><ele>517.3333333333333</ele><time>2026-04-19T12:23:44.699Z</time></trkpt><trkpt lat="43.7490001" lon="12.3792067"><ele>513.6666666666666</ele><time>2026-04-19T12:23:45.695Z</time></trkpt><trkpt lat="43.749145" lon="12.3793359"><ele>510.0</ele><time>2026-04-19T12:23:46.697Z</time></trkpt><trkpt lat="43.7492836" lon="12.3794232"><ele>509.0</ele><time>2026-04-19T12:23:47.707Z</time></trkpt><trkpt lat="43.7493992" lon="12.3795045"><ele>508.0</ele><time>2026-04-19T12:23:48.701Z</time></trkpt><trkpt lat="43.7495" lon="12.3796193"><ele>507.0</ele><time>2026-04-19T12:23:49.71Z</time></trkpt><trkpt lat="43.7495596" lon="12.3797789"><ele>506.0</ele><time>2026-04-19T12:23:50.736Z</time></trkpt><trkpt lat="43.7496012" lon="12.3799604"><ele>506.0</ele><time>2026-04-19T12:23:51.708Z</time></trkpt><trkpt lat="43.7496292" lon="12.380131"><ele>506.0</ele><time>2026-04-19T12:23:52.7Z</time></trkpt><trkpt lat="43.7496559" lon="12.3802661"><ele>506.0</ele><time>2026-04-19T12:23:53.699Z</time></trkpt><trkpt lat="43.7496986" lon="12.3803797"><ele>506.0</ele><time>2026-04-19T12:23:54.712Z</time></trkpt><trkpt lat="43.7497629" lon="12.3804594"><ele>506.0</ele><time>2026-04-19T12:23:55.71Z</time></trkpt><trkpt lat="43.7498618" lon="12.3805049"><ele>506.0</ele><time>2026-04-19T12:23:56.709Z</time></trkpt><trkpt lat="43.7499952" lon="12.380509"><ele>506.0</ele><time>2026-04-19T12:23:57.71Z</time></trkpt><trkpt lat="43.750167" lon="12.3805025"><ele>506.0</ele><time>2026-04-19T12:23:58.716Z</time></trkpt><trkpt lat="43.7503671" lon="12.3805149"><ele>499.66666666666663</ele><time>2026-04-19T12:23:59.706Z</time></trkpt><trkpt lat="43.7505659" lon="12.3805306"><ele>493.33333333333337</ele><time>2026-04-19T12:24:00.711Z</time></trkpt><trkpt lat="43.7507411" lon="12.3805508"><ele>487.0</ele><time>2026-04-19T12:24:01.709Z</time></trkpt><trkpt lat="43.7508745" lon="12.3805804"><ele>487.0</ele><time>2026-04-19T12:24:02.71Z</time></trkpt><trkpt lat="43.7509859" lon="12.3806016"><ele>487.00000000000006</ele><time>2026-04-19T12:24:03.702Z</time></trkpt><trkpt lat="43.7510818" lon="12.3806167"><ele>487.00000000000006</ele><time>2026-04-19T12:24:04.707Z</time></trkpt><trkpt lat="43.7511841" lon="12.3806435"><ele>487.0</ele><time>2026-04-19T12:24:05.706Z</time></trkpt><trkpt lat="43.7512745" lon="12.3806846"><ele>487.0</ele><time>2026-04-19T12:24:06.709Z</time></trkpt><trkpt lat="43.7513417" lon="12.380748"><ele>487.0</ele><time>2026-04-19T12:24:07.709Z</time></trkpt><trkpt lat="43.7513583" lon="12.3808552"><ele>487.0</ele><time>2026-04-19T12:24:09.709Z</time></trkpt><trkpt lat="43.7512946" lon="12.380878"><ele>487.0</ele><time>2026-04-19T12:24:11.723Z</time></trkpt><trkpt lat="43.7512317" lon="12.3808743"><ele>487.0</ele><time>2026-04-19T12:24:12.724Z</time></trkpt><trkpt lat="43.7511577" lon="12.3808707"><ele>487.0</ele><time>2026-04-19T12:24:13.713Z</time></trkpt><trkpt lat="43.7510762" lon="12.3808837"><ele>487.0</ele><time>2026-04-19T12:24:14.692Z</time></trkpt><trkpt lat="43.7510051" lon="12.3809166"><ele>487.0</ele><time>2026-04-19T12:24:15.711Z</time></trkpt><trkpt lat="43.7509459" lon="12.3809653"><ele>487.0</ele><time>2026-04-19T12:24:16.71Z</time></trkpt><trkpt lat="43.7508839" lon="12.381101"><ele>487.00000000000006</ele><time>2026-04-19T12:24:18.695Z</time></trkpt><trkpt lat="43.7509082" lon="12.3812223"><ele>487.00000000000006</ele><time>2026-04-19T12:24:20.736Z</time></trkpt><trkpt lat="43.7510107" lon="12.3812812"><ele>487.0</ele><time>2026-04-19T12:24:22.721Z</time></trkpt><trkpt lat="43.7510849" lon="12.3812659"><ele>487.0</ele><time>2026-04-19T12:24:23.711Z</time></trkpt><trkpt lat="43.7511869" lon="12.3812501"><ele>487.0</ele><time>2026-04-19T12:24:24.708Z</time></trkpt><trkpt lat="43.7513005" lon="12.3812521"><ele>487.00000000000006</ele><time>2026-04-19T12:24:25.707Z</time></trkpt><trkpt lat="43.7514058" lon="12.381295"><ele>487.00000000000006</ele><time>2026-04-19T12:24:26.698Z</time></trkpt><trkpt lat="43.7514974" lon="12.3813711"><ele>487.0</ele><time>2026-04-19T12:24:27.708Z</time></trkpt><trkpt lat="43.7515818" lon="12.3814814"><ele>487.0</ele><time>2026-04-19T12:24:28.699Z</time></trkpt><trkpt lat="43.7516476" lon="12.3815835"><ele>485.1666666666667</ele><time>2026-04-19T12:24:29.704Z</time></trkpt><trkpt lat="43.7516927" lon="12.381683"><ele>483.33333333333337</ele><time>2026-04-19T12:24:30.71Z</time></trkpt><trkpt lat="43.7517019" lon="12.3817791"><ele>481.5</ele><time>2026-04-19T12:24:31.697Z</time></trkpt><trkpt lat="43.7516866" lon="12.3818915"><ele>479.66666666666663</ele><time>2026-04-19T12:24:32.69Z</time></trkpt><trkpt lat="43.7516548" lon="12.3820116"><ele>477.8333333333333</ele><time>2026-04-19T12:24:33.704Z</time></trkpt><trkpt lat="43.7515975" lon="12.382149"><ele>476.0</ele><time>2026-04-19T12:24:34.705Z</time></trkpt><trkpt lat="43.7515222" lon="12.3823142"><ele>473.66666666666663</ele><time>2026-04-19T12:24:35.695Z</time></trkpt><trkpt lat="43.7514559" lon="12.382505"><ele>471.33333333333337</ele><time>2026-04-19T12:24:36.705Z</time></trkpt><trkpt lat="43.7514098" lon="12.3827453"><ele>469.0</ele><time>2026-04-19T12:24:37.698Z</time></trkpt><trkpt lat="43.7513691" lon="12.382998"><ele>468.6666666666667</ele><time>2026-04-19T12:24:38.7Z</time></trkpt><trkpt lat="43.7513269" lon="12.3832284"><ele>468.33333333333337</ele><time>2026-04-19T12:24:39.698Z</time></trkpt><trkpt lat="43.7512838" lon="12.3834407"><ele>468.0</ele><time>2026-04-19T12:24:40.696Z</time></trkpt><trkpt lat="43.7512376" lon="12.3836366"><ele>468.0</ele><time>2026-04-19T12:24:41.705Z</time></trkpt><trkpt lat="43.751188" lon="12.3838259"><ele>468.0</ele><time>2026-04-19T12:24:42.705Z</time></trkpt><trkpt lat="43.751158" lon="12.3839941"><ele>468.0</ele><time>2026-04-19T12:24:43.705Z</time></trkpt><trkpt lat="43.7511375" lon="12.3841659"><ele>468.0</ele><time>2026-04-19T12:24:44.698Z</time></trkpt><trkpt lat="43.7511453" lon="12.3843263"><ele>467.75</ele><time>2026-04-19T12:24:45.707Z</time></trkpt><trkpt lat="43.7511736" lon="12.3844836"><ele>467.5</ele><time>2026-04-19T12:24:46.706Z</time></trkpt><trkpt lat="43.751232" lon="12.3846425"><ele>467.25</ele><time>2026-04-19T12:24:47.706Z</time></trkpt><trkpt lat="43.75129" lon="12.3848264"><ele>467.0</ele><time>2026-04-19T12:24:48.701Z</time></trkpt><trkpt lat="43.7513498" lon="12.3850061"><ele>466.6</ele><time>2026-04-19T12:24:49.701Z</time></trkpt><trkpt lat="43.7513803" lon="12.3851744"><ele>466.20000000000005</ele><time>2026-04-19T12:24:50.706Z</time></trkpt><trkpt lat="43.7513761" lon="12.3853291"><ele>465.8</ele><time>2026-04-19T12:24:51.724Z</time></trkpt><trkpt lat="43.7513424" lon="12.3854612"><ele>465.4</ele><time>2026-04-19T12:24:52.705Z</time></trkpt><trkpt lat="43.7512844" lon="12.3855788"><ele>465.0</ele><time>2026-04-19T12:24:53.705Z</time></trkpt><trkpt lat="43.7512055" lon="12.3856647"><ele>465.0</ele><time>2026-04-19T12:24:54.703Z</time></trkpt><trkpt lat="43.751127" lon="12.3857106"><ele>465.0</ele><time>2026-04-19T12:24:55.7Z</time></trkpt><trkpt lat="43.7510417" lon="12.3857305"><ele>465.0</ele><time>2026-04-19T12:24:56.7Z</time></trkpt><trkpt lat="43.7509501" lon="12.3857037"><ele>465.0</ele><time>2026-04-19T12:24:57.703Z</time></trkpt><trkpt lat="43.7508528" lon="12.3856337"><ele>465.0</ele><time>2026-04-19T12:24:58.7Z</time></trkpt><trkpt lat="43.7507475" lon="12.3855209"><ele>462.33333333333337</ele><time>2026-04-19T12:24:59.691Z</time></trkpt><trkpt lat="43.7506375" lon="12.3853926"><ele>459.6666666666667</ele><time>2026-04-19T12:25:00.701Z</time></trkpt><trkpt lat="43.7505086" lon="12.3852455"><ele>457.0</ele><time>2026-04-19T12:25:01.678Z</time></trkpt><trkpt lat="43.7503776" lon="12.3850778"><ele>457.0</ele><time>2026-04-19T12:25:02.683Z</time></trkpt><trkpt lat="43.7502179" lon="12.384906"><ele>457.0</ele><time>2026-04-19T12:25:03.684Z</time></trkpt><trkpt lat="43.7500702" lon="12.3847658"><ele>457.0</ele><time>2026-04-19T12:25:04.678Z</time></trkpt><trkpt lat="43.7499353" lon="12.3846399"><ele>456.6666666666667</ele><time>2026-04-19T12:25:05.682Z</time></trkpt><trkpt lat="43.7497909" lon="12.384516"><ele>456.33333333333337</ele><time>2026-04-19T12:25:06.681Z</time></trkpt><trkpt lat="43.7496369" lon="12.3844164"><ele>456.0</ele><time>2026-04-19T12:25:07.68Z</time></trkpt><trkpt lat="43.7494695" lon="12.3843365"><ele>457.5</ele><time>2026-04-19T12:25:08.677Z</time></trkpt><trkpt lat="43.7493285" lon="12.3842586"><ele>459.0</ele><time>2026-04-19T12:25:09.689Z</time></trkpt><trkpt lat="43.749208" lon="12.384187"><ele>460.5</ele><time>2026-04-19T12:25:10.683Z</time></trkpt><trkpt lat="43.7491182" lon="12.3841232"><ele>462.0</ele><time>2026-04-19T12:25:11.682Z</time></trkpt><trkpt lat="43.7490375" lon="12.3840939"><ele>462.0</ele><time>2026-04-19T12:25:12.697Z</time></trkpt><trkpt lat="43.7489129" lon="12.3841408"><ele>462.0</ele><time>2026-04-19T12:25:14.698Z</time></trkpt><trkpt lat="43.7488513" lon="12.384203"><ele>462.0</ele><time>2026-04-19T12:25:15.713Z</time></trkpt><trkpt lat="43.7488225" lon="12.3842881"><ele>462.0</ele><time>2026-04-19T12:25:16.71Z</time></trkpt><trkpt lat="43.7488101" lon="12.3843819"><ele>462.0</ele><time>2026-04-19T12:25:17.709Z</time></trkpt><trkpt lat="43.7488147" lon="12.3845042"><ele>462.0</ele><time>2026-04-19T12:25:18.711Z</time></trkpt><trkpt lat="43.7488388" lon="12.3846629"><ele>463.0</ele><time>2026-04-19T12:25:19.716Z</time></trkpt><trkpt lat="43.7488748" lon="12.3848688"><ele>464.0</ele><time>2026-04-19T12:25:20.705Z</time></trkpt><trkpt lat="43.748911" lon="12.3850825"><ele>465.0</ele><time>2026-04-19T12:25:21.707Z</time></trkpt><trkpt lat="43.7489215" lon="12.3852793"><ele>465.0</ele><time>2026-04-19T12:25:22.727Z</time></trkpt><trkpt lat="43.7489033" lon="12.3854348"><ele>465.0</ele><time>2026-04-19T12:25:23.703Z</time></trkpt><trkpt lat="43.7488576" lon="12.3855489"><ele>465.0</ele><time>2026-04-19T12:25:24.715Z</time></trkpt><trkpt lat="43.7487867" lon="12.3856332"><ele>465.0</ele><time>2026-04-19T12:25:25.7Z</time></trkpt><trkpt lat="43.7486991" lon="12.385742"><ele>465.0</ele><time>2026-04-19T12:25:26.708Z</time></trkpt><trkpt lat="43.7485869" lon="12.3858444"><ele>459.25</ele><time>2026-04-19T12:25:27.714Z</time></trkpt><trkpt lat="43.7484603" lon="12.3859351"><ele>453.5</ele><time>2026-04-19T12:25:28.704Z</time></trkpt><trkpt lat="43.7483419" lon="12.3860048"><ele>447.75</ele><time>2026-04-19T12:25:29.703Z</time></trkpt><trkpt lat="43.748227" lon="12.3860701"><ele>442.0</ele><time>2026-04-19T12:25:30.714Z</time></trkpt><trkpt lat="43.748133" lon="12.3861181"><ele>442.0</ele><time>2026-04-19T12:25:31.709Z</time></trkpt><trkpt lat="43.7480554" lon="12.3861599"><ele>442.00000000000006</ele><time>2026-04-19T12:25:32.709Z</time></trkpt><trkpt lat="43.7479953" lon="12.3862069"><ele>442.00000000000006</ele><time>2026-04-19T12:25:33.709Z</time></trkpt><trkpt lat="43.7479417" lon="12.3863609"><ele>442.0</ele><time>2026-04-19T12:25:35.72Z</time></trkpt><trkpt lat="43.7479376" lon="12.3864772"><ele>442.0</ele><time>2026-04-19T12:25:36.72Z</time></trkpt><trkpt lat="43.7479502" lon="12.3866208"><ele>442.0</ele><time>2026-04-19T12:25:37.721Z</time></trkpt><trkpt lat="43.7479798" lon="12.3867888"><ele>442.0</ele><time>2026-04-19T12:25:38.72Z</time></trkpt><trkpt lat="43.7480198" lon="12.3869707"><ele>442.0</ele><time>2026-04-19T12:25:39.716Z</time></trkpt><trkpt lat="43.7480658" lon="12.3871581"><ele>442.0</ele><time>2026-04-19T12:25:40.711Z</time></trkpt><trkpt lat="43.7481129" lon="12.3873224"><ele>439.6</ele><time>2026-04-19T12:25:41.707Z</time></trkpt><trkpt lat="43.7481539" lon="12.3874771"><ele>437.20000000000005</ele><time>2026-04-19T12:25:42.711Z</time></trkpt><trkpt lat="43.7481865" lon="12.3876091"><ele>434.8</ele><time>2026-04-19T12:25:43.709Z</time></trkpt><trkpt lat="43.7482209" lon="12.3877228"><ele>432.4</ele><time>2026-04-19T12:25:44.708Z</time></trkpt><trkpt lat="43.7482589" lon="12.3878104"><ele>430.0</ele><time>2026-04-19T12:25:45.707Z</time></trkpt><trkpt lat="43.7483567" lon="12.3878985"><ele>430.00000000000006</ele><time>2026-04-19T12:25:47.712Z</time></trkpt><trkpt lat="43.7484199" lon="12.3878826"><ele>430.0</ele><time>2026-04-19T12:25:48.708Z</time></trkpt><trkpt lat="43.7485072" lon="12.3878462"><ele>430.0</ele><time>2026-04-19T12:25:49.708Z</time></trkpt><trkpt lat="43.7486019" lon="12.3878266"><ele>430.0</ele><time>2026-04-19T12:25:50.709Z</time></trkpt><trkpt lat="43.7486894" lon="12.3878275"><ele>430.00000000000006</ele><time>2026-04-19T12:25:51.706Z</time></trkpt><trkpt lat="43.7487633" lon="12.3878783"><ele>430.0</ele><time>2026-04-19T12:25:52.709Z</time></trkpt><trkpt lat="43.748823" lon="12.387978"><ele>428.5</ele><time>2026-04-19T12:25:53.726Z</time></trkpt><trkpt lat="43.7488756" lon="12.3881187"><ele>427.0</ele><time>2026-04-19T12:25:54.701Z</time></trkpt><trkpt lat="43.7489312" lon="12.3882801"><ele>425.5</ele><time>2026-04-19T12:25:55.711Z</time></trkpt><trkpt lat="43.7489896" lon="12.3884478"><ele>424.0</ele><time>2026-04-19T12:25:56.706Z</time></trkpt><trkpt lat="43.7490387" lon="12.3886133"><ele>424.0</ele><time>2026-04-19T12:25:57.708Z</time></trkpt><trkpt lat="43.7490639" lon="12.3887774"><ele>424.0</ele><time>2026-04-19T12:25:58.704Z</time></trkpt><trkpt lat="43.7490696" lon="12.3889363"><ele>424.0</ele><time>2026-04-19T12:25:59.708Z</time></trkpt><trkpt lat="43.7490852" lon="12.3890589"><ele>424.0</ele><time>2026-04-19T12:26:00.716Z</time></trkpt><trkpt lat="43.7491123" lon="12.389149"><ele>424.0</ele><time>2026-04-19T12:26:01.713Z</time></trkpt><trkpt lat="43.7492034" lon="12.3892164"><ele>423.2</ele><time>2026-04-19T12:26:03.698Z</time></trkpt><trkpt lat="43.7493476" lon="12.389198"><ele>422.4</ele><time>2026-04-19T12:26:05.703Z</time></trkpt><trkpt lat="43.7494406" lon="12.389153"><ele>421.6</ele><time>2026-04-19T12:26:06.705Z</time></trkpt><trkpt lat="43.7495239" lon="12.3891276"><ele>420.8</ele><time>2026-04-19T12:26:07.697Z</time></trkpt><trkpt lat="43.7495944" lon="12.38914"><ele>420.0</ele><time>2026-04-19T12:26:08.708Z</time></trkpt><trkpt lat="43.7496481" lon="12.3891967"><ele>420.0</ele><time>2026-04-19T12:26:09.705Z</time></trkpt><trkpt lat="43.7496782" lon="12.3892844"><ele>420.0</ele><time>2026-04-19T12:26:10.706Z</time></trkpt><trkpt lat="43.7496927" lon="12.3893998"><ele>420.0</ele><time>2026-04-19T12:26:11.696Z</time></trkpt><trkpt lat="43.7496957" lon="12.3895317"><ele>420.0</ele><time>2026-04-19T12:26:12.697Z</time></trkpt><trkpt lat="43.7496809" lon="12.3896659"><ele>420.0</ele><time>2026-04-19T12:26:13.694Z</time></trkpt><trkpt lat="43.7496459" lon="12.3898063"><ele>418.75</ele><time>2026-04-19T12:26:14.704Z</time></trkpt><trkpt lat="43.7495831" lon="12.3899547"><ele>417.5</ele><time>2026-04-19T12:26:15.697Z</time></trkpt><trkpt lat="43.7495063" lon="12.3901084"><ele>416.25</ele><time>2026-04-19T12:26:16.703Z</time></trkpt><trkpt lat="43.7494459" lon="12.3902776"><ele>415.0</ele><time>2026-04-19T12:26:17.7Z</time></trkpt><trkpt lat="43.7493996" lon="12.3904633"><ele>409.0</ele><time>2026-04-19T12:26:18.708Z</time></trkpt><trkpt lat="43.7493687" lon="12.3906834"><ele>403.0</ele><time>2026-04-19T12:26:19.709Z</time></trkpt><trkpt lat="43.74936" lon="12.3909489"><ele>397.0</ele><time>2026-04-19T12:26:20.703Z</time></trkpt><trkpt lat="43.7493436" lon="12.3911996"><ele>397.33333333333337</ele><time>2026-04-19T12:26:21.697Z</time></trkpt><trkpt lat="43.7493042" lon="12.391448"><ele>397.66666666666663</ele><time>2026-04-19T12:26:22.703Z</time></trkpt><trkpt lat="43.7492621" lon="12.3917028"><ele>398.0</ele><time>2026-04-19T12:26:23.704Z</time></trkpt><trkpt lat="43.7492276" lon="12.391909"><ele>398.0</ele><time>2026-04-19T12:26:24.725Z</time></trkpt><trkpt lat="43.7492005" lon="12.3920627"><ele>398.0</ele><time>2026-04-19T12:26:25.693Z</time></trkpt><trkpt lat="43.7491873" lon="12.3921985"><ele>398.0</ele><time>2026-04-19T12:26:26.703Z</time></trkpt><trkpt lat="43.7492111" lon="12.3923063"><ele>398.0</ele><time>2026-04-19T12:26:27.697Z</time></trkpt><trkpt lat="43.7492471" lon="12.3924268"><ele>398.0</ele><time>2026-04-19T12:26:28.693Z</time></trkpt><trkpt lat="43.7493261" lon="12.3925354"><ele>401.75</ele><time>2026-04-19T12:26:29.695Z</time></trkpt><trkpt lat="43.7494118" lon="12.3926453"><ele>405.5</ele><time>2026-04-19T12:26:30.7Z</time></trkpt><trkpt lat="43.7495198" lon="12.3927599"><ele>409.25</ele><time>2026-04-19T12:26:31.695Z</time></trkpt><trkpt lat="43.7496335" lon="12.392882"><ele>413.0</ele><time>2026-04-19T12:26:32.691Z</time></trkpt><trkpt lat="43.7497494" lon="12.3930185"><ele>413.0</ele><time>2026-04-19T12:26:33.704Z</time></trkpt><trkpt lat="43.7498665" lon="12.393153"><ele>413.0</ele><time>2026-04-19T12:26:34.699Z</time></trkpt><trkpt lat="43.7499605" lon="12.3932692"><ele>413.0</ele><time>2026-04-19T12:26:35.696Z</time></trkpt><trkpt lat="43.7500296" lon="12.3933659"><ele>413.0</ele><time>2026-04-19T12:26:36.693Z</time></trkpt><trkpt lat="43.7500694" lon="12.3934713"><ele>413.0</ele><time>2026-04-19T12:26:37.696Z</time></trkpt><trkpt lat="43.7500589" lon="12.3935836"><ele>413.0</ele><time>2026-04-19T12:26:38.699Z</time></trkpt><trkpt lat="43.75" lon="12.3936926"><ele>413.0</ele><time>2026-04-19T12:26:39.702Z</time></trkpt><trkpt lat="43.7499088" lon="12.3937957"><ele>413.0</ele><time>2026-04-19T12:26:40.703Z</time></trkpt><trkpt lat="43.7498141" lon="12.3938903"><ele>413.0</ele><time>2026-04-19T12:26:41.691Z</time></trkpt><trkpt lat="43.7497042" lon="12.3939891"><ele>415.4</ele><time>2026-04-19T12:26:42.7Z</time></trkpt><trkpt lat="43.7495875" lon="12.3940921"><ele>417.79999999999995</ele><time>2026-04-19T12:26:43.697Z</time></trkpt><trkpt lat="43.7494963" lon="12.3942015"><ele>420.2</ele><time>2026-04-19T12:26:44.691Z</time></trkpt><trkpt lat="43.7494287" lon="12.3943047"><ele>422.6</ele><time>2026-04-19T12:26:45.705Z</time></trkpt><trkpt lat="43.749396" lon="12.3944106"><ele>425.0</ele><time>2026-04-19T12:26:46.711Z</time></trkpt><trkpt lat="43.7494008" lon="12.3945284"><ele>425.0</ele><time>2026-04-19T12:26:47.706Z</time></trkpt><trkpt lat="43.7494246" lon="12.3946666"><ele>425.0</ele><time>2026-04-19T12:26:48.702Z</time></trkpt><trkpt lat="43.7494628" lon="12.394807"><ele>425.0</ele><time>2026-04-19T12:26:49.705Z</time></trkpt><trkpt lat="43.7495319" lon="12.3949505"><ele>425.0</ele><time>2026-04-19T12:26:50.708Z</time></trkpt><trkpt lat="43.749617" lon="12.3950826"><ele>425.5</ele><time>2026-04-19T12:26:51.712Z</time></trkpt><trkpt lat="43.7497208" lon="12.3952214"><ele>426.0</ele><time>2026-04-19T12:26:52.707Z</time></trkpt><trkpt lat="43.7498366" lon="12.3953592"><ele>426.5</ele><time>2026-04-19T12:26:53.707Z</time></trkpt><trkpt lat="43.7499409" lon="12.3954833"><ele>427.0</ele><time>2026-04-19T12:26:54.707Z</time></trkpt><trkpt lat="43.7500284" lon="12.3956056"><ele>424.0</ele><time>2026-04-19T12:26:55.725Z</time></trkpt><trkpt lat="43.7500943" lon="12.3957368"><ele>421.00000000000006</ele><time>2026-04-19T12:26:56.703Z</time></trkpt><trkpt lat="43.7501433" lon="12.395871"><ele>418.0</ele><time>2026-04-19T12:26:57.7Z</time></trkpt><trkpt lat="43.7501769" lon="12.3960092"><ele>415.0</ele><time>2026-04-19T12:26:58.709Z</time></trkpt><trkpt lat="43.7501846" lon="12.396147"><ele>412.0</ele><time>2026-04-19T12:26:59.693Z</time></trkpt><trkpt lat="43.7501786" lon="12.3962786"><ele>411.83333333333337</ele><time>2026-04-19T12:27:00.707Z</time></trkpt><trkpt lat="43.7501535" lon="12.3963932"><ele>411.6666666666667</ele><time>2026-04-19T12:27:01.705Z</time></trkpt><trkpt lat="43.7501055" lon="12.3964849"><ele>411.5</ele><time>2026-04-19T12:27:02.703Z</time></trkpt><trkpt lat="43.7500374" lon="12.3965431"><ele>411.33333333333337</ele><time>2026-04-19T12:27:03.702Z</time></trkpt><trkpt lat="43.7499625" lon="12.3965805"><ele>411.1666666666667</ele><time>2026-04-19T12:27:04.703Z</time></trkpt><trkpt lat="43.7498708" lon="12.3966005"><ele>411.0</ele><time>2026-04-19T12:27:05.702Z</time></trkpt><trkpt lat="43.7497406" lon="12.3966002"><ele>411.0</ele><time>2026-04-19T12:27:06.704Z</time></trkpt><trkpt lat="43.7496003" lon="12.3965941"><ele>411.0</ele><time>2026-04-19T12:27:07.697Z</time></trkpt><trkpt lat="43.7494875" lon="12.3965992"><ele>411.0</ele><time>2026-04-19T12:27:08.685Z</time></trkpt><trkpt lat="43.7493935" lon="12.3966092"><ele>411.0</ele><time>2026-04-19T12:27:09.683Z</time></trkpt><trkpt lat="43.7493172" lon="12.3966323"><ele>411.0</ele><time>2026-04-19T12:27:10.697Z</time></trkpt><trkpt lat="43.7492498" lon="12.3967757"><ele>413.0</ele><time>2026-04-19T12:27:12.705Z</time></trkpt><trkpt lat="43.7492442" lon="12.3968821"><ele>415.0</ele><time>2026-04-19T12:27:13.707Z</time></trkpt><trkpt lat="43.7492582" lon="12.3970057"><ele>417.0</ele><time>2026-04-19T12:27:14.704Z</time></trkpt><trkpt lat="43.7492947" lon="12.3971501"><ele>419.0</ele><time>2026-04-19T12:27:15.704Z</time></trkpt><trkpt lat="43.7493522" lon="12.3973203"><ele>421.0</ele><time>2026-04-19T12:27:16.696Z</time></trkpt><trkpt lat="43.7494181" lon="12.3974954"><ele>421.0</ele><time>2026-04-19T12:27:17.705Z</time></trkpt><trkpt lat="43.7494877" lon="12.3976781"><ele>421.0</ele><time>2026-04-19T12:27:18.703Z</time></trkpt><trkpt lat="43.7495527" lon="12.3978663"><ele>421.0</ele><time>2026-04-19T12:27:19.694Z</time></trkpt><trkpt lat="43.749615" lon="12.3980478"><ele>421.0</ele><time>2026-04-19T12:27:20.7Z</time></trkpt><trkpt lat="43.7496669" lon="12.3982144"><ele>418.5</ele><time>2026-04-19T12:27:21.699Z</time></trkpt><trkpt lat="43.7497043" lon="12.3983857"><ele>416.0</ele><time>2026-04-19T12:27:22.698Z</time></trkpt><trkpt lat="43.7497429" lon="12.3985488"><ele>413.5</ele><time>2026-04-19T12:27:23.697Z</time></trkpt><trkpt lat="43.7497774" lon="12.3987116"><ele>411.0</ele><time>2026-04-19T12:27:24.697Z</time></trkpt><trkpt lat="43.7498106" lon="12.398878"><ele>406.0</ele><time>2026-04-19T12:27:25.694Z</time></trkpt><trkpt lat="43.7498416" lon="12.3990349"><ele>401.0</ele><time>2026-04-19T12:27:26.715Z</time></trkpt><trkpt lat="43.7498735" lon="12.3991821"><ele>396.0</ele><time>2026-04-19T12:27:27.694Z</time></trkpt><trkpt lat="43.7499099" lon="12.3993316"><ele>391.0</ele><time>2026-04-19T12:27:28.692Z</time></trkpt><trkpt lat="43.7499561" lon="12.3994775"><ele>391.0</ele><time>2026-04-19T12:27:29.69Z</time></trkpt><trkpt lat="43.7500111" lon="12.3996203"><ele>391.0</ele><time>2026-04-19T12:27:30.697Z</time></trkpt><trkpt lat="43.7500693" lon="12.399758"><ele>391.0</ele><time>2026-04-19T12:27:31.697Z</time></trkpt><trkpt lat="43.7501237" lon="12.3998796"><ele>391.0</ele><time>2026-04-19T12:27:32.694Z</time></trkpt><trkpt lat="43.7501678" lon="12.3999833"><ele>391.0</ele><time>2026-04-19T12:27:33.688Z</time></trkpt><trkpt lat="43.7501931" lon="12.4000847"><ele>388.33333333333337</ele><time>2026-04-19T12:27:34.693Z</time></trkpt><trkpt lat="43.7501941" lon="12.4001776"><ele>385.6666666666667</ele><time>2026-04-19T12:27:35.687Z</time></trkpt><trkpt lat="43.7501686" lon="12.4002764"><ele>383.0</ele><time>2026-04-19T12:27:36.694Z</time></trkpt><trkpt lat="43.7501242" lon="12.4003796"><ele>380.33333333333337</ele><time>2026-04-19T12:27:37.697Z</time></trkpt><trkpt lat="43.75009" lon="12.400499"><ele>377.6666666666667</ele><time>2026-04-19T12:27:38.698Z</time></trkpt><trkpt lat="43.750071" lon="12.4006414"><ele>375.0</ele><time>2026-04-19T12:27:39.698Z</time></trkpt><trkpt lat="43.7500733" lon="12.4007852"><ele>374.0</ele><time>2026-04-19T12:27:40.692Z</time></trkpt><trkpt lat="43.7500891" lon="12.4009263"><ele>373.0</ele><time>2026-04-19T12:27:41.691Z</time></trkpt><trkpt lat="43.7501155" lon="12.4010673"><ele>372.0</ele><time>2026-04-19T12:27:42.693Z</time></trkpt><trkpt lat="43.7501362" lon="12.4012072"><ele>371.0</ele><time>2026-04-19T12:27:43.693Z</time></trkpt><trkpt lat="43.7501408" lon="12.4013444"><ele>370.0</ele><time>2026-04-19T12:27:44.688Z</time></trkpt><trkpt lat="43.7501346" lon="12.40147"><ele>369.2</ele><time>2026-04-19T12:27:45.695Z</time></trkpt><trkpt lat="43.750128" lon="12.4015961"><ele>368.4</ele><time>2026-04-19T12:27:46.699Z</time></trkpt><trkpt lat="43.750141" lon="12.4017152"><ele>367.6</ele><time>2026-04-19T12:27:47.694Z</time></trkpt><trkpt lat="43.7501688" lon="12.4018344"><ele>366.8</ele><time>2026-04-19T12:27:48.687Z</time></trkpt><trkpt lat="43.75021" lon="12.4019673"><ele>366.0</ele><time>2026-04-19T12:27:49.694Z</time></trkpt><trkpt lat="43.7502748" lon="12.402119"><ele>365.0</ele><time>2026-04-19T12:27:50.692Z</time></trkpt><trkpt lat="43.7503281" lon="12.4022717"><ele>364.0</ele><time>2026-04-19T12:27:51.689Z</time></trkpt><trkpt lat="43.7503769" lon="12.4024024"><ele>363.0</ele><time>2026-04-19T12:27:52.69Z</time></trkpt><trkpt lat="43.7504249" lon="12.4025121"><ele>362.0</ele><time>2026-04-19T12:27:53.686Z</time></trkpt><trkpt lat="43.7504806" lon="12.4026082"><ele>361.0</ele><time>2026-04-19T12:27:54.684Z</time></trkpt><trkpt lat="43.7505617" lon="12.4026922"><ele>361.0</ele><time>2026-04-19T12:27:55.687Z</time></trkpt><trkpt lat="43.7506753" lon="12.4027735"><ele>361.0</ele><time>2026-04-19T12:27:56.682Z</time></trkpt><trkpt lat="43.7507981" lon="12.4028491"><ele>361.0</ele><time>2026-04-19T12:27:57.703Z</time></trkpt><trkpt lat="43.7509064" lon="12.4029136"><ele>361.0</ele><time>2026-04-19T12:27:58.681Z</time></trkpt><trkpt lat="43.7509936" lon="12.402991"><ele>356.8</ele><time>2026-04-19T12:27:59.694Z</time></trkpt><trkpt lat="43.7510526" lon="12.4030826"><ele>352.6</ele><time>2026-04-19T12:28:00.698Z</time></trkpt><trkpt lat="43.7510913" lon="12.4031955"><ele>348.4</ele><time>2026-04-19T12:28:01.699Z</time></trkpt><trkpt lat="43.7511288" lon="12.4033325"><ele>344.2</ele><time>2026-04-19T12:28:02.697Z</time></trkpt><trkpt lat="43.7511694" lon="12.4034897"><ele>340.0</ele><time>2026-04-19T12:28:03.698Z</time></trkpt><trkpt lat="43.7512176" lon="12.4036561"><ele>340.75</ele><time>2026-04-19T12:28:04.7Z</time></trkpt><trkpt lat="43.7512689" lon="12.4038362"><ele>341.5</ele><time>2026-04-19T12:28:05.696Z</time></trkpt><trkpt lat="43.7513246" lon="12.4040365"><ele>342.25</ele><time>2026-04-19T12:28:06.699Z</time></trkpt><trkpt lat="43.7513717" lon="12.4042346"><ele>343.0</ele><time>2026-04-19T12:28:07.695Z</time></trkpt><trkpt lat="43.751401" lon="12.4043729"><ele>343.0</ele><time>2026-04-19T12:28:08.701Z</time></trkpt><trkpt lat="43.7514477" lon="12.4045041"><ele>343.0</ele><time>2026-04-19T12:28:10.694Z</time></trkpt><trkpt lat="43.7515522" lon="12.404502"><ele>343.0</ele><time>2026-04-19T12:28:12.698Z</time></trkpt><trkpt lat="43.7516498" lon="12.4044657"><ele>343.0</ele><time>2026-04-19T12:28:13.691Z</time></trkpt><trkpt lat="43.7517565" lon="12.4044108"><ele>343.0</ele><time>2026-04-19T12:28:14.696Z</time></trkpt><trkpt lat="43.7518531" lon="12.4043754"><ele>344.2</ele><time>2026-04-19T12:28:15.693Z</time></trkpt><trkpt lat="43.7519418" lon="12.404364"><ele>345.4</ele><time>2026-04-19T12:28:16.695Z</time></trkpt><trkpt lat="43.7520268" lon="12.4043828"><ele>346.59999999999997</ele><time>2026-04-19T12:28:17.705Z</time></trkpt><trkpt lat="43.7521155" lon="12.404434"><ele>347.79999999999995</ele><time>2026-04-19T12:28:18.707Z</time></trkpt><trkpt lat="43.7522257" lon="12.4045219"><ele>349.0</ele><time>2026-04-19T12:28:19.695Z</time></trkpt><trkpt lat="43.7523581" lon="12.4046183"><ele>351.2</ele><time>2026-04-19T12:28:20.69Z</time></trkpt><trkpt lat="43.7524888" lon="12.4046894"><ele>353.4</ele><time>2026-04-19T12:28:21.687Z</time></trkpt><trkpt lat="43.7525938" lon="12.4047436"><ele>355.6</ele><time>2026-04-19T12:28:22.682Z</time></trkpt><trkpt lat="43.7526317" lon="12.4048311"><ele>357.8</ele><time>2026-04-19T12:28:25.692Z</time></trkpt><trkpt lat="43.752544" lon="12.4049429"><ele>360.0</ele><time>2026-04-19T12:28:27.683Z</time></trkpt><trkpt lat="43.7524612" lon="12.4050174"><ele>360.0</ele><time>2026-04-19T12:28:28.699Z</time></trkpt><trkpt lat="43.7523556" lon="12.4051108"><ele>360.0</ele><time>2026-04-19T12:28:29.685Z</time></trkpt><trkpt lat="43.7522402" lon="12.4052257"><ele>360.0</ele><time>2026-04-19T12:28:30.691Z</time></trkpt><trkpt lat="43.7521197" lon="12.4053664"><ele>360.0</ele><time>2026-04-19T12:28:31.683Z</time></trkpt><trkpt lat="43.7519898" lon="12.4055298"><ele>358.3333333333333</ele><time>2026-04-19T12:28:32.682Z</time></trkpt><trkpt lat="43.7518471" lon="12.4056963"><ele>356.66666666666663</ele><time>2026-04-19T12:28:33.681Z</time></trkpt><trkpt lat="43.7517158" lon="12.4058605"><ele>355.0</ele><time>2026-04-19T12:28:34.689Z</time></trkpt><trkpt lat="43.7515817" lon="12.4060262"><ele>355.0</ele><time>2026-04-19T12:28:35.687Z</time></trkpt><trkpt lat="43.7514544" lon="12.4061955"><ele>355.0</ele><time>2026-04-19T12:28:36.688Z</time></trkpt><trkpt lat="43.7513307" lon="12.4063651"><ele>355.0</ele><time>2026-04-19T12:28:37.692Z</time></trkpt><trkpt lat="43.7512022" lon="12.4065288"><ele>353.3333333333333</ele><time>2026-04-19T12:28:38.694Z</time></trkpt><trkpt lat="43.7510767" lon="12.4066854"><ele>351.6666666666667</ele><time>2026-04-19T12:28:39.685Z</time></trkpt><trkpt lat="43.7509486" lon="12.4068378"><ele>350.0</ele><time>2026-04-19T12:28:40.688Z</time></trkpt><trkpt lat="43.7508066" lon="12.4069821"><ele>350.0</ele><time>2026-04-19T12:28:41.687Z</time></trkpt><trkpt lat="43.7506532" lon="12.407114"><ele>350.0</ele><time>2026-04-19T12:28:42.694Z</time></trkpt><trkpt lat="43.7504909" lon="12.4072168"><ele>350.0</ele><time>2026-04-19T12:28:43.69Z</time></trkpt><trkpt lat="43.7503286" lon="12.4073113"><ele>352.6666666666667</ele><time>2026-04-19T12:28:44.682Z</time></trkpt><trkpt lat="43.7501636" lon="12.4074035"><ele>355.3333333333333</ele><time>2026-04-19T12:28:45.682Z</time></trkpt><trkpt lat="43.7500039" lon="12.4074973"><ele>358.0</ele><time>2026-04-19T12:28:46.687Z</time></trkpt><trkpt lat="43.749856" lon="12.4076003"><ele>358.0</ele><time>2026-04-19T12:28:47.681Z</time></trkpt><trkpt lat="43.749709" lon="12.4076942"><ele>358.0</ele><time>2026-04-19T12:28:48.687Z</time></trkpt><trkpt lat="43.7495745" lon="12.4077759"><ele>358.0</ele><time>2026-04-19T12:28:49.679Z</time></trkpt><trkpt lat="43.7494268" lon="12.407854"><ele>357.0</ele><time>2026-04-19T12:28:50.681Z</time></trkpt><trkpt lat="43.7493024" lon="12.4079586"><ele>356.0</ele><time>2026-04-19T12:28:51.685Z</time></trkpt><trkpt lat="43.7491673" lon="12.4080699"><ele>355.0</ele><time>2026-04-19T12:28:52.688Z</time></trkpt><trkpt lat="43.7490417" lon="12.4081957"><ele>355.0</ele><time>2026-04-19T12:28:53.685Z</time></trkpt><trkpt lat="43.7489164" lon="12.4083275"><ele>355.0</ele><time>2026-04-19T12:28:54.694Z</time></trkpt><trkpt lat="43.7487853" lon="12.4084678"><ele>355.0</ele><time>2026-04-19T12:28:55.695Z</time></trkpt><trkpt lat="43.7486531" lon="12.4086258"><ele>353.0</ele><time>2026-04-19T12:28:56.695Z</time></trkpt><trkpt lat="43.7485306" lon="12.4087974"><ele>351.0</ele><time>2026-04-19T12:28:57.695Z</time></trkpt><trkpt lat="43.7483999" lon="12.4089753"><ele>349.0</ele><time>2026-04-19T12:28:58.698Z</time></trkpt><trkpt lat="43.7482789" lon="12.4091467"><ele>349.0</ele><time>2026-04-19T12:28:59.71Z</time></trkpt><trkpt lat="43.74819" lon="12.4093271"><ele>349.0</ele><time>2026-04-19T12:29:00.695Z</time></trkpt><trkpt lat="43.7481189" lon="12.4095259"><ele>349.0</ele><time>2026-04-19T12:29:01.689Z</time></trkpt><trkpt lat="43.7480483" lon="12.4097312"><ele>353.3333333333333</ele><time>2026-04-19T12:29:02.694Z</time></trkpt><trkpt lat="43.7479785" lon="12.4099242"><ele>357.6666666666667</ele><time>2026-04-19T12:29:03.696Z</time></trkpt><trkpt lat="43.7479106" lon="12.4101176"><ele>362.0</ele><time>2026-04-19T12:29:04.693Z</time></trkpt><trkpt lat="43.7478345" lon="12.4103015"><ele>362.0</ele><time>2026-04-19T12:29:05.696Z</time></trkpt><trkpt lat="43.7477309" lon="12.4104578"><ele>362.0</ele><time>2026-04-19T12:29:06.695Z</time></trkpt><trkpt lat="43.7476147" lon="12.4105954"><ele>362.0</ele><time>2026-04-19T12:29:07.694Z</time></trkpt><trkpt lat="43.7474834" lon="12.4107146"><ele>359.6666666666667</ele><time>2026-04-19T12:29:08.688Z</time></trkpt><trkpt lat="43.7473493" lon="12.4108465"><ele>357.3333333333333</ele><time>2026-04-19T12:29:09.69Z</time></trkpt><trkpt lat="43.7472134" lon="12.4109818"><ele>355.0</ele><time>2026-04-19T12:29:10.686Z</time></trkpt><trkpt lat="43.7470936" lon="12.4111428"><ele>355.0</ele><time>2026-04-19T12:29:11.685Z</time></trkpt><trkpt lat="43.7469741" lon="12.4113153"><ele>355.0</ele><time>2026-04-19T12:29:12.692Z</time></trkpt><trkpt lat="43.746863" lon="12.4114936"><ele>355.0</ele><time>2026-04-19T12:29:13.69Z</time></trkpt><trkpt lat="43.7467463" lon="12.4116755"><ele>353.3333333333333</ele><time>2026-04-19T12:29:14.692Z</time></trkpt><trkpt lat="43.7466211" lon="12.4118558"><ele>351.6666666666667</ele><time>2026-04-19T12:29:15.688Z</time></trkpt><trkpt lat="43.7465102" lon="12.4120461"><ele>350.0</ele><time>2026-04-19T12:29:16.692Z</time></trkpt><trkpt lat="43.7463972" lon="12.4122344"><ele>355.0</ele><time>2026-04-19T12:29:17.694Z</time></trkpt><trkpt lat="43.7462888" lon="12.4124106"><ele>360.0</ele><time>2026-04-19T12:29:18.703Z</time></trkpt><trkpt lat="43.7461768" lon="12.4125755"><ele>365.0</ele><time>2026-04-19T12:29:19.691Z</time></trkpt><trkpt lat="43.7460711" lon="12.4127421"><ele>359.5</ele><time>2026-04-19T12:29:20.695Z</time></trkpt><trkpt lat="43.7459703" lon="12.4128995"><ele>354.0</ele><time>2026-04-19T12:29:21.695Z</time></trkpt><trkpt lat="43.7458753" lon="12.4130389"><ele>348.5</ele><time>2026-04-19T12:29:22.696Z</time></trkpt><trkpt lat="43.7457934" lon="12.4131604"><ele>343.0</ele><time>2026-04-19T12:29:23.696Z</time></trkpt><trkpt lat="43.7457097" lon="12.4132903"><ele>343.0</ele><time>2026-04-19T12:29:24.696Z</time></trkpt><trkpt lat="43.7456379" lon="12.4134221"><ele>343.0</ele><time>2026-04-19T12:29:25.697Z</time></trkpt><trkpt lat="43.7455592" lon="12.413577"><ele>343.0</ele><time>2026-04-19T12:29:26.695Z</time></trkpt><trkpt lat="43.7454942" lon="12.4137579"><ele>343.0</ele><time>2026-04-19T12:29:27.692Z</time></trkpt><trkpt lat="43.7454374" lon="12.4139574"><ele>343.0</ele><time>2026-04-19T12:29:28.691Z</time></trkpt><trkpt lat="43.7453901" lon="12.4141908"><ele>343.0</ele><time>2026-04-19T12:29:29.693Z</time></trkpt><trkpt lat="43.7453443" lon="12.4144151"><ele>343.0</ele><time>2026-04-19T12:29:30.718Z</time></trkpt><trkpt lat="43.7452895" lon="12.4146428"><ele>345.3333333333333</ele><time>2026-04-19T12:29:31.697Z</time></trkpt><trkpt lat="43.7452449" lon="12.4148713"><ele>347.6666666666667</ele><time>2026-04-19T12:29:32.697Z</time></trkpt><trkpt lat="43.7451949" lon="12.415093"><ele>350.0</ele><time>2026-04-19T12:29:33.697Z</time></trkpt><trkpt lat="43.7451488" lon="12.4153129"><ele>346.0</ele><time>2026-04-19T12:29:34.693Z</time></trkpt><trkpt lat="43.745107" lon="12.4155284"><ele>342.0</ele><time>2026-04-19T12:29:35.692Z</time></trkpt><trkpt lat="43.7450511" lon="12.4157568"><ele>338.0</ele><time>2026-04-19T12:29:36.689Z</time></trkpt><trkpt lat="43.7449991" lon="12.4159861"><ele>338.0</ele><time>2026-04-19T12:29:37.692Z</time></trkpt><trkpt lat="43.7449402" lon="12.4162188"><ele>338.0</ele><time>2026-04-19T12:29:38.693Z</time></trkpt><trkpt lat="43.7448909" lon="12.4164426"><ele>338.0</ele><time>2026-04-19T12:29:39.692Z</time></trkpt><trkpt lat="43.7448411" lon="12.41665"><ele>341.0</ele><time>2026-04-19T12:29:40.689Z</time></trkpt><trkpt lat="43.7447926" lon="12.4168606"><ele>344.0</ele><time>2026-04-19T12:29:41.686Z</time></trkpt><trkpt lat="43.7447322" lon="12.4170663"><ele>347.0</ele><time>2026-04-19T12:29:42.684Z</time></trkpt><trkpt lat="43.7446921" lon="12.4172596"><ele>350.5</ele><time>2026-04-19T12:29:43.689Z</time></trkpt><trkpt lat="43.7446498" lon="12.4174421"><ele>354.0</ele><time>2026-04-19T12:29:44.686Z</time></trkpt><trkpt lat="43.7445944" lon="12.4176322"><ele>357.5</ele><time>2026-04-19T12:29:45.687Z</time></trkpt><trkpt lat="43.7445327" lon="12.4178275"><ele>361.0</ele><time>2026-04-19T12:29:46.691Z</time></trkpt><trkpt lat="43.7444489" lon="12.4180073"><ele>355.3333333333333</ele><time>2026-04-19T12:29:47.685Z</time></trkpt><trkpt lat="43.7443689" lon="12.418178"><ele>349.6666666666667</ele><time>2026-04-19T12:29:48.685Z</time></trkpt><trkpt lat="43.7442819" lon="12.418343"><ele>344.0</ele><time>2026-04-19T12:29:49.686Z</time></trkpt><trkpt lat="43.7441968" lon="12.4185256"><ele>344.0</ele><time>2026-04-19T12:29:50.689Z</time></trkpt><trkpt lat="43.7441149" lon="12.4187151"><ele>344.0</ele><time>2026-04-19T12:29:51.691Z</time></trkpt><trkpt lat="43.7440326" lon="12.4188991"><ele>344.0</ele><time>2026-04-19T12:29:52.687Z</time></trkpt><trkpt lat="43.7439544" lon="12.4190788"><ele>347.25</ele><time>2026-04-19T12:29:53.685Z</time></trkpt><trkpt lat="43.7438734" lon="12.4192432"><ele>350.5</ele><time>2026-04-19T12:29:54.689Z</time></trkpt><trkpt lat="43.7437986" lon="12.4194028"><ele>353.75</ele><time>2026-04-19T12:29:55.684Z</time></trkpt><trkpt lat="43.7437283" lon="12.4195589"><ele>357.0</ele><time>2026-04-19T12:29:56.687Z</time></trkpt><trkpt lat="43.7436574" lon="12.4197125"><ele>359.6</ele><time>2026-04-19T12:29:57.693Z</time></trkpt><trkpt lat="43.7435944" lon="12.4198514"><ele>362.20000000000005</ele><time>2026-04-19T12:29:58.691Z</time></trkpt><trkpt lat="43.7435406" lon="12.4199797"><ele>364.8</ele><time>2026-04-19T12:29:59.691Z</time></trkpt><trkpt lat="43.7434826" lon="12.4200863"><ele>367.4</ele><time>2026-04-19T12:30:00.696Z</time></trkpt><trkpt lat="43.7434296" lon="12.4201948"><ele>370.0</ele><time>2026-04-19T12:30:01.707Z</time></trkpt><trkpt lat="43.7433697" lon="12.4202816"><ele>370.0</ele><time>2026-04-19T12:30:02.694Z</time></trkpt><trkpt lat="43.7433504" lon="12.4204081"><ele>370.0</ele><time>2026-04-19T12:30:04.697Z</time></trkpt><trkpt lat="43.7434344" lon="12.4204534"><ele>370.0</ele><time>2026-04-19T12:30:06.7Z</time></trkpt><trkpt lat="43.7435607" lon="12.4204204"><ele>370.0</ele><time>2026-04-19T12:30:08.702Z</time></trkpt><trkpt lat="43.7436268" lon="12.4203394"><ele>370.0</ele><time>2026-04-19T12:30:09.696Z</time></trkpt><trkpt lat="43.7436994" lon="12.4202306"><ele>370.0</ele><time>2026-04-19T12:30:10.698Z</time></trkpt><trkpt lat="43.7437733" lon="12.4201061"><ele>370.0</ele><time>2026-04-19T12:30:11.69Z</time></trkpt><trkpt lat="43.7438582" lon="12.4199826"><ele>370.0</ele><time>2026-04-19T12:30:12.691Z</time></trkpt><trkpt lat="43.7439478" lon="12.4198484"><ele>370.0</ele><time>2026-04-19T12:30:13.691Z</time></trkpt><trkpt lat="43.7440407" lon="12.4197105"><ele>371.75</ele><time>2026-04-19T12:30:14.691Z</time></trkpt><trkpt lat="43.7441362" lon="12.4195757"><ele>373.5</ele><time>2026-04-19T12:30:15.687Z</time></trkpt><trkpt lat="43.7442342" lon="12.4194401"><ele>375.25</ele><time>2026-04-19T12:30:16.689Z</time></trkpt><trkpt lat="43.7443352" lon="12.4192945"><ele>377.0</ele><time>2026-04-19T12:30:17.688Z</time></trkpt><trkpt lat="43.7444389" lon="12.4191414"><ele>377.0</ele><time>2026-04-19T12:30:18.693Z</time></trkpt><trkpt lat="43.744531" lon="12.4190069"><ele>377.0</ele><time>2026-04-19T12:30:19.686Z</time></trkpt><trkpt lat="43.7446164" lon="12.418917"><ele>377.0</ele><time>2026-04-19T12:30:20.699Z</time></trkpt><trkpt lat="43.7446912" lon="12.4188731"><ele>377.0</ele><time>2026-04-19T12:30:21.685Z</time></trkpt><trkpt lat="43.7447858" lon="12.4188804"><ele>377.0</ele><time>2026-04-19T12:30:22.695Z</time></trkpt><trkpt lat="43.7448759" lon="12.4189527"><ele>377.0</ele><time>2026-04-19T12:30:23.685Z</time></trkpt><trkpt lat="43.7449895" lon="12.4190434"><ele>377.0</ele><time>2026-04-19T12:30:24.691Z</time></trkpt><trkpt lat="43.7451071" lon="12.4191607"><ele>377.0</ele><time>2026-04-19T12:30:25.682Z</time></trkpt><trkpt lat="43.7452279" lon="12.4192815"><ele>377.0</ele><time>2026-04-19T12:30:26.689Z</time></trkpt><trkpt lat="43.7453538" lon="12.4193876"><ele>380.25</ele><time>2026-04-19T12:30:27.684Z</time></trkpt><trkpt lat="43.74548" lon="12.4194526"><ele>383.5</ele><time>2026-04-19T12:30:28.684Z</time></trkpt><trkpt lat="43.7455964" lon="12.4194239"><ele>386.75</ele><time>2026-04-19T12:30:29.681Z</time></trkpt><trkpt lat="43.7457052" lon="12.4193203"><ele>390.0</ele><time>2026-04-19T12:30:30.683Z</time></trkpt><trkpt lat="43.7458043" lon="12.4192157"><ele>390.0</ele><time>2026-04-19T12:30:31.677Z</time></trkpt><trkpt lat="43.7459003" lon="12.419146"><ele>390.0</ele><time>2026-04-19T12:30:32.702Z</time></trkpt><trkpt lat="43.7459944" lon="12.4191356"><ele>390.0</ele><time>2026-04-19T12:30:33.682Z</time></trkpt><trkpt lat="43.7460711" lon="12.4191474"><ele>390.0</ele><time>2026-04-19T12:30:34.688Z</time></trkpt><trkpt lat="43.7461289" lon="12.4191924"><ele>390.0</ele><time>2026-04-19T12:30:35.682Z</time></trkpt><trkpt lat="43.7461675" lon="12.4192797"><ele>390.0</ele><time>2026-04-19T12:30:36.677Z</time></trkpt><trkpt lat="43.7461794" lon="12.4193725"><ele>390.0</ele><time>2026-04-19T12:30:37.684Z</time></trkpt><trkpt lat="43.7461415" lon="12.4194804"><ele>390.0</ele><time>2026-04-19T12:30:39.693Z</time></trkpt><trkpt lat="43.746064" lon="12.4195232"><ele>390.0</ele><time>2026-04-19T12:30:41.697Z</time></trkpt><trkpt lat="43.7459546" lon="12.4195735"><ele>390.0</ele><time>2026-04-19T12:30:43.698Z</time></trkpt><trkpt lat="43.7458798" lon="12.4196178"><ele>390.0</ele><time>2026-04-19T12:30:44.689Z</time></trkpt><trkpt lat="43.745774" lon="12.4196743"><ele>393.0</ele><time>2026-04-19T12:30:45.675Z</time></trkpt><trkpt lat="43.7456513" lon="12.419724"><ele>396.0</ele><time>2026-04-19T12:30:46.683Z</time></trkpt><trkpt lat="43.7455251" lon="12.4197692"><ele>399.0</ele><time>2026-04-19T12:30:47.685Z</time></trkpt><trkpt lat="43.7454073" lon="12.4198031"><ele>402.0</ele><time>2026-04-19T12:30:48.688Z</time></trkpt><trkpt lat="43.7452954" lon="12.4198323"><ele>400.20000000000005</ele><time>2026-04-19T12:30:49.696Z</time></trkpt><trkpt lat="43.7452061" lon="12.4198866"><ele>398.4</ele><time>2026-04-19T12:30:50.702Z</time></trkpt><trkpt lat="43.7451528" lon="12.4199854"><ele>396.6</ele><time>2026-04-19T12:30:51.704Z</time></trkpt><trkpt lat="43.7451407" lon="12.4201193"><ele>394.79999999999995</ele><time>2026-04-19T12:30:52.706Z</time></trkpt><trkpt lat="43.7451568" lon="12.4202881"><ele>393.0</ele><time>2026-04-19T12:30:53.699Z</time></trkpt><trkpt lat="43.7451809" lon="12.4204416"><ele>392.79999999999995</ele><time>2026-04-19T12:30:54.703Z</time></trkpt><trkpt lat="43.7452052" lon="12.4205815"><ele>392.6</ele><time>2026-04-19T12:30:55.703Z</time></trkpt><trkpt lat="43.7452403" lon="12.4206979"><ele>392.4</ele><time>2026-04-19T12:30:56.704Z</time></trkpt><trkpt lat="43.7453076" lon="12.4207811"><ele>392.20000000000005</ele><time>2026-04-19T12:30:57.705Z</time></trkpt><trkpt lat="43.7453993" lon="12.4208339"><ele>392.0</ele><time>2026-04-19T12:30:58.706Z</time></trkpt><trkpt lat="43.7455051" lon="12.4208646"><ele>396.25</ele><time>2026-04-19T12:30:59.703Z</time></trkpt><trkpt lat="43.7456164" lon="12.4208818"><ele>400.5</ele><time>2026-04-19T12:31:00.707Z</time></trkpt><trkpt lat="43.7457339" lon="12.4208755"><ele>404.75</ele><time>2026-04-19T12:31:01.705Z</time></trkpt><trkpt lat="43.7458601" lon="12.4208495"><ele>409.0</ele><time>2026-04-19T12:31:02.697Z</time></trkpt><trkpt lat="43.7459885" lon="12.4208265"><ele>411.0</ele><time>2026-04-19T12:31:03.718Z</time></trkpt><trkpt lat="43.7461168" lon="12.4208115"><ele>413.0</ele><time>2026-04-19T12:31:04.703Z</time></trkpt><trkpt lat="43.7462423" lon="12.4208172"><ele>415.0</ele><time>2026-04-19T12:31:05.704Z</time></trkpt><trkpt lat="43.746369" lon="12.4208291"><ele>417.0</ele><time>2026-04-19T12:31:06.704Z</time></trkpt><trkpt lat="43.7464958" lon="12.4208517"><ele>417.0</ele><time>2026-04-19T12:31:07.7Z</time></trkpt><trkpt lat="43.7466284" lon="12.4208857"><ele>417.0</ele><time>2026-04-19T12:31:08.712Z</time></trkpt><trkpt lat="43.7467649" lon="12.4209342"><ele>417.0</ele><time>2026-04-19T12:31:09.699Z</time></trkpt><trkpt lat="43.7469063" lon="12.4209907"><ele>417.0</ele><time>2026-04-19T12:31:10.705Z</time></trkpt><trkpt lat="43.7470276" lon="12.421034"><ele>419.8</ele><time>2026-04-19T12:31:11.7Z</time></trkpt><trkpt lat="43.7471386" lon="12.4210694"><ele>422.6</ele><time>2026-04-19T12:31:12.701Z</time></trkpt><trkpt lat="43.7472371" lon="12.4210736"><ele>425.40000000000003</ele><time>2026-04-19T12:31:13.708Z</time></trkpt><trkpt lat="43.7473069" lon="12.4210337"><ele>428.20000000000005</ele><time>2026-04-19T12:31:14.707Z</time></trkpt><trkpt lat="43.7473712" lon="12.4209387"><ele>431.0</ele><time>2026-04-19T12:31:15.705Z</time></trkpt><trkpt lat="43.7474295" lon="12.4208163"><ele>430.99999999999994</ele><time>2026-04-19T12:31:16.704Z</time></trkpt><trkpt lat="43.7474913" lon="12.4207079"><ele>431.0</ele><time>2026-04-19T12:31:17.706Z</time></trkpt><trkpt lat="43.7475508" lon="12.4206324"><ele>431.0</ele><time>2026-04-19T12:31:18.707Z</time></trkpt><trkpt lat="43.7476145" lon="12.420591"><ele>431.0</ele><time>2026-04-19T12:31:19.709Z</time></trkpt><trkpt lat="43.7476907" lon="12.4205753"><ele>430.99999999999994</ele><time>2026-04-19T12:31:20.708Z</time></trkpt><trkpt lat="43.7477708" lon="12.4206063"><ele>431.0</ele><time>2026-04-19T12:31:21.704Z</time></trkpt><trkpt lat="43.7478321" lon="12.4206793"><ele>434.20000000000005</ele><time>2026-04-19T12:31:22.708Z</time></trkpt><trkpt lat="43.7478682" lon="12.4207814"><ele>437.40000000000003</ele><time>2026-04-19T12:31:23.707Z</time></trkpt><trkpt lat="43.7478958" lon="12.4209101"><ele>440.6</ele><time>2026-04-19T12:31:24.703Z</time></trkpt><trkpt lat="43.7479286" lon="12.4210671"><ele>443.8</ele><time>2026-04-19T12:31:25.699Z</time></trkpt><trkpt lat="43.7479674" lon="12.4212189"><ele>447.0</ele><time>2026-04-19T12:31:26.704Z</time></trkpt><trkpt lat="43.7480156" lon="12.4213319"><ele>447.0</ele><time>2026-04-19T12:31:27.704Z</time></trkpt><trkpt lat="43.7480742" lon="12.4213798"><ele>447.00000000000006</ele><time>2026-04-19T12:31:28.702Z</time></trkpt><trkpt lat="43.7481951" lon="12.4213073"><ele>447.00000000000006</ele><time>2026-04-19T12:31:30.714Z</time></trkpt><trkpt lat="43.7482282" lon="12.4212047"><ele>447.0</ele><time>2026-04-19T12:31:31.706Z</time></trkpt><trkpt lat="43.7482334" lon="12.4210745"><ele>447.0</ele><time>2026-04-19T12:31:32.697Z</time></trkpt><trkpt lat="43.7482272" lon="12.4209287"><ele>448.25</ele><time>2026-04-19T12:31:33.704Z</time></trkpt><trkpt lat="43.7482052" lon="12.4207543"><ele>449.5</ele><time>2026-04-19T12:31:34.715Z</time></trkpt><trkpt lat="43.748188" lon="12.4205633"><ele>450.75</ele><time>2026-04-19T12:31:35.696Z</time></trkpt><trkpt lat="43.7481747" lon="12.420354"><ele>452.0</ele><time>2026-04-19T12:31:36.7Z</time></trkpt><trkpt lat="43.7481615" lon="12.4201247"><ele>452.0</ele><time>2026-04-19T12:31:37.702Z</time></trkpt><trkpt lat="43.7481493" lon="12.4199083"><ele>452.0</ele><time>2026-04-19T12:31:38.716Z</time></trkpt><trkpt lat="43.7481446" lon="12.4197236"><ele>452.0</ele><time>2026-04-19T12:31:39.698Z</time></trkpt><trkpt lat="43.7481529" lon="12.4195798"><ele>452.0</ele><time>2026-04-19T12:31:40.707Z</time></trkpt><trkpt lat="43.748184" lon="12.4194824"><ele>452.28571428571433</ele><time>2026-04-19T12:31:41.705Z</time></trkpt><trkpt lat="43.7482424" lon="12.4194185"><ele>452.57142857142856</ele><time>2026-04-19T12:31:42.704Z</time></trkpt><trkpt lat="43.7483265" lon="12.4194009"><ele>452.8571428571429</ele><time>2026-04-19T12:31:43.704Z</time></trkpt><trkpt lat="43.7484008" lon="12.4194118"><ele>453.14285714285717</ele><time>2026-04-19T12:31:44.708Z</time></trkpt><trkpt lat="43.7484626" lon="12.4194597"><ele>453.42857142857144</ele><time>2026-04-19T12:31:45.705Z</time></trkpt><trkpt lat="43.748507" lon="12.4195379"><ele>453.7142857142857</ele><time>2026-04-19T12:31:46.706Z</time></trkpt><trkpt lat="43.7485359" lon="12.4196261"><ele>454.0</ele><time>2026-04-19T12:31:47.708Z</time></trkpt><trkpt lat="43.7485619" lon="12.4197226"><ele>454.0</ele><time>2026-04-19T12:31:48.708Z</time></trkpt><trkpt lat="43.7485788" lon="12.4198308"><ele>454.0</ele><time>2026-04-19T12:31:49.708Z</time></trkpt><trkpt lat="43.748595" lon="12.4199579"><ele>454.0</ele><time>2026-04-19T12:31:50.705Z</time></trkpt><trkpt lat="43.7486214" lon="12.4201009"><ele>454.0</ele><time>2026-04-19T12:31:51.7Z</time></trkpt><trkpt lat="43.7486659" lon="12.4202407"><ele>454.0</ele><time>2026-04-19T12:31:52.702Z</time></trkpt><trkpt lat="43.7487304" lon="12.420366"><ele>454.0</ele><time>2026-04-19T12:31:53.708Z</time></trkpt><trkpt lat="43.7488119" lon="12.4204772"><ele>454.0</ele><time>2026-04-19T12:31:54.71Z</time></trkpt><trkpt lat="43.7489153" lon="12.4205855"><ele>454.0</ele><time>2026-04-19T12:31:55.701Z</time></trkpt><trkpt lat="43.749026" lon="12.4206957"><ele>454.0</ele><time>2026-04-19T12:31:56.702Z</time></trkpt><trkpt lat="43.7491436" lon="12.4208069"><ele>455.0</ele><time>2026-04-19T12:31:57.702Z</time></trkpt><trkpt lat="43.7492632" lon="12.4209331"><ele>456.0</ele><time>2026-04-19T12:31:58.707Z</time></trkpt><trkpt lat="43.749388" lon="12.4210972"><ele>457.0</ele><time>2026-04-19T12:31:59.706Z</time></trkpt><trkpt lat="43.7495038" lon="12.4212591"><ele>461.5</ele><time>2026-04-19T12:32:00.711Z</time></trkpt><trkpt lat="43.7496029" lon="12.421404"><ele>466.0</ele><time>2026-04-19T12:32:01.697Z</time></trkpt><trkpt lat="43.7496921" lon="12.4215225"><ele>470.5</ele><time>2026-04-19T12:32:02.707Z</time></trkpt><trkpt lat="43.7497858" lon="12.4216083"><ele>475.0</ele><time>2026-04-19T12:32:03.705Z</time></trkpt><trkpt lat="43.7498952" lon="12.4216498"><ele>475.0</ele><time>2026-04-19T12:32:04.705Z</time></trkpt><trkpt lat="43.7500197" lon="12.4216651"><ele>475.0</ele><time>2026-04-19T12:32:05.723Z</time></trkpt><trkpt lat="43.7501286" lon="12.4216537"><ele>475.0</ele><time>2026-04-19T12:32:06.705Z</time></trkpt><trkpt lat="43.7502158" lon="12.4216868"><ele>475.0</ele><time>2026-04-19T12:32:07.703Z</time></trkpt><trkpt lat="43.7502798" lon="12.421754"><ele>475.0</ele><time>2026-04-19T12:32:08.694Z</time></trkpt><trkpt lat="43.7503268" lon="12.4218589"><ele>474.0</ele><time>2026-04-19T12:32:09.703Z</time></trkpt><trkpt lat="43.7503668" lon="12.4219942"><ele>473.0</ele><time>2026-04-19T12:32:10.704Z</time></trkpt><trkpt lat="43.7504152" lon="12.4221558"><ele>472.0</ele><time>2026-04-19T12:32:11.701Z</time></trkpt><trkpt lat="43.7504696" lon="12.4223357"><ele>471.0</ele><time>2026-04-19T12:32:12.704Z</time></trkpt><trkpt lat="43.7505316" lon="12.4225317"><ele>471.0</ele><time>2026-04-19T12:32:13.701Z</time></trkpt><trkpt lat="43.7506092" lon="12.4227353"><ele>471.0</ele><time>2026-04-19T12:32:14.702Z</time></trkpt><trkpt lat="43.7506914" lon="12.4229277"><ele>471.0</ele><time>2026-04-19T12:32:15.704Z</time></trkpt><trkpt lat="43.7507982" lon="12.4231096"><ele>473.0</ele><time>2026-04-19T12:32:16.704Z</time></trkpt><trkpt lat="43.7509039" lon="12.4232861"><ele>475.0</ele><time>2026-04-19T12:32:17.708Z</time></trkpt><trkpt lat="43.7510349" lon="12.4234524"><ele>477.0</ele><time>2026-04-19T12:32:18.697Z</time></trkpt><trkpt lat="43.7511647" lon="12.4235943"><ele>478.0</ele><time>2026-04-19T12:32:19.707Z</time></trkpt><trkpt lat="43.7512947" lon="12.4237071"><ele>479.0</ele><time>2026-04-19T12:32:20.706Z</time></trkpt><trkpt lat="43.7514099" lon="12.4238039"><ele>480.0</ele><time>2026-04-19T12:32:21.705Z</time></trkpt><trkpt lat="43.7515216" lon="12.4238576"><ele>481.0</ele><time>2026-04-19T12:32:22.699Z</time></trkpt><trkpt lat="43.7516354" lon="12.4238823"><ele>482.5</ele><time>2026-04-19T12:32:23.707Z</time></trkpt><trkpt lat="43.7517595" lon="12.423871"><ele>484.0</ele><time>2026-04-19T12:32:24.709Z</time></trkpt><trkpt lat="43.7518868" lon="12.4238283"><ele>485.5</ele><time>2026-04-19T12:32:25.702Z</time></trkpt><trkpt lat="43.7520166" lon="12.4237729"><ele>487.0</ele><time>2026-04-19T12:32:26.703Z</time></trkpt><trkpt lat="43.7521591" lon="12.4237121"><ele>490.0</ele><time>2026-04-19T12:32:27.704Z</time></trkpt><trkpt lat="43.7523067" lon="12.4236627"><ele>493.0</ele><time>2026-04-19T12:32:28.704Z</time></trkpt><trkpt lat="43.7524581" lon="12.4236025"><ele>496.0</ele><time>2026-04-19T12:32:29.7Z</time></trkpt><trkpt lat="43.7526197" lon="12.4235304"><ele>501.0</ele><time>2026-04-19T12:32:30.709Z</time></trkpt><trkpt lat="43.7527888" lon="12.4234474"><ele>506.0</ele><time>2026-04-19T12:32:31.699Z</time></trkpt><trkpt lat="43.7529577" lon="12.4233374"><ele>511.0</ele><time>2026-04-19T12:32:32.7Z</time></trkpt><trkpt lat="43.7531151" lon="12.4232381"><ele>511.0</ele><time>2026-04-19T12:32:33.701Z</time></trkpt><trkpt lat="43.7532598" lon="12.4231387"><ele>511.0</ele><time>2026-04-19T12:32:34.703Z</time></trkpt><trkpt lat="43.7533882" lon="12.4230518"><ele>511.0</ele><time>2026-04-19T12:32:35.703Z</time></trkpt><trkpt lat="43.7535135" lon="12.422948"><ele>515.0</ele><time>2026-04-19T12:32:36.717Z</time></trkpt><trkpt lat="43.7536247" lon="12.422831"><ele>519.0</ele><time>2026-04-19T12:32:37.704Z</time></trkpt><trkpt lat="43.7537123" lon="12.4227012"><ele>523.0</ele><time>2026-04-19T12:32:38.699Z</time></trkpt><trkpt lat="43.75379" lon="12.4225511"><ele>527.0</ele><time>2026-04-19T12:32:39.705Z</time></trkpt><trkpt lat="43.7538644" lon="12.422389"><ele>527.0</ele><time>2026-04-19T12:32:40.701Z</time></trkpt><trkpt lat="43.7539372" lon="12.4222235"><ele>527.0</ele><time>2026-04-19T12:32:41.702Z</time></trkpt><trkpt lat="43.754006" lon="12.4220802"><ele>527.0</ele><time>2026-04-19T12:32:42.695Z</time></trkpt><trkpt lat="43.7540724" lon="12.4219661"><ele>527.0</ele><time>2026-04-19T12:32:43.705Z</time></trkpt><trkpt lat="43.7541309" lon="12.4218966"><ele>527.0</ele><time>2026-04-19T12:32:44.704Z</time></trkpt><trkpt lat="43.7541986" lon="12.4218593"><ele>527.0</ele><time>2026-04-19T12:32:45.703Z</time></trkpt><trkpt lat="43.7542624" lon="12.4218655"><ele>527.0</ele><time>2026-04-19T12:32:46.703Z</time></trkpt><trkpt lat="43.7543181" lon="12.4219203"><ele>527.0</ele><time>2026-04-19T12:32:47.706Z</time></trkpt><trkpt lat="43.7543528" lon="12.4220083"><ele>527.0</ele><time>2026-04-19T12:32:48.701Z</time></trkpt><trkpt lat="43.7543684" lon="12.4221223"><ele>527.0</ele><time>2026-04-19T12:32:49.701Z</time></trkpt><trkpt lat="43.7543571" lon="12.4222491"><ele>527.0</ele><time>2026-04-19T12:32:50.701Z</time></trkpt><trkpt lat="43.7543191" lon="12.4223912"><ele>527.0</ele><time>2026-04-19T12:32:51.694Z</time></trkpt><trkpt lat="43.7542692" lon="12.4225517"><ele>527.0</ele><time>2026-04-19T12:32:52.698Z</time></trkpt><trkpt lat="43.7542335" lon="12.4227299"><ele>527.0</ele><time>2026-04-19T12:32:53.691Z</time></trkpt><trkpt lat="43.7542142" lon="12.4229013"><ele>527.0</ele><time>2026-04-19T12:32:54.697Z</time></trkpt><trkpt lat="43.7542045" lon="12.4230712"><ele>528.5</ele><time>2026-04-19T12:32:55.699Z</time></trkpt><trkpt lat="43.754199" lon="12.4232535"><ele>530.0</ele><time>2026-04-19T12:32:56.695Z</time></trkpt><trkpt lat="43.754204" lon="12.4234483"><ele>531.5</ele><time>2026-04-19T12:32:57.693Z</time></trkpt><trkpt lat="43.7542139" lon="12.4236456"><ele>533.0</ele><time>2026-04-19T12:32:58.696Z</time></trkpt><trkpt lat="43.7542271" lon="12.4238412"><ele>535.25</ele><time>2026-04-19T12:32:59.695Z</time></trkpt><trkpt lat="43.7542393" lon="12.4240243"><ele>537.5</ele><time>2026-04-19T12:33:00.692Z</time></trkpt><trkpt lat="43.7542287" lon="12.4241929"><ele>539.75</ele><time>2026-04-19T12:33:01.682Z</time></trkpt><trkpt lat="43.7541841" lon="12.424353"><ele>542.0</ele><time>2026-04-19T12:33:02.68Z</time></trkpt><trkpt lat="43.7541214" lon="12.424507"><ele>545.75</ele><time>2026-04-19T12:33:03.681Z</time></trkpt><trkpt lat="43.7540411" lon="12.4246617"><ele>549.5</ele><time>2026-04-19T12:33:04.684Z</time></trkpt><trkpt lat="43.753943" lon="12.4247946"><ele>553.25</ele><time>2026-04-19T12:33:05.678Z</time></trkpt><trkpt lat="43.7538352" lon="12.424921"><ele>557.0</ele><time>2026-04-19T12:33:06.679Z</time></trkpt><trkpt lat="43.7537201" lon="12.4250524"><ele>557.0</ele><time>2026-04-19T12:33:07.718Z</time></trkpt><trkpt lat="43.7536206" lon="12.4251717"><ele>557.0</ele><time>2026-04-19T12:33:08.683Z</time></trkpt><trkpt lat="43.7535401" lon="12.4252845"><ele>557.0</ele><time>2026-04-19T12:33:09.677Z</time></trkpt><trkpt lat="43.7534795" lon="12.4254213"><ele>557.0</ele><time>2026-04-19T12:33:10.685Z</time></trkpt><trkpt lat="43.7534204" lon="12.4256016"><ele>554.75</ele><time>2026-04-19T12:33:11.684Z</time></trkpt><trkpt lat="43.7533547" lon="12.4257863"><ele>552.5</ele><time>2026-04-19T12:33:12.683Z</time></trkpt><trkpt lat="43.7532898" lon="12.4259522"><ele>550.25</ele><time>2026-04-19T12:33:13.686Z</time></trkpt><trkpt lat="43.7532353" lon="12.4260888"><ele>548.0</ele><time>2026-04-19T12:33:14.686Z</time></trkpt><trkpt lat="43.7531954" lon="12.4262038"><ele>548.0</ele><time>2026-04-19T12:33:15.688Z</time></trkpt><trkpt lat="43.7531644" lon="12.4262811"><ele>548.0</ele><time>2026-04-19T12:33:16.691Z</time></trkpt><trkpt lat="43.7531968" lon="12.4263723"><ele>548.0</ele><time>2026-04-19T12:33:32.705Z</time></trkpt><trkpt lat="43.7532151" lon="12.4264931"><ele>548.0</ele><time>2026-04-19T12:33:35.701Z</time></trkpt><trkpt lat="43.7531988" lon="12.4266015"><ele>548.0</ele><time>2026-04-19T12:33:37.726Z</time></trkpt><trkpt lat="43.7531846" lon="12.4267228"><ele>548.0</ele><time>2026-04-19T12:33:39.704Z</time></trkpt><trkpt lat="43.7531882" lon="12.4268507"><ele>548.8333333333333</ele><time>2026-04-19T12:33:41.707Z</time></trkpt><trkpt lat="43.7531868" lon="12.4269695"><ele>549.6666666666666</ele><time>2026-04-19T12:33:43.702Z</time></trkpt><trkpt lat="43.7531761" lon="12.4270711"><ele>550.5</ele><time>2026-04-19T12:33:45.706Z</time></trkpt><trkpt lat="43.7531778" lon="12.4272055"><ele>551.3333333333334</ele><time>2026-04-19T12:33:53.714Z</time></trkpt><trkpt lat="43.7531977" lon="12.4273502"><ele>552.1666666666667</ele><time>2026-04-19T12:33:55.72Z</time></trkpt><trkpt lat="43.7532578" lon="12.4274176"><ele>553.0</ele><time>2026-04-19T12:33:57.715Z</time></trkpt><trkpt lat="43.7533422" lon="12.4273441"><ele>553.0</ele><time>2026-04-19T12:33:59.724Z</time></trkpt><trkpt lat="43.753372" lon="12.4272453"><ele>553.0</ele><time>2026-04-19T12:34:00.718Z</time></trkpt><trkpt lat="43.7533919" lon="12.4271402"><ele>553.0</ele><time>2026-04-19T12:34:01.705Z</time></trkpt><trkpt lat="43.753407" lon="12.4270355"><ele>553.0</ele><time>2026-04-19T12:34:02.702Z</time></trkpt><trkpt lat="43.753423" lon="12.4269278"><ele>553.0</ele><time>2026-04-19T12:34:03.705Z</time></trkpt><trkpt lat="43.75344" lon="12.426834"><ele>553.0</ele><time>2026-04-19T12:34:04.694Z</time></trkpt><trkpt lat="43.7534672" lon="12.4267545"><ele>553.0</ele><time>2026-04-19T12:34:05.7Z</time></trkpt><trkpt lat="43.753499" lon="12.426667"><ele>552.5</ele><time>2026-04-19T12:34:06.697Z</time></trkpt><trkpt lat="43.7535397" lon="12.4265777"><ele>552.0</ele><time>2026-04-19T12:34:07.699Z</time></trkpt><trkpt lat="43.7535765" lon="12.4264832"><ele>551.5</ele><time>2026-04-19T12:34:08.721Z</time></trkpt><trkpt lat="43.753608" lon="12.4263799"><ele>551.0</ele><time>2026-04-19T12:34:09.699Z</time></trkpt><trkpt lat="43.7536386" lon="12.4262705"><ele>550.5</ele><time>2026-04-19T12:34:10.701Z</time></trkpt><trkpt lat="43.7536685" lon="12.4261622"><ele>550.0</ele><time>2026-04-19T12:34:11.699Z</time></trkpt><trkpt lat="43.7536955" lon="12.426066"><ele>551.5714285714286</ele><time>2026-04-19T12:34:12.702Z</time></trkpt><trkpt lat="43.7537262" lon="12.4259839"><ele>553.1428571428571</ele><time>2026-04-19T12:34:13.696Z</time></trkpt><trkpt lat="43.7537657" lon="12.4259152"><ele>554.7142857142857</ele><time>2026-04-19T12:34:14.702Z</time></trkpt><trkpt lat="43.7538185" lon="12.4258574"><ele>556.2857142857142</ele><time>2026-04-19T12:34:15.707Z</time></trkpt><trkpt lat="43.7538728" lon="12.4258064"><ele>557.8571428571428</ele><time>2026-04-19T12:34:16.704Z</time></trkpt><trkpt lat="43.7539268" lon="12.4257521"><ele>559.4285714285714</ele><time>2026-04-19T12:34:17.702Z</time></trkpt><trkpt lat="43.7540028" lon="12.4256306"><ele>561.0</ele><time>2026-04-19T12:34:19.707Z</time></trkpt><trkpt lat="43.75403" lon="12.4255334"><ele>560.4</ele><time>2026-04-19T12:34:39.743Z</time></trkpt><trkpt lat="43.7540797" lon="12.4254108"><ele>559.8</ele><time>2026-04-19T12:34:41.716Z</time></trkpt><trkpt lat="43.754122" lon="12.425344"><ele>559.1999999999999</ele><time>2026-04-19T12:34:42.705Z</time></trkpt><trkpt lat="43.7541734" lon="12.425287"><ele>558.6</ele><time>2026-04-19T12:34:43.706Z</time></trkpt><trkpt lat="43.7542797" lon="12.4252212"><ele>558.0</ele><time>2026-04-19T12:34:45.707Z</time></trkpt><trkpt lat="43.7543964" lon="12.425171"><ele>558.0</ele><time>2026-04-19T12:34:47.706Z</time></trkpt><trkpt lat="43.7544807" lon="12.4250795"><ele>558.0</ele><time>2026-04-19T12:34:49.707Z</time></trkpt><trkpt lat="43.7545462" lon="12.4249467"><ele>558.0</ele><time>2026-04-19T12:34:51.707Z</time></trkpt><trkpt lat="43.7546164" lon="12.4248216"><ele>558.0</ele><time>2026-04-19T12:34:53.701Z</time></trkpt><trkpt lat="43.7546631" lon="12.4247618"><ele>558.0</ele><time>2026-04-19T12:34:54.707Z</time></trkpt><trkpt lat="43.7547128" lon="12.4247075"><ele>558.0</ele><time>2026-04-19T12:34:55.708Z</time></trkpt><trkpt lat="43.754768" lon="12.4246481"><ele>558.0</ele><time>2026-04-19T12:34:56.705Z</time></trkpt><trkpt lat="43.754824" lon="12.424592"><ele>558.0</ele><time>2026-04-19T12:34:57.7Z</time></trkpt><trkpt lat="43.7548834" lon="12.4245263"><ele>558.0</ele><time>2026-04-19T12:34:58.699Z</time></trkpt><trkpt lat="43.7549503" lon="12.4244521"><ele>558.0</ele><time>2026-04-19T12:34:59.696Z</time></trkpt><trkpt lat="43.7550225" lon="12.424382"><ele>558.0</ele><time>2026-04-19T12:35:00.703Z</time></trkpt><trkpt lat="43.7550865" lon="12.4243134"><ele>558.5</ele><time>2026-04-19T12:35:01.703Z</time></trkpt><trkpt lat="43.7551534" lon="12.4242373"><ele>559.0</ele><time>2026-04-19T12:35:02.701Z</time></trkpt><trkpt lat="43.7552126" lon="12.4241631"><ele>559.5</ele><time>2026-04-19T12:35:03.7Z</time></trkpt><trkpt lat="43.7552672" lon="12.4240848"><ele>560.0</ele><time>2026-04-19T12:35:04.701Z</time></trkpt><trkpt lat="43.7553226" lon="12.4240119"><ele>560.5</ele><time>2026-04-19T12:35:05.705Z</time></trkpt><trkpt lat="43.7553867" lon="12.4239337"><ele>561.0</ele><time>2026-04-19T12:35:06.702Z</time></trkpt><trkpt lat="43.7554592" lon="12.4238498"><ele>564.0</ele><time>2026-04-19T12:35:07.707Z</time></trkpt><trkpt lat="43.7555326" lon="12.423762"><ele>567.0</ele><time>2026-04-19T12:35:08.704Z</time></trkpt><trkpt lat="43.7556042" lon="12.4236698"><ele>570.0</ele><time>2026-04-19T12:35:09.705Z</time></trkpt><trkpt lat="43.75568" lon="12.4235891"><ele>573.0</ele><time>2026-04-19T12:35:10.722Z</time></trkpt><trkpt lat="43.755757" lon="12.4235165"><ele>576.0</ele><time>2026-04-19T12:35:11.708Z</time></trkpt><trkpt lat="43.7558345" lon="12.4234629"><ele>576.0</ele><time>2026-04-19T12:35:12.705Z</time></trkpt><trkpt lat="43.7559065" lon="12.4234065"><ele>576.0</ele><time>2026-04-19T12:35:13.715Z</time></trkpt><trkpt lat="43.7559797" lon="12.4233481"><ele>576.0</ele><time>2026-04-19T12:35:14.703Z</time></trkpt><trkpt lat="43.7560493" lon="12.4232859"><ele>576.0</ele><time>2026-04-19T12:35:15.706Z</time></trkpt><trkpt lat="43.7561242" lon="12.4232217"><ele>576.0</ele><time>2026-04-19T12:35:16.699Z</time></trkpt><trkpt lat="43.7562008" lon="12.4231738"><ele>576.0</ele><time>2026-04-19T12:35:17.696Z</time></trkpt><trkpt lat="43.7562806" lon="12.4231443"><ele>575.8333333333334</ele><time>2026-04-19T12:35:18.698Z</time></trkpt><trkpt lat="43.7563628" lon="12.4231143"><ele>575.6666666666666</ele><time>2026-04-19T12:35:19.693Z</time></trkpt><trkpt lat="43.7564387" lon="12.4230654"><ele>575.5</ele><time>2026-04-19T12:35:20.698Z</time></trkpt><trkpt lat="43.7565091" lon="12.4230061"><ele>575.3333333333333</ele><time>2026-04-19T12:35:21.689Z</time></trkpt><trkpt lat="43.7565771" lon="12.4229244"><ele>575.1666666666666</ele><time>2026-04-19T12:35:22.695Z</time></trkpt><trkpt lat="43.7566281" lon="12.4228227"><ele>575.0</ele><time>2026-04-19T12:35:23.687Z</time></trkpt><trkpt lat="43.756668" lon="12.4227085"><ele>575.0</ele><time>2026-04-19T12:35:24.694Z</time></trkpt><trkpt lat="43.7567056" lon="12.4226042"><ele>575.0</ele><time>2026-04-19T12:35:25.689Z</time></trkpt><trkpt lat="43.7567505" lon="12.4225131"><ele>575.0</ele><time>2026-04-19T12:35:26.702Z</time></trkpt><trkpt lat="43.7568036" lon="12.4224249"><ele>575.0</ele><time>2026-04-19T12:35:27.691Z</time></trkpt><trkpt lat="43.7568679" lon="12.4223526"><ele>575.0</ele><time>2026-04-19T12:35:28.692Z</time></trkpt><trkpt lat="43.7569344" lon="12.4223009"><ele>575.0</ele><time>2026-04-19T12:35:29.691Z</time></trkpt><trkpt lat="43.7570024" lon="12.4222639"><ele>574.6</ele><time>2026-04-19T12:35:30.695Z</time></trkpt><trkpt lat="43.7570686" lon="12.4222203"><ele>574.2</ele><time>2026-04-19T12:35:31.697Z</time></trkpt><trkpt lat="43.7571716" lon="12.4221496"><ele>573.8</ele><time>2026-04-19T12:35:33.692Z</time></trkpt><trkpt lat="43.7572558" lon="12.4220768"><ele>573.4</ele><time>2026-04-19T12:35:35.697Z</time></trkpt><trkpt lat="43.7573219" lon="12.4220125"><ele>573.0</ele><time>2026-04-19T12:35:36.704Z</time></trkpt><trkpt lat="43.7574052" lon="12.4219227"><ele>573.0</ele><time>2026-04-19T12:35:37.705Z</time></trkpt><trkpt lat="43.7574934" lon="12.4218149"><ele>573.0</ele><time>2026-04-19T12:35:38.706Z</time></trkpt><trkpt lat="43.7575805" lon="12.4217007"><ele>573.0</ele><time>2026-04-19T12:35:39.704Z</time></trkpt><trkpt lat="43.7576662" lon="12.4215916"><ele>573.0</ele><time>2026-04-19T12:35:40.706Z</time></trkpt><trkpt lat="43.7577537" lon="12.4214807"><ele>570.5</ele><time>2026-04-19T12:35:41.719Z</time></trkpt><trkpt lat="43.75784" lon="12.4213627"><ele>568.0</ele><time>2026-04-19T12:35:42.698Z</time></trkpt><trkpt lat="43.757928" lon="12.4212445"><ele>565.5</ele><time>2026-04-19T12:35:43.701Z</time></trkpt><trkpt lat="43.7580255" lon="12.4211253"><ele>563.0</ele><time>2026-04-19T12:35:44.702Z</time></trkpt><trkpt lat="43.758124" lon="12.4210054"><ele>568.25</ele><time>2026-04-19T12:35:45.692Z</time></trkpt><trkpt lat="43.7582275" lon="12.4208792"><ele>573.5</ele><time>2026-04-19T12:35:46.7Z</time></trkpt><trkpt lat="43.7583219" lon="12.4207478"><ele>578.75</ele><time>2026-04-19T12:35:47.703Z</time></trkpt><trkpt lat="43.7584152" lon="12.4206146"><ele>584.0</ele><time>2026-04-19T12:35:48.698Z</time></trkpt><trkpt lat="43.7584902" lon="12.4204801"><ele>585.75</ele><time>2026-04-19T12:35:49.704Z</time></trkpt><trkpt lat="43.7585596" lon="12.4203424"><ele>587.5</ele><time>2026-04-19T12:35:50.702Z</time></trkpt><trkpt lat="43.7586342" lon="12.4202084"><ele>589.25</ele><time>2026-04-19T12:35:51.703Z</time></trkpt><trkpt lat="43.7587095" lon="12.4200735"><ele>591.0</ele><time>2026-04-19T12:35:52.704Z</time></trkpt><trkpt lat="43.7587872" lon="12.4199455"><ele>591.0</ele><time>2026-04-19T12:35:53.712Z</time></trkpt><trkpt lat="43.7588673" lon="12.4198298"><ele>591.0</ele><time>2026-04-19T12:35:54.703Z</time></trkpt><trkpt lat="43.7589415" lon="12.4197176"><ele>591.0</ele><time>2026-04-19T12:35:55.707Z</time></trkpt><trkpt lat="43.7590118" lon="12.4196011"><ele>591.0</ele><time>2026-04-19T12:35:56.707Z</time></trkpt><trkpt lat="43.7590774" lon="12.4194776"><ele>591.0</ele><time>2026-04-19T12:35:57.701Z</time></trkpt><trkpt lat="43.7591496" lon="12.4193512"><ele>591.0</ele><time>2026-04-19T12:35:58.703Z</time></trkpt><trkpt lat="43.7592266" lon="12.4192244"><ele>591.0</ele><time>2026-04-19T12:35:59.7Z</time></trkpt><trkpt lat="43.7593064" lon="12.419098"><ele>591.0</ele><time>2026-04-19T12:36:00.706Z</time></trkpt><trkpt lat="43.7594004" lon="12.418971"><ele>591.0</ele><time>2026-04-19T12:36:01.702Z</time></trkpt><trkpt lat="43.7594925" lon="12.4188384"><ele>595.8</ele><time>2026-04-19T12:36:02.701Z</time></trkpt><trkpt lat="43.7595852" lon="12.4187076"><ele>600.6</ele><time>2026-04-19T12:36:03.701Z</time></trkpt><trkpt lat="43.759676" lon="12.4185889"><ele>605.4</ele><time>2026-04-19T12:36:04.704Z</time></trkpt><trkpt lat="43.7597576" lon="12.4184991"><ele>610.2</ele><time>2026-04-19T12:36:05.706Z</time></trkpt><trkpt lat="43.7598326" lon="12.4184382"><ele>615.0</ele><time>2026-04-19T12:36:06.697Z</time></trkpt><trkpt lat="43.7599224" lon="12.4183699"><ele>615.0</ele><time>2026-04-19T12:36:07.708Z</time></trkpt><trkpt lat="43.7600418" lon="12.4182642"><ele>615.0</ele><time>2026-04-19T12:36:08.703Z</time></trkpt><trkpt lat="43.760179" lon="12.4181365"><ele>615.0</ele><time>2026-04-19T12:36:09.702Z</time></trkpt><trkpt lat="43.7603028" lon="12.4180294"><ele>615.8</ele><time>2026-04-19T12:36:10.704Z</time></trkpt><trkpt lat="43.7604089" lon="12.4179459"><ele>616.6</ele><time>2026-04-19T12:36:11.711Z</time></trkpt><trkpt lat="43.7605131" lon="12.4179036"><ele>617.4</ele><time>2026-04-19T12:36:12.723Z</time></trkpt><trkpt lat="43.7606133" lon="12.4178864"><ele>618.2</ele><time>2026-04-19T12:36:13.704Z</time></trkpt><trkpt lat="43.7607204" lon="12.4178992"><ele>619.0</ele><time>2026-04-19T12:36:14.698Z</time></trkpt><trkpt lat="43.7608126" lon="12.4179215"><ele>619.0</ele><time>2026-04-19T12:36:15.693Z</time></trkpt><trkpt lat="43.7608937" lon="12.4179345"><ele>619.0</ele><time>2026-04-19T12:36:16.697Z</time></trkpt><trkpt lat="43.760982" lon="12.4179286"><ele>619.0</ele><time>2026-04-19T12:36:17.7Z</time></trkpt><trkpt lat="43.7610715" lon="12.4179022"><ele>619.0</ele><time>2026-04-19T12:36:18.703Z</time></trkpt><trkpt lat="43.7611503" lon="12.417855"><ele>619.0</ele><time>2026-04-19T12:36:19.696Z</time></trkpt><trkpt lat="43.7612288" lon="12.4177738"><ele>619.0</ele><time>2026-04-19T12:36:20.703Z</time></trkpt><trkpt lat="43.7613071" lon="12.4176394"><ele>617.75</ele><time>2026-04-19T12:36:21.704Z</time></trkpt><trkpt lat="43.7613918" lon="12.4174837"><ele>616.5</ele><time>2026-04-19T12:36:22.697Z</time></trkpt><trkpt lat="43.7614918" lon="12.4173526"><ele>615.25</ele><time>2026-04-19T12:36:23.698Z</time></trkpt><trkpt lat="43.7615869" lon="12.4172336"><ele>614.0</ele><time>2026-04-19T12:36:24.705Z</time></trkpt><trkpt lat="43.7616637" lon="12.4171251"><ele>614.0</ele><time>2026-04-19T12:36:25.696Z</time></trkpt><trkpt lat="43.7617323" lon="12.4170346"><ele>614.0</ele><time>2026-04-19T12:36:26.696Z</time></trkpt><trkpt lat="43.7618132" lon="12.4169595"><ele>614.0</ele><time>2026-04-19T12:36:27.694Z</time></trkpt><trkpt lat="43.7619011" lon="12.4168999"><ele>614.0</ele><time>2026-04-19T12:36:28.696Z</time></trkpt><trkpt lat="43.7619916" lon="12.4168545"><ele>614.0</ele><time>2026-04-19T12:36:29.7Z</time></trkpt><trkpt lat="43.7620833" lon="12.4168104"><ele>612.0</ele><time>2026-04-19T12:36:30.7Z</time></trkpt><trkpt lat="43.7621662" lon="12.4167769"><ele>610.0</ele><time>2026-04-19T12:36:31.696Z</time></trkpt><trkpt lat="43.7622498" lon="12.4167714"><ele>608.0</ele><time>2026-04-19T12:36:32.694Z</time></trkpt><trkpt lat="43.7623334" lon="12.4167753"><ele>606.0</ele><time>2026-04-19T12:36:33.698Z</time></trkpt><trkpt lat="43.7624165" lon="12.4167964"><ele>604.0</ele><time>2026-04-19T12:36:34.709Z</time></trkpt><trkpt lat="43.7624918" lon="12.4168507"><ele>602.0</ele><time>2026-04-19T12:36:35.704Z</time></trkpt><trkpt lat="43.7625609" lon="12.4169383"><ele>602.0</ele><time>2026-04-19T12:36:36.707Z</time></trkpt><trkpt lat="43.7626473" lon="12.4170596"><ele>602.0</ele><time>2026-04-19T12:36:37.706Z</time></trkpt><trkpt lat="43.7627502" lon="12.4171927"><ele>602.0</ele><time>2026-04-19T12:36:38.705Z</time></trkpt><trkpt lat="43.7628524" lon="12.4173227"><ele>602.0</ele><time>2026-04-19T12:36:39.703Z</time></trkpt><trkpt lat="43.7629488" lon="12.4174398"><ele>605.1666666666666</ele><time>2026-04-19T12:36:40.706Z</time></trkpt><trkpt lat="43.7630368" lon="12.4175078"><ele>608.3333333333333</ele><time>2026-04-19T12:36:41.705Z</time></trkpt><trkpt lat="43.7631207" lon="12.4175327"><ele>611.5</ele><time>2026-04-19T12:36:42.703Z</time></trkpt><trkpt lat="43.7632028" lon="12.4175244"><ele>614.6666666666666</ele><time>2026-04-19T12:36:43.719Z</time></trkpt><trkpt lat="43.7632778" lon="12.4174811"><ele>617.8333333333334</ele><time>2026-04-19T12:36:44.701Z</time></trkpt><trkpt lat="43.7633595" lon="12.417424"><ele>621.0</ele><time>2026-04-19T12:36:45.694Z</time></trkpt><trkpt lat="43.7634379" lon="12.4173944"><ele>621.0</ele><time>2026-04-19T12:36:46.697Z</time></trkpt><trkpt lat="43.7635159" lon="12.4173968"><ele>621.0</ele><time>2026-04-19T12:36:47.696Z</time></trkpt><trkpt lat="43.7635819" lon="12.4174224"><ele>621.0</ele><time>2026-04-19T12:36:48.696Z</time></trkpt><trkpt lat="43.7635871" lon="12.4175356"><ele>621.0</ele><time>2026-04-19T12:36:50.703Z</time></trkpt><trkpt lat="43.7634714" lon="12.4176124"><ele>621.0</ele><time>2026-04-19T12:36:52.7Z</time></trkpt><trkpt lat="43.763413" lon="12.4177064"><ele>621.0</ele><time>2026-04-19T12:36:54.698Z</time></trkpt><trkpt lat="43.7634925" lon="12.4177519"><ele>623.2</ele><time>2026-04-19T12:36:56.704Z</time></trkpt><trkpt lat="43.763614" lon="12.4177706"><ele>625.4000000000001</ele><time>2026-04-19T12:36:58.7Z</time></trkpt><trkpt lat="43.7636836" lon="12.4177934"><ele>627.6</ele><time>2026-04-19T12:36:59.694Z</time></trkpt><trkpt lat="43.7637604" lon="12.4178397"><ele>629.8000000000001</ele><time>2026-04-19T12:37:00.692Z</time></trkpt><trkpt lat="43.7638453" lon="12.4178878"><ele>632.0</ele><time>2026-04-19T12:37:01.686Z</time></trkpt><trkpt lat="43.763941" lon="12.4179079"><ele>632.0</ele><time>2026-04-19T12:37:02.68Z</time></trkpt><trkpt lat="43.764051" lon="12.4179087"><ele>632.0</ele><time>2026-04-19T12:37:03.687Z</time></trkpt><trkpt lat="43.7641705" lon="12.4178726"><ele>632.0</ele><time>2026-04-19T12:37:04.678Z</time></trkpt><trkpt lat="43.7642775" lon="12.417829"><ele>632.0</ele><time>2026-04-19T12:37:05.68Z</time></trkpt><trkpt lat="43.7643688" lon="12.4177912"><ele>632.0</ele><time>2026-04-19T12:37:06.689Z</time></trkpt><trkpt lat="43.764435" lon="12.4177564"><ele>636.2</ele><time>2026-04-19T12:37:07.679Z</time></trkpt><trkpt lat="43.7645312" lon="12.4176777"><ele>640.4000000000001</ele><time>2026-04-19T12:37:09.684Z</time></trkpt><trkpt lat="43.7646299" lon="12.4176111"><ele>644.5999999999999</ele><time>2026-04-19T12:37:11.69Z</time></trkpt><trkpt lat="43.7647046" lon="12.4175744"><ele>648.8</ele><time>2026-04-19T12:37:13.694Z</time></trkpt><trkpt lat="43.7647923" lon="12.4175634"><ele>653.0</ele><time>2026-04-19T12:37:45.732Z</time></trkpt><trkpt lat="43.7648527" lon="12.4175137"><ele>653.0</ele><time>2026-04-19T12:37:46.693Z</time></trkpt><trkpt lat="43.7649142" lon="12.4174348"><ele>653.0</ele><time>2026-04-19T12:37:47.685Z</time></trkpt><trkpt lat="43.764966" lon="12.4173352"><ele>653.0</ele><time>2026-04-19T12:37:48.68Z</time></trkpt><trkpt lat="43.7650216" lon="12.4172326"><ele>653.0</ele><time>2026-04-19T12:37:49.684Z</time></trkpt><trkpt lat="43.7650753" lon="12.4171524"><ele>653.0</ele><time>2026-04-19T12:37:50.682Z</time></trkpt><trkpt lat="43.7651377" lon="12.4170824"><ele>653.0</ele><time>2026-04-19T12:37:51.686Z</time></trkpt><trkpt lat="43.7652046" lon="12.4170141"><ele>652.6666666666666</ele><time>2026-04-19T12:37:52.69Z</time></trkpt><trkpt lat="43.7652762" lon="12.4169461"><ele>652.3333333333333</ele><time>2026-04-19T12:37:53.685Z</time></trkpt><trkpt lat="43.7653501" lon="12.4168754"><ele>652.0</ele><time>2026-04-19T12:37:54.691Z</time></trkpt><trkpt lat="43.7654256" lon="12.4168231"><ele>651.6666666666666</ele><time>2026-04-19T12:37:55.683Z</time></trkpt><trkpt lat="43.7655027" lon="12.4167947"><ele>651.3333333333334</ele><time>2026-04-19T12:37:56.687Z</time></trkpt><trkpt lat="43.7655755" lon="12.416778"><ele>651.0</ele><time>2026-04-19T12:37:57.686Z</time></trkpt><trkpt lat="43.7656437" lon="12.41676"><ele>651.0</ele><time>2026-04-19T12:37:58.68Z</time></trkpt><trkpt lat="43.7657151" lon="12.4167424"><ele>651.0</ele><time>2026-04-19T12:37:59.68Z</time></trkpt><trkpt lat="43.7657833" lon="12.4167298"><ele>651.0</ele><time>2026-04-19T12:38:00.692Z</time></trkpt><trkpt lat="43.7658562" lon="12.4167379"><ele>651.0</ele><time>2026-04-19T12:38:01.685Z</time></trkpt><trkpt lat="43.7659299" lon="12.4167491"><ele>651.0</ele><time>2026-04-19T12:38:02.683Z</time></trkpt><trkpt lat="43.7660013" lon="12.4167332"><ele>651.0</ele><time>2026-04-19T12:38:03.691Z</time></trkpt><trkpt lat="43.7660727" lon="12.4166918"><ele>651.0</ele><time>2026-04-19T12:38:04.685Z</time></trkpt><trkpt lat="43.7661542" lon="12.4166332"><ele>654.3333333333334</ele><time>2026-04-19T12:38:05.678Z</time></trkpt><trkpt lat="43.7662421" lon="12.416563"><ele>657.6666666666666</ele><time>2026-04-19T12:38:06.677Z</time></trkpt><trkpt lat="43.7663181" lon="12.4164978"><ele>661.0</ele><time>2026-04-19T12:38:07.68Z</time></trkpt><trkpt lat="43.7663809" lon="12.4164511"><ele>664.3333333333333</ele><time>2026-04-19T12:38:08.676Z</time></trkpt><trkpt lat="43.7664363" lon="12.4163983"><ele>667.6666666666666</ele><time>2026-04-19T12:38:09.685Z</time></trkpt><trkpt lat="43.7664595" lon="12.4163065"><ele>671.0</ele><time>2026-04-19T12:38:10.683Z</time></trkpt><trkpt lat="43.7664938" lon="12.4161902"><ele>671.0</ele><time>2026-04-19T12:38:11.689Z</time></trkpt><trkpt lat="43.7665314" lon="12.4160665"><ele>671.0</ele><time>2026-04-19T12:38:12.684Z</time></trkpt><trkpt lat="43.7665647" lon="12.4159519"><ele>671.0</ele><time>2026-04-19T12:38:13.693Z</time></trkpt><trkpt lat="43.7666337" lon="12.4158837"><ele>671.0</ele><time>2026-04-19T12:38:15.715Z</time></trkpt><trkpt lat="43.7666904" lon="12.4159768"><ele>671.0</ele><time>2026-04-19T12:38:17.701Z</time></trkpt><trkpt lat="43.7666825" lon="12.4160906"><ele>671.0</ele><time>2026-04-19T12:38:25.706Z</time></trkpt><trkpt lat="43.7666387" lon="12.4162272"><ele>671.6666666666666</ele><time>2026-04-19T12:38:27.704Z</time></trkpt><trkpt lat="43.7666269" lon="12.4163253"><ele>672.3333333333333</ele><time>2026-04-19T12:38:28.692Z</time></trkpt><trkpt lat="43.7666289" lon="12.4164284"><ele>673.0</ele><time>2026-04-19T12:38:29.688Z</time></trkpt><trkpt lat="43.7666484" lon="12.4165446"><ele>673.6666666666666</ele><time>2026-04-19T12:38:30.701Z</time></trkpt><trkpt lat="43.766688" lon="12.4166693"><ele>674.3333333333334</ele><time>2026-04-19T12:38:31.684Z</time></trkpt><trkpt lat="43.7667441" lon="12.4167748"><ele>675.0</ele><time>2026-04-19T12:38:32.699Z</time></trkpt><trkpt lat="43.7668039" lon="12.4168589"><ele>676.1666666666666</ele><time>2026-04-19T12:38:33.697Z</time></trkpt><trkpt lat="43.7668842" lon="12.416921"><ele>677.3333333333334</ele><time>2026-04-19T12:38:34.701Z</time></trkpt><trkpt lat="43.7669611" lon="12.4169576"><ele>678.5</ele><time>2026-04-19T12:38:35.693Z</time></trkpt><trkpt lat="43.7670348" lon="12.4169777"><ele>679.6666666666667</ele><time>2026-04-19T12:38:36.696Z</time></trkpt><trkpt lat="43.7671038" lon="12.4169611"><ele>680.8333333333334</ele><time>2026-04-19T12:38:37.695Z</time></trkpt><trkpt lat="43.767171" lon="12.4169153"><ele>682.0</ele><time>2026-04-19T12:38:38.689Z</time></trkpt><trkpt lat="43.7672409" lon="12.4168413"><ele>682.0</ele><time>2026-04-19T12:38:39.686Z</time></trkpt><trkpt lat="43.7673126" lon="12.4167749"><ele>682.0</ele><time>2026-04-19T12:38:40.689Z</time></trkpt><trkpt lat="43.7673877" lon="12.4167076"><ele>682.0</ele><time>2026-04-19T12:38:41.686Z</time></trkpt><trkpt lat="43.7674609" lon="12.4166404"><ele>682.0</ele><time>2026-04-19T12:38:42.684Z</time></trkpt><trkpt lat="43.767539" lon="12.4165521"><ele>682.0</ele><time>2026-04-19T12:38:43.689Z</time></trkpt><trkpt lat="43.7676163" lon="12.4164672"><ele>683.2</ele><time>2026-04-19T12:38:44.691Z</time></trkpt><trkpt lat="43.7676971" lon="12.4163839"><ele>684.4000000000001</ele><time>2026-04-19T12:38:45.688Z</time></trkpt><trkpt lat="43.7677868" lon="12.4163024"><ele>685.5999999999999</ele><time>2026-04-19T12:38:46.706Z</time></trkpt><trkpt lat="43.7678819" lon="12.4162306"><ele>686.8</ele><time>2026-04-19T12:38:47.687Z</time></trkpt><trkpt lat="43.7679782" lon="12.4161649"><ele>688.0</ele><time>2026-04-19T12:38:48.693Z</time></trkpt><trkpt lat="43.7680789" lon="12.4161123"><ele>688.0</ele><time>2026-04-19T12:38:49.69Z</time></trkpt><trkpt lat="43.7681812" lon="12.4160811"><ele>688.0</ele><time>2026-04-19T12:38:50.679Z</time></trkpt><trkpt lat="43.7682723" lon="12.4160752"><ele>688.0</ele><time>2026-04-19T12:38:51.688Z</time></trkpt><trkpt lat="43.7683652" lon="12.4161055"><ele>688.0</ele><time>2026-04-19T12:38:52.69Z</time></trkpt><trkpt lat="43.7684787" lon="12.4161645"><ele>688.0</ele><time>2026-04-19T12:38:53.688Z</time></trkpt><trkpt lat="43.7685989" lon="12.4162059"><ele>684.5</ele><time>2026-04-19T12:38:54.689Z</time></trkpt><trkpt lat="43.7687284" lon="12.4162441"><ele>681.0</ele><time>2026-04-19T12:38:55.692Z</time></trkpt><trkpt lat="43.7688533" lon="12.4162865"><ele>677.5</ele><time>2026-04-19T12:38:56.689Z</time></trkpt><trkpt lat="43.7689679" lon="12.4163287"><ele>674.0</ele><time>2026-04-19T12:38:57.686Z</time></trkpt><trkpt lat="43.769069" lon="12.416361"><ele>674.0</ele><time>2026-04-19T12:38:58.698Z</time></trkpt><trkpt lat="43.7691517" lon="12.4163638"><ele>674.0</ele><time>2026-04-19T12:38:59.693Z</time></trkpt><trkpt lat="43.7692174" lon="12.4163317"><ele>674.0</ele><time>2026-04-19T12:39:00.692Z</time></trkpt><trkpt lat="43.7692882" lon="12.4162889"><ele>674.0</ele><time>2026-04-19T12:39:01.691Z</time></trkpt><trkpt lat="43.7693635" lon="12.4162201"><ele>674.0</ele><time>2026-04-19T12:39:02.69Z</time></trkpt><trkpt lat="43.7694427" lon="12.4161409"><ele>674.0</ele><time>2026-04-19T12:39:03.699Z</time></trkpt><trkpt lat="43.7695367" lon="12.4160369"><ele>667.75</ele><time>2026-04-19T12:39:04.691Z</time></trkpt><trkpt lat="43.7696329" lon="12.4159288"><ele>661.5</ele><time>2026-04-19T12:39:05.688Z</time></trkpt><trkpt lat="43.7697261" lon="12.4158278"><ele>655.25</ele><time>2026-04-19T12:39:06.685Z</time></trkpt><trkpt lat="43.7698188" lon="12.4157439"><ele>649.0</ele><time>2026-04-19T12:39:07.685Z</time></trkpt><trkpt lat="43.7699132" lon="12.4156782"><ele>649.0</ele><time>2026-04-19T12:39:08.679Z</time></trkpt><trkpt lat="43.7700259" lon="12.4156265"><ele>649.0</ele><time>2026-04-19T12:39:09.685Z</time></trkpt><trkpt lat="43.7701479" lon="12.4155725"><ele>649.0</ele><time>2026-04-19T12:39:10.692Z</time></trkpt><trkpt lat="43.7702765" lon="12.4155077"><ele>649.0</ele><time>2026-04-19T12:39:11.694Z</time></trkpt><trkpt lat="43.7703945" lon="12.4154344"><ele>648.6</ele><time>2026-04-19T12:39:12.693Z</time></trkpt><trkpt lat="43.7705091" lon="12.415374"><ele>648.2</ele><time>2026-04-19T12:39:13.696Z</time></trkpt><trkpt lat="43.7706138" lon="12.4153273"><ele>647.8000000000001</ele><time>2026-04-19T12:39:14.698Z</time></trkpt><trkpt lat="43.7707081" lon="12.4152978"><ele>647.4000000000001</ele><time>2026-04-19T12:39:15.699Z</time></trkpt><trkpt lat="43.7708003" lon="12.4152932"><ele>647.0</ele><time>2026-04-19T12:39:16.701Z</time></trkpt><trkpt lat="43.770901" lon="12.4153085"><ele>647.0</ele><time>2026-04-19T12:39:17.715Z</time></trkpt><trkpt lat="43.7710126" lon="12.4153162"><ele>647.0</ele><time>2026-04-19T12:39:18.697Z</time></trkpt><trkpt lat="43.771129" lon="12.4153097"><ele>647.0</ele><time>2026-04-19T12:39:19.69Z</time></trkpt><trkpt lat="43.7712345" lon="12.4152944"><ele>647.0</ele><time>2026-04-19T12:39:20.699Z</time></trkpt><trkpt lat="43.7713405" lon="12.4152867"><ele>647.0</ele><time>2026-04-19T12:39:21.696Z</time></trkpt><trkpt lat="43.7714458" lon="12.415287"><ele>642.8000000000001</ele><time>2026-04-19T12:39:22.697Z</time></trkpt><trkpt lat="43.7715405" lon="12.4152894"><ele>638.6</ele><time>2026-04-19T12:39:23.698Z</time></trkpt><trkpt lat="43.7716359" lon="12.4152901"><ele>634.4000000000001</ele><time>2026-04-19T12:39:24.707Z</time></trkpt><trkpt lat="43.771728" lon="12.415292"><ele>630.2</ele><time>2026-04-19T12:39:25.704Z</time></trkpt><trkpt lat="43.7718147" lon="12.4152913"><ele>626.0</ele><time>2026-04-19T12:39:26.695Z</time></trkpt><trkpt lat="43.7719045" lon="12.4152931"><ele>620.8333333333333</ele><time>2026-04-19T12:39:27.705Z</time></trkpt><trkpt lat="43.7719807" lon="12.4152861"><ele>615.6666666666666</ele><time>2026-04-19T12:39:28.685Z</time></trkpt><trkpt lat="43.772049" lon="12.4152789"><ele>610.5</ele><time>2026-04-19T12:39:29.702Z</time></trkpt><trkpt lat="43.7721163" lon="12.4152632"><ele>605.3333333333334</ele><time>2026-04-19T12:39:30.696Z</time></trkpt><trkpt lat="43.7722359" lon="12.4152199"><ele>600.1666666666667</ele><time>2026-04-19T12:39:32.696Z</time></trkpt><trkpt lat="43.7723302" lon="12.4152346"><ele>595.0</ele><time>2026-04-19T12:39:34.695Z</time></trkpt><trkpt lat="43.7723932" lon="12.4153137"><ele>595.0</ele><time>2026-04-19T12:39:36.689Z</time></trkpt><trkpt lat="43.7723656" lon="12.415422"><ele>595.0</ele><time>2026-04-19T12:39:38.709Z</time></trkpt><trkpt lat="43.7722575" lon="12.41552"><ele>595.0</ele><time>2026-04-19T12:39:40.702Z</time></trkpt><trkpt lat="43.7721919" lon="12.41557"><ele>595.0</ele><time>2026-04-19T12:39:41.689Z</time></trkpt><trkpt lat="43.7721245" lon="12.4156347"><ele>595.0</ele><time>2026-04-19T12:39:42.693Z</time></trkpt><trkpt lat="43.7720455" lon="12.4157047"><ele>596.0</ele><time>2026-04-19T12:39:43.689Z</time></trkpt><trkpt lat="43.7719683" lon="12.4157845"><ele>597.0</ele><time>2026-04-19T12:39:44.69Z</time></trkpt><trkpt lat="43.7718851" lon="12.4158727"><ele>598.0</ele><time>2026-04-19T12:39:45.689Z</time></trkpt><trkpt lat="43.7718022" lon="12.4159599"><ele>599.0</ele><time>2026-04-19T12:39:46.692Z</time></trkpt><trkpt lat="43.7717355" lon="12.4160343"><ele>600.0</ele><time>2026-04-19T12:39:47.692Z</time></trkpt><trkpt lat="43.7716855" lon="12.4161022"><ele>600.0</ele><time>2026-04-19T12:39:48.704Z</time></trkpt><trkpt lat="43.7716517" lon="12.4161798"><ele>600.0</ele><time>2026-04-19T12:39:49.692Z</time></trkpt><trkpt lat="43.7716427" lon="12.4163206"><ele>600.0</ele><time>2026-04-19T12:39:51.695Z</time></trkpt><trkpt lat="43.771732" lon="12.4164404"><ele>600.0</ele><time>2026-04-19T12:39:53.688Z</time></trkpt><trkpt lat="43.7717815" lon="12.4165057"><ele>600.0</ele><time>2026-04-19T12:39:54.688Z</time></trkpt><trkpt lat="43.7718399" lon="12.4165782"><ele>600.0</ele><time>2026-04-19T12:39:55.682Z</time></trkpt><trkpt lat="43.7719108" lon="12.416653"><ele>594.3333333333334</ele><time>2026-04-19T12:39:56.696Z</time></trkpt><trkpt lat="43.7719811" lon="12.41673"><ele>588.6666666666666</ele><time>2026-04-19T12:39:57.691Z</time></trkpt><trkpt lat="43.7720472" lon="12.4168124"><ele>583.0</ele><time>2026-04-19T12:39:58.691Z</time></trkpt><trkpt lat="43.7721122" lon="12.416895"><ele>577.3333333333333</ele><time>2026-04-19T12:39:59.695Z</time></trkpt><trkpt lat="43.7721801" lon="12.4169749"><ele>571.6666666666666</ele><time>2026-04-19T12:40:00.7Z</time></trkpt><trkpt lat="43.7722405" lon="12.4170476"><ele>566.0</ele><time>2026-04-19T12:40:01.694Z</time></trkpt><trkpt lat="43.7723071" lon="12.4171155"><ele>564.3333333333333</ele><time>2026-04-19T12:40:02.7Z</time></trkpt><trkpt lat="43.7723679" lon="12.4171873"><ele>562.6666666666666</ele><time>2026-04-19T12:40:03.696Z</time></trkpt><trkpt lat="43.7724254" lon="12.4172606"><ele>561.0</ele><time>2026-04-19T12:40:04.7Z</time></trkpt><trkpt lat="43.7724765" lon="12.4173291"><ele>559.3333333333334</ele><time>2026-04-19T12:40:05.701Z</time></trkpt><trkpt lat="43.7725174" lon="12.4174011"><ele>557.6666666666667</ele><time>2026-04-19T12:40:06.697Z</time></trkpt><trkpt lat="43.7725659" lon="12.4175489"><ele>556.0</ele><time>2026-04-19T12:40:08.696Z</time></trkpt><trkpt lat="43.772548" lon="12.4176755"><ele>556.0</ele><time>2026-04-19T12:40:10.702Z</time></trkpt><trkpt lat="43.7724247" lon="12.4177436"><ele>556.0</ele><time>2026-04-19T12:40:12.705Z</time></trkpt><trkpt lat="43.7723479" lon="12.4177724"><ele>556.0</ele><time>2026-04-19T12:40:13.696Z</time></trkpt><trkpt lat="43.7722588" lon="12.4178028"><ele>556.0</ele><time>2026-04-19T12:40:14.698Z</time></trkpt><trkpt lat="43.7721599" lon="12.4178461"><ele>556.0</ele><time>2026-04-19T12:40:15.698Z</time></trkpt><trkpt lat="43.7720527" lon="12.4178967"><ele>556.0</ele><time>2026-04-19T12:40:16.699Z</time></trkpt><trkpt lat="43.7719509" lon="12.4179572"><ele>556.0</ele><time>2026-04-19T12:40:17.695Z</time></trkpt><trkpt lat="43.7718443" lon="12.4180149"><ele>556.0</ele><time>2026-04-19T12:40:18.695Z</time></trkpt><trkpt lat="43.7717419" lon="12.418083"><ele>556.0</ele><time>2026-04-19T12:40:19.711Z</time></trkpt><trkpt lat="43.7716599" lon="12.4181536"><ele>556.0</ele><time>2026-04-19T12:40:20.692Z</time></trkpt><trkpt lat="43.7715767" lon="12.4182275"><ele>554.25</ele><time>2026-04-19T12:40:21.687Z</time></trkpt><trkpt lat="43.7715041" lon="12.418322"><ele>552.5</ele><time>2026-04-19T12:40:22.697Z</time></trkpt><trkpt lat="43.7714471" lon="12.4184604"><ele>550.75</ele><time>2026-04-19T12:40:23.686Z</time></trkpt><trkpt lat="43.7713976" lon="12.4186155"><ele>549.0</ele><time>2026-04-19T12:40:24.698Z</time></trkpt><trkpt lat="43.7713481" lon="12.4187841"><ele>544.5</ele><time>2026-04-19T12:40:25.69Z</time></trkpt><trkpt lat="43.7712945" lon="12.4189537"><ele>540.0</ele><time>2026-04-19T12:40:26.691Z</time></trkpt><trkpt lat="43.7712499" lon="12.4191173"><ele>535.5</ele><time>2026-04-19T12:40:27.692Z</time></trkpt><trkpt lat="43.7712034" lon="12.4192776"><ele>531.0</ele><time>2026-04-19T12:40:28.691Z</time></trkpt><trkpt lat="43.7711576" lon="12.4194292"><ele>531.0</ele><time>2026-04-19T12:40:29.696Z</time></trkpt><trkpt lat="43.7711099" lon="12.4195696"><ele>531.0</ele><time>2026-04-19T12:40:30.695Z</time></trkpt><trkpt lat="43.7710653" lon="12.4196932"><ele>531.0</ele><time>2026-04-19T12:40:31.693Z</time></trkpt><trkpt lat="43.7710262" lon="12.4198102"><ele>531.0</ele><time>2026-04-19T12:40:32.689Z</time></trkpt><trkpt lat="43.7709878" lon="12.4199167"><ele>531.0</ele><time>2026-04-19T12:40:33.692Z</time></trkpt><trkpt lat="43.7709653" lon="12.4200207"><ele>531.4</ele><time>2026-04-19T12:40:34.691Z</time></trkpt><trkpt lat="43.7709551" lon="12.4201315"><ele>531.8</ele><time>2026-04-19T12:40:35.699Z</time></trkpt><trkpt lat="43.7709648" lon="12.4202465"><ele>532.1999999999999</ele><time>2026-04-19T12:40:36.697Z</time></trkpt><trkpt lat="43.7710027" lon="12.4203642"><ele>532.6</ele><time>2026-04-19T12:40:37.691Z</time></trkpt><trkpt lat="43.7710605" lon="12.4204738"><ele>533.0</ele><time>2026-04-19T12:40:38.689Z</time></trkpt><trkpt lat="43.7711217" lon="12.4205769"><ele>530.0</ele><time>2026-04-19T12:40:39.689Z</time></trkpt><trkpt lat="43.7711756" lon="12.4206629"><ele>527.0</ele><time>2026-04-19T12:40:40.691Z</time></trkpt><trkpt lat="43.771236" lon="12.4207262"><ele>524.0</ele><time>2026-04-19T12:40:41.687Z</time></trkpt><trkpt lat="43.7713221" lon="12.4208094"><ele>521.0</ele><time>2026-04-19T12:40:43.698Z</time></trkpt><trkpt lat="43.771464" lon="12.4207755"><ele>518.0</ele><time>2026-04-19T12:40:45.698Z</time></trkpt><trkpt lat="43.7715679" lon="12.4207152"><ele>518.0</ele><time>2026-04-19T12:40:46.694Z</time></trkpt><trkpt lat="43.771676" lon="12.420648"><ele>518.0</ele><time>2026-04-19T12:40:47.696Z</time></trkpt><trkpt lat="43.771764" lon="12.4205893"><ele>518.0</ele><time>2026-04-19T12:40:48.691Z</time></trkpt><trkpt lat="43.7718527" lon="12.4205419"><ele>518.0</ele><time>2026-04-19T12:40:49.702Z</time></trkpt><trkpt lat="43.7719434" lon="12.4205227"><ele>518.0</ele><time>2026-04-19T12:40:50.721Z</time></trkpt><trkpt lat="43.7720284" lon="12.4205324"><ele>515.8</ele><time>2026-04-19T12:40:51.689Z</time></trkpt><trkpt lat="43.7721162" lon="12.4205602"><ele>513.5999999999999</ele><time>2026-04-19T12:40:52.693Z</time></trkpt><trkpt lat="43.7722029" lon="12.4205959"><ele>511.40000000000003</ele><time>2026-04-19T12:40:53.696Z</time></trkpt><trkpt lat="43.772294" lon="12.4206352"><ele>509.20000000000005</ele><time>2026-04-19T12:40:54.697Z</time></trkpt><trkpt lat="43.7723844" lon="12.4206809"><ele>507.0</ele><time>2026-04-19T12:40:55.699Z</time></trkpt><trkpt lat="43.7724771" lon="12.4207258"><ele>507.0</ele><time>2026-04-19T12:40:56.701Z</time></trkpt><trkpt lat="43.772568" lon="12.4207675"><ele>507.00000000000006</ele><time>2026-04-19T12:40:57.705Z</time></trkpt><trkpt lat="43.7726603" lon="12.4208101"><ele>507.00000000000006</ele><time>2026-04-19T12:40:58.707Z</time></trkpt><trkpt lat="43.7727584" lon="12.4208393"><ele>507.0</ele><time>2026-04-19T12:40:59.697Z</time></trkpt><trkpt lat="43.7728544" lon="12.420855"><ele>507.0</ele><time>2026-04-19T12:41:00.705Z</time></trkpt><trkpt lat="43.7729518" lon="12.4208603"><ele>505.40000000000003</ele><time>2026-04-19T12:41:01.698Z</time></trkpt><trkpt lat="43.7730511" lon="12.4208693"><ele>503.80000000000007</ele><time>2026-04-19T12:41:02.698Z</time></trkpt><trkpt lat="43.7731479" lon="12.420885"><ele>502.2</ele><time>2026-04-19T12:41:03.695Z</time></trkpt><trkpt lat="43.7732417" lon="12.4209003"><ele>500.6</ele><time>2026-04-19T12:41:04.695Z</time></trkpt><trkpt lat="43.7733338" lon="12.4209188"><ele>499.0</ele><time>2026-04-19T12:41:05.7Z</time></trkpt><trkpt lat="43.7734265" lon="12.4209284"><ele>499.00000000000006</ele><time>2026-04-19T12:41:06.703Z</time></trkpt><trkpt lat="43.7735145" lon="12.4209357"><ele>499.0</ele><time>2026-04-19T12:41:07.706Z</time></trkpt><trkpt lat="43.7736021" lon="12.4209361"><ele>499.0</ele><time>2026-04-19T12:41:08.712Z</time></trkpt><trkpt lat="43.7736902" lon="12.4209386"><ele>499.0</ele><time>2026-04-19T12:41:09.703Z</time></trkpt><trkpt lat="43.7737781" lon="12.4209344"><ele>499.00000000000006</ele><time>2026-04-19T12:41:10.701Z</time></trkpt><trkpt lat="43.7738705" lon="12.4209182"><ele>499.0</ele><time>2026-04-19T12:41:11.704Z</time></trkpt><trkpt lat="43.7739604" lon="12.4208877"><ele>496.83333333333337</ele><time>2026-04-19T12:41:12.697Z</time></trkpt><trkpt lat="43.7740464" lon="12.420858"><ele>494.6666666666667</ele><time>2026-04-19T12:41:13.699Z</time></trkpt><trkpt lat="43.7741289" lon="12.4208273"><ele>492.5</ele><time>2026-04-19T12:41:14.698Z</time></trkpt><trkpt lat="43.7742162" lon="12.4208032"><ele>490.33333333333337</ele><time>2026-04-19T12:41:15.695Z</time></trkpt><trkpt lat="43.774303" lon="12.4207893"><ele>488.1666666666667</ele><time>2026-04-19T12:41:16.699Z</time></trkpt><trkpt lat="43.7743872" lon="12.4207921"><ele>486.0</ele><time>2026-04-19T12:41:17.698Z</time></trkpt><trkpt lat="43.7744755" lon="12.420805"><ele>482.6</ele><time>2026-04-19T12:41:18.7Z</time></trkpt><trkpt lat="43.7745711" lon="12.420822"><ele>479.20000000000005</ele><time>2026-04-19T12:41:19.699Z</time></trkpt><trkpt lat="43.7746687" lon="12.4208418"><ele>475.79999999999995</ele><time>2026-04-19T12:41:20.699Z</time></trkpt><trkpt lat="43.7747685" lon="12.4208696"><ele>472.4</ele><time>2026-04-19T12:41:21.718Z</time></trkpt><trkpt lat="43.7748632" lon="12.4209102"><ele>469.0</ele><time>2026-04-19T12:41:22.702Z</time></trkpt><trkpt lat="43.774952" lon="12.4209625"><ele>469.0</ele><time>2026-04-19T12:41:23.703Z</time></trkpt><trkpt lat="43.7750427" lon="12.4210326"><ele>469.0</ele><time>2026-04-19T12:41:24.698Z</time></trkpt><trkpt lat="43.7751403" lon="12.4211186"><ele>469.0</ele><time>2026-04-19T12:41:25.69Z</time></trkpt><trkpt lat="43.7752409" lon="12.4212076"><ele>469.0</ele><time>2026-04-19T12:41:26.696Z</time></trkpt><trkpt lat="43.7753353" lon="12.4212939"><ele>466.0</ele><time>2026-04-19T12:41:27.691Z</time></trkpt><trkpt lat="43.7754177" lon="12.421374"><ele>463.0</ele><time>2026-04-19T12:41:28.695Z</time></trkpt><trkpt lat="43.775476" lon="12.4214249"><ele>460.0</ele><time>2026-04-19T12:41:29.695Z</time></trkpt><trkpt lat="43.7755466" lon="12.4214132"><ele>457.0</ele><time>2026-04-19T12:41:31.683Z</time></trkpt><trkpt lat="43.7755462" lon="12.4213204"><ele>454.0</ele><time>2026-04-19T12:41:33.709Z</time></trkpt><trkpt lat="43.7754548" lon="12.4211493"><ele>453.75</ele><time>2026-04-19T12:41:35.7Z</time></trkpt><trkpt lat="43.7753949" lon="12.4210083"><ele>453.5</ele><time>2026-04-19T12:41:36.693Z</time></trkpt><trkpt lat="43.7753527" lon="12.4208435"><ele>453.25</ele><time>2026-04-19T12:41:37.693Z</time></trkpt><trkpt lat="43.7753208" lon="12.4206547"><ele>453.0</ele><time>2026-04-19T12:41:38.697Z</time></trkpt><trkpt lat="43.775298" lon="12.420431"><ele>453.66666666666663</ele><time>2026-04-19T12:41:39.698Z</time></trkpt><trkpt lat="43.7752843" lon="12.4201547"><ele>454.3333333333333</ele><time>2026-04-19T12:41:40.691Z</time></trkpt><trkpt lat="43.7752776" lon="12.4198962"><ele>455.0</ele><time>2026-04-19T12:41:41.694Z</time></trkpt><trkpt lat="43.7752619" lon="12.4196698"><ele>456.8</ele><time>2026-04-19T12:41:42.693Z</time></trkpt><trkpt lat="43.7752445" lon="12.4194849"><ele>458.6</ele><time>2026-04-19T12:41:43.686Z</time></trkpt><trkpt lat="43.7752392" lon="12.4193102"><ele>460.4</ele><time>2026-04-19T12:41:44.695Z</time></trkpt><trkpt lat="43.7752427" lon="12.419171"><ele>462.2</ele><time>2026-04-19T12:41:45.694Z</time></trkpt><trkpt lat="43.7752425" lon="12.419052"><ele>464.0</ele><time>2026-04-19T12:41:46.685Z</time></trkpt><trkpt lat="43.7752806" lon="12.4189784"><ele>464.0</ele><time>2026-04-19T12:41:47.695Z</time></trkpt><trkpt lat="43.7753348" lon="12.4189288"><ele>464.0</ele><time>2026-04-19T12:41:48.688Z</time></trkpt><trkpt lat="43.7754065" lon="12.4189052"><ele>464.0</ele><time>2026-04-19T12:41:49.688Z</time></trkpt><trkpt lat="43.7755051" lon="12.4189121"><ele>464.0</ele><time>2026-04-19T12:41:50.694Z</time></trkpt><trkpt lat="43.7756419" lon="12.4189401"><ele>464.0</ele><time>2026-04-19T12:41:51.685Z</time></trkpt><trkpt lat="43.7757905" lon="12.4189672"><ele>464.0</ele><time>2026-04-19T12:41:52.705Z</time></trkpt><trkpt lat="43.7759458" lon="12.4189909"><ele>464.0</ele><time>2026-04-19T12:41:53.688Z</time></trkpt><trkpt lat="43.7761237" lon="12.4190193"><ele>464.0</ele><time>2026-04-19T12:41:54.689Z</time></trkpt><trkpt lat="43.7763144" lon="12.4190467"><ele>463.3333333333333</ele><time>2026-04-19T12:41:55.687Z</time></trkpt><trkpt lat="43.7764949" lon="12.4190718"><ele>462.66666666666663</ele><time>2026-04-19T12:41:56.698Z</time></trkpt><trkpt lat="43.7766606" lon="12.4190886"><ele>462.0</ele><time>2026-04-19T12:41:57.698Z</time></trkpt><trkpt lat="43.7768288" lon="12.419105"><ele>459.33333333333337</ele><time>2026-04-19T12:41:58.696Z</time></trkpt><trkpt lat="43.776991" lon="12.4191123"><ele>456.6666666666667</ele><time>2026-04-19T12:41:59.696Z</time></trkpt><trkpt lat="43.7771437" lon="12.4191078"><ele>454.0</ele><time>2026-04-19T12:42:00.699Z</time></trkpt><trkpt lat="43.7772826" lon="12.4190895"><ele>454.0</ele><time>2026-04-19T12:42:01.691Z</time></trkpt><trkpt lat="43.7773971" lon="12.4190883"><ele>454.0</ele><time>2026-04-19T12:42:02.685Z</time></trkpt><trkpt lat="43.7774856" lon="12.4190828"><ele>454.0</ele><time>2026-04-19T12:42:03.692Z</time></trkpt><trkpt lat="43.7775582" lon="12.4190719"><ele>454.0</ele><time>2026-04-19T12:42:04.689Z</time></trkpt><trkpt lat="43.7776545" lon="12.419045"><ele>454.0</ele><time>2026-04-19T12:42:06.69Z</time></trkpt><trkpt lat="43.7777218" lon="12.4190925"><ele>452.4</ele><time>2026-04-19T12:42:08.693Z</time></trkpt><trkpt lat="43.7778074" lon="12.4192084"><ele>450.79999999999995</ele><time>2026-04-19T12:42:10.689Z</time></trkpt><trkpt lat="43.777862" lon="12.4192732"><ele>449.20000000000005</ele><time>2026-04-19T12:42:11.699Z</time></trkpt><trkpt lat="43.7779183" lon="12.419327"><ele>447.6</ele><time>2026-04-19T12:42:12.699Z</time></trkpt><trkpt lat="43.7780339" lon="12.4193501"><ele>446.0</ele><time>2026-04-19T12:42:14.702Z</time></trkpt><trkpt lat="43.7781585" lon="12.4192995"><ele>445.99999999999994</ele><time>2026-04-19T12:42:16.701Z</time></trkpt><trkpt lat="43.7782364" lon="12.4192522"><ele>446.0</ele><time>2026-04-19T12:42:17.703Z</time></trkpt><trkpt lat="43.77831" lon="12.4192126"><ele>446.0</ele><time>2026-04-19T12:42:18.701Z</time></trkpt><trkpt lat="43.778385" lon="12.4191767"><ele>446.0</ele><time>2026-04-19T12:42:19.7Z</time></trkpt><trkpt lat="43.7784604" lon="12.4191534"><ele>445.99999999999994</ele><time>2026-04-19T12:42:20.698Z</time></trkpt><trkpt lat="43.7785309" lon="12.4191518"><ele>446.0</ele><time>2026-04-19T12:42:21.694Z</time></trkpt><trkpt lat="43.7786005" lon="12.4191768"><ele>443.16666666666663</ele><time>2026-04-19T12:42:22.7Z</time></trkpt><trkpt lat="43.7786606" lon="12.4192365"><ele>440.3333333333333</ele><time>2026-04-19T12:42:23.735Z</time></trkpt><trkpt lat="43.7787067" lon="12.4193322"><ele>437.5</ele><time>2026-04-19T12:42:24.694Z</time></trkpt><trkpt lat="43.7787391" lon="12.4194418"><ele>434.66666666666663</ele><time>2026-04-19T12:42:25.689Z</time></trkpt><trkpt lat="43.7787562" lon="12.4195554"><ele>431.8333333333333</ele><time>2026-04-19T12:42:26.692Z</time></trkpt><trkpt lat="43.7787636" lon="12.4196668"><ele>429.0</ele><time>2026-04-19T12:42:27.697Z</time></trkpt><trkpt lat="43.7787793" lon="12.4197636"><ele>428.79999999999995</ele><time>2026-04-19T12:42:28.691Z</time></trkpt><trkpt lat="43.7788487" lon="12.4198871"><ele>428.59999999999997</ele><time>2026-04-19T12:42:30.697Z</time></trkpt><trkpt lat="43.7789146" lon="12.4199291"><ele>428.4</ele><time>2026-04-19T12:42:31.684Z</time></trkpt><trkpt lat="43.7789966" lon="12.4199854"><ele>428.2</ele><time>2026-04-19T12:42:32.691Z</time></trkpt><trkpt lat="43.7790853" lon="12.4200459"><ele>428.0</ele><time>2026-04-19T12:42:33.695Z</time></trkpt><trkpt lat="43.7791643" lon="12.4201085"><ele>427.99999999999994</ele><time>2026-04-19T12:42:34.694Z</time></trkpt><trkpt lat="43.7792343" lon="12.4201809"><ele>428.0</ele><time>2026-04-19T12:42:35.694Z</time></trkpt><trkpt lat="43.7793003" lon="12.420259"><ele>428.0</ele><time>2026-04-19T12:42:36.684Z</time></trkpt><trkpt lat="43.7793539" lon="12.4203379"><ele>428.0</ele><time>2026-04-19T12:42:37.696Z</time></trkpt><trkpt lat="43.7793983" lon="12.4204265"><ele>427.99999999999994</ele><time>2026-04-19T12:42:38.692Z</time></trkpt><trkpt lat="43.7794411" lon="12.4205223"><ele>428.0</ele><time>2026-04-19T12:42:39.694Z</time></trkpt><trkpt lat="43.7794898" lon="12.4206328"><ele>424.2</ele><time>2026-04-19T12:42:40.691Z</time></trkpt><trkpt lat="43.7795415" lon="12.4207454"><ele>420.4</ele><time>2026-04-19T12:42:41.694Z</time></trkpt><trkpt lat="43.7795999" lon="12.4208578"><ele>416.59999999999997</ele><time>2026-04-19T12:42:42.685Z</time></trkpt><trkpt lat="43.7796617" lon="12.4209664"><ele>412.79999999999995</ele><time>2026-04-19T12:42:43.676Z</time></trkpt><trkpt lat="43.7797228" lon="12.4210922"><ele>409.0</ele><time>2026-04-19T12:42:44.693Z</time></trkpt><trkpt lat="43.7797877" lon="12.4212319"><ele>408.79999999999995</ele><time>2026-04-19T12:42:45.692Z</time></trkpt><trkpt lat="43.7798548" lon="12.4213684"><ele>408.59999999999997</ele><time>2026-04-19T12:42:46.697Z</time></trkpt><trkpt lat="43.7799198" lon="12.4215008"><ele>408.4</ele><time>2026-04-19T12:42:47.693Z</time></trkpt><trkpt lat="43.7799805" lon="12.4216148"><ele>408.2</ele><time>2026-04-19T12:42:48.692Z</time></trkpt><trkpt lat="43.7800299" lon="12.4217095"><ele>408.0</ele><time>2026-04-19T12:42:49.697Z</time></trkpt><trkpt lat="43.7800704" lon="12.4217835"><ele>408.0</ele><time>2026-04-19T12:42:50.692Z</time></trkpt><trkpt lat="43.7801258" lon="12.4218764"><ele>408.0</ele><time>2026-04-19T12:42:52.697Z</time></trkpt><trkpt lat="43.7801444" lon="12.4219657"><ele>408.0</ele><time>2026-04-19T12:42:54.697Z</time></trkpt><trkpt lat="43.7801845" lon="12.4220574"><ele>408.0</ele><time>2026-04-19T12:42:56.707Z</time></trkpt><trkpt lat="43.7802577" lon="12.4221815"><ele>408.0</ele><time>2026-04-19T12:42:58.699Z</time></trkpt><trkpt lat="43.780304" lon="12.4222491"><ele>408.0</ele><time>2026-04-19T12:42:59.699Z</time></trkpt><trkpt lat="43.7803618" lon="12.4223104"><ele>404.6666666666667</ele><time>2026-04-19T12:43:00.698Z</time></trkpt><trkpt lat="43.7804256" lon="12.4223617"><ele>401.33333333333337</ele><time>2026-04-19T12:43:01.696Z</time></trkpt><trkpt lat="43.7804903" lon="12.4224176"><ele>398.0</ele><time>2026-04-19T12:43:02.696Z</time></trkpt><trkpt lat="43.7805499" lon="12.4224875"><ele>394.6666666666667</ele><time>2026-04-19T12:43:03.695Z</time></trkpt><trkpt lat="43.7805995" lon="12.4225757"><ele>391.33333333333337</ele><time>2026-04-19T12:43:04.699Z</time></trkpt><trkpt lat="43.7806406" lon="12.4226836"><ele>388.0</ele><time>2026-04-19T12:43:05.697Z</time></trkpt><trkpt lat="43.7806724" lon="12.4227968"><ele>388.00000000000006</ele><time>2026-04-19T12:43:06.695Z</time></trkpt><trkpt lat="43.7807102" lon="12.4229002"><ele>388.0</ele><time>2026-04-19T12:43:07.692Z</time></trkpt><trkpt lat="43.7807578" lon="12.422968"><ele>388.0</ele><time>2026-04-19T12:43:08.699Z</time></trkpt><trkpt lat="43.7808292" lon="12.4230199"><ele>388.0</ele><time>2026-04-19T12:43:09.701Z</time></trkpt><trkpt lat="43.7809118" lon="12.4230629"><ele>388.00000000000006</ele><time>2026-04-19T12:43:10.697Z</time></trkpt><trkpt lat="43.7809939" lon="12.4231107"><ele>388.0</ele><time>2026-04-19T12:43:11.695Z</time></trkpt><trkpt lat="43.7810635" lon="12.423162"><ele>385.33333333333337</ele><time>2026-04-19T12:43:12.7Z</time></trkpt><trkpt lat="43.7811191" lon="12.4232327"><ele>382.6666666666667</ele><time>2026-04-19T12:43:13.699Z</time></trkpt><trkpt lat="43.7811564" lon="12.4233155"><ele>380.0</ele><time>2026-04-19T12:43:14.692Z</time></trkpt><trkpt lat="43.7811684" lon="12.4234063"><ele>377.33333333333337</ele><time>2026-04-19T12:43:15.703Z</time></trkpt><trkpt lat="43.7811569" lon="12.4235037"><ele>374.6666666666667</ele><time>2026-04-19T12:43:16.703Z</time></trkpt><trkpt lat="43.7811272" lon="12.4236035"><ele>372.0</ele><time>2026-04-19T12:43:17.703Z</time></trkpt><trkpt lat="43.7810709" lon="12.4237149"><ele>372.5</ele><time>2026-04-19T12:43:18.702Z</time></trkpt><trkpt lat="43.7810161" lon="12.4238274"><ele>373.0</ele><time>2026-04-19T12:43:19.702Z</time></trkpt><trkpt lat="43.7809736" lon="12.4239343"><ele>373.5</ele><time>2026-04-19T12:43:20.7Z</time></trkpt><trkpt lat="43.7809631" lon="12.4240234"><ele>374.0</ele><time>2026-04-19T12:43:21.699Z</time></trkpt><trkpt lat="43.7810289" lon="12.424163"><ele>374.5</ele><time>2026-04-19T12:43:23.697Z</time></trkpt><trkpt lat="43.7810868" lon="12.4241982"><ele>375.0</ele><time>2026-04-19T12:43:24.715Z</time></trkpt><trkpt lat="43.7812001" lon="12.4241999"><ele>373.8333333333333</ele><time>2026-04-19T12:43:26.698Z</time></trkpt><trkpt lat="43.7813077" lon="12.4241875"><ele>372.6666666666667</ele><time>2026-04-19T12:43:28.697Z</time></trkpt><trkpt lat="43.7814139" lon="12.4242613"><ele>371.5</ele><time>2026-04-19T12:43:30.706Z</time></trkpt><trkpt lat="43.7814459" lon="12.4243368"><ele>370.33333333333337</ele><time>2026-04-19T12:43:31.701Z</time></trkpt><trkpt lat="43.781459" lon="12.4244336"><ele>369.1666666666667</ele><time>2026-04-19T12:43:32.701Z</time></trkpt><trkpt lat="43.7814553" lon="12.4245466"><ele>368.0</ele><time>2026-04-19T12:43:33.688Z</time></trkpt><trkpt lat="43.7814596" lon="12.4246671"><ele>368.0</ele><time>2026-04-19T12:43:34.693Z</time></trkpt><trkpt lat="43.7814744" lon="12.42477"><ele>368.0</ele><time>2026-04-19T12:43:35.701Z</time></trkpt><trkpt lat="43.7815146" lon="12.4248413"><ele>368.0</ele><time>2026-04-19T12:43:36.695Z</time></trkpt><trkpt lat="43.7816233" lon="12.4248452"><ele>368.0</ele><time>2026-04-19T12:43:38.698Z</time></trkpt><trkpt lat="43.7816875" lon="12.4247926"><ele>368.0</ele><time>2026-04-19T12:43:39.691Z</time></trkpt><trkpt lat="43.7817352" lon="12.4247159"><ele>368.0</ele><time>2026-04-19T12:43:40.69Z</time></trkpt><trkpt lat="43.7817739" lon="12.424629"><ele>368.0</ele><time>2026-04-19T12:43:41.69Z</time></trkpt><trkpt lat="43.7818338" lon="12.4244878"><ele>368.0</ele><time>2026-04-19T12:43:43.686Z</time></trkpt><trkpt lat="43.7819351" lon="12.4244534"><ele>368.0</ele><time>2026-04-19T12:43:45.7Z</time></trkpt><trkpt lat="43.7820046" lon="12.4244977"><ele>368.0</ele><time>2026-04-19T12:43:46.694Z</time></trkpt><trkpt lat="43.7820832" lon="12.4245595"><ele>368.0</ele><time>2026-04-19T12:43:47.693Z</time></trkpt><trkpt lat="43.7821681" lon="12.424634"><ele>364.79999999999995</ele><time>2026-04-19T12:43:48.694Z</time></trkpt><trkpt lat="43.7822347" lon="12.4247207"><ele>361.6</ele><time>2026-04-19T12:43:49.694Z</time></trkpt><trkpt lat="43.7822837" lon="12.4248202"><ele>358.4</ele><time>2026-04-19T12:43:50.696Z</time></trkpt><trkpt lat="43.7823076" lon="12.4249438"><ele>355.20000000000005</ele><time>2026-04-19T12:43:51.699Z</time></trkpt><trkpt lat="43.7823153" lon="12.4250907"><ele>352.0</ele><time>2026-04-19T12:43:52.7Z</time></trkpt><trkpt lat="43.7823183" lon="12.4252648"><ele>352.0</ele><time>2026-04-19T12:43:53.699Z</time></trkpt><trkpt lat="43.7823193" lon="12.4254643"><ele>352.0</ele><time>2026-04-19T12:43:54.693Z</time></trkpt><trkpt lat="43.7823211" lon="12.4256588"><ele>352.0</ele><time>2026-04-19T12:43:55.711Z</time></trkpt><trkpt lat="43.7823228" lon="12.4258422"><ele>352.0</ele><time>2026-04-19T12:43:56.693Z</time></trkpt><trkpt lat="43.7823277" lon="12.4260045"><ele>351.8</ele><time>2026-04-19T12:43:57.701Z</time></trkpt><trkpt lat="43.7823404" lon="12.426134"><ele>351.6</ele><time>2026-04-19T12:43:58.694Z</time></trkpt><trkpt lat="43.7823614" lon="12.4262452"><ele>351.40000000000003</ele><time>2026-04-19T12:43:59.693Z</time></trkpt><trkpt lat="43.782375" lon="12.4263459"><ele>351.20000000000005</ele><time>2026-04-19T12:44:00.695Z</time></trkpt><trkpt lat="43.7823663" lon="12.4265017"><ele>351.0</ele><time>2026-04-19T12:44:02.693Z</time></trkpt><trkpt lat="43.7822992" lon="12.4266159"><ele>349.6</ele><time>2026-04-19T12:44:04.685Z</time></trkpt><trkpt lat="43.7822353" lon="12.4266714"><ele>348.20000000000005</ele><time>2026-04-19T12:44:05.693Z</time></trkpt><trkpt lat="43.7821802" lon="12.4267378"><ele>346.79999999999995</ele><time>2026-04-19T12:44:06.691Z</time></trkpt><trkpt lat="43.7821398" lon="12.4268143"><ele>345.4</ele><time>2026-04-19T12:44:07.697Z</time></trkpt><trkpt lat="43.7821656" lon="12.4269593"><ele>344.0</ele><time>2026-04-19T12:44:09.685Z</time></trkpt><trkpt lat="43.7822625" lon="12.4270693"><ele>344.0</ele><time>2026-04-19T12:44:11.698Z</time></trkpt><trkpt lat="43.7823305" lon="12.4270973"><ele>344.0</ele><time>2026-04-19T12:44:12.699Z</time></trkpt><trkpt lat="43.7824088" lon="12.4270904"><ele>344.0</ele><time>2026-04-19T12:44:13.701Z</time></trkpt><trkpt lat="43.7824927" lon="12.4270515"><ele>344.0</ele><time>2026-04-19T12:44:14.693Z</time></trkpt><trkpt lat="43.7825649" lon="12.4270053"><ele>344.0</ele><time>2026-04-19T12:44:15.694Z</time></trkpt><trkpt lat="43.7826236" lon="12.4269227"><ele>344.0</ele><time>2026-04-19T12:44:16.696Z</time></trkpt><trkpt lat="43.7826767" lon="12.4268074"><ele>341.79999999999995</ele><time>2026-04-19T12:44:17.695Z</time></trkpt><trkpt lat="43.7827336" lon="12.4266815"><ele>339.59999999999997</ele><time>2026-04-19T12:44:18.691Z</time></trkpt><trkpt lat="43.7828075" lon="12.4265813"><ele>337.4</ele><time>2026-04-19T12:44:19.688Z</time></trkpt><trkpt lat="43.7828914" lon="12.4265044"><ele>335.2</ele><time>2026-04-19T12:44:20.691Z</time></trkpt><trkpt lat="43.7829934" lon="12.426444"><ele>333.0</ele><time>2026-04-19T12:44:21.693Z</time></trkpt><trkpt lat="43.7831064" lon="12.4264016"><ele>333.0</ele><time>2026-04-19T12:44:22.696Z</time></trkpt><trkpt lat="43.7832571" lon="12.4264024"><ele>333.0</ele><time>2026-04-19T12:44:23.692Z</time></trkpt><trkpt lat="43.7834216" lon="12.4264357"><ele>333.0</ele><time>2026-04-19T12:44:24.682Z</time></trkpt><trkpt lat="43.783581" lon="12.426482"><ele>333.0</ele><time>2026-04-19T12:44:25.679Z</time></trkpt><trkpt lat="43.7837264" lon="12.4264985"><ele>333.0</ele><time>2026-04-19T12:44:26.708Z</time></trkpt><trkpt lat="43.7838764" lon="12.4264927"><ele>333.0</ele><time>2026-04-19T12:44:27.696Z</time></trkpt><trkpt lat="43.7839858" lon="12.4264912"><ele>333.0</ele><time>2026-04-19T12:44:28.688Z</time></trkpt><trkpt lat="43.7840968" lon="12.4265179"><ele>333.0</ele><time>2026-04-19T12:44:29.69Z</time></trkpt><trkpt lat="43.7842144" lon="12.4265331"><ele>333.0</ele><time>2026-04-19T12:44:30.695Z</time></trkpt><trkpt lat="43.7843409" lon="12.4265464"><ele>333.0</ele><time>2026-04-19T12:44:31.688Z</time></trkpt><trkpt lat="43.7844684" lon="12.426566"><ele>333.0</ele><time>2026-04-19T12:44:32.687Z</time></trkpt><trkpt lat="43.7845929" lon="12.4266156"><ele>334.0</ele><time>2026-04-19T12:44:33.688Z</time></trkpt><trkpt lat="43.7847041" lon="12.4266731"><ele>335.0</ele><time>2026-04-19T12:44:34.695Z</time></trkpt><trkpt lat="43.7847995" lon="12.4267392"><ele>336.0</ele><time>2026-04-19T12:44:35.695Z</time></trkpt><trkpt lat="43.7848751" lon="12.4268464"><ele>337.0</ele><time>2026-04-19T12:44:36.696Z</time></trkpt><trkpt lat="43.7849203" lon="12.4269607"><ele>338.0</ele><time>2026-04-19T12:44:37.692Z</time></trkpt><trkpt lat="43.784949" lon="12.427066"><ele>340.4</ele><time>2026-04-19T12:44:38.687Z</time></trkpt><trkpt lat="43.7849594" lon="12.4271798"><ele>342.79999999999995</ele><time>2026-04-19T12:44:39.692Z</time></trkpt><trkpt lat="43.7849326" lon="12.4272939"><ele>345.2</ele><time>2026-04-19T12:44:40.68Z</time></trkpt><trkpt lat="43.7848916" lon="12.4274052"><ele>347.6</ele><time>2026-04-19T12:44:41.68Z</time></trkpt><trkpt lat="43.784837" lon="12.4275259"><ele>350.0</ele><time>2026-04-19T12:44:42.681Z</time></trkpt><trkpt lat="43.7847941" lon="12.4276581"><ele>350.0</ele><time>2026-04-19T12:44:43.678Z</time></trkpt><trkpt lat="43.7847509" lon="12.4277997"><ele>350.0</ele><time>2026-04-19T12:44:44.676Z</time></trkpt><trkpt lat="43.7847115" lon="12.4279432"><ele>350.0</ele><time>2026-04-19T12:44:45.676Z</time></trkpt><trkpt lat="43.7846633" lon="12.428082"><ele>350.0</ele><time>2026-04-19T12:44:46.679Z</time></trkpt><trkpt lat="43.7846168" lon="12.4281971"><ele>350.0</ele><time>2026-04-19T12:44:47.679Z</time></trkpt><trkpt lat="43.7845607" lon="12.4283077"><ele>349.75</ele><time>2026-04-19T12:44:48.674Z</time></trkpt><trkpt lat="43.7844913" lon="12.4284099"><ele>349.5</ele><time>2026-04-19T12:44:49.672Z</time></trkpt><trkpt lat="43.7843985" lon="12.4285019"><ele>349.25</ele><time>2026-04-19T12:44:50.677Z</time></trkpt><trkpt lat="43.7842754" lon="12.4286016"><ele>349.0</ele><time>2026-04-19T12:44:51.671Z</time></trkpt><trkpt lat="43.784163" lon="12.4287129"><ele>352.75</ele><time>2026-04-19T12:44:52.689Z</time></trkpt><trkpt lat="43.7840607" lon="12.4288249"><ele>356.5</ele><time>2026-04-19T12:44:53.678Z</time></trkpt><trkpt lat="43.7839727" lon="12.4289417"><ele>360.25</ele><time>2026-04-19T12:44:54.68Z</time></trkpt><trkpt lat="43.7838904" lon="12.4290568"><ele>364.0</ele><time>2026-04-19T12:44:55.685Z</time></trkpt><trkpt lat="43.7838291" lon="12.429159"><ele>364.0</ele><time>2026-04-19T12:44:56.693Z</time></trkpt><trkpt lat="43.7838037" lon="12.4292608"><ele>364.0</ele><time>2026-04-19T12:44:57.713Z</time></trkpt><trkpt lat="43.7838812" lon="12.4294361"><ele>364.0</ele><time>2026-04-19T12:44:59.709Z</time></trkpt><trkpt lat="43.7839475" lon="12.4295498"><ele>364.0</ele><time>2026-04-19T12:45:00.706Z</time></trkpt><trkpt lat="43.7840302" lon="12.4296764"><ele>363.3333333333333</ele><time>2026-04-19T12:45:01.705Z</time></trkpt><trkpt lat="43.7841228" lon="12.429849"><ele>362.6666666666667</ele><time>2026-04-19T12:45:02.68Z</time></trkpt><trkpt lat="43.7841974" lon="12.4300625"><ele>362.0</ele><time>2026-04-19T12:45:03.697Z</time></trkpt><trkpt lat="43.7842747" lon="12.4302846"><ele>370.6666666666667</ele><time>2026-04-19T12:45:04.693Z</time></trkpt><trkpt lat="43.7843496" lon="12.4304823"><ele>379.33333333333337</ele><time>2026-04-19T12:45:05.694Z</time></trkpt><trkpt lat="43.7844318" lon="12.4306716"><ele>388.0</ele><time>2026-04-19T12:45:06.694Z</time></trkpt><trkpt lat="43.7845146" lon="12.430864"><ele>388.0</ele><time>2026-04-19T12:45:07.692Z</time></trkpt><trkpt lat="43.7845828" lon="12.4310395"><ele>388.0</ele><time>2026-04-19T12:45:08.693Z</time></trkpt><trkpt lat="43.7846279" lon="12.4311789"><ele>388.0</ele><time>2026-04-19T12:45:09.681Z</time></trkpt><trkpt lat="43.7846629" lon="12.4313285"><ele>388.0</ele><time>2026-04-19T12:45:10.686Z</time></trkpt><trkpt lat="43.7847004" lon="12.4314723"><ele>387.25</ele><time>2026-04-19T12:45:11.684Z</time></trkpt><trkpt lat="43.784739" lon="12.4316014"><ele>386.5</ele><time>2026-04-19T12:45:12.681Z</time></trkpt><trkpt lat="43.7848049" lon="12.4317427"><ele>385.75</ele><time>2026-04-19T12:45:13.688Z</time></trkpt><trkpt lat="43.7848858" lon="12.4318854"><ele>385.0</ele><time>2026-04-19T12:45:14.689Z</time></trkpt><trkpt lat="43.7849885" lon="12.4320316"><ele>387.5</ele><time>2026-04-19T12:45:15.687Z</time></trkpt><trkpt lat="43.7850951" lon="12.432175"><ele>390.0</ele><time>2026-04-19T12:45:16.69Z</time></trkpt><trkpt lat="43.7852016" lon="12.4323065"><ele>392.5</ele><time>2026-04-19T12:45:17.69Z</time></trkpt><trkpt lat="43.7853017" lon="12.4324144"><ele>395.0</ele><time>2026-04-19T12:45:18.688Z</time></trkpt><trkpt lat="43.7853829" lon="12.4324985"><ele>395.0</ele><time>2026-04-19T12:45:19.685Z</time></trkpt><trkpt lat="43.7854757" lon="12.4325725"><ele>395.0</ele><time>2026-04-19T12:45:20.689Z</time></trkpt><trkpt lat="43.7855893" lon="12.4326287"><ele>395.0</ele><time>2026-04-19T12:45:21.689Z</time></trkpt><trkpt lat="43.7857117" lon="12.4326886"><ele>395.0</ele><time>2026-04-19T12:45:22.689Z</time></trkpt><trkpt lat="43.7858465" lon="12.4327751"><ele>395.0</ele><time>2026-04-19T12:45:23.689Z</time></trkpt><trkpt lat="43.7859718" lon="12.4328544"><ele>395.0</ele><time>2026-04-19T12:45:24.688Z</time></trkpt><trkpt lat="43.7860946" lon="12.4329354"><ele>395.0</ele><time>2026-04-19T12:45:25.693Z</time></trkpt><trkpt lat="43.7862124" lon="12.4330032"><ele>395.0</ele><time>2026-04-19T12:45:26.69Z</time></trkpt><trkpt lat="43.7863261" lon="12.4330443"><ele>395.75</ele><time>2026-04-19T12:45:27.695Z</time></trkpt><trkpt lat="43.7864501" lon="12.433082"><ele>396.5</ele><time>2026-04-19T12:45:28.715Z</time></trkpt><trkpt lat="43.7865939" lon="12.4331245"><ele>397.25</ele><time>2026-04-19T12:45:29.694Z</time></trkpt><trkpt lat="43.7867353" lon="12.4331678"><ele>398.0</ele><time>2026-04-19T12:45:30.698Z</time></trkpt><trkpt lat="43.7868565" lon="12.4332058"><ele>400.75</ele><time>2026-04-19T12:45:31.69Z</time></trkpt><trkpt lat="43.7869608" lon="12.4332243"><ele>403.5</ele><time>2026-04-19T12:45:32.693Z</time></trkpt><trkpt lat="43.7870621" lon="12.4332364"><ele>406.25</ele><time>2026-04-19T12:45:33.686Z</time></trkpt><trkpt lat="43.7871779" lon="12.4332422"><ele>409.0</ele><time>2026-04-19T12:45:34.687Z</time></trkpt><trkpt lat="43.7873088" lon="12.4332444"><ele>409.0</ele><time>2026-04-19T12:45:35.69Z</time></trkpt><trkpt lat="43.7874574" lon="12.4332464"><ele>409.0</ele><time>2026-04-19T12:45:36.683Z</time></trkpt><trkpt lat="43.7876118" lon="12.4332573"><ele>409.0</ele><time>2026-04-19T12:45:37.694Z</time></trkpt><trkpt lat="43.7877633" lon="12.4332874"><ele>414.0</ele><time>2026-04-19T12:45:38.692Z</time></trkpt><trkpt lat="43.7879027" lon="12.4333185"><ele>419.0</ele><time>2026-04-19T12:45:39.686Z</time></trkpt><trkpt lat="43.7880294" lon="12.4333502"><ele>424.0</ele><time>2026-04-19T12:45:40.688Z</time></trkpt><trkpt lat="43.7881523" lon="12.4334045"><ele>429.0</ele><time>2026-04-19T12:45:41.686Z</time></trkpt><trkpt lat="43.7882685" lon="12.4334896"><ele>429.0</ele><time>2026-04-19T12:45:42.687Z</time></trkpt><trkpt lat="43.7883994" lon="12.433607"><ele>429.0</ele><time>2026-04-19T12:45:43.678Z</time></trkpt><trkpt lat="43.7885279" lon="12.433719"><ele>429.0</ele><time>2026-04-19T12:45:44.675Z</time></trkpt><trkpt lat="43.7886426" lon="12.4338413"><ele>431.5</ele><time>2026-04-19T12:45:45.674Z</time></trkpt><trkpt lat="43.7887675" lon="12.4339513"><ele>434.0</ele><time>2026-04-19T12:45:46.685Z</time></trkpt><trkpt lat="43.7888949" lon="12.4340604"><ele>436.5</ele><time>2026-04-19T12:45:47.682Z</time></trkpt><trkpt lat="43.7890087" lon="12.4341556"><ele>439.0</ele><time>2026-04-19T12:45:48.68Z</time></trkpt><trkpt lat="43.789118" lon="12.4342553"><ele>439.0</ele><time>2026-04-19T12:45:49.678Z</time></trkpt><trkpt lat="43.7892323" lon="12.4343595"><ele>439.0</ele><time>2026-04-19T12:45:50.678Z</time></trkpt><trkpt lat="43.7893456" lon="12.4344768"><ele>439.0</ele><time>2026-04-19T12:45:51.681Z</time></trkpt><trkpt lat="43.7894536" lon="12.4345923"><ele>439.0</ele><time>2026-04-19T12:45:52.688Z</time></trkpt><trkpt lat="43.7895353" lon="12.4346955"><ele>441.1666666666667</ele><time>2026-04-19T12:45:53.686Z</time></trkpt><trkpt lat="43.7896102" lon="12.434799"><ele>443.33333333333337</ele><time>2026-04-19T12:45:54.686Z</time></trkpt><trkpt lat="43.7896537" lon="12.4349059"><ele>445.5</ele><time>2026-04-19T12:45:55.682Z</time></trkpt><trkpt lat="43.7896919" lon="12.4350059"><ele>447.66666666666663</ele><time>2026-04-19T12:45:56.685Z</time></trkpt><trkpt lat="43.7897182" lon="12.4351188"><ele>449.8333333333333</ele><time>2026-04-19T12:45:57.684Z</time></trkpt><trkpt lat="43.7897304" lon="12.4352378"><ele>452.0</ele><time>2026-04-19T12:45:58.702Z</time></trkpt><trkpt lat="43.789709" lon="12.43534"><ele>452.0</ele><time>2026-04-19T12:45:59.715Z</time></trkpt><trkpt lat="43.78964" lon="12.4354303"><ele>452.00000000000006</ele><time>2026-04-19T12:46:00.692Z</time></trkpt><trkpt lat="43.7895598" lon="12.4355093"><ele>452.00000000000006</ele><time>2026-04-19T12:46:01.695Z</time></trkpt><trkpt lat="43.7894503" lon="12.4355646"><ele>452.0</ele><time>2026-04-19T12:46:02.691Z</time></trkpt><trkpt lat="43.7893245" lon="12.4356026"><ele>452.0</ele><time>2026-04-19T12:46:03.687Z</time></trkpt><trkpt lat="43.7891802" lon="12.4356361"><ele>448.3333333333333</ele><time>2026-04-19T12:46:04.691Z</time></trkpt><trkpt lat="43.7890262" lon="12.4356883"><ele>444.66666666666663</ele><time>2026-04-19T12:46:05.676Z</time></trkpt><trkpt lat="43.78886" lon="12.4357363"><ele>441.0</ele><time>2026-04-19T12:46:06.684Z</time></trkpt><trkpt lat="43.7887065" lon="12.4357775"><ele>441.0</ele><time>2026-04-19T12:46:07.678Z</time></trkpt><trkpt lat="43.7885702" lon="12.4358384"><ele>441.0</ele><time>2026-04-19T12:46:08.683Z</time></trkpt><trkpt lat="43.7884482" lon="12.4359134"><ele>441.0</ele><time>2026-04-19T12:46:09.69Z</time></trkpt><trkpt lat="43.7883389" lon="12.4360021"><ele>441.0</ele><time>2026-04-19T12:46:10.692Z</time></trkpt><trkpt lat="43.7882447" lon="12.4360789"><ele>439.3333333333333</ele><time>2026-04-19T12:46:11.695Z</time></trkpt><trkpt lat="43.7881794" lon="12.436158"><ele>437.66666666666663</ele><time>2026-04-19T12:46:12.702Z</time></trkpt><trkpt lat="43.7881491" lon="12.4362373"><ele>436.0</ele><time>2026-04-19T12:46:13.701Z</time></trkpt><trkpt lat="43.788147" lon="12.4363269"><ele>434.3333333333333</ele><time>2026-04-19T12:46:14.704Z</time></trkpt><trkpt lat="43.7881852" lon="12.4364268"><ele>432.66666666666663</ele><time>2026-04-19T12:46:15.703Z</time></trkpt><trkpt lat="43.7882596" lon="12.4365367"><ele>431.0</ele><time>2026-04-19T12:46:16.704Z</time></trkpt><trkpt lat="43.7883759" lon="12.4366554"><ele>430.5</ele><time>2026-04-19T12:46:17.706Z</time></trkpt><trkpt lat="43.7885004" lon="12.43676"><ele>430.0</ele><time>2026-04-19T12:46:18.7Z</time></trkpt><trkpt lat="43.7886196" lon="12.436845"><ele>429.5</ele><time>2026-04-19T12:46:19.717Z</time></trkpt><trkpt lat="43.7887546" lon="12.4368974"><ele>429.0</ele><time>2026-04-19T12:46:20.702Z</time></trkpt><trkpt lat="43.7889056" lon="12.4369258"><ele>431.0</ele><time>2026-04-19T12:46:21.705Z</time></trkpt><trkpt lat="43.789054" lon="12.4369515"><ele>433.0</ele><time>2026-04-19T12:46:22.701Z</time></trkpt><trkpt lat="43.7891932" lon="12.4369755"><ele>435.0</ele><time>2026-04-19T12:46:23.704Z</time></trkpt><trkpt lat="43.7893202" lon="12.4370029"><ele>437.0</ele><time>2026-04-19T12:46:24.699Z</time></trkpt><trkpt lat="43.7894367" lon="12.4370426"><ele>437.0</ele><time>2026-04-19T12:46:25.695Z</time></trkpt><trkpt lat="43.789553" lon="12.4370864"><ele>437.00000000000006</ele><time>2026-04-19T12:46:26.691Z</time></trkpt><trkpt lat="43.7896608" lon="12.4371131"><ele>437.00000000000006</ele><time>2026-04-19T12:46:27.696Z</time></trkpt><trkpt lat="43.7897573" lon="12.4371212"><ele>437.0</ele><time>2026-04-19T12:46:28.697Z</time></trkpt><trkpt lat="43.7898451" lon="12.4370935"><ele>437.0</ele><time>2026-04-19T12:46:29.7Z</time></trkpt><trkpt lat="43.7899414" lon="12.4370395"><ele>437.0</ele><time>2026-04-19T12:46:30.718Z</time></trkpt><trkpt lat="43.7900432" lon="12.4369608"><ele>437.00000000000006</ele><time>2026-04-19T12:46:31.693Z</time></trkpt><trkpt lat="43.7901458" lon="12.4368777"><ele>437.00000000000006</ele><time>2026-04-19T12:46:32.683Z</time></trkpt><trkpt lat="43.7902483" lon="12.4368245"><ele>437.0</ele><time>2026-04-19T12:46:33.694Z</time></trkpt><trkpt lat="43.7903404" lon="12.4368154"><ele>437.0</ele><time>2026-04-19T12:46:34.688Z</time></trkpt><trkpt lat="43.790413" lon="12.4368777"><ele>436.25</ele><time>2026-04-19T12:46:35.694Z</time></trkpt><trkpt lat="43.7904804" lon="12.4370021"><ele>435.5</ele><time>2026-04-19T12:46:36.69Z</time></trkpt><trkpt lat="43.7905475" lon="12.437147"><ele>434.75</ele><time>2026-04-19T12:46:37.678Z</time></trkpt><trkpt lat="43.7906387" lon="12.4372663"><ele>434.0</ele><time>2026-04-19T12:46:38.688Z</time></trkpt><trkpt lat="43.7907363" lon="12.4373273"><ele>436.4</ele><time>2026-04-19T12:46:39.685Z</time></trkpt><trkpt lat="43.7908398" lon="12.4373748"><ele>438.79999999999995</ele><time>2026-04-19T12:46:40.684Z</time></trkpt><trkpt lat="43.7909418" lon="12.4374353"><ele>441.20000000000005</ele><time>2026-04-19T12:46:41.687Z</time></trkpt><trkpt lat="43.7910312" lon="12.4375085"><ele>443.6</ele><time>2026-04-19T12:46:42.693Z</time></trkpt><trkpt lat="43.7911085" lon="12.4376176"><ele>446.0</ele><time>2026-04-19T12:46:43.693Z</time></trkpt><trkpt lat="43.791154" lon="12.4377723"><ele>441.0</ele><time>2026-04-19T12:46:44.695Z</time></trkpt><trkpt lat="43.7911624" lon="12.4379773"><ele>436.0</ele><time>2026-04-19T12:46:45.684Z</time></trkpt><trkpt lat="43.7911575" lon="12.4382162"><ele>431.0</ele><time>2026-04-19T12:46:46.676Z</time></trkpt><trkpt lat="43.7911363" lon="12.438444"><ele>431.0</ele><time>2026-04-19T12:46:47.678Z</time></trkpt><trkpt lat="43.7911169" lon="12.4386377"><ele>431.0</ele><time>2026-04-19T12:46:48.692Z</time></trkpt><trkpt lat="43.7911059" lon="12.4387952"><ele>431.0</ele><time>2026-04-19T12:46:49.684Z</time></trkpt><trkpt lat="43.7911165" lon="12.4389252"><ele>431.0</ele><time>2026-04-19T12:46:50.687Z</time></trkpt><trkpt lat="43.7911465" lon="12.4390566"><ele>431.0</ele><time>2026-04-19T12:46:51.689Z</time></trkpt><trkpt lat="43.7912246" lon="12.4391604"><ele>425.75</ele><time>2026-04-19T12:46:52.686Z</time></trkpt><trkpt lat="43.7913301" lon="12.4392101"><ele>420.5</ele><time>2026-04-19T12:46:53.697Z</time></trkpt><trkpt lat="43.7914594" lon="12.4392408"><ele>415.25</ele><time>2026-04-19T12:46:54.685Z</time></trkpt><trkpt lat="43.7915949" lon="12.4392679"><ele>410.0</ele><time>2026-04-19T12:46:55.686Z</time></trkpt><trkpt lat="43.7917343" lon="12.4392888"><ele>410.75</ele><time>2026-04-19T12:46:56.692Z</time></trkpt><trkpt lat="43.7918715" lon="12.4393295"><ele>411.5</ele><time>2026-04-19T12:46:57.692Z</time></trkpt><trkpt lat="43.791988" lon="12.4394106"><ele>412.25</ele><time>2026-04-19T12:46:58.684Z</time></trkpt><trkpt lat="43.79208" lon="12.4395347"><ele>413.0</ele><time>2026-04-19T12:46:59.684Z</time></trkpt><trkpt lat="43.7921451" lon="12.4396973"><ele>408.66666666666663</ele><time>2026-04-19T12:47:00.696Z</time></trkpt><trkpt lat="43.7921981" lon="12.4399113"><ele>404.33333333333337</ele><time>2026-04-19T12:47:01.704Z</time></trkpt><trkpt lat="43.7922637" lon="12.4401034"><ele>400.0</ele><time>2026-04-19T12:47:02.677Z</time></trkpt><trkpt lat="43.7923312" lon="12.4402639"><ele>400.0</ele><time>2026-04-19T12:47:03.683Z</time></trkpt><trkpt lat="43.7923811" lon="12.4404052"><ele>400.0</ele><time>2026-04-19T12:47:04.688Z</time></trkpt><trkpt lat="43.7924064" lon="12.4405621"><ele>400.0</ele><time>2026-04-19T12:47:05.696Z</time></trkpt><trkpt lat="43.7923926" lon="12.4407594"><ele>400.0</ele><time>2026-04-19T12:47:06.699Z</time></trkpt><trkpt lat="43.7923544" lon="12.4409967"><ele>397.5</ele><time>2026-04-19T12:47:07.695Z</time></trkpt><trkpt lat="43.792313" lon="12.4412175"><ele>395.0</ele><time>2026-04-19T12:47:08.69Z</time></trkpt><trkpt lat="43.7922799" lon="12.441405"><ele>392.5</ele><time>2026-04-19T12:47:09.693Z</time></trkpt><trkpt lat="43.7922373" lon="12.441571"><ele>390.0</ele><time>2026-04-19T12:47:10.696Z</time></trkpt><trkpt lat="43.792192" lon="12.4417266"><ele>388.25</ele><time>2026-04-19T12:47:11.688Z</time></trkpt><trkpt lat="43.7921175" lon="12.4418763"><ele>386.5</ele><time>2026-04-19T12:47:12.693Z</time></trkpt><trkpt lat="43.7920191" lon="12.4420187"><ele>384.75</ele><time>2026-04-19T12:47:13.703Z</time></trkpt><trkpt lat="43.7919026" lon="12.4421491"><ele>383.0</ele><time>2026-04-19T12:47:14.7Z</time></trkpt><trkpt lat="43.7918228" lon="12.4422446"><ele>381.83333333333337</ele><time>2026-04-19T12:47:15.702Z</time></trkpt><trkpt lat="43.7917829" lon="12.4423237"><ele>380.6666666666667</ele><time>2026-04-19T12:47:16.705Z</time></trkpt><trkpt lat="43.7917814" lon="12.4424236"><ele>379.5</ele><time>2026-04-19T12:47:17.706Z</time></trkpt><trkpt lat="43.7918135" lon="12.4425144"><ele>378.3333333333333</ele><time>2026-04-19T12:47:18.692Z</time></trkpt><trkpt lat="43.7918788" lon="12.4426112"><ele>377.16666666666663</ele><time>2026-04-19T12:47:19.7Z</time></trkpt><trkpt lat="43.7919744" lon="12.4427063"><ele>376.0</ele><time>2026-04-19T12:47:20.696Z</time></trkpt><trkpt lat="43.7920843" lon="12.4427962"><ele>376.0</ele><time>2026-04-19T12:47:21.695Z</time></trkpt><trkpt lat="43.7922028" lon="12.4428799"><ele>376.0</ele><time>2026-04-19T12:47:22.703Z</time></trkpt><trkpt lat="43.79232" lon="12.4429655"><ele>376.0</ele><time>2026-04-19T12:47:23.698Z</time></trkpt><trkpt lat="43.7924288" lon="12.4430389"><ele>376.0</ele><time>2026-04-19T12:47:24.7Z</time></trkpt><trkpt lat="43.7925306" lon="12.4431052"><ele>373.6</ele><time>2026-04-19T12:47:25.704Z</time></trkpt><trkpt lat="43.792626" lon="12.443162"><ele>371.20000000000005</ele><time>2026-04-19T12:47:26.699Z</time></trkpt><trkpt lat="43.7927092" lon="12.4432166"><ele>368.79999999999995</ele><time>2026-04-19T12:47:27.698Z</time></trkpt><trkpt lat="43.7927862" lon="12.4432667"><ele>366.4</ele><time>2026-04-19T12:47:28.696Z</time></trkpt><trkpt lat="43.7928889" lon="12.4432229"><ele>364.0</ele><time>2026-04-19T12:47:30.711Z</time></trkpt><trkpt lat="43.7929294" lon="12.4431337"><ele>362.75</ele><time>2026-04-19T12:47:31.696Z</time></trkpt><trkpt lat="43.792958" lon="12.4429891"><ele>361.5</ele><time>2026-04-19T12:47:32.713Z</time></trkpt><trkpt lat="43.7929797" lon="12.4428137"><ele>360.25</ele><time>2026-04-19T12:47:33.687Z</time></trkpt><trkpt lat="43.7929939" lon="12.442633"><ele>359.0</ele><time>2026-04-19T12:47:34.683Z</time></trkpt><trkpt lat="43.7930062" lon="12.4424687"><ele>359.0</ele><time>2026-04-19T12:47:35.685Z</time></trkpt><trkpt lat="43.7930237" lon="12.442346"><ele>359.0</ele><time>2026-04-19T12:47:36.684Z</time></trkpt><trkpt lat="43.7930523" lon="12.4422601"><ele>359.0</ele><time>2026-04-19T12:47:37.692Z</time></trkpt><trkpt lat="43.7931072" lon="12.4422134"><ele>359.0</ele><time>2026-04-19T12:47:38.688Z</time></trkpt><trkpt lat="43.7932013" lon="12.4422274"><ele>359.0</ele><time>2026-04-19T12:47:39.687Z</time></trkpt><trkpt lat="43.7933134" lon="12.4422783"><ele>359.0</ele><time>2026-04-19T12:47:40.688Z</time></trkpt><trkpt lat="43.7934141" lon="12.4423035"><ele>358.5</ele><time>2026-04-19T12:47:41.691Z</time></trkpt><trkpt lat="43.7935133" lon="12.4422557"><ele>358.0</ele><time>2026-04-19T12:47:42.692Z</time></trkpt><trkpt lat="43.7935959" lon="12.4421587"><ele>357.5</ele><time>2026-04-19T12:47:43.684Z</time></trkpt><trkpt lat="43.793663" lon="12.4419969"><ele>357.0</ele><time>2026-04-19T12:47:44.69Z</time></trkpt><trkpt lat="43.7937267" lon="12.4417849"><ele>357.0</ele><time>2026-04-19T12:47:45.678Z</time></trkpt><trkpt lat="43.7937746" lon="12.4415741"><ele>357.0</ele><time>2026-04-19T12:47:46.673Z</time></trkpt><trkpt lat="43.793825" lon="12.4414157"><ele>357.0</ele><time>2026-04-19T12:47:47.686Z</time></trkpt><trkpt lat="43.7938734" lon="12.4412886"><ele>357.0</ele><time>2026-04-19T12:47:48.683Z</time></trkpt><trkpt lat="43.7939135" lon="12.4412149"><ele>357.0</ele><time>2026-04-19T12:47:49.688Z</time></trkpt><trkpt lat="43.7939667" lon="12.4411649"><ele>357.0</ele><time>2026-04-19T12:47:50.678Z</time></trkpt><trkpt lat="43.7940347" lon="12.441146"><ele>357.0</ele><time>2026-04-19T12:47:51.689Z</time></trkpt><trkpt lat="43.7941418" lon="12.4411708"><ele>357.0</ele><time>2026-04-19T12:47:52.691Z</time></trkpt><trkpt lat="43.7942217" lon="12.4412415"><ele>357.0</ele><time>2026-04-19T12:47:53.695Z</time></trkpt><trkpt lat="43.7942867" lon="12.4413635"><ele>357.0</ele><time>2026-04-19T12:47:54.69Z</time></trkpt><trkpt lat="43.7943283" lon="12.4415349"><ele>360.0</ele><time>2026-04-19T12:47:55.69Z</time></trkpt><trkpt lat="43.794376" lon="12.4417373"><ele>363.0</ele><time>2026-04-19T12:47:56.689Z</time></trkpt><trkpt lat="43.7944293" lon="12.4419539"><ele>366.0</ele><time>2026-04-19T12:47:57.681Z</time></trkpt><trkpt lat="43.7944838" lon="12.4421989"><ele>366.0</ele><time>2026-04-19T12:47:58.68Z</time></trkpt><trkpt lat="43.7945542" lon="12.4424362"><ele>366.0</ele><time>2026-04-19T12:47:59.688Z</time></trkpt><trkpt lat="43.7946209" lon="12.4426515"><ele>366.0</ele><time>2026-04-19T12:48:00.69Z</time></trkpt><trkpt lat="43.7946877" lon="12.4428637"><ele>360.6666666666667</ele><time>2026-04-19T12:48:01.693Z</time></trkpt><trkpt lat="43.7947447" lon="12.4430763"><ele>355.33333333333337</ele><time>2026-04-19T12:48:02.687Z</time></trkpt><trkpt lat="43.7947986" lon="12.443298"><ele>350.0</ele><time>2026-04-19T12:48:03.71Z</time></trkpt><trkpt lat="43.794855" lon="12.443516"><ele>350.0</ele><time>2026-04-19T12:48:04.698Z</time></trkpt><trkpt lat="43.7949046" lon="12.4437168"><ele>350.0</ele><time>2026-04-19T12:48:05.693Z</time></trkpt><trkpt lat="43.7949438" lon="12.4439083"><ele>350.0</ele><time>2026-04-19T12:48:06.687Z</time></trkpt><trkpt lat="43.7949772" lon="12.4440666"><ele>350.0</ele><time>2026-04-19T12:48:07.696Z</time></trkpt><trkpt lat="43.7950045" lon="12.4441757"><ele>346.6</ele><time>2026-04-19T12:48:08.689Z</time></trkpt><trkpt lat="43.7950499" lon="12.4442787"><ele>343.2</ele><time>2026-04-19T12:48:09.694Z</time></trkpt><trkpt lat="43.7951251" lon="12.4443407"><ele>339.79999999999995</ele><time>2026-04-19T12:48:10.694Z</time></trkpt><trkpt lat="43.7952307" lon="12.4443867"><ele>336.4</ele><time>2026-04-19T12:48:11.686Z</time></trkpt><trkpt lat="43.7953548" lon="12.444407"><ele>333.0</ele><time>2026-04-19T12:48:12.694Z</time></trkpt><trkpt lat="43.7954897" lon="12.4443988"><ele>332.75</ele><time>2026-04-19T12:48:13.682Z</time></trkpt><trkpt lat="43.7956198" lon="12.4443641"><ele>332.5</ele><time>2026-04-19T12:48:14.686Z</time></trkpt><trkpt lat="43.7957547" lon="12.4442803"><ele>332.25</ele><time>2026-04-19T12:48:15.69Z</time></trkpt><trkpt lat="43.7958901" lon="12.4441715"><ele>332.0</ele><time>2026-04-19T12:48:16.678Z</time></trkpt><trkpt lat="43.79601" lon="12.4440929"><ele>331.40000000000003</ele><time>2026-04-19T12:48:17.69Z</time></trkpt><trkpt lat="43.7961148" lon="12.4440637"><ele>330.8</ele><time>2026-04-19T12:48:18.69Z</time></trkpt><trkpt lat="43.7962017" lon="12.4440774"><ele>330.2</ele><time>2026-04-19T12:48:19.694Z</time></trkpt><trkpt lat="43.7962781" lon="12.4441412"><ele>329.6</ele><time>2026-04-19T12:48:20.694Z</time></trkpt><trkpt lat="43.7963961" lon="12.4442548"><ele>329.0</ele><time>2026-04-19T12:48:21.69Z</time></trkpt><trkpt lat="43.7965075" lon="12.4443787"><ele>329.0</ele><time>2026-04-19T12:48:22.685Z</time></trkpt><trkpt lat="43.7966355" lon="12.4445009"><ele>329.0</ele><time>2026-04-19T12:48:23.683Z</time></trkpt><trkpt lat="43.7967793" lon="12.4446169"><ele>329.0</ele><time>2026-04-19T12:48:24.686Z</time></trkpt><trkpt lat="43.7969234" lon="12.4447222"><ele>325.0</ele><time>2026-04-19T12:48:25.683Z</time></trkpt><trkpt lat="43.7970507" lon="12.4448076"><ele>321.0</ele><time>2026-04-19T12:48:26.685Z</time></trkpt><trkpt lat="43.7971681" lon="12.4448829"><ele>317.0</ele><time>2026-04-19T12:48:27.686Z</time></trkpt><trkpt lat="43.7972787" lon="12.4449382"><ele>313.0</ele><time>2026-04-19T12:48:28.687Z</time></trkpt><trkpt lat="43.7974002" lon="12.4449771"><ele>313.0</ele><time>2026-04-19T12:48:29.693Z</time></trkpt><trkpt lat="43.7975522" lon="12.4450023"><ele>313.0</ele><time>2026-04-19T12:48:30.695Z</time></trkpt><trkpt lat="43.7977055" lon="12.4450157"><ele>313.0</ele><time>2026-04-19T12:48:31.693Z</time></trkpt><trkpt lat="43.7978456" lon="12.4450423"><ele>313.0</ele><time>2026-04-19T12:48:32.681Z</time></trkpt><trkpt lat="43.7979669" lon="12.4450629"><ele>310.75</ele><time>2026-04-19T12:48:33.675Z</time></trkpt><trkpt lat="43.7980824" lon="12.4450798"><ele>308.5</ele><time>2026-04-19T12:48:34.7Z</time></trkpt><trkpt lat="43.7981883" lon="12.4450552"><ele>306.25</ele><time>2026-04-19T12:48:35.68Z</time></trkpt><trkpt lat="43.7982969" lon="12.4449869"><ele>304.0</ele><time>2026-04-19T12:48:36.674Z</time></trkpt><trkpt lat="43.7984228" lon="12.4449063"><ele>301.0</ele><time>2026-04-19T12:48:37.674Z</time></trkpt><trkpt lat="43.7985774" lon="12.4448303"><ele>298.0</ele><time>2026-04-19T12:48:38.674Z</time></trkpt><trkpt lat="43.7987241" lon="12.4447871"><ele>295.0</ele><time>2026-04-19T12:48:39.677Z</time></trkpt><trkpt lat="43.7988745" lon="12.4447587"><ele>295.0</ele><time>2026-04-19T12:48:40.671Z</time></trkpt><trkpt lat="43.7990112" lon="12.4447432"><ele>295.0</ele><time>2026-04-19T12:48:41.675Z</time></trkpt><trkpt lat="43.7991646" lon="12.4447425"><ele>295.0</ele><time>2026-04-19T12:48:42.678Z</time></trkpt><trkpt lat="43.7993455" lon="12.444721"><ele>293.75</ele><time>2026-04-19T12:48:43.675Z</time></trkpt><trkpt lat="43.7995119" lon="12.4446972"><ele>292.5</ele><time>2026-04-19T12:48:44.666Z</time></trkpt><trkpt lat="43.7996546" lon="12.4446755"><ele>291.25</ele><time>2026-04-19T12:48:45.666Z</time></trkpt><trkpt lat="43.7997839" lon="12.4446705"><ele>290.0</ele><time>2026-04-19T12:48:46.671Z</time></trkpt><trkpt lat="43.7999024" lon="12.4446848"><ele>290.0</ele><time>2026-04-19T12:48:47.67Z</time></trkpt><trkpt lat="43.8000205" lon="12.4447455"><ele>290.0</ele><time>2026-04-19T12:48:48.672Z</time></trkpt><trkpt lat="43.8001134" lon="12.4448433"><ele>290.0</ele><time>2026-04-19T12:48:49.687Z</time></trkpt><trkpt lat="43.8001692" lon="12.4449791"><ele>290.0</ele><time>2026-04-19T12:48:50.677Z</time></trkpt><trkpt lat="43.8002102" lon="12.4451401"><ele>290.0</ele><time>2026-04-19T12:48:51.685Z</time></trkpt><trkpt lat="43.8002731" lon="12.4453124"><ele>290.0</ele><time>2026-04-19T12:48:52.68Z</time></trkpt><trkpt lat="43.8003134" lon="12.445477"><ele>290.0</ele><time>2026-04-19T12:48:53.683Z</time></trkpt><trkpt lat="43.8003549" lon="12.4456115"><ele>290.0</ele><time>2026-04-19T12:48:54.683Z</time></trkpt><trkpt lat="43.8003942" lon="12.4457169"><ele>290.0</ele><time>2026-04-19T12:48:55.68Z</time></trkpt><trkpt lat="43.8004242" lon="12.4457963"><ele>290.0</ele><time>2026-04-19T12:48:56.685Z</time></trkpt><trkpt lat="43.8005272" lon="12.4458061"><ele>290.0</ele><time>2026-04-19T12:48:58.689Z</time></trkpt><trkpt lat="43.8006099" lon="12.4457732"><ele>290.0</ele><time>2026-04-19T12:48:59.683Z</time></trkpt><trkpt lat="43.8007057" lon="12.4457344"><ele>290.0</ele><time>2026-04-19T12:49:00.682Z</time></trkpt><trkpt lat="43.8008069" lon="12.4456909"><ele>290.0</ele><time>2026-04-19T12:49:01.681Z</time></trkpt><trkpt lat="43.8009027" lon="12.4456586"><ele>290.0</ele><time>2026-04-19T12:49:02.686Z</time></trkpt><trkpt lat="43.8009782" lon="12.4456704"><ele>290.0</ele><time>2026-04-19T12:49:03.682Z</time></trkpt><trkpt lat="43.801057" lon="12.445747"><ele>290.0</ele><time>2026-04-19T12:49:05.701Z</time></trkpt><trkpt lat="43.8011324" lon="12.4457868"><ele>290.0</ele><time>2026-04-19T12:49:07.693Z</time></trkpt><trkpt lat="43.8011754" lon="12.4457219"><ele>290.0</ele><time>2026-04-19T12:49:09.705Z</time></trkpt><trkpt lat="43.8011829" lon="12.4455383"><ele>291.4</ele><time>2026-04-19T12:49:11.685Z</time></trkpt><trkpt lat="43.8011961" lon="12.4454322"><ele>292.8</ele><time>2026-04-19T12:49:12.681Z</time></trkpt><trkpt lat="43.8012254" lon="12.4453357"><ele>294.2</ele><time>2026-04-19T12:49:13.689Z</time></trkpt><trkpt lat="43.8012872" lon="12.4452471"><ele>295.6</ele><time>2026-04-19T12:49:14.695Z</time></trkpt><trkpt lat="43.8013789" lon="12.4451496"><ele>297.0</ele><time>2026-04-19T12:49:15.683Z</time></trkpt><trkpt lat="43.8014871" lon="12.4450374"><ele>297.0</ele><time>2026-04-19T12:49:16.682Z</time></trkpt><trkpt lat="43.8016096" lon="12.444921"><ele>297.0</ele><time>2026-04-19T12:49:17.692Z</time></trkpt><trkpt lat="43.801744" lon="12.4447809"><ele>297.0</ele><time>2026-04-19T12:49:18.681Z</time></trkpt><trkpt lat="43.8018802" lon="12.4446287"><ele>300.0</ele><time>2026-04-19T12:49:19.68Z</time></trkpt><trkpt lat="43.8020071" lon="12.4444814"><ele>303.0</ele><time>2026-04-19T12:49:20.679Z</time></trkpt><trkpt lat="43.8021192" lon="12.4443637"><ele>306.0</ele><time>2026-04-19T12:49:21.684Z</time></trkpt><trkpt lat="43.802224" lon="12.4442258"><ele>306.0</ele><time>2026-04-19T12:49:22.683Z</time></trkpt><trkpt lat="43.8023044" lon="12.4440666"><ele>306.0</ele><time>2026-04-19T12:49:23.68Z</time></trkpt><trkpt lat="43.8023482" lon="12.4438952"><ele>306.0</ele><time>2026-04-19T12:49:24.677Z</time></trkpt><trkpt lat="43.8023856" lon="12.4437112"><ele>306.0</ele><time>2026-04-19T12:49:25.684Z</time></trkpt><trkpt lat="43.8024312" lon="12.4435439"><ele>306.0</ele><time>2026-04-19T12:49:26.688Z</time></trkpt><trkpt lat="43.8024632" lon="12.4433642"><ele>306.0</ele><time>2026-04-19T12:49:27.686Z</time></trkpt><trkpt lat="43.8024758" lon="12.4431797"><ele>306.0</ele><time>2026-04-19T12:49:28.683Z</time></trkpt><trkpt lat="43.8024703" lon="12.4429729"><ele>306.0</ele><time>2026-04-19T12:49:29.683Z</time></trkpt><trkpt lat="43.8024592" lon="12.4427777"><ele>307.6666666666667</ele><time>2026-04-19T12:49:30.682Z</time></trkpt><trkpt lat="43.8024257" lon="12.4425699"><ele>309.33333333333337</ele><time>2026-04-19T12:49:31.679Z</time></trkpt><trkpt lat="43.8023796" lon="12.4423624"><ele>311.0</ele><time>2026-04-19T12:49:32.686Z</time></trkpt><trkpt lat="43.80235" lon="12.4421731"><ele>311.2</ele><time>2026-04-19T12:49:33.664Z</time></trkpt><trkpt lat="43.8023157" lon="12.44204"><ele>311.40000000000003</ele><time>2026-04-19T12:49:34.688Z</time></trkpt><trkpt lat="43.8022856" lon="12.4418931"><ele>311.6</ele><time>2026-04-19T12:49:36.702Z</time></trkpt><trkpt lat="43.802286" lon="12.4417391"><ele>311.8</ele><time>2026-04-19T12:49:38.698Z</time></trkpt><trkpt lat="43.8022707" lon="12.4416211"><ele>312.0</ele><time>2026-04-19T12:49:39.697Z</time></trkpt><trkpt lat="43.8022719" lon="12.4415015"><ele>312.0</ele><time>2026-04-19T12:49:40.688Z</time></trkpt><trkpt lat="43.8022754" lon="12.4413685"><ele>312.0</ele><time>2026-04-19T12:49:41.697Z</time></trkpt><trkpt lat="43.8023004" lon="12.4412316"><ele>312.0</ele><time>2026-04-19T12:49:42.7Z</time></trkpt><trkpt lat="43.8023435" lon="12.4410924"><ele>312.0</ele><time>2026-04-19T12:49:43.7Z</time></trkpt><trkpt lat="43.8024138" lon="12.4409844"><ele>312.0</ele><time>2026-04-19T12:49:44.702Z</time></trkpt><trkpt lat="43.8025102" lon="12.4409079"><ele>312.0</ele><time>2026-04-19T12:49:45.703Z</time></trkpt><trkpt lat="43.8026388" lon="12.4408753"><ele>312.0</ele><time>2026-04-19T12:49:46.689Z</time></trkpt><trkpt lat="43.8027739" lon="12.4408375"><ele>312.0</ele><time>2026-04-19T12:49:47.689Z</time></trkpt><trkpt lat="43.8028995" lon="12.440787"><ele>312.0</ele><time>2026-04-19T12:49:48.681Z</time></trkpt><trkpt lat="43.8030078" lon="12.4407337"><ele>313.6666666666667</ele><time>2026-04-19T12:49:49.677Z</time></trkpt><trkpt lat="43.803109" lon="12.4406857"><ele>315.3333333333333</ele><time>2026-04-19T12:49:50.694Z</time></trkpt><trkpt lat="43.8031801" lon="12.4406495"><ele>317.0</ele><time>2026-04-19T12:49:51.695Z</time></trkpt><trkpt lat="43.8032498" lon="12.4406478"><ele>318.66666666666663</ele><time>2026-04-19T12:49:53.687Z</time></trkpt><trkpt lat="43.8033197" lon="12.4407183"><ele>320.3333333333333</ele><time>2026-04-19T12:49:56.692Z</time></trkpt><trkpt lat="43.8033369" lon="12.4408695"><ele>322.0</ele><time>2026-04-19T12:49:58.691Z</time></trkpt><trkpt lat="43.8033915" lon="12.4410376"><ele>322.0</ele><time>2026-04-19T12:50:00.686Z</time></trkpt><trkpt lat="43.803451" lon="12.4411416"><ele>322.0</ele><time>2026-04-19T12:50:01.687Z</time></trkpt><trkpt lat="43.8035129" lon="12.4412445"><ele>322.0</ele><time>2026-04-19T12:50:02.69Z</time></trkpt><trkpt lat="43.8035822" lon="12.4413487"><ele>322.0</ele><time>2026-04-19T12:50:03.689Z</time></trkpt><trkpt lat="43.8036497" lon="12.4414574"><ele>322.0</ele><time>2026-04-19T12:50:04.688Z</time></trkpt><trkpt lat="43.8037306" lon="12.4415687"><ele>323.75</ele><time>2026-04-19T12:50:05.689Z</time></trkpt><trkpt lat="43.8038243" lon="12.4416902"><ele>325.5</ele><time>2026-04-19T12:50:06.679Z</time></trkpt><trkpt lat="43.8039111" lon="12.4418137"><ele>327.25</ele><time>2026-04-19T12:50:07.693Z</time></trkpt><trkpt lat="43.8040037" lon="12.4419424"><ele>329.0</ele><time>2026-04-19T12:50:08.681Z</time></trkpt><trkpt lat="43.8040837" lon="12.4420635"><ele>327.75</ele><time>2026-04-19T12:50:09.678Z</time></trkpt><trkpt lat="43.8041782" lon="12.4421958"><ele>326.5</ele><time>2026-04-19T12:50:10.677Z</time></trkpt><trkpt lat="43.804284" lon="12.4423337"><ele>325.25</ele><time>2026-04-19T12:50:11.679Z</time></trkpt><trkpt lat="43.8043947" lon="12.4424733"><ele>324.0</ele><time>2026-04-19T12:50:12.686Z</time></trkpt><trkpt lat="43.8045275" lon="12.442621"><ele>324.0</ele><time>2026-04-19T12:50:13.692Z</time></trkpt><trkpt lat="43.8046601" lon="12.4427682"><ele>324.0</ele><time>2026-04-19T12:50:14.692Z</time></trkpt><trkpt lat="43.8047798" lon="12.4429181"><ele>324.0</ele><time>2026-04-19T12:50:15.692Z</time></trkpt><trkpt lat="43.8049058" lon="12.4430647"><ele>324.0</ele><time>2026-04-19T12:50:16.692Z</time></trkpt><trkpt lat="43.8050288" lon="12.4432022"><ele>324.0</ele><time>2026-04-19T12:50:17.688Z</time></trkpt><trkpt lat="43.8051326" lon="12.4433261"><ele>324.0</ele><time>2026-04-19T12:50:18.687Z</time></trkpt><trkpt lat="43.8052322" lon="12.4434329"><ele>324.0</ele><time>2026-04-19T12:50:19.683Z</time></trkpt><trkpt lat="43.8053199" lon="12.443503"><ele>324.0</ele><time>2026-04-19T12:50:20.688Z</time></trkpt><trkpt lat="43.805464" lon="12.4434614"><ele>324.0</ele><time>2026-04-19T12:50:22.682Z</time></trkpt><trkpt lat="43.8055464" lon="12.4434004"><ele>324.0</ele><time>2026-04-19T12:50:23.687Z</time></trkpt><trkpt lat="43.8056448" lon="12.4432938"><ele>324.0</ele><time>2026-04-19T12:50:24.676Z</time></trkpt><trkpt lat="43.8057474" lon="12.443181"><ele>324.0</ele><time>2026-04-19T12:50:25.68Z</time></trkpt><trkpt lat="43.8058686" lon="12.4430756"><ele>324.0</ele><time>2026-04-19T12:50:26.668Z</time></trkpt><trkpt lat="43.8059937" lon="12.4429857"><ele>324.0</ele><time>2026-04-19T12:50:27.676Z</time></trkpt><trkpt lat="43.8061272" lon="12.4428968"><ele>324.0</ele><time>2026-04-19T12:50:28.666Z</time></trkpt><trkpt lat="43.8062884" lon="12.4428625"><ele>324.0</ele><time>2026-04-19T12:50:29.663Z</time></trkpt><trkpt lat="43.8064691" lon="12.4428265"><ele>324.0</ele><time>2026-04-19T12:50:30.665Z</time></trkpt><trkpt lat="43.8066462" lon="12.442802"><ele>324.0</ele><time>2026-04-19T12:50:31.659Z</time></trkpt><trkpt lat="43.8068292" lon="12.4427783"><ele>324.0</ele><time>2026-04-19T12:50:32.658Z</time></trkpt><trkpt lat="43.8070212" lon="12.4427624"><ele>324.0</ele><time>2026-04-19T12:50:33.656Z</time></trkpt><trkpt lat="43.8072292" lon="12.4427559"><ele>324.0</ele><time>2026-04-19T12:50:34.66Z</time></trkpt><trkpt lat="43.8074298" lon="12.4427427"><ele>324.0</ele><time>2026-04-19T12:50:35.66Z</time></trkpt><trkpt lat="43.8076034" lon="12.4427368"><ele>324.0</ele><time>2026-04-19T12:50:36.659Z</time></trkpt><trkpt lat="43.8077672" lon="12.4427468"><ele>324.0</ele><time>2026-04-19T12:50:37.659Z</time></trkpt><trkpt lat="43.807947" lon="12.4427646"><ele>324.3333333333333</ele><time>2026-04-19T12:50:38.679Z</time></trkpt><trkpt lat="43.808118" lon="12.4427906"><ele>324.66666666666663</ele><time>2026-04-19T12:50:39.662Z</time></trkpt><trkpt lat="43.8082712" lon="12.4428083"><ele>325.0</ele><time>2026-04-19T12:50:40.661Z</time></trkpt><trkpt lat="43.8084056" lon="12.4428275"><ele>326.5</ele><time>2026-04-19T12:50:41.661Z</time></trkpt><trkpt lat="43.8085035" lon="12.4428669"><ele>328.0</ele><time>2026-04-19T12:50:42.665Z</time></trkpt><trkpt lat="43.8085991" lon="12.4429032"><ele>329.5</ele><time>2026-04-19T12:50:43.672Z</time></trkpt><trkpt lat="43.8087147" lon="12.4429356"><ele>331.0</ele><time>2026-04-19T12:50:44.668Z</time></trkpt><trkpt lat="43.8088606" lon="12.4429833"><ele>331.75</ele><time>2026-04-19T12:50:45.669Z</time></trkpt><trkpt lat="43.8090046" lon="12.4430172"><ele>332.5</ele><time>2026-04-19T12:50:46.676Z</time></trkpt><trkpt lat="43.8091407" lon="12.4430343"><ele>333.25</ele><time>2026-04-19T12:50:47.673Z</time></trkpt><trkpt lat="43.8092588" lon="12.44304"><ele>334.0</ele><time>2026-04-19T12:50:48.671Z</time></trkpt><trkpt lat="43.8093668" lon="12.4430414"><ele>333.6</ele><time>2026-04-19T12:50:49.673Z</time></trkpt><trkpt lat="43.8094611" lon="12.443031"><ele>333.2</ele><time>2026-04-19T12:50:50.672Z</time></trkpt><trkpt lat="43.8095393" lon="12.4430083"><ele>332.8</ele><time>2026-04-19T12:50:51.677Z</time></trkpt><trkpt lat="43.8096132" lon="12.4429665"><ele>332.40000000000003</ele><time>2026-04-19T12:50:52.682Z</time></trkpt><trkpt lat="43.8096979" lon="12.4428911"><ele>332.0</ele><time>2026-04-19T12:50:53.681Z</time></trkpt><trkpt lat="43.8097877" lon="12.4427891"><ele>332.0</ele><time>2026-04-19T12:50:54.676Z</time></trkpt><trkpt lat="43.8098883" lon="12.4426708"><ele>332.0</ele><time>2026-04-19T12:50:55.672Z</time></trkpt><trkpt lat="43.8099771" lon="12.4425381"><ele>332.0</ele><time>2026-04-19T12:50:56.672Z</time></trkpt><trkpt lat="43.8100631" lon="12.4424228"><ele>332.0</ele><time>2026-04-19T12:50:57.671Z</time></trkpt><trkpt lat="43.8101412" lon="12.442305"><ele>334.25</ele><time>2026-04-19T12:50:58.676Z</time></trkpt><trkpt lat="43.8101905" lon="12.4421743"><ele>336.5</ele><time>2026-04-19T12:50:59.675Z</time></trkpt><trkpt lat="43.810207" lon="12.4420341"><ele>338.75</ele><time>2026-04-19T12:51:00.677Z</time></trkpt><trkpt lat="43.8102128" lon="12.4418604"><ele>341.0</ele><time>2026-04-19T12:51:01.672Z</time></trkpt><trkpt lat="43.8102007" lon="12.441658"><ele>348.33333333333337</ele><time>2026-04-19T12:51:02.668Z</time></trkpt><trkpt lat="43.8101986" lon="12.4414464"><ele>355.6666666666667</ele><time>2026-04-19T12:51:03.667Z</time></trkpt><trkpt lat="43.8101929" lon="12.4412199"><ele>363.0</ele><time>2026-04-19T12:51:04.668Z</time></trkpt><trkpt lat="43.8101794" lon="12.4409861"><ele>365.5</ele><time>2026-04-19T12:51:05.667Z</time></trkpt><trkpt lat="43.8101686" lon="12.4407851"><ele>368.0</ele><time>2026-04-19T12:51:06.67Z</time></trkpt><trkpt lat="43.8101624" lon="12.4405935"><ele>370.5</ele><time>2026-04-19T12:51:07.67Z</time></trkpt><trkpt lat="43.8101451" lon="12.4403864"><ele>373.0</ele><time>2026-04-19T12:51:08.682Z</time></trkpt><trkpt lat="43.8101316" lon="12.4401555"><ele>373.59999999999997</ele><time>2026-04-19T12:51:09.692Z</time></trkpt><trkpt lat="43.8101268" lon="12.4399553"><ele>374.2</ele><time>2026-04-19T12:51:10.669Z</time></trkpt><trkpt lat="43.8101517" lon="12.4398008"><ele>374.8</ele><time>2026-04-19T12:51:11.672Z</time></trkpt><trkpt lat="43.8101879" lon="12.4397031"><ele>375.4</ele><time>2026-04-19T12:51:12.664Z</time></trkpt><trkpt lat="43.8102447" lon="12.4395997"><ele>376.0</ele><time>2026-04-19T12:51:13.663Z</time></trkpt><trkpt lat="43.8103263" lon="12.4394965"><ele>374.25</ele><time>2026-04-19T12:51:14.671Z</time></trkpt><trkpt lat="43.8104092" lon="12.4393896"><ele>372.5</ele><time>2026-04-19T12:51:15.668Z</time></trkpt><trkpt lat="43.8104956" lon="12.4392763"><ele>370.75</ele><time>2026-04-19T12:51:16.685Z</time></trkpt><trkpt lat="43.8105835" lon="12.4391477"><ele>369.0</ele><time>2026-04-19T12:51:17.678Z</time></trkpt><trkpt lat="43.8106633" lon="12.4389994"><ele>369.0</ele><time>2026-04-19T12:51:18.678Z</time></trkpt><trkpt lat="43.8107424" lon="12.4388383"><ele>369.0</ele><time>2026-04-19T12:51:19.678Z</time></trkpt><trkpt lat="43.8108041" lon="12.438683"><ele>369.0</ele><time>2026-04-19T12:51:20.682Z</time></trkpt><trkpt lat="43.8108597" lon="12.4385536"><ele>369.0</ele><time>2026-04-19T12:51:21.684Z</time></trkpt><trkpt lat="43.8109163" lon="12.4384313"><ele>368.75</ele><time>2026-04-19T12:51:22.685Z</time></trkpt><trkpt lat="43.8109826" lon="12.4383131"><ele>368.5</ele><time>2026-04-19T12:51:23.68Z</time></trkpt><trkpt lat="43.8110598" lon="12.4381982"><ele>368.25</ele><time>2026-04-19T12:51:24.683Z</time></trkpt><trkpt lat="43.811142" lon="12.4380909"><ele>368.0</ele><time>2026-04-19T12:51:25.686Z</time></trkpt><trkpt lat="43.8112339" lon="12.4379756"><ele>371.25</ele><time>2026-04-19T12:51:26.689Z</time></trkpt><trkpt lat="43.8113229" lon="12.4378392"><ele>374.5</ele><time>2026-04-19T12:51:27.689Z</time></trkpt><trkpt lat="43.811419" lon="12.4376994"><ele>377.75</ele><time>2026-04-19T12:51:28.692Z</time></trkpt><trkpt lat="43.8115229" lon="12.4375668"><ele>381.0</ele><time>2026-04-19T12:51:29.693Z</time></trkpt><trkpt lat="43.811627" lon="12.4374615"><ele>381.0</ele><time>2026-04-19T12:51:30.694Z</time></trkpt><trkpt lat="43.8117116" lon="12.4373665"><ele>381.0</ele><time>2026-04-19T12:51:31.693Z</time></trkpt><trkpt lat="43.8117794" lon="12.4372431"><ele>381.0</ele><time>2026-04-19T12:51:32.692Z</time></trkpt><trkpt lat="43.811823" lon="12.437088"><ele>381.0</ele><time>2026-04-19T12:51:33.693Z</time></trkpt><trkpt lat="43.81187" lon="12.4369175"><ele>383.75</ele><time>2026-04-19T12:51:34.696Z</time></trkpt><trkpt lat="43.8119241" lon="12.436751"><ele>386.5</ele><time>2026-04-19T12:51:35.697Z</time></trkpt><trkpt lat="43.8119798" lon="12.4365875"><ele>389.25</ele><time>2026-04-19T12:51:36.69Z</time></trkpt><trkpt lat="43.8120267" lon="12.4364486"><ele>392.0</ele><time>2026-04-19T12:51:37.688Z</time></trkpt><trkpt lat="43.8120795" lon="12.4363349"><ele>392.0</ele><time>2026-04-19T12:51:38.698Z</time></trkpt><trkpt lat="43.812138" lon="12.4362753"><ele>392.0</ele><time>2026-04-19T12:51:39.696Z</time></trkpt><trkpt lat="43.8122054" lon="12.4362779"><ele>392.0</ele><time>2026-04-19T12:51:40.727Z</time></trkpt><trkpt lat="43.812294" lon="12.4363134"><ele>392.0</ele><time>2026-04-19T12:51:41.683Z</time></trkpt><trkpt lat="43.8124019" lon="12.4363507"><ele>392.0</ele><time>2026-04-19T12:51:42.683Z</time></trkpt><trkpt lat="43.8125147" lon="12.4363893"><ele>392.0</ele><time>2026-04-19T12:51:43.682Z</time></trkpt><trkpt lat="43.8126324" lon="12.4364486"><ele>392.0</ele><time>2026-04-19T12:51:44.693Z</time></trkpt><trkpt lat="43.8127538" lon="12.4365542"><ele>392.0</ele><time>2026-04-19T12:51:45.686Z</time></trkpt><trkpt lat="43.8128801" lon="12.4366764"><ele>392.0</ele><time>2026-04-19T12:51:46.683Z</time></trkpt><trkpt lat="43.8130129" lon="12.4367948"><ele>395.5</ele><time>2026-04-19T12:51:47.685Z</time></trkpt><trkpt lat="43.8131392" lon="12.4369053"><ele>399.0</ele><time>2026-04-19T12:51:48.684Z</time></trkpt><trkpt lat="43.8132488" lon="12.4370013"><ele>402.5</ele><time>2026-04-19T12:51:49.686Z</time></trkpt><trkpt lat="43.8133258" lon="12.4370752"><ele>406.0</ele><time>2026-04-19T12:51:50.68Z</time></trkpt><trkpt lat="43.8134022" lon="12.43714"><ele>406.00000000000006</ele><time>2026-04-19T12:51:51.677Z</time></trkpt><trkpt lat="43.8134564" lon="12.4371991"><ele>406.0</ele><time>2026-04-19T12:51:52.685Z</time></trkpt><trkpt lat="43.8135137" lon="12.4372436"><ele>406.0</ele><time>2026-04-19T12:51:53.682Z</time></trkpt><trkpt lat="43.8135726" lon="12.4372852"><ele>406.0</ele><time>2026-04-19T12:51:55.69Z</time></trkpt><trkpt lat="43.8136397" lon="12.4372808"><ele>406.00000000000006</ele><time>2026-04-19T12:51:57.698Z</time></trkpt><trkpt lat="43.8137361" lon="12.4372035"><ele>406.0</ele><time>2026-04-19T12:51:59.682Z</time></trkpt><trkpt lat="43.8138046" lon="12.4371372"><ele>408.8</ele><time>2026-04-19T12:52:00.684Z</time></trkpt><trkpt lat="43.8138703" lon="12.4370813"><ele>411.6</ele><time>2026-04-19T12:52:01.678Z</time></trkpt><trkpt lat="43.8139425" lon="12.4370059"><ele>414.4</ele><time>2026-04-19T12:52:03.689Z</time></trkpt><trkpt lat="43.813951" lon="12.4368917"><ele>417.2</ele><time>2026-04-19T12:57:05.702Z</time></trkpt><trkpt lat="43.8140176" lon="12.4367714"><ele>420.0</ele><time>2026-04-19T12:57:07.685Z</time></trkpt><trkpt lat="43.8141103" lon="12.4366647"><ele>420.0</ele><time>2026-04-19T12:57:09.684Z</time></trkpt><trkpt lat="43.8142029" lon="12.4365171"><ele>420.0</ele><time>2026-04-19T12:57:11.687Z</time></trkpt><trkpt lat="43.8142626" lon="12.4364244"><ele>420.0</ele><time>2026-04-19T12:57:12.692Z</time></trkpt><trkpt lat="43.8143219" lon="12.4363353"><ele>420.0</ele><time>2026-04-19T12:57:13.695Z</time></trkpt><trkpt lat="43.8143857" lon="12.4362545"><ele>420.0</ele><time>2026-04-19T12:57:14.688Z</time></trkpt><trkpt lat="43.8144439" lon="12.4361732"><ele>421.0</ele><time>2026-04-19T12:57:15.689Z</time></trkpt><trkpt lat="43.8144959" lon="12.4360984"><ele>422.0</ele><time>2026-04-19T12:57:16.703Z</time></trkpt><trkpt lat="43.8145441" lon="12.4360269"><ele>423.0</ele><time>2026-04-19T12:57:17.704Z</time></trkpt><trkpt lat="43.8145824" lon="12.4359455"><ele>424.0</ele><time>2026-04-19T12:57:18.702Z</time></trkpt><trkpt lat="43.8146219" lon="12.435858"><ele>425.0</ele><time>2026-04-19T12:57:19.718Z</time></trkpt><trkpt lat="43.8146542" lon="12.4357649"><ele>426.0</ele><time>2026-04-19T12:57:20.696Z</time></trkpt><trkpt lat="43.8146784" lon="12.4356628"><ele>427.0</ele><time>2026-04-19T12:57:21.695Z</time></trkpt><trkpt lat="43.8146937" lon="12.4355506"><ele>428.40000000000003</ele><time>2026-04-19T12:57:22.706Z</time></trkpt><trkpt lat="43.814694" lon="12.4354385"><ele>429.80000000000007</ele><time>2026-04-19T12:57:23.705Z</time></trkpt><trkpt lat="43.8146742" lon="12.4353031"><ele>431.2</ele><time>2026-04-19T12:57:24.711Z</time></trkpt><trkpt lat="43.8146325" lon="12.4351643"><ele>432.6</ele><time>2026-04-19T12:57:25.706Z</time></trkpt><trkpt lat="43.8145887" lon="12.4350244"><ele>434.0</ele><time>2026-04-19T12:57:26.702Z</time></trkpt><trkpt lat="43.8145388" lon="12.4348839"><ele>434.0</ele><time>2026-04-19T12:57:27.702Z</time></trkpt><trkpt lat="43.8144851" lon="12.4347314"><ele>434.0</ele><time>2026-04-19T12:57:28.705Z</time></trkpt><trkpt lat="43.8144235" lon="12.4345773"><ele>434.0</ele><time>2026-04-19T12:57:29.703Z</time></trkpt><trkpt lat="43.8143623" lon="12.4344223"><ele>434.0</ele><time>2026-04-19T12:57:30.719Z</time></trkpt><trkpt lat="43.8142967" lon="12.4342744"><ele>436.0</ele><time>2026-04-19T12:57:31.696Z</time></trkpt><trkpt lat="43.8142434" lon="12.4341387"><ele>438.0</ele><time>2026-04-19T12:57:32.703Z</time></trkpt><trkpt lat="43.8141978" lon="12.4340096"><ele>440.0</ele><time>2026-04-19T12:57:33.696Z</time></trkpt><trkpt lat="43.8141755" lon="12.4338898"><ele>442.0</ele><time>2026-04-19T12:57:34.703Z</time></trkpt><trkpt lat="43.8141841" lon="12.4337822"><ele>444.0</ele><time>2026-04-19T12:57:35.7Z</time></trkpt><trkpt lat="43.8142071" lon="12.4336792"><ele>445.8333333333333</ele><time>2026-04-19T12:57:36.697Z</time></trkpt><trkpt lat="43.8142381" lon="12.4335827"><ele>447.66666666666663</ele><time>2026-04-19T12:57:37.698Z</time></trkpt><trkpt lat="43.8142782" lon="12.4334924"><ele>449.5</ele><time>2026-04-19T12:57:38.705Z</time></trkpt><trkpt lat="43.8143214" lon="12.4333931"><ele>451.3333333333333</ele><time>2026-04-19T12:57:39.697Z</time></trkpt><trkpt lat="43.8143735" lon="12.4333016"><ele>453.16666666666663</ele><time>2026-04-19T12:57:40.687Z</time></trkpt><trkpt lat="43.8144338" lon="12.4332069"><ele>455.0</ele><time>2026-04-19T12:57:41.687Z</time></trkpt><trkpt lat="43.8145017" lon="12.4331094"><ele>455.0</ele><time>2026-04-19T12:57:42.687Z</time></trkpt><trkpt lat="43.8145572" lon="12.433007"><ele>455.0</ele><time>2026-04-19T12:57:43.695Z</time></trkpt><trkpt lat="43.8146299" lon="12.4328863"><ele>455.0</ele><time>2026-04-19T12:57:44.697Z</time></trkpt><trkpt lat="43.8146989" lon="12.4327787"><ele>455.0</ele><time>2026-04-19T12:57:45.696Z</time></trkpt><trkpt lat="43.8147436" lon="12.4326861"><ele>455.0</ele><time>2026-04-19T12:57:46.694Z</time></trkpt><trkpt lat="43.8147686" lon="12.4325935"><ele>458.49999999999994</ele><time>2026-04-19T12:57:47.697Z</time></trkpt><trkpt lat="43.8147224" lon="12.4324504"><ele>462.0</ele><time>2026-04-19T12:57:49.703Z</time></trkpt><trkpt lat="43.8146617" lon="12.4324088"><ele>465.5</ele><time>2026-04-19T12:57:50.718Z</time></trkpt><trkpt lat="43.8145905" lon="12.4323692"><ele>469.0</ele><time>2026-04-19T12:57:51.709Z</time></trkpt><trkpt lat="43.8145198" lon="12.4323179"><ele>472.49999999999994</ele><time>2026-04-19T12:57:52.714Z</time></trkpt><trkpt lat="43.8144771" lon="12.4322518"><ele>476.0</ele><time>2026-04-19T12:57:53.708Z</time></trkpt><trkpt lat="43.8144885" lon="12.4320733"><ele>479.16666666666663</ele><time>2026-04-19T12:57:55.701Z</time></trkpt><trkpt lat="43.8145228" lon="12.431968"><ele>482.3333333333333</ele><time>2026-04-19T12:57:56.706Z</time></trkpt><trkpt lat="43.8145648" lon="12.4318628"><ele>485.5</ele><time>2026-04-19T12:57:57.703Z</time></trkpt><trkpt lat="43.8145963" lon="12.4317512"><ele>488.66666666666663</ele><time>2026-04-19T12:57:58.699Z</time></trkpt><trkpt lat="43.8146128" lon="12.4316323"><ele>491.8333333333333</ele><time>2026-04-19T12:57:59.7Z</time></trkpt><trkpt lat="43.8146068" lon="12.4315232"><ele>495.0</ele><time>2026-04-19T12:58:00.703Z</time></trkpt><trkpt lat="43.8145879" lon="12.4314262"><ele>495.0</ele><time>2026-04-19T12:58:01.7Z</time></trkpt><trkpt lat="43.8145377" lon="12.4313463"><ele>495.0</ele><time>2026-04-19T12:58:02.697Z</time></trkpt><trkpt lat="43.8144603" lon="12.4312856"><ele>495.0</ele><time>2026-04-19T12:58:03.696Z</time></trkpt><trkpt lat="43.8143773" lon="12.4312358"><ele>495.0</ele><time>2026-04-19T12:58:04.693Z</time></trkpt><trkpt lat="43.8142966" lon="12.4311697"><ele>495.0</ele><time>2026-04-19T12:58:05.692Z</time></trkpt><trkpt lat="43.8142339" lon="12.4310896"><ele>495.0</ele><time>2026-04-19T12:58:06.693Z</time></trkpt><trkpt lat="43.8141915" lon="12.431006"><ele>494.4</ele><time>2026-04-19T12:58:07.702Z</time></trkpt><trkpt lat="43.8141894" lon="12.430911"><ele>493.8</ele><time>2026-04-19T12:58:08.703Z</time></trkpt><trkpt lat="43.8142907" lon="12.4308322"><ele>493.20000000000005</ele><time>2026-04-19T12:58:10.708Z</time></trkpt><trkpt lat="43.8143862" lon="12.4308495"><ele>492.6</ele><time>2026-04-19T12:58:11.705Z</time></trkpt><trkpt lat="43.8144868" lon="12.4308723"><ele>492.0</ele><time>2026-04-19T12:58:12.706Z</time></trkpt><trkpt lat="43.8145937" lon="12.430891"><ele>495.20000000000005</ele><time>2026-04-19T12:58:13.7Z</time></trkpt><trkpt lat="43.8146998" lon="12.4308847"><ele>498.40000000000003</ele><time>2026-04-19T12:58:14.704Z</time></trkpt><trkpt lat="43.8148032" lon="12.430836"><ele>501.59999999999997</ele><time>2026-04-19T12:58:15.7Z</time></trkpt><trkpt lat="43.8148943" lon="12.4307508"><ele>504.79999999999995</ele><time>2026-04-19T12:58:16.696Z</time></trkpt><trkpt lat="43.8149831" lon="12.4306735"><ele>508.0</ele><time>2026-04-19T12:58:17.702Z</time></trkpt><trkpt lat="43.8150702" lon="12.4306075"><ele>509.79999999999995</ele><time>2026-04-19T12:58:18.7Z</time></trkpt><trkpt lat="43.8151651" lon="12.4305609"><ele>511.59999999999997</ele><time>2026-04-19T12:58:19.709Z</time></trkpt><trkpt lat="43.8152609" lon="12.430542"><ele>513.4000000000001</ele><time>2026-04-19T12:58:20.717Z</time></trkpt><trkpt lat="43.8153572" lon="12.430556"><ele>515.2</ele><time>2026-04-19T12:58:21.727Z</time></trkpt><trkpt lat="43.8154527" lon="12.4306014"><ele>517.0</ele><time>2026-04-19T12:58:22.715Z</time></trkpt><trkpt lat="43.8155561" lon="12.4306422"><ele>517.0</ele><time>2026-04-19T12:58:23.711Z</time></trkpt><trkpt lat="43.8156568" lon="12.4306598"><ele>517.0</ele><time>2026-04-19T12:58:24.71Z</time></trkpt><trkpt lat="43.8157549" lon="12.4306487"><ele>517.0</ele><time>2026-04-19T12:58:25.698Z</time></trkpt><trkpt lat="43.8158377" lon="12.4306113"><ele>517.0</ele><time>2026-04-19T12:58:26.706Z</time></trkpt><trkpt lat="43.8159093" lon="12.4305225"><ele>517.0</ele><time>2026-04-19T12:58:27.713Z</time></trkpt><trkpt lat="43.8159765" lon="12.4304047"><ele>519.5</ele><time>2026-04-19T12:58:28.705Z</time></trkpt><trkpt lat="43.8160397" lon="12.4302742"><ele>522.0</ele><time>2026-04-19T12:58:29.716Z</time></trkpt><trkpt lat="43.8161008" lon="12.4301376"><ele>524.5</ele><time>2026-04-19T12:58:30.712Z</time></trkpt><trkpt lat="43.8161617" lon="12.4300008"><ele>527.0</ele><time>2026-04-19T12:58:31.712Z</time></trkpt><trkpt lat="43.8162263" lon="12.429884"><ele>527.0</ele><time>2026-04-19T12:58:32.713Z</time></trkpt><trkpt lat="43.8163022" lon="12.4297962"><ele>527.0</ele><time>2026-04-19T12:58:33.712Z</time></trkpt><trkpt lat="43.8163897" lon="12.4297159"><ele>527.0</ele><time>2026-04-19T12:58:34.712Z</time></trkpt><trkpt lat="43.8164905" lon="12.4296368"><ele>527.0</ele><time>2026-04-19T12:58:35.704Z</time></trkpt><trkpt lat="43.8166022" lon="12.4295556"><ele>527.0</ele><time>2026-04-19T12:58:36.708Z</time></trkpt><trkpt lat="43.8167065" lon="12.4294779"><ele>527.8000000000001</ele><time>2026-04-19T12:58:37.712Z</time></trkpt><trkpt lat="43.8168026" lon="12.4293987"><ele>528.6</ele><time>2026-04-19T12:58:38.705Z</time></trkpt><trkpt lat="43.8168791" lon="12.429305"><ele>529.4000000000001</ele><time>2026-04-19T12:58:39.721Z</time></trkpt><trkpt lat="43.8169498" lon="12.4291994"><ele>530.2</ele><time>2026-04-19T12:58:40.714Z</time></trkpt><trkpt lat="43.8170182" lon="12.4290925"><ele>531.0</ele><time>2026-04-19T12:58:41.712Z</time></trkpt><trkpt lat="43.8170886" lon="12.4289929"><ele>532.1666666666666</ele><time>2026-04-19T12:58:42.713Z</time></trkpt><trkpt lat="43.8171553" lon="12.4289019"><ele>533.3333333333334</ele><time>2026-04-19T12:58:43.712Z</time></trkpt><trkpt lat="43.8172192" lon="12.4288105"><ele>534.5</ele><time>2026-04-19T12:58:44.715Z</time></trkpt><trkpt lat="43.8172766" lon="12.4287177"><ele>535.6666666666667</ele><time>2026-04-19T12:58:45.71Z</time></trkpt><trkpt lat="43.8173195" lon="12.4286136"><ele>536.8333333333334</ele><time>2026-04-19T12:58:46.713Z</time></trkpt><trkpt lat="43.8173464" lon="12.428497"><ele>538.0</ele><time>2026-04-19T12:58:47.712Z</time></trkpt><trkpt lat="43.8173524" lon="12.4283773"><ele>538.0</ele><time>2026-04-19T12:58:48.713Z</time></trkpt><trkpt lat="43.8173342" lon="12.4282577"><ele>538.0</ele><time>2026-04-19T12:58:49.714Z</time></trkpt><trkpt lat="43.8172983" lon="12.4281363"><ele>538.0</ele><time>2026-04-19T12:58:50.712Z</time></trkpt><trkpt lat="43.817252" lon="12.4280044"><ele>538.0</ele><time>2026-04-19T12:58:51.703Z</time></trkpt><trkpt lat="43.8171986" lon="12.4278632"><ele>538.0</ele><time>2026-04-19T12:58:52.736Z</time></trkpt><trkpt lat="43.8171465" lon="12.4277186"><ele>540.0</ele><time>2026-04-19T12:58:53.713Z</time></trkpt><trkpt lat="43.817096" lon="12.4275717"><ele>542.0</ele><time>2026-04-19T12:58:54.715Z</time></trkpt><trkpt lat="43.8170472" lon="12.427427"><ele>544.0</ele><time>2026-04-19T12:58:55.714Z</time></trkpt><trkpt lat="43.8169954" lon="12.4272872"><ele>546.0</ele><time>2026-04-19T12:58:56.711Z</time></trkpt><trkpt lat="43.8169518" lon="12.4271484"><ele>546.8333333333334</ele><time>2026-04-19T12:58:57.713Z</time></trkpt><trkpt lat="43.8169278" lon="12.4270126"><ele>547.6666666666666</ele><time>2026-04-19T12:58:58.709Z</time></trkpt><trkpt lat="43.8169239" lon="12.4268854"><ele>548.5</ele><time>2026-04-19T12:58:59.712Z</time></trkpt><trkpt lat="43.8169464" lon="12.4267705"><ele>549.3333333333333</ele><time>2026-04-19T12:59:00.71Z</time></trkpt><trkpt lat="43.8169844" lon="12.4266744"><ele>550.1666666666666</ele><time>2026-04-19T12:59:01.71Z</time></trkpt><trkpt lat="43.8170458" lon="12.4266156"><ele>551.0</ele><time>2026-04-19T12:59:02.711Z</time></trkpt><trkpt lat="43.8171288" lon="12.4265917"><ele>551.0</ele><time>2026-04-19T12:59:03.711Z</time></trkpt><trkpt lat="43.8172199" lon="12.4265938"><ele>551.0</ele><time>2026-04-19T12:59:04.709Z</time></trkpt><trkpt lat="43.8173179" lon="12.4266101"><ele>551.0</ele><time>2026-04-19T12:59:05.704Z</time></trkpt><trkpt lat="43.8174199" lon="12.4266492"><ele>551.0</ele><time>2026-04-19T12:59:06.708Z</time></trkpt><trkpt lat="43.8175236" lon="12.4267048"><ele>551.0</ele><time>2026-04-19T12:59:07.712Z</time></trkpt><trkpt lat="43.8176333" lon="12.4267697"><ele>552.25</ele><time>2026-04-19T12:59:08.71Z</time></trkpt><trkpt lat="43.8177448" lon="12.4268173"><ele>553.5</ele><time>2026-04-19T12:59:09.717Z</time></trkpt><trkpt lat="43.8178658" lon="12.426845"><ele>554.75</ele><time>2026-04-19T12:59:10.713Z</time></trkpt><trkpt lat="43.8179933" lon="12.4268301"><ele>556.0</ele><time>2026-04-19T12:59:11.711Z</time></trkpt><trkpt lat="43.818119" lon="12.4267996"><ele>556.0</ele><time>2026-04-19T12:59:12.719Z</time></trkpt><trkpt lat="43.8182488" lon="12.4267574"><ele>556.0</ele><time>2026-04-19T12:59:13.709Z</time></trkpt><trkpt lat="43.8183865" lon="12.4267134"><ele>556.0</ele><time>2026-04-19T12:59:14.709Z</time></trkpt><trkpt lat="43.8185346" lon="12.4266662"><ele>556.0</ele><time>2026-04-19T12:59:15.707Z</time></trkpt><trkpt lat="43.8186991" lon="12.4266085"><ele>558.0</ele><time>2026-04-19T12:59:16.712Z</time></trkpt><trkpt lat="43.8188559" lon="12.4265654"><ele>560.0</ele><time>2026-04-19T12:59:17.708Z</time></trkpt><trkpt lat="43.8190116" lon="12.4265239"><ele>562.0</ele><time>2026-04-19T12:59:18.716Z</time></trkpt><trkpt lat="43.8191594" lon="12.4264871"><ele>562.0</ele><time>2026-04-19T12:59:19.71Z</time></trkpt><trkpt lat="43.8193071" lon="12.4264486"><ele>562.0</ele><time>2026-04-19T12:59:20.712Z</time></trkpt><trkpt lat="43.8194454" lon="12.4264083"><ele>562.0</ele><time>2026-04-19T12:59:21.714Z</time></trkpt><trkpt lat="43.8195699" lon="12.4263619"><ele>562.0</ele><time>2026-04-19T12:59:22.706Z</time></trkpt><trkpt lat="43.8196771" lon="12.426313"><ele>563.8000000000001</ele><time>2026-04-19T12:59:23.735Z</time></trkpt><trkpt lat="43.8197757" lon="12.4262542"><ele>565.6</ele><time>2026-04-19T12:59:24.716Z</time></trkpt><trkpt lat="43.819875" lon="12.4261858"><ele>567.4000000000001</ele><time>2026-04-19T12:59:25.713Z</time></trkpt><trkpt lat="43.8199719" lon="12.4261013"><ele>569.2</ele><time>2026-04-19T12:59:26.714Z</time></trkpt><trkpt lat="43.820063" lon="12.4260219"><ele>571.0</ele><time>2026-04-19T12:59:27.711Z</time></trkpt><trkpt lat="43.8201455" lon="12.4259459"><ele>571.8333333333334</ele><time>2026-04-19T12:59:28.713Z</time></trkpt><trkpt lat="43.8202091" lon="12.4258703"><ele>572.6666666666667</ele><time>2026-04-19T12:59:29.714Z</time></trkpt><trkpt lat="43.8202526" lon="12.4257938"><ele>573.5</ele><time>2026-04-19T12:59:30.715Z</time></trkpt><trkpt lat="43.8202892" lon="12.4257122"><ele>574.3333333333334</ele><time>2026-04-19T12:59:31.708Z</time></trkpt><trkpt lat="43.8203163" lon="12.4256271"><ele>575.1666666666666</ele><time>2026-04-19T12:59:32.724Z</time></trkpt><trkpt lat="43.8203326" lon="12.4255117"><ele>576.0</ele><time>2026-04-19T12:59:42.719Z</time></trkpt><trkpt lat="43.8203617" lon="12.4253996"><ele>579.5</ele><time>2026-04-19T12:59:43.716Z</time></trkpt><trkpt lat="43.8203873" lon="12.4252548"><ele>583.0</ele><time>2026-04-19T12:59:44.712Z</time></trkpt><trkpt lat="43.8204078" lon="12.425098"><ele>586.5</ele><time>2026-04-19T12:59:45.705Z</time></trkpt><trkpt lat="43.8204172" lon="12.4249416"><ele>590.0</ele><time>2026-04-19T12:59:46.712Z</time></trkpt><trkpt lat="43.8204125" lon="12.424779"><ele>592.5</ele><time>2026-04-19T12:59:47.724Z</time></trkpt><trkpt lat="43.8203861" lon="12.4246149"><ele>595.0</ele><time>2026-04-19T12:59:48.716Z</time></trkpt><trkpt lat="43.8203479" lon="12.4244574"><ele>597.5</ele><time>2026-04-19T12:59:49.713Z</time></trkpt><trkpt lat="43.8203137" lon="12.4243031"><ele>600.0</ele><time>2026-04-19T12:59:50.713Z</time></trkpt><trkpt lat="43.82028" lon="12.4241474"><ele>600.0</ele><time>2026-04-19T12:59:51.711Z</time></trkpt><trkpt lat="43.8202513" lon="12.4239931"><ele>600.0</ele><time>2026-04-19T12:59:52.715Z</time></trkpt><trkpt lat="43.8202364" lon="12.4238424"><ele>600.0</ele><time>2026-04-19T12:59:53.71Z</time></trkpt><trkpt lat="43.8202361" lon="12.4236872"><ele>600.0</ele><time>2026-04-19T12:59:54.743Z</time></trkpt><trkpt lat="43.8202589" lon="12.4235331"><ele>601.75</ele><time>2026-04-19T12:59:55.709Z</time></trkpt><trkpt lat="43.8203006" lon="12.4233688"><ele>603.5</ele><time>2026-04-19T12:59:56.702Z</time></trkpt><trkpt lat="43.8203388" lon="12.4232"><ele>605.25</ele><time>2026-04-19T12:59:57.703Z</time></trkpt><trkpt lat="43.8203669" lon="12.4230342"><ele>607.0</ele><time>2026-04-19T12:59:58.701Z</time></trkpt><trkpt lat="43.820377" lon="12.422881"><ele>607.0</ele><time>2026-04-19T12:59:59.717Z</time></trkpt><trkpt lat="43.8203541" lon="12.422751"><ele>607.0</ele><time>2026-04-19T13:00:00.705Z</time></trkpt><trkpt lat="43.8203115" lon="12.4226408"><ele>607.0</ele><time>2026-04-19T13:00:01.7Z</time></trkpt><trkpt lat="43.8202847" lon="12.4225387"><ele>607.0</ele><time>2026-04-19T13:00:02.696Z</time></trkpt><trkpt lat="43.8202837" lon="12.4224432"><ele>607.0</ele><time>2026-04-19T13:00:03.705Z</time></trkpt><trkpt lat="43.8203114" lon="12.4223643"><ele>607.0</ele><time>2026-04-19T13:00:04.702Z</time></trkpt><trkpt lat="43.820367" lon="12.4222989"><ele>607.0</ele><time>2026-04-19T13:00:05.702Z</time></trkpt><trkpt lat="43.8204429" lon="12.4222753"><ele>607.0</ele><time>2026-04-19T13:00:06.714Z</time></trkpt><trkpt lat="43.8205293" lon="12.422298"><ele>607.0</ele><time>2026-04-19T13:00:07.706Z</time></trkpt><trkpt lat="43.820601" lon="12.4223581"><ele>607.0</ele><time>2026-04-19T13:00:08.707Z</time></trkpt><trkpt lat="43.8206684" lon="12.4224517"><ele>607.0</ele><time>2026-04-19T13:00:09.699Z</time></trkpt><trkpt lat="43.8207337" lon="12.42256"><ele>607.0</ele><time>2026-04-19T13:00:10.7Z</time></trkpt><trkpt lat="43.8208006" lon="12.4226796"><ele>607.0</ele><time>2026-04-19T13:00:11.7Z</time></trkpt><trkpt lat="43.8208688" lon="12.4228072"><ele>607.0</ele><time>2026-04-19T13:00:12.71Z</time></trkpt><trkpt lat="43.8209375" lon="12.422938"><ele>607.0</ele><time>2026-04-19T13:00:13.705Z</time></trkpt><trkpt lat="43.8210096" lon="12.4230793"><ele>607.0</ele><time>2026-04-19T13:00:14.709Z</time></trkpt><trkpt lat="43.8210916" lon="12.423232"><ele>611.5</ele><time>2026-04-19T13:00:15.708Z</time></trkpt><trkpt lat="43.8211741" lon="12.4233831"><ele>616.0</ele><time>2026-04-19T13:00:16.706Z</time></trkpt><trkpt lat="43.8212529" lon="12.4235179"><ele>620.5</ele><time>2026-04-19T13:00:17.702Z</time></trkpt><trkpt lat="43.8213332" lon="12.4236228"><ele>625.0</ele><time>2026-04-19T13:00:18.709Z</time></trkpt><trkpt lat="43.821423" lon="12.4237075"><ele>625.0</ele><time>2026-04-19T13:00:19.7Z</time></trkpt><trkpt lat="43.8215162" lon="12.4237661"><ele>625.0</ele><time>2026-04-19T13:00:20.708Z</time></trkpt><trkpt lat="43.8216044" lon="12.4237842"><ele>625.0</ele><time>2026-04-19T13:00:21.707Z</time></trkpt><trkpt lat="43.8216813" lon="12.4237571"><ele>625.0</ele><time>2026-04-19T13:00:22.706Z</time></trkpt><trkpt lat="43.8217364" lon="12.4236909"><ele>625.0</ele><time>2026-04-19T13:00:23.71Z</time></trkpt><trkpt lat="43.8217864" lon="12.4235832"><ele>625.0</ele><time>2026-04-19T13:00:24.698Z</time></trkpt><trkpt lat="43.8218304" lon="12.4234783"><ele>627.3333333333334</ele><time>2026-04-19T13:00:25.724Z</time></trkpt><trkpt lat="43.8218826" lon="12.4233897"><ele>629.6666666666667</ele><time>2026-04-19T13:00:26.694Z</time></trkpt><trkpt lat="43.8219381" lon="12.4233248"><ele>632.0</ele><time>2026-04-19T13:00:27.702Z</time></trkpt><trkpt lat="43.8219999" lon="12.42329"><ele>634.3333333333334</ele><time>2026-04-19T13:00:28.704Z</time></trkpt><trkpt lat="43.8220792" lon="12.4232691"><ele>636.6666666666666</ele><time>2026-04-19T13:00:29.706Z</time></trkpt><trkpt lat="43.8221654" lon="12.4232596"><ele>639.0</ele><time>2026-04-19T13:00:30.708Z</time></trkpt><trkpt lat="43.8222578" lon="12.4232478"><ele>639.0</ele><time>2026-04-19T13:00:31.702Z</time></trkpt><trkpt lat="43.8223498" lon="12.423229"><ele>639.0</ele><time>2026-04-19T13:00:32.712Z</time></trkpt><trkpt lat="43.8224425" lon="12.4232027"><ele>639.0</ele><time>2026-04-19T13:00:33.707Z</time></trkpt><trkpt lat="43.8225386" lon="12.4231847"><ele>639.0</ele><time>2026-04-19T13:00:34.706Z</time></trkpt><trkpt lat="43.8226392" lon="12.4231659"><ele>639.0</ele><time>2026-04-19T13:00:35.708Z</time></trkpt><trkpt lat="43.8227459" lon="12.4231503"><ele>639.8</ele><time>2026-04-19T13:00:36.704Z</time></trkpt><trkpt lat="43.8228543" lon="12.4231438"><ele>640.5999999999999</ele><time>2026-04-19T13:00:37.708Z</time></trkpt><trkpt lat="43.8229596" lon="12.4231375"><ele>641.4</ele><time>2026-04-19T13:00:38.724Z</time></trkpt><trkpt lat="43.8230603" lon="12.423114"><ele>642.1999999999999</ele><time>2026-04-19T13:00:39.706Z</time></trkpt><trkpt lat="43.8231544" lon="12.4230615"><ele>643.0</ele><time>2026-04-19T13:00:40.713Z</time></trkpt><trkpt lat="43.8232368" lon="12.4229811"><ele>644.8</ele><time>2026-04-19T13:00:41.713Z</time></trkpt><trkpt lat="43.823315" lon="12.42289"><ele>646.5999999999999</ele><time>2026-04-19T13:00:42.703Z</time></trkpt><trkpt lat="43.8233941" lon="12.4227857"><ele>648.4000000000001</ele><time>2026-04-19T13:00:43.712Z</time></trkpt><trkpt lat="43.8234771" lon="12.4226834"><ele>650.2</ele><time>2026-04-19T13:00:44.709Z</time></trkpt><trkpt lat="43.823551" lon="12.4225857"><ele>652.0</ele><time>2026-04-19T13:00:45.711Z</time></trkpt><trkpt lat="43.8236005" lon="12.4224941"><ele>653.4000000000001</ele><time>2026-04-19T13:00:46.712Z</time></trkpt><trkpt lat="43.8236297" lon="12.4224027"><ele>654.8000000000001</ele><time>2026-04-19T13:00:47.708Z</time></trkpt><trkpt lat="43.8236232" lon="12.4222853"><ele>656.2</ele><time>2026-04-19T13:01:01.723Z</time></trkpt><trkpt lat="43.8236074" lon="12.4220995"><ele>657.6</ele><time>2026-04-19T13:01:03.707Z</time></trkpt><trkpt lat="43.8236016" lon="12.4219947"><ele>659.0</ele><time>2026-04-19T13:01:04.707Z</time></trkpt><trkpt lat="43.8235978" lon="12.4218791"><ele>661.2</ele><time>2026-04-19T13:01:05.703Z</time></trkpt><trkpt lat="43.8235985" lon="12.4217576"><ele>663.4000000000001</ele><time>2026-04-19T13:01:06.702Z</time></trkpt><trkpt lat="43.8236093" lon="12.4216366"><ele>665.6</ele><time>2026-04-19T13:01:07.703Z</time></trkpt><trkpt lat="43.8236318" lon="12.4215115"><ele>667.8</ele><time>2026-04-19T13:01:08.706Z</time></trkpt><trkpt lat="43.8236811" lon="12.4213836"><ele>670.0</ele><time>2026-04-19T13:01:09.709Z</time></trkpt><trkpt lat="43.8237504" lon="12.4212638"><ele>672.25</ele><time>2026-04-19T13:01:10.705Z</time></trkpt><trkpt lat="43.8238239" lon="12.4211351"><ele>674.5</ele><time>2026-04-19T13:01:11.703Z</time></trkpt><trkpt lat="43.8238981" lon="12.4210096"><ele>676.75</ele><time>2026-04-19T13:01:12.702Z</time></trkpt><trkpt lat="43.8239763" lon="12.4208835"><ele>679.0</ele><time>2026-04-19T13:01:13.712Z</time></trkpt><trkpt lat="43.8240469" lon="12.4207528"><ele>679.0</ele><time>2026-04-19T13:01:14.704Z</time></trkpt><trkpt lat="43.8241065" lon="12.4206237"><ele>679.0</ele><time>2026-04-19T13:01:15.708Z</time></trkpt><trkpt lat="43.8241477" lon="12.4205059"><ele>679.0</ele><time>2026-04-19T13:01:16.705Z</time></trkpt><trkpt lat="43.8241835" lon="12.4203787"><ele>679.0</ele><time>2026-04-19T13:01:17.706Z</time></trkpt><trkpt lat="43.8242206" lon="12.4202473"><ele>679.0</ele><time>2026-04-19T13:01:18.701Z</time></trkpt><trkpt lat="43.8242557" lon="12.4200924"><ele>678.0</ele><time>2026-04-19T13:01:19.699Z</time></trkpt><trkpt lat="43.8242935" lon="12.4199278"><ele>677.0</ele><time>2026-04-19T13:01:20.703Z</time></trkpt><trkpt lat="43.8243334" lon="12.4197592"><ele>676.0</ele><time>2026-04-19T13:01:21.697Z</time></trkpt><trkpt lat="43.8243757" lon="12.419591"><ele>675.0</ele><time>2026-04-19T13:01:22.707Z</time></trkpt><trkpt lat="43.8244279" lon="12.4194251"><ele>678.75</ele><time>2026-04-19T13:01:23.694Z</time></trkpt><trkpt lat="43.824484" lon="12.4192602"><ele>682.5</ele><time>2026-04-19T13:01:24.695Z</time></trkpt><trkpt lat="43.8245304" lon="12.4191063"><ele>686.25</ele><time>2026-04-19T13:01:25.693Z</time></trkpt><trkpt lat="43.8245752" lon="12.4189528"><ele>690.0</ele><time>2026-04-19T13:01:26.683Z</time></trkpt><trkpt lat="43.8246129" lon="12.4187959"><ele>690.0</ele><time>2026-04-19T13:01:27.706Z</time></trkpt><trkpt lat="43.8246332" lon="12.4186643"><ele>690.0</ele><time>2026-04-19T13:01:28.696Z</time></trkpt><trkpt lat="43.8246327" lon="12.4185435"><ele>690.0</ele><time>2026-04-19T13:01:29.69Z</time></trkpt><trkpt lat="43.8246147" lon="12.4184069"><ele>690.0</ele><time>2026-04-19T13:01:30.688Z</time></trkpt><trkpt lat="43.8245806" lon="12.4182526"><ele>690.0</ele><time>2026-04-19T13:01:31.68Z</time></trkpt><trkpt lat="43.8245227" lon="12.4180874"><ele>690.0</ele><time>2026-04-19T13:01:32.702Z</time></trkpt><trkpt lat="43.8244675" lon="12.417948"><ele>690.0</ele><time>2026-04-19T13:01:33.694Z</time></trkpt><trkpt lat="43.8244323" lon="12.417817"><ele>690.0</ele><time>2026-04-19T13:01:34.69Z</time></trkpt><trkpt lat="43.8244154" lon="12.417667"><ele>690.0</ele><time>2026-04-19T13:01:35.701Z</time></trkpt><trkpt lat="43.8244206" lon="12.4174912"><ele>690.0</ele><time>2026-04-19T13:01:36.701Z</time></trkpt><trkpt lat="43.8244288" lon="12.4172834"><ele>690.0</ele><time>2026-04-19T13:01:37.693Z</time></trkpt><trkpt lat="43.8244422" lon="12.4170649"><ele>690.0</ele><time>2026-04-19T13:01:38.698Z</time></trkpt><trkpt lat="43.8244457" lon="12.4168378"><ele>690.5</ele><time>2026-04-19T13:01:39.703Z</time></trkpt><trkpt lat="43.8244473" lon="12.4166413"><ele>691.0</ele><time>2026-04-19T13:01:40.696Z</time></trkpt><trkpt lat="43.824451" lon="12.4164596"><ele>691.5</ele><time>2026-04-19T13:01:41.706Z</time></trkpt><trkpt lat="43.824452" lon="12.4162903"><ele>692.0</ele><time>2026-04-19T13:01:42.695Z</time></trkpt><trkpt lat="43.8244566" lon="12.4161397"><ele>692.6666666666666</ele><time>2026-04-19T13:01:43.695Z</time></trkpt><trkpt lat="43.8244544" lon="12.4160051"><ele>693.3333333333333</ele><time>2026-04-19T13:01:44.694Z</time></trkpt><trkpt lat="43.8244558" lon="12.4158759"><ele>694.0</ele><time>2026-04-19T13:01:45.697Z</time></trkpt><trkpt lat="43.8244555" lon="12.415756"><ele>694.6666666666666</ele><time>2026-04-19T13:01:46.698Z</time></trkpt><trkpt lat="43.8244557" lon="12.4156444"><ele>695.3333333333334</ele><time>2026-04-19T13:01:47.69Z</time></trkpt><trkpt lat="43.8244517" lon="12.4155336"><ele>696.0</ele><time>2026-04-19T13:01:48.693Z</time></trkpt><trkpt lat="43.8244364" lon="12.4154299"><ele>697.6666666666666</ele><time>2026-04-19T13:01:49.691Z</time></trkpt><trkpt lat="43.8244022" lon="12.4153494"><ele>699.3333333333334</ele><time>2026-04-19T13:01:50.696Z</time></trkpt><trkpt lat="43.8243093" lon="12.4152421"><ele>701.0</ele><time>2026-04-19T13:01:52.688Z</time></trkpt><trkpt lat="43.8242333" lon="12.4152235"><ele>702.6666666666667</ele><time>2026-04-19T13:01:53.691Z</time></trkpt><trkpt lat="43.8241525" lon="12.4152196"><ele>704.3333333333334</ele><time>2026-04-19T13:01:54.679Z</time></trkpt><trkpt lat="43.824072" lon="12.4152375"><ele>706.0</ele><time>2026-04-19T13:01:55.687Z</time></trkpt><trkpt lat="43.8239971" lon="12.4152528"><ele>702.3333333333334</ele><time>2026-04-19T13:01:56.683Z</time></trkpt><trkpt lat="43.8239143" lon="12.4152653"><ele>698.6666666666667</ele><time>2026-04-19T13:01:57.698Z</time></trkpt><trkpt lat="43.8238306" lon="12.4152589"><ele>695.0</ele><time>2026-04-19T13:01:58.702Z</time></trkpt><trkpt lat="43.8237515" lon="12.4152292"><ele>691.3333333333334</ele><time>2026-04-19T13:01:59.693Z</time></trkpt><trkpt lat="43.823671" lon="12.415184"><ele>687.6666666666666</ele><time>2026-04-19T13:02:00.716Z</time></trkpt><trkpt lat="43.8235901" lon="12.4151394"><ele>684.0</ele><time>2026-04-19T13:02:01.685Z</time></trkpt><trkpt lat="43.8235027" lon="12.4150942"><ele>681.5</ele><time>2026-04-19T13:02:02.69Z</time></trkpt><trkpt lat="43.8234126" lon="12.4150416"><ele>679.0</ele><time>2026-04-19T13:02:03.691Z</time></trkpt><trkpt lat="43.8233348" lon="12.4149819"><ele>676.5</ele><time>2026-04-19T13:02:04.691Z</time></trkpt><trkpt lat="43.8232694" lon="12.4149287"><ele>674.0</ele><time>2026-04-19T13:02:05.692Z</time></trkpt><trkpt lat="43.8232177" lon="12.414877"><ele>671.5</ele><time>2026-04-19T13:02:06.704Z</time></trkpt><trkpt lat="43.8231767" lon="12.4147607"><ele>669.0</ele><time>2026-04-19T13:02:08.714Z</time></trkpt><trkpt lat="43.8232503" lon="12.4145662"><ele>667.0</ele><time>2026-04-19T13:02:10.707Z</time></trkpt><trkpt lat="43.8233158" lon="12.4144088"><ele>665.0</ele><time>2026-04-19T13:02:11.705Z</time></trkpt><trkpt lat="43.8233977" lon="12.4142233"><ele>663.0</ele><time>2026-04-19T13:02:12.695Z</time></trkpt><trkpt lat="43.8234821" lon="12.4140239"><ele>668.0</ele><time>2026-04-19T13:02:13.696Z</time></trkpt><trkpt lat="43.8235696" lon="12.4138127"><ele>673.0</ele><time>2026-04-19T13:02:14.692Z</time></trkpt><trkpt lat="43.8236591" lon="12.4135814"><ele>678.0</ele><time>2026-04-19T13:02:15.695Z</time></trkpt><trkpt lat="43.8237428" lon="12.4133543"><ele>678.0</ele><time>2026-04-19T13:02:16.688Z</time></trkpt><trkpt lat="43.8238247" lon="12.4131454"><ele>678.0</ele><time>2026-04-19T13:02:17.687Z</time></trkpt><trkpt lat="43.8239084" lon="12.4129421"><ele>678.0</ele><time>2026-04-19T13:02:18.686Z</time></trkpt><trkpt lat="43.8239915" lon="12.41273"><ele>676.5</ele><time>2026-04-19T13:02:19.683Z</time></trkpt><trkpt lat="43.8240598" lon="12.4125318"><ele>675.0</ele><time>2026-04-19T13:02:20.68Z</time></trkpt><trkpt lat="43.8241276" lon="12.412376"><ele>673.5</ele><time>2026-04-19T13:02:21.681Z</time></trkpt><trkpt lat="43.8241832" lon="12.4122377"><ele>672.0</ele><time>2026-04-19T13:02:22.683Z</time></trkpt><trkpt lat="43.8242216" lon="12.4121229"><ele>671.0</ele><time>2026-04-19T13:02:23.702Z</time></trkpt><trkpt lat="43.8242637" lon="12.4120071"><ele>670.0</ele><time>2026-04-19T13:02:24.686Z</time></trkpt><trkpt lat="43.8243184" lon="12.4118871"><ele>669.0</ele><time>2026-04-19T13:02:25.693Z</time></trkpt><trkpt lat="43.8243604" lon="12.411775"><ele>668.0</ele><time>2026-04-19T13:02:26.694Z</time></trkpt><trkpt lat="43.8243944" lon="12.4116755"><ele>667.0</ele><time>2026-04-19T13:02:27.69Z</time></trkpt><trkpt lat="43.824408" lon="12.4115787"><ele>666.0</ele><time>2026-04-19T13:02:28.695Z</time></trkpt><trkpt lat="43.824407" lon="12.4114697"><ele>665.75</ele><time>2026-04-19T13:02:29.711Z</time></trkpt><trkpt lat="43.8243908" lon="12.4113506"><ele>665.5</ele><time>2026-04-19T13:02:30.7Z</time></trkpt><trkpt lat="43.8243502" lon="12.4112078"><ele>665.25</ele><time>2026-04-19T13:02:31.698Z</time></trkpt><trkpt lat="43.8242961" lon="12.4110452"><ele>665.0</ele><time>2026-04-19T13:02:32.703Z</time></trkpt><trkpt lat="43.8242412" lon="12.4108733"><ele>664.75</ele><time>2026-04-19T13:02:33.709Z</time></trkpt><trkpt lat="43.8241872" lon="12.4106977"><ele>664.5</ele><time>2026-04-19T13:02:34.7Z</time></trkpt><trkpt lat="43.8241388" lon="12.4105348"><ele>664.25</ele><time>2026-04-19T13:02:35.718Z</time></trkpt><trkpt lat="43.8240995" lon="12.4103651"><ele>664.0</ele><time>2026-04-19T13:02:36.708Z</time></trkpt><trkpt lat="43.8240643" lon="12.4102012"><ele>664.0</ele><time>2026-04-19T13:02:37.713Z</time></trkpt><trkpt lat="43.8240244" lon="12.4100449"><ele>664.0</ele><time>2026-04-19T13:02:38.71Z</time></trkpt><trkpt lat="43.8239806" lon="12.4098935"><ele>664.0</ele><time>2026-04-19T13:02:39.711Z</time></trkpt><trkpt lat="43.8239409" lon="12.4097593"><ele>664.0</ele><time>2026-04-19T13:02:40.714Z</time></trkpt><trkpt lat="43.8239083" lon="12.4096568"><ele>664.0</ele><time>2026-04-19T13:02:41.723Z</time></trkpt><trkpt lat="43.8238796" lon="12.4095675"><ele>663.3333333333334</ele><time>2026-04-19T13:02:42.712Z</time></trkpt><trkpt lat="43.8238528" lon="12.4094764"><ele>662.6666666666667</ele><time>2026-04-19T13:02:43.714Z</time></trkpt><trkpt lat="43.8238305" lon="12.4093863"><ele>662.0</ele><time>2026-04-19T13:02:44.712Z</time></trkpt><trkpt lat="43.8238069" lon="12.4092919"><ele>661.3333333333334</ele><time>2026-04-19T13:02:45.711Z</time></trkpt><trkpt lat="43.8237853" lon="12.409201"><ele>660.6666666666666</ele><time>2026-04-19T13:02:46.716Z</time></trkpt><trkpt lat="43.8237575" lon="12.4090565"><ele>660.0</ele><time>2026-04-19T13:02:48.713Z</time></trkpt><trkpt lat="43.8237518" lon="12.4088944"><ele>660.5</ele><time>2026-04-19T13:03:13.721Z</time></trkpt><trkpt lat="43.823742" lon="12.4087882"><ele>661.0</ele><time>2026-04-19T13:03:14.701Z</time></trkpt><trkpt lat="43.8237392" lon="12.4086748"><ele>661.5</ele><time>2026-04-19T13:03:15.711Z</time></trkpt><trkpt lat="43.8237488" lon="12.4085494"><ele>662.0</ele><time>2026-04-19T13:03:16.711Z</time></trkpt><trkpt lat="43.8237711" lon="12.4084319"><ele>662.5</ele><time>2026-04-19T13:03:17.704Z</time></trkpt><trkpt lat="43.8238047" lon="12.4083126"><ele>663.0</ele><time>2026-04-19T13:03:18.705Z</time></trkpt><trkpt lat="43.8238521" lon="12.4082001"><ele>663.0</ele><time>2026-04-19T13:03:19.705Z</time></trkpt><trkpt lat="43.8239125" lon="12.4081113"><ele>663.0</ele><time>2026-04-19T13:03:20.7Z</time></trkpt><trkpt lat="43.8239813" lon="12.4080362"><ele>663.0</ele><time>2026-04-19T13:03:21.705Z</time></trkpt><trkpt lat="43.8240448" lon="12.4079557"><ele>663.0</ele><time>2026-04-19T13:03:22.705Z</time></trkpt><trkpt lat="43.8240966" lon="12.4078653"><ele>663.0</ele><time>2026-04-19T13:03:23.693Z</time></trkpt><trkpt lat="43.8241341" lon="12.4077498"><ele>663.0</ele><time>2026-04-19T13:03:24.7Z</time></trkpt><trkpt lat="43.8241567" lon="12.4076382"><ele>662.8333333333334</ele><time>2026-04-19T13:03:25.699Z</time></trkpt><trkpt lat="43.8241653" lon="12.4075323"><ele>662.6666666666666</ele><time>2026-04-19T13:03:26.702Z</time></trkpt><trkpt lat="43.8242002" lon="12.4074039"><ele>662.5</ele><time>2026-04-19T13:03:28.708Z</time></trkpt><trkpt lat="43.8242839" lon="12.4074354"><ele>662.3333333333333</ele><time>2026-04-19T13:03:30.715Z</time></trkpt><trkpt lat="43.8243308" lon="12.4075069"><ele>662.1666666666666</ele><time>2026-04-19T13:03:31.718Z</time></trkpt><trkpt lat="43.8243921" lon="12.4075982"><ele>662.0</ele><time>2026-04-19T13:03:32.693Z</time></trkpt><trkpt lat="43.8244612" lon="12.4076871"><ele>658.6666666666666</ele><time>2026-04-19T13:03:33.696Z</time></trkpt><trkpt lat="43.8245314" lon="12.4077599"><ele>655.3333333333333</ele><time>2026-04-19T13:03:34.702Z</time></trkpt><trkpt lat="43.8246055" lon="12.4078034"><ele>652.0</ele><time>2026-04-19T13:03:35.703Z</time></trkpt><trkpt lat="43.824675" lon="12.4078083"><ele>648.6666666666666</ele><time>2026-04-19T13:03:36.7Z</time></trkpt><trkpt lat="43.8247431" lon="12.4077709"><ele>645.3333333333334</ele><time>2026-04-19T13:03:37.703Z</time></trkpt><trkpt lat="43.8247975" lon="12.4076947"><ele>642.0</ele><time>2026-04-19T13:03:38.706Z</time></trkpt><trkpt lat="43.8248181" lon="12.4076055"><ele>642.0</ele><time>2026-04-19T13:03:39.696Z</time></trkpt><trkpt lat="43.8248107" lon="12.4074909"><ele>642.0</ele><time>2026-04-19T13:03:40.691Z</time></trkpt><trkpt lat="43.8247833" lon="12.4073629"><ele>642.0</ele><time>2026-04-19T13:03:41.699Z</time></trkpt><trkpt lat="43.8247381" lon="12.407239"><ele>642.0</ele><time>2026-04-19T13:03:42.705Z</time></trkpt><trkpt lat="43.8246697" lon="12.4071147"><ele>642.0</ele><time>2026-04-19T13:03:43.707Z</time></trkpt><trkpt lat="43.8245698" lon="12.4069917"><ele>643.6666666666666</ele><time>2026-04-19T13:03:44.691Z</time></trkpt><trkpt lat="43.824454" lon="12.4068689"><ele>645.3333333333333</ele><time>2026-04-19T13:03:45.68Z</time></trkpt><trkpt lat="43.8243378" lon="12.406734"><ele>647.0</ele><time>2026-04-19T13:03:46.685Z</time></trkpt><trkpt lat="43.8242147" lon="12.4065876"><ele>647.0</ele><time>2026-04-19T13:03:47.693Z</time></trkpt><trkpt lat="43.8240946" lon="12.4064325"><ele>647.0</ele><time>2026-04-19T13:03:48.689Z</time></trkpt><trkpt lat="43.823998" lon="12.4063102"><ele>647.0</ele><time>2026-04-19T13:03:49.686Z</time></trkpt><trkpt lat="43.8239257" lon="12.4061988"><ele>647.0</ele><time>2026-04-19T13:03:50.689Z</time></trkpt><trkpt lat="43.8238595" lon="12.4061146"><ele>644.1666666666666</ele><time>2026-04-19T13:03:51.691Z</time></trkpt><trkpt lat="43.8238075" lon="12.4060529"><ele>641.3333333333333</ele><time>2026-04-19T13:03:52.69Z</time></trkpt><trkpt lat="43.8237765" lon="12.4059621"><ele>638.5</ele><time>2026-04-19T13:03:54.691Z</time></trkpt><trkpt lat="43.823868" lon="12.405935"><ele>635.6666666666666</ele><time>2026-04-19T13:03:57.71Z</time></trkpt><trkpt lat="43.8239336" lon="12.4060028"><ele>632.8333333333334</ele><time>2026-04-19T13:03:58.706Z</time></trkpt><trkpt lat="43.8240112" lon="12.406103"><ele>630.0</ele><time>2026-04-19T13:03:59.699Z</time></trkpt><trkpt lat="43.8241013" lon="12.4062221"><ele>630.75</ele><time>2026-04-19T13:04:00.695Z</time></trkpt><trkpt lat="43.8241942" lon="12.4063381"><ele>631.5</ele><time>2026-04-19T13:04:01.685Z</time></trkpt><trkpt lat="43.8243042" lon="12.4064481"><ele>632.25</ele><time>2026-04-19T13:04:02.707Z</time></trkpt><trkpt lat="43.8244346" lon="12.40655"><ele>633.0</ele><time>2026-04-19T13:04:03.691Z</time></trkpt><trkpt lat="43.8245891" lon="12.4066169"><ele>633.0</ele><time>2026-04-19T13:04:04.688Z</time></trkpt><trkpt lat="43.8247843" lon="12.4066341"><ele>633.0</ele><time>2026-04-19T13:04:05.688Z</time></trkpt><trkpt lat="43.8249829" lon="12.4066054"><ele>633.0</ele><time>2026-04-19T13:04:06.679Z</time></trkpt><trkpt lat="43.8251981" lon="12.4065638"><ele>631.0</ele><time>2026-04-19T13:04:07.696Z</time></trkpt><trkpt lat="43.8253953" lon="12.406541"><ele>629.0</ele><time>2026-04-19T13:04:08.69Z</time></trkpt><trkpt lat="43.8255837" lon="12.4065212"><ele>627.0</ele><time>2026-04-19T13:04:09.689Z</time></trkpt><trkpt lat="43.8257596" lon="12.4065309"><ele>627.0</ele><time>2026-04-19T13:04:10.696Z</time></trkpt><trkpt lat="43.8259286" lon="12.4065774"><ele>627.0</ele><time>2026-04-19T13:04:11.696Z</time></trkpt><trkpt lat="43.8260696" lon="12.4066678"><ele>627.0</ele><time>2026-04-19T13:04:12.704Z</time></trkpt><trkpt lat="43.8261986" lon="12.4067987"><ele>624.0</ele><time>2026-04-19T13:04:13.692Z</time></trkpt><trkpt lat="43.8262907" lon="12.40697"><ele>621.0</ele><time>2026-04-19T13:04:14.703Z</time></trkpt><trkpt lat="43.8263723" lon="12.4071562"><ele>618.0</ele><time>2026-04-19T13:04:15.699Z</time></trkpt><trkpt lat="43.8264388" lon="12.4073548"><ele>618.0</ele><time>2026-04-19T13:04:16.694Z</time></trkpt><trkpt lat="43.8265147" lon="12.4075621"><ele>618.0</ele><time>2026-04-19T13:04:17.696Z</time></trkpt><trkpt lat="43.8265817" lon="12.4077793"><ele>618.0</ele><time>2026-04-19T13:04:18.7Z</time></trkpt><trkpt lat="43.8266483" lon="12.4079927"><ele>618.25</ele><time>2026-04-19T13:04:19.705Z</time></trkpt><trkpt lat="43.826705" lon="12.4081982"><ele>618.5</ele><time>2026-04-19T13:04:20.7Z</time></trkpt><trkpt lat="43.8267609" lon="12.4083705"><ele>618.75</ele><time>2026-04-19T13:04:21.709Z</time></trkpt><trkpt lat="43.8268161" lon="12.4085253"><ele>619.0</ele><time>2026-04-19T13:04:22.704Z</time></trkpt><trkpt lat="43.8268874" lon="12.4086529"><ele>619.0</ele><time>2026-04-19T13:04:23.708Z</time></trkpt><trkpt lat="43.8269776" lon="12.4087362"><ele>619.0</ele><time>2026-04-19T13:04:24.71Z</time></trkpt><trkpt lat="43.8271052" lon="12.4087749"><ele>619.0</ele><time>2026-04-19T13:04:25.712Z</time></trkpt><trkpt lat="43.8272483" lon="12.4087786"><ele>619.0</ele><time>2026-04-19T13:04:26.703Z</time></trkpt><trkpt lat="43.8273924" lon="12.4087692"><ele>619.0</ele><time>2026-04-19T13:04:27.7Z</time></trkpt><trkpt lat="43.8275587" lon="12.4087652"><ele>619.0</ele><time>2026-04-19T13:04:28.703Z</time></trkpt><trkpt lat="43.8277384" lon="12.4087666"><ele>619.0</ele><time>2026-04-19T13:04:29.709Z</time></trkpt><trkpt lat="43.8279166" lon="12.4087746"><ele>620.0</ele><time>2026-04-19T13:04:30.717Z</time></trkpt><trkpt lat="43.8280829" lon="12.4087849"><ele>621.0</ele><time>2026-04-19T13:04:31.704Z</time></trkpt><trkpt lat="43.8282344" lon="12.4088085"><ele>622.0</ele><time>2026-04-19T13:04:32.709Z</time></trkpt><trkpt lat="43.8283759" lon="12.4088592"><ele>618.3333333333334</ele><time>2026-04-19T13:04:33.723Z</time></trkpt><trkpt lat="43.8285155" lon="12.4089677"><ele>614.6666666666666</ele><time>2026-04-19T13:04:34.701Z</time></trkpt><trkpt lat="43.8286478" lon="12.4090981"><ele>611.0</ele><time>2026-04-19T13:04:35.698Z</time></trkpt><trkpt lat="43.828776" lon="12.4092579"><ele>611.0</ele><time>2026-04-19T13:04:36.7Z</time></trkpt><trkpt lat="43.8289158" lon="12.4093891"><ele>611.0</ele><time>2026-04-19T13:04:37.693Z</time></trkpt><trkpt lat="43.8290528" lon="12.409478"><ele>611.0</ele><time>2026-04-19T13:04:38.706Z</time></trkpt><trkpt lat="43.8292112" lon="12.4095246"><ele>609.0</ele><time>2026-04-19T13:04:39.702Z</time></trkpt><trkpt lat="43.829383" lon="12.4095292"><ele>607.0</ele><time>2026-04-19T13:04:40.7Z</time></trkpt><trkpt lat="43.829553" lon="12.4095374"><ele>605.0</ele><time>2026-04-19T13:04:41.701Z</time></trkpt><trkpt lat="43.8297208" lon="12.409545"><ele>605.0</ele><time>2026-04-19T13:04:42.688Z</time></trkpt><trkpt lat="43.8298707" lon="12.4095635"><ele>605.0</ele><time>2026-04-19T13:04:43.685Z</time></trkpt><trkpt lat="43.8300229" lon="12.4095955"><ele>605.0</ele><time>2026-04-19T13:04:44.683Z</time></trkpt><trkpt lat="43.8301687" lon="12.4096478"><ele>603.75</ele><time>2026-04-19T13:04:45.69Z</time></trkpt><trkpt lat="43.8303007" lon="12.4097467"><ele>602.5</ele><time>2026-04-19T13:04:46.684Z</time></trkpt><trkpt lat="43.8303926" lon="12.4098761"><ele>601.25</ele><time>2026-04-19T13:04:47.695Z</time></trkpt><trkpt lat="43.8304374" lon="12.4100266"><ele>600.0</ele><time>2026-04-19T13:04:48.684Z</time></trkpt><trkpt lat="43.830451" lon="12.4101974"><ele>600.0</ele><time>2026-04-19T13:04:49.684Z</time></trkpt><trkpt lat="43.8304695" lon="12.4103887"><ele>600.0</ele><time>2026-04-19T13:04:50.681Z</time></trkpt><trkpt lat="43.8304744" lon="12.4105932"><ele>600.0</ele><time>2026-04-19T13:04:51.686Z</time></trkpt><trkpt lat="43.8304972" lon="12.4108017"><ele>600.0</ele><time>2026-04-19T13:04:52.698Z</time></trkpt><trkpt lat="43.8305316" lon="12.4110164"><ele>600.25</ele><time>2026-04-19T13:04:53.689Z</time></trkpt><trkpt lat="43.8305854" lon="12.4112051"><ele>600.5</ele><time>2026-04-19T13:04:54.688Z</time></trkpt><trkpt lat="43.8306537" lon="12.4113784"><ele>600.75</ele><time>2026-04-19T13:04:55.681Z</time></trkpt><trkpt lat="43.8307616" lon="12.4115329"><ele>601.0</ele><time>2026-04-19T13:04:56.696Z</time></trkpt><trkpt lat="43.8308748" lon="12.4116578"><ele>600.0</ele><time>2026-04-19T13:04:57.69Z</time></trkpt><trkpt lat="43.8309866" lon="12.4117751"><ele>599.0</ele><time>2026-04-19T13:04:58.695Z</time></trkpt><trkpt lat="43.8310969" lon="12.4118923"><ele>598.0</ele><time>2026-04-19T13:04:59.691Z</time></trkpt><trkpt lat="43.8312243" lon="12.4120248"><ele>597.0</ele><time>2026-04-19T13:05:00.692Z</time></trkpt><trkpt lat="43.8313396" lon="12.4121469"><ele>597.0</ele><time>2026-04-19T13:05:01.691Z</time></trkpt><trkpt lat="43.8314438" lon="12.412231"><ele>597.0</ele><time>2026-04-19T13:05:02.693Z</time></trkpt><trkpt lat="43.8315267" lon="12.4122729"><ele>597.0</ele><time>2026-04-19T13:05:03.699Z</time></trkpt><trkpt lat="43.8316051" lon="12.4122795"><ele>597.0</ele><time>2026-04-19T13:05:04.71Z</time></trkpt><trkpt lat="43.8316755" lon="12.4122273"><ele>597.0</ele><time>2026-04-19T13:05:06.686Z</time></trkpt><trkpt lat="43.8317524" lon="12.4121283"><ele>594.2</ele><time>2026-04-19T13:05:08.688Z</time></trkpt><trkpt lat="43.8318615" lon="12.4120145"><ele>591.4000000000001</ele><time>2026-04-19T13:05:10.687Z</time></trkpt><trkpt lat="43.831928" lon="12.4119469"><ele>588.5999999999999</ele><time>2026-04-19T13:05:11.686Z</time></trkpt><trkpt lat="43.8320022" lon="12.4118688"><ele>585.8</ele><time>2026-04-19T13:05:12.688Z</time></trkpt><trkpt lat="43.8320831" lon="12.4117845"><ele>583.0</ele><time>2026-04-19T13:05:13.695Z</time></trkpt><trkpt lat="43.8321697" lon="12.4117029"><ele>583.0</ele><time>2026-04-19T13:05:14.701Z</time></trkpt><trkpt lat="43.8322556" lon="12.4116186"><ele>583.0</ele><time>2026-04-19T13:05:15.697Z</time></trkpt><trkpt lat="43.8323485" lon="12.4115365"><ele>583.0</ele><time>2026-04-19T13:05:16.697Z</time></trkpt><trkpt lat="43.8324431" lon="12.4114503"><ele>583.0</ele><time>2026-04-19T13:05:17.695Z</time></trkpt><trkpt lat="43.8325362" lon="12.4113661"><ele>583.0</ele><time>2026-04-19T13:05:18.702Z</time></trkpt><trkpt lat="43.8326251" lon="12.4112833"><ele>579.6</ele><time>2026-04-19T13:05:19.701Z</time></trkpt><trkpt lat="43.8327063" lon="12.4112048"><ele>576.1999999999999</ele><time>2026-04-19T13:05:20.696Z</time></trkpt><trkpt lat="43.832783" lon="12.4111277"><ele>572.8</ele><time>2026-04-19T13:05:21.698Z</time></trkpt><trkpt lat="43.8328581" lon="12.4110526"><ele>569.4</ele><time>2026-04-19T13:05:22.691Z</time></trkpt><trkpt lat="43.8329239" lon="12.4109746"><ele>566.0</ele><time>2026-04-19T13:05:23.69Z</time></trkpt><trkpt lat="43.8329813" lon="12.4108982"><ele>566.0</ele><time>2026-04-19T13:05:24.694Z</time></trkpt><trkpt lat="43.8330309" lon="12.4108182"><ele>566.0</ele><time>2026-04-19T13:05:25.693Z</time></trkpt><trkpt lat="43.8330779" lon="12.4107386"><ele>566.0</ele><time>2026-04-19T13:05:26.697Z</time></trkpt><trkpt lat="43.8331225" lon="12.4106653"><ele>566.0</ele><time>2026-04-19T13:05:27.696Z</time></trkpt><trkpt lat="43.8331675" lon="12.4105914"><ele>566.0</ele><time>2026-04-19T13:05:28.7Z</time></trkpt><trkpt lat="43.8332187" lon="12.4105275"><ele>566.0</ele><time>2026-04-19T13:05:29.699Z</time></trkpt><trkpt lat="43.8332758" lon="12.4104617"><ele>566.0</ele><time>2026-04-19T13:05:30.701Z</time></trkpt><trkpt lat="43.8333338" lon="12.4103924"><ele>565.2</ele><time>2026-04-19T13:05:31.696Z</time></trkpt><trkpt lat="43.8333949" lon="12.4103135"><ele>564.4000000000001</ele><time>2026-04-19T13:05:32.699Z</time></trkpt><trkpt lat="43.8334585" lon="12.4102224"><ele>563.6</ele><time>2026-04-19T13:05:33.697Z</time></trkpt><trkpt lat="43.8335284" lon="12.4101251"><ele>562.8000000000001</ele><time>2026-04-19T13:05:34.692Z</time></trkpt><trkpt lat="43.8336004" lon="12.4100395"><ele>562.0</ele><time>2026-04-19T13:05:35.726Z</time></trkpt><trkpt lat="43.8336802" lon="12.4099547"><ele>559.5</ele><time>2026-04-19T13:05:36.687Z</time></trkpt><trkpt lat="43.8337774" lon="12.4098705"><ele>557.0</ele><time>2026-04-19T13:05:37.69Z</time></trkpt><trkpt lat="43.8338757" lon="12.409783"><ele>554.5</ele><time>2026-04-19T13:05:38.695Z</time></trkpt><trkpt lat="43.8339722" lon="12.4096933"><ele>552.0</ele><time>2026-04-19T13:05:39.69Z</time></trkpt><trkpt lat="43.8340681" lon="12.4096093"><ele>551.5</ele><time>2026-04-19T13:05:40.696Z</time></trkpt><trkpt lat="43.8341648" lon="12.4095307"><ele>551.0</ele><time>2026-04-19T13:05:41.692Z</time></trkpt><trkpt lat="43.8342556" lon="12.4094653"><ele>550.5</ele><time>2026-04-19T13:05:42.698Z</time></trkpt><trkpt lat="43.8343338" lon="12.4094146"><ele>550.0</ele><time>2026-04-19T13:05:43.698Z</time></trkpt><trkpt lat="43.834393" lon="12.4093782"><ele>549.5</ele><time>2026-04-19T13:05:44.693Z</time></trkpt><trkpt lat="43.8344484" lon="12.409334"><ele>549.0</ele><time>2026-04-19T13:05:45.694Z</time></trkpt><trkpt lat="43.8345021" lon="12.4092716"><ele>547.6666666666666</ele><time>2026-04-19T13:05:46.695Z</time></trkpt><trkpt lat="43.8345577" lon="12.4092032"><ele>546.3333333333334</ele><time>2026-04-19T13:05:47.695Z</time></trkpt><trkpt lat="43.8346146" lon="12.4091333"><ele>545.0</ele><time>2026-04-19T13:05:48.693Z</time></trkpt><trkpt lat="43.8346811" lon="12.4090611"><ele>543.6666666666667</ele><time>2026-04-19T13:05:49.691Z</time></trkpt><trkpt lat="43.8347499" lon="12.4089858"><ele>542.3333333333334</ele><time>2026-04-19T13:05:50.697Z</time></trkpt><trkpt lat="43.8348198" lon="12.4089103"><ele>541.0</ele><time>2026-04-19T13:05:51.702Z</time></trkpt><trkpt lat="43.8348812" lon="12.4088342"><ele>540.2</ele><time>2026-04-19T13:05:52.695Z</time></trkpt><trkpt lat="43.8349313" lon="12.4087652"><ele>539.4000000000001</ele><time>2026-04-19T13:05:53.698Z</time></trkpt><trkpt lat="43.8350102" lon="12.4086556"><ele>538.6</ele><time>2026-04-19T13:05:55.7Z</time></trkpt><trkpt lat="43.8350814" lon="12.4085256"><ele>537.8000000000001</ele><time>2026-04-19T13:05:57.695Z</time></trkpt><trkpt lat="43.8351397" lon="12.4083839"><ele>537.0</ele><time>2026-04-19T13:05:59.698Z</time></trkpt><trkpt lat="43.8351537" lon="12.4082599"><ele>534.4</ele><time>2026-04-19T13:06:01.686Z</time></trkpt><trkpt lat="43.8351484" lon="12.4081489"><ele>531.8000000000001</ele><time>2026-04-19T13:06:03.701Z</time></trkpt><trkpt lat="43.8352119" lon="12.4080863"><ele>529.2</ele><time>2026-04-19T13:06:06.694Z</time></trkpt><trkpt lat="43.8352929" lon="12.4081793"><ele>526.6</ele><time>2026-04-19T13:06:08.708Z</time></trkpt><trkpt lat="43.8353555" lon="12.4082899"><ele>524.0</ele><time>2026-04-19T13:06:09.695Z</time></trkpt><trkpt lat="43.8354168" lon="12.4084159"><ele>524.0</ele><time>2026-04-19T13:06:10.687Z</time></trkpt><trkpt lat="43.8354851" lon="12.4085415"><ele>524.0</ele><time>2026-04-19T13:06:11.69Z</time></trkpt><trkpt lat="43.8355452" lon="12.4086602"><ele>524.0</ele><time>2026-04-19T13:06:12.696Z</time></trkpt><trkpt lat="43.8356047" lon="12.4087702"><ele>524.0</ele><time>2026-04-19T13:06:13.691Z</time></trkpt><trkpt lat="43.8356746" lon="12.4088807"><ele>524.0</ele><time>2026-04-19T13:06:14.695Z</time></trkpt><trkpt lat="43.8357524" lon="12.4089795"><ele>524.0</ele><time>2026-04-19T13:06:15.685Z</time></trkpt><trkpt lat="43.8358374" lon="12.4090709"><ele>524.0</ele><time>2026-04-19T13:06:16.691Z</time></trkpt><trkpt lat="43.8359221" lon="12.4091653"><ele>524.0</ele><time>2026-04-19T13:06:17.687Z</time></trkpt><trkpt lat="43.8360078" lon="12.4092781"><ele>524.0</ele><time>2026-04-19T13:06:18.695Z</time></trkpt><trkpt lat="43.836072" lon="12.4094137"><ele>521.5</ele><time>2026-04-19T13:06:19.687Z</time></trkpt><trkpt lat="43.8361382" lon="12.4095572"><ele>519.0</ele><time>2026-04-19T13:06:20.691Z</time></trkpt><trkpt lat="43.8362118" lon="12.4096922"><ele>516.5</ele><time>2026-04-19T13:06:21.688Z</time></trkpt><trkpt lat="43.8362903" lon="12.4098083"><ele>514.0</ele><time>2026-04-19T13:06:22.703Z</time></trkpt><trkpt lat="43.8363862" lon="12.4099035"><ele>514.0</ele><time>2026-04-19T13:06:23.7Z</time></trkpt><trkpt lat="43.8364779" lon="12.4100076"><ele>514.0</ele><time>2026-04-19T13:06:24.699Z</time></trkpt><trkpt lat="43.8365606" lon="12.4101337"><ele>514.0</ele><time>2026-04-19T13:06:25.702Z</time></trkpt><trkpt lat="43.8366222" lon="12.4102926"><ele>514.0</ele><time>2026-04-19T13:06:26.701Z</time></trkpt><trkpt lat="43.8366705" lon="12.4104666"><ele>515.25</ele><time>2026-04-19T13:06:27.698Z</time></trkpt><trkpt lat="43.8367327" lon="12.4106225"><ele>516.5</ele><time>2026-04-19T13:06:28.69Z</time></trkpt><trkpt lat="43.8368192" lon="12.4107623"><ele>517.75</ele><time>2026-04-19T13:06:29.692Z</time></trkpt><trkpt lat="43.8369178" lon="12.4108931"><ele>519.0</ele><time>2026-04-19T13:06:30.693Z</time></trkpt><trkpt lat="43.8370138" lon="12.4110192"><ele>519.25</ele><time>2026-04-19T13:06:31.68Z</time></trkpt><trkpt lat="43.8371237" lon="12.4111338"><ele>519.5</ele><time>2026-04-19T13:06:32.696Z</time></trkpt><trkpt lat="43.8372194" lon="12.4112324"><ele>519.75</ele><time>2026-04-19T13:06:33.682Z</time></trkpt><trkpt lat="43.8373091" lon="12.411324"><ele>520.0</ele><time>2026-04-19T13:06:34.679Z</time></trkpt><trkpt lat="43.8373757" lon="12.4114042"><ele>521.0</ele><time>2026-04-19T13:06:35.684Z</time></trkpt><trkpt lat="43.8374282" lon="12.4114784"><ele>522.0</ele><time>2026-04-19T13:06:36.701Z</time></trkpt><trkpt lat="43.8374749" lon="12.4115633"><ele>523.0</ele><time>2026-04-19T13:06:37.695Z</time></trkpt><trkpt lat="43.837518" lon="12.4116636"><ele>524.0</ele><time>2026-04-19T13:06:38.694Z</time></trkpt><trkpt lat="43.83754" lon="12.4117943"><ele>525.0</ele><time>2026-04-19T13:06:39.696Z</time></trkpt><trkpt lat="43.8375448" lon="12.4119473"><ele>526.0</ele><time>2026-04-19T13:06:40.692Z</time></trkpt><trkpt lat="43.8375525" lon="12.412109"><ele>525.75</ele><time>2026-04-19T13:06:41.697Z</time></trkpt><trkpt lat="43.8375492" lon="12.4122733"><ele>525.5</ele><time>2026-04-19T13:06:42.691Z</time></trkpt><trkpt lat="43.8375436" lon="12.4124566"><ele>525.25</ele><time>2026-04-19T13:06:43.689Z</time></trkpt><trkpt lat="43.8375441" lon="12.4126467"><ele>525.0</ele><time>2026-04-19T13:06:44.689Z</time></trkpt><trkpt lat="43.8375427" lon="12.4128281"><ele>524.25</ele><time>2026-04-19T13:06:45.687Z</time></trkpt><trkpt lat="43.8375608" lon="12.4130001"><ele>523.5</ele><time>2026-04-19T13:06:46.684Z</time></trkpt><trkpt lat="43.837604" lon="12.413146"><ele>522.75</ele><time>2026-04-19T13:06:47.69Z</time></trkpt><trkpt lat="43.83768" lon="12.4132619"><ele>522.0</ele><time>2026-04-19T13:06:48.686Z</time></trkpt><trkpt lat="43.8377701" lon="12.4133708"><ele>522.0</ele><time>2026-04-19T13:06:49.682Z</time></trkpt><trkpt lat="43.8378666" lon="12.4134677"><ele>522.0</ele><time>2026-04-19T13:06:50.692Z</time></trkpt><trkpt lat="43.8379669" lon="12.4135439"><ele>522.0</ele><time>2026-04-19T13:06:51.684Z</time></trkpt><trkpt lat="43.8380602" lon="12.4136015"><ele>522.0</ele><time>2026-04-19T13:06:52.679Z</time></trkpt><trkpt lat="43.8381556" lon="12.4136411"><ele>522.0</ele><time>2026-04-19T13:06:53.691Z</time></trkpt><trkpt lat="43.8382335" lon="12.4136421"><ele>522.0</ele><time>2026-04-19T13:06:54.682Z</time></trkpt><trkpt lat="43.8383039" lon="12.4136416"><ele>522.0</ele><time>2026-04-19T13:06:55.691Z</time></trkpt><trkpt lat="43.8383731" lon="12.4136642"><ele>522.0</ele><time>2026-04-19T13:06:56.685Z</time></trkpt><trkpt lat="43.838454" lon="12.4136936"><ele>522.0</ele><time>2026-04-19T13:06:57.69Z</time></trkpt><trkpt lat="43.8385361" lon="12.4137366"><ele>522.0</ele><time>2026-04-19T13:06:58.692Z</time></trkpt><trkpt lat="43.8386182" lon="12.4137946"><ele>522.0</ele><time>2026-04-19T13:06:59.681Z</time></trkpt><trkpt lat="43.8387126" lon="12.4138518"><ele>521.4</ele><time>2026-04-19T13:07:00.687Z</time></trkpt><trkpt lat="43.8387994" lon="12.4139197"><ele>520.8000000000001</ele><time>2026-04-19T13:07:01.677Z</time></trkpt><trkpt lat="43.8388823" lon="12.4139936"><ele>520.2</ele><time>2026-04-19T13:07:02.675Z</time></trkpt><trkpt lat="43.8389651" lon="12.4140779"><ele>519.6</ele><time>2026-04-19T13:07:03.687Z</time></trkpt><trkpt lat="43.8390344" lon="12.4141933"><ele>519.0</ele><time>2026-04-19T13:07:04.682Z</time></trkpt><trkpt lat="43.8390838" lon="12.4143304"><ele>519.0</ele><time>2026-04-19T13:07:05.679Z</time></trkpt><trkpt lat="43.839137" lon="12.4144587"><ele>519.0</ele><time>2026-04-19T13:07:06.682Z</time></trkpt><trkpt lat="43.8391993" lon="12.414592"><ele>519.0</ele><time>2026-04-19T13:07:07.696Z</time></trkpt><trkpt lat="43.8392633" lon="12.41473"><ele>519.0</ele><time>2026-04-19T13:07:08.687Z</time></trkpt><trkpt lat="43.839322" lon="12.4148588"><ele>516.25</ele><time>2026-04-19T13:07:09.678Z</time></trkpt><trkpt lat="43.8393864" lon="12.414984"><ele>513.5</ele><time>2026-04-19T13:07:10.678Z</time></trkpt><trkpt lat="43.8394623" lon="12.4150949"><ele>510.75</ele><time>2026-04-19T13:07:11.685Z</time></trkpt><trkpt lat="43.8395497" lon="12.4151727"><ele>508.0</ele><time>2026-04-19T13:07:12.681Z</time></trkpt><trkpt lat="43.8396707" lon="12.4152192"><ele>508.0</ele><time>2026-04-19T13:07:13.677Z</time></trkpt><trkpt lat="43.8398037" lon="12.4152402"><ele>508.0</ele><time>2026-04-19T13:07:14.682Z</time></trkpt><trkpt lat="43.8399357" lon="12.4152495"><ele>508.0</ele><time>2026-04-19T13:07:15.673Z</time></trkpt><trkpt lat="43.8400639" lon="12.4152803"><ele>508.0</ele><time>2026-04-19T13:07:16.691Z</time></trkpt><trkpt lat="43.8401713" lon="12.4153564"><ele>505.75</ele><time>2026-04-19T13:07:17.688Z</time></trkpt><trkpt lat="43.8402605" lon="12.4154843"><ele>503.5</ele><time>2026-04-19T13:07:18.691Z</time></trkpt><trkpt lat="43.8403153" lon="12.4156427"><ele>501.25</ele><time>2026-04-19T13:07:19.688Z</time></trkpt><trkpt lat="43.8403475" lon="12.4158209"><ele>499.0</ele><time>2026-04-19T13:07:20.68Z</time></trkpt><trkpt lat="43.8403888" lon="12.4159811"><ele>499.0</ele><time>2026-04-19T13:07:21.688Z</time></trkpt><trkpt lat="43.8404533" lon="12.4161181"><ele>499.0</ele><time>2026-04-19T13:07:22.693Z</time></trkpt><trkpt lat="43.8405365" lon="12.4162357"><ele>499.0</ele><time>2026-04-19T13:07:23.684Z</time></trkpt><trkpt lat="43.8406205" lon="12.4163721"><ele>499.0</ele><time>2026-04-19T13:07:24.69Z</time></trkpt><trkpt lat="43.8406991" lon="12.4165326"><ele>499.25</ele><time>2026-04-19T13:07:25.693Z</time></trkpt><trkpt lat="43.840762" lon="12.4167118"><ele>499.5</ele><time>2026-04-19T13:07:26.693Z</time></trkpt><trkpt lat="43.8408081" lon="12.4168993"><ele>499.75</ele><time>2026-04-19T13:07:27.69Z</time></trkpt><trkpt lat="43.8408641" lon="12.4170632"><ele>500.0</ele><time>2026-04-19T13:07:28.693Z</time></trkpt><trkpt lat="43.8409441" lon="12.4172005"><ele>498.0</ele><time>2026-04-19T13:07:29.694Z</time></trkpt><trkpt lat="43.8410662" lon="12.4173003"><ele>496.0</ele><time>2026-04-19T13:07:30.695Z</time></trkpt><trkpt lat="43.8411931" lon="12.417391"><ele>494.0</ele><time>2026-04-19T13:07:31.69Z</time></trkpt><trkpt lat="43.8413158" lon="12.4174898"><ele>492.0</ele><time>2026-04-19T13:07:32.686Z</time></trkpt><trkpt lat="43.8414418" lon="12.4175846"><ele>492.0</ele><time>2026-04-19T13:07:33.69Z</time></trkpt><trkpt lat="43.8415748" lon="12.4176811"><ele>492.0</ele><time>2026-04-19T13:07:34.675Z</time></trkpt><trkpt lat="43.8417141" lon="12.4177766"><ele>492.0</ele><time>2026-04-19T13:07:35.692Z</time></trkpt><trkpt lat="43.8418578" lon="12.4178771"><ele>490.33333333333337</ele><time>2026-04-19T13:07:36.688Z</time></trkpt><trkpt lat="43.8420079" lon="12.4179704"><ele>488.6666666666667</ele><time>2026-04-19T13:07:37.688Z</time></trkpt><trkpt lat="43.8421477" lon="12.4180561"><ele>487.0</ele><time>2026-04-19T13:07:38.702Z</time></trkpt><trkpt lat="43.8422746" lon="12.4181434"><ele>487.0</ele><time>2026-04-19T13:07:39.687Z</time></trkpt><trkpt lat="43.8423923" lon="12.4182255"><ele>487.00000000000006</ele><time>2026-04-19T13:07:40.688Z</time></trkpt><trkpt lat="43.8424854" lon="12.4182926"><ele>487.00000000000006</ele><time>2026-04-19T13:07:41.679Z</time></trkpt><trkpt lat="43.8425817" lon="12.4183382"><ele>487.0</ele><time>2026-04-19T13:07:42.678Z</time></trkpt><trkpt lat="43.8426582" lon="12.4183431"><ele>487.0</ele><time>2026-04-19T13:07:43.69Z</time></trkpt><trkpt lat="43.8427379" lon="12.4183075"><ele>485.83333333333337</ele><time>2026-04-19T13:07:44.698Z</time></trkpt><trkpt lat="43.8427898" lon="12.4181502"><ele>484.6666666666667</ele><time>2026-04-19T13:07:46.694Z</time></trkpt><trkpt lat="43.8428036" lon="12.4180362"><ele>483.5</ele><time>2026-04-19T13:07:47.695Z</time></trkpt><trkpt lat="43.8427762" lon="12.4179402"><ele>482.33333333333337</ele><time>2026-04-19T13:07:48.695Z</time></trkpt><trkpt lat="43.8427177" lon="12.4178709"><ele>481.1666666666667</ele><time>2026-04-19T13:07:49.68Z</time></trkpt><trkpt lat="43.8426501" lon="12.4177958"><ele>480.0</ele><time>2026-04-19T13:07:50.696Z</time></trkpt><trkpt lat="43.8425638" lon="12.4177168"><ele>480.0</ele><time>2026-04-19T13:07:51.683Z</time></trkpt><trkpt lat="43.8424749" lon="12.4176522"><ele>480.0</ele><time>2026-04-19T13:07:52.69Z</time></trkpt><trkpt lat="43.8424072" lon="12.4175921"><ele>480.0</ele><time>2026-04-19T13:07:53.689Z</time></trkpt><trkpt lat="43.8423423" lon="12.4175289"><ele>480.0</ele><time>2026-04-19T13:07:54.689Z</time></trkpt><trkpt lat="43.8422812" lon="12.4174605"><ele>480.0</ele><time>2026-04-19T13:07:55.688Z</time></trkpt><trkpt lat="43.8422343" lon="12.417391"><ele>480.0</ele><time>2026-04-19T13:07:56.689Z</time></trkpt><trkpt lat="43.8421988" lon="12.417306"><ele>480.0</ele><time>2026-04-19T13:07:57.698Z</time></trkpt><trkpt lat="43.8421931" lon="12.4171928"><ele>480.0</ele><time>2026-04-19T13:07:58.692Z</time></trkpt><trkpt lat="43.8422185" lon="12.4170804"><ele>480.0</ele><time>2026-04-19T13:07:59.682Z</time></trkpt><trkpt lat="43.8422671" lon="12.4169849"><ele>480.0</ele><time>2026-04-19T13:08:00.694Z</time></trkpt><trkpt lat="43.8423394" lon="12.4169106"><ele>480.0</ele><time>2026-04-19T13:08:01.69Z</time></trkpt><trkpt lat="43.8424343" lon="12.4168589"><ele>480.0</ele><time>2026-04-19T13:08:02.69Z</time></trkpt><trkpt lat="43.8425416" lon="12.4168493"><ele>476.0</ele><time>2026-04-19T13:08:03.684Z</time></trkpt><trkpt lat="43.8426566" lon="12.4168501"><ele>472.0</ele><time>2026-04-19T13:08:04.682Z</time></trkpt><trkpt lat="43.8427689" lon="12.4168298"><ele>468.0</ele><time>2026-04-19T13:08:05.687Z</time></trkpt><trkpt lat="43.842882" lon="12.4168147"><ele>464.0</ele><time>2026-04-19T13:08:06.685Z</time></trkpt><trkpt lat="43.8429908" lon="12.4168083"><ele>464.0</ele><time>2026-04-19T13:08:07.683Z</time></trkpt><trkpt lat="43.8430953" lon="12.4168245"><ele>464.0</ele><time>2026-04-19T13:08:08.688Z</time></trkpt><trkpt lat="43.8431895" lon="12.4168654"><ele>464.0</ele><time>2026-04-19T13:08:09.707Z</time></trkpt><trkpt lat="43.8432775" lon="12.4169564"><ele>464.0</ele><time>2026-04-19T13:08:10.694Z</time></trkpt><trkpt lat="43.8433566" lon="12.4170727"><ele>464.0</ele><time>2026-04-19T13:08:11.691Z</time></trkpt><trkpt lat="43.8434344" lon="12.4171796"><ele>462.2</ele><time>2026-04-19T13:08:12.687Z</time></trkpt><trkpt lat="43.8435111" lon="12.4172719"><ele>460.4</ele><time>2026-04-19T13:08:13.685Z</time></trkpt><trkpt lat="43.8435935" lon="12.4173241"><ele>458.6</ele><time>2026-04-19T13:08:14.69Z</time></trkpt><trkpt lat="43.8436833" lon="12.4173311"><ele>456.8</ele><time>2026-04-19T13:08:15.688Z</time></trkpt><trkpt lat="43.8437718" lon="12.4172882"><ele>455.0</ele><time>2026-04-19T13:08:16.692Z</time></trkpt><trkpt lat="43.8438653" lon="12.417216"><ele>454.66666666666663</ele><time>2026-04-19T13:08:17.686Z</time></trkpt><trkpt lat="43.8439883" lon="12.4171189"><ele>454.33333333333337</ele><time>2026-04-19T13:08:18.682Z</time></trkpt><trkpt lat="43.8441328" lon="12.4170152"><ele>454.0</ele><time>2026-04-19T13:08:19.681Z</time></trkpt><trkpt lat="43.8443057" lon="12.4168928"><ele>456.33333333333337</ele><time>2026-04-19T13:08:20.684Z</time></trkpt><trkpt lat="43.8445006" lon="12.4167908"><ele>458.66666666666663</ele><time>2026-04-19T13:08:21.693Z</time></trkpt><trkpt lat="43.8446954" lon="12.4166901"><ele>461.0</ele><time>2026-04-19T13:08:22.694Z</time></trkpt><trkpt lat="43.8448851" lon="12.4165925"><ele>461.0</ele><time>2026-04-19T13:08:23.696Z</time></trkpt><trkpt lat="43.8450665" lon="12.4164914"><ele>461.0</ele><time>2026-04-19T13:08:24.703Z</time></trkpt><trkpt lat="43.8452063" lon="12.416426"><ele>461.0</ele><time>2026-04-19T13:08:25.698Z</time></trkpt><trkpt lat="43.8453392" lon="12.4164208"><ele>465.0</ele><time>2026-04-19T13:08:26.697Z</time></trkpt><trkpt lat="43.8454441" lon="12.4164957"><ele>469.0</ele><time>2026-04-19T13:08:27.698Z</time></trkpt><trkpt lat="43.845519" lon="12.4166275"><ele>473.0</ele><time>2026-04-19T13:08:28.696Z</time></trkpt><trkpt lat="43.8455833" lon="12.4168039"><ele>477.0</ele><time>2026-04-19T13:08:29.692Z</time></trkpt><trkpt lat="43.845616" lon="12.4169971"><ele>477.0</ele><time>2026-04-19T13:08:30.699Z</time></trkpt><trkpt lat="43.8456676" lon="12.4172166"><ele>477.0</ele><time>2026-04-19T13:08:31.679Z</time></trkpt><trkpt lat="43.8457039" lon="12.4174588"><ele>477.0</ele><time>2026-04-19T13:08:32.687Z</time></trkpt><trkpt lat="43.8457475" lon="12.4177136"><ele>477.0</ele><time>2026-04-19T13:08:33.683Z</time></trkpt><trkpt lat="43.8457841" lon="12.417964"><ele>477.0</ele><time>2026-04-19T13:08:34.679Z</time></trkpt><trkpt lat="43.8458317" lon="12.4182138"><ele>477.0</ele><time>2026-04-19T13:08:35.677Z</time></trkpt><trkpt lat="43.8458824" lon="12.4184291"><ele>476.40000000000003</ele><time>2026-04-19T13:08:36.682Z</time></trkpt><trkpt lat="43.8459465" lon="12.4186105"><ele>475.80000000000007</ele><time>2026-04-19T13:08:37.68Z</time></trkpt><trkpt lat="43.8460142" lon="12.4187097"><ele>475.2</ele><time>2026-04-19T13:08:38.682Z</time></trkpt><trkpt lat="43.8460776" lon="12.4187566"><ele>474.6</ele><time>2026-04-19T13:08:41.687Z</time></trkpt><trkpt lat="43.8461364" lon="12.4186336"><ele>474.0</ele><time>2026-04-19T13:08:44.686Z</time></trkpt><trkpt lat="43.8462242" lon="12.4185746"><ele>477.1666666666667</ele><time>2026-04-19T13:08:46.692Z</time></trkpt><trkpt lat="43.8463131" lon="12.4185602"><ele>480.33333333333337</ele><time>2026-04-19T13:08:48.685Z</time></trkpt><trkpt lat="43.8464248" lon="12.4185805"><ele>483.5</ele><time>2026-04-19T13:08:50.682Z</time></trkpt><trkpt lat="43.8464865" lon="12.4186073"><ele>486.6666666666667</ele><time>2026-04-19T13:08:51.685Z</time></trkpt><trkpt lat="43.8465481" lon="12.4186408"><ele>489.83333333333337</ele><time>2026-04-19T13:08:52.688Z</time></trkpt><trkpt lat="43.8466098" lon="12.4186673"><ele>493.0</ele><time>2026-04-19T13:08:53.678Z</time></trkpt><trkpt lat="43.8466725" lon="12.4186933"><ele>494.33333333333337</ele><time>2026-04-19T13:08:54.683Z</time></trkpt><trkpt lat="43.8468015" lon="12.4187194"><ele>495.6666666666667</ele><time>2026-04-19T13:08:56.684Z</time></trkpt><trkpt lat="43.8468695" lon="12.4187212"><ele>497.0</ele><time>2026-04-19T13:08:57.679Z</time></trkpt><trkpt lat="43.8469392" lon="12.4187054"><ele>498.33333333333337</ele><time>2026-04-19T13:08:58.681Z</time></trkpt><trkpt lat="43.8470079" lon="12.4186878"><ele>499.6666666666667</ele><time>2026-04-19T13:08:59.683Z</time></trkpt><trkpt lat="43.8470799" lon="12.4186682"><ele>501.0</ele><time>2026-04-19T13:09:00.688Z</time></trkpt><trkpt lat="43.8471483" lon="12.4186487"><ele>501.0</ele><time>2026-04-19T13:09:01.684Z</time></trkpt><trkpt lat="43.8472167" lon="12.4186352"><ele>501.0</ele><time>2026-04-19T13:09:02.687Z</time></trkpt><trkpt lat="43.847282" lon="12.4186234"><ele>501.0</ele><time>2026-04-19T13:09:03.687Z</time></trkpt><trkpt lat="43.8473568" lon="12.4185971"><ele>501.0</ele><time>2026-04-19T13:09:04.675Z</time></trkpt><trkpt lat="43.847424" lon="12.418566"><ele>501.0</ele><time>2026-04-19T13:09:05.677Z</time></trkpt><trkpt lat="43.8474957" lon="12.4185182"><ele>501.0</ele><time>2026-04-19T13:09:06.672Z</time></trkpt><trkpt lat="43.8475535" lon="12.4184657"><ele>501.0</ele><time>2026-04-19T13:09:07.677Z</time></trkpt><trkpt lat="43.8476039" lon="12.4184006"><ele>503.8571428571429</ele><time>2026-04-19T13:09:08.677Z</time></trkpt><trkpt lat="43.8476563" lon="12.4183293"><ele>506.71428571428567</ele><time>2026-04-19T13:09:09.681Z</time></trkpt><trkpt lat="43.8477122" lon="12.4182597"><ele>509.57142857142856</ele><time>2026-04-19T13:09:10.678Z</time></trkpt><trkpt lat="43.8477746" lon="12.4182151"><ele>512.4285714285714</ele><time>2026-04-19T13:09:11.699Z</time></trkpt><trkpt lat="43.8478415" lon="12.4182183"><ele>515.2857142857143</ele><time>2026-04-19T13:09:12.685Z</time></trkpt><trkpt lat="43.8479047" lon="12.4182482"><ele>518.1428571428571</ele><time>2026-04-19T13:09:13.684Z</time></trkpt><trkpt lat="43.8479858" lon="12.418311"><ele>521.0</ele><time>2026-04-19T13:09:15.671Z</time></trkpt><trkpt lat="43.8480547" lon="12.4183166"><ele>521.0</ele><time>2026-04-19T13:09:17.692Z</time></trkpt><trkpt lat="43.8480887" lon="12.418178"><ele>521.0</ele><time>2026-04-19T13:09:19.672Z</time></trkpt><trkpt lat="43.848071" lon="12.4180206"><ele>521.0</ele><time>2026-04-19T13:09:21.678Z</time></trkpt><trkpt lat="43.8480467" lon="12.4179326"><ele>521.0</ele><time>2026-04-19T13:09:22.672Z</time></trkpt><trkpt lat="43.8480134" lon="12.4178523"><ele>521.0</ele><time>2026-04-19T13:09:23.674Z</time></trkpt><trkpt lat="43.847966" lon="12.4177841"><ele>521.0</ele><time>2026-04-19T13:09:24.675Z</time></trkpt><trkpt lat="43.8479123" lon="12.4177077"><ele>522.0</ele><time>2026-04-19T13:09:25.677Z</time></trkpt><trkpt lat="43.8478613" lon="12.4176291"><ele>523.0</ele><time>2026-04-19T13:09:26.676Z</time></trkpt><trkpt lat="43.8478111" lon="12.4175755"><ele>524.0</ele><time>2026-04-19T13:09:27.673Z</time></trkpt><trkpt lat="43.8477759" lon="12.4174979"><ele>525.0</ele><time>2026-04-19T13:09:28.674Z</time></trkpt><trkpt lat="43.8477299" lon="12.4173584"><ele>526.0</ele><time>2026-04-19T13:09:30.693Z</time></trkpt><trkpt lat="43.8477116" lon="12.4172217"><ele>527.0</ele><time>2026-04-19T13:09:32.693Z</time></trkpt><trkpt lat="43.8477843" lon="12.4170895"><ele>527.0</ele><time>2026-04-19T13:09:34.693Z</time></trkpt><trkpt lat="43.8478942" lon="12.4169913"><ele>527.0</ele><time>2026-04-19T13:09:36.697Z</time></trkpt><trkpt lat="43.8479662" lon="12.4169486"><ele>527.0</ele><time>2026-04-19T13:09:37.681Z</time></trkpt><trkpt lat="43.8480382" lon="12.4169058"><ele>527.0</ele><time>2026-04-19T13:09:38.676Z</time></trkpt><trkpt lat="43.8481115" lon="12.4168658"><ele>527.0</ele><time>2026-04-19T13:09:39.675Z</time></trkpt><trkpt lat="43.8482003" lon="12.4168104"><ele>527.0</ele><time>2026-04-19T13:09:40.666Z</time></trkpt><trkpt lat="43.8482922" lon="12.4167707"><ele>527.0</ele><time>2026-04-19T13:09:41.67Z</time></trkpt><trkpt lat="43.8483855" lon="12.4167224"><ele>527.0</ele><time>2026-04-19T13:09:42.691Z</time></trkpt><trkpt lat="43.8484719" lon="12.4166783"><ele>527.0</ele><time>2026-04-19T13:09:43.677Z</time></trkpt><trkpt lat="43.8485367" lon="12.4166178"><ele>527.0</ele><time>2026-04-19T13:09:44.674Z</time></trkpt><trkpt lat="43.8485992" lon="12.4165617"><ele>527.0</ele><time>2026-04-19T13:09:45.682Z</time></trkpt><trkpt lat="43.8486564" lon="12.4165033"><ele>528.2</ele><time>2026-04-19T13:09:46.678Z</time></trkpt><trkpt lat="43.8487253" lon="12.4164355"><ele>529.4000000000001</ele><time>2026-04-19T13:09:47.683Z</time></trkpt><trkpt lat="43.8487923" lon="12.4163432"><ele>530.5999999999999</ele><time>2026-04-19T13:09:48.687Z</time></trkpt><trkpt lat="43.8488553" lon="12.416251"><ele>531.8</ele><time>2026-04-19T13:09:49.684Z</time></trkpt><trkpt lat="43.8489202" lon="12.4161571"><ele>533.0</ele><time>2026-04-19T13:09:50.684Z</time></trkpt><trkpt lat="43.8489853" lon="12.4160485"><ele>530.1999999999999</ele><time>2026-04-19T13:09:51.683Z</time></trkpt><trkpt lat="43.8490483" lon="12.4159263"><ele>527.4</ele><time>2026-04-19T13:09:52.684Z</time></trkpt><trkpt lat="43.8491088" lon="12.4157954"><ele>524.5999999999999</ele><time>2026-04-19T13:09:53.682Z</time></trkpt><trkpt lat="43.8491694" lon="12.4156719"><ele>521.8</ele><time>2026-04-19T13:09:54.68Z</time></trkpt><trkpt lat="43.8492216" lon="12.4155421"><ele>519.0</ele><time>2026-04-19T13:09:55.684Z</time></trkpt><trkpt lat="43.8492755" lon="12.4154118"><ele>520.8</ele><time>2026-04-19T13:09:56.679Z</time></trkpt><trkpt lat="43.8493094" lon="12.4152822"><ele>522.5999999999999</ele><time>2026-04-19T13:09:57.688Z</time></trkpt><trkpt lat="43.8493387" lon="12.4151705"><ele>524.4</ele><time>2026-04-19T13:09:58.684Z</time></trkpt><trkpt lat="43.8493567" lon="12.4150677"><ele>526.1999999999999</ele><time>2026-04-19T13:09:59.686Z</time></trkpt><trkpt lat="43.8493993" lon="12.4149812"><ele>528.0</ele><time>2026-04-19T13:10:01.687Z</time></trkpt><trkpt lat="43.8495114" lon="12.4150282"><ele>528.0</ele><time>2026-04-19T13:10:03.697Z</time></trkpt><trkpt lat="43.8495794" lon="12.4150739"><ele>528.0</ele><time>2026-04-19T13:10:04.68Z</time></trkpt><trkpt lat="43.8496493" lon="12.4150907"><ele>528.0</ele><time>2026-04-19T13:10:05.694Z</time></trkpt><trkpt lat="43.8497303" lon="12.4150524"><ele>528.0</ele><time>2026-04-19T13:10:06.678Z</time></trkpt><trkpt lat="43.8498048" lon="12.4149617"><ele>528.0</ele><time>2026-04-19T13:10:07.684Z</time></trkpt><trkpt lat="43.8498508" lon="12.4148378"><ele>528.0</ele><time>2026-04-19T13:10:08.685Z</time></trkpt><trkpt lat="43.8498668" lon="12.4147007"><ele>528.4</ele><time>2026-04-19T13:10:09.684Z</time></trkpt><trkpt lat="43.8498434" lon="12.4145649"><ele>528.8</ele><time>2026-04-19T13:10:10.679Z</time></trkpt><trkpt lat="43.8497962" lon="12.4144458"><ele>529.2</ele><time>2026-04-19T13:10:11.683Z</time></trkpt><trkpt lat="43.8497066" lon="12.414351"><ele>529.6</ele><time>2026-04-19T13:10:12.683Z</time></trkpt><trkpt lat="43.8495901" lon="12.4143093"><ele>530.0</ele><time>2026-04-19T13:10:13.709Z</time></trkpt><trkpt lat="43.849434" lon="12.4142907"><ele>528.75</ele><time>2026-04-19T13:10:14.676Z</time></trkpt><trkpt lat="43.8492835" lon="12.4142559"><ele>527.5</ele><time>2026-04-19T13:10:15.678Z</time></trkpt><trkpt lat="43.849155" lon="12.4142041"><ele>526.25</ele><time>2026-04-19T13:10:16.691Z</time></trkpt><trkpt lat="43.8490579" lon="12.4141089"><ele>525.0</ele><time>2026-04-19T13:10:17.688Z</time></trkpt><trkpt lat="43.8489898" lon="12.4139741"><ele>525.25</ele><time>2026-04-19T13:10:18.692Z</time></trkpt><trkpt lat="43.8489623" lon="12.4138158"><ele>525.5</ele><time>2026-04-19T13:10:19.689Z</time></trkpt><trkpt lat="43.8489738" lon="12.4136502"><ele>525.75</ele><time>2026-04-19T13:10:20.69Z</time></trkpt><trkpt lat="43.8490148" lon="12.4134903"><ele>526.0</ele><time>2026-04-19T13:10:21.682Z</time></trkpt><trkpt lat="43.8490714" lon="12.4133417"><ele>526.0</ele><time>2026-04-19T13:10:22.69Z</time></trkpt><trkpt lat="43.8491597" lon="12.4132306"><ele>526.0</ele><time>2026-04-19T13:10:23.69Z</time></trkpt><trkpt lat="43.8492903" lon="12.4131588"><ele>526.0</ele><time>2026-04-19T13:10:24.679Z</time></trkpt><trkpt lat="43.8494338" lon="12.4131162"><ele>526.0</ele><time>2026-04-19T13:10:25.67Z</time></trkpt><trkpt lat="43.8495948" lon="12.4130844"><ele>528.6666666666667</ele><time>2026-04-19T13:10:26.684Z</time></trkpt><trkpt lat="43.8497654" lon="12.4130602"><ele>531.3333333333334</ele><time>2026-04-19T13:10:27.687Z</time></trkpt><trkpt lat="43.8499394" lon="12.4130331"><ele>534.0</ele><time>2026-04-19T13:10:28.688Z</time></trkpt><trkpt lat="43.8501252" lon="12.4130005"><ele>535.6666666666666</ele><time>2026-04-19T13:10:29.691Z</time></trkpt><trkpt lat="43.850308" lon="12.412964"><ele>537.3333333333333</ele><time>2026-04-19T13:10:30.692Z</time></trkpt><trkpt lat="43.850476" lon="12.4129332"><ele>539.0</ele><time>2026-04-19T13:10:31.692Z</time></trkpt><trkpt lat="43.8506204" lon="12.4129725"><ele>539.3333333333333</ele><time>2026-04-19T13:10:32.695Z</time></trkpt><trkpt lat="43.8507491" lon="12.41304"><ele>539.6666666666666</ele><time>2026-04-19T13:10:33.692Z</time></trkpt><trkpt lat="43.850877" lon="12.4131632"><ele>540.0</ele><time>2026-04-19T13:10:34.695Z</time></trkpt><trkpt lat="43.8509932" lon="12.4133214"><ele>542.0</ele><time>2026-04-19T13:10:35.689Z</time></trkpt><trkpt lat="43.8510901" lon="12.4135052"><ele>544.0</ele><time>2026-04-19T13:10:36.681Z</time></trkpt><trkpt lat="43.8512294" lon="12.4136839"><ele>546.0</ele><time>2026-04-19T13:10:37.68Z</time></trkpt><trkpt lat="43.8513624" lon="12.4138537"><ele>546.0</ele><time>2026-04-19T13:10:38.678Z</time></trkpt><trkpt lat="43.8514879" lon="12.4140149"><ele>546.0</ele><time>2026-04-19T13:10:39.687Z</time></trkpt><trkpt lat="43.8515751" lon="12.4141761"><ele>546.0</ele><time>2026-04-19T13:10:40.679Z</time></trkpt><trkpt lat="43.8516347" lon="12.4143375"><ele>546.0</ele><time>2026-04-19T13:10:41.694Z</time></trkpt><trkpt lat="43.8516111" lon="12.4145161"><ele>547.0</ele><time>2026-04-19T13:10:42.682Z</time></trkpt><trkpt lat="43.8515789" lon="12.4147173"><ele>548.0</ele><time>2026-04-19T13:10:43.699Z</time></trkpt><trkpt lat="43.8515275" lon="12.414919"><ele>549.0</ele><time>2026-04-19T13:10:44.68Z</time></trkpt><trkpt lat="43.8514911" lon="12.4151508"><ele>549.0</ele><time>2026-04-19T13:10:45.687Z</time></trkpt><trkpt lat="43.8514652" lon="12.4153879"><ele>549.0</ele><time>2026-04-19T13:10:46.687Z</time></trkpt><trkpt lat="43.8514253" lon="12.4156217"><ele>549.0</ele><time>2026-04-19T13:10:47.686Z</time></trkpt><trkpt lat="43.8513506" lon="12.4158308"><ele>551.25</ele><time>2026-04-19T13:10:48.693Z</time></trkpt><trkpt lat="43.851284" lon="12.4160096"><ele>553.5</ele><time>2026-04-19T13:10:49.678Z</time></trkpt><trkpt lat="43.8512359" lon="12.416168"><ele>555.75</ele><time>2026-04-19T13:10:50.683Z</time></trkpt><trkpt lat="43.8511977" lon="12.4163246"><ele>558.0</ele><time>2026-04-19T13:10:51.684Z</time></trkpt><trkpt lat="43.8511944" lon="12.4164924"><ele>559.4</ele><time>2026-04-19T13:10:52.682Z</time></trkpt><trkpt lat="43.8512134" lon="12.4166412"><ele>560.8</ele><time>2026-04-19T13:10:53.686Z</time></trkpt><trkpt lat="43.8512418" lon="12.4167931"><ele>562.2</ele><time>2026-04-19T13:10:54.687Z</time></trkpt><trkpt lat="43.8512702" lon="12.416943"><ele>563.6</ele><time>2026-04-19T13:10:55.68Z</time></trkpt><trkpt lat="43.8512655" lon="12.4170925"><ele>565.0</ele><time>2026-04-19T13:10:56.681Z</time></trkpt><trkpt lat="43.8512319" lon="12.4172447"><ele>563.75</ele><time>2026-04-19T13:10:57.681Z</time></trkpt><trkpt lat="43.8511831" lon="12.4173979"><ele>562.5</ele><time>2026-04-19T13:10:58.678Z</time></trkpt><trkpt lat="43.8511196" lon="12.4175484"><ele>561.25</ele><time>2026-04-19T13:10:59.685Z</time></trkpt><trkpt lat="43.8510306" lon="12.4176939"><ele>560.0</ele><time>2026-04-19T13:11:00.696Z</time></trkpt><trkpt lat="43.8509165" lon="12.4178349"><ele>560.0</ele><time>2026-04-19T13:11:01.682Z</time></trkpt><trkpt lat="43.8507884" lon="12.4179675"><ele>560.0</ele><time>2026-04-19T13:11:02.681Z</time></trkpt><trkpt lat="43.8506416" lon="12.4181153"><ele>560.0</ele><time>2026-04-19T13:11:03.683Z</time></trkpt><trkpt lat="43.8505044" lon="12.4182712"><ele>561.8</ele><time>2026-04-19T13:11:04.675Z</time></trkpt><trkpt lat="43.8504049" lon="12.4183847"><ele>563.6</ele><time>2026-04-19T13:11:05.684Z</time></trkpt><trkpt lat="43.8502974" lon="12.4184284"><ele>565.4</ele><time>2026-04-19T13:11:06.687Z</time></trkpt><trkpt lat="43.85021" lon="12.4184332"><ele>567.2</ele><time>2026-04-19T13:11:07.681Z</time></trkpt><trkpt lat="43.850107" lon="12.4184831"><ele>569.0</ele><time>2026-04-19T13:11:09.68Z</time></trkpt><trkpt lat="43.8500581" lon="12.4185579"><ele>569.0</ele><time>2026-04-19T13:11:11.697Z</time></trkpt><trkpt lat="43.8500681" lon="12.4186724"><ele>569.0</ele><time>2026-04-19T13:11:13.703Z</time></trkpt><trkpt lat="43.8501627" lon="12.4187742"><ele>569.0</ele><time>2026-04-19T13:11:15.685Z</time></trkpt><trkpt lat="43.8502258" lon="12.4188323"><ele>569.0</ele><time>2026-04-19T13:11:16.689Z</time></trkpt><trkpt lat="43.8503056" lon="12.418899"><ele>569.0</ele><time>2026-04-19T13:11:17.694Z</time></trkpt><trkpt lat="43.8504025" lon="12.4189798"><ele>572.5</ele><time>2026-04-19T13:11:18.695Z</time></trkpt><trkpt lat="43.8504965" lon="12.4190779"><ele>576.0</ele><time>2026-04-19T13:11:19.691Z</time></trkpt><trkpt lat="43.8505862" lon="12.4191975"><ele>579.5</ele><time>2026-04-19T13:11:20.694Z</time></trkpt><trkpt lat="43.8506757" lon="12.4193322"><ele>583.0</ele><time>2026-04-19T13:11:21.692Z</time></trkpt><trkpt lat="43.8507794" lon="12.4194654"><ele>583.0</ele><time>2026-04-19T13:11:22.687Z</time></trkpt><trkpt lat="43.850867" lon="12.4195879"><ele>583.0</ele><time>2026-04-19T13:11:23.686Z</time></trkpt><trkpt lat="43.8509466" lon="12.4197188"><ele>583.0</ele><time>2026-04-19T13:11:24.682Z</time></trkpt><trkpt lat="43.8510183" lon="12.4198674"><ele>583.0</ele><time>2026-04-19T13:11:25.686Z</time></trkpt><trkpt lat="43.8510689" lon="12.4200387"><ele>589.0</ele><time>2026-04-19T13:11:26.68Z</time></trkpt><trkpt lat="43.8510995" lon="12.420228"><ele>595.0</ele><time>2026-04-19T13:11:27.673Z</time></trkpt><trkpt lat="43.8511232" lon="12.4204226"><ele>601.0</ele><time>2026-04-19T13:11:28.671Z</time></trkpt><trkpt lat="43.851128" lon="12.4206295"><ele>607.0</ele><time>2026-04-19T13:11:29.679Z</time></trkpt><trkpt lat="43.8511599" lon="12.420829"><ele>607.0</ele><time>2026-04-19T13:11:30.675Z</time></trkpt><trkpt lat="43.8511963" lon="12.4210189"><ele>607.0</ele><time>2026-04-19T13:11:31.684Z</time></trkpt><trkpt lat="43.8512354" lon="12.4212023"><ele>607.0</ele><time>2026-04-19T13:11:32.685Z</time></trkpt><trkpt lat="43.8512452" lon="12.4213964"><ele>607.0</ele><time>2026-04-19T13:11:33.686Z</time></trkpt><trkpt lat="43.8512345" lon="12.421601"><ele>603.0</ele><time>2026-04-19T13:11:34.685Z</time></trkpt><trkpt lat="43.8512124" lon="12.4218193"><ele>599.0</ele><time>2026-04-19T13:11:35.685Z</time></trkpt><trkpt lat="43.8511717" lon="12.422031"><ele>595.0</ele><time>2026-04-19T13:11:36.69Z</time></trkpt><trkpt lat="43.8511073" lon="12.4222216"><ele>595.0</ele><time>2026-04-19T13:11:37.685Z</time></trkpt><trkpt lat="43.8510559" lon="12.4223696"><ele>595.0</ele><time>2026-04-19T13:11:38.691Z</time></trkpt><trkpt lat="43.8510387" lon="12.4224924"><ele>595.0</ele><time>2026-04-19T13:11:39.69Z</time></trkpt><trkpt lat="43.8510782" lon="12.4225949"><ele>595.0</ele><time>2026-04-19T13:11:40.685Z</time></trkpt><trkpt lat="43.8511644" lon="12.4226786"><ele>595.0</ele><time>2026-04-19T13:11:41.685Z</time></trkpt><trkpt lat="43.8513026" lon="12.422749"><ele>595.0</ele><time>2026-04-19T13:11:42.681Z</time></trkpt><trkpt lat="43.8514332" lon="12.4228057"><ele>595.0</ele><time>2026-04-19T13:11:43.683Z</time></trkpt><trkpt lat="43.8515668" lon="12.4228664"><ele>595.0</ele><time>2026-04-19T13:11:44.687Z</time></trkpt><trkpt lat="43.8517049" lon="12.4229287"><ele>595.0</ele><time>2026-04-19T13:11:45.704Z</time></trkpt><trkpt lat="43.8518512" lon="12.4229906"><ele>600.0</ele><time>2026-04-19T13:11:46.694Z</time></trkpt><trkpt lat="43.851985" lon="12.4230382"><ele>605.0</ele><time>2026-04-19T13:11:47.695Z</time></trkpt><trkpt lat="43.8521104" lon="12.4230792"><ele>610.0</ele><time>2026-04-19T13:11:48.686Z</time></trkpt><trkpt lat="43.8522329" lon="12.4231072"><ele>615.0</ele><time>2026-04-19T13:11:49.682Z</time></trkpt><trkpt lat="43.8523356" lon="12.4231502"><ele>615.0</ele><time>2026-04-19T13:11:50.681Z</time></trkpt><trkpt lat="43.852409" lon="12.4232091"><ele>615.0</ele><time>2026-04-19T13:11:51.682Z</time></trkpt><trkpt lat="43.8524489" lon="12.4232999"><ele>615.0</ele><time>2026-04-19T13:11:52.677Z</time></trkpt><trkpt lat="43.8524502" lon="12.4234082"><ele>615.0</ele><time>2026-04-19T13:11:53.676Z</time></trkpt><trkpt lat="43.8524548" lon="12.4235138"><ele>615.0</ele><time>2026-04-19T13:11:54.673Z</time></trkpt><trkpt lat="43.8524504" lon="12.4236289"><ele>615.0</ele><time>2026-04-19T13:11:55.681Z</time></trkpt><trkpt lat="43.8524519" lon="12.4237383"><ele>614.1666666666666</ele><time>2026-04-19T13:11:56.676Z</time></trkpt><trkpt lat="43.8524609" lon="12.4238504"><ele>613.3333333333334</ele><time>2026-04-19T13:11:57.691Z</time></trkpt><trkpt lat="43.8525011" lon="12.4239307"><ele>612.5</ele><time>2026-04-19T13:11:58.686Z</time></trkpt><trkpt lat="43.852605" lon="12.4240195"><ele>611.6666666666667</ele><time>2026-04-19T13:12:00.693Z</time></trkpt><trkpt lat="43.8526965" lon="12.4240708"><ele>610.8333333333334</ele><time>2026-04-19T13:12:02.692Z</time></trkpt><trkpt lat="43.8527549" lon="12.4241186"><ele>610.0</ele><time>2026-04-19T13:12:06.696Z</time></trkpt><trkpt lat="43.8526957" lon="12.4240574"><ele>610.0</ele><time>2026-04-19T13:12:17.713Z</time></trkpt><trkpt lat="43.8525799" lon="12.4239654"><ele>610.0</ele><time>2026-04-19T13:12:19.693Z</time></trkpt><trkpt lat="43.852506" lon="12.4239096"><ele>610.0</ele><time>2026-04-19T13:12:20.689Z</time></trkpt><trkpt lat="43.8524409" lon="12.423859"><ele>610.0</ele><time>2026-04-19T13:12:21.691Z</time></trkpt><trkpt lat="43.8523902" lon="12.4238001"><ele>610.0</ele><time>2026-04-19T13:12:22.686Z</time></trkpt><trkpt lat="43.852352" lon="12.4237286"><ele>610.0</ele><time>2026-04-19T13:12:23.681Z</time></trkpt><trkpt lat="43.852321" lon="12.4236511"><ele>610.8333333333334</ele><time>2026-04-19T13:12:24.688Z</time></trkpt><trkpt lat="43.8523103" lon="12.4235419"><ele>611.6666666666667</ele><time>2026-04-19T13:12:25.692Z</time></trkpt><trkpt lat="43.8523066" lon="12.4234236"><ele>612.5</ele><time>2026-04-19T13:12:26.684Z</time></trkpt><trkpt lat="43.8523094" lon="12.4233258"><ele>613.3333333333334</ele><time>2026-04-19T13:12:27.689Z</time></trkpt><trkpt lat="43.8523195" lon="12.4232315"><ele>614.1666666666666</ele><time>2026-04-19T13:12:29.688Z</time></trkpt><trkpt lat="43.8523924" lon="12.4230961"><ele>615.0</ele><time>2026-04-19T13:12:55.698Z</time></trkpt><trkpt lat="43.8524352" lon="12.4230128"><ele>614.2</ele><time>2026-04-19T13:12:56.685Z</time></trkpt><trkpt lat="43.8524807" lon="12.4229242"><ele>613.4</ele><time>2026-04-19T13:12:57.685Z</time></trkpt><trkpt lat="43.8525326" lon="12.4228175"><ele>612.6</ele><time>2026-04-19T13:12:58.686Z</time></trkpt><trkpt lat="43.8525925" lon="12.4226943"><ele>611.8</ele><time>2026-04-19T13:12:59.69Z</time></trkpt><trkpt lat="43.8526501" lon="12.4225717"><ele>611.0</ele><time>2026-04-19T13:13:00.693Z</time></trkpt><trkpt lat="43.8527032" lon="12.4224388"><ele>615.2</ele><time>2026-04-19T13:13:01.687Z</time></trkpt><trkpt lat="43.8527475" lon="12.4222979"><ele>619.4000000000001</ele><time>2026-04-19T13:13:02.689Z</time></trkpt><trkpt lat="43.8527928" lon="12.4221484"><ele>623.6</ele><time>2026-04-19T13:13:03.686Z</time></trkpt><trkpt lat="43.8528323" lon="12.4220031"><ele>627.8000000000001</ele><time>2026-04-19T13:13:04.694Z</time></trkpt><trkpt lat="43.8528706" lon="12.4218606"><ele>632.0</ele><time>2026-04-19T13:13:05.692Z</time></trkpt><trkpt lat="43.8529116" lon="12.4217253"><ele>633.2</ele><time>2026-04-19T13:13:06.687Z</time></trkpt><trkpt lat="43.8529484" lon="12.4215921"><ele>634.4000000000001</ele><time>2026-04-19T13:13:07.687Z</time></trkpt><trkpt lat="43.8529722" lon="12.4214638"><ele>635.5999999999999</ele><time>2026-04-19T13:13:08.685Z</time></trkpt><trkpt lat="43.8529802" lon="12.4213443"><ele>636.8</ele><time>2026-04-19T13:13:09.679Z</time></trkpt><trkpt lat="43.8529864" lon="12.421228"><ele>638.0</ele><time>2026-04-19T13:13:10.689Z</time></trkpt><trkpt lat="43.8529749" lon="12.4210719"><ele>638.0</ele><time>2026-04-19T13:13:12.679Z</time></trkpt><trkpt lat="43.8529951" lon="12.4209872"><ele>638.0</ele><time>2026-04-19T13:13:13.678Z</time></trkpt><trkpt lat="43.8530394" lon="12.4208944"><ele>638.0</ele><time>2026-04-19T13:13:14.675Z</time></trkpt><trkpt lat="43.853101" lon="12.4207973"><ele>638.0</ele><time>2026-04-19T13:13:15.681Z</time></trkpt><trkpt lat="43.8531762" lon="12.4207032"><ele>638.0</ele><time>2026-04-19T13:13:16.684Z</time></trkpt><trkpt lat="43.8532587" lon="12.4206154"><ele>638.0</ele><time>2026-04-19T13:13:17.67Z</time></trkpt><trkpt lat="43.85336" lon="12.420538"><ele>638.5</ele><time>2026-04-19T13:13:18.69Z</time></trkpt><trkpt lat="43.8534693" lon="12.4204558"><ele>639.0</ele><time>2026-04-19T13:13:19.674Z</time></trkpt><trkpt lat="43.8535829" lon="12.4203637"><ele>639.5</ele><time>2026-04-19T13:13:20.671Z</time></trkpt><trkpt lat="43.8537" lon="12.420266"><ele>640.0</ele><time>2026-04-19T13:13:21.675Z</time></trkpt><trkpt lat="43.8538176" lon="12.4201621"><ele>640.0</ele><time>2026-04-19T13:13:22.682Z</time></trkpt><trkpt lat="43.8539341" lon="12.4200647"><ele>640.0</ele><time>2026-04-19T13:13:23.663Z</time></trkpt><trkpt lat="43.8540464" lon="12.4199711"><ele>640.0</ele><time>2026-04-19T13:13:24.681Z</time></trkpt><trkpt lat="43.8541532" lon="12.4198819"><ele>640.0</ele><time>2026-04-19T13:13:25.668Z</time></trkpt><trkpt lat="43.8542504" lon="12.4198093"><ele>638.6</ele><time>2026-04-19T13:13:26.679Z</time></trkpt><trkpt lat="43.8543508" lon="12.4197612"><ele>637.2</ele><time>2026-04-19T13:13:27.673Z</time></trkpt><trkpt lat="43.8544438" lon="12.4197313"><ele>635.8</ele><time>2026-04-19T13:13:28.67Z</time></trkpt><trkpt lat="43.8545324" lon="12.4197225"><ele>634.4</ele><time>2026-04-19T13:13:29.671Z</time></trkpt><trkpt lat="43.85462" lon="12.4196808"><ele>633.0</ele><time>2026-04-19T13:13:30.682Z</time></trkpt><trkpt lat="43.8547046" lon="12.4196038"><ele>633.0</ele><time>2026-04-19T13:13:31.668Z</time></trkpt><trkpt lat="43.8547831" lon="12.4195299"><ele>633.0</ele><time>2026-04-19T13:13:32.667Z</time></trkpt><trkpt lat="43.8548656" lon="12.4194798"><ele>633.0</ele><time>2026-04-19T13:13:33.672Z</time></trkpt><trkpt lat="43.8549503" lon="12.4194784"><ele>633.0</ele><time>2026-04-19T13:13:34.668Z</time></trkpt><trkpt lat="43.85503" lon="12.4194846"><ele>633.0</ele><time>2026-04-19T13:13:35.674Z</time></trkpt><trkpt lat="43.8551208" lon="12.4194665"><ele>633.0</ele><time>2026-04-19T13:13:36.685Z</time></trkpt><trkpt lat="43.855227" lon="12.4194168"><ele>634.0</ele><time>2026-04-19T13:13:37.675Z</time></trkpt><trkpt lat="43.8553276" lon="12.4193566"><ele>635.0</ele><time>2026-04-19T13:13:38.685Z</time></trkpt><trkpt lat="43.8554299" lon="12.4193113"><ele>636.0</ele><time>2026-04-19T13:13:39.683Z</time></trkpt><trkpt lat="43.855524" lon="12.4192676"><ele>637.0</ele><time>2026-04-19T13:13:40.685Z</time></trkpt><trkpt lat="43.8556123" lon="12.4192321"><ele>638.0</ele><time>2026-04-19T13:13:41.682Z</time></trkpt><trkpt lat="43.8557029" lon="12.4191829"><ele>638.0</ele><time>2026-04-19T13:13:42.681Z</time></trkpt><trkpt lat="43.8557864" lon="12.419111"><ele>638.0</ele><time>2026-04-19T13:13:43.691Z</time></trkpt><trkpt lat="43.8558478" lon="12.4190034"><ele>638.0</ele><time>2026-04-19T13:13:44.687Z</time></trkpt><trkpt lat="43.8559041" lon="12.4189119"><ele>638.0</ele><time>2026-04-19T13:13:45.682Z</time></trkpt><trkpt lat="43.8559717" lon="12.4188387"><ele>638.0</ele><time>2026-04-19T13:13:46.686Z</time></trkpt><trkpt lat="43.8560571" lon="12.4187736"><ele>638.5</ele><time>2026-04-19T13:13:47.681Z</time></trkpt><trkpt lat="43.8561515" lon="12.4187065"><ele>639.0</ele><time>2026-04-19T13:13:48.683Z</time></trkpt><trkpt lat="43.8562606" lon="12.4186314"><ele>639.5</ele><time>2026-04-19T13:13:49.696Z</time></trkpt><trkpt lat="43.85638" lon="12.4185468"><ele>640.0</ele><time>2026-04-19T13:13:50.689Z</time></trkpt><trkpt lat="43.8564906" lon="12.418472"><ele>640.0</ele><time>2026-04-19T13:13:51.693Z</time></trkpt><trkpt lat="43.856594" lon="12.4183962"><ele>640.0</ele><time>2026-04-19T13:13:52.685Z</time></trkpt><trkpt lat="43.8566925" lon="12.418306"><ele>640.0</ele><time>2026-04-19T13:13:53.688Z</time></trkpt><trkpt lat="43.856783" lon="12.4181943"><ele>640.0</ele><time>2026-04-19T13:13:54.685Z</time></trkpt><trkpt lat="43.8568669" lon="12.4180706"><ele>641.4</ele><time>2026-04-19T13:13:55.691Z</time></trkpt><trkpt lat="43.856922" lon="12.4179287"><ele>642.8</ele><time>2026-04-19T13:13:56.689Z</time></trkpt><trkpt lat="43.8569382" lon="12.4177822"><ele>644.2</ele><time>2026-04-19T13:13:57.686Z</time></trkpt><trkpt lat="43.8569428" lon="12.4176397"><ele>645.6</ele><time>2026-04-19T13:13:58.685Z</time></trkpt><trkpt lat="43.8569641" lon="12.4174872"><ele>647.0</ele><time>2026-04-19T13:13:59.68Z</time></trkpt><trkpt lat="43.856992" lon="12.4173421"><ele>647.0</ele><time>2026-04-19T13:14:00.685Z</time></trkpt><trkpt lat="43.857041" lon="12.4172164"><ele>647.0</ele><time>2026-04-19T13:14:01.68Z</time></trkpt><trkpt lat="43.8570997" lon="12.4171096"><ele>647.0</ele><time>2026-04-19T13:14:02.675Z</time></trkpt><trkpt lat="43.8571742" lon="12.4170251"><ele>647.0</ele><time>2026-04-19T13:14:03.678Z</time></trkpt><trkpt lat="43.8572541" lon="12.4169257"><ele>647.0</ele><time>2026-04-19T13:14:04.684Z</time></trkpt><trkpt lat="43.8573346" lon="12.4168313"><ele>646.0</ele><time>2026-04-19T13:14:05.681Z</time></trkpt><trkpt lat="43.8574079" lon="12.4167509"><ele>645.0</ele><time>2026-04-19T13:14:06.688Z</time></trkpt><trkpt lat="43.8574547" lon="12.4166606"><ele>644.0</ele><time>2026-04-19T13:14:07.69Z</time></trkpt><trkpt lat="43.8574779" lon="12.4165455"><ele>643.0</ele><time>2026-04-19T13:14:08.685Z</time></trkpt><trkpt lat="43.8575086" lon="12.4164425"><ele>642.0</ele><time>2026-04-19T13:14:09.682Z</time></trkpt><trkpt lat="43.8575499" lon="12.4163664"><ele>641.0</ele><time>2026-04-19T13:14:10.692Z</time></trkpt><trkpt lat="43.8576086" lon="12.4163317"><ele>642.5999999999999</ele><time>2026-04-19T13:14:11.685Z</time></trkpt><trkpt lat="43.8576829" lon="12.4163148"><ele>644.2</ele><time>2026-04-19T13:14:12.685Z</time></trkpt><trkpt lat="43.8577657" lon="12.4163158"><ele>645.8</ele><time>2026-04-19T13:14:13.682Z</time></trkpt><trkpt lat="43.8578481" lon="12.4163376"><ele>647.4000000000001</ele><time>2026-04-19T13:14:14.688Z</time></trkpt><trkpt lat="43.857939" lon="12.4163877"><ele>649.0</ele><time>2026-04-19T13:14:15.685Z</time></trkpt><trkpt lat="43.8580396" lon="12.4164488"><ele>650.4000000000001</ele><time>2026-04-19T13:14:16.688Z</time></trkpt><trkpt lat="43.8581348" lon="12.4165022"><ele>651.8</ele><time>2026-04-19T13:14:17.689Z</time></trkpt><trkpt lat="43.8582309" lon="12.4165307"><ele>653.2</ele><time>2026-04-19T13:14:18.689Z</time></trkpt><trkpt lat="43.8583256" lon="12.4165202"><ele>654.5999999999999</ele><time>2026-04-19T13:14:19.689Z</time></trkpt><trkpt lat="43.8584208" lon="12.416481"><ele>656.0</ele><time>2026-04-19T13:14:20.705Z</time></trkpt><trkpt lat="43.8585195" lon="12.4164294"><ele>655.8</ele><time>2026-04-19T13:14:21.689Z</time></trkpt><trkpt lat="43.8586233" lon="12.4163761"><ele>655.5999999999999</ele><time>2026-04-19T13:14:22.691Z</time></trkpt><trkpt lat="43.8587243" lon="12.4163237"><ele>655.4</ele><time>2026-04-19T13:14:23.688Z</time></trkpt><trkpt lat="43.858822" lon="12.416276"><ele>655.2</ele><time>2026-04-19T13:14:24.69Z</time></trkpt><trkpt lat="43.8589168" lon="12.4162414"><ele>655.0</ele><time>2026-04-19T13:14:25.686Z</time></trkpt><trkpt lat="43.8590216" lon="12.4162169"><ele>655.0</ele><time>2026-04-19T13:14:26.686Z</time></trkpt><trkpt lat="43.8591268" lon="12.4161928"><ele>655.0</ele><time>2026-04-19T13:14:27.691Z</time></trkpt><trkpt lat="43.8592281" lon="12.4161621"><ele>655.0</ele><time>2026-04-19T13:14:28.69Z</time></trkpt><trkpt lat="43.8593275" lon="12.4161152"><ele>655.0</ele><time>2026-04-19T13:14:29.69Z</time></trkpt><trkpt lat="43.8594265" lon="12.4160599"><ele>655.0</ele><time>2026-04-19T13:14:30.691Z</time></trkpt><trkpt lat="43.8595278" lon="12.4160036"><ele>655.6</ele><time>2026-04-19T13:14:31.689Z</time></trkpt><trkpt lat="43.8596311" lon="12.4159436"><ele>656.2</ele><time>2026-04-19T13:14:32.689Z</time></trkpt><trkpt lat="43.8597353" lon="12.4158815"><ele>656.8</ele><time>2026-04-19T13:14:33.689Z</time></trkpt><trkpt lat="43.8598278" lon="12.415823"><ele>657.4</ele><time>2026-04-19T13:14:34.682Z</time></trkpt><trkpt lat="43.8599115" lon="12.4157792"><ele>658.0</ele><time>2026-04-19T13:14:35.676Z</time></trkpt><trkpt lat="43.8599787" lon="12.415743"><ele>658.0</ele><time>2026-04-19T13:14:36.687Z</time></trkpt><trkpt lat="43.8599905" lon="12.4156394"><ele>658.0</ele><time>2026-04-19T13:14:38.69Z</time></trkpt><trkpt lat="43.8599626" lon="12.4155478"><ele>658.0</ele><time>2026-04-19T13:14:39.686Z</time></trkpt><trkpt lat="43.8599346" lon="12.415438"><ele>658.0</ele><time>2026-04-19T13:14:40.686Z</time></trkpt><trkpt lat="43.8599215" lon="12.4153117"><ele>658.0</ele><time>2026-04-19T13:14:41.686Z</time></trkpt><trkpt lat="43.8599101" lon="12.4151759"><ele>658.0</ele><time>2026-04-19T13:14:42.7Z</time></trkpt><trkpt lat="43.8599017" lon="12.4150268"><ele>657.75</ele><time>2026-04-19T13:14:43.694Z</time></trkpt><trkpt lat="43.8598973" lon="12.4148617"><ele>657.5</ele><time>2026-04-19T13:14:44.692Z</time></trkpt><trkpt lat="43.8598948" lon="12.414668"><ele>657.25</ele><time>2026-04-19T13:14:45.693Z</time></trkpt><trkpt lat="43.8598931" lon="12.414461"><ele>657.0</ele><time>2026-04-19T13:14:46.687Z</time></trkpt><trkpt lat="43.8598887" lon="12.4142277"><ele>659.0</ele><time>2026-04-19T13:14:47.69Z</time></trkpt><trkpt lat="43.8598831" lon="12.414"><ele>661.0</ele><time>2026-04-19T13:14:48.689Z</time></trkpt><trkpt lat="43.8598749" lon="12.4137798"><ele>663.0</ele><time>2026-04-19T13:14:49.688Z</time></trkpt><trkpt lat="43.8598733" lon="12.413564"><ele>664.6666666666666</ele><time>2026-04-19T13:14:50.691Z</time></trkpt><trkpt lat="43.8598691" lon="12.4133449"><ele>666.3333333333333</ele><time>2026-04-19T13:14:51.721Z</time></trkpt><trkpt lat="43.8598679" lon="12.4131205"><ele>668.0</ele><time>2026-04-19T13:14:52.698Z</time></trkpt><trkpt lat="43.8598613" lon="12.4129"><ele>669.0</ele><time>2026-04-19T13:14:53.69Z</time></trkpt><trkpt lat="43.8598468" lon="12.4126727"><ele>670.0</ele><time>2026-04-19T13:14:54.694Z</time></trkpt><trkpt lat="43.8598295" lon="12.4124698"><ele>671.0</ele><time>2026-04-19T13:14:55.7Z</time></trkpt><trkpt lat="43.8597888" lon="12.4122893"><ele>672.0</ele><time>2026-04-19T13:14:56.703Z</time></trkpt><trkpt lat="43.8597423" lon="12.4121575"><ele>672.0</ele><time>2026-04-19T13:14:57.702Z</time></trkpt><trkpt lat="43.8596497" lon="12.4120446"><ele>672.0</ele><time>2026-04-19T13:14:58.709Z</time></trkpt><trkpt lat="43.8595384" lon="12.4119693"><ele>672.0</ele><time>2026-04-19T13:14:59.697Z</time></trkpt><trkpt lat="43.859403" lon="12.4118923"><ele>672.0</ele><time>2026-04-19T13:15:00.709Z</time></trkpt><trkpt lat="43.8592783" lon="12.4117971"><ele>673.25</ele><time>2026-04-19T13:15:01.696Z</time></trkpt><trkpt lat="43.8591651" lon="12.4117019"><ele>674.5</ele><time>2026-04-19T13:15:02.699Z</time></trkpt><trkpt lat="43.8590558" lon="12.4116046"><ele>675.75</ele><time>2026-04-19T13:15:03.691Z</time></trkpt><trkpt lat="43.8589635" lon="12.4114988"><ele>677.0</ele><time>2026-04-19T13:15:04.697Z</time></trkpt><trkpt lat="43.8589081" lon="12.4113682"><ele>677.0</ele><time>2026-04-19T13:15:05.699Z</time></trkpt><trkpt lat="43.858874" lon="12.4112328"><ele>677.0</ele><time>2026-04-19T13:15:06.701Z</time></trkpt><trkpt lat="43.8588728" lon="12.4110765"><ele>677.0</ele><time>2026-04-19T13:15:07.702Z</time></trkpt><trkpt lat="43.8589309" lon="12.4109196"><ele>677.0</ele><time>2026-04-19T13:15:08.703Z</time></trkpt><trkpt lat="43.859014" lon="12.4107686"><ele>677.0</ele><time>2026-04-19T13:15:09.702Z</time></trkpt><trkpt lat="43.8590857" lon="12.4106201"><ele>677.0</ele><time>2026-04-19T13:15:10.697Z</time></trkpt><trkpt lat="43.8591553" lon="12.4104605"><ele>677.0</ele><time>2026-04-19T13:15:11.699Z</time></trkpt><trkpt lat="43.8592334" lon="12.4102998"><ele>677.0</ele><time>2026-04-19T13:15:12.697Z</time></trkpt><trkpt lat="43.8593206" lon="12.4101376"><ele>673.5</ele><time>2026-04-19T13:15:13.7Z</time></trkpt><trkpt lat="43.8593999" lon="12.4099715"><ele>670.0</ele><time>2026-04-19T13:15:14.703Z</time></trkpt><trkpt lat="43.8594839" lon="12.4098116"><ele>666.5</ele><time>2026-04-19T13:15:15.701Z</time></trkpt><trkpt lat="43.8595657" lon="12.4096585"><ele>663.0</ele><time>2026-04-19T13:15:16.704Z</time></trkpt><trkpt lat="43.8596393" lon="12.4094988"><ele>662.25</ele><time>2026-04-19T13:15:17.705Z</time></trkpt><trkpt lat="43.8597056" lon="12.4093372"><ele>661.5</ele><time>2026-04-19T13:15:18.704Z</time></trkpt><trkpt lat="43.8597497" lon="12.4091537"><ele>660.75</ele><time>2026-04-19T13:15:19.703Z</time></trkpt><trkpt lat="43.8597584" lon="12.4089756"><ele>660.0</ele><time>2026-04-19T13:15:20.695Z</time></trkpt><trkpt lat="43.8597479" lon="12.408804"><ele>658.75</ele><time>2026-04-19T13:15:21.714Z</time></trkpt><trkpt lat="43.859729" lon="12.4086323"><ele>657.5</ele><time>2026-04-19T13:15:22.697Z</time></trkpt><trkpt lat="43.859686" lon="12.4084595"><ele>656.25</ele><time>2026-04-19T13:15:23.692Z</time></trkpt><trkpt lat="43.8596304" lon="12.4082724"><ele>655.0</ele><time>2026-04-19T13:15:24.697Z</time></trkpt><trkpt lat="43.8595604" lon="12.4080764"><ele>653.0</ele><time>2026-04-19T13:15:25.702Z</time></trkpt><trkpt lat="43.8594995" lon="12.4078754"><ele>651.0</ele><time>2026-04-19T13:15:26.706Z</time></trkpt><trkpt lat="43.8594472" lon="12.4076651"><ele>649.0</ele><time>2026-04-19T13:15:27.694Z</time></trkpt><trkpt lat="43.8593982" lon="12.4074403"><ele>649.0</ele><time>2026-04-19T13:15:28.702Z</time></trkpt><trkpt lat="43.8593425" lon="12.407197"><ele>649.0</ele><time>2026-04-19T13:15:29.703Z</time></trkpt><trkpt lat="43.8592781" lon="12.406963"><ele>649.0</ele><time>2026-04-19T13:15:30.709Z</time></trkpt><trkpt lat="43.8592272" lon="12.4067404"><ele>649.6666666666667</ele><time>2026-04-19T13:15:31.701Z</time></trkpt><trkpt lat="43.8591768" lon="12.4065272"><ele>650.3333333333334</ele><time>2026-04-19T13:15:32.7Z</time></trkpt><trkpt lat="43.8591302" lon="12.4063233"><ele>651.0</ele><time>2026-04-19T13:15:33.701Z</time></trkpt><trkpt lat="43.8590936" lon="12.4061081"><ele>651.0</ele><time>2026-04-19T13:15:34.703Z</time></trkpt><trkpt lat="43.8590789" lon="12.405879"><ele>651.0</ele><time>2026-04-19T13:15:35.699Z</time></trkpt><trkpt lat="43.8590752" lon="12.4056164"><ele>651.0</ele><time>2026-04-19T13:15:36.702Z</time></trkpt><trkpt lat="43.8590723" lon="12.4053529"><ele>651.6666666666666</ele><time>2026-04-19T13:15:37.701Z</time></trkpt><trkpt lat="43.8590714" lon="12.4050803"><ele>652.3333333333333</ele><time>2026-04-19T13:15:38.706Z</time></trkpt><trkpt lat="43.8590724" lon="12.4048067"><ele>653.0</ele><time>2026-04-19T13:15:39.703Z</time></trkpt><trkpt lat="43.85907" lon="12.4045369"><ele>653.0</ele><time>2026-04-19T13:15:40.705Z</time></trkpt><trkpt lat="43.8590627" lon="12.4042847"><ele>653.0</ele><time>2026-04-19T13:15:41.697Z</time></trkpt><trkpt lat="43.8590335" lon="12.4040141"><ele>653.0</ele><time>2026-04-19T13:15:42.702Z</time></trkpt><trkpt lat="43.8590045" lon="12.4037379"><ele>651.6666666666666</ele><time>2026-04-19T13:15:43.706Z</time></trkpt><trkpt lat="43.858971" lon="12.4034791"><ele>650.3333333333334</ele><time>2026-04-19T13:15:44.707Z</time></trkpt><trkpt lat="43.8589411" lon="12.4032188"><ele>649.0</ele><time>2026-04-19T13:15:45.704Z</time></trkpt><trkpt lat="43.8589107" lon="12.4029401"><ele>648.3333333333334</ele><time>2026-04-19T13:15:46.709Z</time></trkpt><trkpt lat="43.8588729" lon="12.4026656"><ele>647.6666666666666</ele><time>2026-04-19T13:15:47.71Z</time></trkpt><trkpt lat="43.8588343" lon="12.4023722"><ele>647.0</ele><time>2026-04-19T13:15:48.711Z</time></trkpt><trkpt lat="43.8587975" lon="12.40207"><ele>646.3333333333333</ele><time>2026-04-19T13:15:49.711Z</time></trkpt><trkpt lat="43.8587641" lon="12.4017843"><ele>645.6666666666666</ele><time>2026-04-19T13:15:50.703Z</time></trkpt><trkpt lat="43.858732" lon="12.4015154"><ele>645.0</ele><time>2026-04-19T13:15:51.708Z</time></trkpt><trkpt lat="43.8586972" lon="12.4012511"><ele>644.6666666666666</ele><time>2026-04-19T13:15:52.723Z</time></trkpt><trkpt lat="43.8586585" lon="12.4009867"><ele>644.3333333333333</ele><time>2026-04-19T13:15:53.706Z</time></trkpt><trkpt lat="43.8586305" lon="12.4007322"><ele>644.0</ele><time>2026-04-19T13:15:54.708Z</time></trkpt><trkpt lat="43.8586046" lon="12.4004898"><ele>644.0</ele><time>2026-04-19T13:15:55.705Z</time></trkpt><trkpt lat="43.8585845" lon="12.4002622"><ele>644.0</ele><time>2026-04-19T13:15:56.705Z</time></trkpt><trkpt lat="43.8585715" lon="12.4000847"><ele>644.0</ele><time>2026-04-19T13:15:57.712Z</time></trkpt><trkpt lat="43.8585646" lon="12.3999422"><ele>644.0</ele><time>2026-04-19T13:15:58.711Z</time></trkpt><trkpt lat="43.8585541" lon="12.3998476"><ele>644.0</ele><time>2026-04-19T13:15:59.706Z</time></trkpt><trkpt lat="43.8585917" lon="12.3997282"><ele>644.0</ele><time>2026-04-19T13:16:01.704Z</time></trkpt><trkpt lat="43.8586693" lon="12.3997108"><ele>644.0</ele><time>2026-04-19T13:16:03.708Z</time></trkpt><trkpt lat="43.8587822" lon="12.3996889"><ele>644.0</ele><time>2026-04-19T13:16:05.697Z</time></trkpt><trkpt lat="43.8588503" lon="12.3996563"><ele>644.0</ele><time>2026-04-19T13:16:06.695Z</time></trkpt><trkpt lat="43.8589268" lon="12.3995934"><ele>644.0</ele><time>2026-04-19T13:16:07.708Z</time></trkpt><trkpt lat="43.8590095" lon="12.3995001"><ele>645.0</ele><time>2026-04-19T13:16:08.702Z</time></trkpt><trkpt lat="43.8590967" lon="12.3994126"><ele>646.0</ele><time>2026-04-19T13:16:09.705Z</time></trkpt><trkpt lat="43.8591833" lon="12.3993272"><ele>647.0</ele><time>2026-04-19T13:16:10.703Z</time></trkpt><trkpt lat="43.8592749" lon="12.3992536"><ele>648.0</ele><time>2026-04-19T13:16:11.699Z</time></trkpt><trkpt lat="43.8593689" lon="12.3991928"><ele>649.0</ele><time>2026-04-19T13:16:12.696Z</time></trkpt><trkpt lat="43.8594696" lon="12.3991455"><ele>646.5</ele><time>2026-04-19T13:16:13.695Z</time></trkpt><trkpt lat="43.8595855" lon="12.3991104"><ele>644.0</ele><time>2026-04-19T13:16:14.702Z</time></trkpt><trkpt lat="43.8597081" lon="12.3990849"><ele>641.5</ele><time>2026-04-19T13:16:15.696Z</time></trkpt><trkpt lat="43.8598376" lon="12.3990591"><ele>639.0</ele><time>2026-04-19T13:16:16.698Z</time></trkpt><trkpt lat="43.8599652" lon="12.3990306"><ele>639.0</ele><time>2026-04-19T13:16:17.694Z</time></trkpt><trkpt lat="43.8600793" lon="12.3989892"><ele>639.0</ele><time>2026-04-19T13:16:18.695Z</time></trkpt><trkpt lat="43.8601844" lon="12.3989401"><ele>639.0</ele><time>2026-04-19T13:16:19.698Z</time></trkpt><trkpt lat="43.8602921" lon="12.3988888"><ele>639.0</ele><time>2026-04-19T13:16:20.699Z</time></trkpt><trkpt lat="43.8603956" lon="12.398836"><ele>639.6</ele><time>2026-04-19T13:16:21.701Z</time></trkpt><trkpt lat="43.8605005" lon="12.398793"><ele>640.2</ele><time>2026-04-19T13:16:22.704Z</time></trkpt><trkpt lat="43.8605991" lon="12.3987589"><ele>640.8000000000001</ele><time>2026-04-19T13:16:23.719Z</time></trkpt><trkpt lat="43.8606922" lon="12.3987234"><ele>641.4</ele><time>2026-04-19T13:16:24.7Z</time></trkpt><trkpt lat="43.8607813" lon="12.3986962"><ele>642.0</ele><time>2026-04-19T13:16:25.693Z</time></trkpt><trkpt lat="43.8608622" lon="12.3986881"><ele>642.0</ele><time>2026-04-19T13:16:26.704Z</time></trkpt><trkpt lat="43.8609252" lon="12.3987099"><ele>642.0</ele><time>2026-04-19T13:16:27.705Z</time></trkpt><trkpt lat="43.8610359" lon="12.3988141"><ele>642.0</ele><time>2026-04-19T13:16:29.704Z</time></trkpt><trkpt lat="43.8611147" lon="12.3988539"><ele>642.0</ele><time>2026-04-19T13:16:30.706Z</time></trkpt><trkpt lat="43.8611939" lon="12.3988929"><ele>642.0</ele><time>2026-04-19T13:16:31.707Z</time></trkpt><trkpt lat="43.8612748" lon="12.3989299"><ele>638.8000000000001</ele><time>2026-04-19T13:16:32.706Z</time></trkpt><trkpt lat="43.8613624" lon="12.3989693"><ele>635.6</ele><time>2026-04-19T13:16:33.702Z</time></trkpt><trkpt lat="43.8614555" lon="12.3990246"><ele>632.4000000000001</ele><time>2026-04-19T13:16:34.709Z</time></trkpt><trkpt lat="43.8615518" lon="12.3990766"><ele>629.2</ele><time>2026-04-19T13:16:35.711Z</time></trkpt><trkpt lat="43.8616418" lon="12.3991242"><ele>626.0</ele><time>2026-04-19T13:16:36.711Z</time></trkpt><trkpt lat="43.8617269" lon="12.3991735"><ele>624.3333333333333</ele><time>2026-04-19T13:16:37.717Z</time></trkpt><trkpt lat="43.8618079" lon="12.3992201"><ele>622.6666666666666</ele><time>2026-04-19T13:16:38.715Z</time></trkpt><trkpt lat="43.8618935" lon="12.3992531"><ele>621.0</ele><time>2026-04-19T13:16:39.707Z</time></trkpt><trkpt lat="43.8619815" lon="12.399268"><ele>619.3333333333334</ele><time>2026-04-19T13:16:40.715Z</time></trkpt><trkpt lat="43.8620731" lon="12.3992694"><ele>617.6666666666667</ele><time>2026-04-19T13:16:41.712Z</time></trkpt><trkpt lat="43.8621648" lon="12.3992699"><ele>616.0</ele><time>2026-04-19T13:16:42.708Z</time></trkpt><trkpt lat="43.8622592" lon="12.3992656"><ele>616.0</ele><time>2026-04-19T13:16:43.72Z</time></trkpt><trkpt lat="43.8623587" lon="12.3992544"><ele>616.0</ele><time>2026-04-19T13:16:44.712Z</time></trkpt><trkpt lat="43.8624586" lon="12.3992346"><ele>616.0</ele><time>2026-04-19T13:16:45.708Z</time></trkpt><trkpt lat="43.8625596" lon="12.399213"><ele>616.0</ele><time>2026-04-19T13:16:46.701Z</time></trkpt><trkpt lat="43.8626622" lon="12.3991919"><ele>616.0</ele><time>2026-04-19T13:16:47.705Z</time></trkpt><trkpt lat="43.8627642" lon="12.3991693"><ele>613.2</ele><time>2026-04-19T13:16:48.707Z</time></trkpt><trkpt lat="43.8628613" lon="12.3991579"><ele>610.4000000000001</ele><time>2026-04-19T13:16:49.704Z</time></trkpt><trkpt lat="43.8629602" lon="12.3991591"><ele>607.6</ele><time>2026-04-19T13:16:50.701Z</time></trkpt><trkpt lat="43.8630552" lon="12.3991764"><ele>604.8000000000001</ele><time>2026-04-19T13:16:51.714Z</time></trkpt><trkpt lat="43.8631431" lon="12.3992048"><ele>602.0</ele><time>2026-04-19T13:16:52.707Z</time></trkpt><trkpt lat="43.8632331" lon="12.3992434"><ele>602.0</ele><time>2026-04-19T13:16:53.702Z</time></trkpt><trkpt lat="43.8633215" lon="12.399293"><ele>602.0</ele><time>2026-04-19T13:16:54.726Z</time></trkpt><trkpt lat="43.863409" lon="12.3993573"><ele>602.0</ele><time>2026-04-19T13:16:55.708Z</time></trkpt><trkpt lat="43.863496" lon="12.3994312"><ele>602.0</ele><time>2026-04-19T13:16:56.712Z</time></trkpt><trkpt lat="43.8635806" lon="12.3995119"><ele>602.0</ele><time>2026-04-19T13:16:57.707Z</time></trkpt><trkpt lat="43.8636685" lon="12.3996003"><ele>599.0</ele><time>2026-04-19T13:16:58.707Z</time></trkpt><trkpt lat="43.863757" lon="12.3996817"><ele>596.0</ele><time>2026-04-19T13:16:59.704Z</time></trkpt><trkpt lat="43.8638511" lon="12.399759"><ele>593.0</ele><time>2026-04-19T13:17:00.708Z</time></trkpt><trkpt lat="43.8639523" lon="12.3998317"><ele>590.0</ele><time>2026-04-19T13:17:01.701Z</time></trkpt><trkpt lat="43.8640535" lon="12.3999029"><ele>587.0</ele><time>2026-04-19T13:17:02.706Z</time></trkpt><trkpt lat="43.8641546" lon="12.3999671"><ele>587.0</ele><time>2026-04-19T13:17:03.703Z</time></trkpt><trkpt lat="43.8642608" lon="12.4000069"><ele>587.0</ele><time>2026-04-19T13:17:04.705Z</time></trkpt><trkpt lat="43.8643776" lon="12.4000255"><ele>587.0</ele><time>2026-04-19T13:17:05.706Z</time></trkpt><trkpt lat="43.8645053" lon="12.4000274"><ele>587.0</ele><time>2026-04-19T13:17:06.704Z</time></trkpt><trkpt lat="43.8646348" lon="12.4000219"><ele>586.0</ele><time>2026-04-19T13:17:07.699Z</time></trkpt><trkpt lat="43.8647535" lon="12.4000056"><ele>585.0</ele><time>2026-04-19T13:17:08.705Z</time></trkpt><trkpt lat="43.8648581" lon="12.399965"><ele>584.0</ele><time>2026-04-19T13:17:09.705Z</time></trkpt><trkpt lat="43.8649581" lon="12.3998812"><ele>583.0</ele><time>2026-04-19T13:17:10.71Z</time></trkpt><trkpt lat="43.865038" lon="12.3998085"><ele>582.0</ele><time>2026-04-19T13:17:11.701Z</time></trkpt><trkpt lat="43.8651152" lon="12.3997739"><ele>581.0</ele><time>2026-04-19T13:17:12.703Z</time></trkpt><trkpt lat="43.8652008" lon="12.3997842"><ele>580.0</ele><time>2026-04-19T13:17:13.702Z</time></trkpt><trkpt lat="43.8652894" lon="12.3998371"><ele>579.0</ele><time>2026-04-19T13:17:14.7Z</time></trkpt><trkpt lat="43.8653752" lon="12.3999239"><ele>578.0</ele><time>2026-04-19T13:17:15.702Z</time></trkpt><trkpt lat="43.8654704" lon="12.4000335"><ele>577.0</ele><time>2026-04-19T13:17:16.696Z</time></trkpt><trkpt lat="43.8655701" lon="12.4001505"><ele>577.0</ele><time>2026-04-19T13:17:17.701Z</time></trkpt><trkpt lat="43.8656621" lon="12.4002544"><ele>577.0</ele><time>2026-04-19T13:17:18.698Z</time></trkpt><trkpt lat="43.8657472" lon="12.4003376"><ele>577.0</ele><time>2026-04-19T13:17:19.7Z</time></trkpt><trkpt lat="43.8658377" lon="12.400375"><ele>577.0</ele><time>2026-04-19T13:17:20.698Z</time></trkpt><trkpt lat="43.8659317" lon="12.4003777"><ele>577.0</ele><time>2026-04-19T13:17:21.699Z</time></trkpt><trkpt lat="43.8660434" lon="12.4003699"><ele>574.0</ele><time>2026-04-19T13:17:22.698Z</time></trkpt><trkpt lat="43.8661587" lon="12.4003664"><ele>571.0</ele><time>2026-04-19T13:17:23.7Z</time></trkpt><trkpt lat="43.8662791" lon="12.4003726"><ele>568.0</ele><time>2026-04-19T13:17:24.7Z</time></trkpt><trkpt lat="43.8664069" lon="12.4003814"><ele>565.0</ele><time>2026-04-19T13:17:25.715Z</time></trkpt><trkpt lat="43.8665296" lon="12.4003884"><ele>565.0</ele><time>2026-04-19T13:17:26.693Z</time></trkpt><trkpt lat="43.8666523" lon="12.4003868"><ele>565.0</ele><time>2026-04-19T13:17:27.699Z</time></trkpt><trkpt lat="43.8667724" lon="12.4003803"><ele>565.0</ele><time>2026-04-19T13:17:28.7Z</time></trkpt><trkpt lat="43.8668883" lon="12.4003707"><ele>565.0</ele><time>2026-04-19T13:17:29.688Z</time></trkpt><trkpt lat="43.8669978" lon="12.4003567"><ele>561.8</ele><time>2026-04-19T13:17:30.69Z</time></trkpt><trkpt lat="43.8671042" lon="12.400351"><ele>558.6</ele><time>2026-04-19T13:17:31.686Z</time></trkpt><trkpt lat="43.8672057" lon="12.4003491"><ele>555.4</ele><time>2026-04-19T13:17:32.691Z</time></trkpt><trkpt lat="43.8673048" lon="12.4003519"><ele>552.2</ele><time>2026-04-19T13:17:33.691Z</time></trkpt><trkpt lat="43.8673953" lon="12.4003566"><ele>549.0</ele><time>2026-04-19T13:17:34.693Z</time></trkpt><trkpt lat="43.8674794" lon="12.4003878"><ele>549.0</ele><time>2026-04-19T13:17:35.692Z</time></trkpt><trkpt lat="43.8675537" lon="12.4004531"><ele>549.0</ele><time>2026-04-19T13:17:36.701Z</time></trkpt><trkpt lat="43.8676049" lon="12.4005522"><ele>549.0</ele><time>2026-04-19T13:17:37.687Z</time></trkpt><trkpt lat="43.8676473" lon="12.4006285"><ele>549.0</ele><time>2026-04-19T13:17:38.693Z</time></trkpt><trkpt lat="43.8677091" lon="12.4006882"><ele>549.0</ele><time>2026-04-19T13:17:39.689Z</time></trkpt><trkpt lat="43.8677868" lon="12.4007245"><ele>549.0</ele><time>2026-04-19T13:17:40.689Z</time></trkpt><trkpt lat="43.8678773" lon="12.4007509"><ele>544.25</ele><time>2026-04-19T13:17:41.697Z</time></trkpt><trkpt lat="43.8679859" lon="12.4007639"><ele>539.5</ele><time>2026-04-19T13:17:42.694Z</time></trkpt><trkpt lat="43.8681027" lon="12.4007693"><ele>534.75</ele><time>2026-04-19T13:17:43.695Z</time></trkpt><trkpt lat="43.8682201" lon="12.4007845"><ele>530.0</ele><time>2026-04-19T13:17:44.695Z</time></trkpt><trkpt lat="43.8683373" lon="12.4008109"><ele>527.25</ele><time>2026-04-19T13:17:45.692Z</time></trkpt><trkpt lat="43.8684531" lon="12.4008582"><ele>524.5</ele><time>2026-04-19T13:17:46.697Z</time></trkpt><trkpt lat="43.8685681" lon="12.4009172"><ele>521.75</ele><time>2026-04-19T13:17:47.697Z</time></trkpt><trkpt lat="43.8686828" lon="12.4009797"><ele>519.0</ele><time>2026-04-19T13:17:48.697Z</time></trkpt><trkpt lat="43.868795" lon="12.4010199"><ele>519.0</ele><time>2026-04-19T13:17:49.696Z</time></trkpt><trkpt lat="43.8689109" lon="12.4010203"><ele>519.0</ele><time>2026-04-19T13:17:50.696Z</time></trkpt><trkpt lat="43.8690232" lon="12.4010028"><ele>519.0</ele><time>2026-04-19T13:17:51.698Z</time></trkpt><trkpt lat="43.8691326" lon="12.400992"><ele>519.0</ele><time>2026-04-19T13:17:52.704Z</time></trkpt><trkpt lat="43.8692395" lon="12.4009992"><ele>519.0</ele><time>2026-04-19T13:17:53.702Z</time></trkpt><trkpt lat="43.8693476" lon="12.401034"><ele>516.8</ele><time>2026-04-19T13:17:54.701Z</time></trkpt><trkpt lat="43.8694487" lon="12.4010893"><ele>514.5999999999999</ele><time>2026-04-19T13:17:55.702Z</time></trkpt><trkpt lat="43.8695375" lon="12.401162"><ele>512.4</ele><time>2026-04-19T13:17:56.716Z</time></trkpt><trkpt lat="43.8696186" lon="12.4012253"><ele>510.2</ele><time>2026-04-19T13:17:57.695Z</time></trkpt><trkpt lat="43.8696898" lon="12.4012789"><ele>508.0</ele><time>2026-04-19T13:17:58.705Z</time></trkpt><trkpt lat="43.8697547" lon="12.401294"><ele>508.0</ele><time>2026-04-19T13:17:59.703Z</time></trkpt><trkpt lat="43.8698305" lon="12.4012708"><ele>507.99999999999994</ele><time>2026-04-19T13:18:00.708Z</time></trkpt><trkpt lat="43.8699043" lon="12.4012102"><ele>507.99999999999994</ele><time>2026-04-19T13:18:01.702Z</time></trkpt><trkpt lat="43.8699592" lon="12.4010998"><ele>508.0</ele><time>2026-04-19T13:18:02.699Z</time></trkpt><trkpt lat="43.869985" lon="12.4009663"><ele>508.0</ele><time>2026-04-19T13:18:03.691Z</time></trkpt><trkpt lat="43.8699996" lon="12.4008322"><ele>508.0</ele><time>2026-04-19T13:18:04.691Z</time></trkpt><trkpt lat="43.8700094" lon="12.4006942"><ele>507.99999999999994</ele><time>2026-04-19T13:18:05.69Z</time></trkpt><trkpt lat="43.8700123" lon="12.400556"><ele>507.99999999999994</ele><time>2026-04-19T13:18:06.698Z</time></trkpt><trkpt lat="43.8700112" lon="12.4004186"><ele>508.0</ele><time>2026-04-19T13:18:07.692Z</time></trkpt><trkpt lat="43.870014" lon="12.4002841"><ele>508.0</ele><time>2026-04-19T13:18:08.693Z</time></trkpt><trkpt lat="43.8700117" lon="12.4001472"><ele>506.2</ele><time>2026-04-19T13:18:09.693Z</time></trkpt><trkpt lat="43.8700008" lon="12.4000137"><ele>504.4</ele><time>2026-04-19T13:18:10.692Z</time></trkpt><trkpt lat="43.8699797" lon="12.3998725"><ele>502.59999999999997</ele><time>2026-04-19T13:18:11.695Z</time></trkpt><trkpt lat="43.8699487" lon="12.3997262"><ele>500.79999999999995</ele><time>2026-04-19T13:18:12.703Z</time></trkpt><trkpt lat="43.8699204" lon="12.3995871"><ele>499.0</ele><time>2026-04-19T13:18:13.699Z</time></trkpt><trkpt lat="43.8698976" lon="12.3994579"><ele>498.33333333333337</ele><time>2026-04-19T13:18:14.694Z</time></trkpt><trkpt lat="43.8698929" lon="12.3993416"><ele>497.6666666666667</ele><time>2026-04-19T13:18:15.701Z</time></trkpt><trkpt lat="43.8699125" lon="12.3992405"><ele>497.0</ele><time>2026-04-19T13:18:16.69Z</time></trkpt><trkpt lat="43.8699553" lon="12.399138"><ele>496.33333333333337</ele><time>2026-04-19T13:18:17.695Z</time></trkpt><trkpt lat="43.8700221" lon="12.3990448"><ele>495.6666666666667</ele><time>2026-04-19T13:18:18.694Z</time></trkpt><trkpt lat="43.870099" lon="12.3989633"><ele>495.0</ele><time>2026-04-19T13:18:19.688Z</time></trkpt><trkpt lat="43.8701824" lon="12.3988883"><ele>493.6</ele><time>2026-04-19T13:18:20.69Z</time></trkpt><trkpt lat="43.870269" lon="12.398838"><ele>492.2</ele><time>2026-04-19T13:18:21.695Z</time></trkpt><trkpt lat="43.870359" lon="12.3988071"><ele>490.79999999999995</ele><time>2026-04-19T13:18:22.692Z</time></trkpt><trkpt lat="43.8704606" lon="12.3987854"><ele>489.4</ele><time>2026-04-19T13:18:23.692Z</time></trkpt><trkpt lat="43.8705742" lon="12.3987613"><ele>488.0</ele><time>2026-04-19T13:18:24.697Z</time></trkpt><trkpt lat="43.8706971" lon="12.3987357"><ele>488.0</ele><time>2026-04-19T13:18:25.688Z</time></trkpt><trkpt lat="43.8708234" lon="12.3987089"><ele>488.0</ele><time>2026-04-19T13:18:26.7Z</time></trkpt><trkpt lat="43.8709552" lon="12.3986752"><ele>488.0</ele><time>2026-04-19T13:18:27.712Z</time></trkpt><trkpt lat="43.871092" lon="12.3986407"><ele>488.0</ele><time>2026-04-19T13:18:28.701Z</time></trkpt><trkpt lat="43.8712253" lon="12.3986173"><ele>485.25</ele><time>2026-04-19T13:18:29.701Z</time></trkpt><trkpt lat="43.8713518" lon="12.3985954"><ele>482.5</ele><time>2026-04-19T13:18:30.704Z</time></trkpt><trkpt lat="43.8714807" lon="12.3985744"><ele>479.75</ele><time>2026-04-19T13:18:31.698Z</time></trkpt><trkpt lat="43.8715996" lon="12.3985502"><ele>477.0</ele><time>2026-04-19T13:18:32.696Z</time></trkpt><trkpt lat="43.8717175" lon="12.3985292"><ele>473.75</ele><time>2026-04-19T13:18:33.698Z</time></trkpt><trkpt lat="43.8718341" lon="12.3985097"><ele>470.5</ele><time>2026-04-19T13:18:34.696Z</time></trkpt><trkpt lat="43.8719517" lon="12.3984949"><ele>467.25</ele><time>2026-04-19T13:18:35.696Z</time></trkpt><trkpt lat="43.8720673" lon="12.3984786"><ele>464.0</ele><time>2026-04-19T13:18:36.697Z</time></trkpt><trkpt lat="43.87218" lon="12.3984509"><ele>464.0</ele><time>2026-04-19T13:18:37.696Z</time></trkpt><trkpt lat="43.8722947" lon="12.3984195"><ele>464.0</ele><time>2026-04-19T13:18:38.693Z</time></trkpt><trkpt lat="43.872417" lon="12.3983957"><ele>464.0</ele><time>2026-04-19T13:18:39.694Z</time></trkpt><trkpt lat="43.8725358" lon="12.3983752"><ele>464.0</ele><time>2026-04-19T13:18:40.693Z</time></trkpt><trkpt lat="43.8726611" lon="12.3983583"><ele>461.75</ele><time>2026-04-19T13:18:41.697Z</time></trkpt><trkpt lat="43.8727903" lon="12.3983505"><ele>459.5</ele><time>2026-04-19T13:18:42.693Z</time></trkpt><trkpt lat="43.8729208" lon="12.3983656"><ele>457.25</ele><time>2026-04-19T13:18:43.696Z</time></trkpt><trkpt lat="43.8730531" lon="12.3983984"><ele>455.0</ele><time>2026-04-19T13:18:44.697Z</time></trkpt><trkpt lat="43.8731907" lon="12.3984548"><ele>455.0</ele><time>2026-04-19T13:18:45.696Z</time></trkpt><trkpt lat="43.8733397" lon="12.3985253"><ele>455.0</ele><time>2026-04-19T13:18:46.699Z</time></trkpt><trkpt lat="43.8734823" lon="12.3985895"><ele>455.0</ele><time>2026-04-19T13:18:47.697Z</time></trkpt><trkpt lat="43.8736147" lon="12.3986416"><ele>455.0</ele><time>2026-04-19T13:18:48.699Z</time></trkpt><trkpt lat="43.8737347" lon="12.3986824"><ele>453.4</ele><time>2026-04-19T13:18:49.693Z</time></trkpt><trkpt lat="43.8738396" lon="12.3987102"><ele>451.8</ele><time>2026-04-19T13:18:50.698Z</time></trkpt><trkpt lat="43.873933" lon="12.3987258"><ele>450.20000000000005</ele><time>2026-04-19T13:18:51.692Z</time></trkpt><trkpt lat="43.8740167" lon="12.3987298"><ele>448.6</ele><time>2026-04-19T13:18:52.691Z</time></trkpt><trkpt lat="43.8740959" lon="12.3987339"><ele>447.0</ele><time>2026-04-19T13:18:53.686Z</time></trkpt><trkpt lat="43.874182" lon="12.3987264"><ele>447.0</ele><time>2026-04-19T13:18:54.693Z</time></trkpt><trkpt lat="43.8742649" lon="12.3987108"><ele>447.00000000000006</ele><time>2026-04-19T13:18:55.698Z</time></trkpt><trkpt lat="43.8743537" lon="12.3987083"><ele>447.00000000000006</ele><time>2026-04-19T13:18:56.691Z</time></trkpt><trkpt lat="43.8744507" lon="12.3987271"><ele>447.0</ele><time>2026-04-19T13:18:57.69Z</time></trkpt><trkpt lat="43.8745526" lon="12.3987755"><ele>447.0</ele><time>2026-04-19T13:18:58.719Z</time></trkpt><trkpt lat="43.8746673" lon="12.3988489"><ele>443.75</ele><time>2026-04-19T13:18:59.703Z</time></trkpt><trkpt lat="43.8747859" lon="12.3989344"><ele>440.5</ele><time>2026-04-19T13:19:00.704Z</time></trkpt><trkpt lat="43.8748997" lon="12.3990217"><ele>437.25</ele><time>2026-04-19T13:19:01.698Z</time></trkpt><trkpt lat="43.8750085" lon="12.3991161"><ele>434.0</ele><time>2026-04-19T13:19:02.697Z</time></trkpt><trkpt lat="43.8751111" lon="12.3992122"><ele>432.75</ele><time>2026-04-19T13:19:03.697Z</time></trkpt><trkpt lat="43.8752113" lon="12.3993067"><ele>431.5</ele><time>2026-04-19T13:19:04.698Z</time></trkpt><trkpt lat="43.8753188" lon="12.3994018"><ele>430.25</ele><time>2026-04-19T13:19:05.697Z</time></trkpt><trkpt lat="43.8754288" lon="12.3994858"><ele>429.0</ele><time>2026-04-19T13:19:06.695Z</time></trkpt><trkpt lat="43.8755372" lon="12.3995615"><ele>429.0</ele><time>2026-04-19T13:19:07.697Z</time></trkpt><trkpt lat="43.8756226" lon="12.3996323"><ele>429.0</ele><time>2026-04-19T13:19:08.689Z</time></trkpt><trkpt lat="43.8756931" lon="12.3996914"><ele>429.0</ele><time>2026-04-19T13:19:09.688Z</time></trkpt><trkpt lat="43.8757643" lon="12.3997381"><ele>429.0</ele><time>2026-04-19T13:19:10.698Z</time></trkpt><trkpt lat="43.8758324" lon="12.3997521"><ele>429.0</ele><time>2026-04-19T13:19:11.696Z</time></trkpt><trkpt lat="43.8759077" lon="12.399747"><ele>429.0</ele><time>2026-04-19T13:19:12.693Z</time></trkpt><trkpt lat="43.8759843" lon="12.3997392"><ele>427.5</ele><time>2026-04-19T13:19:13.697Z</time></trkpt><trkpt lat="43.8760646" lon="12.3997268"><ele>426.0</ele><time>2026-04-19T13:19:14.696Z</time></trkpt><trkpt lat="43.8761522" lon="12.399709"><ele>424.5</ele><time>2026-04-19T13:19:15.696Z</time></trkpt><trkpt lat="43.8762389" lon="12.399681"><ele>423.0</ele><time>2026-04-19T13:19:16.696Z</time></trkpt><trkpt lat="43.8763293" lon="12.399647"><ele>421.5</ele><time>2026-04-19T13:19:17.697Z</time></trkpt><trkpt lat="43.8764183" lon="12.3996108"><ele>420.0</ele><time>2026-04-19T13:19:18.698Z</time></trkpt><trkpt lat="43.8765127" lon="12.3995895"><ele>420.0</ele><time>2026-04-19T13:19:19.693Z</time></trkpt><trkpt lat="43.8766088" lon="12.3995827"><ele>420.0</ele><time>2026-04-19T13:19:20.692Z</time></trkpt><trkpt lat="43.8767081" lon="12.3995939"><ele>420.0</ele><time>2026-04-19T13:19:21.695Z</time></trkpt><trkpt lat="43.8768103" lon="12.3995973"><ele>420.0</ele><time>2026-04-19T13:19:22.694Z</time></trkpt><trkpt lat="43.8769127" lon="12.3995842"><ele>420.0</ele><time>2026-04-19T13:19:23.69Z</time></trkpt><trkpt lat="43.8770086" lon="12.3995586"><ele>418.5</ele><time>2026-04-19T13:19:24.691Z</time></trkpt><trkpt lat="43.8770983" lon="12.3995219"><ele>417.0</ele><time>2026-04-19T13:19:25.691Z</time></trkpt><trkpt lat="43.8771841" lon="12.3994826"><ele>415.5</ele><time>2026-04-19T13:19:26.693Z</time></trkpt><trkpt lat="43.8772625" lon="12.3994533"><ele>414.0</ele><time>2026-04-19T13:19:27.691Z</time></trkpt><trkpt lat="43.8773347" lon="12.399448"><ele>412.5</ele><time>2026-04-19T13:19:28.697Z</time></trkpt><trkpt lat="43.8774062" lon="12.3994826"><ele>411.0</ele><time>2026-04-19T13:19:29.73Z</time></trkpt><trkpt lat="43.8774776" lon="12.3995418"><ele>411.0</ele><time>2026-04-19T13:19:30.698Z</time></trkpt><trkpt lat="43.8775399" lon="12.3996144"><ele>411.0</ele><time>2026-04-19T13:19:31.686Z</time></trkpt><trkpt lat="43.8775883" lon="12.3996948"><ele>411.0</ele><time>2026-04-19T13:19:32.687Z</time></trkpt><trkpt lat="43.8776183" lon="12.3997859"><ele>411.0</ele><time>2026-04-19T13:19:33.684Z</time></trkpt><trkpt lat="43.8776234" lon="12.3998901"><ele>411.0</ele><time>2026-04-19T13:19:34.692Z</time></trkpt><trkpt lat="43.8775968" lon="12.3999891"><ele>411.0</ele><time>2026-04-19T13:19:35.686Z</time></trkpt><trkpt lat="43.8775619" lon="12.4000907"><ele>408.8</ele><time>2026-04-19T13:19:36.695Z</time></trkpt><trkpt lat="43.8775216" lon="12.400186"><ele>406.6</ele><time>2026-04-19T13:19:37.692Z</time></trkpt><trkpt lat="43.8774843" lon="12.4002719"><ele>404.4</ele><time>2026-04-19T13:19:38.693Z</time></trkpt><trkpt lat="43.8774538" lon="12.4004301"><ele>402.2</ele><time>2026-04-19T13:19:40.686Z</time></trkpt><trkpt lat="43.8774864" lon="12.4006052"><ele>400.0</ele><time>2026-04-19T13:19:42.691Z</time></trkpt><trkpt lat="43.8775342" lon="12.4006911"><ele>398.0</ele><time>2026-04-19T13:19:43.683Z</time></trkpt><trkpt lat="43.8775953" lon="12.4007882"><ele>396.0</ele><time>2026-04-19T13:19:44.693Z</time></trkpt><trkpt lat="43.8776676" lon="12.4008976"><ele>394.0</ele><time>2026-04-19T13:19:45.687Z</time></trkpt><trkpt lat="43.8777457" lon="12.40102"><ele>392.0</ele><time>2026-04-19T13:19:46.691Z</time></trkpt><trkpt lat="43.8778278" lon="12.4011466"><ele>390.0</ele><time>2026-04-19T13:19:47.689Z</time></trkpt><trkpt lat="43.8779185" lon="12.4012755"><ele>387.75</ele><time>2026-04-19T13:19:48.692Z</time></trkpt><trkpt lat="43.8780132" lon="12.4014015"><ele>385.5</ele><time>2026-04-19T13:19:49.692Z</time></trkpt><trkpt lat="43.8781079" lon="12.4015323"><ele>383.25</ele><time>2026-04-19T13:19:50.694Z</time></trkpt><trkpt lat="43.8782026" lon="12.401665"><ele>381.0</ele><time>2026-04-19T13:19:51.697Z</time></trkpt><trkpt lat="43.8783018" lon="12.4017847"><ele>381.0</ele><time>2026-04-19T13:19:52.693Z</time></trkpt><trkpt lat="43.8783977" lon="12.4018814"><ele>381.0</ele><time>2026-04-19T13:19:53.692Z</time></trkpt><trkpt lat="43.8785041" lon="12.4019357"><ele>381.0</ele><time>2026-04-19T13:19:54.694Z</time></trkpt><trkpt lat="43.8786115" lon="12.401943"><ele>381.0</ele><time>2026-04-19T13:19:55.699Z</time></trkpt><trkpt lat="43.8787228" lon="12.401933"><ele>380.4</ele><time>2026-04-19T13:19:56.698Z</time></trkpt><trkpt lat="43.8788222" lon="12.4019484"><ele>379.8</ele><time>2026-04-19T13:19:57.697Z</time></trkpt><trkpt lat="43.8789076" lon="12.401996"><ele>379.2</ele><time>2026-04-19T13:19:58.7Z</time></trkpt><trkpt lat="43.8789888" lon="12.4020806"><ele>378.59999999999997</ele><time>2026-04-19T13:19:59.718Z</time></trkpt><trkpt lat="43.8790649" lon="12.4022052"><ele>378.0</ele><time>2026-04-19T13:20:00.707Z</time></trkpt><trkpt lat="43.8791359" lon="12.40234"><ele>381.25</ele><time>2026-04-19T13:20:01.695Z</time></trkpt><trkpt lat="43.8791994" lon="12.4024861"><ele>384.5</ele><time>2026-04-19T13:20:02.694Z</time></trkpt><trkpt lat="43.8792602" lon="12.4026319"><ele>387.75</ele><time>2026-04-19T13:20:03.698Z</time></trkpt><trkpt lat="43.8793142" lon="12.4027771"><ele>391.0</ele><time>2026-04-19T13:20:04.7Z</time></trkpt><trkpt lat="43.8793737" lon="12.402917"><ele>394.0</ele><time>2026-04-19T13:20:05.704Z</time></trkpt><trkpt lat="43.8794311" lon="12.4030587"><ele>397.0</ele><time>2026-04-19T13:20:06.699Z</time></trkpt><trkpt lat="43.8794872" lon="12.4032045"><ele>400.0</ele><time>2026-04-19T13:20:07.697Z</time></trkpt><trkpt lat="43.879539" lon="12.403357"><ele>403.0</ele><time>2026-04-19T13:20:08.695Z</time></trkpt><trkpt lat="43.8795942" lon="12.4035155"><ele>403.0</ele><time>2026-04-19T13:20:09.698Z</time></trkpt><trkpt lat="43.8796502" lon="12.4036731"><ele>403.0</ele><time>2026-04-19T13:20:10.694Z</time></trkpt><trkpt lat="43.8797096" lon="12.4038127"><ele>403.0</ele><time>2026-04-19T13:20:11.7Z</time></trkpt><trkpt lat="43.8797648" lon="12.403911"><ele>403.0</ele><time>2026-04-19T13:20:12.7Z</time></trkpt><trkpt lat="43.8798275" lon="12.4039754"><ele>403.0</ele><time>2026-04-19T13:20:13.7Z</time></trkpt><trkpt lat="43.8798967" lon="12.4040222"><ele>405.2</ele><time>2026-04-19T13:20:14.709Z</time></trkpt><trkpt lat="43.8799806" lon="12.4040627"><ele>407.4</ele><time>2026-04-19T13:20:15.698Z</time></trkpt><trkpt lat="43.8800739" lon="12.404101"><ele>409.59999999999997</ele><time>2026-04-19T13:20:16.696Z</time></trkpt><trkpt lat="43.8801757" lon="12.4041444"><ele>411.79999999999995</ele><time>2026-04-19T13:20:17.7Z</time></trkpt><trkpt lat="43.8802864" lon="12.4041678"><ele>414.0</ele><time>2026-04-19T13:20:18.702Z</time></trkpt><trkpt lat="43.8803961" lon="12.4041501"><ele>414.0</ele><time>2026-04-19T13:20:19.701Z</time></trkpt><trkpt lat="43.8805101" lon="12.404119"><ele>414.0</ele><time>2026-04-19T13:20:20.699Z</time></trkpt><trkpt lat="43.8806118" lon="12.4041141"><ele>414.0</ele><time>2026-04-19T13:20:21.704Z</time></trkpt><trkpt lat="43.8807072" lon="12.4041303"><ele>414.0</ele><time>2026-04-19T13:20:22.696Z</time></trkpt><trkpt lat="43.8807906" lon="12.4041502"><ele>414.0</ele><time>2026-04-19T13:20:23.699Z</time></trkpt><trkpt lat="43.8808728" lon="12.404168"><ele>413.4</ele><time>2026-04-19T13:20:24.697Z</time></trkpt><trkpt lat="43.8809612" lon="12.4041789"><ele>412.79999999999995</ele><time>2026-04-19T13:20:25.699Z</time></trkpt><trkpt lat="43.8810522" lon="12.4041862"><ele>412.20000000000005</ele><time>2026-04-19T13:20:26.697Z</time></trkpt><trkpt lat="43.881148" lon="12.4042069"><ele>411.6</ele><time>2026-04-19T13:20:27.699Z</time></trkpt><trkpt lat="43.8812368" lon="12.4042593"><ele>411.0</ele><time>2026-04-19T13:20:28.703Z</time></trkpt><trkpt lat="43.8813258" lon="12.4043393"><ele>411.0</ele><time>2026-04-19T13:20:29.7Z</time></trkpt><trkpt lat="43.8814099" lon="12.4044228"><ele>411.0</ele><time>2026-04-19T13:20:30.718Z</time></trkpt><trkpt lat="43.8814907" lon="12.4045043"><ele>411.0</ele><time>2026-04-19T13:20:31.698Z</time></trkpt><trkpt lat="43.8815685" lon="12.4045888"><ele>411.0</ele><time>2026-04-19T13:20:32.696Z</time></trkpt><trkpt lat="43.88165" lon="12.4046631"><ele>411.0</ele><time>2026-04-19T13:20:33.7Z</time></trkpt><trkpt lat="43.881747" lon="12.4047179"><ele>409.0</ele><time>2026-04-19T13:20:34.701Z</time></trkpt><trkpt lat="43.8818485" lon="12.4047583"><ele>407.0</ele><time>2026-04-19T13:20:35.701Z</time></trkpt><trkpt lat="43.8819428" lon="12.4048083"><ele>405.0</ele><time>2026-04-19T13:20:36.697Z</time></trkpt><trkpt lat="43.8820204" lon="12.4048619"><ele>403.0</ele><time>2026-04-19T13:20:37.702Z</time></trkpt><trkpt lat="43.8820782" lon="12.4049243"><ele>401.0</ele><time>2026-04-19T13:20:38.699Z</time></trkpt><trkpt lat="43.8821132" lon="12.4050188"><ele>399.0</ele><time>2026-04-19T13:20:39.7Z</time></trkpt><trkpt lat="43.8821339" lon="12.4051509"><ele>399.0</ele><time>2026-04-19T13:20:40.699Z</time></trkpt><trkpt lat="43.8821419" lon="12.405311"><ele>399.0</ele><time>2026-04-19T13:20:41.686Z</time></trkpt><trkpt lat="43.8821421" lon="12.4054956"><ele>399.0</ele><time>2026-04-19T13:20:42.685Z</time></trkpt><trkpt lat="43.8821424" lon="12.4056861"><ele>399.0</ele><time>2026-04-19T13:20:43.689Z</time></trkpt><trkpt lat="43.8821493" lon="12.40586"><ele>398.25</ele><time>2026-04-19T13:20:44.686Z</time></trkpt><trkpt lat="43.8821715" lon="12.4060154"><ele>397.5</ele><time>2026-04-19T13:20:45.684Z</time></trkpt><trkpt lat="43.882216" lon="12.4061564"><ele>396.75</ele><time>2026-04-19T13:20:46.688Z</time></trkpt><trkpt lat="43.8822963" lon="12.4062867"><ele>396.0</ele><time>2026-04-19T13:20:47.688Z</time></trkpt><trkpt lat="43.882403" lon="12.406428"><ele>395.75</ele><time>2026-04-19T13:20:48.683Z</time></trkpt><trkpt lat="43.8825234" lon="12.4065739"><ele>395.5</ele><time>2026-04-19T13:20:49.691Z</time></trkpt><trkpt lat="43.8826512" lon="12.4066927"><ele>395.25</ele><time>2026-04-19T13:20:50.696Z</time></trkpt><trkpt lat="43.8827553" lon="12.4067846"><ele>395.0</ele><time>2026-04-19T13:20:51.694Z</time></trkpt><trkpt lat="43.8828526" lon="12.4068624"><ele>393.8</ele><time>2026-04-19T13:20:52.699Z</time></trkpt><trkpt lat="43.8829353" lon="12.4069368"><ele>392.6</ele><time>2026-04-19T13:20:53.699Z</time></trkpt><trkpt lat="43.8829922" lon="12.407009"><ele>391.4</ele><time>2026-04-19T13:20:54.696Z</time></trkpt><trkpt lat="43.8830162" lon="12.4071668"><ele>390.2</ele><time>2026-04-19T13:20:56.692Z</time></trkpt><trkpt lat="43.8829917" lon="12.4072656"><ele>389.0</ele><time>2026-04-19T13:20:57.692Z</time></trkpt><trkpt lat="43.8829526" lon="12.4073688"><ele>389.0</ele><time>2026-04-19T13:20:58.69Z</time></trkpt><trkpt lat="43.8829043" lon="12.4074856"><ele>389.0</ele><time>2026-04-19T13:20:59.696Z</time></trkpt><trkpt lat="43.8828561" lon="12.4076137"><ele>389.0</ele><time>2026-04-19T13:21:00.696Z</time></trkpt><trkpt lat="43.8828321" lon="12.4077446"><ele>389.0</ele><time>2026-04-19T13:21:01.71Z</time></trkpt><trkpt lat="43.8828277" lon="12.4078842"><ele>389.0</ele><time>2026-04-19T13:21:02.695Z</time></trkpt><trkpt lat="43.8828298" lon="12.4080249"><ele>391.4</ele><time>2026-04-19T13:21:03.696Z</time></trkpt><trkpt lat="43.8828237" lon="12.408171"><ele>393.79999999999995</ele><time>2026-04-19T13:21:04.7Z</time></trkpt><trkpt lat="43.8827892" lon="12.408303"><ele>396.20000000000005</ele><time>2026-04-19T13:21:05.699Z</time></trkpt><trkpt lat="43.8827178" lon="12.408415"><ele>398.6</ele><time>2026-04-19T13:21:06.697Z</time></trkpt><trkpt lat="43.8826334" lon="12.4085009"><ele>401.0</ele><time>2026-04-19T13:21:07.692Z</time></trkpt><trkpt lat="43.8825387" lon="12.4085755"><ele>401.20000000000005</ele><time>2026-04-19T13:21:08.701Z</time></trkpt><trkpt lat="43.8824481" lon="12.4086417"><ele>401.40000000000003</ele><time>2026-04-19T13:21:09.693Z</time></trkpt><trkpt lat="43.8823841" lon="12.4087152"><ele>401.6</ele><time>2026-04-19T13:21:10.688Z</time></trkpt><trkpt lat="43.8823806" lon="12.4088623"><ele>401.8</ele><time>2026-04-19T13:21:12.695Z</time></trkpt><trkpt lat="43.8824503" lon="12.4088935"><ele>402.0</ele><time>2026-04-19T13:21:13.693Z</time></trkpt><trkpt lat="43.882568" lon="12.4089005"><ele>405.25</ele><time>2026-04-19T13:21:14.692Z</time></trkpt><trkpt lat="43.8826947" lon="12.4088961"><ele>408.5</ele><time>2026-04-19T13:21:15.692Z</time></trkpt><trkpt lat="43.8828197" lon="12.408899"><ele>411.75</ele><time>2026-04-19T13:21:16.691Z</time></trkpt><trkpt lat="43.8829493" lon="12.4089107"><ele>415.0</ele><time>2026-04-19T13:21:17.694Z</time></trkpt><trkpt lat="43.8830898" lon="12.4089347"><ele>415.0</ele><time>2026-04-19T13:21:18.698Z</time></trkpt><trkpt lat="43.8832339" lon="12.4089551"><ele>415.0</ele><time>2026-04-19T13:21:19.695Z</time></trkpt><trkpt lat="43.8833667" lon="12.408977"><ele>415.0</ele><time>2026-04-19T13:21:20.696Z</time></trkpt><trkpt lat="43.8834928" lon="12.4090086"><ele>415.0</ele><time>2026-04-19T13:21:21.693Z</time></trkpt><trkpt lat="43.8836113" lon="12.409055"><ele>416.5</ele><time>2026-04-19T13:21:22.689Z</time></trkpt><trkpt lat="43.8837267" lon="12.4091068"><ele>418.0</ele><time>2026-04-19T13:21:23.697Z</time></trkpt><trkpt lat="43.8838438" lon="12.4091735"><ele>419.5</ele><time>2026-04-19T13:21:24.695Z</time></trkpt><trkpt lat="43.883965" lon="12.409243"><ele>421.0</ele><time>2026-04-19T13:21:25.705Z</time></trkpt><trkpt lat="43.8840885" lon="12.4093142"><ele>421.0</ele><time>2026-04-19T13:21:26.696Z</time></trkpt><trkpt lat="43.8842112" lon="12.4093801"><ele>421.0</ele><time>2026-04-19T13:21:27.698Z</time></trkpt><trkpt lat="43.8843353" lon="12.4094479"><ele>421.0</ele><time>2026-04-19T13:21:28.699Z</time></trkpt><trkpt lat="43.8844572" lon="12.409507"><ele>421.0</ele><time>2026-04-19T13:21:29.698Z</time></trkpt><trkpt lat="43.8845849" lon="12.4095625"><ele>420.75</ele><time>2026-04-19T13:21:30.703Z</time></trkpt><trkpt lat="43.8847057" lon="12.409635"><ele>420.5</ele><time>2026-04-19T13:21:31.701Z</time></trkpt><trkpt lat="43.8848075" lon="12.4097375"><ele>420.25</ele><time>2026-04-19T13:21:32.718Z</time></trkpt><trkpt lat="43.8848697" lon="12.4098694"><ele>420.0</ele><time>2026-04-19T13:21:33.699Z</time></trkpt><trkpt lat="43.884883" lon="12.4100284"><ele>423.0</ele><time>2026-04-19T13:21:34.702Z</time></trkpt><trkpt lat="43.8848616" lon="12.4102019"><ele>426.0</ele><time>2026-04-19T13:21:35.698Z</time></trkpt><trkpt lat="43.8848018" lon="12.4103624"><ele>429.0</ele><time>2026-04-19T13:21:36.701Z</time></trkpt><trkpt lat="43.8847228" lon="12.4105161"><ele>432.0</ele><time>2026-04-19T13:21:37.701Z</time></trkpt><trkpt lat="43.8846648" lon="12.410674"><ele>433.75</ele><time>2026-04-19T13:21:38.7Z</time></trkpt><trkpt lat="43.8846464" lon="12.4108265"><ele>435.5</ele><time>2026-04-19T13:21:39.699Z</time></trkpt><trkpt lat="43.884678" lon="12.4109787"><ele>437.25</ele><time>2026-04-19T13:21:40.704Z</time></trkpt><trkpt lat="43.8847515" lon="12.4111338"><ele>439.0</ele><time>2026-04-19T13:21:41.696Z</time></trkpt><trkpt lat="43.8848327" lon="12.4113033"><ele>441.5</ele><time>2026-04-19T13:21:42.708Z</time></trkpt><trkpt lat="43.8848888" lon="12.4114881"><ele>444.0</ele><time>2026-04-19T13:21:43.694Z</time></trkpt><trkpt lat="43.884933" lon="12.4116516"><ele>446.5</ele><time>2026-04-19T13:21:44.701Z</time></trkpt><trkpt lat="43.8849669" lon="12.4117553"><ele>449.0</ele><time>2026-04-19T13:21:45.701Z</time></trkpt><trkpt lat="43.8850771" lon="12.4119104"><ele>449.25</ele><time>2026-04-19T13:21:47.699Z</time></trkpt><trkpt lat="43.8851633" lon="12.4120196"><ele>449.5</ele><time>2026-04-19T13:21:48.696Z</time></trkpt><trkpt lat="43.8852514" lon="12.4121522"><ele>449.75</ele><time>2026-04-19T13:21:49.693Z</time></trkpt><trkpt lat="43.8853432" lon="12.412298"><ele>450.0</ele><time>2026-04-19T13:21:50.7Z</time></trkpt><trkpt lat="43.8854315" lon="12.4124467"><ele>450.0</ele><time>2026-04-19T13:21:51.7Z</time></trkpt><trkpt lat="43.8855117" lon="12.4125729"><ele>450.0</ele><time>2026-04-19T13:21:52.695Z</time></trkpt><trkpt lat="43.8855665" lon="12.4126733"><ele>450.0</ele><time>2026-04-19T13:21:53.696Z</time></trkpt><trkpt lat="43.8856088" lon="12.412765"><ele>450.0</ele><time>2026-04-19T13:21:54.694Z</time></trkpt><trkpt lat="43.8856695" lon="12.4128672"><ele>450.0</ele><time>2026-04-19T13:21:55.699Z</time></trkpt><trkpt lat="43.88573" lon="12.4129808"><ele>449.75</ele><time>2026-04-19T13:21:56.696Z</time></trkpt><trkpt lat="43.8858127" lon="12.4131027"><ele>449.5</ele><time>2026-04-19T13:21:57.693Z</time></trkpt><trkpt lat="43.8859224" lon="12.4132256"><ele>449.25</ele><time>2026-04-19T13:21:58.703Z</time></trkpt><trkpt lat="43.8860577" lon="12.4133364"><ele>449.0</ele><time>2026-04-19T13:21:59.696Z</time></trkpt><trkpt lat="43.8861991" lon="12.4134507"><ele>449.0</ele><time>2026-04-19T13:22:00.701Z</time></trkpt><trkpt lat="43.8863363" lon="12.4135691"><ele>449.0</ele><time>2026-04-19T13:22:01.691Z</time></trkpt><trkpt lat="43.8864727" lon="12.4137067"><ele>449.0</ele><time>2026-04-19T13:22:02.692Z</time></trkpt><trkpt lat="43.8865969" lon="12.4138498"><ele>452.0</ele><time>2026-04-19T13:22:03.71Z</time></trkpt><trkpt lat="43.8867395" lon="12.4140014"><ele>455.0</ele><time>2026-04-19T13:22:04.692Z</time></trkpt><trkpt lat="43.8869003" lon="12.4141485"><ele>458.0</ele><time>2026-04-19T13:22:05.69Z</time></trkpt><trkpt lat="43.8870423" lon="12.4142681"><ele>458.0</ele><time>2026-04-19T13:22:06.69Z</time></trkpt><trkpt lat="43.8871667" lon="12.4143917"><ele>458.0</ele><time>2026-04-19T13:22:07.688Z</time></trkpt><trkpt lat="43.8872438" lon="12.4145061"><ele>458.0</ele><time>2026-04-19T13:22:08.684Z</time></trkpt><trkpt lat="43.8873129" lon="12.414642"><ele>458.0</ele><time>2026-04-19T13:22:09.69Z</time></trkpt><trkpt lat="43.8873908" lon="12.414747"><ele>460.0</ele><time>2026-04-19T13:22:10.693Z</time></trkpt><trkpt lat="43.8874837" lon="12.4147893"><ele>462.0</ele><time>2026-04-19T13:22:11.695Z</time></trkpt><trkpt lat="43.8876094" lon="12.4148091"><ele>464.0</ele><time>2026-04-19T13:22:12.689Z</time></trkpt><trkpt lat="43.8877252" lon="12.4148676"><ele>466.0</ele><time>2026-04-19T13:22:13.696Z</time></trkpt><trkpt lat="43.8878243" lon="12.414973"><ele>467.0</ele><time>2026-04-19T13:22:14.697Z</time></trkpt><trkpt lat="43.887907" lon="12.4151093"><ele>468.0</ele><time>2026-04-19T13:22:15.688Z</time></trkpt><trkpt lat="43.8879851" lon="12.4152455"><ele>469.0</ele><time>2026-04-19T13:22:16.687Z</time></trkpt><trkpt lat="43.8880589" lon="12.415346"><ele>470.0</ele><time>2026-04-19T13:22:17.694Z</time></trkpt><trkpt lat="43.8881412" lon="12.4153714"><ele>471.0</ele><time>2026-04-19T13:22:18.698Z</time></trkpt><trkpt lat="43.8882506" lon="12.4153223"><ele>471.0</ele><time>2026-04-19T13:22:19.697Z</time></trkpt><trkpt lat="43.8883869" lon="12.4152373"><ele>471.0</ele><time>2026-04-19T13:22:20.697Z</time></trkpt><trkpt lat="43.8885373" lon="12.415144"><ele>471.0</ele><time>2026-04-19T13:22:21.691Z</time></trkpt><trkpt lat="43.8887019" lon="12.4150575"><ele>474.66666666666663</ele><time>2026-04-19T13:22:22.698Z</time></trkpt><trkpt lat="43.8888775" lon="12.4150039"><ele>478.3333333333333</ele><time>2026-04-19T13:22:23.698Z</time></trkpt><trkpt lat="43.8890155" lon="12.4149425"><ele>482.0</ele><time>2026-04-19T13:22:24.696Z</time></trkpt><trkpt lat="43.8891197" lon="12.4148327"><ele>482.0</ele><time>2026-04-19T13:22:25.698Z</time></trkpt><trkpt lat="43.8892302" lon="12.4146864"><ele>482.0</ele><time>2026-04-19T13:22:26.697Z</time></trkpt><trkpt lat="43.8893168" lon="12.4144769"><ele>482.0</ele><time>2026-04-19T13:22:27.698Z</time></trkpt><trkpt lat="43.8894068" lon="12.4142538"><ele>482.0</ele><time>2026-04-19T13:22:28.695Z</time></trkpt><trkpt lat="43.8894876" lon="12.4140362"><ele>482.0</ele><time>2026-04-19T13:22:29.699Z</time></trkpt><trkpt lat="43.8895413" lon="12.4138537"><ele>482.0</ele><time>2026-04-19T13:22:30.702Z</time></trkpt><trkpt lat="43.8895533" lon="12.4136985"><ele>482.0</ele><time>2026-04-19T13:22:31.694Z</time></trkpt><trkpt lat="43.8895715" lon="12.4135749"><ele>482.0</ele><time>2026-04-19T13:22:32.693Z</time></trkpt><trkpt lat="43.8896088" lon="12.4134667"><ele>482.00000000000006</ele><time>2026-04-19T13:22:33.69Z</time></trkpt><trkpt lat="43.8896582" lon="12.4133734"><ele>482.00000000000006</ele><time>2026-04-19T13:22:34.702Z</time></trkpt><trkpt lat="43.8897273" lon="12.4132714"><ele>482.0</ele><time>2026-04-19T13:22:35.686Z</time></trkpt><trkpt lat="43.8898208" lon="12.4131904"><ele>482.0</ele><time>2026-04-19T13:22:36.691Z</time></trkpt><trkpt lat="43.889916" lon="12.4131002"><ele>482.0</ele><time>2026-04-19T13:22:37.689Z</time></trkpt><trkpt lat="43.8900252" lon="12.4130043"><ele>482.0</ele><time>2026-04-19T13:22:38.696Z</time></trkpt><trkpt lat="43.8901458" lon="12.4129078"><ele>482.0</ele><time>2026-04-19T13:22:39.691Z</time></trkpt><trkpt lat="43.8902739" lon="12.4128041"><ele>482.0</ele><time>2026-04-19T13:22:40.692Z</time></trkpt><trkpt lat="43.8904079" lon="12.4126897"><ele>484.5</ele><time>2026-04-19T13:22:41.694Z</time></trkpt><trkpt lat="43.8905415" lon="12.412579"><ele>487.0</ele><time>2026-04-19T13:22:42.694Z</time></trkpt><trkpt lat="43.8906633" lon="12.4124673"><ele>489.5</ele><time>2026-04-19T13:22:43.697Z</time></trkpt><trkpt lat="43.8907748" lon="12.4124104"><ele>492.0</ele><time>2026-04-19T13:22:44.683Z</time></trkpt><trkpt lat="43.8908563" lon="12.4123819"><ele>494.0</ele><time>2026-04-19T13:22:45.691Z</time></trkpt><trkpt lat="43.8909557" lon="12.4124239"><ele>496.00000000000006</ele><time>2026-04-19T13:22:46.688Z</time></trkpt><trkpt lat="43.891055" lon="12.4125014"><ele>498.00000000000006</ele><time>2026-04-19T13:22:47.684Z</time></trkpt><trkpt lat="43.8911517" lon="12.4125801"><ele>500.0</ele><time>2026-04-19T13:22:48.696Z</time></trkpt><trkpt lat="43.8912574" lon="12.4126523"><ele>502.0</ele><time>2026-04-19T13:22:49.682Z</time></trkpt><trkpt lat="43.8913495" lon="12.4127317"><ele>502.00000000000006</ele><time>2026-04-19T13:22:50.676Z</time></trkpt><trkpt lat="43.8914292" lon="12.4128186"><ele>502.0</ele><time>2026-04-19T13:22:51.694Z</time></trkpt><trkpt lat="43.8914904" lon="12.4129136"><ele>502.0</ele><time>2026-04-19T13:22:52.67Z</time></trkpt><trkpt lat="43.8915502" lon="12.4130074"><ele>502.0</ele><time>2026-04-19T13:22:53.69Z</time></trkpt><trkpt lat="43.8916005" lon="12.4130983"><ele>502.00000000000006</ele><time>2026-04-19T13:22:54.689Z</time></trkpt><trkpt lat="43.8916439" lon="12.4131703"><ele>502.0</ele><time>2026-04-19T13:22:55.69Z</time></trkpt><trkpt lat="43.8916876" lon="12.413235"><ele>502.0</ele><time>2026-04-19T13:22:57.697Z</time></trkpt><trkpt lat="43.8916228" lon="12.4131256"><ele>502.00000000000006</ele><time>2026-04-19T13:23:01.701Z</time></trkpt><trkpt lat="43.8915642" lon="12.4130583"><ele>502.00000000000006</ele><time>2026-04-19T13:23:02.703Z</time></trkpt><trkpt lat="43.8915112" lon="12.4129813"><ele>502.0</ele><time>2026-04-19T13:23:03.687Z</time></trkpt><trkpt lat="43.8914483" lon="12.4128865"><ele>502.0</ele><time>2026-04-19T13:23:04.69Z</time></trkpt><trkpt lat="43.8913688" lon="12.4127779"><ele>502.0</ele><time>2026-04-19T13:23:05.707Z</time></trkpt><trkpt lat="43.8912804" lon="12.4126687"><ele>502.0</ele><time>2026-04-19T13:23:06.686Z</time></trkpt><trkpt lat="43.8911843" lon="12.4125744"><ele>502.0</ele><time>2026-04-19T13:23:07.677Z</time></trkpt><trkpt lat="43.8910791" lon="12.4125017"><ele>502.0</ele><time>2026-04-19T13:23:08.682Z</time></trkpt><trkpt lat="43.890977" lon="12.4124441"><ele>500.0</ele><time>2026-04-19T13:23:09.676Z</time></trkpt><trkpt lat="43.8908782" lon="12.412395"><ele>498.00000000000006</ele><time>2026-04-19T13:23:10.674Z</time></trkpt><trkpt lat="43.8907887" lon="12.4123476"><ele>496.00000000000006</ele><time>2026-04-19T13:23:11.671Z</time></trkpt><trkpt lat="43.8907075" lon="12.412301"><ele>494.0</ele><time>2026-04-19T13:23:12.678Z</time></trkpt><trkpt lat="43.8906314" lon="12.4122347"><ele>492.0</ele><time>2026-04-19T13:23:13.676Z</time></trkpt><trkpt lat="43.8905605" lon="12.4121366"><ele>492.0</ele><time>2026-04-19T13:23:14.681Z</time></trkpt><trkpt lat="43.8904915" lon="12.4119961"><ele>492.0</ele><time>2026-04-19T13:23:15.684Z</time></trkpt><trkpt lat="43.8904384" lon="12.4118313"><ele>492.0</ele><time>2026-04-19T13:23:16.691Z</time></trkpt><trkpt lat="43.8903908" lon="12.411671"><ele>492.0</ele><time>2026-04-19T13:23:17.688Z</time></trkpt><trkpt lat="43.8903503" lon="12.4115305"><ele>492.0</ele><time>2026-04-19T13:23:18.692Z</time></trkpt><trkpt lat="43.8903126" lon="12.411399"><ele>492.0</ele><time>2026-04-19T13:23:19.685Z</time></trkpt><trkpt lat="43.8902846" lon="12.411282"><ele>492.0</ele><time>2026-04-19T13:23:20.692Z</time></trkpt><trkpt lat="43.8902625" lon="12.4111875"><ele>492.0</ele><time>2026-04-19T13:23:21.696Z</time></trkpt><trkpt lat="43.8902448" lon="12.4110762"><ele>492.0</ele><time>2026-04-19T13:23:23.694Z</time></trkpt><trkpt lat="43.8902304" lon="12.4109699"><ele>492.0</ele><time>2026-04-19T13:23:25.693Z</time></trkpt><trkpt lat="43.8902116" lon="12.410848"><ele>490.8</ele><time>2026-04-19T13:23:27.683Z</time></trkpt><trkpt lat="43.8901777" lon="12.4106881"><ele>489.6</ele><time>2026-04-19T13:23:29.686Z</time></trkpt><trkpt lat="43.8901612" lon="12.4105822"><ele>488.40000000000003</ele><time>2026-04-19T13:23:30.69Z</time></trkpt><trkpt lat="43.8901516" lon="12.4104558"><ele>487.20000000000005</ele><time>2026-04-19T13:23:31.683Z</time></trkpt><trkpt lat="43.8901609" lon="12.4103254"><ele>486.0</ele><time>2026-04-19T13:23:32.688Z</time></trkpt><trkpt lat="43.8901737" lon="12.4102092"><ele>484.6666666666667</ele><time>2026-04-19T13:23:33.686Z</time></trkpt><trkpt lat="43.8901912" lon="12.4101092"><ele>483.33333333333337</ele><time>2026-04-19T13:23:34.687Z</time></trkpt><trkpt lat="43.8902213" lon="12.4099616"><ele>482.0</ele><time>2026-04-19T13:23:36.711Z</time></trkpt><trkpt lat="43.8901767" lon="12.4098825"><ele>480.6666666666667</ele><time>2026-04-19T13:23:39.7Z</time></trkpt><trkpt lat="43.8902665" lon="12.409854"><ele>479.33333333333337</ele><time>2026-04-19T13:23:51.712Z</time></trkpt><trkpt lat="43.8902825" lon="12.4099418"><ele>478.0</ele><time>2026-04-19T13:24:11.7Z</time></trkpt><trkpt lat="43.8902458" lon="12.4100684"><ele>478.0</ele><time>2026-04-19T13:24:13.706Z</time></trkpt><trkpt lat="43.8902013" lon="12.4102151"><ele>477.99999999999994</ele><time>2026-04-19T13:24:15.695Z</time></trkpt><trkpt lat="43.8901829" lon="12.410303"><ele>477.99999999999994</ele><time>2026-04-19T13:24:16.694Z</time></trkpt><trkpt lat="43.8901632" lon="12.4103897"><ele>478.0</ele><time>2026-04-19T13:24:17.689Z</time></trkpt><trkpt lat="43.8901517" lon="12.4105507"><ele>478.0</ele><time>2026-04-19T13:24:19.687Z</time></trkpt><trkpt lat="43.8901601" lon="12.4106984"><ele>479.59999999999997</ele><time>2026-04-19T13:24:21.687Z</time></trkpt><trkpt lat="43.8901703" lon="12.4108012"><ele>481.19999999999993</ele><time>2026-04-19T13:24:23.704Z</time></trkpt><trkpt lat="43.8902414" lon="12.4107947"><ele>482.8</ele><time>2026-04-19T13:24:45.71Z</time></trkpt><trkpt lat="43.8902814" lon="12.4109769"><ele>484.4</ele><time>2026-04-19T13:24:47.696Z</time></trkpt><trkpt lat="43.8902983" lon="12.4111041"><ele>486.0</ele><time>2026-04-19T13:24:48.689Z</time></trkpt><trkpt lat="43.8903149" lon="12.4112449"><ele>487.5</ele><time>2026-04-19T13:24:49.692Z</time></trkpt><trkpt lat="43.8903558" lon="12.4114126"><ele>489.0</ele><time>2026-04-19T13:24:50.69Z</time></trkpt><trkpt lat="43.8904088" lon="12.4115879"><ele>490.5</ele><time>2026-04-19T13:24:51.689Z</time></trkpt><trkpt lat="43.890469" lon="12.4117707"><ele>492.0</ele><time>2026-04-19T13:24:52.688Z</time></trkpt><trkpt lat="43.8905297" lon="12.4119563"><ele>492.0</ele><time>2026-04-19T13:24:53.687Z</time></trkpt><trkpt lat="43.8905975" lon="12.4121097"><ele>492.00000000000006</ele><time>2026-04-19T13:24:54.684Z</time></trkpt><trkpt lat="43.890652" lon="12.4122048"><ele>492.00000000000006</ele><time>2026-04-19T13:24:55.686Z</time></trkpt><trkpt lat="43.8907131" lon="12.4122786"><ele>492.0</ele><time>2026-04-19T13:24:56.682Z</time></trkpt><trkpt lat="43.8907741" lon="12.4123373"><ele>492.0</ele><time>2026-04-19T13:25:00.699Z</time></trkpt><trkpt lat="43.8908721" lon="12.4123711"><ele>494.0</ele><time>2026-04-19T13:25:02.695Z</time></trkpt><trkpt lat="43.8909455" lon="12.4124052"><ele>496.00000000000006</ele><time>2026-04-19T13:25:03.679Z</time></trkpt><trkpt lat="43.8910255" lon="12.412451"><ele>498.00000000000006</ele><time>2026-04-19T13:25:04.68Z</time></trkpt><trkpt lat="43.8911078" lon="12.4125049"><ele>500.0</ele><time>2026-04-19T13:25:05.681Z</time></trkpt><trkpt lat="43.8911983" lon="12.4125667"><ele>502.0</ele><time>2026-04-19T13:25:06.683Z</time></trkpt><trkpt lat="43.8912824" lon="12.412635"><ele>502.0</ele><time>2026-04-19T13:25:07.68Z</time></trkpt><trkpt lat="43.8913735" lon="12.4127072"><ele>502.00000000000006</ele><time>2026-04-19T13:25:08.692Z</time></trkpt><trkpt lat="43.8914533" lon="12.4128054"><ele>502.00000000000006</ele><time>2026-04-19T13:25:09.71Z</time></trkpt><trkpt lat="43.8915242" lon="12.4129153"><ele>502.0</ele><time>2026-04-19T13:25:10.694Z</time></trkpt><trkpt lat="43.8915899" lon="12.4130345"><ele>502.0</ele><time>2026-04-19T13:25:11.696Z</time></trkpt><trkpt lat="43.8916465" lon="12.4131309"><ele>502.00000000000006</ele><time>2026-04-19T13:25:12.696Z</time></trkpt><trkpt lat="43.8916955" lon="12.4131953"><ele>502.0</ele><time>2026-04-19T13:25:13.69Z</time></trkpt><trkpt lat="43.8917388" lon="12.41311"><ele>502.0</ele><time>2026-04-19T13:25:16.709Z</time></trkpt><trkpt lat="43.8917008" lon="12.4130096"><ele>502.0</ele><time>2026-04-19T13:25:17.708Z</time></trkpt><trkpt lat="43.8916347" lon="12.4128978"><ele>502.00000000000006</ele><time>2026-04-19T13:25:18.696Z</time></trkpt><trkpt lat="43.8915582" lon="12.4127947"><ele>502.0</ele><time>2026-04-19T13:25:19.685Z</time></trkpt><trkpt lat="43.8914738" lon="12.4126907"><ele>502.0</ele><time>2026-04-19T13:25:20.693Z</time></trkpt><trkpt lat="43.8913832" lon="12.4125836"><ele>502.00000000000006</ele><time>2026-04-19T13:25:21.688Z</time></trkpt><trkpt lat="43.8913071" lon="12.4124976"><ele>502.00000000000006</ele><time>2026-04-19T13:25:22.697Z</time></trkpt><trkpt lat="43.8912527" lon="12.4124303"><ele>502.0</ele><time>2026-04-19T13:25:23.693Z</time></trkpt><trkpt lat="43.8912183" lon="12.4123567"><ele>502.0</ele><time>2026-04-19T13:25:24.689Z</time></trkpt><trkpt lat="43.8911623" lon="12.4122366"><ele>502.0</ele><time>2026-04-19T13:25:26.693Z</time></trkpt><trkpt lat="43.8910983" lon="12.4121109"><ele>502.00000000000006</ele><time>2026-04-19T13:25:28.685Z</time></trkpt><trkpt lat="43.8910708" lon="12.4120274"><ele>502.00000000000006</ele><time>2026-04-19T13:25:29.684Z</time></trkpt><trkpt lat="43.8910558" lon="12.4119252"><ele>502.0</ele><time>2026-04-19T13:25:30.68Z</time></trkpt><trkpt lat="43.8910503" lon="12.4117935"><ele>502.0</ele><time>2026-04-19T13:25:31.672Z</time></trkpt><trkpt lat="43.8910585" lon="12.4116431"><ele>502.0</ele><time>2026-04-19T13:25:32.675Z</time></trkpt><trkpt lat="43.891082" lon="12.4114835"><ele>502.00000000000006</ele><time>2026-04-19T13:25:33.671Z</time></trkpt><trkpt lat="43.8911027" lon="12.4113186"><ele>502.00000000000006</ele><time>2026-04-19T13:25:34.677Z</time></trkpt><trkpt lat="43.89113" lon="12.4111719"><ele>502.0</ele><time>2026-04-19T13:25:35.676Z</time></trkpt><trkpt lat="43.8911561" lon="12.411045"><ele>502.0</ele><time>2026-04-19T13:25:36.682Z</time></trkpt><trkpt lat="43.8911783" lon="12.4109377"><ele>500.6666666666667</ele><time>2026-04-19T13:25:37.675Z</time></trkpt><trkpt lat="43.8912258" lon="12.4108606"><ele>499.33333333333337</ele><time>2026-04-19T13:25:38.693Z</time></trkpt><trkpt lat="43.8912984" lon="12.410825"><ele>498.0</ele><time>2026-04-19T13:25:39.688Z</time></trkpt><trkpt lat="43.8913837" lon="12.4108162"><ele>496.66666666666663</ele><time>2026-04-19T13:25:40.701Z</time></trkpt><trkpt lat="43.8914698" lon="12.4107932"><ele>495.3333333333333</ele><time>2026-04-19T13:25:41.679Z</time></trkpt><trkpt lat="43.8915516" lon="12.4107523"><ele>494.0</ele><time>2026-04-19T13:25:42.69Z</time></trkpt><trkpt lat="43.8916178" lon="12.410687"><ele>494.0</ele><time>2026-04-19T13:25:43.688Z</time></trkpt><trkpt lat="43.8916501" lon="12.4105867"><ele>494.0</ele><time>2026-04-19T13:25:44.69Z</time></trkpt><trkpt lat="43.8916714" lon="12.4104455"><ele>494.0</ele><time>2026-04-19T13:25:45.685Z</time></trkpt><trkpt lat="43.8916842" lon="12.410279"><ele>494.0</ele><time>2026-04-19T13:25:46.693Z</time></trkpt><trkpt lat="43.8917026" lon="12.410118"><ele>494.0</ele><time>2026-04-19T13:25:47.692Z</time></trkpt><trkpt lat="43.8917199" lon="12.4099451"><ele>491.5</ele><time>2026-04-19T13:25:48.693Z</time></trkpt><trkpt lat="43.8917461" lon="12.4097543"><ele>489.0</ele><time>2026-04-19T13:25:49.694Z</time></trkpt><trkpt lat="43.891783" lon="12.4095591"><ele>486.5</ele><time>2026-04-19T13:25:50.693Z</time></trkpt><trkpt lat="43.8918366" lon="12.4093787"><ele>484.0</ele><time>2026-04-19T13:25:51.695Z</time></trkpt><trkpt lat="43.8918926" lon="12.4092093"><ele>476.25</ele><time>2026-04-19T13:25:52.694Z</time></trkpt><trkpt lat="43.8919326" lon="12.4090378"><ele>468.5</ele><time>2026-04-19T13:25:53.691Z</time></trkpt><trkpt lat="43.8919612" lon="12.4088511"><ele>460.75</ele><time>2026-04-19T13:25:54.698Z</time></trkpt><trkpt lat="43.8919756" lon="12.4086523"><ele>453.0</ele><time>2026-04-19T13:25:55.695Z</time></trkpt><trkpt lat="43.8919827" lon="12.408469"><ele>450.79999999999995</ele><time>2026-04-19T13:25:56.697Z</time></trkpt><trkpt lat="43.8919659" lon="12.4083021"><ele>448.59999999999997</ele><time>2026-04-19T13:25:57.699Z</time></trkpt><trkpt lat="43.8919424" lon="12.4081494"><ele>446.40000000000003</ele><time>2026-04-19T13:25:58.695Z</time></trkpt><trkpt lat="43.8919024" lon="12.4080263"><ele>444.20000000000005</ele><time>2026-04-19T13:25:59.691Z</time></trkpt><trkpt lat="43.8918474" lon="12.4079378"><ele>442.0</ele><time>2026-04-19T13:26:00.703Z</time></trkpt><trkpt lat="43.8917773" lon="12.4078878"><ele>443.33333333333337</ele><time>2026-04-19T13:26:01.698Z</time></trkpt><trkpt lat="43.8917043" lon="12.4078573"><ele>444.6666666666667</ele><time>2026-04-19T13:26:02.694Z</time></trkpt><trkpt lat="43.891641" lon="12.4078628"><ele>446.0</ele><time>2026-04-19T13:26:03.695Z</time></trkpt><trkpt lat="43.891581" lon="12.4079132"><ele>447.33333333333337</ele><time>2026-04-19T13:26:04.697Z</time></trkpt><trkpt lat="43.8914903" lon="12.4079809"><ele>448.6666666666667</ele><time>2026-04-19T13:26:05.682Z</time></trkpt><trkpt lat="43.8913978" lon="12.4080526"><ele>450.0</ele><time>2026-04-19T13:26:06.683Z</time></trkpt><trkpt lat="43.8912874" lon="12.4081202"><ele>450.25</ele><time>2026-04-19T13:26:07.683Z</time></trkpt><trkpt lat="43.8911646" lon="12.4081839"><ele>450.5</ele><time>2026-04-19T13:26:08.676Z</time></trkpt><trkpt lat="43.8910444" lon="12.408218"><ele>450.75</ele><time>2026-04-19T13:26:09.68Z</time></trkpt><trkpt lat="43.8909389" lon="12.4082346"><ele>451.0</ele><time>2026-04-19T13:26:10.693Z</time></trkpt><trkpt lat="43.8908493" lon="12.4082391"><ele>451.00000000000006</ele><time>2026-04-19T13:26:11.696Z</time></trkpt><trkpt lat="43.8907815" lon="12.4082331"><ele>451.0</ele><time>2026-04-19T13:26:12.678Z</time></trkpt><trkpt lat="43.8906753" lon="12.4081795"><ele>451.0</ele><time>2026-04-19T13:26:14.685Z</time></trkpt><trkpt lat="43.8906365" lon="12.4081065"><ele>451.0</ele><time>2026-04-19T13:26:15.687Z</time></trkpt><trkpt lat="43.8906223" lon="12.4079909"><ele>451.00000000000006</ele><time>2026-04-19T13:26:16.689Z</time></trkpt><trkpt lat="43.89064" lon="12.4078534"><ele>451.0</ele><time>2026-04-19T13:26:17.681Z</time></trkpt><trkpt lat="43.890678" lon="12.4077029"><ele>448.25</ele><time>2026-04-19T13:26:18.687Z</time></trkpt><trkpt lat="43.890721" lon="12.4075542"><ele>445.5</ele><time>2026-04-19T13:26:19.681Z</time></trkpt><trkpt lat="43.8907586" lon="12.4073855"><ele>442.75</ele><time>2026-04-19T13:26:20.69Z</time></trkpt><trkpt lat="43.8908035" lon="12.4072147"><ele>440.0</ele><time>2026-04-19T13:26:21.692Z</time></trkpt><trkpt lat="43.8908501" lon="12.4070497"><ele>437.75</ele><time>2026-04-19T13:26:22.686Z</time></trkpt><trkpt lat="43.8909005" lon="12.4068929"><ele>435.5</ele><time>2026-04-19T13:26:23.688Z</time></trkpt><trkpt lat="43.8909602" lon="12.4067444"><ele>433.25</ele><time>2026-04-19T13:26:24.688Z</time></trkpt><trkpt lat="43.8910158" lon="12.4066021"><ele>431.0</ele><time>2026-04-19T13:26:25.688Z</time></trkpt><trkpt lat="43.8910705" lon="12.4064697"><ele>431.0</ele><time>2026-04-19T13:26:26.69Z</time></trkpt><trkpt lat="43.8911225" lon="12.4063514"><ele>431.0</ele><time>2026-04-19T13:26:27.688Z</time></trkpt><trkpt lat="43.8911569" lon="12.4062433"><ele>431.0</ele><time>2026-04-19T13:26:28.696Z</time></trkpt><trkpt lat="43.891161" lon="12.4061543"><ele>431.0</ele><time>2026-04-19T13:26:29.688Z</time></trkpt><trkpt lat="43.8910455" lon="12.4060788"><ele>431.0</ele><time>2026-04-19T13:26:31.688Z</time></trkpt><trkpt lat="43.8909384" lon="12.4060956"><ele>426.3333333333333</ele><time>2026-04-19T13:26:32.694Z</time></trkpt><trkpt lat="43.8908419" lon="12.4061368"><ele>421.66666666666663</ele><time>2026-04-19T13:26:33.685Z</time></trkpt><trkpt lat="43.8907584" lon="12.406179"><ele>417.0</ele><time>2026-04-19T13:26:34.687Z</time></trkpt><trkpt lat="43.8906889" lon="12.4062076"><ele>412.33333333333337</ele><time>2026-04-19T13:26:35.691Z</time></trkpt><trkpt lat="43.8905865" lon="12.4061563"><ele>407.6666666666667</ele><time>2026-04-19T13:26:37.696Z</time></trkpt><trkpt lat="43.890567" lon="12.4060657"><ele>403.0</ele><time>2026-04-19T13:26:38.691Z</time></trkpt><trkpt lat="43.890584" lon="12.4059458"><ele>403.00000000000006</ele><time>2026-04-19T13:26:39.685Z</time></trkpt><trkpt lat="43.8906212" lon="12.4058171"><ele>403.0</ele><time>2026-04-19T13:26:40.686Z</time></trkpt><trkpt lat="43.8906629" lon="12.4056815"><ele>403.0</ele><time>2026-04-19T13:26:41.687Z</time></trkpt><trkpt lat="43.890687" lon="12.4055705"><ele>403.0</ele><time>2026-04-19T13:26:42.712Z</time></trkpt><trkpt lat="43.8906355" lon="12.4054807"><ele>403.00000000000006</ele><time>2026-04-19T13:26:44.692Z</time></trkpt><trkpt lat="43.8905642" lon="12.4054747"><ele>403.0</ele><time>2026-04-19T13:26:45.687Z</time></trkpt><trkpt lat="43.8904558" lon="12.4055177"><ele>403.0</ele><time>2026-04-19T13:26:46.698Z</time></trkpt><trkpt lat="43.8903513" lon="12.4056103"><ele>403.0</ele><time>2026-04-19T13:26:47.686Z</time></trkpt><trkpt lat="43.8902513" lon="12.4057236"><ele>403.0</ele><time>2026-04-19T13:26:48.683Z</time></trkpt><trkpt lat="43.8901686" lon="12.4058307"><ele>403.0</ele><time>2026-04-19T13:26:49.685Z</time></trkpt><trkpt lat="43.8900868" lon="12.4059167"><ele>400.6666666666667</ele><time>2026-04-19T13:26:50.697Z</time></trkpt><trkpt lat="43.8900025" lon="12.4059553"><ele>398.33333333333337</ele><time>2026-04-19T13:26:51.697Z</time></trkpt><trkpt lat="43.8899222" lon="12.4059496"><ele>396.0</ele><time>2026-04-19T13:26:52.697Z</time></trkpt><trkpt lat="43.889852" lon="12.4058871"><ele>393.66666666666663</ele><time>2026-04-19T13:26:53.699Z</time></trkpt><trkpt lat="43.8898163" lon="12.4057805"><ele>391.3333333333333</ele><time>2026-04-19T13:26:54.701Z</time></trkpt><trkpt lat="43.8898174" lon="12.4056566"><ele>389.0</ele><time>2026-04-19T13:26:55.697Z</time></trkpt><trkpt lat="43.8898481" lon="12.4054875"><ele>386.5</ele><time>2026-04-19T13:26:56.689Z</time></trkpt><trkpt lat="43.8898813" lon="12.4053142"><ele>384.0</ele><time>2026-04-19T13:26:57.681Z</time></trkpt><trkpt lat="43.8899193" lon="12.4051223"><ele>381.5</ele><time>2026-04-19T13:26:58.688Z</time></trkpt><trkpt lat="43.8899557" lon="12.4049488"><ele>379.0</ele><time>2026-04-19T13:26:59.687Z</time></trkpt><trkpt lat="43.8899837" lon="12.4047978"><ele>379.0</ele><time>2026-04-19T13:27:00.694Z</time></trkpt><trkpt lat="43.8899931" lon="12.404686"><ele>379.0</ele><time>2026-04-19T13:27:01.691Z</time></trkpt><trkpt lat="43.8899604" lon="12.4045997"><ele>379.0</ele><time>2026-04-19T13:27:02.697Z</time></trkpt><trkpt lat="43.8898844" lon="12.4045363"><ele>379.0</ele><time>2026-04-19T13:27:03.695Z</time></trkpt><trkpt lat="43.8897881" lon="12.4045164"><ele>379.0</ele><time>2026-04-19T13:27:04.694Z</time></trkpt><trkpt lat="43.8896819" lon="12.4045555"><ele>379.0</ele><time>2026-04-19T13:27:05.697Z</time></trkpt><trkpt lat="43.8895669" lon="12.4046109"><ele>379.0</ele><time>2026-04-19T13:27:06.687Z</time></trkpt><trkpt lat="43.8894487" lon="12.404663"><ele>379.0</ele><time>2026-04-19T13:27:07.688Z</time></trkpt><trkpt lat="43.8893324" lon="12.404713"><ele>379.0</ele><time>2026-04-19T13:27:08.691Z</time></trkpt><trkpt lat="43.8892251" lon="12.404746"><ele>379.0</ele><time>2026-04-19T13:27:09.689Z</time></trkpt><trkpt lat="43.8891302" lon="12.4047357"><ele>378.79999999999995</ele><time>2026-04-19T13:27:10.684Z</time></trkpt><trkpt lat="43.889044" lon="12.4047352"><ele>378.59999999999997</ele><time>2026-04-19T13:27:11.689Z</time></trkpt><trkpt lat="43.8889579" lon="12.4047484"><ele>378.4</ele><time>2026-04-19T13:27:12.684Z</time></trkpt><trkpt lat="43.88887" lon="12.4047573"><ele>378.2</ele><time>2026-04-19T13:27:13.703Z</time></trkpt><trkpt lat="43.8887777" lon="12.4047407"><ele>378.0</ele><time>2026-04-19T13:27:14.688Z</time></trkpt><trkpt lat="43.8886771" lon="12.4047051"><ele>378.0</ele><time>2026-04-19T13:27:15.697Z</time></trkpt><trkpt lat="43.8885653" lon="12.404675"><ele>378.0</ele><time>2026-04-19T13:27:16.682Z</time></trkpt><trkpt lat="43.8884436" lon="12.4046474"><ele>378.0</ele><time>2026-04-19T13:27:17.698Z</time></trkpt><trkpt lat="43.888317" lon="12.4046111"><ele>378.0</ele><time>2026-04-19T13:27:18.703Z</time></trkpt><trkpt lat="43.8881972" lon="12.4045629"><ele>374.5</ele><time>2026-04-19T13:27:19.702Z</time></trkpt><trkpt lat="43.8880802" lon="12.4044987"><ele>371.0</ele><time>2026-04-19T13:27:20.703Z</time></trkpt><trkpt lat="43.88796" lon="12.4044108"><ele>367.5</ele><time>2026-04-19T13:27:21.698Z</time></trkpt><trkpt lat="43.8878408" lon="12.4043228"><ele>364.0</ele><time>2026-04-19T13:27:22.696Z</time></trkpt><trkpt lat="43.8877223" lon="12.4042554"><ele>364.0</ele><time>2026-04-19T13:27:23.701Z</time></trkpt><trkpt lat="43.8876162" lon="12.4042189"><ele>364.0</ele><time>2026-04-19T13:27:24.693Z</time></trkpt><trkpt lat="43.8875165" lon="12.4042036"><ele>364.0</ele><time>2026-04-19T13:27:25.701Z</time></trkpt><trkpt lat="43.8874265" lon="12.4041793"><ele>364.0</ele><time>2026-04-19T13:27:26.697Z</time></trkpt><trkpt lat="43.8873412" lon="12.404153"><ele>364.0</ele><time>2026-04-19T13:27:27.699Z</time></trkpt><trkpt lat="43.8872583" lon="12.4041212"><ele>364.3333333333333</ele><time>2026-04-19T13:27:28.703Z</time></trkpt><trkpt lat="43.8871791" lon="12.4040798"><ele>364.66666666666663</ele><time>2026-04-19T13:27:29.707Z</time></trkpt><trkpt lat="43.8871164" lon="12.4040198"><ele>365.0</ele><time>2026-04-19T13:27:30.707Z</time></trkpt><trkpt lat="43.8870784" lon="12.4039284"><ele>365.3333333333333</ele><time>2026-04-19T13:27:31.707Z</time></trkpt><trkpt lat="43.887077" lon="12.4038152"><ele>365.6666666666667</ele><time>2026-04-19T13:27:32.706Z</time></trkpt><trkpt lat="43.8871063" lon="12.4036924"><ele>366.0</ele><time>2026-04-19T13:27:33.703Z</time></trkpt><trkpt lat="43.8871541" lon="12.4035563"><ele>363.0</ele><time>2026-04-19T13:27:34.7Z</time></trkpt><trkpt lat="43.8872054" lon="12.4033945"><ele>360.0</ele><time>2026-04-19T13:27:35.702Z</time></trkpt><trkpt lat="43.8872568" lon="12.4032409"><ele>357.0</ele><time>2026-04-19T13:27:36.7Z</time></trkpt><trkpt lat="43.8873151" lon="12.4030993"><ele>354.0</ele><time>2026-04-19T13:27:37.697Z</time></trkpt><trkpt lat="43.8873783" lon="12.4029621"><ele>351.79999999999995</ele><time>2026-04-19T13:27:38.696Z</time></trkpt><trkpt lat="43.8874382" lon="12.4028187"><ele>349.59999999999997</ele><time>2026-04-19T13:27:39.699Z</time></trkpt><trkpt lat="43.8874966" lon="12.4026856"><ele>347.4</ele><time>2026-04-19T13:27:40.7Z</time></trkpt><trkpt lat="43.8875384" lon="12.4025645"><ele>345.2</ele><time>2026-04-19T13:27:41.694Z</time></trkpt><trkpt lat="43.8875603" lon="12.4024363"><ele>343.0</ele><time>2026-04-19T13:27:42.694Z</time></trkpt><trkpt lat="43.8875707" lon="12.4023032"><ele>343.0</ele><time>2026-04-19T13:27:43.698Z</time></trkpt><trkpt lat="43.8875665" lon="12.4021668"><ele>343.0</ele><time>2026-04-19T13:27:44.721Z</time></trkpt><trkpt lat="43.887533" lon="12.4020178"><ele>343.0</ele><time>2026-04-19T13:27:45.696Z</time></trkpt><trkpt lat="43.8874761" lon="12.4018713"><ele>343.0</ele><time>2026-04-19T13:27:46.702Z</time></trkpt><trkpt lat="43.8874133" lon="12.4017279"><ele>341.5</ele><time>2026-04-19T13:27:47.703Z</time></trkpt><trkpt lat="43.8873616" lon="12.4015967"><ele>340.0</ele><time>2026-04-19T13:27:48.693Z</time></trkpt><trkpt lat="43.8873235" lon="12.4014847"><ele>338.5</ele><time>2026-04-19T13:27:49.697Z</time></trkpt><trkpt lat="43.8872918" lon="12.4014057"><ele>337.0</ele><time>2026-04-19T13:27:50.699Z</time></trkpt><trkpt lat="43.8872632" lon="12.4013268"><ele>335.5</ele><time>2026-04-19T13:27:51.702Z</time></trkpt><trkpt lat="43.8872327" lon="12.4012393"><ele>334.0</ele><time>2026-04-19T13:27:52.7Z</time></trkpt><trkpt lat="43.8872026" lon="12.4011423"><ele>333.79999999999995</ele><time>2026-04-19T13:27:53.704Z</time></trkpt><trkpt lat="43.8871722" lon="12.4010262"><ele>333.59999999999997</ele><time>2026-04-19T13:27:54.7Z</time></trkpt><trkpt lat="43.8871302" lon="12.4008959"><ele>333.4</ele><time>2026-04-19T13:27:55.706Z</time></trkpt><trkpt lat="43.8870757" lon="12.4007751"><ele>333.2</ele><time>2026-04-19T13:27:56.702Z</time></trkpt><trkpt lat="43.8870013" lon="12.4006888"><ele>333.0</ele><time>2026-04-19T13:27:57.7Z</time></trkpt><trkpt lat="43.886904" lon="12.4006521"><ele>333.0</ele><time>2026-04-19T13:27:58.707Z</time></trkpt><trkpt lat="43.8867947" lon="12.4006616"><ele>333.0</ele><time>2026-04-19T13:27:59.7Z</time></trkpt><trkpt lat="43.8866892" lon="12.400693"><ele>333.0</ele><time>2026-04-19T13:28:00.697Z</time></trkpt><trkpt lat="43.8865967" lon="12.400696"><ele>333.0</ele><time>2026-04-19T13:28:01.697Z</time></trkpt><trkpt lat="43.8865243" lon="12.4006605"><ele>333.0</ele><time>2026-04-19T13:28:02.7Z</time></trkpt><trkpt lat="43.886481" lon="12.4005904"><ele>334.8571428571429</ele><time>2026-04-19T13:28:03.698Z</time></trkpt><trkpt lat="43.8864754" lon="12.4004888"><ele>336.71428571428567</ele><time>2026-04-19T13:28:04.7Z</time></trkpt><trkpt lat="43.8864957" lon="12.4003922"><ele>338.57142857142856</ele><time>2026-04-19T13:28:05.695Z</time></trkpt><trkpt lat="43.8865347" lon="12.4003082"><ele>340.42857142857144</ele><time>2026-04-19T13:28:06.7Z</time></trkpt><trkpt lat="43.8865832" lon="12.4002525"><ele>342.28571428571433</ele><time>2026-04-19T13:28:07.705Z</time></trkpt><trkpt lat="43.8866523" lon="12.4002446"><ele>344.1428571428571</ele><time>2026-04-19T13:28:08.704Z</time></trkpt><trkpt lat="43.886747" lon="12.4002601"><ele>346.0</ele><time>2026-04-19T13:28:09.701Z</time></trkpt><trkpt lat="43.8868693" lon="12.4002763"><ele>346.0</ele><time>2026-04-19T13:28:10.696Z</time></trkpt><trkpt lat="43.8869845" lon="12.4002631"><ele>346.0</ele><time>2026-04-19T13:28:11.692Z</time></trkpt><trkpt lat="43.8870701" lon="12.4002317"><ele>346.0</ele><time>2026-04-19T13:28:12.703Z</time></trkpt><trkpt lat="43.8871511" lon="12.4001192"><ele>346.0</ele><time>2026-04-19T13:28:14.706Z</time></trkpt><trkpt lat="43.8871419" lon="12.3999647"><ele>346.0</ele><time>2026-04-19T13:28:16.699Z</time></trkpt><trkpt lat="43.8870201" lon="12.3998823"><ele>346.0</ele><time>2026-04-19T13:28:18.703Z</time></trkpt><trkpt lat="43.8869271" lon="12.3998427"><ele>346.0</ele><time>2026-04-19T13:28:19.697Z</time></trkpt><trkpt lat="43.886832" lon="12.3997828"><ele>346.0</ele><time>2026-04-19T13:28:20.699Z</time></trkpt><trkpt lat="43.8867604" lon="12.3997066"><ele>346.0</ele><time>2026-04-19T13:28:21.697Z</time></trkpt><trkpt lat="43.8867245" lon="12.3996139"><ele>346.0</ele><time>2026-04-19T13:28:22.705Z</time></trkpt><trkpt lat="43.8867299" lon="12.3995213"><ele>346.0</ele><time>2026-04-19T13:28:23.703Z</time></trkpt><trkpt lat="43.8867655" lon="12.399423"><ele>349.4</ele><time>2026-04-19T13:28:24.697Z</time></trkpt><trkpt lat="43.8868305" lon="12.3993496"><ele>352.8</ele><time>2026-04-19T13:28:25.699Z</time></trkpt><trkpt lat="43.8869126" lon="12.3992905"><ele>356.2</ele><time>2026-04-19T13:28:26.7Z</time></trkpt><trkpt lat="43.8870074" lon="12.3992437"><ele>359.59999999999997</ele><time>2026-04-19T13:28:27.703Z</time></trkpt><trkpt lat="43.8871227" lon="12.3992014"><ele>363.0</ele><time>2026-04-19T13:28:28.702Z</time></trkpt><trkpt lat="43.8872584" lon="12.3991513"><ele>363.0</ele><time>2026-04-19T13:28:29.702Z</time></trkpt><trkpt lat="43.8873859" lon="12.3991115"><ele>363.0</ele><time>2026-04-19T13:28:30.703Z</time></trkpt><trkpt lat="43.8874901" lon="12.3990651"><ele>363.0</ele><time>2026-04-19T13:28:31.702Z</time></trkpt><trkpt lat="43.887572" lon="12.3990001"><ele>363.0</ele><time>2026-04-19T13:28:32.71Z</time></trkpt><trkpt lat="43.8876228" lon="12.3989168"><ele>363.0</ele><time>2026-04-19T13:28:33.715Z</time></trkpt><trkpt lat="43.8876461" lon="12.3988075"><ele>363.79999999999995</ele><time>2026-04-19T13:28:34.701Z</time></trkpt><trkpt lat="43.8876347" lon="12.3986712"><ele>364.6</ele><time>2026-04-19T13:28:35.701Z</time></trkpt><trkpt lat="43.8876085" lon="12.398528"><ele>365.4</ele><time>2026-04-19T13:28:36.696Z</time></trkpt><trkpt lat="43.8875749" lon="12.3983817"><ele>366.20000000000005</ele><time>2026-04-19T13:28:37.698Z</time></trkpt><trkpt lat="43.8875337" lon="12.3982331"><ele>367.0</ele><time>2026-04-19T13:28:38.696Z</time></trkpt><trkpt lat="43.8874905" lon="12.3980796"><ele>371.40000000000003</ele><time>2026-04-19T13:28:39.699Z</time></trkpt><trkpt lat="43.8874595" lon="12.3979335"><ele>375.8</ele><time>2026-04-19T13:28:40.693Z</time></trkpt><trkpt lat="43.8874471" lon="12.3977992"><ele>380.2</ele><time>2026-04-19T13:28:41.7Z</time></trkpt><trkpt lat="43.8874652" lon="12.3976594"><ele>384.6</ele><time>2026-04-19T13:28:42.698Z</time></trkpt><trkpt lat="43.8874909" lon="12.3975329"><ele>389.0</ele><time>2026-04-19T13:28:43.7Z</time></trkpt><trkpt lat="43.8875073" lon="12.397425"><ele>389.0</ele><time>2026-04-19T13:28:44.7Z</time></trkpt><trkpt lat="43.8874702" lon="12.397308"><ele>389.0</ele><time>2026-04-19T13:28:46.735Z</time></trkpt><trkpt lat="43.8873833" lon="12.3972495"><ele>389.0</ele><time>2026-04-19T13:28:48.704Z</time></trkpt><trkpt lat="43.8872979" lon="12.3972325"><ele>389.0</ele><time>2026-04-19T13:28:49.705Z</time></trkpt><trkpt lat="43.8871898" lon="12.3972078"><ele>389.0</ele><time>2026-04-19T13:28:50.699Z</time></trkpt><trkpt lat="43.8870707" lon="12.3971818"><ele>391.25</ele><time>2026-04-19T13:28:51.697Z</time></trkpt><trkpt lat="43.8869472" lon="12.3971505"><ele>393.5</ele><time>2026-04-19T13:28:52.698Z</time></trkpt><trkpt lat="43.8868181" lon="12.3971177"><ele>395.75</ele><time>2026-04-19T13:28:53.7Z</time></trkpt><trkpt lat="43.8866922" lon="12.3971008"><ele>398.0</ele><time>2026-04-19T13:28:54.698Z</time></trkpt><trkpt lat="43.8865641" lon="12.3970765"><ele>399.25</ele><time>2026-04-19T13:28:55.699Z</time></trkpt><trkpt lat="43.886433" lon="12.3970565"><ele>400.5</ele><time>2026-04-19T13:28:56.699Z</time></trkpt><trkpt lat="43.8863033" lon="12.397027"><ele>401.75</ele><time>2026-04-19T13:28:57.698Z</time></trkpt><trkpt lat="43.8861642" lon="12.397001"><ele>403.0</ele><time>2026-04-19T13:28:58.698Z</time></trkpt><trkpt lat="43.8860228" lon="12.3969743"><ele>404.59999999999997</ele><time>2026-04-19T13:28:59.699Z</time></trkpt><trkpt lat="43.8858927" lon="12.3969453"><ele>406.2</ele><time>2026-04-19T13:29:00.699Z</time></trkpt><trkpt lat="43.8857725" lon="12.3969244"><ele>407.8</ele><time>2026-04-19T13:29:01.695Z</time></trkpt><trkpt lat="43.8856706" lon="12.3969136"><ele>409.4</ele><time>2026-04-19T13:29:02.699Z</time></trkpt><trkpt lat="43.8855775" lon="12.396906"><ele>411.0</ele><time>2026-04-19T13:29:03.704Z</time></trkpt><trkpt lat="43.8854999" lon="12.3968843"><ele>411.0</ele><time>2026-04-19T13:29:04.701Z</time></trkpt><trkpt lat="43.885414" lon="12.3968295"><ele>411.0</ele><time>2026-04-19T13:29:05.694Z</time></trkpt><trkpt lat="43.8853142" lon="12.396757"><ele>411.0</ele><time>2026-04-19T13:29:06.695Z</time></trkpt><trkpt lat="43.8852044" lon="12.3966798"><ele>411.0</ele><time>2026-04-19T13:29:07.701Z</time></trkpt><trkpt lat="43.885081" lon="12.3966189"><ele>411.25</ele><time>2026-04-19T13:29:08.708Z</time></trkpt><trkpt lat="43.8849525" lon="12.396583"><ele>411.5</ele><time>2026-04-19T13:29:09.7Z</time></trkpt><trkpt lat="43.8848261" lon="12.3965547"><ele>411.75</ele><time>2026-04-19T13:29:10.701Z</time></trkpt><trkpt lat="43.8847101" lon="12.3965265"><ele>412.0</ele><time>2026-04-19T13:29:11.701Z</time></trkpt><trkpt lat="43.8846012" lon="12.3964888"><ele>412.0</ele><time>2026-04-19T13:29:12.704Z</time></trkpt><trkpt lat="43.8845089" lon="12.3964185"><ele>412.0</ele><time>2026-04-19T13:29:13.702Z</time></trkpt><trkpt lat="43.8844242" lon="12.3963101"><ele>412.0</ele><time>2026-04-19T13:29:14.7Z</time></trkpt><trkpt lat="43.8843263" lon="12.3961735"><ele>412.0</ele><time>2026-04-19T13:29:15.696Z</time></trkpt><trkpt lat="43.8842108" lon="12.3960257"><ele>414.33333333333337</ele><time>2026-04-19T13:29:16.711Z</time></trkpt><trkpt lat="43.8840865" lon="12.3958644"><ele>416.66666666666663</ele><time>2026-04-19T13:29:17.692Z</time></trkpt><trkpt lat="43.8839644" lon="12.3957189"><ele>419.0</ele><time>2026-04-19T13:29:18.694Z</time></trkpt><trkpt lat="43.8838559" lon="12.3955813"><ele>422.0</ele><time>2026-04-19T13:29:19.693Z</time></trkpt><trkpt lat="43.8837697" lon="12.3954597"><ele>425.0</ele><time>2026-04-19T13:29:20.697Z</time></trkpt><trkpt lat="43.883676" lon="12.3953366"><ele>428.0</ele><time>2026-04-19T13:29:21.698Z</time></trkpt><trkpt lat="43.8835715" lon="12.3952161"><ele>431.0</ele><time>2026-04-19T13:29:22.701Z</time></trkpt><trkpt lat="43.8834652" lon="12.3950978"><ele>432.0</ele><time>2026-04-19T13:29:23.7Z</time></trkpt><trkpt lat="43.8833678" lon="12.394977"><ele>433.0</ele><time>2026-04-19T13:29:24.701Z</time></trkpt><trkpt lat="43.8832594" lon="12.3948555"><ele>434.0</ele><time>2026-04-19T13:29:25.698Z</time></trkpt><trkpt lat="43.8831514" lon="12.3947319"><ele>435.0</ele><time>2026-04-19T13:29:26.699Z</time></trkpt><trkpt lat="43.8830413" lon="12.3946295"><ele>436.6</ele><time>2026-04-19T13:29:27.707Z</time></trkpt><trkpt lat="43.8829784" lon="12.3945548"><ele>438.2</ele><time>2026-04-19T13:29:28.708Z</time></trkpt><trkpt lat="43.8829522" lon="12.394474"><ele>439.79999999999995</ele><time>2026-04-19T13:29:30.703Z</time></trkpt><trkpt lat="43.8830417" lon="12.394372"><ele>441.4</ele><time>2026-04-19T13:29:32.708Z</time></trkpt><trkpt lat="43.883115" lon="12.3942862"><ele>443.0</ele><time>2026-04-19T13:29:33.699Z</time></trkpt><trkpt lat="43.8832073" lon="12.394203"><ele>443.0</ele><time>2026-04-19T13:29:34.691Z</time></trkpt><trkpt lat="43.8833029" lon="12.3941254"><ele>443.0</ele><time>2026-04-19T13:29:35.696Z</time></trkpt><trkpt lat="43.8834103" lon="12.3940594"><ele>443.0</ele><time>2026-04-19T13:29:36.692Z</time></trkpt><trkpt lat="43.8835274" lon="12.3939937"><ele>443.0</ele><time>2026-04-19T13:29:37.695Z</time></trkpt><trkpt lat="43.8836549" lon="12.3939501"><ele>442.59999999999997</ele><time>2026-04-19T13:29:38.702Z</time></trkpt><trkpt lat="43.8837639" lon="12.3939203"><ele>442.19999999999993</ele><time>2026-04-19T13:29:39.702Z</time></trkpt><trkpt lat="43.8838678" lon="12.3938861"><ele>441.8</ele><time>2026-04-19T13:29:40.7Z</time></trkpt><trkpt lat="43.8839748" lon="12.3938449"><ele>441.4</ele><time>2026-04-19T13:29:41.696Z</time></trkpt><trkpt lat="43.8840793" lon="12.3937932"><ele>441.0</ele><time>2026-04-19T13:29:42.701Z</time></trkpt><trkpt lat="43.8841762" lon="12.3937491"><ele>441.8</ele><time>2026-04-19T13:29:43.706Z</time></trkpt><trkpt lat="43.8842596" lon="12.3937022"><ele>442.6</ele><time>2026-04-19T13:29:44.706Z</time></trkpt><trkpt lat="43.8843206" lon="12.3936576"><ele>443.4</ele><time>2026-04-19T13:29:45.702Z</time></trkpt><trkpt lat="43.8843692" lon="12.3935412"><ele>444.2</ele><time>2026-04-19T13:29:47.72Z</time></trkpt><trkpt lat="43.8843979" lon="12.3934201"><ele>445.0</ele><time>2026-04-19T13:29:48.706Z</time></trkpt><trkpt lat="43.88443" lon="12.3932525"><ele>442.75</ele><time>2026-04-19T13:29:49.691Z</time></trkpt><trkpt lat="43.8844607" lon="12.3930758"><ele>440.5</ele><time>2026-04-19T13:29:50.695Z</time></trkpt><trkpt lat="43.8844731" lon="12.3929051"><ele>438.25</ele><time>2026-04-19T13:29:51.696Z</time></trkpt><trkpt lat="43.8844708" lon="12.3927496"><ele>436.0</ele><time>2026-04-19T13:29:52.697Z</time></trkpt><trkpt lat="43.8844601" lon="12.3926061"><ele>433.25</ele><time>2026-04-19T13:29:53.697Z</time></trkpt><trkpt lat="43.8844464" lon="12.3924513"><ele>430.5</ele><time>2026-04-19T13:29:54.702Z</time></trkpt><trkpt lat="43.8844278" lon="12.3922816"><ele>427.75</ele><time>2026-04-19T13:29:55.702Z</time></trkpt><trkpt lat="43.8844087" lon="12.392111"><ele>425.0</ele><time>2026-04-19T13:29:56.7Z</time></trkpt><trkpt lat="43.8843999" lon="12.3919469"><ele>424.25</ele><time>2026-04-19T13:29:57.696Z</time></trkpt><trkpt lat="43.8844018" lon="12.3917824"><ele>423.5</ele><time>2026-04-19T13:29:58.699Z</time></trkpt><trkpt lat="43.8844062" lon="12.3916069"><ele>422.75</ele><time>2026-04-19T13:29:59.688Z</time></trkpt><trkpt lat="43.8844076" lon="12.3914284"><ele>422.0</ele><time>2026-04-19T13:30:00.698Z</time></trkpt><trkpt lat="43.8843972" lon="12.3912492"><ele>420.75</ele><time>2026-04-19T13:30:01.7Z</time></trkpt><trkpt lat="43.8843757" lon="12.3910758"><ele>419.5</ele><time>2026-04-19T13:30:02.695Z</time></trkpt><trkpt lat="43.8843496" lon="12.3909108"><ele>418.25</ele><time>2026-04-19T13:30:03.696Z</time></trkpt><trkpt lat="43.8843168" lon="12.390759"><ele>417.0</ele><time>2026-04-19T13:30:04.695Z</time></trkpt><trkpt lat="43.8842779" lon="12.390618"><ele>418.25</ele><time>2026-04-19T13:30:05.693Z</time></trkpt><trkpt lat="43.8842292" lon="12.3904835"><ele>419.5</ele><time>2026-04-19T13:30:06.697Z</time></trkpt><trkpt lat="43.8841739" lon="12.3903515"><ele>420.75</ele><time>2026-04-19T13:30:07.688Z</time></trkpt><trkpt lat="43.884124" lon="12.3901978"><ele>422.0</ele><time>2026-04-19T13:30:08.683Z</time></trkpt><trkpt lat="43.88408" lon="12.3900256"><ele>422.0</ele><time>2026-04-19T13:30:09.696Z</time></trkpt><trkpt lat="43.8840473" lon="12.3898416"><ele>422.0</ele><time>2026-04-19T13:30:10.694Z</time></trkpt><trkpt lat="43.8840172" lon="12.3896662"><ele>422.0</ele><time>2026-04-19T13:30:11.702Z</time></trkpt><trkpt lat="43.8839768" lon="12.3895122"><ele>422.0</ele><time>2026-04-19T13:30:12.69Z</time></trkpt><trkpt lat="43.8839312" lon="12.389365"><ele>419.20000000000005</ele><time>2026-04-19T13:30:13.691Z</time></trkpt><trkpt lat="43.8838784" lon="12.38922"><ele>416.4</ele><time>2026-04-19T13:30:14.686Z</time></trkpt><trkpt lat="43.8838318" lon="12.3890844"><ele>413.6</ele><time>2026-04-19T13:30:15.693Z</time></trkpt><trkpt lat="43.8837983" lon="12.3889919"><ele>410.79999999999995</ele><time>2026-04-19T13:30:16.679Z</time></trkpt><trkpt lat="43.883703" lon="12.3888778"><ele>408.0</ele><time>2026-04-19T13:30:18.704Z</time></trkpt><trkpt lat="43.8836437" lon="12.3888287"><ele>405.2</ele><time>2026-04-19T13:30:19.686Z</time></trkpt><trkpt lat="43.8835669" lon="12.3887139"><ele>402.4</ele><time>2026-04-19T13:30:21.679Z</time></trkpt><trkpt lat="43.8835641" lon="12.3885295"><ele>399.59999999999997</ele><time>2026-04-19T13:30:23.682Z</time></trkpt><trkpt lat="43.883589" lon="12.3884073"><ele>396.79999999999995</ele><time>2026-04-19T13:30:24.677Z</time></trkpt><trkpt lat="43.883604" lon="12.3882772"><ele>394.0</ele><time>2026-04-19T13:30:25.679Z</time></trkpt><trkpt lat="43.8836012" lon="12.3881581"><ele>394.0</ele><time>2026-04-19T13:30:26.678Z</time></trkpt><trkpt lat="43.8835784" lon="12.3880398"><ele>394.0</ele><time>2026-04-19T13:30:27.692Z</time></trkpt><trkpt lat="43.8835245" lon="12.3879054"><ele>394.0</ele><time>2026-04-19T13:30:28.695Z</time></trkpt><trkpt lat="43.8834714" lon="12.3877849"><ele>394.0</ele><time>2026-04-19T13:30:29.694Z</time></trkpt><trkpt lat="43.8834653" lon="12.3876882"><ele>394.0</ele><time>2026-04-19T13:30:30.689Z</time></trkpt><trkpt lat="43.8835575" lon="12.3875412"><ele>394.6666666666667</ele><time>2026-04-19T13:30:32.692Z</time></trkpt><trkpt lat="43.8836315" lon="12.3874719"><ele>395.33333333333337</ele><time>2026-04-19T13:30:33.691Z</time></trkpt><trkpt lat="43.8837062" lon="12.3874225"><ele>396.0</ele><time>2026-04-19T13:30:34.687Z</time></trkpt><trkpt lat="43.8837899" lon="12.3873636"><ele>396.66666666666663</ele><time>2026-04-19T13:30:35.685Z</time></trkpt><trkpt lat="43.8838454" lon="12.3872904"><ele>397.3333333333333</ele><time>2026-04-19T13:30:36.69Z</time></trkpt><trkpt lat="43.8838469" lon="12.3871511"><ele>398.0</ele><time>2026-04-19T13:30:38.692Z</time></trkpt><trkpt lat="43.8837897" lon="12.3870901"><ele>400.4</ele><time>2026-04-19T13:30:39.687Z</time></trkpt><trkpt lat="43.8837189" lon="12.3870386"><ele>402.79999999999995</ele><time>2026-04-19T13:30:40.684Z</time></trkpt><trkpt lat="43.8836437" lon="12.3869927"><ele>405.2</ele><time>2026-04-19T13:30:41.693Z</time></trkpt><trkpt lat="43.8835642" lon="12.3869376"><ele>407.6</ele><time>2026-04-19T13:30:42.695Z</time></trkpt><trkpt lat="43.8834788" lon="12.3868715"><ele>410.0</ele><time>2026-04-19T13:30:43.695Z</time></trkpt><trkpt lat="43.8833822" lon="12.3867855"><ele>410.0</ele><time>2026-04-19T13:30:44.702Z</time></trkpt><trkpt lat="43.8832838" lon="12.3866855"><ele>410.0</ele><time>2026-04-19T13:30:45.699Z</time></trkpt><trkpt lat="43.8831894" lon="12.3865748"><ele>410.0</ele><time>2026-04-19T13:30:46.695Z</time></trkpt><trkpt lat="43.8830995" lon="12.3864481"><ele>410.0</ele><time>2026-04-19T13:30:47.692Z</time></trkpt><trkpt lat="43.8830034" lon="12.3862971"><ele>413.5</ele><time>2026-04-19T13:30:48.693Z</time></trkpt><trkpt lat="43.8829012" lon="12.3861458"><ele>417.0</ele><time>2026-04-19T13:30:49.704Z</time></trkpt><trkpt lat="43.8828034" lon="12.3860202"><ele>420.5</ele><time>2026-04-19T13:30:50.702Z</time></trkpt><trkpt lat="43.8826982" lon="12.3859383"><ele>424.0</ele><time>2026-04-19T13:30:51.695Z</time></trkpt><trkpt lat="43.882601" lon="12.3858442"><ele>423.0</ele><time>2026-04-19T13:30:52.696Z</time></trkpt><trkpt lat="43.8825248" lon="12.3857365"><ele>422.0</ele><time>2026-04-19T13:30:53.693Z</time></trkpt><trkpt lat="43.8824621" lon="12.3856117"><ele>421.0</ele><time>2026-04-19T13:30:54.699Z</time></trkpt><trkpt lat="43.8824094" lon="12.3854469"><ele>420.0</ele><time>2026-04-19T13:30:55.692Z</time></trkpt><trkpt lat="43.8823695" lon="12.3852527"><ele>422.25</ele><time>2026-04-19T13:30:56.697Z</time></trkpt><trkpt lat="43.8823209" lon="12.3850712"><ele>424.5</ele><time>2026-04-19T13:30:57.692Z</time></trkpt><trkpt lat="43.882281" lon="12.3849072"><ele>426.75</ele><time>2026-04-19T13:30:58.696Z</time></trkpt><trkpt lat="43.8822634" lon="12.3847529"><ele>429.0</ele><time>2026-04-19T13:30:59.699Z</time></trkpt><trkpt lat="43.8822718" lon="12.3845784"><ele>430.5</ele><time>2026-04-19T13:31:00.703Z</time></trkpt><trkpt lat="43.8823101" lon="12.3843996"><ele>432.0</ele><time>2026-04-19T13:31:01.704Z</time></trkpt><trkpt lat="43.8823682" lon="12.3842231"><ele>433.5</ele><time>2026-04-19T13:31:02.694Z</time></trkpt><trkpt lat="43.8824381" lon="12.3840746"><ele>435.0</ele><time>2026-04-19T13:31:03.696Z</time></trkpt><trkpt lat="43.8825017" lon="12.3839982"><ele>437.6</ele><time>2026-04-19T13:31:04.703Z</time></trkpt><trkpt lat="43.8826289" lon="12.3839891"><ele>440.2</ele><time>2026-04-19T13:31:06.708Z</time></trkpt><trkpt lat="43.8826966" lon="12.3840416"><ele>442.79999999999995</ele><time>2026-04-19T13:31:07.686Z</time></trkpt><trkpt lat="43.8827775" lon="12.3841065"><ele>445.4</ele><time>2026-04-19T13:31:08.694Z</time></trkpt><trkpt lat="43.8828645" lon="12.3841755"><ele>448.0</ele><time>2026-04-19T13:31:09.687Z</time></trkpt><trkpt lat="43.8829666" lon="12.3842446"><ele>448.0</ele><time>2026-04-19T13:31:10.696Z</time></trkpt><trkpt lat="43.8830906" lon="12.3843273"><ele>448.0</ele><time>2026-04-19T13:31:11.69Z</time></trkpt><trkpt lat="43.883231" lon="12.3844154"><ele>448.0</ele><time>2026-04-19T13:31:12.69Z</time></trkpt><trkpt lat="43.8833816" lon="12.3845061"><ele>449.79999999999995</ele><time>2026-04-19T13:31:13.693Z</time></trkpt><trkpt lat="43.8835053" lon="12.3845751"><ele>451.59999999999997</ele><time>2026-04-19T13:31:14.696Z</time></trkpt><trkpt lat="43.8836004" lon="12.3846077"><ele>453.40000000000003</ele><time>2026-04-19T13:31:15.694Z</time></trkpt><trkpt lat="43.8836833" lon="12.3846101"><ele>455.20000000000005</ele><time>2026-04-19T13:31:16.701Z</time></trkpt><trkpt lat="43.8837924" lon="12.3845594"><ele>457.0</ele><time>2026-04-19T13:31:17.698Z</time></trkpt><trkpt lat="43.8839222" lon="12.3844836"><ele>457.0</ele><time>2026-04-19T13:31:18.693Z</time></trkpt><trkpt lat="43.8840403" lon="12.3843927"><ele>457.0</ele><time>2026-04-19T13:31:19.696Z</time></trkpt><trkpt lat="43.8841626" lon="12.3843154"><ele>457.0</ele><time>2026-04-19T13:31:20.713Z</time></trkpt><trkpt lat="43.8842921" lon="12.3842427"><ele>457.0</ele><time>2026-04-19T13:31:21.694Z</time></trkpt><trkpt lat="43.884421" lon="12.384164"><ele>456.6</ele><time>2026-04-19T13:31:22.697Z</time></trkpt><trkpt lat="43.8845475" lon="12.3840805"><ele>456.20000000000005</ele><time>2026-04-19T13:31:23.694Z</time></trkpt><trkpt lat="43.8846631" lon="12.3840176"><ele>455.8</ele><time>2026-04-19T13:31:24.693Z</time></trkpt><trkpt lat="43.8847432" lon="12.3839403"><ele>455.4</ele><time>2026-04-19T13:31:25.707Z</time></trkpt><trkpt lat="43.8847973" lon="12.3838536"><ele>455.0</ele><time>2026-04-19T13:31:26.696Z</time></trkpt><trkpt lat="43.8848481" lon="12.3837508"><ele>455.0</ele><time>2026-04-19T13:31:27.7Z</time></trkpt><trkpt lat="43.8849109" lon="12.3836354"><ele>455.0</ele><time>2026-04-19T13:31:28.699Z</time></trkpt><trkpt lat="43.8849987" lon="12.3835115"><ele>455.0</ele><time>2026-04-19T13:31:29.707Z</time></trkpt><trkpt lat="43.8851027" lon="12.3833521"><ele>455.0</ele><time>2026-04-19T13:31:30.701Z</time></trkpt><trkpt lat="43.8852143" lon="12.3831824"><ele>458.3333333333333</ele><time>2026-04-19T13:31:31.693Z</time></trkpt><trkpt lat="43.885307" lon="12.3829993"><ele>461.66666666666663</ele><time>2026-04-19T13:31:32.689Z</time></trkpt><trkpt lat="43.8854021" lon="12.3828134"><ele>465.0</ele><time>2026-04-19T13:31:33.701Z</time></trkpt><trkpt lat="43.885487" lon="12.3826579"><ele>465.0</ele><time>2026-04-19T13:31:34.702Z</time></trkpt><trkpt lat="43.8855805" lon="12.3825064"><ele>465.0</ele><time>2026-04-19T13:31:35.697Z</time></trkpt><trkpt lat="43.8856612" lon="12.382369"><ele>465.0</ele><time>2026-04-19T13:31:36.705Z</time></trkpt><trkpt lat="43.8857145" lon="12.3822652"><ele>465.0</ele><time>2026-04-19T13:31:37.7Z</time></trkpt><trkpt lat="43.8858149" lon="12.3822556"><ele>464.8</ele><time>2026-04-19T13:31:39.704Z</time></trkpt><trkpt lat="43.8859311" lon="12.3823364"><ele>464.6</ele><time>2026-04-19T13:31:41.703Z</time></trkpt><trkpt lat="43.886015" lon="12.3824068"><ele>464.4</ele><time>2026-04-19T13:31:42.697Z</time></trkpt><trkpt lat="43.8861019" lon="12.382481"><ele>464.2</ele><time>2026-04-19T13:31:43.699Z</time></trkpt><trkpt lat="43.8861963" lon="12.3825656"><ele>464.0</ele><time>2026-04-19T13:31:44.699Z</time></trkpt><trkpt lat="43.8862848" lon="12.382673"><ele>464.0</ele><time>2026-04-19T13:31:45.703Z</time></trkpt><trkpt lat="43.8863572" lon="12.3828061"><ele>464.0</ele><time>2026-04-19T13:31:46.7Z</time></trkpt><trkpt lat="43.8864254" lon="12.3829428"><ele>464.0</ele><time>2026-04-19T13:31:47.705Z</time></trkpt><trkpt lat="43.8864978" lon="12.3830641"><ele>464.0</ele><time>2026-04-19T13:31:48.705Z</time></trkpt><trkpt lat="43.8865758" lon="12.3831816"><ele>462.25</ele><time>2026-04-19T13:31:49.702Z</time></trkpt><trkpt lat="43.8866574" lon="12.3832995"><ele>460.5</ele><time>2026-04-19T13:31:50.699Z</time></trkpt><trkpt lat="43.886737" lon="12.3834191"><ele>458.75</ele><time>2026-04-19T13:31:51.716Z</time></trkpt><trkpt lat="43.8868044" lon="12.383543"><ele>457.0</ele><time>2026-04-19T13:31:52.71Z</time></trkpt><trkpt lat="43.8868499" lon="12.383687"><ele>455.6</ele><time>2026-04-19T13:31:53.705Z</time></trkpt><trkpt lat="43.886876" lon="12.3838441"><ele>454.20000000000005</ele><time>2026-04-19T13:31:54.708Z</time></trkpt><trkpt lat="43.8868983" lon="12.3839988"><ele>452.8</ele><time>2026-04-19T13:31:55.708Z</time></trkpt><trkpt lat="43.8869279" lon="12.3841337"><ele>451.4</ele><time>2026-04-19T13:31:56.702Z</time></trkpt><trkpt lat="43.8869602" lon="12.3842515"><ele>450.0</ele><time>2026-04-19T13:31:57.709Z</time></trkpt><trkpt lat="43.8869916" lon="12.3843371"><ele>448.6</ele><time>2026-04-19T13:31:58.711Z</time></trkpt><trkpt lat="43.8870798" lon="12.3844237"><ele>447.2</ele><time>2026-04-19T13:32:00.714Z</time></trkpt><trkpt lat="43.887184" lon="12.3843764"><ele>445.79999999999995</ele><time>2026-04-19T13:32:02.707Z</time></trkpt><trkpt lat="43.8872507" lon="12.3843083"><ele>444.4</ele><time>2026-04-19T13:32:03.704Z</time></trkpt><trkpt lat="43.887329" lon="12.3842043"><ele>443.0</ele><time>2026-04-19T13:32:04.694Z</time></trkpt><trkpt lat="43.8874171" lon="12.3840983"><ele>443.0</ele><time>2026-04-19T13:32:05.695Z</time></trkpt><trkpt lat="43.8875264" lon="12.3840208"><ele>443.0</ele><time>2026-04-19T13:32:06.695Z</time></trkpt><trkpt lat="43.8876526" lon="12.3839598"><ele>443.0</ele><time>2026-04-19T13:32:07.693Z</time></trkpt><trkpt lat="43.8877793" lon="12.3838803"><ele>443.0</ele><time>2026-04-19T13:32:08.705Z</time></trkpt><trkpt lat="43.8879047" lon="12.3837677"><ele>445.3333333333333</ele><time>2026-04-19T13:32:09.696Z</time></trkpt><trkpt lat="43.8880382" lon="12.3836173"><ele>447.66666666666663</ele><time>2026-04-19T13:32:10.7Z</time></trkpt><trkpt lat="43.8881657" lon="12.3834971"><ele>450.0</ele><time>2026-04-19T13:32:11.694Z</time></trkpt><trkpt lat="43.8882859" lon="12.3834036"><ele>450.0</ele><time>2026-04-19T13:32:12.694Z</time></trkpt><trkpt lat="43.8883916" lon="12.3833223"><ele>450.0</ele><time>2026-04-19T13:32:13.697Z</time></trkpt><trkpt lat="43.8884921" lon="12.3832159"><ele>450.0</ele><time>2026-04-19T13:32:14.702Z</time></trkpt><trkpt lat="43.8885866" lon="12.3830869"><ele>450.0</ele><time>2026-04-19T13:32:15.699Z</time></trkpt><trkpt lat="43.8886929" lon="12.3829412"><ele>454.25</ele><time>2026-04-19T13:32:16.701Z</time></trkpt><trkpt lat="43.8887966" lon="12.3828073"><ele>458.5</ele><time>2026-04-19T13:32:17.699Z</time></trkpt><trkpt lat="43.8889098" lon="12.3826931"><ele>462.75</ele><time>2026-04-19T13:32:18.701Z</time></trkpt><trkpt lat="43.8890345" lon="12.3825923"><ele>467.0</ele><time>2026-04-19T13:32:19.698Z</time></trkpt><trkpt lat="43.8891642" lon="12.3824998"><ele>467.20000000000005</ele><time>2026-04-19T13:32:20.695Z</time></trkpt><trkpt lat="43.8892704" lon="12.3824325"><ele>467.40000000000003</ele><time>2026-04-19T13:32:21.692Z</time></trkpt><trkpt lat="43.8893712" lon="12.3823761"><ele>467.59999999999997</ele><time>2026-04-19T13:32:22.714Z</time></trkpt><trkpt lat="43.889465" lon="12.3823849"><ele>467.79999999999995</ele><time>2026-04-19T13:32:23.697Z</time></trkpt><trkpt lat="43.8895769" lon="12.3824533"><ele>468.0</ele><time>2026-04-19T13:32:24.7Z</time></trkpt><trkpt lat="43.8896975" lon="12.3825543"><ele>468.0</ele><time>2026-04-19T13:32:25.692Z</time></trkpt><trkpt lat="43.8898078" lon="12.3826669"><ele>468.0</ele><time>2026-04-19T13:32:26.688Z</time></trkpt><trkpt lat="43.8899081" lon="12.3828147"><ele>468.0</ele><time>2026-04-19T13:32:27.695Z</time></trkpt><trkpt lat="43.8900077" lon="12.3830095"><ele>470.0</ele><time>2026-04-19T13:32:28.696Z</time></trkpt><trkpt lat="43.8901186" lon="12.3832122"><ele>472.0</ele><time>2026-04-19T13:32:29.689Z</time></trkpt><trkpt lat="43.8902412" lon="12.3834375"><ele>474.0</ele><time>2026-04-19T13:32:30.7Z</time></trkpt><trkpt lat="43.8903517" lon="12.3836339"><ele>474.0</ele><time>2026-04-19T13:32:31.701Z</time></trkpt><trkpt lat="43.8904384" lon="12.3837692"><ele>474.0</ele><time>2026-04-19T13:32:32.697Z</time></trkpt><trkpt lat="43.8904938" lon="12.3838749"><ele>474.0</ele><time>2026-04-19T13:32:33.692Z</time></trkpt><trkpt lat="43.8905489" lon="12.3839597"><ele>474.0</ele><time>2026-04-19T13:32:34.697Z</time></trkpt><trkpt lat="43.8906068" lon="12.3840331"><ele>474.0</ele><time>2026-04-19T13:32:35.705Z</time></trkpt><trkpt lat="43.8906763" lon="12.3840793"><ele>475.0</ele><time>2026-04-19T13:32:36.706Z</time></trkpt><trkpt lat="43.8907491" lon="12.3841146"><ele>476.0</ele><time>2026-04-19T13:32:37.694Z</time></trkpt><trkpt lat="43.8908192" lon="12.3841164"><ele>477.0</ele><time>2026-04-19T13:32:38.708Z</time></trkpt><trkpt lat="43.8908815" lon="12.3840814"><ele>478.0</ele><time>2026-04-19T13:32:39.705Z</time></trkpt><trkpt lat="43.8909287" lon="12.3840065"><ele>479.0</ele><time>2026-04-19T13:32:40.692Z</time></trkpt><trkpt lat="43.8909711" lon="12.3839066"><ele>480.0</ele><time>2026-04-19T13:32:41.707Z</time></trkpt><trkpt lat="43.8910128" lon="12.3837838"><ele>480.0</ele><time>2026-04-19T13:32:42.699Z</time></trkpt><trkpt lat="43.8910596" lon="12.3836619"><ele>480.0</ele><time>2026-04-19T13:32:43.704Z</time></trkpt><trkpt lat="43.8911155" lon="12.3835362"><ele>480.0</ele><time>2026-04-19T13:32:44.707Z</time></trkpt><trkpt lat="43.8911929" lon="12.3833931"><ele>480.0</ele><time>2026-04-19T13:32:45.697Z</time></trkpt><trkpt lat="43.8912775" lon="12.38324"><ele>480.0</ele><time>2026-04-19T13:32:46.696Z</time></trkpt><trkpt lat="43.8913692" lon="12.3830826"><ele>480.0</ele><time>2026-04-19T13:32:47.703Z</time></trkpt><trkpt lat="43.8914722" lon="12.3829174"><ele>480.0</ele><time>2026-04-19T13:32:48.702Z</time></trkpt><trkpt lat="43.8915927" lon="12.3827698"><ele>483.0</ele><time>2026-04-19T13:32:49.704Z</time></trkpt><trkpt lat="43.891698" lon="12.3826166"><ele>486.0</ele><time>2026-04-19T13:32:50.701Z</time></trkpt><trkpt lat="43.8918019" lon="12.3824708"><ele>489.0</ele><time>2026-04-19T13:32:51.704Z</time></trkpt><trkpt lat="43.8919004" lon="12.3823149"><ele>492.75</ele><time>2026-04-19T13:32:52.703Z</time></trkpt><trkpt lat="43.8920013" lon="12.3821706"><ele>496.5</ele><time>2026-04-19T13:32:53.723Z</time></trkpt><trkpt lat="43.892098" lon="12.3820395"><ele>500.25</ele><time>2026-04-19T13:32:54.704Z</time></trkpt><trkpt lat="43.8921834" lon="12.3819161"><ele>504.0</ele><time>2026-04-19T13:32:55.701Z</time></trkpt><trkpt lat="43.8922912" lon="12.3817834"><ele>504.0</ele><time>2026-04-19T13:32:56.71Z</time></trkpt><trkpt lat="43.8924071" lon="12.3816361"><ele>504.0</ele><time>2026-04-19T13:32:57.713Z</time></trkpt><trkpt lat="43.8925314" lon="12.3814903"><ele>504.0</ele><time>2026-04-19T13:32:58.703Z</time></trkpt><trkpt lat="43.8926642" lon="12.3813343"><ele>507.33333333333337</ele><time>2026-04-19T13:32:59.703Z</time></trkpt><trkpt lat="43.8927875" lon="12.381189"><ele>510.6666666666667</ele><time>2026-04-19T13:33:00.704Z</time></trkpt><trkpt lat="43.8929223" lon="12.3810398"><ele>514.0</ele><time>2026-04-19T13:33:01.704Z</time></trkpt><trkpt lat="43.8930574" lon="12.3809025"><ele>514.0</ele><time>2026-04-19T13:33:02.7Z</time></trkpt><trkpt lat="43.89318" lon="12.3807854"><ele>514.0</ele><time>2026-04-19T13:33:03.702Z</time></trkpt><trkpt lat="43.8933057" lon="12.3806647"><ele>514.0</ele><time>2026-04-19T13:33:04.704Z</time></trkpt><trkpt lat="43.893434" lon="12.3805345"><ele>517.0</ele><time>2026-04-19T13:33:05.7Z</time></trkpt><trkpt lat="43.8935673" lon="12.3804092"><ele>520.0</ele><time>2026-04-19T13:33:06.697Z</time></trkpt><trkpt lat="43.8936875" lon="12.3802907"><ele>523.0</ele><time>2026-04-19T13:33:07.694Z</time></trkpt><trkpt lat="43.8938132" lon="12.3801556"><ele>523.0</ele><time>2026-04-19T13:33:08.69Z</time></trkpt><trkpt lat="43.8939572" lon="12.3800112"><ele>523.0</ele><time>2026-04-19T13:33:09.685Z</time></trkpt><trkpt lat="43.894096" lon="12.3798948"><ele>523.0</ele><time>2026-04-19T13:33:10.686Z</time></trkpt><trkpt lat="43.8941951" lon="12.3798096"><ele>523.6</ele><time>2026-04-19T13:33:11.695Z</time></trkpt><trkpt lat="43.894288" lon="12.3797335"><ele>524.1999999999999</ele><time>2026-04-19T13:33:12.691Z</time></trkpt><trkpt lat="43.8943507" lon="12.3796681"><ele>524.8</ele><time>2026-04-19T13:33:13.699Z</time></trkpt><trkpt lat="43.894374" lon="12.3795728"><ele>525.4</ele><time>2026-04-19T13:33:15.694Z</time></trkpt><trkpt lat="43.8943015" lon="12.3794641"><ele>526.0</ele><time>2026-04-19T13:33:17.705Z</time></trkpt><trkpt lat="43.8941796" lon="12.3794863"><ele>526.0</ele><time>2026-04-19T13:33:19.695Z</time></trkpt><trkpt lat="43.894073" lon="12.3795259"><ele>526.0</ele><time>2026-04-19T13:33:21.692Z</time></trkpt><trkpt lat="43.8940436" lon="12.3794037"><ele>526.0</ele><time>2026-04-19T13:33:24.736Z</time></trkpt><trkpt lat="43.8941019" lon="12.3793178"><ele>526.0</ele><time>2026-04-19T13:33:25.691Z</time></trkpt><trkpt lat="43.8941713" lon="12.3792371"><ele>526.0</ele><time>2026-04-19T13:33:26.692Z</time></trkpt><trkpt lat="43.8942506" lon="12.3791506"><ele>523.0</ele><time>2026-04-19T13:33:27.695Z</time></trkpt><trkpt lat="43.8943354" lon="12.3790681"><ele>520.0</ele><time>2026-04-19T13:33:28.7Z</time></trkpt><trkpt lat="43.894424" lon="12.3790206"><ele>517.0</ele><time>2026-04-19T13:33:29.7Z</time></trkpt><trkpt lat="43.8945191" lon="12.3790077"><ele>514.0</ele><time>2026-04-19T13:33:30.702Z</time></trkpt><trkpt lat="43.8946193" lon="12.3790423"><ele>511.0</ele><time>2026-04-19T13:33:31.697Z</time></trkpt><trkpt lat="43.8947261" lon="12.3791118"><ele>511.0</ele><time>2026-04-19T13:33:32.694Z</time></trkpt><trkpt lat="43.8948256" lon="12.3792043"><ele>511.0</ele><time>2026-04-19T13:33:33.697Z</time></trkpt><trkpt lat="43.894915" lon="12.3793122"><ele>511.0</ele><time>2026-04-19T13:33:34.701Z</time></trkpt><trkpt lat="43.8949873" lon="12.3794307"><ele>511.0</ele><time>2026-04-19T13:33:35.692Z</time></trkpt><trkpt lat="43.8950454" lon="12.3795456"><ele>508.1666666666667</ele><time>2026-04-19T13:33:36.691Z</time></trkpt><trkpt lat="43.8950911" lon="12.3796421"><ele>505.33333333333337</ele><time>2026-04-19T13:33:37.692Z</time></trkpt><trkpt lat="43.8951348" lon="12.3797198"><ele>502.5</ele><time>2026-04-19T13:33:38.7Z</time></trkpt><trkpt lat="43.8952224" lon="12.3797153"><ele>499.66666666666663</ele><time>2026-04-19T13:33:40.696Z</time></trkpt><trkpt lat="43.8952525" lon="12.3795674"><ele>496.8333333333333</ele><time>2026-04-19T13:33:42.7Z</time></trkpt><trkpt lat="43.8952164" lon="12.379473"><ele>494.0</ele><time>2026-04-19T13:33:43.703Z</time></trkpt><trkpt lat="43.8951487" lon="12.379345"><ele>494.75</ele><time>2026-04-19T13:33:44.699Z</time></trkpt><trkpt lat="43.8950719" lon="12.3791999"><ele>495.5</ele><time>2026-04-19T13:33:45.689Z</time></trkpt><trkpt lat="43.8949872" lon="12.3790534"><ele>496.25</ele><time>2026-04-19T13:33:46.69Z</time></trkpt><trkpt lat="43.8949048" lon="12.3789186"><ele>497.0</ele><time>2026-04-19T13:33:47.686Z</time></trkpt><trkpt lat="43.894816" lon="12.378772"><ele>497.0</ele><time>2026-04-19T13:33:48.683Z</time></trkpt><trkpt lat="43.8947338" lon="12.3786201"><ele>497.0</ele><time>2026-04-19T13:33:49.679Z</time></trkpt><trkpt lat="43.8946472" lon="12.3784796"><ele>497.0</ele><time>2026-04-19T13:33:50.683Z</time></trkpt><trkpt lat="43.8945596" lon="12.378348"><ele>497.0</ele><time>2026-04-19T13:33:51.68Z</time></trkpt><trkpt lat="43.8944811" lon="12.3782288"><ele>497.0</ele><time>2026-04-19T13:33:52.688Z</time></trkpt><trkpt lat="43.8944171" lon="12.3781076"><ele>497.00000000000006</ele><time>2026-04-19T13:33:53.68Z</time></trkpt><trkpt lat="43.894378" lon="12.37798"><ele>497.00000000000006</ele><time>2026-04-19T13:33:54.709Z</time></trkpt><trkpt lat="43.8943876" lon="12.3778429"><ele>497.0</ele><time>2026-04-19T13:33:55.695Z</time></trkpt><trkpt lat="43.8944413" lon="12.3777103"><ele>497.0</ele><time>2026-04-19T13:33:56.694Z</time></trkpt><trkpt lat="43.8945314" lon="12.3775975"><ele>496.20000000000005</ele><time>2026-04-19T13:33:57.698Z</time></trkpt><trkpt lat="43.8946119" lon="12.3774989"><ele>495.40000000000003</ele><time>2026-04-19T13:33:58.696Z</time></trkpt><trkpt lat="43.8946851" lon="12.377424"><ele>494.59999999999997</ele><time>2026-04-19T13:33:59.695Z</time></trkpt><trkpt lat="43.8947545" lon="12.3773537"><ele>493.79999999999995</ele><time>2026-04-19T13:34:00.693Z</time></trkpt><trkpt lat="43.8948253" lon="12.3772643"><ele>493.0</ele><time>2026-04-19T13:34:01.701Z</time></trkpt><trkpt lat="43.8948924" lon="12.3771421"><ele>491.75</ele><time>2026-04-19T13:34:02.7Z</time></trkpt><trkpt lat="43.8949544" lon="12.376997"><ele>490.5</ele><time>2026-04-19T13:34:03.689Z</time></trkpt><trkpt lat="43.8950156" lon="12.3768694"><ele>489.25</ele><time>2026-04-19T13:34:04.684Z</time></trkpt><trkpt lat="43.8950722" lon="12.3767349"><ele>488.0</ele><time>2026-04-19T13:34:05.69Z</time></trkpt><trkpt lat="43.8951386" lon="12.3766037"><ele>485.25</ele><time>2026-04-19T13:34:06.697Z</time></trkpt><trkpt lat="43.8952232" lon="12.3764939"><ele>482.5</ele><time>2026-04-19T13:34:07.698Z</time></trkpt><trkpt lat="43.8953502" lon="12.376406"><ele>479.75</ele><time>2026-04-19T13:34:08.691Z</time></trkpt><trkpt lat="43.8954697" lon="12.3763382"><ele>477.0</ele><time>2026-04-19T13:34:09.697Z</time></trkpt><trkpt lat="43.895563" lon="12.3763035"><ele>477.0</ele><time>2026-04-19T13:34:10.688Z</time></trkpt><trkpt lat="43.8956335" lon="12.3762596"><ele>477.00000000000006</ele><time>2026-04-19T13:34:11.699Z</time></trkpt><trkpt lat="43.8956035" lon="12.3761041"><ele>477.00000000000006</ele><time>2026-04-19T13:34:14.693Z</time></trkpt><trkpt lat="43.8955728" lon="12.3760003"><ele>477.0</ele><time>2026-04-19T13:34:15.695Z</time></trkpt><trkpt lat="43.8955408" lon="12.3758497"><ele>477.0</ele><time>2026-04-19T13:34:16.703Z</time></trkpt><trkpt lat="43.8955165" lon="12.3756601"><ele>476.0</ele><time>2026-04-19T13:34:17.688Z</time></trkpt><trkpt lat="43.8954767" lon="12.37546"><ele>475.0</ele><time>2026-04-19T13:34:18.694Z</time></trkpt><trkpt lat="43.8954326" lon="12.3752688"><ele>474.0</ele><time>2026-04-19T13:34:19.693Z</time></trkpt><trkpt lat="43.8953914" lon="12.3750794"><ele>473.0</ele><time>2026-04-19T13:34:20.694Z</time></trkpt><trkpt lat="43.8953435" lon="12.374886"><ele>472.66666666666663</ele><time>2026-04-19T13:34:21.698Z</time></trkpt><trkpt lat="43.8952823" lon="12.3746694"><ele>472.33333333333337</ele><time>2026-04-19T13:34:22.694Z</time></trkpt><trkpt lat="43.8952205" lon="12.3744543"><ele>472.0</ele><time>2026-04-19T13:34:23.694Z</time></trkpt><trkpt lat="43.8951654" lon="12.3742361"><ele>472.0</ele><time>2026-04-19T13:34:24.696Z</time></trkpt><trkpt lat="43.8951255" lon="12.3740149"><ele>472.0</ele><time>2026-04-19T13:34:25.714Z</time></trkpt><trkpt lat="43.8951003" lon="12.373801"><ele>472.0</ele><time>2026-04-19T13:34:26.696Z</time></trkpt><trkpt lat="43.8951069" lon="12.3736021"><ele>473.0</ele><time>2026-04-19T13:34:27.693Z</time></trkpt><trkpt lat="43.8951021" lon="12.3734041"><ele>474.0</ele><time>2026-04-19T13:34:28.695Z</time></trkpt><trkpt lat="43.8951112" lon="12.3732137"><ele>475.0</ele><time>2026-04-19T13:34:29.703Z</time></trkpt><trkpt lat="43.8951291" lon="12.3730594"><ele>476.0</ele><time>2026-04-19T13:34:30.699Z</time></trkpt><trkpt lat="43.8951871" lon="12.372945"><ele>476.6</ele><time>2026-04-19T13:34:31.685Z</time></trkpt><trkpt lat="43.8952234" lon="12.3728389"><ele>477.20000000000005</ele><time>2026-04-19T13:34:32.688Z</time></trkpt><trkpt lat="43.895256" lon="12.3727104"><ele>477.79999999999995</ele><time>2026-04-19T13:34:33.682Z</time></trkpt><trkpt lat="43.8952855" lon="12.3725815"><ele>478.4</ele><time>2026-04-19T13:34:34.692Z</time></trkpt><trkpt lat="43.8952975" lon="12.3724378"><ele>479.0</ele><time>2026-04-19T13:34:35.698Z</time></trkpt><trkpt lat="43.8952506" lon="12.3722595"><ele>477.25</ele><time>2026-04-19T13:34:36.686Z</time></trkpt><trkpt lat="43.8951968" lon="12.3720686"><ele>475.5</ele><time>2026-04-19T13:34:37.694Z</time></trkpt><trkpt lat="43.8951549" lon="12.3718671"><ele>473.75</ele><time>2026-04-19T13:34:38.689Z</time></trkpt><trkpt lat="43.8951302" lon="12.3716638"><ele>472.0</ele><time>2026-04-19T13:34:39.692Z</time></trkpt><trkpt lat="43.8951155" lon="12.371453"><ele>470.25</ele><time>2026-04-19T13:34:40.695Z</time></trkpt><trkpt lat="43.8950977" lon="12.3712418"><ele>468.5</ele><time>2026-04-19T13:34:41.697Z</time></trkpt><trkpt lat="43.8950718" lon="12.3710371"><ele>466.75</ele><time>2026-04-19T13:34:42.698Z</time></trkpt><trkpt lat="43.8950436" lon="12.3708399"><ele>465.0</ele><time>2026-04-19T13:34:43.696Z</time></trkpt><trkpt lat="43.8950185" lon="12.3706602"><ele>470.0</ele><time>2026-04-19T13:34:44.692Z</time></trkpt><trkpt lat="43.8949983" lon="12.3705001"><ele>475.0</ele><time>2026-04-19T13:34:45.697Z</time></trkpt><trkpt lat="43.894984" lon="12.3703617"><ele>480.0</ele><time>2026-04-19T13:34:46.698Z</time></trkpt><trkpt lat="43.8949643" lon="12.3702275"><ele>485.0</ele><time>2026-04-19T13:34:47.696Z</time></trkpt><trkpt lat="43.8949484" lon="12.3700815"><ele>490.0</ele><time>2026-04-19T13:34:48.698Z</time></trkpt><trkpt lat="43.8949275" lon="12.3699435"><ele>490.00000000000006</ele><time>2026-04-19T13:34:49.698Z</time></trkpt><trkpt lat="43.894887" lon="12.3698193"><ele>490.0</ele><time>2026-04-19T13:34:50.69Z</time></trkpt><trkpt lat="43.8948445" lon="12.3697098"><ele>490.0</ele><time>2026-04-19T13:34:51.704Z</time></trkpt><trkpt lat="43.8947853" lon="12.3696363"><ele>490.0</ele><time>2026-04-19T13:34:52.706Z</time></trkpt><trkpt lat="43.8947153" lon="12.3695783"><ele>490.00000000000006</ele><time>2026-04-19T13:34:53.697Z</time></trkpt><trkpt lat="43.8946236" lon="12.369531"><ele>490.0</ele><time>2026-04-19T13:34:54.706Z</time></trkpt><trkpt lat="43.8945193" lon="12.3695141"><ele>490.25</ele><time>2026-04-19T13:34:55.697Z</time></trkpt><trkpt lat="43.8944037" lon="12.3695196"><ele>490.5</ele><time>2026-04-19T13:34:56.718Z</time></trkpt><trkpt lat="43.8942913" lon="12.3695063"><ele>490.75</ele><time>2026-04-19T13:34:57.695Z</time></trkpt><trkpt lat="43.8941828" lon="12.3694624"><ele>491.0</ele><time>2026-04-19T13:34:58.704Z</time></trkpt><trkpt lat="43.8940892" lon="12.3693677"><ele>491.0</ele><time>2026-04-19T13:34:59.701Z</time></trkpt><trkpt lat="43.894007" lon="12.3692235"><ele>491.0</ele><time>2026-04-19T13:35:00.703Z</time></trkpt><trkpt lat="43.8939474" lon="12.369033"><ele>491.0</ele><time>2026-04-19T13:35:01.697Z</time></trkpt><trkpt lat="43.8938978" lon="12.3688096"><ele>487.3333333333333</ele><time>2026-04-19T13:35:02.689Z</time></trkpt><trkpt lat="43.8938621" lon="12.3685914"><ele>483.66666666666663</ele><time>2026-04-19T13:35:03.697Z</time></trkpt><trkpt lat="43.8938296" lon="12.3683901"><ele>480.0</ele><time>2026-04-19T13:35:04.692Z</time></trkpt><trkpt lat="43.8938104" lon="12.3681943"><ele>477.25</ele><time>2026-04-19T13:35:05.701Z</time></trkpt><trkpt lat="43.8938165" lon="12.3679997"><ele>474.5</ele><time>2026-04-19T13:35:06.693Z</time></trkpt><trkpt lat="43.8938254" lon="12.3678258"><ele>471.75</ele><time>2026-04-19T13:35:07.694Z</time></trkpt><trkpt lat="43.8938091" lon="12.3676492"><ele>469.0</ele><time>2026-04-19T13:35:08.699Z</time></trkpt><trkpt lat="43.8937716" lon="12.3675261"><ele>469.0</ele><time>2026-04-19T13:35:09.706Z</time></trkpt><trkpt lat="43.8937273" lon="12.367432"><ele>469.0</ele><time>2026-04-19T13:35:10.705Z</time></trkpt><trkpt lat="43.893655" lon="12.3673426"><ele>469.0</ele><time>2026-04-19T13:35:11.707Z</time></trkpt><trkpt lat="43.8935341" lon="12.3672721"><ele>469.0</ele><time>2026-04-19T13:35:12.707Z</time></trkpt><trkpt lat="43.8933988" lon="12.3672351"><ele>469.0</ele><time>2026-04-19T13:35:13.695Z</time></trkpt><trkpt lat="43.8932702" lon="12.3672034"><ele>471.2</ele><time>2026-04-19T13:35:14.691Z</time></trkpt><trkpt lat="43.8931606" lon="12.3671584"><ele>473.4</ele><time>2026-04-19T13:35:15.695Z</time></trkpt><trkpt lat="43.8930784" lon="12.3670687"><ele>475.6</ele><time>2026-04-19T13:35:16.699Z</time></trkpt><trkpt lat="43.8930356" lon="12.3669338"><ele>477.8</ele><time>2026-04-19T13:35:17.695Z</time></trkpt><trkpt lat="43.8930286" lon="12.3667815"><ele>480.0</ele><time>2026-04-19T13:35:18.694Z</time></trkpt><trkpt lat="43.8930471" lon="12.3666466"><ele>480.0</ele><time>2026-04-19T13:35:19.7Z</time></trkpt><trkpt lat="43.8930959" lon="12.3665157"><ele>480.0</ele><time>2026-04-19T13:35:20.7Z</time></trkpt><trkpt lat="43.8931809" lon="12.3663521"><ele>480.0</ele><time>2026-04-19T13:35:21.688Z</time></trkpt><trkpt lat="43.8932774" lon="12.3661796"><ele>480.0</ele><time>2026-04-19T13:35:22.693Z</time></trkpt><trkpt lat="43.8933689" lon="12.3660202"><ele>474.25</ele><time>2026-04-19T13:35:23.694Z</time></trkpt><trkpt lat="43.8934671" lon="12.3658765"><ele>468.5</ele><time>2026-04-19T13:35:24.697Z</time></trkpt><trkpt lat="43.8935926" lon="12.3657611"><ele>462.75</ele><time>2026-04-19T13:35:25.695Z</time></trkpt><trkpt lat="43.8936987" lon="12.3656497"><ele>457.0</ele><time>2026-04-19T13:35:26.693Z</time></trkpt><trkpt lat="43.8937804" lon="12.3655421"><ele>455.25</ele><time>2026-04-19T13:35:27.722Z</time></trkpt><trkpt lat="43.8938387" lon="12.3654015"><ele>453.5</ele><time>2026-04-19T13:35:28.697Z</time></trkpt><trkpt lat="43.8938669" lon="12.3652467"><ele>451.75</ele><time>2026-04-19T13:35:29.7Z</time></trkpt><trkpt lat="43.893892" lon="12.3650765"><ele>450.0</ele><time>2026-04-19T13:35:30.7Z</time></trkpt><trkpt lat="43.8939026" lon="12.364903"><ele>450.0</ele><time>2026-04-19T13:35:31.698Z</time></trkpt><trkpt lat="43.8939224" lon="12.3647319"><ele>450.0</ele><time>2026-04-19T13:35:32.697Z</time></trkpt><trkpt lat="43.8939331" lon="12.3645658"><ele>450.0</ele><time>2026-04-19T13:35:33.703Z</time></trkpt><trkpt lat="43.893935" lon="12.3644231"><ele>450.0</ele><time>2026-04-19T13:35:34.71Z</time></trkpt><trkpt lat="43.8939161" lon="12.364312"><ele>450.0</ele><time>2026-04-19T13:35:35.707Z</time></trkpt><trkpt lat="43.8938716" lon="12.3642224"><ele>448.8333333333333</ele><time>2026-04-19T13:35:36.698Z</time></trkpt><trkpt lat="43.8938084" lon="12.36415"><ele>447.66666666666663</ele><time>2026-04-19T13:35:37.699Z</time></trkpt><trkpt lat="43.8937342" lon="12.3640856"><ele>446.5</ele><time>2026-04-19T13:35:38.702Z</time></trkpt><trkpt lat="43.8936745" lon="12.364001"><ele>445.3333333333333</ele><time>2026-04-19T13:35:39.708Z</time></trkpt><trkpt lat="43.8936529" lon="12.3638866"><ele>444.16666666666663</ele><time>2026-04-19T13:35:40.708Z</time></trkpt><trkpt lat="43.8936811" lon="12.363784"><ele>443.0</ele><time>2026-04-19T13:35:41.706Z</time></trkpt><trkpt lat="43.8937511" lon="12.363702"><ele>442.0</ele><time>2026-04-19T13:35:42.698Z</time></trkpt><trkpt lat="43.8938487" lon="12.3636374"><ele>441.0</ele><time>2026-04-19T13:35:43.707Z</time></trkpt><trkpt lat="43.8939572" lon="12.3636187"><ele>440.0</ele><time>2026-04-19T13:35:44.706Z</time></trkpt><trkpt lat="43.894084" lon="12.3636504"><ele>439.0</ele><time>2026-04-19T13:35:45.701Z</time></trkpt><trkpt lat="43.8942377" lon="12.3637322"><ele>436.33333333333337</ele><time>2026-04-19T13:35:46.697Z</time></trkpt><trkpt lat="43.8944103" lon="12.3638654"><ele>433.66666666666663</ele><time>2026-04-19T13:35:47.69Z</time></trkpt><trkpt lat="43.8946002" lon="12.3640124"><ele>431.0</ele><time>2026-04-19T13:35:48.69Z</time></trkpt><trkpt lat="43.8947967" lon="12.3641524"><ele>431.0</ele><time>2026-04-19T13:35:49.684Z</time></trkpt><trkpt lat="43.8949858" lon="12.3642747"><ele>431.0</ele><time>2026-04-19T13:35:50.688Z</time></trkpt><trkpt lat="43.8951518" lon="12.3643793"><ele>431.0</ele><time>2026-04-19T13:35:51.698Z</time></trkpt><trkpt lat="43.8952714" lon="12.3644778"><ele>432.49999999999994</ele><time>2026-04-19T13:35:52.696Z</time></trkpt><trkpt lat="43.895345" lon="12.364529"><ele>434.0</ele><time>2026-04-19T13:35:53.692Z</time></trkpt><trkpt lat="43.8954112" lon="12.3645281"><ele>435.5</ele><time>2026-04-19T13:35:54.694Z</time></trkpt><trkpt lat="43.8954564" lon="12.3644046"><ele>437.0</ele><time>2026-04-19T13:35:56.695Z</time></trkpt><trkpt lat="43.8954363" lon="12.3642995"><ele>438.49999999999994</ele><time>2026-04-19T13:35:57.69Z</time></trkpt><trkpt lat="43.8954233" lon="12.36419"><ele>440.0</ele><time>2026-04-19T13:35:58.687Z</time></trkpt><trkpt lat="43.8954402" lon="12.3640918"><ele>440.0</ele><time>2026-04-19T13:35:59.69Z</time></trkpt><trkpt lat="43.895541" lon="12.3640545"><ele>440.0</ele><time>2026-04-19T13:36:01.688Z</time></trkpt><trkpt lat="43.8955825" lon="12.3641517"><ele>440.0</ele><time>2026-04-19T13:36:02.691Z</time></trkpt><trkpt lat="43.8956113" lon="12.3642946"><ele>440.0</ele><time>2026-04-19T13:36:03.684Z</time></trkpt><trkpt lat="43.8956449" lon="12.3644587"><ele>440.0</ele><time>2026-04-19T13:36:04.691Z</time></trkpt><trkpt lat="43.8956973" lon="12.364608"><ele>439.0</ele><time>2026-04-19T13:36:05.689Z</time></trkpt><trkpt lat="43.8957651" lon="12.3647251"><ele>438.0</ele><time>2026-04-19T13:36:06.697Z</time></trkpt><trkpt lat="43.8958558" lon="12.364773"><ele>437.0</ele><time>2026-04-19T13:36:07.703Z</time></trkpt><trkpt lat="43.8959756" lon="12.3647833"><ele>436.0</ele><time>2026-04-19T13:36:08.7Z</time></trkpt><trkpt lat="43.8961019" lon="12.3647739"><ele>438.5</ele><time>2026-04-19T13:36:09.694Z</time></trkpt><trkpt lat="43.8962334" lon="12.3647811"><ele>441.0</ele><time>2026-04-19T13:36:10.689Z</time></trkpt><trkpt lat="43.8963661" lon="12.3648007"><ele>443.5</ele><time>2026-04-19T13:36:11.685Z</time></trkpt><trkpt lat="43.896499" lon="12.3648244"><ele>446.0</ele><time>2026-04-19T13:36:12.694Z</time></trkpt><trkpt lat="43.8966183" lon="12.3648382"><ele>445.99999999999994</ele><time>2026-04-19T13:36:13.699Z</time></trkpt><trkpt lat="43.8967148" lon="12.3648243"><ele>446.0</ele><time>2026-04-19T13:36:14.7Z</time></trkpt><trkpt lat="43.8967847" lon="12.3647863"><ele>446.0</ele><time>2026-04-19T13:36:15.704Z</time></trkpt><trkpt lat="43.896832" lon="12.3647003"><ele>446.0</ele><time>2026-04-19T13:36:16.699Z</time></trkpt><trkpt lat="43.8968555" lon="12.3645807"><ele>445.99999999999994</ele><time>2026-04-19T13:36:17.688Z</time></trkpt><trkpt lat="43.8968643" lon="12.3644436"><ele>446.0</ele><time>2026-04-19T13:36:18.703Z</time></trkpt><trkpt lat="43.8968561" lon="12.3642788"><ele>449.0</ele><time>2026-04-19T13:36:19.695Z</time></trkpt><trkpt lat="43.8968394" lon="12.3641043"><ele>452.0</ele><time>2026-04-19T13:36:20.699Z</time></trkpt><trkpt lat="43.8968238" lon="12.3639158"><ele>455.0</ele><time>2026-04-19T13:36:21.709Z</time></trkpt><trkpt lat="43.8968127" lon="12.3637176"><ele>458.0</ele><time>2026-04-19T13:36:22.701Z</time></trkpt><trkpt lat="43.8967987" lon="12.3635091"><ele>462.0</ele><time>2026-04-19T13:36:23.699Z</time></trkpt><trkpt lat="43.8967826" lon="12.3632907"><ele>466.0</ele><time>2026-04-19T13:36:24.705Z</time></trkpt><trkpt lat="43.8967653" lon="12.3630668"><ele>470.0</ele><time>2026-04-19T13:36:25.698Z</time></trkpt><trkpt lat="43.8967387" lon="12.3628456"><ele>471.0</ele><time>2026-04-19T13:36:26.697Z</time></trkpt><trkpt lat="43.8966819" lon="12.3626179"><ele>472.0</ele><time>2026-04-19T13:36:27.701Z</time></trkpt><trkpt lat="43.8966272" lon="12.3624227"><ele>473.0</ele><time>2026-04-19T13:36:28.703Z</time></trkpt><trkpt lat="43.8965959" lon="12.3622352"><ele>474.75</ele><time>2026-04-19T13:36:29.718Z</time></trkpt><trkpt lat="43.8965834" lon="12.3620417"><ele>476.5</ele><time>2026-04-19T13:36:30.705Z</time></trkpt><trkpt lat="43.8966027" lon="12.3618491"><ele>478.25</ele><time>2026-04-19T13:36:31.693Z</time></trkpt><trkpt lat="43.8966355" lon="12.3617005"><ele>480.0</ele><time>2026-04-19T13:36:32.7Z</time></trkpt><trkpt lat="43.8966733" lon="12.3615929"><ele>480.0</ele><time>2026-04-19T13:36:33.698Z</time></trkpt><trkpt lat="43.8967331" lon="12.3615191"><ele>480.0</ele><time>2026-04-19T13:36:34.693Z</time></trkpt><trkpt lat="43.8968168" lon="12.3615221"><ele>480.0</ele><time>2026-04-19T13:36:35.681Z</time></trkpt><trkpt lat="43.8968967" lon="12.3615755"><ele>480.0</ele><time>2026-04-19T13:36:36.69Z</time></trkpt><trkpt lat="43.8969776" lon="12.3616688"><ele>480.0</ele><time>2026-04-19T13:36:37.695Z</time></trkpt><trkpt lat="43.8970459" lon="12.3618021"><ele>483.0</ele><time>2026-04-19T13:36:38.689Z</time></trkpt><trkpt lat="43.8971073" lon="12.3619163"><ele>486.0</ele><time>2026-04-19T13:36:39.7Z</time></trkpt><trkpt lat="43.8971858" lon="12.3620072"><ele>489.0</ele><time>2026-04-19T13:36:40.698Z</time></trkpt><trkpt lat="43.8972798" lon="12.3620361"><ele>492.0</ele><time>2026-04-19T13:36:41.704Z</time></trkpt><trkpt lat="43.8973822" lon="12.3620123"><ele>495.0</ele><time>2026-04-19T13:36:42.707Z</time></trkpt><trkpt lat="43.8974709" lon="12.3619473"><ele>495.0</ele><time>2026-04-19T13:36:43.709Z</time></trkpt><trkpt lat="43.8975415" lon="12.3618483"><ele>495.0</ele><time>2026-04-19T13:36:44.703Z</time></trkpt><trkpt lat="43.897607" lon="12.361721"><ele>495.0</ele><time>2026-04-19T13:36:45.705Z</time></trkpt><trkpt lat="43.8976724" lon="12.3615792"><ele>495.0</ele><time>2026-04-19T13:36:46.705Z</time></trkpt><trkpt lat="43.8977399" lon="12.3614339"><ele>498.6</ele><time>2026-04-19T13:36:47.705Z</time></trkpt><trkpt lat="43.8978104" lon="12.3612909"><ele>502.2</ele><time>2026-04-19T13:36:48.705Z</time></trkpt><trkpt lat="43.8978735" lon="12.3611593"><ele>505.79999999999995</ele><time>2026-04-19T13:36:49.696Z</time></trkpt><trkpt lat="43.8979292" lon="12.3610417"><ele>509.4</ele><time>2026-04-19T13:36:50.693Z</time></trkpt><trkpt lat="43.8979793" lon="12.3609448"><ele>513.0</ele><time>2026-04-19T13:36:51.695Z</time></trkpt><trkpt lat="43.8980294" lon="12.3608578"><ele>513.0</ele><time>2026-04-19T13:36:52.697Z</time></trkpt><trkpt lat="43.8980987" lon="12.3607842"><ele>513.0</ele><time>2026-04-19T13:36:53.7Z</time></trkpt><trkpt lat="43.8981889" lon="12.360748"><ele>513.0</ele><time>2026-04-19T13:36:54.701Z</time></trkpt><trkpt lat="43.8983007" lon="12.3607344"><ele>513.0</ele><time>2026-04-19T13:36:55.693Z</time></trkpt><trkpt lat="43.8984056" lon="12.3607155"><ele>513.0</ele><time>2026-04-19T13:36:56.701Z</time></trkpt><trkpt lat="43.8985112" lon="12.360693"><ele>513.25</ele><time>2026-04-19T13:36:57.705Z</time></trkpt><trkpt lat="43.8986113" lon="12.3606454"><ele>513.5</ele><time>2026-04-19T13:36:58.717Z</time></trkpt><trkpt lat="43.8986917" lon="12.3605579"><ele>513.75</ele><time>2026-04-19T13:36:59.712Z</time></trkpt><trkpt lat="43.8987473" lon="12.3604165"><ele>514.0</ele><time>2026-04-19T13:37:00.73Z</time></trkpt><trkpt lat="43.8987882" lon="12.3602271"><ele>514.0</ele><time>2026-04-19T13:37:01.706Z</time></trkpt><trkpt lat="43.8988155" lon="12.3600066"><ele>514.0</ele><time>2026-04-19T13:37:02.704Z</time></trkpt><trkpt lat="43.8988524" lon="12.3597759"><ele>514.0</ele><time>2026-04-19T13:37:03.706Z</time></trkpt><trkpt lat="43.8988876" lon="12.3595633"><ele>517.0</ele><time>2026-04-19T13:37:04.704Z</time></trkpt><trkpt lat="43.8989143" lon="12.3593867"><ele>520.0</ele><time>2026-04-19T13:37:05.707Z</time></trkpt><trkpt lat="43.8989428" lon="12.3592558"><ele>523.0</ele><time>2026-04-19T13:37:06.704Z</time></trkpt><trkpt lat="43.898969" lon="12.3591426"><ele>526.0</ele><time>2026-04-19T13:37:07.71Z</time></trkpt><trkpt lat="43.8990117" lon="12.3590466"><ele>529.0</ele><time>2026-04-19T13:37:08.702Z</time></trkpt><trkpt lat="43.8990896" lon="12.3589832"><ele>529.0</ele><time>2026-04-19T13:37:09.697Z</time></trkpt><trkpt lat="43.8991816" lon="12.3588999"><ele>529.0</ele><time>2026-04-19T13:37:10.703Z</time></trkpt><trkpt lat="43.8992773" lon="12.3588104"><ele>529.0</ele><time>2026-04-19T13:37:11.7Z</time></trkpt><trkpt lat="43.8993748" lon="12.3587052"><ele>529.0</ele><time>2026-04-19T13:37:12.7Z</time></trkpt><trkpt lat="43.8994637" lon="12.3585961"><ele>530.5</ele><time>2026-04-19T13:37:13.702Z</time></trkpt><trkpt lat="43.8995404" lon="12.3584778"><ele>532.0</ele><time>2026-04-19T13:37:14.709Z</time></trkpt><trkpt lat="43.8995832" lon="12.3583377"><ele>533.5</ele><time>2026-04-19T13:37:15.706Z</time></trkpt><trkpt lat="43.8996072" lon="12.3581722"><ele>535.0</ele><time>2026-04-19T13:37:16.701Z</time></trkpt><trkpt lat="43.8996278" lon="12.3579785"><ele>538.0</ele><time>2026-04-19T13:37:17.699Z</time></trkpt><trkpt lat="43.8996661" lon="12.3577812"><ele>541.0</ele><time>2026-04-19T13:37:18.706Z</time></trkpt><trkpt lat="43.8997169" lon="12.3575643"><ele>544.0</ele><time>2026-04-19T13:37:19.694Z</time></trkpt><trkpt lat="43.8997663" lon="12.3573733"><ele>544.0</ele><time>2026-04-19T13:37:20.7Z</time></trkpt><trkpt lat="43.8997962" lon="12.3572232"><ele>544.0</ele><time>2026-04-19T13:37:21.704Z</time></trkpt><trkpt lat="43.8998288" lon="12.3571291"><ele>544.0</ele><time>2026-04-19T13:37:22.708Z</time></trkpt><trkpt lat="43.8999007" lon="12.3570904"><ele>544.0</ele><time>2026-04-19T13:37:24.705Z</time></trkpt><trkpt lat="43.8999554" lon="12.3571423"><ele>544.0</ele><time>2026-04-19T13:37:25.701Z</time></trkpt><trkpt lat="43.9000278" lon="12.3572248"><ele>544.0</ele><time>2026-04-19T13:37:26.696Z</time></trkpt><trkpt lat="43.9001055" lon="12.3573216"><ele>544.25</ele><time>2026-04-19T13:37:27.697Z</time></trkpt><trkpt lat="43.900191" lon="12.3574237"><ele>544.5</ele><time>2026-04-19T13:37:28.704Z</time></trkpt><trkpt lat="43.9002869" lon="12.3575373"><ele>544.75</ele><time>2026-04-19T13:37:29.696Z</time></trkpt><trkpt lat="43.9003939" lon="12.3576546"><ele>545.0</ele><time>2026-04-19T13:37:30.697Z</time></trkpt><trkpt lat="43.9005099" lon="12.3577752"><ele>545.0</ele><time>2026-04-19T13:37:31.716Z</time></trkpt><trkpt lat="43.9006332" lon="12.3579079"><ele>545.0</ele><time>2026-04-19T13:37:32.699Z</time></trkpt><trkpt lat="43.9007615" lon="12.3580488"><ele>545.0</ele><time>2026-04-19T13:37:33.689Z</time></trkpt><trkpt lat="43.9008898" lon="12.3581792"><ele>540.0</ele><time>2026-04-19T13:37:34.693Z</time></trkpt><trkpt lat="43.9010094" lon="12.3582877"><ele>535.0</ele><time>2026-04-19T13:37:35.7Z</time></trkpt><trkpt lat="43.9011447" lon="12.3583541"><ele>530.0</ele><time>2026-04-19T13:37:36.702Z</time></trkpt><trkpt lat="43.9013188" lon="12.358384"><ele>530.0</ele><time>2026-04-19T13:37:37.692Z</time></trkpt><trkpt lat="43.901498" lon="12.3584007"><ele>530.0</ele><time>2026-04-19T13:37:38.692Z</time></trkpt><trkpt lat="43.9016902" lon="12.3584217"><ele>530.0</ele><time>2026-04-19T13:37:39.689Z</time></trkpt><trkpt lat="43.9018787" lon="12.3584453"><ele>530.0</ele><time>2026-04-19T13:37:40.69Z</time></trkpt><trkpt lat="43.9020639" lon="12.3584668"><ele>530.0</ele><time>2026-04-19T13:37:41.689Z</time></trkpt><trkpt lat="43.902252" lon="12.3584825"><ele>530.0</ele><time>2026-04-19T13:37:42.692Z</time></trkpt><trkpt lat="43.9024331" lon="12.3585033"><ele>528.0</ele><time>2026-04-19T13:37:43.686Z</time></trkpt><trkpt lat="43.9026045" lon="12.3585317"><ele>526.0</ele><time>2026-04-19T13:37:44.689Z</time></trkpt><trkpt lat="43.9027695" lon="12.3585504"><ele>524.0</ele><time>2026-04-19T13:37:45.692Z</time></trkpt><trkpt lat="43.9029227" lon="12.3585461"><ele>524.0</ele><time>2026-04-19T13:37:46.7Z</time></trkpt><trkpt lat="43.9030877" lon="12.3585039"><ele>524.0</ele><time>2026-04-19T13:37:47.694Z</time></trkpt><trkpt lat="43.9032617" lon="12.3584348"><ele>524.0</ele><time>2026-04-19T13:37:48.696Z</time></trkpt><trkpt lat="43.9034324" lon="12.3583598"><ele>522.75</ele><time>2026-04-19T13:37:49.685Z</time></trkpt><trkpt lat="43.903595" lon="12.3583013"><ele>521.5</ele><time>2026-04-19T13:37:50.691Z</time></trkpt><trkpt lat="43.9037379" lon="12.3582695"><ele>520.25</ele><time>2026-04-19T13:37:51.687Z</time></trkpt><trkpt lat="43.9038624" lon="12.3582494"><ele>519.0</ele><time>2026-04-19T13:37:52.681Z</time></trkpt><trkpt lat="43.9039684" lon="12.3582375"><ele>519.0</ele><time>2026-04-19T13:37:53.685Z</time></trkpt><trkpt lat="43.9040529" lon="12.3582497"><ele>519.0</ele><time>2026-04-19T13:37:54.684Z</time></trkpt><trkpt lat="43.904123" lon="12.3582799"><ele>519.0</ele><time>2026-04-19T13:37:55.677Z</time></trkpt><trkpt lat="43.9041952" lon="12.3583043"><ele>519.0</ele><time>2026-04-19T13:37:56.68Z</time></trkpt><trkpt lat="43.9042676" lon="12.3583212"><ele>519.0</ele><time>2026-04-19T13:37:57.685Z</time></trkpt><trkpt lat="43.9043676" lon="12.3583351"><ele>519.0</ele><time>2026-04-19T13:37:59.686Z</time></trkpt><trkpt lat="43.9044298" lon="12.3583752"><ele>522.0</ele><time>2026-04-19T13:38:01.694Z</time></trkpt><trkpt lat="43.9045125" lon="12.3583988"><ele>525.0</ele><time>2026-04-19T13:38:04.692Z</time></trkpt><trkpt lat="43.9045977" lon="12.3584461"><ele>528.0</ele><time>2026-04-19T13:38:06.688Z</time></trkpt><trkpt lat="43.9047023" lon="12.3585255"><ele>531.0</ele><time>2026-04-19T13:38:08.678Z</time></trkpt><trkpt lat="43.9047726" lon="12.358559"><ele>534.0</ele><time>2026-04-19T13:38:09.673Z</time></trkpt><trkpt lat="43.9048493" lon="12.3585936"><ele>534.0</ele><time>2026-04-19T13:38:10.676Z</time></trkpt><trkpt lat="43.9049172" lon="12.3586362"><ele>534.0</ele><time>2026-04-19T13:38:11.673Z</time></trkpt><trkpt lat="43.9049862" lon="12.3586902"><ele>534.0</ele><time>2026-04-19T13:38:12.676Z</time></trkpt><trkpt lat="43.9050532" lon="12.3587321"><ele>534.0</ele><time>2026-04-19T13:38:13.686Z</time></trkpt><trkpt lat="43.9051228" lon="12.3587769"><ele>534.0</ele><time>2026-04-19T13:38:14.68Z</time></trkpt><trkpt lat="43.9051924" lon="12.3588344"><ele>534.0</ele><time>2026-04-19T13:38:15.68Z</time></trkpt><trkpt lat="43.9052615" lon="12.3588848"><ele>531.8</ele><time>2026-04-19T13:38:16.685Z</time></trkpt><trkpt lat="43.9053445" lon="12.3589446"><ele>529.5999999999999</ele><time>2026-04-19T13:38:17.683Z</time></trkpt><trkpt lat="43.9054324" lon="12.3589884"><ele>527.4</ele><time>2026-04-19T13:38:18.691Z</time></trkpt><trkpt lat="43.905526" lon="12.3589773"><ele>525.1999999999999</ele><time>2026-04-19T13:38:19.684Z</time></trkpt><trkpt lat="43.9056285" lon="12.3589459"><ele>523.0</ele><time>2026-04-19T13:38:20.683Z</time></trkpt><trkpt lat="43.9057327" lon="12.3589215"><ele>523.0</ele><time>2026-04-19T13:38:21.683Z</time></trkpt><trkpt lat="43.9058373" lon="12.3589339"><ele>523.0</ele><time>2026-04-19T13:38:22.688Z</time></trkpt><trkpt lat="43.905951" lon="12.3590069"><ele>523.0</ele><time>2026-04-19T13:38:23.682Z</time></trkpt><trkpt lat="43.9060631" lon="12.3591014"><ele>523.0</ele><time>2026-04-19T13:38:24.68Z</time></trkpt><trkpt lat="43.9061739" lon="12.3591986"><ele>524.0</ele><time>2026-04-19T13:38:25.682Z</time></trkpt><trkpt lat="43.9062833" lon="12.3592852"><ele>525.0</ele><time>2026-04-19T13:38:26.681Z</time></trkpt><trkpt lat="43.9064018" lon="12.3593667"><ele>526.0</ele><time>2026-04-19T13:38:27.685Z</time></trkpt><trkpt lat="43.9065235" lon="12.3594401"><ele>527.0</ele><time>2026-04-19T13:38:28.686Z</time></trkpt><trkpt lat="43.9066512" lon="12.3595063"><ele>526.2</ele><time>2026-04-19T13:38:29.687Z</time></trkpt><trkpt lat="43.9067703" lon="12.359567"><ele>525.4000000000001</ele><time>2026-04-19T13:38:30.694Z</time></trkpt><trkpt lat="43.9068778" lon="12.3596126"><ele>524.5999999999999</ele><time>2026-04-19T13:38:31.687Z</time></trkpt><trkpt lat="43.9069738" lon="12.3596369"><ele>523.8</ele><time>2026-04-19T13:38:32.708Z</time></trkpt><trkpt lat="43.9070657" lon="12.3596417"><ele>523.0</ele><time>2026-04-19T13:38:33.695Z</time></trkpt><trkpt lat="43.9071532" lon="12.359619"><ele>523.0</ele><time>2026-04-19T13:38:34.707Z</time></trkpt><trkpt lat="43.9072367" lon="12.3595509"><ele>523.0</ele><time>2026-04-19T13:38:35.699Z</time></trkpt><trkpt lat="43.9073131" lon="12.3594455"><ele>523.0</ele><time>2026-04-19T13:38:36.696Z</time></trkpt><trkpt lat="43.9073933" lon="12.3593294"><ele>523.0</ele><time>2026-04-19T13:38:37.696Z</time></trkpt><trkpt lat="43.9074818" lon="12.3592147"><ele>523.0</ele><time>2026-04-19T13:38:38.7Z</time></trkpt><trkpt lat="43.907575" lon="12.359099"><ele>524.5</ele><time>2026-04-19T13:38:39.702Z</time></trkpt><trkpt lat="43.9076617" lon="12.3589753"><ele>526.0</ele><time>2026-04-19T13:38:40.701Z</time></trkpt><trkpt lat="43.9077395" lon="12.3588575"><ele>527.5</ele><time>2026-04-19T13:38:41.7Z</time></trkpt><trkpt lat="43.9078053" lon="12.3587407"><ele>529.0</ele><time>2026-04-19T13:38:42.699Z</time></trkpt><trkpt lat="43.9078776" lon="12.3586349"><ele>529.0</ele><time>2026-04-19T13:38:43.693Z</time></trkpt><trkpt lat="43.9079604" lon="12.3585459"><ele>529.0</ele><time>2026-04-19T13:38:44.693Z</time></trkpt><trkpt lat="43.9080588" lon="12.3584685"><ele>529.0</ele><time>2026-04-19T13:38:45.691Z</time></trkpt><trkpt lat="43.9081727" lon="12.3584007"><ele>529.0</ele><time>2026-04-19T13:38:46.684Z</time></trkpt><trkpt lat="43.9082871" lon="12.358338"><ele>529.0</ele><time>2026-04-19T13:38:47.686Z</time></trkpt><trkpt lat="43.9083997" lon="12.3582765"><ele>529.0</ele><time>2026-04-19T13:38:48.683Z</time></trkpt><trkpt lat="43.9085163" lon="12.3582368"><ele>529.0</ele><time>2026-04-19T13:38:49.679Z</time></trkpt><trkpt lat="43.908636" lon="12.3582266"><ele>529.0</ele><time>2026-04-19T13:38:50.68Z</time></trkpt><trkpt lat="43.9087588" lon="12.35824"><ele>525.4</ele><time>2026-04-19T13:38:51.68Z</time></trkpt><trkpt lat="43.9088768" lon="12.3582566"><ele>521.8</ele><time>2026-04-19T13:38:52.68Z</time></trkpt><trkpt lat="43.9089802" lon="12.3582545"><ele>518.2</ele><time>2026-04-19T13:38:53.681Z</time></trkpt><trkpt lat="43.9090784" lon="12.3582196"><ele>514.6</ele><time>2026-04-19T13:38:54.688Z</time></trkpt><trkpt lat="43.9091723" lon="12.3581506"><ele>511.0</ele><time>2026-04-19T13:38:55.688Z</time></trkpt><trkpt lat="43.9092566" lon="12.3580364"><ele>512.4</ele><time>2026-04-19T13:38:56.681Z</time></trkpt><trkpt lat="43.9093351" lon="12.3579147"><ele>513.8</ele><time>2026-04-19T13:38:57.676Z</time></trkpt><trkpt lat="43.9094077" lon="12.3578034"><ele>515.1999999999999</ele><time>2026-04-19T13:38:58.68Z</time></trkpt><trkpt lat="43.9094967" lon="12.3577294"><ele>516.6</ele><time>2026-04-19T13:38:59.676Z</time></trkpt><trkpt lat="43.9095923" lon="12.3577033"><ele>518.0</ele><time>2026-04-19T13:39:00.675Z</time></trkpt><trkpt lat="43.9097086" lon="12.3576959"><ele>518.0</ele><time>2026-04-19T13:39:01.673Z</time></trkpt><trkpt lat="43.9098221" lon="12.357688"><ele>518.0</ele><time>2026-04-19T13:39:02.676Z</time></trkpt><trkpt lat="43.9099298" lon="12.3576481"><ele>518.0</ele><time>2026-04-19T13:39:03.697Z</time></trkpt><trkpt lat="43.9100425" lon="12.3575712"><ele>518.0</ele><time>2026-04-19T13:39:04.677Z</time></trkpt><trkpt lat="43.9101524" lon="12.3574732"><ele>514.75</ele><time>2026-04-19T13:39:05.672Z</time></trkpt><trkpt lat="43.910259" lon="12.3573793"><ele>511.5</ele><time>2026-04-19T13:39:06.675Z</time></trkpt><trkpt lat="43.9103616" lon="12.3572958"><ele>508.25</ele><time>2026-04-19T13:39:07.679Z</time></trkpt><trkpt lat="43.9104669" lon="12.357234"><ele>505.0</ele><time>2026-04-19T13:39:08.682Z</time></trkpt><trkpt lat="43.9105968" lon="12.3572154"><ele>505.0</ele><time>2026-04-19T13:39:09.672Z</time></trkpt><trkpt lat="43.9107426" lon="12.3572044"><ele>505.0</ele><time>2026-04-19T13:39:10.671Z</time></trkpt><trkpt lat="43.9109114" lon="12.3571778"><ele>505.0</ele><time>2026-04-19T13:39:11.676Z</time></trkpt><trkpt lat="43.9110765" lon="12.3571282"><ele>509.0</ele><time>2026-04-19T13:39:12.671Z</time></trkpt><trkpt lat="43.9112294" lon="12.3570733"><ele>513.0</ele><time>2026-04-19T13:39:13.673Z</time></trkpt><trkpt lat="43.9113793" lon="12.3570387"><ele>517.0</ele><time>2026-04-19T13:39:14.678Z</time></trkpt><trkpt lat="43.9115245" lon="12.3570094"><ele>517.0</ele><time>2026-04-19T13:39:15.675Z</time></trkpt><trkpt lat="43.9116633" lon="12.3569824"><ele>517.0</ele><time>2026-04-19T13:39:16.677Z</time></trkpt><trkpt lat="43.9117866" lon="12.3569163"><ele>517.0</ele><time>2026-04-19T13:39:17.676Z</time></trkpt><trkpt lat="43.9119111" lon="12.3568316"><ele>517.0</ele><time>2026-04-19T13:39:18.679Z</time></trkpt><trkpt lat="43.9120259" lon="12.3567343"><ele>514.5</ele><time>2026-04-19T13:39:19.683Z</time></trkpt><trkpt lat="43.9121451" lon="12.3566279"><ele>512.0</ele><time>2026-04-19T13:39:20.681Z</time></trkpt><trkpt lat="43.9122641" lon="12.3565244"><ele>509.5</ele><time>2026-04-19T13:39:21.691Z</time></trkpt><trkpt lat="43.9123763" lon="12.3564166"><ele>507.0</ele><time>2026-04-19T13:39:22.688Z</time></trkpt><trkpt lat="43.9124898" lon="12.3563424"><ele>507.0</ele><time>2026-04-19T13:39:23.693Z</time></trkpt><trkpt lat="43.9126098" lon="12.3562975"><ele>507.0</ele><time>2026-04-19T13:39:24.687Z</time></trkpt><trkpt lat="43.9127346" lon="12.3562449"><ele>507.0</ele><time>2026-04-19T13:39:25.687Z</time></trkpt><trkpt lat="43.9128529" lon="12.3561793"><ele>507.0</ele><time>2026-04-19T13:39:26.692Z</time></trkpt><trkpt lat="43.9129699" lon="12.356103"><ele>507.0</ele><time>2026-04-19T13:39:27.686Z</time></trkpt><trkpt lat="43.9130928" lon="12.3560099"><ele>507.0</ele><time>2026-04-19T13:39:28.683Z</time></trkpt><trkpt lat="43.9132109" lon="12.3559199"><ele>507.0</ele><time>2026-04-19T13:39:29.685Z</time></trkpt><trkpt lat="43.913314" lon="12.3558477"><ele>507.0</ele><time>2026-04-19T13:39:30.7Z</time></trkpt><trkpt lat="43.9134116" lon="12.3557985"><ele>501.40000000000003</ele><time>2026-04-19T13:39:31.697Z</time></trkpt><trkpt lat="43.9134938" lon="12.3557937"><ele>495.80000000000007</ele><time>2026-04-19T13:39:32.688Z</time></trkpt><trkpt lat="43.9135853" lon="12.3558244"><ele>490.2</ele><time>2026-04-19T13:39:33.69Z</time></trkpt><trkpt lat="43.913668" lon="12.3559027"><ele>484.6</ele><time>2026-04-19T13:39:34.703Z</time></trkpt><trkpt lat="43.913767" lon="12.3560078"><ele>479.0</ele><time>2026-04-19T13:39:35.688Z</time></trkpt><trkpt lat="43.9138595" lon="12.3561187"><ele>479.0</ele><time>2026-04-19T13:39:36.679Z</time></trkpt><trkpt lat="43.9139693" lon="12.3562274"><ele>479.0</ele><time>2026-04-19T13:39:37.686Z</time></trkpt><trkpt lat="43.9140871" lon="12.3563323"><ele>479.0</ele><time>2026-04-19T13:39:38.685Z</time></trkpt><trkpt lat="43.91421" lon="12.3564384"><ele>479.0</ele><time>2026-04-19T13:39:39.684Z</time></trkpt><trkpt lat="43.9143263" lon="12.3565408"><ele>479.25</ele><time>2026-04-19T13:39:40.68Z</time></trkpt><trkpt lat="43.9144373" lon="12.3566536"><ele>479.5</ele><time>2026-04-19T13:39:41.683Z</time></trkpt><trkpt lat="43.9145456" lon="12.3567797"><ele>479.75</ele><time>2026-04-19T13:39:42.684Z</time></trkpt><trkpt lat="43.9146571" lon="12.3569066"><ele>480.0</ele><time>2026-04-19T13:39:43.681Z</time></trkpt><trkpt lat="43.9147997" lon="12.3570302"><ele>480.0</ele><time>2026-04-19T13:39:44.683Z</time></trkpt><trkpt lat="43.9149524" lon="12.357141"><ele>480.0</ele><time>2026-04-19T13:39:45.683Z</time></trkpt><trkpt lat="43.9150926" lon="12.3572363"><ele>480.0</ele><time>2026-04-19T13:39:46.685Z</time></trkpt><trkpt lat="43.9152112" lon="12.357323"><ele>483.2</ele><time>2026-04-19T13:39:47.686Z</time></trkpt><trkpt lat="43.9153133" lon="12.3573791"><ele>486.4</ele><time>2026-04-19T13:39:48.686Z</time></trkpt><trkpt lat="43.9154084" lon="12.3574082"><ele>489.6</ele><time>2026-04-19T13:39:49.693Z</time></trkpt><trkpt lat="43.9154955" lon="12.3574065"><ele>492.8</ele><time>2026-04-19T13:39:50.682Z</time></trkpt><trkpt lat="43.9155975" lon="12.3573921"><ele>496.0</ele><time>2026-04-19T13:39:51.676Z</time></trkpt><trkpt lat="43.9157045" lon="12.3573654"><ele>496.0</ele><time>2026-04-19T13:39:52.678Z</time></trkpt><trkpt lat="43.9158137" lon="12.3573314"><ele>496.0</ele><time>2026-04-19T13:39:53.681Z</time></trkpt><trkpt lat="43.9159237" lon="12.3572861"><ele>496.0</ele><time>2026-04-19T13:39:54.683Z</time></trkpt><trkpt lat="43.9160371" lon="12.3572319"><ele>496.0</ele><time>2026-04-19T13:39:55.68Z</time></trkpt><trkpt lat="43.9161514" lon="12.3571891"><ele>493.6666666666667</ele><time>2026-04-19T13:39:56.681Z</time></trkpt><trkpt lat="43.9162612" lon="12.35716"><ele>491.33333333333337</ele><time>2026-04-19T13:39:57.689Z</time></trkpt><trkpt lat="43.9163474" lon="12.3571559"><ele>489.0</ele><time>2026-04-19T13:39:58.692Z</time></trkpt><trkpt lat="43.9164245" lon="12.3571724"><ele>486.66666666666663</ele><time>2026-04-19T13:39:59.687Z</time></trkpt><trkpt lat="43.9164963" lon="12.3572022"><ele>484.3333333333333</ele><time>2026-04-19T13:40:00.7Z</time></trkpt><trkpt lat="43.91657" lon="12.357271"><ele>482.0</ele><time>2026-04-19T13:40:01.692Z</time></trkpt><trkpt lat="43.916653" lon="12.3573831"><ele>482.0</ele><time>2026-04-19T13:40:02.684Z</time></trkpt><trkpt lat="43.9167349" lon="12.3575088"><ele>482.0</ele><time>2026-04-19T13:40:03.679Z</time></trkpt><trkpt lat="43.9168217" lon="12.3576287"><ele>482.0</ele><time>2026-04-19T13:40:04.687Z</time></trkpt><trkpt lat="43.916898" lon="12.3577488"><ele>482.0</ele><time>2026-04-19T13:40:05.702Z</time></trkpt><trkpt lat="43.9169629" lon="12.3578867"><ele>483.6</ele><time>2026-04-19T13:40:06.689Z</time></trkpt><trkpt lat="43.9170096" lon="12.3580437"><ele>485.20000000000005</ele><time>2026-04-19T13:40:07.682Z</time></trkpt><trkpt lat="43.9170685" lon="12.3581835"><ele>486.8</ele><time>2026-04-19T13:40:08.69Z</time></trkpt><trkpt lat="43.9171462" lon="12.3582858"><ele>488.4</ele><time>2026-04-19T13:40:09.689Z</time></trkpt><trkpt lat="43.9172353" lon="12.3583443"><ele>490.0</ele><time>2026-04-19T13:40:10.688Z</time></trkpt><trkpt lat="43.9173351" lon="12.358358"><ele>490.0</ele><time>2026-04-19T13:40:11.684Z</time></trkpt><trkpt lat="43.9174531" lon="12.3583366"><ele>490.0</ele><time>2026-04-19T13:40:12.683Z</time></trkpt><trkpt lat="43.9175683" lon="12.3582565"><ele>490.0</ele><time>2026-04-19T13:40:13.681Z</time></trkpt><trkpt lat="43.9176827" lon="12.3581628"><ele>490.0</ele><time>2026-04-19T13:40:14.685Z</time></trkpt><trkpt lat="43.917788" lon="12.3580626"><ele>488.6</ele><time>2026-04-19T13:40:15.683Z</time></trkpt><trkpt lat="43.9178789" lon="12.3579942"><ele>487.2</ele><time>2026-04-19T13:40:16.685Z</time></trkpt><trkpt lat="43.9179634" lon="12.3579586"><ele>485.79999999999995</ele><time>2026-04-19T13:40:17.696Z</time></trkpt><trkpt lat="43.9180525" lon="12.357964"><ele>484.4</ele><time>2026-04-19T13:40:18.692Z</time></trkpt><trkpt lat="43.9181572" lon="12.3580176"><ele>483.0</ele><time>2026-04-19T13:40:19.693Z</time></trkpt><trkpt lat="43.9182535" lon="12.3581015"><ele>483.0</ele><time>2026-04-19T13:40:20.693Z</time></trkpt><trkpt lat="43.9183564" lon="12.3582417"><ele>483.0</ele><time>2026-04-19T13:40:21.687Z</time></trkpt><trkpt lat="43.9184521" lon="12.3583599"><ele>483.0</ele><time>2026-04-19T13:40:22.676Z</time></trkpt><trkpt lat="43.9185557" lon="12.358469"><ele>483.0</ele><time>2026-04-19T13:40:23.68Z</time></trkpt><trkpt lat="43.9186567" lon="12.3585902"><ele>482.79999999999995</ele><time>2026-04-19T13:40:24.681Z</time></trkpt><trkpt lat="43.9187506" lon="12.3587177"><ele>482.59999999999997</ele><time>2026-04-19T13:40:25.698Z</time></trkpt><trkpt lat="43.9188317" lon="12.3588181"><ele>482.40000000000003</ele><time>2026-04-19T13:40:26.688Z</time></trkpt><trkpt lat="43.9189093" lon="12.3588951"><ele>482.20000000000005</ele><time>2026-04-19T13:40:27.688Z</time></trkpt><trkpt lat="43.9189888" lon="12.3589449"><ele>482.0</ele><time>2026-04-19T13:40:28.698Z</time></trkpt><trkpt lat="43.9190703" lon="12.3589677"><ele>482.0</ele><time>2026-04-19T13:40:29.701Z</time></trkpt><trkpt lat="43.9191707" lon="12.358938"><ele>482.0</ele><time>2026-04-19T13:40:30.697Z</time></trkpt><trkpt lat="43.9192887" lon="12.3589043"><ele>482.0</ele><time>2026-04-19T13:40:31.685Z</time></trkpt><trkpt lat="43.9194098" lon="12.3588747"><ele>482.0</ele><time>2026-04-19T13:40:32.682Z</time></trkpt><trkpt lat="43.9195348" lon="12.3588508"><ele>475.25</ele><time>2026-04-19T13:40:33.684Z</time></trkpt><trkpt lat="43.9196641" lon="12.3588255"><ele>468.5</ele><time>2026-04-19T13:40:34.683Z</time></trkpt><trkpt lat="43.9197908" lon="12.3587933"><ele>461.75</ele><time>2026-04-19T13:40:35.685Z</time></trkpt><trkpt lat="43.9199081" lon="12.3587501"><ele>455.0</ele><time>2026-04-19T13:40:36.704Z</time></trkpt><trkpt lat="43.9200109" lon="12.3586975"><ele>453.25</ele><time>2026-04-19T13:40:37.684Z</time></trkpt><trkpt lat="43.9201216" lon="12.3586383"><ele>451.5</ele><time>2026-04-19T13:40:38.692Z</time></trkpt><trkpt lat="43.920241" lon="12.3585704"><ele>449.75</ele><time>2026-04-19T13:40:39.69Z</time></trkpt><trkpt lat="43.9203538" lon="12.3584872"><ele>448.0</ele><time>2026-04-19T13:40:40.692Z</time></trkpt><trkpt lat="43.9204492" lon="12.3584163"><ele>448.00000000000006</ele><time>2026-04-19T13:40:41.703Z</time></trkpt><trkpt lat="43.9205373" lon="12.3583626"><ele>448.0</ele><time>2026-04-19T13:40:42.703Z</time></trkpt><trkpt lat="43.9206239" lon="12.3583474"><ele>448.0</ele><time>2026-04-19T13:40:43.701Z</time></trkpt><trkpt lat="43.9206844" lon="12.3584081"><ele>448.0</ele><time>2026-04-19T13:40:44.701Z</time></trkpt><trkpt lat="43.9207131" lon="12.3585028"><ele>448.00000000000006</ele><time>2026-04-19T13:40:45.689Z</time></trkpt><trkpt lat="43.9206862" lon="12.3586243"><ele>448.0</ele><time>2026-04-19T13:40:46.698Z</time></trkpt><trkpt lat="43.9206002" lon="12.3587882"><ele>446.75</ele><time>2026-04-19T13:40:47.698Z</time></trkpt><trkpt lat="43.9205084" lon="12.3589796"><ele>445.5</ele><time>2026-04-19T13:40:48.698Z</time></trkpt><trkpt lat="43.9204431" lon="12.3591517"><ele>444.25</ele><time>2026-04-19T13:40:49.696Z</time></trkpt><trkpt lat="43.9203975" lon="12.359299"><ele>443.0</ele><time>2026-04-19T13:40:50.695Z</time></trkpt><trkpt lat="43.9203623" lon="12.3594246"><ele>443.0</ele><time>2026-04-19T13:40:51.682Z</time></trkpt><trkpt lat="43.9203319" lon="12.359553"><ele>442.99999999999994</ele><time>2026-04-19T13:40:52.685Z</time></trkpt><trkpt lat="43.920317" lon="12.3596871"><ele>442.99999999999994</ele><time>2026-04-19T13:40:53.693Z</time></trkpt><trkpt lat="43.920323" lon="12.3598145"><ele>443.0</ele><time>2026-04-19T13:40:54.695Z</time></trkpt><trkpt lat="43.9203681" lon="12.359914"><ele>443.0</ele><time>2026-04-19T13:40:55.698Z</time></trkpt><trkpt lat="43.9204391" lon="12.3599707"><ele>440.5</ele><time>2026-04-19T13:40:56.697Z</time></trkpt><trkpt lat="43.920544" lon="12.3599943"><ele>438.0</ele><time>2026-04-19T13:40:57.689Z</time></trkpt><trkpt lat="43.9206695" lon="12.3600176"><ele>435.5</ele><time>2026-04-19T13:40:58.688Z</time></trkpt><trkpt lat="43.9207986" lon="12.36004"><ele>433.0</ele><time>2026-04-19T13:40:59.69Z</time></trkpt><trkpt lat="43.9209317" lon="12.3600497"><ele>433.0</ele><time>2026-04-19T13:41:00.686Z</time></trkpt><trkpt lat="43.9210751" lon="12.3600401"><ele>433.0</ele><time>2026-04-19T13:41:01.692Z</time></trkpt><trkpt lat="43.9212053" lon="12.3600364"><ele>433.0</ele><time>2026-04-19T13:41:02.689Z</time></trkpt><trkpt lat="43.9213249" lon="12.3600592"><ele>433.0</ele><time>2026-04-19T13:41:03.697Z</time></trkpt><trkpt lat="43.9214203" lon="12.3601447"><ele>433.0</ele><time>2026-04-19T13:41:04.695Z</time></trkpt><trkpt lat="43.9215071" lon="12.3602725"><ele>433.0</ele><time>2026-04-19T13:41:05.694Z</time></trkpt><trkpt lat="43.9215733" lon="12.3604298"><ele>433.0</ele><time>2026-04-19T13:41:06.692Z</time></trkpt><trkpt lat="43.9216423" lon="12.3605864"><ele>433.0</ele><time>2026-04-19T13:41:07.705Z</time></trkpt><trkpt lat="43.9217209" lon="12.3607285"><ele>436.25</ele><time>2026-04-19T13:41:08.69Z</time></trkpt><trkpt lat="43.9218145" lon="12.3608498"><ele>439.5</ele><time>2026-04-19T13:41:09.699Z</time></trkpt><trkpt lat="43.921916" lon="12.3609345"><ele>442.75</ele><time>2026-04-19T13:41:10.692Z</time></trkpt><trkpt lat="43.9220159" lon="12.3609764"><ele>446.0</ele><time>2026-04-19T13:41:11.692Z</time></trkpt><trkpt lat="43.9221321" lon="12.3609597"><ele>446.0</ele><time>2026-04-19T13:41:12.688Z</time></trkpt><trkpt lat="43.9222492" lon="12.360878"><ele>446.0</ele><time>2026-04-19T13:41:13.687Z</time></trkpt><trkpt lat="43.9223482" lon="12.3608064"><ele>446.0</ele><time>2026-04-19T13:41:14.686Z</time></trkpt><trkpt lat="43.9224389" lon="12.3607947"><ele>446.0</ele><time>2026-04-19T13:41:15.689Z</time></trkpt><trkpt lat="43.9225456" lon="12.3608483"><ele>446.0</ele><time>2026-04-19T13:41:16.687Z</time></trkpt><trkpt lat="43.9226639" lon="12.3609085"><ele>442.25</ele><time>2026-04-19T13:41:17.688Z</time></trkpt><trkpt lat="43.9227945" lon="12.3609473"><ele>438.5</ele><time>2026-04-19T13:41:18.687Z</time></trkpt><trkpt lat="43.922913" lon="12.3609915"><ele>434.75</ele><time>2026-04-19T13:41:19.679Z</time></trkpt><trkpt lat="43.9230274" lon="12.3610632"><ele>431.0</ele><time>2026-04-19T13:41:20.688Z</time></trkpt><trkpt lat="43.9231587" lon="12.3611615"><ele>431.0</ele><time>2026-04-19T13:41:21.683Z</time></trkpt><trkpt lat="43.9233033" lon="12.3612448"><ele>431.0</ele><time>2026-04-19T13:41:22.685Z</time></trkpt><trkpt lat="43.9234647" lon="12.3613022"><ele>431.0</ele><time>2026-04-19T13:41:23.681Z</time></trkpt><trkpt lat="43.9236276" lon="12.3613299"><ele>426.75</ele><time>2026-04-19T13:41:24.684Z</time></trkpt><trkpt lat="43.9237752" lon="12.3613081"><ele>422.5</ele><time>2026-04-19T13:41:25.681Z</time></trkpt><trkpt lat="43.9239114" lon="12.3612757"><ele>418.25</ele><time>2026-04-19T13:41:26.681Z</time></trkpt><trkpt lat="43.9240293" lon="12.361274"><ele>414.0</ele><time>2026-04-19T13:41:27.678Z</time></trkpt><trkpt lat="43.924135" lon="12.361283"><ele>412.5</ele><time>2026-04-19T13:41:28.685Z</time></trkpt><trkpt lat="43.9242498" lon="12.3613321"><ele>411.0</ele><time>2026-04-19T13:41:29.681Z</time></trkpt><trkpt lat="43.9243565" lon="12.3613949"><ele>409.5</ele><time>2026-04-19T13:41:30.687Z</time></trkpt><trkpt lat="43.9244754" lon="12.3614435"><ele>408.0</ele><time>2026-04-19T13:41:31.681Z</time></trkpt><trkpt lat="43.9246119" lon="12.3614373"><ele>415.25</ele><time>2026-04-19T13:41:32.684Z</time></trkpt><trkpt lat="43.924749" lon="12.3614361"><ele>422.5</ele><time>2026-04-19T13:41:33.683Z</time></trkpt><trkpt lat="43.9248782" lon="12.3614535"><ele>429.75</ele><time>2026-04-19T13:41:34.687Z</time></trkpt><trkpt lat="43.9250074" lon="12.3615134"><ele>437.0</ele><time>2026-04-19T13:41:35.689Z</time></trkpt><trkpt lat="43.925113" lon="12.361593"><ele>438.75</ele><time>2026-04-19T13:41:36.683Z</time></trkpt><trkpt lat="43.9252291" lon="12.3616611"><ele>440.5</ele><time>2026-04-19T13:41:37.684Z</time></trkpt><trkpt lat="43.9253387" lon="12.3616931"><ele>442.25</ele><time>2026-04-19T13:41:38.701Z</time></trkpt><trkpt lat="43.92545" lon="12.3616729"><ele>444.0</ele><time>2026-04-19T13:41:39.684Z</time></trkpt><trkpt lat="43.9255366" lon="12.3615823"><ele>444.0</ele><time>2026-04-19T13:41:40.685Z</time></trkpt><trkpt lat="43.9256035" lon="12.3614315"><ele>444.0</ele><time>2026-04-19T13:41:41.692Z</time></trkpt><trkpt lat="43.9256462" lon="12.361263"><ele>444.0</ele><time>2026-04-19T13:41:42.675Z</time></trkpt><trkpt lat="43.9256731" lon="12.3611231"><ele>444.0</ele><time>2026-04-19T13:41:43.691Z</time></trkpt><trkpt lat="43.925698" lon="12.3610177"><ele>444.0</ele><time>2026-04-19T13:41:44.687Z</time></trkpt><trkpt lat="43.9258213" lon="12.3609969"><ele>437.0</ele><time>2026-04-19T13:41:46.688Z</time></trkpt><trkpt lat="43.9259077" lon="12.3610376"><ele>430.0</ele><time>2026-04-19T13:41:47.687Z</time></trkpt><trkpt lat="43.9260053" lon="12.3610997"><ele>423.0</ele><time>2026-04-19T13:41:48.686Z</time></trkpt><trkpt lat="43.9261129" lon="12.3611749"><ele>416.0</ele><time>2026-04-19T13:41:49.683Z</time></trkpt><trkpt lat="43.9262317" lon="12.361259"><ele>416.0</ele><time>2026-04-19T13:41:50.682Z</time></trkpt><trkpt lat="43.9263561" lon="12.3613388"><ele>416.0</ele><time>2026-04-19T13:41:51.681Z</time></trkpt><trkpt lat="43.9264873" lon="12.3614116"><ele>416.0</ele><time>2026-04-19T13:41:52.684Z</time></trkpt><trkpt lat="43.9266216" lon="12.3614776"><ele>416.0</ele><time>2026-04-19T13:41:53.689Z</time></trkpt><trkpt lat="43.9267428" lon="12.3615438"><ele>418.0</ele><time>2026-04-19T13:41:54.684Z</time></trkpt><trkpt lat="43.926862" lon="12.3616333"><ele>420.0</ele><time>2026-04-19T13:41:55.701Z</time></trkpt><trkpt lat="43.9269606" lon="12.3617341"><ele>422.0</ele><time>2026-04-19T13:41:56.698Z</time></trkpt><trkpt lat="43.9270487" lon="12.3618178"><ele>424.0</ele><time>2026-04-19T13:41:57.691Z</time></trkpt><trkpt lat="43.9271158" lon="12.3618816"><ele>426.0</ele><time>2026-04-19T13:41:58.692Z</time></trkpt><trkpt lat="43.9271805" lon="12.3619383"><ele>426.0</ele><time>2026-04-19T13:41:59.694Z</time></trkpt><trkpt lat="43.9272563" lon="12.3619794"><ele>426.0</ele><time>2026-04-19T13:42:00.694Z</time></trkpt><trkpt lat="43.9273515" lon="12.3620251"><ele>426.0</ele><time>2026-04-19T13:42:01.697Z</time></trkpt><trkpt lat="43.9274314" lon="12.3620651"><ele>426.0</ele><time>2026-04-19T13:42:02.69Z</time></trkpt><trkpt lat="43.927521" lon="12.3620818"><ele>426.0</ele><time>2026-04-19T13:42:03.687Z</time></trkpt><trkpt lat="43.9276113" lon="12.362082"><ele>426.0</ele><time>2026-04-19T13:42:04.694Z</time></trkpt><trkpt lat="43.9277095" lon="12.3620663"><ele>427.0</ele><time>2026-04-19T13:42:05.694Z</time></trkpt><trkpt lat="43.9278113" lon="12.3619977"><ele>428.0</ele><time>2026-04-19T13:42:06.695Z</time></trkpt><trkpt lat="43.9279091" lon="12.3619"><ele>429.0</ele><time>2026-04-19T13:42:07.688Z</time></trkpt><trkpt lat="43.9279932" lon="12.3617943"><ele>430.0</ele><time>2026-04-19T13:42:08.685Z</time></trkpt><trkpt lat="43.9280705" lon="12.3616811"><ele>430.0</ele><time>2026-04-19T13:42:09.705Z</time></trkpt><trkpt lat="43.928154" lon="12.3615835"><ele>430.0</ele><time>2026-04-19T13:42:10.686Z</time></trkpt><trkpt lat="43.9282335" lon="12.361503"><ele>430.0</ele><time>2026-04-19T13:42:11.685Z</time></trkpt><trkpt lat="43.9283223" lon="12.3614453"><ele>430.0</ele><time>2026-04-19T13:42:12.685Z</time></trkpt><trkpt lat="43.9284215" lon="12.3613882"><ele>430.0</ele><time>2026-04-19T13:42:13.685Z</time></trkpt><trkpt lat="43.9285244" lon="12.3613148"><ele>427.0</ele><time>2026-04-19T13:42:14.687Z</time></trkpt><trkpt lat="43.9286159" lon="12.3612044"><ele>424.0</ele><time>2026-04-19T13:42:15.687Z</time></trkpt><trkpt lat="43.928695" lon="12.3610761"><ele>421.0</ele><time>2026-04-19T13:42:16.691Z</time></trkpt><trkpt lat="43.9287693" lon="12.3609274"><ele>418.0</ele><time>2026-04-19T13:42:17.684Z</time></trkpt><trkpt lat="43.9288476" lon="12.360768"><ele>418.0</ele><time>2026-04-19T13:42:18.694Z</time></trkpt><trkpt lat="43.9289122" lon="12.3606071"><ele>418.0</ele><time>2026-04-19T13:42:19.692Z</time></trkpt><trkpt lat="43.9289853" lon="12.3604618"><ele>418.0</ele><time>2026-04-19T13:42:20.688Z</time></trkpt><trkpt lat="43.9290619" lon="12.3603315"><ele>418.0</ele><time>2026-04-19T13:42:21.684Z</time></trkpt><trkpt lat="43.9291375" lon="12.3602294"><ele>415.4</ele><time>2026-04-19T13:42:22.697Z</time></trkpt><trkpt lat="43.9292193" lon="12.3601765"><ele>412.79999999999995</ele><time>2026-04-19T13:42:23.689Z</time></trkpt><trkpt lat="43.929314" lon="12.3601457"><ele>410.2</ele><time>2026-04-19T13:42:24.691Z</time></trkpt><trkpt lat="43.9294176" lon="12.3601112"><ele>407.6</ele><time>2026-04-19T13:42:25.695Z</time></trkpt><trkpt lat="43.9295198" lon="12.3600582"><ele>405.0</ele><time>2026-04-19T13:42:26.687Z</time></trkpt><trkpt lat="43.9296207" lon="12.3599815"><ele>405.0</ele><time>2026-04-19T13:42:27.697Z</time></trkpt><trkpt lat="43.9297175" lon="12.3598784"><ele>405.0</ele><time>2026-04-19T13:42:28.69Z</time></trkpt><trkpt lat="43.9297937" lon="12.359729"><ele>405.0</ele><time>2026-04-19T13:42:29.688Z</time></trkpt><trkpt lat="43.9298675" lon="12.3595743"><ele>405.0</ele><time>2026-04-19T13:42:30.696Z</time></trkpt><trkpt lat="43.9299511" lon="12.3594202"><ele>401.0</ele><time>2026-04-19T13:42:31.694Z</time></trkpt><trkpt lat="43.9300358" lon="12.35929"><ele>397.0</ele><time>2026-04-19T13:42:32.695Z</time></trkpt><trkpt lat="43.9301178" lon="12.359165"><ele>393.0</ele><time>2026-04-19T13:42:33.695Z</time></trkpt><trkpt lat="43.9301929" lon="12.3590418"><ele>389.0</ele><time>2026-04-19T13:42:34.69Z</time></trkpt><trkpt lat="43.9302593" lon="12.3589234"><ele>388.2</ele><time>2026-04-19T13:42:35.69Z</time></trkpt><trkpt lat="43.9303237" lon="12.3588134"><ele>387.4</ele><time>2026-04-19T13:42:36.688Z</time></trkpt><trkpt lat="43.9303909" lon="12.3587095"><ele>386.6</ele><time>2026-04-19T13:42:37.69Z</time></trkpt><trkpt lat="43.9304707" lon="12.3586319"><ele>385.8</ele><time>2026-04-19T13:42:38.698Z</time></trkpt><trkpt lat="43.9305827" lon="12.3585927"><ele>385.0</ele><time>2026-04-19T13:42:39.697Z</time></trkpt><trkpt lat="43.9307026" lon="12.358516"><ele>385.0</ele><time>2026-04-19T13:42:40.736Z</time></trkpt><trkpt lat="43.930815" lon="12.3583865"><ele>385.0</ele><time>2026-04-19T13:42:41.708Z</time></trkpt><trkpt lat="43.9309029" lon="12.3582323"><ele>385.0</ele><time>2026-04-19T13:42:42.7Z</time></trkpt><trkpt lat="43.9309844" lon="12.3581119"><ele>385.0</ele><time>2026-04-19T13:42:43.696Z</time></trkpt><trkpt lat="43.9310312" lon="12.3580257"><ele>377.8</ele><time>2026-04-19T13:42:44.699Z</time></trkpt><trkpt lat="43.9311426" lon="12.358066"><ele>370.6</ele><time>2026-04-19T13:42:46.695Z</time></trkpt><trkpt lat="43.9311567" lon="12.3581544"><ele>363.4</ele><time>2026-04-19T13:42:47.69Z</time></trkpt><trkpt lat="43.9311319" lon="12.3582824"><ele>356.2</ele><time>2026-04-19T13:42:48.686Z</time></trkpt><trkpt lat="43.9310752" lon="12.3584078"><ele>349.0</ele><time>2026-04-19T13:42:49.684Z</time></trkpt><trkpt lat="43.9310134" lon="12.3585481"><ele>349.0</ele><time>2026-04-19T13:42:50.683Z</time></trkpt><trkpt lat="43.93097" lon="12.3587073"><ele>349.0</ele><time>2026-04-19T13:42:51.688Z</time></trkpt><trkpt lat="43.9309548" lon="12.3588936"><ele>349.0</ele><time>2026-04-19T13:42:52.689Z</time></trkpt><trkpt lat="43.9309695" lon="12.359098"><ele>349.0</ele><time>2026-04-19T13:42:53.684Z</time></trkpt><trkpt lat="43.930992" lon="12.3592907"><ele>347.16666666666663</ele><time>2026-04-19T13:42:54.684Z</time></trkpt><trkpt lat="43.9310389" lon="12.3594487"><ele>345.3333333333333</ele><time>2026-04-19T13:42:55.692Z</time></trkpt><trkpt lat="43.9310712" lon="12.3595336"><ele>343.5</ele><time>2026-04-19T13:42:56.686Z</time></trkpt><trkpt lat="43.9311704" lon="12.3595361"><ele>341.6666666666667</ele><time>2026-04-19T13:42:58.691Z</time></trkpt><trkpt lat="43.9311877" lon="12.3594467"><ele>339.83333333333337</ele><time>2026-04-19T13:42:59.699Z</time></trkpt><trkpt lat="43.9312024" lon="12.359336"><ele>338.0</ele><time>2026-04-19T13:43:00.699Z</time></trkpt><trkpt lat="43.9311882" lon="12.3592018"><ele>338.0</ele><time>2026-04-19T13:43:01.689Z</time></trkpt><trkpt lat="43.9311681" lon="12.3590526"><ele>338.0</ele><time>2026-04-19T13:43:02.696Z</time></trkpt><trkpt lat="43.9311573" lon="12.3588906"><ele>338.0</ele><time>2026-04-19T13:43:03.687Z</time></trkpt><trkpt lat="43.9311641" lon="12.3587223"><ele>338.0</ele><time>2026-04-19T13:43:04.685Z</time></trkpt><trkpt lat="43.9311985" lon="12.3585577"><ele>340.75</ele><time>2026-04-19T13:43:05.691Z</time></trkpt><trkpt lat="43.9312543" lon="12.3584026"><ele>343.5</ele><time>2026-04-19T13:43:06.685Z</time></trkpt><trkpt lat="43.9313267" lon="12.3582598"><ele>346.25</ele><time>2026-04-19T13:43:07.689Z</time></trkpt><trkpt lat="43.9314082" lon="12.3581514"><ele>349.0</ele><time>2026-04-19T13:43:08.689Z</time></trkpt><trkpt lat="43.9314887" lon="12.3580634"><ele>353.0</ele><time>2026-04-19T13:43:09.679Z</time></trkpt><trkpt lat="43.9315692" lon="12.3580003"><ele>357.0</ele><time>2026-04-19T13:43:10.706Z</time></trkpt><trkpt lat="43.9316419" lon="12.3579789"><ele>361.0</ele><time>2026-04-19T13:43:11.676Z</time></trkpt><trkpt lat="43.9317184" lon="12.3579524"><ele>365.0</ele><time>2026-04-19T13:43:12.674Z</time></trkpt><trkpt lat="43.9317859" lon="12.3579464"><ele>369.0</ele><time>2026-04-19T13:43:13.682Z</time></trkpt><trkpt lat="43.9318237" lon="12.3580699"><ele>373.0</ele><time>2026-04-19T13:43:15.684Z</time></trkpt><trkpt lat="43.9317663" lon="12.3582059"><ele>369.0</ele><time>2026-04-19T13:43:17.692Z</time></trkpt><trkpt lat="43.9316976" lon="12.3582559"><ele>365.0</ele><time>2026-04-19T13:43:18.685Z</time></trkpt><trkpt lat="43.9316282" lon="12.3582925"><ele>361.0</ele><time>2026-04-19T13:43:19.681Z</time></trkpt><trkpt lat="43.9315729" lon="12.3583512"><ele>357.0</ele><time>2026-04-19T13:43:20.678Z</time></trkpt><trkpt lat="43.9315193" lon="12.3584311"><ele>353.0</ele><time>2026-04-19T13:43:21.685Z</time></trkpt><trkpt lat="43.9314884" lon="12.3585302"><ele>349.0</ele><time>2026-04-19T13:43:22.678Z</time></trkpt><trkpt lat="43.9314769" lon="12.3586381"><ele>349.0</ele><time>2026-04-19T13:43:23.684Z</time></trkpt><trkpt lat="43.9314738" lon="12.358755"><ele>349.0</ele><time>2026-04-19T13:43:24.681Z</time></trkpt><trkpt lat="43.9314756" lon="12.3588885"><ele>349.0</ele><time>2026-04-19T13:43:25.688Z</time></trkpt><trkpt lat="43.9314734" lon="12.3590196"><ele>349.0</ele><time>2026-04-19T13:43:26.687Z</time></trkpt><trkpt lat="43.9314624" lon="12.3591526"><ele>349.0</ele><time>2026-04-19T13:43:27.688Z</time></trkpt><trkpt lat="43.931453" lon="12.3592997"><ele>346.79999999999995</ele><time>2026-04-19T13:43:28.693Z</time></trkpt><trkpt lat="43.9314434" lon="12.3594573"><ele>344.59999999999997</ele><time>2026-04-19T13:43:29.688Z</time></trkpt><trkpt lat="43.9314353" lon="12.3596137"><ele>342.4</ele><time>2026-04-19T13:43:30.7Z</time></trkpt><trkpt lat="43.9314271" lon="12.3597206"><ele>340.2</ele><time>2026-04-19T13:43:31.698Z</time></trkpt><trkpt lat="43.931487" lon="12.3598233"><ele>338.0</ele><time>2026-04-19T13:43:33.681Z</time></trkpt><trkpt lat="43.9315703" lon="12.35986"><ele>337.59999999999997</ele><time>2026-04-19T13:43:35.69Z</time></trkpt><trkpt lat="43.9316456" lon="12.3598832"><ele>337.2</ele><time>2026-04-19T13:43:36.688Z</time></trkpt><trkpt lat="43.9317495" lon="12.35989"><ele>336.8</ele><time>2026-04-19T13:43:37.686Z</time></trkpt><trkpt lat="43.9318452" lon="12.3598996"><ele>336.4</ele><time>2026-04-19T13:43:38.684Z</time></trkpt><trkpt lat="43.9319703" lon="12.3599257"><ele>336.0</ele><time>2026-04-19T13:43:39.684Z</time></trkpt><trkpt lat="43.9321148" lon="12.3599588"><ele>331.0</ele><time>2026-04-19T13:43:40.699Z</time></trkpt><trkpt lat="43.9322668" lon="12.3600124"><ele>326.0</ele><time>2026-04-19T13:43:41.709Z</time></trkpt><trkpt lat="43.9324158" lon="12.3600693"><ele>321.0</ele><time>2026-04-19T13:43:42.696Z</time></trkpt><trkpt lat="43.9325665" lon="12.3601504"><ele>316.3333333333333</ele><time>2026-04-19T13:43:43.693Z</time></trkpt><trkpt lat="43.9327146" lon="12.3602454"><ele>311.66666666666663</ele><time>2026-04-19T13:43:44.697Z</time></trkpt><trkpt lat="43.9328642" lon="12.360332"><ele>307.0</ele><time>2026-04-19T13:43:45.705Z</time></trkpt><trkpt lat="43.9330125" lon="12.3604153"><ele>307.0</ele><time>2026-04-19T13:43:46.698Z</time></trkpt><trkpt lat="43.9331575" lon="12.3605041"><ele>307.0</ele><time>2026-04-19T13:43:47.696Z</time></trkpt><trkpt lat="43.93329" lon="12.3605922"><ele>307.0</ele><time>2026-04-19T13:43:48.703Z</time></trkpt><trkpt lat="43.9334304" lon="12.3606827"><ele>306.0</ele><time>2026-04-19T13:43:49.698Z</time></trkpt><trkpt lat="43.9335652" lon="12.3607711"><ele>305.0</ele><time>2026-04-19T13:43:50.699Z</time></trkpt><trkpt lat="43.9336875" lon="12.3608569"><ele>304.0</ele><time>2026-04-19T13:43:51.703Z</time></trkpt><trkpt lat="43.9338139" lon="12.3609223"><ele>303.0</ele><time>2026-04-19T13:43:52.704Z</time></trkpt><trkpt lat="43.9339341" lon="12.3609804"><ele>303.0</ele><time>2026-04-19T13:43:53.701Z</time></trkpt><trkpt lat="43.9340564" lon="12.3610382"><ele>303.0</ele><time>2026-04-19T13:43:54.711Z</time></trkpt><trkpt lat="43.9341947" lon="12.3610711"><ele>303.0</ele><time>2026-04-19T13:43:55.704Z</time></trkpt><trkpt lat="43.9343459" lon="12.3610907"><ele>303.0</ele><time>2026-04-19T13:43:56.697Z</time></trkpt><trkpt lat="43.9345031" lon="12.3611026"><ele>301.75</ele><time>2026-04-19T13:43:57.702Z</time></trkpt><trkpt lat="43.934642" lon="12.3611006"><ele>300.5</ele><time>2026-04-19T13:43:58.704Z</time></trkpt><trkpt lat="43.9347669" lon="12.3611195"><ele>299.25</ele><time>2026-04-19T13:43:59.707Z</time></trkpt><trkpt lat="43.9348832" lon="12.3611655"><ele>298.0</ele><time>2026-04-19T13:44:00.699Z</time></trkpt><trkpt lat="43.9349451" lon="12.3612394"><ele>298.0</ele><time>2026-04-19T13:44:01.7Z</time></trkpt><trkpt lat="43.9349482" lon="12.3613483"><ele>298.0</ele><time>2026-04-19T13:44:03.709Z</time></trkpt><trkpt lat="43.9349919" lon="12.3614207"><ele>298.0</ele><time>2026-04-19T13:44:06.715Z</time></trkpt><trkpt lat="43.9350937" lon="12.3614356"><ele>298.0</ele><time>2026-04-19T13:44:09.707Z</time></trkpt><trkpt lat="43.9352105" lon="12.3613974"><ele>298.0</ele><time>2026-04-19T13:44:11.723Z</time></trkpt><trkpt lat="43.9352898" lon="12.3613375"><ele>296.6</ele><time>2026-04-19T13:44:12.73Z</time></trkpt><trkpt lat="43.9353565" lon="12.361264"><ele>295.20000000000005</ele><time>2026-04-19T13:44:13.701Z</time></trkpt><trkpt lat="43.9354377" lon="12.3611769"><ele>293.8</ele><time>2026-04-19T13:44:14.7Z</time></trkpt><trkpt lat="43.9355222" lon="12.3610812"><ele>292.40000000000003</ele><time>2026-04-19T13:44:15.703Z</time></trkpt><trkpt lat="43.9356207" lon="12.3609868"><ele>291.0</ele><time>2026-04-19T13:44:16.705Z</time></trkpt><trkpt lat="43.9357228" lon="12.3608865"><ele>291.0</ele><time>2026-04-19T13:44:17.699Z</time></trkpt><trkpt lat="43.9358254" lon="12.3607768"><ele>291.0</ele><time>2026-04-19T13:44:18.707Z</time></trkpt><trkpt lat="43.9359336" lon="12.3606538"><ele>291.0</ele><time>2026-04-19T13:44:19.706Z</time></trkpt><trkpt lat="43.9360427" lon="12.3605165"><ele>291.0</ele><time>2026-04-19T13:44:20.704Z</time></trkpt><trkpt lat="43.9361476" lon="12.360366"><ele>286.3333333333333</ele><time>2026-04-19T13:44:21.704Z</time></trkpt><trkpt lat="43.9362462" lon="12.360201"><ele>281.66666666666663</ele><time>2026-04-19T13:44:22.706Z</time></trkpt><trkpt lat="43.9363436" lon="12.3600354"><ele>277.0</ele><time>2026-04-19T13:44:23.703Z</time></trkpt><trkpt lat="43.936439" lon="12.3598562"><ele>274.66666666666663</ele><time>2026-04-19T13:44:24.704Z</time></trkpt><trkpt lat="43.936533" lon="12.3596777"><ele>272.3333333333333</ele><time>2026-04-19T13:44:25.705Z</time></trkpt><trkpt lat="43.9366327" lon="12.3595052"><ele>270.0</ele><time>2026-04-19T13:44:26.703Z</time></trkpt><trkpt lat="43.9367301" lon="12.3593295"><ele>267.3333333333333</ele><time>2026-04-19T13:44:27.704Z</time></trkpt><trkpt lat="43.9368335" lon="12.3591579"><ele>264.66666666666663</ele><time>2026-04-19T13:44:28.703Z</time></trkpt><trkpt lat="43.936932" lon="12.3589903"><ele>262.0</ele><time>2026-04-19T13:44:29.703Z</time></trkpt><trkpt lat="43.93703" lon="12.3588336"><ele>261.2</ele><time>2026-04-19T13:44:30.71Z</time></trkpt><trkpt lat="43.9371157" lon="12.3586718"><ele>260.4</ele><time>2026-04-19T13:44:31.703Z</time></trkpt><trkpt lat="43.9371873" lon="12.3585465"><ele>259.6</ele><time>2026-04-19T13:44:32.699Z</time></trkpt><trkpt lat="43.9372478" lon="12.358436"><ele>258.8</ele><time>2026-04-19T13:44:33.701Z</time></trkpt><trkpt lat="43.9372968" lon="12.3583724"><ele>258.0</ele><time>2026-04-19T13:44:34.705Z</time></trkpt><trkpt lat="43.9374036" lon="12.358395"><ele>258.0</ele><time>2026-04-19T13:44:36.709Z</time></trkpt><trkpt lat="43.9374654" lon="12.358474"><ele>258.0</ele><time>2026-04-19T13:44:37.705Z</time></trkpt><trkpt lat="43.9375285" lon="12.3585927"><ele>258.0</ele><time>2026-04-19T13:44:38.708Z</time></trkpt><trkpt lat="43.9375991" lon="12.3587456"><ele>258.0</ele><time>2026-04-19T13:44:39.705Z</time></trkpt><trkpt lat="43.9376677" lon="12.3589075"><ele>256.0</ele><time>2026-04-19T13:44:40.706Z</time></trkpt><trkpt lat="43.9377227" lon="12.3590678"><ele>254.0</ele><time>2026-04-19T13:44:41.708Z</time></trkpt><trkpt lat="43.9377645" lon="12.3592298"><ele>252.0</ele><time>2026-04-19T13:44:42.702Z</time></trkpt><trkpt lat="43.9377911" lon="12.3593972"><ele>250.0</ele><time>2026-04-19T13:44:43.717Z</time></trkpt><trkpt lat="43.9378259" lon="12.3595358"><ele>250.0</ele><time>2026-04-19T13:44:44.711Z</time></trkpt><trkpt lat="43.9378827" lon="12.3596251"><ele>250.0</ele><time>2026-04-19T13:44:45.709Z</time></trkpt><trkpt lat="43.9379851" lon="12.3596698"><ele>250.0</ele><time>2026-04-19T13:44:46.706Z</time></trkpt><trkpt lat="43.9381174" lon="12.3596948"><ele>250.0</ele><time>2026-04-19T13:44:47.695Z</time></trkpt><trkpt lat="43.9382574" lon="12.3597405"><ele>250.75</ele><time>2026-04-19T13:44:48.705Z</time></trkpt><trkpt lat="43.93839" lon="12.3597937"><ele>251.5</ele><time>2026-04-19T13:44:49.696Z</time></trkpt><trkpt lat="43.9385218" lon="12.3598615"><ele>252.25</ele><time>2026-04-19T13:44:50.693Z</time></trkpt><trkpt lat="43.9386535" lon="12.3599552"><ele>253.0</ele><time>2026-04-19T13:44:51.701Z</time></trkpt><trkpt lat="43.9387826" lon="12.3600874"><ele>253.0</ele><time>2026-04-19T13:44:52.698Z</time></trkpt><trkpt lat="43.9388867" lon="12.3601824"><ele>253.0</ele><time>2026-04-19T13:44:53.705Z</time></trkpt><trkpt lat="43.9389812" lon="12.3602656"><ele>253.0</ele><time>2026-04-19T13:44:54.702Z</time></trkpt><trkpt lat="43.9390652" lon="12.3603498"><ele>253.0</ele><time>2026-04-19T13:44:55.705Z</time></trkpt><trkpt lat="43.939153" lon="12.3604331"><ele>253.0</ele><time>2026-04-19T13:44:56.702Z</time></trkpt><trkpt lat="43.9392461" lon="12.3604984"><ele>250.0</ele><time>2026-04-19T13:44:57.701Z</time></trkpt><trkpt lat="43.9393342" lon="12.3605228"><ele>247.0</ele><time>2026-04-19T13:44:58.711Z</time></trkpt><trkpt lat="43.9394235" lon="12.3605064"><ele>244.0</ele><time>2026-04-19T13:44:59.684Z</time></trkpt><trkpt lat="43.9395211" lon="12.3604622"><ele>241.0</ele><time>2026-04-19T13:45:00.685Z</time></trkpt><trkpt lat="43.9396436" lon="12.3604162"><ele>238.0</ele><time>2026-04-19T13:45:01.673Z</time></trkpt><trkpt lat="43.9397711" lon="12.3603845"><ele>238.0</ele><time>2026-04-19T13:45:02.678Z</time></trkpt><trkpt lat="43.9399052" lon="12.3603534"><ele>238.0</ele><time>2026-04-19T13:45:03.679Z</time></trkpt><trkpt lat="43.9400265" lon="12.3603187"><ele>238.0</ele><time>2026-04-19T13:45:04.68Z</time></trkpt><trkpt lat="43.9401427" lon="12.3602971"><ele>238.0</ele><time>2026-04-19T13:45:05.683Z</time></trkpt><trkpt lat="43.9402632" lon="12.3602988"><ele>232.33333333333331</ele><time>2026-04-19T13:45:06.68Z</time></trkpt><trkpt lat="43.9404004" lon="12.3603367"><ele>226.66666666666669</ele><time>2026-04-19T13:45:07.675Z</time></trkpt><trkpt lat="43.9405478" lon="12.3603868"><ele>221.0</ele><time>2026-04-19T13:45:08.68Z</time></trkpt><trkpt lat="43.9406976" lon="12.3604621"><ele>219.5</ele><time>2026-04-19T13:45:09.685Z</time></trkpt><trkpt lat="43.9408212" lon="12.3605599"><ele>218.0</ele><time>2026-04-19T13:45:10.677Z</time></trkpt><trkpt lat="43.94094" lon="12.3606778"><ele>216.5</ele><time>2026-04-19T13:45:11.675Z</time></trkpt><trkpt lat="43.9410551" lon="12.3608007"><ele>215.0</ele><time>2026-04-19T13:45:12.677Z</time></trkpt><trkpt lat="43.9411948" lon="12.3609217"><ele>215.0</ele><time>2026-04-19T13:45:13.679Z</time></trkpt><trkpt lat="43.9413401" lon="12.3610321"><ele>215.0</ele><time>2026-04-19T13:45:14.699Z</time></trkpt><trkpt lat="43.9414766" lon="12.3611224"><ele>215.0</ele><time>2026-04-19T13:45:15.68Z</time></trkpt><trkpt lat="43.941617" lon="12.3612035"><ele>213.75</ele><time>2026-04-19T13:45:16.674Z</time></trkpt><trkpt lat="43.9417684" lon="12.3612742"><ele>212.5</ele><time>2026-04-19T13:45:17.674Z</time></trkpt><trkpt lat="43.9419068" lon="12.3613202"><ele>211.25</ele><time>2026-04-19T13:45:18.679Z</time></trkpt><trkpt lat="43.9420312" lon="12.36141"><ele>210.0</ele><time>2026-04-19T13:45:19.68Z</time></trkpt><trkpt lat="43.9421386" lon="12.3615007"><ele>210.0</ele><time>2026-04-19T13:45:20.68Z</time></trkpt><trkpt lat="43.942249" lon="12.361559"><ele>210.0</ele><time>2026-04-19T13:45:21.683Z</time></trkpt><trkpt lat="43.942389" lon="12.3615985"><ele>210.0</ele><time>2026-04-19T13:45:22.679Z</time></trkpt><trkpt lat="43.9425323" lon="12.3616086"><ele>210.0</ele><time>2026-04-19T13:45:23.677Z</time></trkpt><trkpt lat="43.9426721" lon="12.3616287"><ele>207.75</ele><time>2026-04-19T13:45:24.672Z</time></trkpt><trkpt lat="43.9428138" lon="12.3616451"><ele>205.5</ele><time>2026-04-19T13:45:25.678Z</time></trkpt><trkpt lat="43.942938" lon="12.3616647"><ele>203.25</ele><time>2026-04-19T13:45:26.676Z</time></trkpt><trkpt lat="43.9430572" lon="12.3617015"><ele>201.0</ele><time>2026-04-19T13:45:27.683Z</time></trkpt><trkpt lat="43.9431579" lon="12.361778"><ele>201.0</ele><time>2026-04-19T13:45:28.678Z</time></trkpt><trkpt lat="43.9432533" lon="12.3618614"><ele>201.0</ele><time>2026-04-19T13:45:29.676Z</time></trkpt><trkpt lat="43.9433706" lon="12.3619194"><ele>201.0</ele><time>2026-04-19T13:45:30.688Z</time></trkpt><trkpt lat="43.9435206" lon="12.3619503"><ele>201.0</ele><time>2026-04-19T13:45:31.676Z</time></trkpt><trkpt lat="43.9436758" lon="12.3619574"><ele>198.5</ele><time>2026-04-19T13:45:32.678Z</time></trkpt><trkpt lat="43.9438219" lon="12.3619653"><ele>196.0</ele><time>2026-04-19T13:45:33.678Z</time></trkpt><trkpt lat="43.9439651" lon="12.3619687"><ele>193.5</ele><time>2026-04-19T13:45:34.676Z</time></trkpt><trkpt lat="43.9440972" lon="12.3619345"><ele>191.0</ele><time>2026-04-19T13:45:35.683Z</time></trkpt><trkpt lat="43.9442181" lon="12.361878"><ele>189.0</ele><time>2026-04-19T13:45:36.669Z</time></trkpt><trkpt lat="43.9443179" lon="12.3618409"><ele>187.0</ele><time>2026-04-19T13:45:37.67Z</time></trkpt><trkpt lat="43.9444187" lon="12.3618208"><ele>185.0</ele><time>2026-04-19T13:45:38.673Z</time></trkpt><trkpt lat="43.9445265" lon="12.3618403"><ele>183.0</ele><time>2026-04-19T13:45:39.685Z</time></trkpt><trkpt lat="43.9446579" lon="12.3618928"><ele>183.0</ele><time>2026-04-19T13:45:40.674Z</time></trkpt><trkpt lat="43.944789" lon="12.3619387"><ele>183.0</ele><time>2026-04-19T13:45:41.676Z</time></trkpt><trkpt lat="43.9449205" lon="12.3619875"><ele>183.0</ele><time>2026-04-19T13:45:42.679Z</time></trkpt><trkpt lat="43.945037" lon="12.3620451"><ele>183.0</ele><time>2026-04-19T13:45:43.672Z</time></trkpt><trkpt lat="43.945135" lon="12.3620707"><ele>182.25</ele><time>2026-04-19T13:45:44.675Z</time></trkpt><trkpt lat="43.9452259" lon="12.3621349"><ele>181.5</ele><time>2026-04-19T13:45:45.702Z</time></trkpt><trkpt lat="43.9453022" lon="12.3622317"><ele>180.75</ele><time>2026-04-19T13:45:46.684Z</time></trkpt><trkpt lat="43.945371" lon="12.3623651"><ele>180.0</ele><time>2026-04-19T13:45:47.679Z</time></trkpt><trkpt lat="43.9454342" lon="12.36252"><ele>180.0</ele><time>2026-04-19T13:45:48.675Z</time></trkpt><trkpt lat="43.9454999" lon="12.3626747"><ele>180.0</ele><time>2026-04-19T13:45:49.674Z</time></trkpt><trkpt lat="43.9455636" lon="12.3628284"><ele>180.0</ele><time>2026-04-19T13:45:50.676Z</time></trkpt><trkpt lat="43.9456358" lon="12.3629835"><ele>180.0</ele><time>2026-04-19T13:45:51.681Z</time></trkpt><trkpt lat="43.9457134" lon="12.3631435"><ele>180.33333333333334</ele><time>2026-04-19T13:45:52.685Z</time></trkpt><trkpt lat="43.9458088" lon="12.3633013"><ele>180.66666666666669</ele><time>2026-04-19T13:45:53.676Z</time></trkpt><trkpt lat="43.9459169" lon="12.3634468"><ele>181.0</ele><time>2026-04-19T13:45:54.685Z</time></trkpt><trkpt lat="43.9460409" lon="12.3635801"><ele>180.0</ele><time>2026-04-19T13:45:55.682Z</time></trkpt><trkpt lat="43.9461724" lon="12.3637177"><ele>179.0</ele><time>2026-04-19T13:45:56.684Z</time></trkpt><trkpt lat="43.946309" lon="12.3638541"><ele>178.0</ele><time>2026-04-19T13:45:57.684Z</time></trkpt><trkpt lat="43.9464452" lon="12.3639947"><ele>178.0</ele><time>2026-04-19T13:45:58.686Z</time></trkpt><trkpt lat="43.9465708" lon="12.3641349"><ele>178.0</ele><time>2026-04-19T13:45:59.683Z</time></trkpt><trkpt lat="43.94669" lon="12.3642554"><ele>178.0</ele><time>2026-04-19T13:46:00.686Z</time></trkpt><trkpt lat="43.9468004" lon="12.3643796"><ele>177.5</ele><time>2026-04-19T13:46:01.678Z</time></trkpt><trkpt lat="43.9469056" lon="12.3644937"><ele>177.0</ele><time>2026-04-19T13:46:02.679Z</time></trkpt><trkpt lat="43.9470233" lon="12.3646027"><ele>176.5</ele><time>2026-04-19T13:46:03.68Z</time></trkpt><trkpt lat="43.9471585" lon="12.3647081"><ele>176.0</ele><time>2026-04-19T13:46:04.672Z</time></trkpt><trkpt lat="43.9473097" lon="12.3647991"><ele>176.0</ele><time>2026-04-19T13:46:05.674Z</time></trkpt><trkpt lat="43.947447" lon="12.36488"><ele>176.0</ele><time>2026-04-19T13:46:06.671Z</time></trkpt><trkpt lat="43.9475786" lon="12.3649516"><ele>176.0</ele><time>2026-04-19T13:46:07.664Z</time></trkpt><trkpt lat="43.9476736" lon="12.3650235"><ele>176.0</ele><time>2026-04-19T13:46:08.67Z</time></trkpt><trkpt lat="43.9477828" lon="12.365075"><ele>174.8</ele><time>2026-04-19T13:46:09.673Z</time></trkpt><trkpt lat="43.9478555" lon="12.3651394"><ele>173.60000000000002</ele><time>2026-04-19T13:46:11.67Z</time></trkpt><trkpt lat="43.947923" lon="12.3652185"><ele>172.4</ele><time>2026-04-19T13:46:13.674Z</time></trkpt><trkpt lat="43.9479638" lon="12.3653248"><ele>171.2</ele><time>2026-04-19T13:46:19.692Z</time></trkpt><trkpt lat="43.9480181" lon="12.3654692"><ele>170.0</ele><time>2026-04-19T13:46:21.671Z</time></trkpt><trkpt lat="43.9480648" lon="12.3655729"><ele>170.0</ele><time>2026-04-19T13:46:22.674Z</time></trkpt><trkpt lat="43.948131" lon="12.3657002"><ele>170.0</ele><time>2026-04-19T13:46:23.667Z</time></trkpt><trkpt lat="43.9482031" lon="12.3658425"><ele>170.0</ele><time>2026-04-19T13:46:24.663Z</time></trkpt><trkpt lat="43.9482776" lon="12.3660037"><ele>170.0</ele><time>2026-04-19T13:46:25.665Z</time></trkpt><trkpt lat="43.9483539" lon="12.3661773"><ele>168.66666666666666</ele><time>2026-04-19T13:46:26.661Z</time></trkpt><trkpt lat="43.9484379" lon="12.3663699"><ele>167.33333333333334</ele><time>2026-04-19T13:46:27.663Z</time></trkpt><trkpt lat="43.9485288" lon="12.3665779"><ele>166.0</ele><time>2026-04-19T13:46:28.661Z</time></trkpt><trkpt lat="43.948637" lon="12.3667971"><ele>166.0</ele><time>2026-04-19T13:46:29.668Z</time></trkpt><trkpt lat="43.9487478" lon="12.3670143"><ele>166.0</ele><time>2026-04-19T13:46:30.676Z</time></trkpt><trkpt lat="43.9488524" lon="12.3672317"><ele>166.0</ele><time>2026-04-19T13:46:31.672Z</time></trkpt><trkpt lat="43.9489483" lon="12.3674396"><ele>164.66666666666669</ele><time>2026-04-19T13:46:32.67Z</time></trkpt><trkpt lat="43.9490352" lon="12.3676336"><ele>163.33333333333334</ele><time>2026-04-19T13:46:33.676Z</time></trkpt><trkpt lat="43.9491241" lon="12.3678176"><ele>162.0</ele><time>2026-04-19T13:46:34.679Z</time></trkpt><trkpt lat="43.949236" lon="12.3679745"><ele>164.5</ele><time>2026-04-19T13:46:35.665Z</time></trkpt><trkpt lat="43.9493452" lon="12.3681319"><ele>167.0</ele><time>2026-04-19T13:46:36.677Z</time></trkpt><trkpt lat="43.9494166" lon="12.3682745"><ele>169.5</ele><time>2026-04-19T13:46:37.666Z</time></trkpt><trkpt lat="43.9494676" lon="12.3684351"><ele>172.0</ele><time>2026-04-19T13:46:38.677Z</time></trkpt><trkpt lat="43.9495534" lon="12.3685678"><ele>172.0</ele><time>2026-04-19T13:46:39.669Z</time></trkpt><trkpt lat="43.9496297" lon="12.3686754"><ele>172.0</ele><time>2026-04-19T13:46:40.675Z</time></trkpt><trkpt lat="43.9497118" lon="12.3687177"><ele>172.0</ele><time>2026-04-19T13:46:41.665Z</time></trkpt><trkpt lat="43.9498151" lon="12.3687078"><ele>172.0</ele><time>2026-04-19T13:46:42.662Z</time></trkpt><trkpt lat="43.9499693" lon="12.368674"><ele>172.25</ele><time>2026-04-19T13:46:43.67Z</time></trkpt><trkpt lat="43.9500959" lon="12.3686516"><ele>172.5</ele><time>2026-04-19T13:46:44.66Z</time></trkpt><trkpt lat="43.9502419" lon="12.3685977"><ele>172.75</ele><time>2026-04-19T13:46:45.664Z</time></trkpt><trkpt lat="43.9504015" lon="12.3685521"><ele>173.0</ele><time>2026-04-19T13:46:46.657Z</time></trkpt><trkpt lat="43.950551" lon="12.3685207"><ele>173.0</ele><time>2026-04-19T13:46:47.668Z</time></trkpt><trkpt lat="43.950682" lon="12.3684751"><ele>173.0</ele><time>2026-04-19T13:46:48.662Z</time></trkpt><trkpt lat="43.9508138" lon="12.3684332"><ele>173.0</ele><time>2026-04-19T13:46:49.662Z</time></trkpt><trkpt lat="43.9509258" lon="12.3683947"><ele>173.0</ele><time>2026-04-19T13:46:50.664Z</time></trkpt><trkpt lat="43.9510433" lon="12.3683667"><ele>171.75</ele><time>2026-04-19T13:46:51.661Z</time></trkpt><trkpt lat="43.9511782" lon="12.3683654"><ele>170.5</ele><time>2026-04-19T13:46:52.662Z</time></trkpt><trkpt lat="43.9513109" lon="12.3683905"><ele>169.25</ele><time>2026-04-19T13:46:53.669Z</time></trkpt><trkpt lat="43.9514298" lon="12.3684293"><ele>168.0</ele><time>2026-04-19T13:46:54.664Z</time></trkpt><trkpt lat="43.9515484" lon="12.3684725"><ele>168.0</ele><time>2026-04-19T13:46:55.676Z</time></trkpt><trkpt lat="43.9516489" lon="12.3685022"><ele>168.0</ele><time>2026-04-19T13:46:56.668Z</time></trkpt><trkpt lat="43.9517393" lon="12.3685331"><ele>168.0</ele><time>2026-04-19T13:46:57.67Z</time></trkpt><trkpt lat="43.9518147" lon="12.3685611"><ele>168.0</ele><time>2026-04-19T13:46:58.668Z</time></trkpt><trkpt lat="43.9518827" lon="12.3685887"><ele>168.0</ele><time>2026-04-19T13:46:59.675Z</time></trkpt><trkpt lat="43.9519786" lon="12.3686404"><ele>168.0</ele><time>2026-04-19T13:47:01.671Z</time></trkpt><trkpt lat="43.9520743" lon="12.3687104"><ele>167.8</ele><time>2026-04-19T13:47:03.673Z</time></trkpt><trkpt lat="43.9521397" lon="12.3688008"><ele>167.60000000000002</ele><time>2026-04-19T13:47:04.684Z</time></trkpt><trkpt lat="43.9521888" lon="12.3689268"><ele>167.39999999999998</ele><time>2026-04-19T13:47:05.673Z</time></trkpt><trkpt lat="43.9522438" lon="12.369058"><ele>167.2</ele><time>2026-04-19T13:47:06.67Z</time></trkpt><trkpt lat="43.952301" lon="12.3692107"><ele>167.0</ele><time>2026-04-19T13:47:07.675Z</time></trkpt><trkpt lat="43.9523613" lon="12.3693669"><ele>167.0</ele><time>2026-04-19T13:47:08.665Z</time></trkpt><trkpt lat="43.9524172" lon="12.3695258"><ele>167.0</ele><time>2026-04-19T13:47:09.668Z</time></trkpt><trkpt lat="43.9524718" lon="12.3696854"><ele>167.0</ele><time>2026-04-19T13:47:10.675Z</time></trkpt><trkpt lat="43.9525264" lon="12.3698502"><ele>167.0</ele><time>2026-04-19T13:47:11.677Z</time></trkpt><trkpt lat="43.9525838" lon="12.3700235"><ele>166.25</ele><time>2026-04-19T13:47:12.661Z</time></trkpt><trkpt lat="43.9526342" lon="12.3701905"><ele>165.5</ele><time>2026-04-19T13:47:13.676Z</time></trkpt><trkpt lat="43.9526771" lon="12.3703568"><ele>164.75</ele><time>2026-04-19T13:47:14.675Z</time></trkpt><trkpt lat="43.9527297" lon="12.3705267"><ele>164.0</ele><time>2026-04-19T13:47:15.678Z</time></trkpt><trkpt lat="43.9527756" lon="12.3706882"><ele>164.0</ele><time>2026-04-19T13:47:16.677Z</time></trkpt><trkpt lat="43.9528292" lon="12.3708458"><ele>164.0</ele><time>2026-04-19T13:47:17.675Z</time></trkpt><trkpt lat="43.9528716" lon="12.3710039"><ele>164.0</ele><time>2026-04-19T13:47:18.712Z</time></trkpt><trkpt lat="43.952914" lon="12.3711609"><ele>164.0</ele><time>2026-04-19T13:47:19.666Z</time></trkpt><trkpt lat="43.9529572" lon="12.3713152"><ele>164.0</ele><time>2026-04-19T13:47:20.673Z</time></trkpt><trkpt lat="43.9529984" lon="12.3714686"><ele>164.0</ele><time>2026-04-19T13:47:21.666Z</time></trkpt><trkpt lat="43.9530351" lon="12.3716192"><ele>164.0</ele><time>2026-04-19T13:47:22.669Z</time></trkpt><trkpt lat="43.9530729" lon="12.3717584"><ele>164.0</ele><time>2026-04-19T13:47:23.665Z</time></trkpt><trkpt lat="43.9531187" lon="12.3718984"><ele>164.0</ele><time>2026-04-19T13:47:24.667Z</time></trkpt><trkpt lat="43.9531578" lon="12.3720435"><ele>164.0</ele><time>2026-04-19T13:47:25.667Z</time></trkpt><trkpt lat="43.9531932" lon="12.3721814"><ele>164.0</ele><time>2026-04-19T13:47:26.665Z</time></trkpt><trkpt lat="43.9532242" lon="12.3723247"><ele>164.0</ele><time>2026-04-19T13:47:27.667Z</time></trkpt><trkpt lat="43.9532615" lon="12.3724616"><ele>164.0</ele><time>2026-04-19T13:47:28.669Z</time></trkpt><trkpt lat="43.9533081" lon="12.3725938"><ele>164.16666666666666</ele><time>2026-04-19T13:47:29.663Z</time></trkpt><trkpt lat="43.9533616" lon="12.3727256"><ele>164.33333333333331</ele><time>2026-04-19T13:47:30.676Z</time></trkpt><trkpt lat="43.9534036" lon="12.3728474"><ele>164.5</ele><time>2026-04-19T13:47:31.673Z</time></trkpt><trkpt lat="43.9534134" lon="12.3729646"><ele>164.66666666666666</ele><time>2026-04-19T13:47:32.671Z</time></trkpt><trkpt lat="43.9534143" lon="12.3730787"><ele>164.83333333333334</ele><time>2026-04-19T13:47:33.664Z</time></trkpt><trkpt lat="43.9534209" lon="12.3731698"><ele>165.0</ele><time>2026-04-19T13:47:34.671Z</time></trkpt><trkpt lat="43.9534869" lon="12.3733154"><ele>164.4</ele><time>2026-04-19T13:47:36.675Z</time></trkpt><trkpt lat="43.9535584" lon="12.3733679"><ele>163.8</ele><time>2026-04-19T13:47:37.664Z</time></trkpt><trkpt lat="43.9536275" lon="12.373446"><ele>163.2</ele><time>2026-04-19T13:47:38.667Z</time></trkpt><trkpt lat="43.9536984" lon="12.373582"><ele>162.6</ele><time>2026-04-19T13:47:39.666Z</time></trkpt><trkpt lat="43.9537442" lon="12.3737391"><ele>162.0</ele><time>2026-04-19T13:47:40.666Z</time></trkpt><trkpt lat="43.9537827" lon="12.3739089"><ele>162.0</ele><time>2026-04-19T13:47:41.67Z</time></trkpt><trkpt lat="43.9538284" lon="12.3741158"><ele>162.0</ele><time>2026-04-19T13:47:42.673Z</time></trkpt><trkpt lat="43.9538854" lon="12.3743423"><ele>162.0</ele><time>2026-04-19T13:47:43.671Z</time></trkpt><trkpt lat="43.9539285" lon="12.3745833"><ele>162.33333333333334</ele><time>2026-04-19T13:47:44.665Z</time></trkpt><trkpt lat="43.9540478" lon="12.3748071"><ele>162.66666666666669</ele><time>2026-04-19T13:47:45.664Z</time></trkpt><trkpt lat="43.9541159" lon="12.37501"><ele>163.0</ele><time>2026-04-19T13:47:46.663Z</time></trkpt><trkpt lat="43.9541419" lon="12.3752454"><ele>163.0</ele><time>2026-04-19T13:47:47.665Z</time></trkpt><trkpt lat="43.9541965" lon="12.3754828"><ele>163.0</ele><time>2026-04-19T13:47:48.68Z</time></trkpt><trkpt lat="43.9542506" lon="12.3757088"><ele>163.0</ele><time>2026-04-19T13:47:49.662Z</time></trkpt><trkpt lat="43.954288" lon="12.3759278"><ele>161.0</ele><time>2026-04-19T13:47:50.672Z</time></trkpt><trkpt lat="43.9543435" lon="12.3761376"><ele>159.0</ele><time>2026-04-19T13:47:51.665Z</time></trkpt><trkpt lat="43.9544207" lon="12.3763462"><ele>157.0</ele><time>2026-04-19T13:47:52.668Z</time></trkpt><trkpt lat="43.9544866" lon="12.3765443"><ele>157.0</ele><time>2026-04-19T13:47:53.673Z</time></trkpt><trkpt lat="43.954544" lon="12.3767375"><ele>157.0</ele><time>2026-04-19T13:47:54.671Z</time></trkpt><trkpt lat="43.9546149" lon="12.3769242"><ele>157.0</ele><time>2026-04-19T13:47:55.671Z</time></trkpt><trkpt lat="43.9546914" lon="12.3771239"><ele>158.33333333333334</ele><time>2026-04-19T13:47:56.671Z</time></trkpt><trkpt lat="43.9547701" lon="12.3773088"><ele>159.66666666666666</ele><time>2026-04-19T13:47:57.666Z</time></trkpt><trkpt lat="43.9548523" lon="12.3774953"><ele>161.0</ele><time>2026-04-19T13:47:58.671Z</time></trkpt><trkpt lat="43.9549331" lon="12.3776833"><ele>161.0</ele><time>2026-04-19T13:47:59.67Z</time></trkpt><trkpt lat="43.9550103" lon="12.3778786"><ele>161.0</ele><time>2026-04-19T13:48:00.679Z</time></trkpt><trkpt lat="43.9550867" lon="12.3780622"><ele>161.0</ele><time>2026-04-19T13:48:01.666Z</time></trkpt><trkpt lat="43.9551691" lon="12.3782555"><ele>157.66666666666666</ele><time>2026-04-19T13:48:02.665Z</time></trkpt><trkpt lat="43.9552501" lon="12.3784343"><ele>154.33333333333334</ele><time>2026-04-19T13:48:03.66Z</time></trkpt><trkpt lat="43.955326" lon="12.3786261"><ele>151.0</ele><time>2026-04-19T13:48:04.665Z</time></trkpt><trkpt lat="43.9553939" lon="12.378812"><ele>151.66666666666669</ele><time>2026-04-19T13:48:05.666Z</time></trkpt><trkpt lat="43.9554696" lon="12.3790128"><ele>152.33333333333334</ele><time>2026-04-19T13:48:06.668Z</time></trkpt><trkpt lat="43.9555556" lon="12.3792289"><ele>153.0</ele><time>2026-04-19T13:48:07.665Z</time></trkpt><trkpt lat="43.9556685" lon="12.3794461"><ele>153.0</ele><time>2026-04-19T13:48:08.669Z</time></trkpt><trkpt lat="43.9557723" lon="12.379681"><ele>153.0</ele><time>2026-04-19T13:48:09.672Z</time></trkpt><trkpt lat="43.9558717" lon="12.3799446"><ele>153.0</ele><time>2026-04-19T13:48:10.674Z</time></trkpt><trkpt lat="43.9559786" lon="12.3802122"><ele>151.0</ele><time>2026-04-19T13:48:11.669Z</time></trkpt><trkpt lat="43.9560772" lon="12.3804853"><ele>149.0</ele><time>2026-04-19T13:48:12.67Z</time></trkpt><trkpt lat="43.9561827" lon="12.3807634"><ele>147.0</ele><time>2026-04-19T13:48:13.67Z</time></trkpt><trkpt lat="43.9562911" lon="12.3810327"><ele>147.0</ele><time>2026-04-19T13:48:14.664Z</time></trkpt><trkpt lat="43.9563981" lon="12.3812958"><ele>147.0</ele><time>2026-04-19T13:48:15.666Z</time></trkpt><trkpt lat="43.9565089" lon="12.3815791"><ele>149.5</ele><time>2026-04-19T13:48:16.662Z</time></trkpt><trkpt lat="43.9566235" lon="12.3818764"><ele>152.0</ele><time>2026-04-19T13:48:17.665Z</time></trkpt><trkpt lat="43.9567486" lon="12.3821637"><ele>146.0</ele><time>2026-04-19T13:48:18.669Z</time></trkpt><trkpt lat="43.9568685" lon="12.3824398"><ele>140.0</ele><time>2026-04-19T13:48:19.682Z</time></trkpt><trkpt lat="43.9569788" lon="12.3827149"><ele>140.0</ele><time>2026-04-19T13:48:20.665Z</time></trkpt><trkpt lat="43.9570766" lon="12.3829712"><ele>140.0</ele><time>2026-04-19T13:48:21.671Z</time></trkpt><trkpt lat="43.9571836" lon="12.3832121"><ele>140.0</ele><time>2026-04-19T13:48:22.662Z</time></trkpt><trkpt lat="43.9572802" lon="12.3834351"><ele>138.0</ele><time>2026-04-19T13:48:23.662Z</time></trkpt><trkpt lat="43.9573762" lon="12.383665"><ele>136.0</ele><time>2026-04-19T13:48:24.664Z</time></trkpt><trkpt lat="43.9574732" lon="12.3838891"><ele>134.0</ele><time>2026-04-19T13:48:25.663Z</time></trkpt><trkpt lat="43.957563" lon="12.3841229"><ele>134.0</ele><time>2026-04-19T13:48:26.664Z</time></trkpt><trkpt lat="43.9576568" lon="12.3843701"><ele>134.0</ele><time>2026-04-19T13:48:27.666Z</time></trkpt><trkpt lat="43.9577462" lon="12.3846554"><ele>134.0</ele><time>2026-04-19T13:48:28.668Z</time></trkpt><trkpt lat="43.9578393" lon="12.3849327"><ele>134.33333333333331</ele><time>2026-04-19T13:48:29.668Z</time></trkpt><trkpt lat="43.957901" lon="12.3852127"><ele>134.66666666666666</ele><time>2026-04-19T13:48:30.682Z</time></trkpt><trkpt lat="43.9579185" lon="12.3855105"><ele>135.0</ele><time>2026-04-19T13:48:31.666Z</time></trkpt><trkpt lat="43.9579293" lon="12.3857965"><ele>135.0</ele><time>2026-04-19T13:48:32.673Z</time></trkpt><trkpt lat="43.9579111" lon="12.3860759"><ele>135.0</ele><time>2026-04-19T13:48:33.672Z</time></trkpt><trkpt lat="43.9578807" lon="12.3863674"><ele>135.0</ele><time>2026-04-19T13:48:34.672Z</time></trkpt><trkpt lat="43.9578163" lon="12.3866456"><ele>134.66666666666666</ele><time>2026-04-19T13:48:35.676Z</time></trkpt><trkpt lat="43.957748" lon="12.3869126"><ele>134.33333333333331</ele><time>2026-04-19T13:48:36.665Z</time></trkpt><trkpt lat="43.9576653" lon="12.3871746"><ele>134.0</ele><time>2026-04-19T13:48:37.669Z</time></trkpt><trkpt lat="43.9575809" lon="12.3874188"><ele>134.0</ele><time>2026-04-19T13:48:38.668Z</time></trkpt><trkpt lat="43.9575117" lon="12.3876519"><ele>134.0</ele><time>2026-04-19T13:48:39.667Z</time></trkpt><trkpt lat="43.9574406" lon="12.3878776"><ele>134.0</ele><time>2026-04-19T13:48:40.666Z</time></trkpt><trkpt lat="43.9573804" lon="12.3881046"><ele>134.0</ele><time>2026-04-19T13:48:41.67Z</time></trkpt><trkpt lat="43.957326" lon="12.3883419"><ele>134.0</ele><time>2026-04-19T13:48:42.672Z</time></trkpt><trkpt lat="43.9572671" lon="12.3885716"><ele>134.0</ele><time>2026-04-19T13:48:43.672Z</time></trkpt><trkpt lat="43.9571976" lon="12.3888135"><ele>132.66666666666666</ele><time>2026-04-19T13:48:44.673Z</time></trkpt><trkpt lat="43.9571474" lon="12.3890524"><ele>131.33333333333334</ele><time>2026-04-19T13:48:45.667Z</time></trkpt><trkpt lat="43.9571101" lon="12.389282"><ele>130.0</ele><time>2026-04-19T13:48:46.669Z</time></trkpt><trkpt lat="43.9570592" lon="12.3894987"><ele>130.33333333333334</ele><time>2026-04-19T13:48:47.671Z</time></trkpt><trkpt lat="43.9570225" lon="12.389719"><ele>130.66666666666666</ele><time>2026-04-19T13:48:48.669Z</time></trkpt><trkpt lat="43.9569913" lon="12.3899498"><ele>131.0</ele><time>2026-04-19T13:48:49.669Z</time></trkpt><trkpt lat="43.9569702" lon="12.3901557"><ele>131.0</ele><time>2026-04-19T13:48:50.687Z</time></trkpt><trkpt lat="43.9569564" lon="12.3903619"><ele>131.0</ele><time>2026-04-19T13:48:51.674Z</time></trkpt><trkpt lat="43.9569461" lon="12.3905688"><ele>131.0</ele><time>2026-04-19T13:48:52.666Z</time></trkpt><trkpt lat="43.9569484" lon="12.3907756"><ele>131.0</ele><time>2026-04-19T13:48:53.668Z</time></trkpt><trkpt lat="43.9569598" lon="12.3909788"><ele>130.75</ele><time>2026-04-19T13:48:54.672Z</time></trkpt><trkpt lat="43.9569709" lon="12.391177"><ele>130.5</ele><time>2026-04-19T13:48:55.675Z</time></trkpt><trkpt lat="43.9569868" lon="12.3913584"><ele>130.25</ele><time>2026-04-19T13:48:56.672Z</time></trkpt><trkpt lat="43.9570192" lon="12.3915531"><ele>130.0</ele><time>2026-04-19T13:48:57.674Z</time></trkpt><trkpt lat="43.9570475" lon="12.3917324"><ele>130.0</ele><time>2026-04-19T13:48:58.676Z</time></trkpt><trkpt lat="43.9570863" lon="12.3919188"><ele>130.0</ele><time>2026-04-19T13:48:59.675Z</time></trkpt><trkpt lat="43.9571208" lon="12.3920901"><ele>130.0</ele><time>2026-04-19T13:49:00.683Z</time></trkpt><trkpt lat="43.9571626" lon="12.3922663"><ele>130.0</ele><time>2026-04-19T13:49:01.679Z</time></trkpt><trkpt lat="43.957207" lon="12.3924425"><ele>130.25</ele><time>2026-04-19T13:49:02.678Z</time></trkpt><trkpt lat="43.9572617" lon="12.3926203"><ele>130.5</ele><time>2026-04-19T13:49:03.679Z</time></trkpt><trkpt lat="43.9573163" lon="12.3927886"><ele>130.75</ele><time>2026-04-19T13:49:04.681Z</time></trkpt><trkpt lat="43.9573823" lon="12.392968"><ele>131.0</ele><time>2026-04-19T13:49:05.678Z</time></trkpt><trkpt lat="43.9574476" lon="12.3931331"><ele>130.0</ele><time>2026-04-19T13:49:06.675Z</time></trkpt><trkpt lat="43.9575197" lon="12.3933021"><ele>129.0</ele><time>2026-04-19T13:49:07.671Z</time></trkpt><trkpt lat="43.9575769" lon="12.3934831"><ele>128.0</ele><time>2026-04-19T13:49:08.673Z</time></trkpt><trkpt lat="43.9576193" lon="12.3936528"><ele>127.0</ele><time>2026-04-19T13:49:09.662Z</time></trkpt><trkpt lat="43.9576825" lon="12.3938275"><ele>127.25</ele><time>2026-04-19T13:49:10.678Z</time></trkpt><trkpt lat="43.9577565" lon="12.3940043"><ele>127.5</ele><time>2026-04-19T13:49:11.674Z</time></trkpt><trkpt lat="43.9578207" lon="12.3941873"><ele>127.75</ele><time>2026-04-19T13:49:12.672Z</time></trkpt><trkpt lat="43.9578808" lon="12.3943757"><ele>128.0</ele><time>2026-04-19T13:49:13.676Z</time></trkpt><trkpt lat="43.957935" lon="12.3945513"><ele>129.0</ele><time>2026-04-19T13:49:14.676Z</time></trkpt><trkpt lat="43.9579972" lon="12.3947191"><ele>130.0</ele><time>2026-04-19T13:49:15.676Z</time></trkpt><trkpt lat="43.9580645" lon="12.3948845"><ele>131.0</ele><time>2026-04-19T13:49:16.673Z</time></trkpt><trkpt lat="43.9581305" lon="12.3950559"><ele>132.0</ele><time>2026-04-19T13:49:17.676Z</time></trkpt><trkpt lat="43.9582004" lon="12.3952268"><ele>132.0</ele><time>2026-04-19T13:49:18.67Z</time></trkpt><trkpt lat="43.9582664" lon="12.3953957"><ele>132.0</ele><time>2026-04-19T13:49:19.675Z</time></trkpt><trkpt lat="43.9583216" lon="12.3955606"><ele>132.0</ele><time>2026-04-19T13:49:20.676Z</time></trkpt><trkpt lat="43.9583731" lon="12.3957125"><ele>132.0</ele><time>2026-04-19T13:49:21.692Z</time></trkpt><trkpt lat="43.9584269" lon="12.3958694"><ele>131.5</ele><time>2026-04-19T13:49:22.671Z</time></trkpt><trkpt lat="43.958492" lon="12.3960049"><ele>131.0</ele><time>2026-04-19T13:49:23.687Z</time></trkpt><trkpt lat="43.9585445" lon="12.3961682"><ele>130.5</ele><time>2026-04-19T13:49:24.679Z</time></trkpt><trkpt lat="43.9585914" lon="12.3963328"><ele>130.0</ele><time>2026-04-19T13:49:25.68Z</time></trkpt><trkpt lat="43.9586365" lon="12.3964942"><ele>130.0</ele><time>2026-04-19T13:49:26.679Z</time></trkpt><trkpt lat="43.9586895" lon="12.3966485"><ele>130.0</ele><time>2026-04-19T13:49:27.68Z</time></trkpt><trkpt lat="43.9587421" lon="12.3968059"><ele>130.0</ele><time>2026-04-19T13:49:28.681Z</time></trkpt><trkpt lat="43.9587943" lon="12.3969648"><ele>130.0</ele><time>2026-04-19T13:49:29.683Z</time></trkpt><trkpt lat="43.9588487" lon="12.3971228"><ele>131.75</ele><time>2026-04-19T13:49:30.689Z</time></trkpt><trkpt lat="43.9589015" lon="12.3972788"><ele>133.5</ele><time>2026-04-19T13:49:31.684Z</time></trkpt><trkpt lat="43.9589571" lon="12.397435"><ele>135.25</ele><time>2026-04-19T13:49:32.682Z</time></trkpt><trkpt lat="43.9590229" lon="12.3975878"><ele>137.0</ele><time>2026-04-19T13:49:33.677Z</time></trkpt><trkpt lat="43.9590932" lon="12.397739"><ele>137.0</ele><time>2026-04-19T13:49:34.68Z</time></trkpt><trkpt lat="43.959164" lon="12.3978891"><ele>137.0</ele><time>2026-04-19T13:49:35.68Z</time></trkpt><trkpt lat="43.959232" lon="12.3980476"><ele>137.0</ele><time>2026-04-19T13:49:36.666Z</time></trkpt><trkpt lat="43.9593099" lon="12.3982049"><ele>137.0</ele><time>2026-04-19T13:49:37.672Z</time></trkpt><trkpt lat="43.9593896" lon="12.3983649"><ele>135.75</ele><time>2026-04-19T13:49:38.678Z</time></trkpt><trkpt lat="43.9594701" lon="12.3985207"><ele>134.5</ele><time>2026-04-19T13:49:39.678Z</time></trkpt><trkpt lat="43.9595485" lon="12.3986711"><ele>133.25</ele><time>2026-04-19T13:49:40.678Z</time></trkpt><trkpt lat="43.9596301" lon="12.3988295"><ele>132.0</ele><time>2026-04-19T13:49:41.678Z</time></trkpt><trkpt lat="43.959711" lon="12.398981"><ele>130.25</ele><time>2026-04-19T13:49:42.684Z</time></trkpt><trkpt lat="43.9597992" lon="12.3991327"><ele>128.5</ele><time>2026-04-19T13:49:43.677Z</time></trkpt><trkpt lat="43.9598859" lon="12.3992846"><ele>126.75</ele><time>2026-04-19T13:49:44.676Z</time></trkpt><trkpt lat="43.959969" lon="12.3994312"><ele>125.0</ele><time>2026-04-19T13:49:45.678Z</time></trkpt><trkpt lat="43.960045" lon="12.3995787"><ele>125.0</ele><time>2026-04-19T13:49:46.682Z</time></trkpt><trkpt lat="43.9601229" lon="12.3997279"><ele>125.0</ele><time>2026-04-19T13:49:47.68Z</time></trkpt><trkpt lat="43.9601987" lon="12.399872"><ele>125.0</ele><time>2026-04-19T13:49:48.682Z</time></trkpt><trkpt lat="43.9602792" lon="12.4000229"><ele>125.0</ele><time>2026-04-19T13:49:49.675Z</time></trkpt><trkpt lat="43.960363" lon="12.4001695"><ele>125.0</ele><time>2026-04-19T13:49:50.676Z</time></trkpt><trkpt lat="43.9604408" lon="12.4003186"><ele>125.0</ele><time>2026-04-19T13:49:51.675Z</time></trkpt><trkpt lat="43.960529" lon="12.4004635"><ele>125.0</ele><time>2026-04-19T13:49:52.688Z</time></trkpt><trkpt lat="43.9606038" lon="12.400627"><ele>125.0</ele><time>2026-04-19T13:49:53.67Z</time></trkpt><trkpt lat="43.9606813" lon="12.4007622"><ele>124.6</ele><time>2026-04-19T13:49:54.669Z</time></trkpt><trkpt lat="43.9607604" lon="12.400892"><ele>124.2</ele><time>2026-04-19T13:49:55.678Z</time></trkpt><trkpt lat="43.9608432" lon="12.4010068"><ele>123.80000000000001</ele><time>2026-04-19T13:49:56.675Z</time></trkpt><trkpt lat="43.9609198" lon="12.4011026"><ele>123.4</ele><time>2026-04-19T13:49:57.675Z</time></trkpt><trkpt lat="43.9609946" lon="12.4011881"><ele>123.0</ele><time>2026-04-19T13:49:58.684Z</time></trkpt><trkpt lat="43.9610872" lon="12.4012774"><ele>124.60000000000001</ele><time>2026-04-19T13:49:59.682Z</time></trkpt><trkpt lat="43.9611893" lon="12.4013737"><ele>126.20000000000002</ele><time>2026-04-19T13:50:00.678Z</time></trkpt><trkpt lat="43.9612541" lon="12.4014531"><ele>127.8</ele><time>2026-04-19T13:50:01.674Z</time></trkpt><trkpt lat="43.9613203" lon="12.4015357"><ele>129.4</ele><time>2026-04-19T13:50:02.678Z</time></trkpt><trkpt lat="43.9613832" lon="12.4016137"><ele>131.0</ele><time>2026-04-19T13:50:03.681Z</time></trkpt><trkpt lat="43.9614406" lon="12.401714"><ele>131.0</ele><time>2026-04-19T13:50:04.677Z</time></trkpt><trkpt lat="43.9614718" lon="12.4018007"><ele>131.0</ele><time>2026-04-19T13:50:05.677Z</time></trkpt><trkpt lat="43.9615503" lon="12.401882"><ele>131.0</ele><time>2026-04-19T13:50:07.68Z</time></trkpt><trkpt lat="43.9616281" lon="12.4018717"><ele>131.0</ele><time>2026-04-19T13:50:08.68Z</time></trkpt><trkpt lat="43.961734" lon="12.4018546"><ele>131.0</ele><time>2026-04-19T13:50:09.679Z</time></trkpt><trkpt lat="43.9618689" lon="12.4018718"><ele>130.33333333333331</ele><time>2026-04-19T13:50:10.68Z</time></trkpt><trkpt lat="43.9620181" lon="12.4019465"><ele>129.66666666666666</ele><time>2026-04-19T13:50:11.678Z</time></trkpt><trkpt lat="43.9621766" lon="12.4020238"><ele>129.0</ele><time>2026-04-19T13:50:12.674Z</time></trkpt><trkpt lat="43.9623457" lon="12.4021611"><ele>129.0</ele><time>2026-04-19T13:50:13.679Z</time></trkpt><trkpt lat="43.9625151" lon="12.4023009"><ele>129.0</ele><time>2026-04-19T13:50:14.673Z</time></trkpt><trkpt lat="43.9626413" lon="12.4023942"><ele>129.0</ele><time>2026-04-19T13:50:15.673Z</time></trkpt><trkpt lat="43.9627583" lon="12.402453"><ele>129.0</ele><time>2026-04-19T13:50:16.668Z</time></trkpt><trkpt lat="43.962864" lon="12.4025174"><ele>129.0</ele><time>2026-04-19T13:50:17.67Z</time></trkpt><trkpt lat="43.9629706" lon="12.4025834"><ele>129.0</ele><time>2026-04-19T13:50:18.675Z</time></trkpt><trkpt lat="43.9630889" lon="12.4026528"><ele>129.0</ele><time>2026-04-19T13:50:19.675Z</time></trkpt><trkpt lat="43.9632122" lon="12.4027253"><ele>129.0</ele><time>2026-04-19T13:50:20.671Z</time></trkpt><trkpt lat="43.9633441" lon="12.4028017"><ele>129.0</ele><time>2026-04-19T13:50:21.672Z</time></trkpt><trkpt lat="43.9634783" lon="12.4028921"><ele>129.0</ele><time>2026-04-19T13:50:22.672Z</time></trkpt><trkpt lat="43.9636076" lon="12.4029975"><ele>129.0</ele><time>2026-04-19T13:50:23.69Z</time></trkpt><trkpt lat="43.9637388" lon="12.4031338"><ele>129.0</ele><time>2026-04-19T13:50:24.659Z</time></trkpt><trkpt lat="43.9638684" lon="12.4032716"><ele>129.0</ele><time>2026-04-19T13:50:25.672Z</time></trkpt><trkpt lat="43.9640095" lon="12.4034183"><ele>129.0</ele><time>2026-04-19T13:50:26.669Z</time></trkpt><trkpt lat="43.9641502" lon="12.4035801"><ele>126.33333333333334</ele><time>2026-04-19T13:50:27.666Z</time></trkpt><trkpt lat="43.9642999" lon="12.403761"><ele>123.66666666666667</ele><time>2026-04-19T13:50:28.672Z</time></trkpt><trkpt lat="43.9644601" lon="12.4039364"><ele>121.0</ele><time>2026-04-19T13:50:29.676Z</time></trkpt><trkpt lat="43.964599" lon="12.404109"><ele>121.0</ele><time>2026-04-19T13:50:30.678Z</time></trkpt><trkpt lat="43.9647313" lon="12.4043183"><ele>121.0</ele><time>2026-04-19T13:50:31.675Z</time></trkpt><trkpt lat="43.9648613" lon="12.4045274"><ele>121.0</ele><time>2026-04-19T13:50:32.676Z</time></trkpt><trkpt lat="43.9649831" lon="12.4047425"><ele>120.66666666666667</ele><time>2026-04-19T13:50:33.679Z</time></trkpt><trkpt lat="43.9651043" lon="12.4049358"><ele>120.33333333333334</ele><time>2026-04-19T13:50:34.671Z</time></trkpt><trkpt lat="43.965253" lon="12.4051318"><ele>120.0</ele><time>2026-04-19T13:50:35.679Z</time></trkpt><trkpt lat="43.9654311" lon="12.4053429"><ele>119.33333333333334</ele><time>2026-04-19T13:50:36.681Z</time></trkpt><trkpt lat="43.9655736" lon="12.4055506"><ele>118.66666666666667</ele><time>2026-04-19T13:50:37.671Z</time></trkpt><trkpt lat="43.9657058" lon="12.4057493"><ele>118.0</ele><time>2026-04-19T13:50:38.67Z</time></trkpt><trkpt lat="43.9658786" lon="12.4059337"><ele>118.0</ele><time>2026-04-19T13:50:39.668Z</time></trkpt><trkpt lat="43.9660382" lon="12.4061238"><ele>118.0</ele><time>2026-04-19T13:50:40.679Z</time></trkpt><trkpt lat="43.9661642" lon="12.4063428"><ele>118.0</ele><time>2026-04-19T13:50:41.66Z</time></trkpt><trkpt lat="43.966223" lon="12.4065699"><ele>118.33333333333334</ele><time>2026-04-19T13:50:42.671Z</time></trkpt><trkpt lat="43.9663048" lon="12.406776"><ele>118.66666666666666</ele><time>2026-04-19T13:50:43.657Z</time></trkpt><trkpt lat="43.9664228" lon="12.4070079"><ele>119.0</ele><time>2026-04-19T13:50:44.671Z</time></trkpt><trkpt lat="43.966521" lon="12.4072445"><ele>118.0</ele><time>2026-04-19T13:50:45.664Z</time></trkpt><trkpt lat="43.9666422" lon="12.4074909"><ele>117.0</ele><time>2026-04-19T13:50:46.664Z</time></trkpt><trkpt lat="43.9667277" lon="12.407741"><ele>116.0</ele><time>2026-04-19T13:50:47.661Z</time></trkpt><trkpt lat="43.9668342" lon="12.407946"><ele>116.33333333333333</ele><time>2026-04-19T13:50:48.675Z</time></trkpt><trkpt lat="43.966963" lon="12.4081433"><ele>116.66666666666666</ele><time>2026-04-19T13:50:49.673Z</time></trkpt><trkpt lat="43.9670245" lon="12.4083455"><ele>117.0</ele><time>2026-04-19T13:50:50.662Z</time></trkpt><trkpt lat="43.967108" lon="12.4085448"><ele>117.0</ele><time>2026-04-19T13:50:51.662Z</time></trkpt><trkpt lat="43.9671786" lon="12.4087414"><ele>117.0</ele><time>2026-04-19T13:50:52.66Z</time></trkpt><trkpt lat="43.9672686" lon="12.4089296"><ele>117.0</ele><time>2026-04-19T13:50:53.657Z</time></trkpt><trkpt lat="43.9673635" lon="12.409128"><ele>117.0</ele><time>2026-04-19T13:50:54.679Z</time></trkpt><trkpt lat="43.9674547" lon="12.40934"><ele>117.0</ele><time>2026-04-19T13:50:55.666Z</time></trkpt><trkpt lat="43.9675421" lon="12.4095451"><ele>117.0</ele><time>2026-04-19T13:50:56.665Z</time></trkpt><trkpt lat="43.9676342" lon="12.4097461"><ele>116.0</ele><time>2026-04-19T13:50:57.669Z</time></trkpt><trkpt lat="43.9677267" lon="12.4099372"><ele>115.0</ele><time>2026-04-19T13:50:58.67Z</time></trkpt><trkpt lat="43.9678236" lon="12.4101372"><ele>114.0</ele><time>2026-04-19T13:50:59.675Z</time></trkpt><trkpt lat="43.9679263" lon="12.4103397"><ele>115.33333333333334</ele><time>2026-04-19T13:51:00.679Z</time></trkpt><trkpt lat="43.9680371" lon="12.4105215"><ele>116.66666666666667</ele><time>2026-04-19T13:51:01.669Z</time></trkpt><trkpt lat="43.9681329" lon="12.4107068"><ele>118.0</ele><time>2026-04-19T13:51:02.674Z</time></trkpt><trkpt lat="43.9682258" lon="12.4108923"><ele>118.0</ele><time>2026-04-19T13:51:03.679Z</time></trkpt><trkpt lat="43.9683328" lon="12.4110571"><ele>118.0</ele><time>2026-04-19T13:51:04.668Z</time></trkpt><trkpt lat="43.9684301" lon="12.4112075"><ele>118.0</ele><time>2026-04-19T13:51:05.669Z</time></trkpt><trkpt lat="43.9685543" lon="12.4113539"><ele>118.0</ele><time>2026-04-19T13:51:06.686Z</time></trkpt><trkpt lat="43.9686927" lon="12.4115056"><ele>118.0</ele><time>2026-04-19T13:51:07.662Z</time></trkpt><trkpt lat="43.9688204" lon="12.4116164"><ele>118.0</ele><time>2026-04-19T13:51:08.684Z</time></trkpt><trkpt lat="43.9689519" lon="12.4117119"><ele>118.0</ele><time>2026-04-19T13:51:09.674Z</time></trkpt><trkpt lat="43.9690979" lon="12.4117962"><ele>118.0</ele><time>2026-04-19T13:51:10.675Z</time></trkpt><trkpt lat="43.9692437" lon="12.4119203"><ele>118.0</ele><time>2026-04-19T13:51:11.668Z</time></trkpt><trkpt lat="43.9693878" lon="12.412001"><ele>118.25</ele><time>2026-04-19T13:51:12.668Z</time></trkpt><trkpt lat="43.9695206" lon="12.4120733"><ele>118.5</ele><time>2026-04-19T13:51:13.672Z</time></trkpt><trkpt lat="43.969666" lon="12.4121327"><ele>118.75</ele><time>2026-04-19T13:51:14.672Z</time></trkpt><trkpt lat="43.9698006" lon="12.4121989"><ele>119.0</ele><time>2026-04-19T13:51:15.665Z</time></trkpt><trkpt lat="43.9699388" lon="12.4122533"><ele>118.0</ele><time>2026-04-19T13:51:16.666Z</time></trkpt><trkpt lat="43.9700745" lon="12.4123008"><ele>117.0</ele><time>2026-04-19T13:51:17.663Z</time></trkpt><trkpt lat="43.9702047" lon="12.4123307"><ele>116.0</ele><time>2026-04-19T13:51:18.667Z</time></trkpt><trkpt lat="43.9703474" lon="12.4123634"><ele>115.0</ele><time>2026-04-19T13:51:19.665Z</time></trkpt><trkpt lat="43.9704948" lon="12.4123841"><ele>115.0</ele><time>2026-04-19T13:51:20.664Z</time></trkpt><trkpt lat="43.9706303" lon="12.4123848"><ele>115.0</ele><time>2026-04-19T13:51:21.667Z</time></trkpt><trkpt lat="43.9707576" lon="12.4123667"><ele>115.0</ele><time>2026-04-19T13:51:22.665Z</time></trkpt><trkpt lat="43.9708948" lon="12.4123423"><ele>115.0</ele><time>2026-04-19T13:51:23.67Z</time></trkpt><trkpt lat="43.9710343" lon="12.4123172"><ele>115.0</ele><time>2026-04-19T13:51:24.686Z</time></trkpt><trkpt lat="43.9711728" lon="12.4122836"><ele>115.0</ele><time>2026-04-19T13:51:25.69Z</time></trkpt><trkpt lat="43.9713082" lon="12.4122416"><ele>115.0</ele><time>2026-04-19T13:51:26.673Z</time></trkpt><trkpt lat="43.9714411" lon="12.4121946"><ele>115.0</ele><time>2026-04-19T13:51:27.672Z</time></trkpt><trkpt lat="43.97157" lon="12.4121486"><ele>115.0</ele><time>2026-04-19T13:51:28.683Z</time></trkpt><trkpt lat="43.9716823" lon="12.4121046"><ele>115.0</ele><time>2026-04-19T13:51:29.67Z</time></trkpt><trkpt lat="43.9717858" lon="12.4120658"><ele>115.0</ele><time>2026-04-19T13:51:30.675Z</time></trkpt><trkpt lat="43.9718837" lon="12.4120233"><ele>115.0</ele><time>2026-04-19T13:51:31.669Z</time></trkpt><trkpt lat="43.9720019" lon="12.411963"><ele>116.2</ele><time>2026-04-19T13:51:32.679Z</time></trkpt><trkpt lat="43.9721116" lon="12.4119177"><ele>117.4</ele><time>2026-04-19T13:51:33.666Z</time></trkpt><trkpt lat="43.9722134" lon="12.4118716"><ele>118.6</ele><time>2026-04-19T13:51:34.67Z</time></trkpt><trkpt lat="43.9723031" lon="12.4118348"><ele>119.8</ele><time>2026-04-19T13:51:35.665Z</time></trkpt><trkpt lat="43.9723851" lon="12.4118161"><ele>121.0</ele><time>2026-04-19T13:51:36.674Z</time></trkpt><trkpt lat="43.9724534" lon="12.4118145"><ele>121.00000000000001</ele><time>2026-04-19T13:51:37.673Z</time></trkpt><trkpt lat="43.9725182" lon="12.4118595"><ele>121.0</ele><time>2026-04-19T13:51:38.67Z</time></trkpt><trkpt lat="43.9725893" lon="12.4119047"><ele>121.0</ele><time>2026-04-19T13:51:39.669Z</time></trkpt><trkpt lat="43.9726558" lon="12.4119484"><ele>121.0</ele><time>2026-04-19T13:51:40.675Z</time></trkpt><trkpt lat="43.9727389" lon="12.4119803"><ele>121.00000000000001</ele><time>2026-04-19T13:51:41.671Z</time></trkpt><trkpt lat="43.9728191" lon="12.4119841"><ele>121.0</ele><time>2026-04-19T13:51:42.68Z</time></trkpt><trkpt lat="43.9729263" lon="12.4119477"><ele>122.75</ele><time>2026-04-19T13:51:43.679Z</time></trkpt><trkpt lat="43.973052" lon="12.4118656"><ele>124.5</ele><time>2026-04-19T13:51:44.666Z</time></trkpt><trkpt lat="43.9731786" lon="12.4117782"><ele>126.25</ele><time>2026-04-19T13:51:45.667Z</time></trkpt><trkpt lat="43.9733034" lon="12.4117023"><ele>128.0</ele><time>2026-04-19T13:51:46.668Z</time></trkpt><trkpt lat="43.9734276" lon="12.4116306"><ele>130.33333333333331</ele><time>2026-04-19T13:51:47.658Z</time></trkpt><trkpt lat="43.9735683" lon="12.4115795"><ele>132.66666666666666</ele><time>2026-04-19T13:51:48.657Z</time></trkpt><trkpt lat="43.9737142" lon="12.4115278"><ele>135.0</ele><time>2026-04-19T13:51:49.662Z</time></trkpt><trkpt lat="43.9738729" lon="12.4114467"><ele>135.0</ele><time>2026-04-19T13:51:50.672Z</time></trkpt><trkpt lat="43.974044" lon="12.4113849"><ele>135.0</ele><time>2026-04-19T13:51:51.667Z</time></trkpt><trkpt lat="43.9742237" lon="12.4113253"><ele>135.0</ele><time>2026-04-19T13:51:52.669Z</time></trkpt><trkpt lat="43.9743982" lon="12.4112737"><ele>133.33333333333334</ele><time>2026-04-19T13:51:53.672Z</time></trkpt><trkpt lat="43.9745398" lon="12.4111851"><ele>131.66666666666669</ele><time>2026-04-19T13:51:54.663Z</time></trkpt><trkpt lat="43.9746907" lon="12.4111064"><ele>130.0</ele><time>2026-04-19T13:51:55.664Z</time></trkpt><trkpt lat="43.9748624" lon="12.4110167"><ele>133.33333333333334</ele><time>2026-04-19T13:51:56.674Z</time></trkpt><trkpt lat="43.9750217" lon="12.4109226"><ele>136.66666666666666</ele><time>2026-04-19T13:51:57.663Z</time></trkpt><trkpt lat="43.975167" lon="12.4108157"><ele>140.0</ele><time>2026-04-19T13:51:58.672Z</time></trkpt><trkpt lat="43.9753328" lon="12.4107099"><ele>140.0</ele><time>2026-04-19T13:51:59.661Z</time></trkpt><trkpt lat="43.9754782" lon="12.4106292"><ele>140.0</ele><time>2026-04-19T13:52:00.66Z</time></trkpt><trkpt lat="43.9756303" lon="12.4105521"><ele>140.0</ele><time>2026-04-19T13:52:01.654Z</time></trkpt><trkpt lat="43.9757926" lon="12.410444"><ele>138.33333333333331</ele><time>2026-04-19T13:52:02.66Z</time></trkpt><trkpt lat="43.9759539" lon="12.4103742"><ele>136.66666666666666</ele><time>2026-04-19T13:52:03.659Z</time></trkpt><trkpt lat="43.9761348" lon="12.4103198"><ele>135.0</ele><time>2026-04-19T13:52:04.665Z</time></trkpt><trkpt lat="43.9763266" lon="12.4102751"><ele>135.0</ele><time>2026-04-19T13:52:05.66Z</time></trkpt><trkpt lat="43.9765217" lon="12.4102418"><ele>135.0</ele><time>2026-04-19T13:52:06.664Z</time></trkpt><trkpt lat="43.9767263" lon="12.4102318"><ele>135.0</ele><time>2026-04-19T13:52:07.661Z</time></trkpt><trkpt lat="43.9769226" lon="12.4102072"><ele>136.0</ele><time>2026-04-19T13:52:08.669Z</time></trkpt><trkpt lat="43.9771339" lon="12.4101978"><ele>137.0</ele><time>2026-04-19T13:52:09.663Z</time></trkpt><trkpt lat="43.9773163" lon="12.4101924"><ele>138.0</ele><time>2026-04-19T13:52:10.667Z</time></trkpt><trkpt lat="43.9775044" lon="12.4102068"><ele>138.33333333333334</ele><time>2026-04-19T13:52:11.656Z</time></trkpt><trkpt lat="43.9776913" lon="12.4102148"><ele>138.66666666666669</ele><time>2026-04-19T13:52:12.657Z</time></trkpt><trkpt lat="43.9778767" lon="12.4102191"><ele>139.0</ele><time>2026-04-19T13:52:13.656Z</time></trkpt><trkpt lat="43.9780678" lon="12.4102421"><ele>139.0</ele><time>2026-04-19T13:52:14.662Z</time></trkpt><trkpt lat="43.9782504" lon="12.4102845"><ele>139.0</ele><time>2026-04-19T13:52:15.662Z</time></trkpt><trkpt lat="43.9784471" lon="12.4102872"><ele>139.0</ele><time>2026-04-19T13:52:16.674Z</time></trkpt><trkpt lat="43.9786303" lon="12.410306"><ele>140.33333333333334</ele><time>2026-04-19T13:52:17.662Z</time></trkpt><trkpt lat="43.9788207" lon="12.4103142"><ele>141.66666666666666</ele><time>2026-04-19T13:52:18.665Z</time></trkpt><trkpt lat="43.9790041" lon="12.4103189"><ele>143.0</ele><time>2026-04-19T13:52:19.657Z</time></trkpt><trkpt lat="43.9791868" lon="12.4103048"><ele>143.33333333333331</ele><time>2026-04-19T13:52:20.666Z</time></trkpt><trkpt lat="43.9793877" lon="12.4102937"><ele>143.66666666666666</ele><time>2026-04-19T13:52:21.666Z</time></trkpt><trkpt lat="43.9795935" lon="12.4103321"><ele>144.0</ele><time>2026-04-19T13:52:22.662Z</time></trkpt><trkpt lat="43.9797828" lon="12.4103303"><ele>144.0</ele><time>2026-04-19T13:52:23.668Z</time></trkpt><trkpt lat="43.9799546" lon="12.4103103"><ele>144.0</ele><time>2026-04-19T13:52:24.661Z</time></trkpt><trkpt lat="43.9801362" lon="12.4103121"><ele>144.0</ele><time>2026-04-19T13:52:25.665Z</time></trkpt><trkpt lat="43.9803068" lon="12.4103195"><ele>144.33333333333334</ele><time>2026-04-19T13:52:26.668Z</time></trkpt><trkpt lat="43.9804792" lon="12.4103328"><ele>144.66666666666669</ele><time>2026-04-19T13:52:27.687Z</time></trkpt><trkpt lat="43.980645" lon="12.4103419"><ele>145.0</ele><time>2026-04-19T13:52:28.669Z</time></trkpt><trkpt lat="43.9808215" lon="12.4103612"><ele>145.66666666666669</ele><time>2026-04-19T13:52:29.672Z</time></trkpt><trkpt lat="43.9810099" lon="12.4103596"><ele>146.33333333333334</ele><time>2026-04-19T13:52:30.669Z</time></trkpt><trkpt lat="43.9811911" lon="12.4103578"><ele>147.0</ele><time>2026-04-19T13:52:31.662Z</time></trkpt><trkpt lat="43.9813703" lon="12.4103765"><ele>147.0</ele><time>2026-04-19T13:52:32.658Z</time></trkpt><trkpt lat="43.9815485" lon="12.4103879"><ele>147.0</ele><time>2026-04-19T13:52:33.663Z</time></trkpt><trkpt lat="43.9817377" lon="12.4104026"><ele>147.0</ele><time>2026-04-19T13:52:34.665Z</time></trkpt><trkpt lat="43.9819292" lon="12.4104108"><ele>145.33333333333334</ele><time>2026-04-19T13:52:35.668Z</time></trkpt><trkpt lat="43.9821248" lon="12.4104323"><ele>143.66666666666669</ele><time>2026-04-19T13:52:36.663Z</time></trkpt><trkpt lat="43.9823238" lon="12.4104467"><ele>142.0</ele><time>2026-04-19T13:52:37.665Z</time></trkpt><trkpt lat="43.9825148" lon="12.4104633"><ele>138.66666666666669</ele><time>2026-04-19T13:52:38.677Z</time></trkpt><trkpt lat="43.9827022" lon="12.4104691"><ele>135.33333333333334</ele><time>2026-04-19T13:52:39.668Z</time></trkpt><trkpt lat="43.9828832" lon="12.4104787"><ele>132.0</ele><time>2026-04-19T13:52:40.667Z</time></trkpt><trkpt lat="43.9830448" lon="12.410483"><ele>132.0</ele><time>2026-04-19T13:52:41.669Z</time></trkpt><trkpt lat="43.9832022" lon="12.4104858"><ele>132.0</ele><time>2026-04-19T13:52:42.674Z</time></trkpt><trkpt lat="43.9833638" lon="12.4104956"><ele>132.0</ele><time>2026-04-19T13:52:43.675Z</time></trkpt><trkpt lat="43.9835327" lon="12.4104924"><ele>134.66666666666666</ele><time>2026-04-19T13:52:44.679Z</time></trkpt><trkpt lat="43.9836986" lon="12.4104931"><ele>137.33333333333331</ele><time>2026-04-19T13:52:45.673Z</time></trkpt><trkpt lat="43.9838547" lon="12.4105018"><ele>140.0</ele><time>2026-04-19T13:52:46.673Z</time></trkpt><trkpt lat="43.9840039" lon="12.4105005"><ele>140.0</ele><time>2026-04-19T13:52:47.672Z</time></trkpt><trkpt lat="43.9841755" lon="12.4104975"><ele>140.0</ele><time>2026-04-19T13:52:48.671Z</time></trkpt><trkpt lat="43.9843349" lon="12.4104724"><ele>140.0</ele><time>2026-04-19T13:52:49.674Z</time></trkpt><trkpt lat="43.9845086" lon="12.4104563"><ele>135.33333333333331</ele><time>2026-04-19T13:52:50.67Z</time></trkpt><trkpt lat="43.9846896" lon="12.4104355"><ele>130.66666666666666</ele><time>2026-04-19T13:52:51.667Z</time></trkpt><trkpt lat="43.9848629" lon="12.4104016"><ele>126.0</ele><time>2026-04-19T13:52:52.663Z</time></trkpt><trkpt lat="43.9850263" lon="12.4103734"><ele>124.66666666666666</ele><time>2026-04-19T13:52:53.679Z</time></trkpt><trkpt lat="43.9851868" lon="12.4103713"><ele>123.33333333333333</ele><time>2026-04-19T13:52:54.677Z</time></trkpt><trkpt lat="43.9853479" lon="12.4103867"><ele>122.0</ele><time>2026-04-19T13:52:55.677Z</time></trkpt><trkpt lat="43.985529" lon="12.4104083"><ele>122.0</ele><time>2026-04-19T13:52:56.672Z</time></trkpt><trkpt lat="43.9856968" lon="12.4104337"><ele>122.0</ele><time>2026-04-19T13:52:57.683Z</time></trkpt><trkpt lat="43.985857" lon="12.410483"><ele>122.0</ele><time>2026-04-19T13:52:58.696Z</time></trkpt><trkpt lat="43.9860071" lon="12.4105426"><ele>122.0</ele><time>2026-04-19T13:52:59.693Z</time></trkpt><trkpt lat="43.9861693" lon="12.4106286"><ele>122.0</ele><time>2026-04-19T13:53:00.689Z</time></trkpt><trkpt lat="43.9863138" lon="12.4107303"><ele>122.0</ele><time>2026-04-19T13:53:01.685Z</time></trkpt><trkpt lat="43.9864533" lon="12.4108456"><ele>122.0</ele><time>2026-04-19T13:53:02.683Z</time></trkpt><trkpt lat="43.9865877" lon="12.4109681"><ele>122.0</ele><time>2026-04-19T13:53:03.69Z</time></trkpt><trkpt lat="43.9867205" lon="12.4111035"><ele>122.0</ele><time>2026-04-19T13:53:04.691Z</time></trkpt><trkpt lat="43.9868403" lon="12.4112503"><ele>120.66666666666666</ele><time>2026-04-19T13:53:05.685Z</time></trkpt><trkpt lat="43.9869595" lon="12.411418"><ele>119.33333333333334</ele><time>2026-04-19T13:53:06.69Z</time></trkpt><trkpt lat="43.9870966" lon="12.4115966"><ele>118.0</ele><time>2026-04-19T13:53:07.679Z</time></trkpt><trkpt lat="43.9872311" lon="12.4117874"><ele>118.0</ele><time>2026-04-19T13:53:08.682Z</time></trkpt><trkpt lat="43.9873554" lon="12.4119757"><ele>118.0</ele><time>2026-04-19T13:53:09.674Z</time></trkpt><trkpt lat="43.9874763" lon="12.4121553"><ele>118.0</ele><time>2026-04-19T13:53:10.671Z</time></trkpt><trkpt lat="43.9875797" lon="12.4123521"><ele>115.66666666666667</ele><time>2026-04-19T13:53:11.672Z</time></trkpt><trkpt lat="43.9876774" lon="12.4125421"><ele>113.33333333333334</ele><time>2026-04-19T13:53:12.664Z</time></trkpt><trkpt lat="43.9877632" lon="12.4127196"><ele>111.0</ele><time>2026-04-19T13:53:13.672Z</time></trkpt><trkpt lat="43.9878521" lon="12.412878"><ele>113.0</ele><time>2026-04-19T13:53:14.67Z</time></trkpt><trkpt lat="43.9879464" lon="12.4130638"><ele>115.0</ele><time>2026-04-19T13:53:15.668Z</time></trkpt><trkpt lat="43.9880633" lon="12.4132431"><ele>117.0</ele><time>2026-04-19T13:53:16.666Z</time></trkpt><trkpt lat="43.9882114" lon="12.4134121"><ele>116.33333333333334</ele><time>2026-04-19T13:53:17.673Z</time></trkpt><trkpt lat="43.9884039" lon="12.413569"><ele>115.66666666666667</ele><time>2026-04-19T13:53:18.681Z</time></trkpt><trkpt lat="43.9885827" lon="12.4137203"><ele>115.0</ele><time>2026-04-19T13:53:19.671Z</time></trkpt><trkpt lat="43.98872" lon="12.413843"><ele>115.0</ele><time>2026-04-19T13:53:20.674Z</time></trkpt><trkpt lat="43.9888934" lon="12.4139349"><ele>115.0</ele><time>2026-04-19T13:53:21.683Z</time></trkpt><trkpt lat="43.9890523" lon="12.4140303"><ele>115.0</ele><time>2026-04-19T13:53:22.684Z</time></trkpt><trkpt lat="43.9892168" lon="12.4141468"><ele>112.66666666666667</ele><time>2026-04-19T13:53:23.676Z</time></trkpt><trkpt lat="43.9893756" lon="12.4142517"><ele>110.33333333333334</ele><time>2026-04-19T13:53:24.677Z</time></trkpt><trkpt lat="43.9895276" lon="12.4143532"><ele>108.0</ele><time>2026-04-19T13:53:25.676Z</time></trkpt><trkpt lat="43.989701" lon="12.4144478"><ele>108.0</ele><time>2026-04-19T13:53:26.673Z</time></trkpt><trkpt lat="43.9898553" lon="12.4145559"><ele>108.0</ele><time>2026-04-19T13:53:27.678Z</time></trkpt><trkpt lat="43.9900292" lon="12.4146796"><ele>108.0</ele><time>2026-04-19T13:53:28.674Z</time></trkpt><trkpt lat="43.9901862" lon="12.4148184"><ele>107.33333333333334</ele><time>2026-04-19T13:53:29.695Z</time></trkpt><trkpt lat="43.9903367" lon="12.4149767"><ele>106.66666666666667</ele><time>2026-04-19T13:53:30.679Z</time></trkpt><trkpt lat="43.9904853" lon="12.4151465"><ele>106.0</ele><time>2026-04-19T13:53:31.676Z</time></trkpt><trkpt lat="43.9906347" lon="12.4153038"><ele>106.0</ele><time>2026-04-19T13:53:32.674Z</time></trkpt><trkpt lat="43.9907792" lon="12.4154563"><ele>106.0</ele><time>2026-04-19T13:53:33.677Z</time></trkpt><trkpt lat="43.9909179" lon="12.4155898"><ele>106.0</ele><time>2026-04-19T13:53:34.679Z</time></trkpt><trkpt lat="43.9910344" lon="12.4157179"><ele>105.5</ele><time>2026-04-19T13:53:35.679Z</time></trkpt><trkpt lat="43.9911414" lon="12.4158156"><ele>105.0</ele><time>2026-04-19T13:53:36.679Z</time></trkpt><trkpt lat="43.991229" lon="12.4159148"><ele>104.5</ele><time>2026-04-19T13:53:37.676Z</time></trkpt><trkpt lat="43.9913391" lon="12.4160158"><ele>104.0</ele><time>2026-04-19T13:53:38.682Z</time></trkpt><trkpt lat="43.9914639" lon="12.4161113"><ele>104.0</ele><time>2026-04-19T13:53:39.676Z</time></trkpt><trkpt lat="43.9915521" lon="12.4162231"><ele>104.0</ele><time>2026-04-19T13:53:40.665Z</time></trkpt><trkpt lat="43.9916277" lon="12.4162945"><ele>104.0</ele><time>2026-04-19T13:53:41.667Z</time></trkpt><trkpt lat="43.9917144" lon="12.4163482"><ele>104.0</ele><time>2026-04-19T13:53:42.668Z</time></trkpt><trkpt lat="43.9918172" lon="12.4164113"><ele>104.0</ele><time>2026-04-19T13:53:43.669Z</time></trkpt><trkpt lat="43.991929" lon="12.4165101"><ele>104.0</ele><time>2026-04-19T13:53:44.681Z</time></trkpt><trkpt lat="43.9920417" lon="12.4166592"><ele>104.0</ele><time>2026-04-19T13:53:45.676Z</time></trkpt><trkpt lat="43.9921526" lon="12.416831"><ele>104.0</ele><time>2026-04-19T13:53:46.673Z</time></trkpt><trkpt lat="43.9922776" lon="12.4169883"><ele>104.0</ele><time>2026-04-19T13:53:47.676Z</time></trkpt><trkpt lat="43.9923977" lon="12.417152"><ele>104.0</ele><time>2026-04-19T13:53:48.679Z</time></trkpt><trkpt lat="43.9925195" lon="12.4173001"><ele>104.0</ele><time>2026-04-19T13:53:49.673Z</time></trkpt><trkpt lat="43.9926291" lon="12.4174455"><ele>103.66666666666666</ele><time>2026-04-19T13:53:50.677Z</time></trkpt><trkpt lat="43.9927398" lon="12.4175992"><ele>103.33333333333334</ele><time>2026-04-19T13:53:51.671Z</time></trkpt><trkpt lat="43.9928464" lon="12.4177557"><ele>103.0</ele><time>2026-04-19T13:53:52.673Z</time></trkpt><trkpt lat="43.9929387" lon="12.4179028"><ele>103.5</ele><time>2026-04-19T13:53:53.675Z</time></trkpt><trkpt lat="43.9930234" lon="12.418032"><ele>104.0</ele><time>2026-04-19T13:53:54.67Z</time></trkpt><trkpt lat="43.9931035" lon="12.4181512"><ele>104.5</ele><time>2026-04-19T13:53:55.672Z</time></trkpt><trkpt lat="43.9931824" lon="12.4182669"><ele>105.0</ele><time>2026-04-19T13:53:56.67Z</time></trkpt><trkpt lat="43.9932575" lon="12.4183779"><ele>105.0</ele><time>2026-04-19T13:53:57.672Z</time></trkpt><trkpt lat="43.9933359" lon="12.4184788"><ele>105.0</ele><time>2026-04-19T13:53:58.676Z</time></trkpt><trkpt lat="43.9934155" lon="12.4185637"><ele>105.0</ele><time>2026-04-19T13:53:59.667Z</time></trkpt><trkpt lat="43.9934924" lon="12.4186496"><ele>105.0</ele><time>2026-04-19T13:54:00.687Z</time></trkpt><trkpt lat="43.9935629" lon="12.4187419"><ele>105.0</ele><time>2026-04-19T13:54:01.669Z</time></trkpt><trkpt lat="43.9936468" lon="12.41883"><ele>104.8</ele><time>2026-04-19T13:54:02.677Z</time></trkpt><trkpt lat="43.9937074" lon="12.4189117"><ele>104.6</ele><time>2026-04-19T13:54:03.674Z</time></trkpt><trkpt lat="43.9937892" lon="12.4190004"><ele>104.4</ele><time>2026-04-19T13:54:04.675Z</time></trkpt><trkpt lat="43.9938495" lon="12.4191068"><ele>104.2</ele><time>2026-04-19T13:54:05.677Z</time></trkpt><trkpt lat="43.9938739" lon="12.4191999"><ele>104.0</ele><time>2026-04-19T13:54:06.668Z</time></trkpt><trkpt lat="43.9939286" lon="12.4193359"><ele>104.0</ele><time>2026-04-19T13:54:07.67Z</time></trkpt><trkpt lat="43.9939723" lon="12.4194618"><ele>104.0</ele><time>2026-04-19T13:54:08.676Z</time></trkpt><trkpt lat="43.9940366" lon="12.4195522"><ele>104.0</ele><time>2026-04-19T13:54:09.675Z</time></trkpt><trkpt lat="43.9941121" lon="12.4196193"><ele>104.0</ele><time>2026-04-19T13:54:10.665Z</time></trkpt><trkpt lat="43.994191" lon="12.4197027"><ele>104.0</ele><time>2026-04-19T13:54:11.67Z</time></trkpt><trkpt lat="43.9942762" lon="12.4198074"><ele>104.0</ele><time>2026-04-19T13:54:12.672Z</time></trkpt><trkpt lat="43.9943594" lon="12.419933"><ele>104.0</ele><time>2026-04-19T13:54:13.677Z</time></trkpt><trkpt lat="43.9944386" lon="12.4200627"><ele>104.0</ele><time>2026-04-19T13:54:14.669Z</time></trkpt><trkpt lat="43.9945212" lon="12.420195"><ele>104.0</ele><time>2026-04-19T13:54:15.668Z</time></trkpt><trkpt lat="43.9946134" lon="12.4203356"><ele>104.0</ele><time>2026-04-19T13:54:16.666Z</time></trkpt><trkpt lat="43.9947087" lon="12.4204814"><ele>104.0</ele><time>2026-04-19T13:54:17.67Z</time></trkpt><trkpt lat="43.9948004" lon="12.4206302"><ele>104.0</ele><time>2026-04-19T13:54:18.671Z</time></trkpt><trkpt lat="43.9948944" lon="12.4207796"><ele>104.0</ele><time>2026-04-19T13:54:19.668Z</time></trkpt><trkpt lat="43.9949771" lon="12.4209023"><ele>103.5</ele><time>2026-04-19T13:54:20.665Z</time></trkpt><trkpt lat="43.9950573" lon="12.4210297"><ele>103.0</ele><time>2026-04-19T13:54:21.67Z</time></trkpt><trkpt lat="43.9951398" lon="12.4211672"><ele>102.5</ele><time>2026-04-19T13:54:22.67Z</time></trkpt><trkpt lat="43.9952178" lon="12.4212968"><ele>102.0</ele><time>2026-04-19T13:54:23.667Z</time></trkpt><trkpt lat="43.9953135" lon="12.4214365"><ele>102.0</ele><time>2026-04-19T13:54:24.664Z</time></trkpt><trkpt lat="43.9954136" lon="12.4215752"><ele>102.0</ele><time>2026-04-19T13:54:25.669Z</time></trkpt><trkpt lat="43.9955022" lon="12.4217173"><ele>102.0</ele><time>2026-04-19T13:54:26.673Z</time></trkpt><trkpt lat="43.9955917" lon="12.4218533"><ele>102.0</ele><time>2026-04-19T13:54:27.667Z</time></trkpt><trkpt lat="43.9956847" lon="12.4219949"><ele>102.0</ele><time>2026-04-19T13:54:28.671Z</time></trkpt><trkpt lat="43.9957807" lon="12.4221351"><ele>102.0</ele><time>2026-04-19T13:54:29.671Z</time></trkpt><trkpt lat="43.9958748" lon="12.4222728"><ele>102.0</ele><time>2026-04-19T13:54:30.676Z</time></trkpt><trkpt lat="43.9959625" lon="12.4224145"><ele>102.0</ele><time>2026-04-19T13:54:31.685Z</time></trkpt><trkpt lat="43.9960516" lon="12.4225552"><ele>102.0</ele><time>2026-04-19T13:54:32.67Z</time></trkpt><trkpt lat="43.9961405" lon="12.4226827"><ele>102.0</ele><time>2026-04-19T13:54:33.674Z</time></trkpt><trkpt lat="43.9962407" lon="12.4228238"><ele>102.0</ele><time>2026-04-19T13:54:34.675Z</time></trkpt><trkpt lat="43.9963244" lon="12.422947"><ele>102.0</ele><time>2026-04-19T13:54:35.668Z</time></trkpt><trkpt lat="43.9964223" lon="12.4230769"><ele>102.0</ele><time>2026-04-19T13:54:36.665Z</time></trkpt><trkpt lat="43.9965071" lon="12.4232154"><ele>102.0</ele><time>2026-04-19T13:54:37.674Z</time></trkpt><trkpt lat="43.9965941" lon="12.4233306"><ele>102.0</ele><time>2026-04-19T13:54:38.674Z</time></trkpt><trkpt lat="43.9966785" lon="12.4234593"><ele>102.0</ele><time>2026-04-19T13:54:39.67Z</time></trkpt><trkpt lat="43.9967584" lon="12.4235822"><ele>102.0</ele><time>2026-04-19T13:54:40.681Z</time></trkpt><trkpt lat="43.9968312" lon="12.4236921"><ele>102.0</ele><time>2026-04-19T13:54:41.675Z</time></trkpt><trkpt lat="43.996897" lon="12.4237888"><ele>102.0</ele><time>2026-04-19T13:54:42.67Z</time></trkpt><trkpt lat="43.9969531" lon="12.4238714"><ele>102.0</ele><time>2026-04-19T13:54:43.68Z</time></trkpt><trkpt lat="43.9970181" lon="12.4239678"><ele>102.0</ele><time>2026-04-19T13:54:44.686Z</time></trkpt><trkpt lat="43.9970683" lon="12.4240606"><ele>102.0</ele><time>2026-04-19T13:54:45.674Z</time></trkpt><trkpt lat="43.9971138" lon="12.4241638"><ele>102.0</ele><time>2026-04-19T13:54:46.682Z</time></trkpt><trkpt lat="43.9971548" lon="12.4242699"><ele>102.0</ele><time>2026-04-19T13:54:47.681Z</time></trkpt><trkpt lat="43.997195" lon="12.4243583"><ele>102.0</ele><time>2026-04-19T13:54:48.678Z</time></trkpt><trkpt lat="43.9972176" lon="12.4244941"><ele>102.0</ele><time>2026-04-19T13:54:51.671Z</time></trkpt><trkpt lat="43.9973062" lon="12.4245594"><ele>102.0</ele><time>2026-04-19T13:54:53.675Z</time></trkpt><trkpt lat="43.997379" lon="12.4245708"><ele>102.0</ele><time>2026-04-19T13:54:54.68Z</time></trkpt><trkpt lat="43.9974779" lon="12.4246257"><ele>102.0</ele><time>2026-04-19T13:54:55.677Z</time></trkpt><trkpt lat="43.997574" lon="12.4246939"><ele>102.0</ele><time>2026-04-19T13:54:56.675Z</time></trkpt><trkpt lat="43.9976833" lon="12.4248362"><ele>102.0</ele><time>2026-04-19T13:54:57.674Z</time></trkpt><trkpt lat="43.9977827" lon="12.4249936"><ele>101.8</ele><time>2026-04-19T13:54:58.672Z</time></trkpt><trkpt lat="43.9978731" lon="12.425121"><ele>101.6</ele><time>2026-04-19T13:54:59.687Z</time></trkpt><trkpt lat="43.9979501" lon="12.4252205"><ele>101.39999999999999</ele><time>2026-04-19T13:55:00.68Z</time></trkpt><trkpt lat="43.998014" lon="12.4253179"><ele>101.19999999999999</ele><time>2026-04-19T13:55:01.659Z</time></trkpt><trkpt lat="43.998089" lon="12.4254245"><ele>101.0</ele><time>2026-04-19T13:55:02.679Z</time></trkpt><trkpt lat="43.9981783" lon="12.4255317"><ele>101.0</ele><time>2026-04-19T13:55:03.663Z</time></trkpt><trkpt lat="43.998271" lon="12.4256407"><ele>101.0</ele><time>2026-04-19T13:55:04.668Z</time></trkpt><trkpt lat="43.9983699" lon="12.4257473"><ele>101.0</ele><time>2026-04-19T13:55:05.675Z</time></trkpt><trkpt lat="43.9984634" lon="12.4258488"><ele>101.0</ele><time>2026-04-19T13:55:06.67Z</time></trkpt><trkpt lat="43.9985546" lon="12.4259422"><ele>101.0</ele><time>2026-04-19T13:55:07.675Z</time></trkpt><trkpt lat="43.9986413" lon="12.426025"><ele>101.0</ele><time>2026-04-19T13:55:08.67Z</time></trkpt><trkpt lat="43.9987252" lon="12.4261066"><ele>101.0</ele><time>2026-04-19T13:55:09.66Z</time></trkpt><trkpt lat="43.9987947" lon="12.4261729"><ele>101.0</ele><time>2026-04-19T13:55:10.668Z</time></trkpt><trkpt lat="43.9988627" lon="12.4262516"><ele>101.0</ele><time>2026-04-19T13:55:11.667Z</time></trkpt><trkpt lat="43.9989322" lon="12.4263378"><ele>100.99999999999999</ele><time>2026-04-19T13:55:12.67Z</time></trkpt><trkpt lat="43.9990025" lon="12.4264222"><ele>101.0</ele><time>2026-04-19T13:55:13.672Z</time></trkpt><trkpt lat="43.9990844" lon="12.4265051"><ele>101.0</ele><time>2026-04-19T13:55:14.672Z</time></trkpt><trkpt lat="43.9991594" lon="12.4265767"><ele>101.0</ele><time>2026-04-19T13:55:15.665Z</time></trkpt><trkpt lat="43.9992228" lon="12.4266324"><ele>100.99999999999999</ele><time>2026-04-19T13:55:16.676Z</time></trkpt><trkpt lat="43.9992809" lon="12.4266921"><ele>101.0</ele><time>2026-04-19T13:55:17.664Z</time></trkpt><trkpt lat="43.9993389" lon="12.4267617"><ele>100.83333333333333</ele><time>2026-04-19T13:55:18.68Z</time></trkpt><trkpt lat="43.9993929" lon="12.4268501"><ele>100.66666666666666</ele><time>2026-04-19T13:55:19.669Z</time></trkpt><trkpt lat="43.9994057" lon="12.4269594"><ele>100.5</ele><time>2026-04-19T13:55:20.674Z</time></trkpt><trkpt lat="43.9993997" lon="12.4270516"><ele>100.33333333333334</ele><time>2026-04-19T13:55:21.677Z</time></trkpt><trkpt lat="43.9994499" lon="12.427139"><ele>100.16666666666667</ele><time>2026-04-19T13:55:22.673Z</time></trkpt><trkpt lat="43.9995399" lon="12.4272049"><ele>100.0</ele><time>2026-04-19T13:55:24.675Z</time></trkpt><trkpt lat="43.9996544" lon="12.4271853"><ele>100.0</ele><time>2026-04-19T13:55:26.676Z</time></trkpt><trkpt lat="43.9997382" lon="12.4271904"><ele>100.0</ele><time>2026-04-19T13:55:27.674Z</time></trkpt><trkpt lat="43.9998304" lon="12.4272366"><ele>100.0</ele><time>2026-04-19T13:55:28.678Z</time></trkpt><trkpt lat="43.9999476" lon="12.427343"><ele>100.0</ele><time>2026-04-19T13:55:29.682Z</time></trkpt><trkpt lat="44.0000398" lon="12.4274337"><ele>100.0</ele><time>2026-04-19T13:55:30.672Z</time></trkpt><trkpt lat="44.0001583" lon="12.4275407"><ele>100.0</ele><time>2026-04-19T13:55:31.671Z</time></trkpt><trkpt lat="44.0002993" lon="12.4276549"><ele>100.0</ele><time>2026-04-19T13:55:32.661Z</time></trkpt><trkpt lat="44.0004279" lon="12.4277832"><ele>100.0</ele><time>2026-04-19T13:55:33.688Z</time></trkpt><trkpt lat="44.0005738" lon="12.4279337"><ele>100.0</ele><time>2026-04-19T13:55:34.661Z</time></trkpt><trkpt lat="44.0007372" lon="12.4280847"><ele>100.0</ele><time>2026-04-19T13:55:35.66Z</time></trkpt><trkpt lat="44.0008745" lon="12.4282386"><ele>100.0</ele><time>2026-04-19T13:55:36.671Z</time></trkpt><trkpt lat="44.000993" lon="12.428399"><ele>99.66666666666667</ele><time>2026-04-19T13:55:37.668Z</time></trkpt><trkpt lat="44.0011021" lon="12.4285624"><ele>99.33333333333334</ele><time>2026-04-19T13:55:38.672Z</time></trkpt><trkpt lat="44.0011902" lon="12.4287577"><ele>99.0</ele><time>2026-04-19T13:55:39.676Z</time></trkpt><trkpt lat="44.0012627" lon="12.4289451"><ele>98.75</ele><time>2026-04-19T13:55:40.668Z</time></trkpt><trkpt lat="44.0013432" lon="12.429129"><ele>98.5</ele><time>2026-04-19T13:55:41.677Z</time></trkpt><trkpt lat="44.0014159" lon="12.429289"><ele>98.25</ele><time>2026-04-19T13:55:42.669Z</time></trkpt><trkpt lat="44.001494" lon="12.4294375"><ele>98.0</ele><time>2026-04-19T13:55:43.683Z</time></trkpt><trkpt lat="44.001561" lon="12.4295789"><ele>98.2</ele><time>2026-04-19T13:55:44.669Z</time></trkpt><trkpt lat="44.0016191" lon="12.4296916"><ele>98.4</ele><time>2026-04-19T13:55:45.672Z</time></trkpt><trkpt lat="44.0016813" lon="12.4298005"><ele>98.60000000000001</ele><time>2026-04-19T13:55:46.666Z</time></trkpt><trkpt lat="44.0017343" lon="12.4299369"><ele>98.80000000000001</ele><time>2026-04-19T13:55:47.668Z</time></trkpt><trkpt lat="44.0017787" lon="12.430056"><ele>99.0</ele><time>2026-04-19T13:55:48.677Z</time></trkpt><trkpt lat="44.0018223" lon="12.4301762"><ele>98.4</ele><time>2026-04-19T13:55:49.678Z</time></trkpt><trkpt lat="44.0018653" lon="12.4302934"><ele>97.80000000000001</ele><time>2026-04-19T13:55:50.661Z</time></trkpt><trkpt lat="44.001915" lon="12.4304003"><ele>97.19999999999999</ele><time>2026-04-19T13:55:51.673Z</time></trkpt><trkpt lat="44.0019638" lon="12.4305047"><ele>96.6</ele><time>2026-04-19T13:55:52.673Z</time></trkpt><trkpt lat="44.0020156" lon="12.4306083"><ele>96.0</ele><time>2026-04-19T13:55:53.677Z</time></trkpt><trkpt lat="44.0020773" lon="12.4307231"><ele>95.6</ele><time>2026-04-19T13:55:54.671Z</time></trkpt><trkpt lat="44.002146" lon="12.4308484"><ele>95.19999999999999</ele><time>2026-04-19T13:55:55.674Z</time></trkpt><trkpt lat="44.0022085" lon="12.4309768"><ele>94.80000000000001</ele><time>2026-04-19T13:55:56.67Z</time></trkpt><trkpt lat="44.0022695" lon="12.4310994"><ele>94.4</ele><time>2026-04-19T13:55:57.674Z</time></trkpt><trkpt lat="44.0023325" lon="12.431221"><ele>94.0</ele><time>2026-04-19T13:55:58.681Z</time></trkpt><trkpt lat="44.002385" lon="12.4313263"><ele>94.0</ele><time>2026-04-19T13:55:59.674Z</time></trkpt><trkpt lat="44.0024403" lon="12.4314273"><ele>94.0</ele><time>2026-04-19T13:56:00.661Z</time></trkpt><trkpt lat="44.0024862" lon="12.4315181"><ele>94.0</ele><time>2026-04-19T13:56:01.672Z</time></trkpt><trkpt lat="44.0025485" lon="12.4316446"><ele>94.0</ele><time>2026-04-19T13:56:03.667Z</time></trkpt><trkpt lat="44.0025749" lon="12.4317311"><ele>94.0</ele><time>2026-04-19T13:56:08.674Z</time></trkpt><trkpt lat="44.0026529" lon="12.4318508"><ele>94.0</ele><time>2026-04-19T13:56:11.674Z</time></trkpt><trkpt lat="44.0026959" lon="12.4319231"><ele>94.0</ele><time>2026-04-19T13:56:12.663Z</time></trkpt><trkpt lat="44.0027456" lon="12.4320116"><ele>94.0</ele><time>2026-04-19T13:56:13.663Z</time></trkpt><trkpt lat="44.0028072" lon="12.4321193"><ele>94.0</ele><time>2026-04-19T13:56:14.67Z</time></trkpt><trkpt lat="44.0028781" lon="12.4322603"><ele>94.0</ele><time>2026-04-19T13:56:15.665Z</time></trkpt><trkpt lat="44.0029492" lon="12.4324182"><ele>93.5</ele><time>2026-04-19T13:56:16.675Z</time></trkpt><trkpt lat="44.0030225" lon="12.4325836"><ele>93.0</ele><time>2026-04-19T13:56:17.668Z</time></trkpt><trkpt lat="44.0030963" lon="12.4327414"><ele>92.5</ele><time>2026-04-19T13:56:18.665Z</time></trkpt><trkpt lat="44.0031732" lon="12.4328908"><ele>92.0</ele><time>2026-04-19T13:56:19.661Z</time></trkpt><trkpt lat="44.0032426" lon="12.4330419"><ele>91.75</ele><time>2026-04-19T13:56:20.66Z</time></trkpt><trkpt lat="44.0033122" lon="12.4331744"><ele>91.5</ele><time>2026-04-19T13:56:21.66Z</time></trkpt><trkpt lat="44.0033783" lon="12.4333017"><ele>91.25</ele><time>2026-04-19T13:56:22.662Z</time></trkpt><trkpt lat="44.0034479" lon="12.4334245"><ele>91.0</ele><time>2026-04-19T13:56:23.659Z</time></trkpt><trkpt lat="44.0035351" lon="12.4335411"><ele>90.8</ele><time>2026-04-19T13:56:24.664Z</time></trkpt><trkpt lat="44.0036243" lon="12.4336614"><ele>90.6</ele><time>2026-04-19T13:56:25.656Z</time></trkpt><trkpt lat="44.003676" lon="12.4338049"><ele>90.4</ele><time>2026-04-19T13:56:26.659Z</time></trkpt><trkpt lat="44.0037301" lon="12.4339378"><ele>90.2</ele><time>2026-04-19T13:56:27.666Z</time></trkpt><trkpt lat="44.0037815" lon="12.4340495"><ele>90.0</ele><time>2026-04-19T13:56:28.67Z</time></trkpt><trkpt lat="44.0038223" lon="12.4341439"><ele>89.83333333333333</ele><time>2026-04-19T13:56:29.667Z</time></trkpt><trkpt lat="44.0038916" lon="12.4342568"><ele>89.66666666666667</ele><time>2026-04-19T13:56:31.669Z</time></trkpt><trkpt lat="44.0039394" lon="12.4341694"><ele>89.5</ele><time>2026-04-19T13:56:34.673Z</time></trkpt><trkpt lat="44.0040213" lon="12.4340991"><ele>89.33333333333334</ele><time>2026-04-19T13:56:38.67Z</time></trkpt><trkpt lat="44.0040794" lon="12.4340141"><ele>89.16666666666667</ele><time>2026-04-19T13:56:42.661Z</time></trkpt><trkpt lat="44.0040153" lon="12.4340608"><ele>89.0</ele><time>2026-04-19T13:56:52.672Z</time></trkpt><trkpt lat="44.0040372" lon="12.4339635"><ele>89.0</ele><time>2026-04-19T13:56:55.666Z</time></trkpt><trkpt lat="44.0039861" lon="12.4340328"><ele>89.0</ele><time>2026-04-19T13:57:05.702Z</time></trkpt><trkpt lat="44.0038808" lon="12.434079"><ele>89.0</ele><time>2026-04-19T13:57:08.675Z</time></trkpt><trkpt lat="44.003956" lon="12.4341036"><ele>89.0</ele><time>2026-04-19T13:57:43.671Z</time></trkpt><trkpt lat="44.0040189" lon="12.434115"><ele>89.0</ele><time>2026-04-19T13:57:59.672Z</time></trkpt><trkpt lat="44.0040613" lon="12.4341922"><ele>89.0</ele><time>2026-04-19T13:58:09.69Z</time></trkpt><trkpt lat="44.0039984" lon="12.434224"><ele>89.0</ele><time>2026-04-19T13:58:15.683Z</time></trkpt><trkpt lat="44.0039792" lon="12.4343642"><ele>89.0</ele><time>2026-04-19T13:58:17.67Z</time></trkpt><trkpt lat="44.0039229" lon="12.4344142"><ele>89.0</ele><time>2026-04-19T13:58:18.677Z</time></trkpt><trkpt lat="44.0039977" lon="12.4343576"><ele>89.0</ele><time>2026-04-19T13:58:21.675Z</time></trkpt><trkpt lat="44.0039744" lon="12.434276"><ele>89.0</ele><time>2026-04-19T13:58:25.695Z</time></trkpt><trkpt lat="44.0040773" lon="12.4343366"><ele>89.0</ele><time>2026-04-19T13:58:29.686Z</time></trkpt><trkpt lat="44.0041212" lon="12.4342717"><ele>89.0</ele><time>2026-04-19T13:58:32.671Z</time></trkpt><trkpt lat="44.0040447" lon="12.4342183"><ele>89.0</ele><time>2026-04-19T13:58:39.684Z</time></trkpt><trkpt lat="44.0040162" lon="12.4341222"><ele>89.0</ele><time>2026-04-19T13:58:43.677Z</time></trkpt><trkpt lat="44.0040479" lon="12.4339983"><ele>89.0</ele><time>2026-04-19T13:58:44.689Z</time></trkpt><trkpt lat="44.0040208" lon="12.4340867"><ele>89.0</ele><time>2026-04-19T13:58:57.69Z</time></trkpt><trkpt lat="44.0039514" lon="12.4340953"><ele>89.0</ele><time>2026-04-19T14:00:34.682Z</time></trkpt></trkseg></trk></gpx>